<?xml version="1.0" encoding="UTF-8" standalone="no" ?>
<gpx xmlns="http://www.topografix.com/GPX/1/1" xmlns:xsi="http://www.w3.org/2001/XMLSchema-instance" xsi:schemaLocation="http://www.topografix.com/GPX/1/1 http://www.topografix.com/GPX/1/1/gpx.xsd" version="1.1" creator="VisuGPX - https://www.visugpx.com">
  <metadata>
    <name>Col d'Araud, col St Jean</name>
    <desc><![CDATA[Belle boucle de 71 km avec deux cols et 1059 m de dénivelé.
Du parking du Casino de Laragne, nous partons en direction de Châteauneuf de Châbre, puis les gorges de la Méouge. Le soleil est bien présent, c'est sans doute pour cela que l'on rencontre beaucoup de cyclistes. Après avoir traversé Barret nous prenons sur la route d'Éourres pour gravir le col d'Araud (893 m). Au col nous avons dû descendre du vélo et faire 500 m à pied, la route venait d'être goudronnée (beaucoup de gravillons et de goudron). Puis c'est la descente sur Lachau avant de monter le col St Jean (1158 m). Du col ce n'est pratiquement plus que de la descente pour rejoindre Laragne en passant par Laborel, Les Bégües, Orpierre, Lagrand et Saléon. Malgré un rythme soutenu nous pouvons admirer les beaux paysages de cocliquots, du début de floraison de la lavande et les multiples fleurs où les foins ne sont pas encore coupés.]]></desc>
  </metadata>
  <trk>
    <name><![CDATA[Col D'Araud, col St Jean]]></name>
    <trkseg>
      <trkpt lat="44.31588" lon="5.82973">
        <ele>600</ele>
        <time>2019-06-19T06:55:06Z</time>
      </trkpt>
      <trkpt lat="44.31577" lon="5.82936">
        <ele>573</ele>
        <time>2019-06-19T06:56:29Z</time>
      </trkpt>
      <trkpt lat="44.31574" lon="5.82934">
        <ele>572</ele>
        <time>2019-06-19T06:56:30Z</time>
      </trkpt>
      <trkpt lat="44.31571" lon="5.8293">
        <ele>572</ele>
        <time>2019-06-19T06:56:31Z</time>
      </trkpt>
      <trkpt lat="44.31568" lon="5.82926">
        <ele>572</ele>
        <time>2019-06-19T06:56:32Z</time>
      </trkpt>
      <trkpt lat="44.31565" lon="5.82922">
        <ele>571</ele>
        <time>2019-06-19T06:56:33Z</time>
      </trkpt>
      <trkpt lat="44.31562" lon="5.82918">
        <ele>570</ele>
        <time>2019-06-19T06:56:34Z</time>
      </trkpt>
      <trkpt lat="44.31559" lon="5.82915">
        <ele>569</ele>
        <time>2019-06-19T06:56:35Z</time>
      </trkpt>
      <trkpt lat="44.31555" lon="5.82912">
        <ele>568</ele>
        <time>2019-06-19T06:56:36Z</time>
      </trkpt>
      <trkpt lat="44.31552" lon="5.8291">
        <ele>567</ele>
        <time>2019-06-19T06:56:37Z</time>
      </trkpt>
      <trkpt lat="44.31549" lon="5.82907">
        <ele>567</ele>
        <time>2019-06-19T06:56:38Z</time>
      </trkpt>
      <trkpt lat="44.31546" lon="5.82905">
        <ele>567</ele>
        <time>2019-06-19T06:56:39Z</time>
      </trkpt>
      <trkpt lat="44.31543" lon="5.82902">
        <ele>567</ele>
        <time>2019-06-19T06:56:40Z</time>
      </trkpt>
      <trkpt lat="44.3154" lon="5.82899">
        <ele>567</ele>
        <time>2019-06-19T06:56:41Z</time>
      </trkpt>
      <trkpt lat="44.31537" lon="5.82897">
        <ele>567</ele>
        <time>2019-06-19T06:56:42Z</time>
      </trkpt>
      <trkpt lat="44.31534" lon="5.82894">
        <ele>567</ele>
        <time>2019-06-19T06:56:43Z</time>
      </trkpt>
      <trkpt lat="44.31532" lon="5.82891">
        <ele>567</ele>
        <time>2019-06-19T06:56:44Z</time>
      </trkpt>
      <trkpt lat="44.31529" lon="5.82888">
        <ele>567</ele>
        <time>2019-06-19T06:56:45Z</time>
      </trkpt>
      <trkpt lat="44.31527" lon="5.82886">
        <ele>567</ele>
        <time>2019-06-19T06:56:46Z</time>
      </trkpt>
      <trkpt lat="44.31524" lon="5.82883">
        <ele>567</ele>
        <time>2019-06-19T06:56:47Z</time>
      </trkpt>
      <trkpt lat="44.31521" lon="5.82881">
        <ele>567</ele>
        <time>2019-06-19T06:56:48Z</time>
      </trkpt>
      <trkpt lat="44.31518" lon="5.82878">
        <ele>567</ele>
        <time>2019-06-19T06:56:49Z</time>
      </trkpt>
      <trkpt lat="44.31514" lon="5.82875">
        <ele>567</ele>
        <time>2019-06-19T06:56:50Z</time>
      </trkpt>
      <trkpt lat="44.31511" lon="5.82872">
        <ele>567</ele>
        <time>2019-06-19T06:56:51Z</time>
      </trkpt>
      <trkpt lat="44.31507" lon="5.82871">
        <ele>567</ele>
        <time>2019-06-19T06:56:52Z</time>
      </trkpt>
      <trkpt lat="44.31503" lon="5.82871">
        <ele>567</ele>
        <time>2019-06-19T06:56:53Z</time>
      </trkpt>
      <trkpt lat="44.31499" lon="5.82872">
        <ele>567</ele>
        <time>2019-06-19T06:56:54Z</time>
      </trkpt>
      <trkpt lat="44.31495" lon="5.82874">
        <ele>567</ele>
        <time>2019-06-19T06:56:55Z</time>
      </trkpt>
      <trkpt lat="44.31492" lon="5.8288">
        <ele>567</ele>
        <time>2019-06-19T06:56:56Z</time>
      </trkpt>
      <trkpt lat="44.31489" lon="5.82886">
        <ele>567</ele>
        <time>2019-06-19T06:56:57Z</time>
      </trkpt>
      <trkpt lat="44.31486" lon="5.82891">
        <ele>567</ele>
        <time>2019-06-19T06:56:58Z</time>
      </trkpt>
      <trkpt lat="44.31483" lon="5.82896">
        <ele>567</ele>
        <time>2019-06-19T06:56:59Z</time>
      </trkpt>
      <trkpt lat="44.3148" lon="5.82901">
        <ele>567</ele>
        <time>2019-06-19T06:57:00Z</time>
      </trkpt>
      <trkpt lat="44.31478" lon="5.82907">
        <ele>567</ele>
        <time>2019-06-19T06:57:01Z</time>
      </trkpt>
      <trkpt lat="44.31475" lon="5.82912">
        <ele>568</ele>
        <time>2019-06-19T06:57:02Z</time>
      </trkpt>
      <trkpt lat="44.31472" lon="5.82916">
        <ele>568</ele>
        <time>2019-06-19T06:57:03Z</time>
      </trkpt>
      <trkpt lat="44.31468" lon="5.82921">
        <ele>569</ele>
        <time>2019-06-19T06:57:04Z</time>
      </trkpt>
      <trkpt lat="44.31465" lon="5.82926">
        <ele>569</ele>
        <time>2019-06-19T06:57:05Z</time>
      </trkpt>
      <trkpt lat="44.31462" lon="5.82932">
        <ele>569</ele>
        <time>2019-06-19T06:57:06Z</time>
      </trkpt>
      <trkpt lat="44.31459" lon="5.82937">
        <ele>570</ele>
        <time>2019-06-19T06:57:07Z</time>
      </trkpt>
      <trkpt lat="44.31456" lon="5.82941">
        <ele>570</ele>
        <time>2019-06-19T06:57:08Z</time>
      </trkpt>
      <trkpt lat="44.31453" lon="5.82947">
        <ele>571</ele>
        <time>2019-06-19T06:57:09Z</time>
      </trkpt>
      <trkpt lat="44.3145" lon="5.82952">
        <ele>571</ele>
        <time>2019-06-19T06:57:10Z</time>
      </trkpt>
      <trkpt lat="44.31446" lon="5.82958">
        <ele>571</ele>
        <time>2019-06-19T06:57:11Z</time>
      </trkpt>
      <trkpt lat="44.31443" lon="5.82964">
        <ele>572</ele>
        <time>2019-06-19T06:57:12Z</time>
      </trkpt>
      <trkpt lat="44.31439" lon="5.82969">
        <ele>573</ele>
        <time>2019-06-19T06:57:13Z</time>
      </trkpt>
      <trkpt lat="44.31436" lon="5.82974">
        <ele>573</ele>
        <time>2019-06-19T06:57:14Z</time>
      </trkpt>
      <trkpt lat="44.31432" lon="5.82978">
        <ele>573</ele>
        <time>2019-06-19T06:57:15Z</time>
      </trkpt>
      <trkpt lat="44.31429" lon="5.82983">
        <ele>574</ele>
        <time>2019-06-19T06:57:16Z</time>
      </trkpt>
      <trkpt lat="44.31425" lon="5.82988">
        <ele>574</ele>
        <time>2019-06-19T06:57:17Z</time>
      </trkpt>
      <trkpt lat="44.31422" lon="5.82994">
        <ele>574</ele>
        <time>2019-06-19T06:57:18Z</time>
      </trkpt>
      <trkpt lat="44.31419" lon="5.82998">
        <ele>574</ele>
        <time>2019-06-19T06:57:19Z</time>
      </trkpt>
      <trkpt lat="44.31415" lon="5.83003">
        <ele>574</ele>
        <time>2019-06-19T06:57:20Z</time>
      </trkpt>
      <trkpt lat="44.31411" lon="5.83008">
        <ele>574</ele>
        <time>2019-06-19T06:57:21Z</time>
      </trkpt>
      <trkpt lat="44.31408" lon="5.83013">
        <ele>574</ele>
        <time>2019-06-19T06:57:22Z</time>
      </trkpt>
      <trkpt lat="44.31404" lon="5.83015">
        <ele>574</ele>
        <time>2019-06-19T06:57:23Z</time>
      </trkpt>
      <trkpt lat="44.314" lon="5.83019">
        <ele>574</ele>
        <time>2019-06-19T06:57:24Z</time>
      </trkpt>
      <trkpt lat="44.31397" lon="5.83026">
        <ele>574</ele>
        <time>2019-06-19T06:57:25Z</time>
      </trkpt>
      <trkpt lat="44.31393" lon="5.83031">
        <ele>574</ele>
        <time>2019-06-19T06:57:26Z</time>
      </trkpt>
      <trkpt lat="44.3139" lon="5.83035">
        <ele>574</ele>
        <time>2019-06-19T06:57:27Z</time>
      </trkpt>
      <trkpt lat="44.31386" lon="5.83039">
        <ele>574</ele>
        <time>2019-06-19T06:57:28Z</time>
      </trkpt>
      <trkpt lat="44.31383" lon="5.83044">
        <ele>574</ele>
        <time>2019-06-19T06:57:29Z</time>
      </trkpt>
      <trkpt lat="44.3138" lon="5.83049">
        <ele>574</ele>
        <time>2019-06-19T06:57:30Z</time>
      </trkpt>
      <trkpt lat="44.31377" lon="5.83054">
        <ele>574</ele>
        <time>2019-06-19T06:57:31Z</time>
      </trkpt>
      <trkpt lat="44.31375" lon="5.83061">
        <ele>574</ele>
        <time>2019-06-19T06:57:32Z</time>
      </trkpt>
      <trkpt lat="44.31372" lon="5.83067">
        <ele>574</ele>
        <time>2019-06-19T06:57:33Z</time>
      </trkpt>
      <trkpt lat="44.3137" lon="5.83073">
        <ele>574</ele>
        <time>2019-06-19T06:57:34Z</time>
      </trkpt>
      <trkpt lat="44.31368" lon="5.83078">
        <ele>574</ele>
        <time>2019-06-19T06:57:35Z</time>
      </trkpt>
      <trkpt lat="44.31366" lon="5.83084">
        <ele>574</ele>
        <time>2019-06-19T06:57:36Z</time>
      </trkpt>
      <trkpt lat="44.31364" lon="5.83088">
        <ele>574</ele>
        <time>2019-06-19T06:57:37Z</time>
      </trkpt>
      <trkpt lat="44.31363" lon="5.83093">
        <ele>574</ele>
        <time>2019-06-19T06:57:38Z</time>
      </trkpt>
      <trkpt lat="44.31362" lon="5.83098">
        <ele>575</ele>
        <time>2019-06-19T06:57:39Z</time>
      </trkpt>
      <trkpt lat="44.31361" lon="5.83102">
        <ele>575</ele>
        <time>2019-06-19T06:57:40Z</time>
      </trkpt>
      <trkpt lat="44.3136" lon="5.83105">
        <ele>575</ele>
        <time>2019-06-19T06:57:41Z</time>
      </trkpt>
      <trkpt lat="44.31357" lon="5.83105">
        <ele>575</ele>
        <time>2019-06-19T06:57:42Z</time>
      </trkpt>
      <trkpt lat="44.31354" lon="5.83104">
        <ele>575</ele>
        <time>2019-06-19T06:57:43Z</time>
      </trkpt>
      <trkpt lat="44.3135" lon="5.83101">
        <ele>575</ele>
        <time>2019-06-19T06:57:44Z</time>
      </trkpt>
      <trkpt lat="44.31347" lon="5.83097">
        <ele>575</ele>
        <time>2019-06-19T06:57:45Z</time>
      </trkpt>
      <trkpt lat="44.31345" lon="5.83091">
        <ele>575</ele>
        <time>2019-06-19T06:57:46Z</time>
      </trkpt>
      <trkpt lat="44.31345" lon="5.83086">
        <ele>575</ele>
        <time>2019-06-19T06:57:47Z</time>
      </trkpt>
      <trkpt lat="44.31345" lon="5.8308">
        <ele>575</ele>
        <time>2019-06-19T06:57:48Z</time>
      </trkpt>
      <trkpt lat="44.31345" lon="5.83075">
        <ele>575</ele>
        <time>2019-06-19T06:57:49Z</time>
      </trkpt>
      <trkpt lat="44.31345" lon="5.8307">
        <ele>575</ele>
        <time>2019-06-19T06:57:50Z</time>
      </trkpt>
      <trkpt lat="44.31346" lon="5.83064">
        <ele>575</ele>
        <time>2019-06-19T06:57:51Z</time>
      </trkpt>
      <trkpt lat="44.31347" lon="5.83058">
        <ele>575</ele>
        <time>2019-06-19T06:57:52Z</time>
      </trkpt>
      <trkpt lat="44.31348" lon="5.83053">
        <ele>575</ele>
        <time>2019-06-19T06:57:53Z</time>
      </trkpt>
      <trkpt lat="44.3135" lon="5.83047">
        <ele>575</ele>
        <time>2019-06-19T06:57:54Z</time>
      </trkpt>
      <trkpt lat="44.31353" lon="5.83041">
        <ele>575</ele>
        <time>2019-06-19T06:57:55Z</time>
      </trkpt>
      <trkpt lat="44.31353" lon="5.83034">
        <ele>575</ele>
        <time>2019-06-19T06:57:56Z</time>
      </trkpt>
      <trkpt lat="44.31354" lon="5.83027">
        <ele>574</ele>
        <time>2019-06-19T06:57:57Z</time>
      </trkpt>
      <trkpt lat="44.31356" lon="5.8302">
        <ele>574</ele>
        <time>2019-06-19T06:57:58Z</time>
      </trkpt>
      <trkpt lat="44.31358" lon="5.83013">
        <ele>573</ele>
        <time>2019-06-19T06:57:59Z</time>
      </trkpt>
      <trkpt lat="44.31359" lon="5.83006">
        <ele>572</ele>
        <time>2019-06-19T06:58:00Z</time>
      </trkpt>
      <trkpt lat="44.31361" lon="5.82999">
        <ele>572</ele>
        <time>2019-06-19T06:58:01Z</time>
      </trkpt>
      <trkpt lat="44.31362" lon="5.82991">
        <ele>571</ele>
        <time>2019-06-19T06:58:02Z</time>
      </trkpt>
      <trkpt lat="44.31363" lon="5.82982">
        <ele>570</ele>
        <time>2019-06-19T06:58:03Z</time>
      </trkpt>
      <trkpt lat="44.31364" lon="5.82974">
        <ele>570</ele>
        <time>2019-06-19T06:58:04Z</time>
      </trkpt>
      <trkpt lat="44.31365" lon="5.82966">
        <ele>570</ele>
        <time>2019-06-19T06:58:05Z</time>
      </trkpt>
      <trkpt lat="44.31366" lon="5.82957">
        <ele>569</ele>
        <time>2019-06-19T06:58:06Z</time>
      </trkpt>
      <trkpt lat="44.31367" lon="5.82947">
        <ele>569</ele>
        <time>2019-06-19T06:58:07Z</time>
      </trkpt>
      <trkpt lat="44.31368" lon="5.82938">
        <ele>569</ele>
        <time>2019-06-19T06:58:08Z</time>
      </trkpt>
      <trkpt lat="44.31369" lon="5.8293">
        <ele>568</ele>
        <time>2019-06-19T06:58:09Z</time>
      </trkpt>
      <trkpt lat="44.31371" lon="5.82921">
        <ele>568</ele>
        <time>2019-06-19T06:58:10Z</time>
      </trkpt>
      <trkpt lat="44.31372" lon="5.82911">
        <ele>567</ele>
        <time>2019-06-19T06:58:11Z</time>
      </trkpt>
      <trkpt lat="44.31373" lon="5.82902">
        <ele>567</ele>
        <time>2019-06-19T06:58:12Z</time>
      </trkpt>
      <trkpt lat="44.31374" lon="5.82892">
        <ele>566</ele>
        <time>2019-06-19T06:58:13Z</time>
      </trkpt>
      <trkpt lat="44.31375" lon="5.82883">
        <ele>565</ele>
        <time>2019-06-19T06:58:14Z</time>
      </trkpt>
      <trkpt lat="44.31376" lon="5.82873">
        <ele>565</ele>
        <time>2019-06-19T06:58:15Z</time>
      </trkpt>
      <trkpt lat="44.31376" lon="5.82864">
        <ele>565</ele>
        <time>2019-06-19T06:58:16Z</time>
      </trkpt>
      <trkpt lat="44.31377" lon="5.82854">
        <ele>565</ele>
        <time>2019-06-19T06:58:17Z</time>
      </trkpt>
      <trkpt lat="44.31377" lon="5.82844">
        <ele>565</ele>
        <time>2019-06-19T06:58:18Z</time>
      </trkpt>
      <trkpt lat="44.31379" lon="5.82835">
        <ele>565</ele>
        <time>2019-06-19T06:58:19Z</time>
      </trkpt>
      <trkpt lat="44.31379" lon="5.82826">
        <ele>565</ele>
        <time>2019-06-19T06:58:20Z</time>
      </trkpt>
      <trkpt lat="44.3138" lon="5.82816">
        <ele>564</ele>
        <time>2019-06-19T06:58:21Z</time>
      </trkpt>
      <trkpt lat="44.31381" lon="5.82807">
        <ele>564</ele>
        <time>2019-06-19T06:58:22Z</time>
      </trkpt>
      <trkpt lat="44.31382" lon="5.82798">
        <ele>564</ele>
        <time>2019-06-19T06:58:23Z</time>
      </trkpt>
      <trkpt lat="44.31382" lon="5.82788">
        <ele>564</ele>
        <time>2019-06-19T06:58:24Z</time>
      </trkpt>
      <trkpt lat="44.31381" lon="5.82779">
        <ele>564</ele>
        <time>2019-06-19T06:58:25Z</time>
      </trkpt>
      <trkpt lat="44.31381" lon="5.8277">
        <ele>564</ele>
        <time>2019-06-19T06:58:26Z</time>
      </trkpt>
      <trkpt lat="44.31381" lon="5.82761">
        <ele>564</ele>
        <time>2019-06-19T06:58:27Z</time>
      </trkpt>
      <trkpt lat="44.3138" lon="5.82753">
        <ele>564</ele>
        <time>2019-06-19T06:58:28Z</time>
      </trkpt>
      <trkpt lat="44.3138" lon="5.82744">
        <ele>564</ele>
        <time>2019-06-19T06:58:29Z</time>
      </trkpt>
      <trkpt lat="44.3138" lon="5.82736">
        <ele>564</ele>
        <time>2019-06-19T06:58:30Z</time>
      </trkpt>
      <trkpt lat="44.31379" lon="5.82728">
        <ele>564</ele>
        <time>2019-06-19T06:58:31Z</time>
      </trkpt>
      <trkpt lat="44.31378" lon="5.8272">
        <ele>564</ele>
        <time>2019-06-19T06:58:32Z</time>
      </trkpt>
      <trkpt lat="44.31378" lon="5.82712">
        <ele>564</ele>
        <time>2019-06-19T06:58:33Z</time>
      </trkpt>
      <trkpt lat="44.31377" lon="5.82704">
        <ele>564</ele>
        <time>2019-06-19T06:58:34Z</time>
      </trkpt>
      <trkpt lat="44.31376" lon="5.82696">
        <ele>564</ele>
        <time>2019-06-19T06:58:35Z</time>
      </trkpt>
      <trkpt lat="44.31375" lon="5.8269">
        <ele>564</ele>
        <time>2019-06-19T06:58:36Z</time>
      </trkpt>
      <trkpt lat="44.31372" lon="5.82685">
        <ele>564</ele>
        <time>2019-06-19T06:58:37Z</time>
      </trkpt>
      <trkpt lat="44.31368" lon="5.82681">
        <ele>564</ele>
        <time>2019-06-19T06:58:38Z</time>
      </trkpt>
      <trkpt lat="44.31363" lon="5.82678">
        <ele>564</ele>
        <time>2019-06-19T06:58:39Z</time>
      </trkpt>
      <trkpt lat="44.31358" lon="5.82676">
        <ele>564</ele>
        <time>2019-06-19T06:58:40Z</time>
      </trkpt>
      <trkpt lat="44.31352" lon="5.82673">
        <ele>564</ele>
        <time>2019-06-19T06:58:41Z</time>
      </trkpt>
      <trkpt lat="44.31347" lon="5.82671">
        <ele>564</ele>
        <time>2019-06-19T06:58:42Z</time>
      </trkpt>
      <trkpt lat="44.31341" lon="5.82669">
        <ele>564</ele>
        <time>2019-06-19T06:58:43Z</time>
      </trkpt>
      <trkpt lat="44.31335" lon="5.82666">
        <ele>564</ele>
        <time>2019-06-19T06:58:44Z</time>
      </trkpt>
      <trkpt lat="44.31329" lon="5.82663">
        <ele>564</ele>
        <time>2019-06-19T06:58:45Z</time>
      </trkpt>
      <trkpt lat="44.31323" lon="5.82659">
        <ele>564</ele>
        <time>2019-06-19T06:58:46Z</time>
      </trkpt>
      <trkpt lat="44.31317" lon="5.82655">
        <ele>564</ele>
        <time>2019-06-19T06:58:47Z</time>
      </trkpt>
      <trkpt lat="44.3131" lon="5.8265">
        <ele>564</ele>
        <time>2019-06-19T06:58:48Z</time>
      </trkpt>
      <trkpt lat="44.31303" lon="5.82645">
        <ele>564</ele>
        <time>2019-06-19T06:58:49Z</time>
      </trkpt>
      <trkpt lat="44.31295" lon="5.82641">
        <ele>564</ele>
        <time>2019-06-19T06:58:50Z</time>
      </trkpt>
      <trkpt lat="44.31287" lon="5.82636">
        <ele>564</ele>
        <time>2019-06-19T06:58:51Z</time>
      </trkpt>
      <trkpt lat="44.3128" lon="5.82631">
        <ele>563</ele>
        <time>2019-06-19T06:58:52Z</time>
      </trkpt>
      <trkpt lat="44.31272" lon="5.82626">
        <ele>563</ele>
        <time>2019-06-19T06:58:53Z</time>
      </trkpt>
      <trkpt lat="44.31264" lon="5.82622">
        <ele>562</ele>
        <time>2019-06-19T06:58:54Z</time>
      </trkpt>
      <trkpt lat="44.31257" lon="5.82617">
        <ele>561</ele>
        <time>2019-06-19T06:58:55Z</time>
      </trkpt>
      <trkpt lat="44.3125" lon="5.82613">
        <ele>560</ele>
        <time>2019-06-19T06:58:56Z</time>
      </trkpt>
      <trkpt lat="44.31242" lon="5.82608">
        <ele>560</ele>
        <time>2019-06-19T06:58:57Z</time>
      </trkpt>
      <trkpt lat="44.31235" lon="5.82604">
        <ele>559</ele>
        <time>2019-06-19T06:58:58Z</time>
      </trkpt>
      <trkpt lat="44.31227" lon="5.82599">
        <ele>558</ele>
        <time>2019-06-19T06:58:59Z</time>
      </trkpt>
      <trkpt lat="44.31218" lon="5.82594">
        <ele>557</ele>
        <time>2019-06-19T06:59:00Z</time>
      </trkpt>
      <trkpt lat="44.3121" lon="5.8259">
        <ele>557</ele>
        <time>2019-06-19T06:59:01Z</time>
      </trkpt>
      <trkpt lat="44.31202" lon="5.82585">
        <ele>557</ele>
        <time>2019-06-19T06:59:02Z</time>
      </trkpt>
      <trkpt lat="44.31194" lon="5.82581">
        <ele>557</ele>
        <time>2019-06-19T06:59:03Z</time>
      </trkpt>
      <trkpt lat="44.31186" lon="5.82577">
        <ele>557</ele>
        <time>2019-06-19T06:59:04Z</time>
      </trkpt>
      <trkpt lat="44.31178" lon="5.82573">
        <ele>557</ele>
        <time>2019-06-19T06:59:05Z</time>
      </trkpt>
      <trkpt lat="44.31171" lon="5.82569">
        <ele>557</ele>
        <time>2019-06-19T06:59:06Z</time>
      </trkpt>
      <trkpt lat="44.31164" lon="5.82565">
        <ele>557</ele>
        <time>2019-06-19T06:59:07Z</time>
      </trkpt>
      <trkpt lat="44.31157" lon="5.82561">
        <ele>557</ele>
        <time>2019-06-19T06:59:08Z</time>
      </trkpt>
      <trkpt lat="44.31149" lon="5.82557">
        <ele>557</ele>
        <time>2019-06-19T06:59:09Z</time>
      </trkpt>
      <trkpt lat="44.31142" lon="5.82553">
        <ele>557</ele>
        <time>2019-06-19T06:59:10Z</time>
      </trkpt>
      <trkpt lat="44.31135" lon="5.8255">
        <ele>557</ele>
        <time>2019-06-19T06:59:11Z</time>
      </trkpt>
      <trkpt lat="44.31128" lon="5.82547">
        <ele>557</ele>
        <time>2019-06-19T06:59:12Z</time>
      </trkpt>
      <trkpt lat="44.31122" lon="5.82543">
        <ele>557</ele>
        <time>2019-06-19T06:59:13Z</time>
      </trkpt>
      <trkpt lat="44.31115" lon="5.82539">
        <ele>557</ele>
        <time>2019-06-19T06:59:14Z</time>
      </trkpt>
      <trkpt lat="44.31109" lon="5.82536">
        <ele>557</ele>
        <time>2019-06-19T06:59:15Z</time>
      </trkpt>
      <trkpt lat="44.31103" lon="5.82532">
        <ele>557</ele>
        <time>2019-06-19T06:59:16Z</time>
      </trkpt>
      <trkpt lat="44.31097" lon="5.82528">
        <ele>557</ele>
        <time>2019-06-19T06:59:17Z</time>
      </trkpt>
      <trkpt lat="44.31091" lon="5.82524">
        <ele>557</ele>
        <time>2019-06-19T06:59:18Z</time>
      </trkpt>
      <trkpt lat="44.31086" lon="5.8252">
        <ele>557</ele>
        <time>2019-06-19T06:59:19Z</time>
      </trkpt>
      <trkpt lat="44.31081" lon="5.82513">
        <ele>557</ele>
        <time>2019-06-19T06:59:20Z</time>
      </trkpt>
      <trkpt lat="44.31077" lon="5.82506">
        <ele>557</ele>
        <time>2019-06-19T06:59:21Z</time>
      </trkpt>
      <trkpt lat="44.31075" lon="5.82499">
        <ele>557</ele>
        <time>2019-06-19T06:59:22Z</time>
      </trkpt>
      <trkpt lat="44.31074" lon="5.82491">
        <ele>557</ele>
        <time>2019-06-19T06:59:23Z</time>
      </trkpt>
      <trkpt lat="44.31075" lon="5.82483">
        <ele>557</ele>
        <time>2019-06-19T06:59:24Z</time>
      </trkpt>
      <trkpt lat="44.31078" lon="5.82476">
        <ele>557</ele>
        <time>2019-06-19T06:59:25Z</time>
      </trkpt>
      <trkpt lat="44.3108" lon="5.82469">
        <ele>557</ele>
        <time>2019-06-19T06:59:26Z</time>
      </trkpt>
      <trkpt lat="44.31083" lon="5.82463">
        <ele>557</ele>
        <time>2019-06-19T06:59:27Z</time>
      </trkpt>
      <trkpt lat="44.31085" lon="5.82457">
        <ele>557</ele>
        <time>2019-06-19T06:59:28Z</time>
      </trkpt>
      <trkpt lat="44.31088" lon="5.82452">
        <ele>557</ele>
        <time>2019-06-19T06:59:29Z</time>
      </trkpt>
      <trkpt lat="44.3109" lon="5.82446">
        <ele>557</ele>
        <time>2019-06-19T06:59:30Z</time>
      </trkpt>
      <trkpt lat="44.31093" lon="5.82441">
        <ele>557</ele>
        <time>2019-06-19T06:59:31Z</time>
      </trkpt>
      <trkpt lat="44.31096" lon="5.82435">
        <ele>557</ele>
        <time>2019-06-19T06:59:32Z</time>
      </trkpt>
      <trkpt lat="44.31098" lon="5.82429">
        <ele>557</ele>
        <time>2019-06-19T06:59:33Z</time>
      </trkpt>
      <trkpt lat="44.31101" lon="5.82423">
        <ele>557</ele>
        <time>2019-06-19T06:59:34Z</time>
      </trkpt>
      <trkpt lat="44.31104" lon="5.82416">
        <ele>557</ele>
        <time>2019-06-19T06:59:35Z</time>
      </trkpt>
      <trkpt lat="44.31108" lon="5.82409">
        <ele>557</ele>
        <time>2019-06-19T06:59:36Z</time>
      </trkpt>
      <trkpt lat="44.3111" lon="5.824">
        <ele>557</ele>
        <time>2019-06-19T06:59:37Z</time>
      </trkpt>
      <trkpt lat="44.31111" lon="5.8239">
        <ele>556</ele>
        <time>2019-06-19T06:59:38Z</time>
      </trkpt>
      <trkpt lat="44.31112" lon="5.82381">
        <ele>556</ele>
        <time>2019-06-19T06:59:39Z</time>
      </trkpt>
      <trkpt lat="44.31112" lon="5.82372">
        <ele>555</ele>
        <time>2019-06-19T06:59:40Z</time>
      </trkpt>
      <trkpt lat="44.31113" lon="5.82363">
        <ele>555</ele>
        <time>2019-06-19T06:59:41Z</time>
      </trkpt>
      <trkpt lat="44.31116" lon="5.82354">
        <ele>555</ele>
        <time>2019-06-19T06:59:42Z</time>
      </trkpt>
      <trkpt lat="44.31119" lon="5.82347">
        <ele>555</ele>
        <time>2019-06-19T06:59:43Z</time>
      </trkpt>
      <trkpt lat="44.31123" lon="5.82341">
        <ele>555</ele>
        <time>2019-06-19T06:59:44Z</time>
      </trkpt>
      <trkpt lat="44.31126" lon="5.82335">
        <ele>555</ele>
        <time>2019-06-19T06:59:45Z</time>
      </trkpt>
      <trkpt lat="44.31131" lon="5.82328">
        <ele>555</ele>
        <time>2019-06-19T06:59:46Z</time>
      </trkpt>
      <trkpt lat="44.31134" lon="5.82322">
        <ele>555</ele>
        <time>2019-06-19T06:59:47Z</time>
      </trkpt>
      <trkpt lat="44.31138" lon="5.82316">
        <ele>555</ele>
        <time>2019-06-19T06:59:48Z</time>
      </trkpt>
      <trkpt lat="44.31142" lon="5.8231">
        <ele>555</ele>
        <time>2019-06-19T06:59:49Z</time>
      </trkpt>
      <trkpt lat="44.31145" lon="5.82305">
        <ele>555</ele>
        <time>2019-06-19T06:59:50Z</time>
      </trkpt>
      <trkpt lat="44.31148" lon="5.823">
        <ele>555</ele>
        <time>2019-06-19T06:59:51Z</time>
      </trkpt>
      <trkpt lat="44.31151" lon="5.82296">
        <ele>555</ele>
        <time>2019-06-19T06:59:52Z</time>
      </trkpt>
      <trkpt lat="44.31152" lon="5.82292">
        <ele>555</ele>
        <time>2019-06-19T06:59:53Z</time>
      </trkpt>
      <trkpt lat="44.31152" lon="5.82289">
        <ele>555</ele>
        <time>2019-06-19T06:59:54Z</time>
      </trkpt>
      <trkpt lat="44.31151" lon="5.82286">
        <ele>555</ele>
        <time>2019-06-19T06:59:55Z</time>
      </trkpt>
      <trkpt lat="44.3115" lon="5.82282">
        <ele>555</ele>
        <time>2019-06-19T06:59:56Z</time>
      </trkpt>
      <trkpt lat="44.31149" lon="5.8228">
        <ele>555</ele>
        <time>2019-06-19T06:59:57Z</time>
      </trkpt>
      <trkpt lat="44.31149" lon="5.82278">
        <ele>555</ele>
        <time>2019-06-19T06:59:58Z</time>
      </trkpt>
      <trkpt lat="44.31147" lon="5.82281">
        <ele>555</ele>
        <time>2019-06-19T07:00:11Z</time>
      </trkpt>
      <trkpt lat="44.31146" lon="5.82281">
        <ele>556</ele>
        <time>2019-06-19T07:00:15Z</time>
      </trkpt>
      <trkpt lat="44.31146" lon="5.82279">
        <ele>556</ele>
        <time>2019-06-19T07:00:17Z</time>
      </trkpt>
      <trkpt lat="44.31146" lon="5.82277">
        <ele>556</ele>
        <time>2019-06-19T07:00:20Z</time>
      </trkpt>
      <trkpt lat="44.31147" lon="5.82274">
        <ele>556</ele>
        <time>2019-06-19T07:00:22Z</time>
      </trkpt>
      <trkpt lat="44.31147" lon="5.82272">
        <ele>556</ele>
        <time>2019-06-19T07:00:24Z</time>
      </trkpt>
      <trkpt lat="44.31148" lon="5.8227">
        <ele>556</ele>
        <time>2019-06-19T07:00:25Z</time>
      </trkpt>
      <trkpt lat="44.31147" lon="5.82272">
        <ele>556</ele>
        <time>2019-06-19T07:00:29Z</time>
      </trkpt>
      <trkpt lat="44.31145" lon="5.82274">
        <ele>556</ele>
        <time>2019-06-19T07:00:32Z</time>
      </trkpt>
      <trkpt lat="44.31145" lon="5.82275">
        <ele>556</ele>
        <time>2019-06-19T07:00:36Z</time>
      </trkpt>
      <trkpt lat="44.31145" lon="5.82277">
        <ele>556</ele>
        <time>2019-06-19T07:00:39Z</time>
      </trkpt>
      <trkpt lat="44.31145" lon="5.82279">
        <ele>557</ele>
        <time>2019-06-19T07:00:41Z</time>
      </trkpt>
      <trkpt lat="44.31146" lon="5.8228">
        <ele>557</ele>
        <time>2019-06-19T07:00:43Z</time>
      </trkpt>
      <trkpt lat="44.31145" lon="5.82279">
        <ele>557</ele>
        <time>2019-06-19T07:00:50Z</time>
      </trkpt>
      <trkpt lat="44.31144" lon="5.82278">
        <ele>558</ele>
        <time>2019-06-19T07:00:56Z</time>
      </trkpt>
      <trkpt lat="44.31143" lon="5.82277">
        <ele>560</ele>
        <time>2019-06-19T07:01:11Z</time>
      </trkpt>
      <trkpt lat="44.31142" lon="5.82276">
        <ele>560</ele>
        <time>2019-06-19T07:01:24Z</time>
      </trkpt>
      <trkpt lat="44.31143" lon="5.82277">
        <ele>560</ele>
        <time>2019-06-19T07:01:33Z</time>
      </trkpt>
      <trkpt lat="44.31144" lon="5.82277">
        <ele>560</ele>
        <time>2019-06-19T07:01:34Z</time>
      </trkpt>
      <trkpt lat="44.31145" lon="5.82279">
        <ele>560</ele>
        <time>2019-06-19T07:01:37Z</time>
      </trkpt>
      <trkpt lat="44.31146" lon="5.8228">
        <ele>560</ele>
        <time>2019-06-19T07:01:39Z</time>
      </trkpt>
      <trkpt lat="44.31148" lon="5.82281">
        <ele>560</ele>
        <time>2019-06-19T07:01:41Z</time>
      </trkpt>
      <trkpt lat="44.31149" lon="5.82282">
        <ele>560</ele>
        <time>2019-06-19T07:01:46Z</time>
      </trkpt>
      <trkpt lat="44.31149" lon="5.82284">
        <ele>560</ele>
        <time>2019-06-19T07:01:51Z</time>
      </trkpt>
      <trkpt lat="44.3115" lon="5.82285">
        <ele>561</ele>
        <time>2019-06-19T07:02:01Z</time>
      </trkpt>
      <trkpt lat="44.31152" lon="5.82284">
        <ele>562</ele>
        <time>2019-06-19T07:02:06Z</time>
      </trkpt>
      <trkpt lat="44.31152" lon="5.82283">
        <ele>562</ele>
        <time>2019-06-19T07:02:28Z</time>
      </trkpt>
      <trkpt lat="44.31152" lon="5.82281">
        <ele>562</ele>
        <time>2019-06-19T07:02:37Z</time>
      </trkpt>
      <trkpt lat="44.31151" lon="5.82283">
        <ele>561</ele>
        <time>2019-06-19T07:02:48Z</time>
      </trkpt>
      <trkpt lat="44.31151" lon="5.82281">
        <ele>561</ele>
        <time>2019-06-19T07:03:01Z</time>
      </trkpt>
      <trkpt lat="44.31151" lon="5.82279">
        <ele>561</ele>
        <time>2019-06-19T07:03:03Z</time>
      </trkpt>
      <trkpt lat="44.3115" lon="5.82278">
        <ele>561</ele>
        <time>2019-06-19T07:03:06Z</time>
      </trkpt>
      <trkpt lat="44.3115" lon="5.82276">
        <ele>559</ele>
        <time>2019-06-19T07:03:11Z</time>
      </trkpt>
      <trkpt lat="44.31149" lon="5.82275">
        <ele>556</ele>
        <time>2019-06-19T07:03:29Z</time>
      </trkpt>
      <trkpt lat="44.31148" lon="5.82276">
        <ele>556</ele>
        <time>2019-06-19T07:03:34Z</time>
      </trkpt>
      <trkpt lat="44.31149" lon="5.82274">
        <ele>556</ele>
        <time>2019-06-19T07:03:42Z</time>
      </trkpt>
      <trkpt lat="44.3115" lon="5.82273">
        <ele>556</ele>
        <time>2019-06-19T07:03:50Z</time>
      </trkpt>
      <trkpt lat="44.31149" lon="5.82271">
        <ele>555</ele>
        <time>2019-06-19T07:03:51Z</time>
      </trkpt>
      <trkpt lat="44.31148" lon="5.82269">
        <ele>555</ele>
        <time>2019-06-19T07:03:52Z</time>
      </trkpt>
      <trkpt lat="44.31147" lon="5.82267">
        <ele>555</ele>
        <time>2019-06-19T07:03:53Z</time>
      </trkpt>
      <trkpt lat="44.31145" lon="5.82263">
        <ele>554</ele>
        <time>2019-06-19T07:03:54Z</time>
      </trkpt>
      <trkpt lat="44.31143" lon="5.8226">
        <ele>554</ele>
        <time>2019-06-19T07:03:55Z</time>
      </trkpt>
      <trkpt lat="44.31141" lon="5.82256">
        <ele>554</ele>
        <time>2019-06-19T07:03:56Z</time>
      </trkpt>
      <trkpt lat="44.31139" lon="5.82253">
        <ele>554</ele>
        <time>2019-06-19T07:03:57Z</time>
      </trkpt>
      <trkpt lat="44.31136" lon="5.82249">
        <ele>554</ele>
        <time>2019-06-19T07:03:58Z</time>
      </trkpt>
      <trkpt lat="44.31133" lon="5.82245">
        <ele>554</ele>
        <time>2019-06-19T07:03:59Z</time>
      </trkpt>
      <trkpt lat="44.31131" lon="5.82241">
        <ele>554</ele>
        <time>2019-06-19T07:04:00Z</time>
      </trkpt>
      <trkpt lat="44.31128" lon="5.82237">
        <ele>554</ele>
        <time>2019-06-19T07:04:01Z</time>
      </trkpt>
      <trkpt lat="44.31124" lon="5.82233">
        <ele>554</ele>
        <time>2019-06-19T07:04:02Z</time>
      </trkpt>
      <trkpt lat="44.31121" lon="5.82229">
        <ele>554</ele>
        <time>2019-06-19T07:04:03Z</time>
      </trkpt>
      <trkpt lat="44.31117" lon="5.82224">
        <ele>554</ele>
        <time>2019-06-19T07:04:04Z</time>
      </trkpt>
      <trkpt lat="44.31114" lon="5.8222">
        <ele>554</ele>
        <time>2019-06-19T07:04:05Z</time>
      </trkpt>
      <trkpt lat="44.31111" lon="5.82216">
        <ele>554</ele>
        <time>2019-06-19T07:04:06Z</time>
      </trkpt>
      <trkpt lat="44.31108" lon="5.82212">
        <ele>554</ele>
        <time>2019-06-19T07:04:07Z</time>
      </trkpt>
      <trkpt lat="44.31105" lon="5.82209">
        <ele>554</ele>
        <time>2019-06-19T07:04:08Z</time>
      </trkpt>
      <trkpt lat="44.31102" lon="5.82205">
        <ele>554</ele>
        <time>2019-06-19T07:04:09Z</time>
      </trkpt>
      <trkpt lat="44.31098" lon="5.82201">
        <ele>554</ele>
        <time>2019-06-19T07:04:10Z</time>
      </trkpt>
      <trkpt lat="44.31094" lon="5.82196">
        <ele>554</ele>
        <time>2019-06-19T07:04:11Z</time>
      </trkpt>
      <trkpt lat="44.31091" lon="5.82192">
        <ele>554</ele>
        <time>2019-06-19T07:04:12Z</time>
      </trkpt>
      <trkpt lat="44.31088" lon="5.82189">
        <ele>554</ele>
        <time>2019-06-19T07:04:13Z</time>
      </trkpt>
      <trkpt lat="44.31085" lon="5.82185">
        <ele>554</ele>
        <time>2019-06-19T07:04:14Z</time>
      </trkpt>
      <trkpt lat="44.31083" lon="5.82182">
        <ele>554</ele>
        <time>2019-06-19T07:04:15Z</time>
      </trkpt>
      <trkpt lat="44.31082" lon="5.82179">
        <ele>554</ele>
        <time>2019-06-19T07:04:16Z</time>
      </trkpt>
      <trkpt lat="44.3108" lon="5.82176">
        <ele>554</ele>
        <time>2019-06-19T07:04:17Z</time>
      </trkpt>
      <trkpt lat="44.31078" lon="5.82173">
        <ele>554</ele>
        <time>2019-06-19T07:04:18Z</time>
      </trkpt>
      <trkpt lat="44.31076" lon="5.82169">
        <ele>554</ele>
        <time>2019-06-19T07:04:19Z</time>
      </trkpt>
      <trkpt lat="44.31075" lon="5.82165">
        <ele>554</ele>
        <time>2019-06-19T07:04:20Z</time>
      </trkpt>
      <trkpt lat="44.31072" lon="5.82162">
        <ele>554</ele>
        <time>2019-06-19T07:04:21Z</time>
      </trkpt>
      <trkpt lat="44.31069" lon="5.82158">
        <ele>554</ele>
        <time>2019-06-19T07:04:22Z</time>
      </trkpt>
      <trkpt lat="44.31065" lon="5.82154">
        <ele>554</ele>
        <time>2019-06-19T07:04:23Z</time>
      </trkpt>
      <trkpt lat="44.31061" lon="5.8215">
        <ele>554</ele>
        <time>2019-06-19T07:04:24Z</time>
      </trkpt>
      <trkpt lat="44.31058" lon="5.82145">
        <ele>554</ele>
        <time>2019-06-19T07:04:25Z</time>
      </trkpt>
      <trkpt lat="44.31054" lon="5.82139">
        <ele>554</ele>
        <time>2019-06-19T07:04:26Z</time>
      </trkpt>
      <trkpt lat="44.3105" lon="5.82134">
        <ele>554</ele>
        <time>2019-06-19T07:04:27Z</time>
      </trkpt>
      <trkpt lat="44.31046" lon="5.8213">
        <ele>554</ele>
        <time>2019-06-19T07:04:28Z</time>
      </trkpt>
      <trkpt lat="44.31041" lon="5.82126">
        <ele>554</ele>
        <time>2019-06-19T07:04:29Z</time>
      </trkpt>
      <trkpt lat="44.31036" lon="5.82121">
        <ele>554</ele>
        <time>2019-06-19T07:04:30Z</time>
      </trkpt>
      <trkpt lat="44.31033" lon="5.82116">
        <ele>554</ele>
        <time>2019-06-19T07:04:31Z</time>
      </trkpt>
      <trkpt lat="44.31029" lon="5.82111">
        <ele>554</ele>
        <time>2019-06-19T07:04:32Z</time>
      </trkpt>
      <trkpt lat="44.31025" lon="5.82106">
        <ele>554</ele>
        <time>2019-06-19T07:04:33Z</time>
      </trkpt>
      <trkpt lat="44.31021" lon="5.82101">
        <ele>554</ele>
        <time>2019-06-19T07:04:34Z</time>
      </trkpt>
      <trkpt lat="44.31018" lon="5.82096">
        <ele>554</ele>
        <time>2019-06-19T07:04:35Z</time>
      </trkpt>
      <trkpt lat="44.31014" lon="5.82091">
        <ele>554</ele>
        <time>2019-06-19T07:04:36Z</time>
      </trkpt>
      <trkpt lat="44.3101" lon="5.82087">
        <ele>554</ele>
        <time>2019-06-19T07:04:37Z</time>
      </trkpt>
      <trkpt lat="44.31005" lon="5.82082">
        <ele>554</ele>
        <time>2019-06-19T07:04:38Z</time>
      </trkpt>
      <trkpt lat="44.31001" lon="5.82077">
        <ele>554</ele>
        <time>2019-06-19T07:04:39Z</time>
      </trkpt>
      <trkpt lat="44.30996" lon="5.82072">
        <ele>554</ele>
        <time>2019-06-19T07:04:40Z</time>
      </trkpt>
      <trkpt lat="44.30991" lon="5.82067">
        <ele>554</ele>
        <time>2019-06-19T07:04:41Z</time>
      </trkpt>
      <trkpt lat="44.30986" lon="5.82063">
        <ele>554</ele>
        <time>2019-06-19T07:04:42Z</time>
      </trkpt>
      <trkpt lat="44.30981" lon="5.8206">
        <ele>554</ele>
        <time>2019-06-19T07:04:43Z</time>
      </trkpt>
      <trkpt lat="44.30976" lon="5.82056">
        <ele>553</ele>
        <time>2019-06-19T07:04:44Z</time>
      </trkpt>
      <trkpt lat="44.30971" lon="5.82053">
        <ele>553</ele>
        <time>2019-06-19T07:04:45Z</time>
      </trkpt>
      <trkpt lat="44.30966" lon="5.8205">
        <ele>553</ele>
        <time>2019-06-19T07:04:46Z</time>
      </trkpt>
      <trkpt lat="44.3096" lon="5.82046">
        <ele>553</ele>
        <time>2019-06-19T07:04:47Z</time>
      </trkpt>
      <trkpt lat="44.30955" lon="5.82043">
        <ele>553</ele>
        <time>2019-06-19T07:04:48Z</time>
      </trkpt>
      <trkpt lat="44.30949" lon="5.8204">
        <ele>553</ele>
        <time>2019-06-19T07:04:49Z</time>
      </trkpt>
      <trkpt lat="44.30943" lon="5.82038">
        <ele>553</ele>
        <time>2019-06-19T07:04:50Z</time>
      </trkpt>
      <trkpt lat="44.30938" lon="5.82036">
        <ele>553</ele>
        <time>2019-06-19T07:04:51Z</time>
      </trkpt>
      <trkpt lat="44.30932" lon="5.82035">
        <ele>553</ele>
        <time>2019-06-19T07:04:52Z</time>
      </trkpt>
      <trkpt lat="44.30927" lon="5.82035">
        <ele>553</ele>
        <time>2019-06-19T07:04:53Z</time>
      </trkpt>
      <trkpt lat="44.30922" lon="5.82035">
        <ele>553</ele>
        <time>2019-06-19T07:04:54Z</time>
      </trkpt>
      <trkpt lat="44.30917" lon="5.82035">
        <ele>553</ele>
        <time>2019-06-19T07:04:55Z</time>
      </trkpt>
      <trkpt lat="44.30913" lon="5.82036">
        <ele>553</ele>
        <time>2019-06-19T07:04:56Z</time>
      </trkpt>
      <trkpt lat="44.30909" lon="5.82036">
        <ele>553</ele>
        <time>2019-06-19T07:04:57Z</time>
      </trkpt>
      <trkpt lat="44.30904" lon="5.82037">
        <ele>553</ele>
        <time>2019-06-19T07:04:58Z</time>
      </trkpt>
      <trkpt lat="44.309" lon="5.82038">
        <ele>553</ele>
        <time>2019-06-19T07:04:59Z</time>
      </trkpt>
      <trkpt lat="44.30896" lon="5.82039">
        <ele>553</ele>
        <time>2019-06-19T07:05:00Z</time>
      </trkpt>
      <trkpt lat="44.30892" lon="5.82041">
        <ele>553</ele>
        <time>2019-06-19T07:05:01Z</time>
      </trkpt>
      <trkpt lat="44.30888" lon="5.82043">
        <ele>553</ele>
        <time>2019-06-19T07:05:02Z</time>
      </trkpt>
      <trkpt lat="44.30884" lon="5.82044">
        <ele>553</ele>
        <time>2019-06-19T07:05:03Z</time>
      </trkpt>
      <trkpt lat="44.3088" lon="5.82046">
        <ele>554</ele>
        <time>2019-06-19T07:05:04Z</time>
      </trkpt>
      <trkpt lat="44.30876" lon="5.82047">
        <ele>554</ele>
        <time>2019-06-19T07:05:05Z</time>
      </trkpt>
      <trkpt lat="44.30872" lon="5.82049">
        <ele>554</ele>
        <time>2019-06-19T07:05:06Z</time>
      </trkpt>
      <trkpt lat="44.30868" lon="5.82051">
        <ele>555</ele>
        <time>2019-06-19T07:05:07Z</time>
      </trkpt>
      <trkpt lat="44.30864" lon="5.82052">
        <ele>555</ele>
        <time>2019-06-19T07:05:08Z</time>
      </trkpt>
      <trkpt lat="44.30859" lon="5.82054">
        <ele>555</ele>
        <time>2019-06-19T07:05:09Z</time>
      </trkpt>
      <trkpt lat="44.30855" lon="5.82055">
        <ele>555</ele>
        <time>2019-06-19T07:05:10Z</time>
      </trkpt>
      <trkpt lat="44.30851" lon="5.82056">
        <ele>556</ele>
        <time>2019-06-19T07:05:11Z</time>
      </trkpt>
      <trkpt lat="44.30847" lon="5.82057">
        <ele>556</ele>
        <time>2019-06-19T07:05:12Z</time>
      </trkpt>
      <trkpt lat="44.30843" lon="5.82058">
        <ele>556</ele>
        <time>2019-06-19T07:05:13Z</time>
      </trkpt>
      <trkpt lat="44.30838" lon="5.8206">
        <ele>556</ele>
        <time>2019-06-19T07:05:14Z</time>
      </trkpt>
      <trkpt lat="44.30834" lon="5.82061">
        <ele>556</ele>
        <time>2019-06-19T07:05:15Z</time>
      </trkpt>
      <trkpt lat="44.3083" lon="5.82062">
        <ele>556</ele>
        <time>2019-06-19T07:05:16Z</time>
      </trkpt>
      <trkpt lat="44.30826" lon="5.82063">
        <ele>557</ele>
        <time>2019-06-19T07:05:17Z</time>
      </trkpt>
      <trkpt lat="44.30822" lon="5.82064">
        <ele>557</ele>
        <time>2019-06-19T07:05:18Z</time>
      </trkpt>
      <trkpt lat="44.30818" lon="5.82066">
        <ele>557</ele>
        <time>2019-06-19T07:05:19Z</time>
      </trkpt>
      <trkpt lat="44.30814" lon="5.82067">
        <ele>557</ele>
        <time>2019-06-19T07:05:20Z</time>
      </trkpt>
      <trkpt lat="44.30809" lon="5.82068">
        <ele>557</ele>
        <time>2019-06-19T07:05:21Z</time>
      </trkpt>
      <trkpt lat="44.30805" lon="5.82069">
        <ele>558</ele>
        <time>2019-06-19T07:05:22Z</time>
      </trkpt>
      <trkpt lat="44.308" lon="5.8207">
        <ele>558</ele>
        <time>2019-06-19T07:05:23Z</time>
      </trkpt>
      <trkpt lat="44.30796" lon="5.82071">
        <ele>558</ele>
        <time>2019-06-19T07:05:24Z</time>
      </trkpt>
      <trkpt lat="44.30791" lon="5.82073">
        <ele>558</ele>
        <time>2019-06-19T07:05:25Z</time>
      </trkpt>
      <trkpt lat="44.30787" lon="5.82074">
        <ele>558</ele>
        <time>2019-06-19T07:05:26Z</time>
      </trkpt>
      <trkpt lat="44.30782" lon="5.82076">
        <ele>558</ele>
        <time>2019-06-19T07:05:27Z</time>
      </trkpt>
      <trkpt lat="44.30778" lon="5.82078">
        <ele>558</ele>
        <time>2019-06-19T07:05:28Z</time>
      </trkpt>
      <trkpt lat="44.30774" lon="5.8208">
        <ele>559</ele>
        <time>2019-06-19T07:05:29Z</time>
      </trkpt>
      <trkpt lat="44.30769" lon="5.82083">
        <ele>559</ele>
        <time>2019-06-19T07:05:30Z</time>
      </trkpt>
      <trkpt lat="44.30765" lon="5.82086">
        <ele>559</ele>
        <time>2019-06-19T07:05:31Z</time>
      </trkpt>
      <trkpt lat="44.30761" lon="5.8209">
        <ele>559</ele>
        <time>2019-06-19T07:05:32Z</time>
      </trkpt>
      <trkpt lat="44.30758" lon="5.82094">
        <ele>559</ele>
        <time>2019-06-19T07:05:33Z</time>
      </trkpt>
      <trkpt lat="44.30754" lon="5.82098">
        <ele>559</ele>
        <time>2019-06-19T07:05:34Z</time>
      </trkpt>
      <trkpt lat="44.30751" lon="5.82103">
        <ele>559</ele>
        <time>2019-06-19T07:05:35Z</time>
      </trkpt>
      <trkpt lat="44.30748" lon="5.82107">
        <ele>559</ele>
        <time>2019-06-19T07:05:36Z</time>
      </trkpt>
      <trkpt lat="44.30745" lon="5.82113">
        <ele>559</ele>
        <time>2019-06-19T07:05:37Z</time>
      </trkpt>
      <trkpt lat="44.30742" lon="5.82118">
        <ele>559</ele>
        <time>2019-06-19T07:05:38Z</time>
      </trkpt>
      <trkpt lat="44.3074" lon="5.82123">
        <ele>559</ele>
        <time>2019-06-19T07:05:39Z</time>
      </trkpt>
      <trkpt lat="44.30737" lon="5.82128">
        <ele>559</ele>
        <time>2019-06-19T07:05:40Z</time>
      </trkpt>
      <trkpt lat="44.30735" lon="5.82134">
        <ele>559</ele>
        <time>2019-06-19T07:05:41Z</time>
      </trkpt>
      <trkpt lat="44.30733" lon="5.82139">
        <ele>559</ele>
        <time>2019-06-19T07:05:42Z</time>
      </trkpt>
      <trkpt lat="44.30731" lon="5.82146">
        <ele>559</ele>
        <time>2019-06-19T07:05:43Z</time>
      </trkpt>
      <trkpt lat="44.3073" lon="5.82153">
        <ele>559</ele>
        <time>2019-06-19T07:05:44Z</time>
      </trkpt>
      <trkpt lat="44.30727" lon="5.82158">
        <ele>559</ele>
        <time>2019-06-19T07:05:45Z</time>
      </trkpt>
      <trkpt lat="44.30725" lon="5.82164">
        <ele>560</ele>
        <time>2019-06-19T07:05:46Z</time>
      </trkpt>
      <trkpt lat="44.30723" lon="5.8217">
        <ele>560</ele>
        <time>2019-06-19T07:05:47Z</time>
      </trkpt>
      <trkpt lat="44.30721" lon="5.82176">
        <ele>560</ele>
        <time>2019-06-19T07:05:48Z</time>
      </trkpt>
      <trkpt lat="44.30719" lon="5.82182">
        <ele>560</ele>
        <time>2019-06-19T07:05:49Z</time>
      </trkpt>
      <trkpt lat="44.30716" lon="5.82187">
        <ele>560</ele>
        <time>2019-06-19T07:05:50Z</time>
      </trkpt>
      <trkpt lat="44.30714" lon="5.82193">
        <ele>561</ele>
        <time>2019-06-19T07:05:51Z</time>
      </trkpt>
      <trkpt lat="44.30711" lon="5.82198">
        <ele>561</ele>
        <time>2019-06-19T07:05:52Z</time>
      </trkpt>
      <trkpt lat="44.30709" lon="5.82203">
        <ele>561</ele>
        <time>2019-06-19T07:05:53Z</time>
      </trkpt>
      <trkpt lat="44.30706" lon="5.82208">
        <ele>561</ele>
        <time>2019-06-19T07:05:54Z</time>
      </trkpt>
      <trkpt lat="44.30702" lon="5.82214">
        <ele>561</ele>
        <time>2019-06-19T07:05:55Z</time>
      </trkpt>
      <trkpt lat="44.30699" lon="5.82219">
        <ele>561</ele>
        <time>2019-06-19T07:05:56Z</time>
      </trkpt>
      <trkpt lat="44.30695" lon="5.82224">
        <ele>561</ele>
        <time>2019-06-19T07:05:57Z</time>
      </trkpt>
      <trkpt lat="44.30692" lon="5.82229">
        <ele>561</ele>
        <time>2019-06-19T07:05:58Z</time>
      </trkpt>
      <trkpt lat="44.30689" lon="5.82234">
        <ele>561</ele>
        <time>2019-06-19T07:05:59Z</time>
      </trkpt>
      <trkpt lat="44.30685" lon="5.82239">
        <ele>561</ele>
        <time>2019-06-19T07:06:00Z</time>
      </trkpt>
      <trkpt lat="44.30681" lon="5.82243">
        <ele>561</ele>
        <time>2019-06-19T07:06:01Z</time>
      </trkpt>
      <trkpt lat="44.30677" lon="5.82248">
        <ele>561</ele>
        <time>2019-06-19T07:06:02Z</time>
      </trkpt>
      <trkpt lat="44.30673" lon="5.82253">
        <ele>561</ele>
        <time>2019-06-19T07:06:03Z</time>
      </trkpt>
      <trkpt lat="44.30669" lon="5.82258">
        <ele>561</ele>
        <time>2019-06-19T07:06:04Z</time>
      </trkpt>
      <trkpt lat="44.30664" lon="5.82262">
        <ele>561</ele>
        <time>2019-06-19T07:06:05Z</time>
      </trkpt>
      <trkpt lat="44.3066" lon="5.82266">
        <ele>561</ele>
        <time>2019-06-19T07:06:06Z</time>
      </trkpt>
      <trkpt lat="44.30655" lon="5.8227">
        <ele>561</ele>
        <time>2019-06-19T07:06:07Z</time>
      </trkpt>
      <trkpt lat="44.3065" lon="5.82274">
        <ele>561</ele>
        <time>2019-06-19T07:06:08Z</time>
      </trkpt>
      <trkpt lat="44.30645" lon="5.82278">
        <ele>561</ele>
        <time>2019-06-19T07:06:09Z</time>
      </trkpt>
      <trkpt lat="44.3064" lon="5.82282">
        <ele>561</ele>
        <time>2019-06-19T07:06:10Z</time>
      </trkpt>
      <trkpt lat="44.30635" lon="5.82285">
        <ele>561</ele>
        <time>2019-06-19T07:06:11Z</time>
      </trkpt>
      <trkpt lat="44.3063" lon="5.82289">
        <ele>561</ele>
        <time>2019-06-19T07:06:12Z</time>
      </trkpt>
      <trkpt lat="44.30625" lon="5.82292">
        <ele>561</ele>
        <time>2019-06-19T07:06:13Z</time>
      </trkpt>
      <trkpt lat="44.30619" lon="5.82295">
        <ele>561</ele>
        <time>2019-06-19T07:06:14Z</time>
      </trkpt>
      <trkpt lat="44.30613" lon="5.82297">
        <ele>561</ele>
        <time>2019-06-19T07:06:15Z</time>
      </trkpt>
      <trkpt lat="44.30608" lon="5.82299">
        <ele>561</ele>
        <time>2019-06-19T07:06:16Z</time>
      </trkpt>
      <trkpt lat="44.30602" lon="5.82301">
        <ele>561</ele>
        <time>2019-06-19T07:06:17Z</time>
      </trkpt>
      <trkpt lat="44.30596" lon="5.82302">
        <ele>561</ele>
        <time>2019-06-19T07:06:18Z</time>
      </trkpt>
      <trkpt lat="44.3059" lon="5.82303">
        <ele>561</ele>
        <time>2019-06-19T07:06:19Z</time>
      </trkpt>
      <trkpt lat="44.30585" lon="5.82303">
        <ele>561</ele>
        <time>2019-06-19T07:06:20Z</time>
      </trkpt>
      <trkpt lat="44.30579" lon="5.82303">
        <ele>561</ele>
        <time>2019-06-19T07:06:21Z</time>
      </trkpt>
      <trkpt lat="44.30573" lon="5.82304">
        <ele>561</ele>
        <time>2019-06-19T07:06:22Z</time>
      </trkpt>
      <trkpt lat="44.30567" lon="5.82305">
        <ele>561</ele>
        <time>2019-06-19T07:06:23Z</time>
      </trkpt>
      <trkpt lat="44.30562" lon="5.82305">
        <ele>561</ele>
        <time>2019-06-19T07:06:24Z</time>
      </trkpt>
      <trkpt lat="44.30556" lon="5.82306">
        <ele>561</ele>
        <time>2019-06-19T07:06:25Z</time>
      </trkpt>
      <trkpt lat="44.30551" lon="5.82307">
        <ele>561</ele>
        <time>2019-06-19T07:06:26Z</time>
      </trkpt>
      <trkpt lat="44.30545" lon="5.82308">
        <ele>561</ele>
        <time>2019-06-19T07:06:27Z</time>
      </trkpt>
      <trkpt lat="44.30539" lon="5.82309">
        <ele>561</ele>
        <time>2019-06-19T07:06:28Z</time>
      </trkpt>
      <trkpt lat="44.30534" lon="5.8231">
        <ele>561</ele>
        <time>2019-06-19T07:06:29Z</time>
      </trkpt>
      <trkpt lat="44.30529" lon="5.82311">
        <ele>561</ele>
        <time>2019-06-19T07:06:30Z</time>
      </trkpt>
      <trkpt lat="44.30523" lon="5.82312">
        <ele>561</ele>
        <time>2019-06-19T07:06:31Z</time>
      </trkpt>
      <trkpt lat="44.30518" lon="5.82313">
        <ele>561</ele>
        <time>2019-06-19T07:06:32Z</time>
      </trkpt>
      <trkpt lat="44.30512" lon="5.82313">
        <ele>561</ele>
        <time>2019-06-19T07:06:33Z</time>
      </trkpt>
      <trkpt lat="44.30506" lon="5.82313">
        <ele>561</ele>
        <time>2019-06-19T07:06:34Z</time>
      </trkpt>
      <trkpt lat="44.305" lon="5.82313">
        <ele>561</ele>
        <time>2019-06-19T07:06:35Z</time>
      </trkpt>
      <trkpt lat="44.30495" lon="5.82313">
        <ele>561</ele>
        <time>2019-06-19T07:06:36Z</time>
      </trkpt>
      <trkpt lat="44.30489" lon="5.82313">
        <ele>561</ele>
        <time>2019-06-19T07:06:37Z</time>
      </trkpt>
      <trkpt lat="44.30483" lon="5.82314">
        <ele>561</ele>
        <time>2019-06-19T07:06:38Z</time>
      </trkpt>
      <trkpt lat="44.30478" lon="5.82314">
        <ele>561</ele>
        <time>2019-06-19T07:06:39Z</time>
      </trkpt>
      <trkpt lat="44.30472" lon="5.82313">
        <ele>561</ele>
        <time>2019-06-19T07:06:40Z</time>
      </trkpt>
      <trkpt lat="44.30466" lon="5.82313">
        <ele>561</ele>
        <time>2019-06-19T07:06:41Z</time>
      </trkpt>
      <trkpt lat="44.30461" lon="5.82313">
        <ele>561</ele>
        <time>2019-06-19T07:06:42Z</time>
      </trkpt>
      <trkpt lat="44.30455" lon="5.82314">
        <ele>561</ele>
        <time>2019-06-19T07:06:43Z</time>
      </trkpt>
      <trkpt lat="44.3045" lon="5.82314">
        <ele>561</ele>
        <time>2019-06-19T07:06:44Z</time>
      </trkpt>
      <trkpt lat="44.30444" lon="5.82313">
        <ele>561</ele>
        <time>2019-06-19T07:06:45Z</time>
      </trkpt>
      <trkpt lat="44.30438" lon="5.82314">
        <ele>561</ele>
        <time>2019-06-19T07:06:46Z</time>
      </trkpt>
      <trkpt lat="44.30432" lon="5.82314">
        <ele>561</ele>
        <time>2019-06-19T07:06:47Z</time>
      </trkpt>
      <trkpt lat="44.30427" lon="5.82314">
        <ele>561</ele>
        <time>2019-06-19T07:06:48Z</time>
      </trkpt>
      <trkpt lat="44.30421" lon="5.82315">
        <ele>561</ele>
        <time>2019-06-19T07:06:49Z</time>
      </trkpt>
      <trkpt lat="44.30415" lon="5.82315">
        <ele>561</ele>
        <time>2019-06-19T07:06:50Z</time>
      </trkpt>
      <trkpt lat="44.3041" lon="5.82315">
        <ele>561</ele>
        <time>2019-06-19T07:06:51Z</time>
      </trkpt>
      <trkpt lat="44.30404" lon="5.82316">
        <ele>561</ele>
        <time>2019-06-19T07:06:52Z</time>
      </trkpt>
      <trkpt lat="44.30398" lon="5.82316">
        <ele>561</ele>
        <time>2019-06-19T07:06:53Z</time>
      </trkpt>
      <trkpt lat="44.30392" lon="5.82316">
        <ele>561</ele>
        <time>2019-06-19T07:06:54Z</time>
      </trkpt>
      <trkpt lat="44.30386" lon="5.82317">
        <ele>561</ele>
        <time>2019-06-19T07:06:55Z</time>
      </trkpt>
      <trkpt lat="44.30381" lon="5.82318">
        <ele>561</ele>
        <time>2019-06-19T07:06:56Z</time>
      </trkpt>
      <trkpt lat="44.30375" lon="5.82319">
        <ele>561</ele>
        <time>2019-06-19T07:06:57Z</time>
      </trkpt>
      <trkpt lat="44.30369" lon="5.8232">
        <ele>561</ele>
        <time>2019-06-19T07:06:58Z</time>
      </trkpt>
      <trkpt lat="44.30363" lon="5.82321">
        <ele>561</ele>
        <time>2019-06-19T07:06:59Z</time>
      </trkpt>
      <trkpt lat="44.30357" lon="5.82322">
        <ele>561</ele>
        <time>2019-06-19T07:07:00Z</time>
      </trkpt>
      <trkpt lat="44.30352" lon="5.82323">
        <ele>561</ele>
        <time>2019-06-19T07:07:01Z</time>
      </trkpt>
      <trkpt lat="44.30346" lon="5.82324">
        <ele>561</ele>
        <time>2019-06-19T07:07:02Z</time>
      </trkpt>
      <trkpt lat="44.3034" lon="5.82325">
        <ele>561</ele>
        <time>2019-06-19T07:07:03Z</time>
      </trkpt>
      <trkpt lat="44.30334" lon="5.82326">
        <ele>561</ele>
        <time>2019-06-19T07:07:04Z</time>
      </trkpt>
      <trkpt lat="44.30329" lon="5.82326">
        <ele>561</ele>
        <time>2019-06-19T07:07:05Z</time>
      </trkpt>
      <trkpt lat="44.30323" lon="5.82327">
        <ele>561</ele>
        <time>2019-06-19T07:07:06Z</time>
      </trkpt>
      <trkpt lat="44.30317" lon="5.82328">
        <ele>561</ele>
        <time>2019-06-19T07:07:07Z</time>
      </trkpt>
      <trkpt lat="44.30312" lon="5.82329">
        <ele>561</ele>
        <time>2019-06-19T07:07:08Z</time>
      </trkpt>
      <trkpt lat="44.30306" lon="5.8233">
        <ele>561</ele>
        <time>2019-06-19T07:07:09Z</time>
      </trkpt>
      <trkpt lat="44.303" lon="5.82331">
        <ele>561</ele>
        <time>2019-06-19T07:07:10Z</time>
      </trkpt>
      <trkpt lat="44.30294" lon="5.82332">
        <ele>561</ele>
        <time>2019-06-19T07:07:11Z</time>
      </trkpt>
      <trkpt lat="44.30288" lon="5.82333">
        <ele>561</ele>
        <time>2019-06-19T07:07:12Z</time>
      </trkpt>
      <trkpt lat="44.30283" lon="5.82334">
        <ele>561</ele>
        <time>2019-06-19T07:07:13Z</time>
      </trkpt>
      <trkpt lat="44.30277" lon="5.82335">
        <ele>561</ele>
        <time>2019-06-19T07:07:14Z</time>
      </trkpt>
      <trkpt lat="44.30271" lon="5.82336">
        <ele>561</ele>
        <time>2019-06-19T07:07:15Z</time>
      </trkpt>
      <trkpt lat="44.30265" lon="5.82337">
        <ele>561</ele>
        <time>2019-06-19T07:07:16Z</time>
      </trkpt>
      <trkpt lat="44.30259" lon="5.82338">
        <ele>561</ele>
        <time>2019-06-19T07:07:17Z</time>
      </trkpt>
      <trkpt lat="44.30254" lon="5.82339">
        <ele>561</ele>
        <time>2019-06-19T07:07:18Z</time>
      </trkpt>
      <trkpt lat="44.30247" lon="5.82339">
        <ele>560</ele>
        <time>2019-06-19T07:07:19Z</time>
      </trkpt>
      <trkpt lat="44.30241" lon="5.82339">
        <ele>560</ele>
        <time>2019-06-19T07:07:20Z</time>
      </trkpt>
      <trkpt lat="44.30235" lon="5.82339">
        <ele>560</ele>
        <time>2019-06-19T07:07:21Z</time>
      </trkpt>
      <trkpt lat="44.30229" lon="5.8234">
        <ele>559</ele>
        <time>2019-06-19T07:07:22Z</time>
      </trkpt>
      <trkpt lat="44.30223" lon="5.82341">
        <ele>559</ele>
        <time>2019-06-19T07:07:23Z</time>
      </trkpt>
      <trkpt lat="44.30217" lon="5.82341">
        <ele>559</ele>
        <time>2019-06-19T07:07:24Z</time>
      </trkpt>
      <trkpt lat="44.30211" lon="5.82341">
        <ele>559</ele>
        <time>2019-06-19T07:07:25Z</time>
      </trkpt>
      <trkpt lat="44.30205" lon="5.82341">
        <ele>559</ele>
        <time>2019-06-19T07:07:26Z</time>
      </trkpt>
      <trkpt lat="44.30199" lon="5.82341">
        <ele>559</ele>
        <time>2019-06-19T07:07:27Z</time>
      </trkpt>
      <trkpt lat="44.30193" lon="5.8234">
        <ele>559</ele>
        <time>2019-06-19T07:07:28Z</time>
      </trkpt>
      <trkpt lat="44.30187" lon="5.8234">
        <ele>559</ele>
        <time>2019-06-19T07:07:29Z</time>
      </trkpt>
      <trkpt lat="44.3018" lon="5.8234">
        <ele>559</ele>
        <time>2019-06-19T07:07:30Z</time>
      </trkpt>
      <trkpt lat="44.30175" lon="5.82339">
        <ele>559</ele>
        <time>2019-06-19T07:07:31Z</time>
      </trkpt>
      <trkpt lat="44.30169" lon="5.82339">
        <ele>559</ele>
        <time>2019-06-19T07:07:32Z</time>
      </trkpt>
      <trkpt lat="44.30163" lon="5.82339">
        <ele>559</ele>
        <time>2019-06-19T07:07:33Z</time>
      </trkpt>
      <trkpt lat="44.30156" lon="5.82338">
        <ele>559</ele>
        <time>2019-06-19T07:07:34Z</time>
      </trkpt>
      <trkpt lat="44.30151" lon="5.82338">
        <ele>559</ele>
        <time>2019-06-19T07:07:35Z</time>
      </trkpt>
      <trkpt lat="44.30145" lon="5.82337">
        <ele>559</ele>
        <time>2019-06-19T07:07:36Z</time>
      </trkpt>
      <trkpt lat="44.30138" lon="5.82337">
        <ele>559</ele>
        <time>2019-06-19T07:07:37Z</time>
      </trkpt>
      <trkpt lat="44.30133" lon="5.82336">
        <ele>559</ele>
        <time>2019-06-19T07:07:38Z</time>
      </trkpt>
      <trkpt lat="44.30126" lon="5.82336">
        <ele>559</ele>
        <time>2019-06-19T07:07:39Z</time>
      </trkpt>
      <trkpt lat="44.3012" lon="5.82335">
        <ele>559</ele>
        <time>2019-06-19T07:07:40Z</time>
      </trkpt>
      <trkpt lat="44.30114" lon="5.82335">
        <ele>559</ele>
        <time>2019-06-19T07:07:41Z</time>
      </trkpt>
      <trkpt lat="44.30108" lon="5.82336">
        <ele>559</ele>
        <time>2019-06-19T07:07:42Z</time>
      </trkpt>
      <trkpt lat="44.30102" lon="5.82336">
        <ele>559</ele>
        <time>2019-06-19T07:07:43Z</time>
      </trkpt>
      <trkpt lat="44.30096" lon="5.82337">
        <ele>559</ele>
        <time>2019-06-19T07:07:44Z</time>
      </trkpt>
      <trkpt lat="44.3009" lon="5.82337">
        <ele>559</ele>
        <time>2019-06-19T07:07:45Z</time>
      </trkpt>
      <trkpt lat="44.30084" lon="5.82338">
        <ele>559</ele>
        <time>2019-06-19T07:07:46Z</time>
      </trkpt>
      <trkpt lat="44.30078" lon="5.82338">
        <ele>559</ele>
        <time>2019-06-19T07:07:47Z</time>
      </trkpt>
      <trkpt lat="44.30072" lon="5.82337">
        <ele>559</ele>
        <time>2019-06-19T07:07:48Z</time>
      </trkpt>
      <trkpt lat="44.30066" lon="5.82337">
        <ele>559</ele>
        <time>2019-06-19T07:07:49Z</time>
      </trkpt>
      <trkpt lat="44.3006" lon="5.82336">
        <ele>559</ele>
        <time>2019-06-19T07:07:50Z</time>
      </trkpt>
      <trkpt lat="44.30054" lon="5.82335">
        <ele>559</ele>
        <time>2019-06-19T07:07:51Z</time>
      </trkpt>
      <trkpt lat="44.30048" lon="5.82334">
        <ele>559</ele>
        <time>2019-06-19T07:07:52Z</time>
      </trkpt>
      <trkpt lat="44.30043" lon="5.82333">
        <ele>559</ele>
        <time>2019-06-19T07:07:53Z</time>
      </trkpt>
      <trkpt lat="44.30037" lon="5.82332">
        <ele>559</ele>
        <time>2019-06-19T07:07:54Z</time>
      </trkpt>
      <trkpt lat="44.30031" lon="5.82331">
        <ele>559</ele>
        <time>2019-06-19T07:07:55Z</time>
      </trkpt>
      <trkpt lat="44.30025" lon="5.82329">
        <ele>559</ele>
        <time>2019-06-19T07:07:56Z</time>
      </trkpt>
      <trkpt lat="44.30019" lon="5.82328">
        <ele>559</ele>
        <time>2019-06-19T07:07:57Z</time>
      </trkpt>
      <trkpt lat="44.30013" lon="5.82327">
        <ele>559</ele>
        <time>2019-06-19T07:07:58Z</time>
      </trkpt>
      <trkpt lat="44.30007" lon="5.82325">
        <ele>559</ele>
        <time>2019-06-19T07:07:59Z</time>
      </trkpt>
      <trkpt lat="44.30001" lon="5.82324">
        <ele>559</ele>
        <time>2019-06-19T07:08:00Z</time>
      </trkpt>
      <trkpt lat="44.29995" lon="5.82322">
        <ele>559</ele>
        <time>2019-06-19T07:08:01Z</time>
      </trkpt>
      <trkpt lat="44.29989" lon="5.8232">
        <ele>559</ele>
        <time>2019-06-19T07:08:02Z</time>
      </trkpt>
      <trkpt lat="44.29983" lon="5.82318">
        <ele>559</ele>
        <time>2019-06-19T07:08:03Z</time>
      </trkpt>
      <trkpt lat="44.29977" lon="5.82316">
        <ele>559</ele>
        <time>2019-06-19T07:08:04Z</time>
      </trkpt>
      <trkpt lat="44.29971" lon="5.82314">
        <ele>559</ele>
        <time>2019-06-19T07:08:05Z</time>
      </trkpt>
      <trkpt lat="44.29965" lon="5.82311">
        <ele>559</ele>
        <time>2019-06-19T07:08:06Z</time>
      </trkpt>
      <trkpt lat="44.29959" lon="5.82309">
        <ele>559</ele>
        <time>2019-06-19T07:08:07Z</time>
      </trkpt>
      <trkpt lat="44.29953" lon="5.82306">
        <ele>559</ele>
        <time>2019-06-19T07:08:08Z</time>
      </trkpt>
      <trkpt lat="44.29947" lon="5.82303">
        <ele>559</ele>
        <time>2019-06-19T07:08:09Z</time>
      </trkpt>
      <trkpt lat="44.29941" lon="5.82301">
        <ele>559</ele>
        <time>2019-06-19T07:08:10Z</time>
      </trkpt>
      <trkpt lat="44.29935" lon="5.82298">
        <ele>559</ele>
        <time>2019-06-19T07:08:11Z</time>
      </trkpt>
      <trkpt lat="44.29929" lon="5.82295">
        <ele>559</ele>
        <time>2019-06-19T07:08:12Z</time>
      </trkpt>
      <trkpt lat="44.29924" lon="5.82292">
        <ele>559</ele>
        <time>2019-06-19T07:08:13Z</time>
      </trkpt>
      <trkpt lat="44.29918" lon="5.82289">
        <ele>559</ele>
        <time>2019-06-19T07:08:14Z</time>
      </trkpt>
      <trkpt lat="44.29912" lon="5.82286">
        <ele>559</ele>
        <time>2019-06-19T07:08:15Z</time>
      </trkpt>
      <trkpt lat="44.29906" lon="5.82283">
        <ele>559</ele>
        <time>2019-06-19T07:08:16Z</time>
      </trkpt>
      <trkpt lat="44.299" lon="5.82279">
        <ele>559</ele>
        <time>2019-06-19T07:08:17Z</time>
      </trkpt>
      <trkpt lat="44.29894" lon="5.82276">
        <ele>559</ele>
        <time>2019-06-19T07:08:18Z</time>
      </trkpt>
      <trkpt lat="44.29888" lon="5.82272">
        <ele>559</ele>
        <time>2019-06-19T07:08:19Z</time>
      </trkpt>
      <trkpt lat="44.29882" lon="5.82269">
        <ele>559</ele>
        <time>2019-06-19T07:08:20Z</time>
      </trkpt>
      <trkpt lat="44.29876" lon="5.82266">
        <ele>559</ele>
        <time>2019-06-19T07:08:21Z</time>
      </trkpt>
      <trkpt lat="44.29871" lon="5.82263">
        <ele>559</ele>
        <time>2019-06-19T07:08:22Z</time>
      </trkpt>
      <trkpt lat="44.29865" lon="5.8226">
        <ele>559</ele>
        <time>2019-06-19T07:08:23Z</time>
      </trkpt>
      <trkpt lat="44.29859" lon="5.82257">
        <ele>559</ele>
        <time>2019-06-19T07:08:24Z</time>
      </trkpt>
      <trkpt lat="44.29853" lon="5.82255">
        <ele>559</ele>
        <time>2019-06-19T07:08:25Z</time>
      </trkpt>
      <trkpt lat="44.29847" lon="5.82253">
        <ele>559</ele>
        <time>2019-06-19T07:08:26Z</time>
      </trkpt>
      <trkpt lat="44.29841" lon="5.82251">
        <ele>559</ele>
        <time>2019-06-19T07:08:27Z</time>
      </trkpt>
      <trkpt lat="44.29834" lon="5.82249">
        <ele>559</ele>
        <time>2019-06-19T07:08:28Z</time>
      </trkpt>
      <trkpt lat="44.29828" lon="5.82247">
        <ele>559</ele>
        <time>2019-06-19T07:08:29Z</time>
      </trkpt>
      <trkpt lat="44.29822" lon="5.82246">
        <ele>559</ele>
        <time>2019-06-19T07:08:30Z</time>
      </trkpt>
      <trkpt lat="44.29816" lon="5.82245">
        <ele>559</ele>
        <time>2019-06-19T07:08:31Z</time>
      </trkpt>
      <trkpt lat="44.2981" lon="5.82244">
        <ele>559</ele>
        <time>2019-06-19T07:08:32Z</time>
      </trkpt>
      <trkpt lat="44.29805" lon="5.82243">
        <ele>559</ele>
        <time>2019-06-19T07:08:33Z</time>
      </trkpt>
      <trkpt lat="44.29799" lon="5.82242">
        <ele>559</ele>
        <time>2019-06-19T07:08:34Z</time>
      </trkpt>
      <trkpt lat="44.29793" lon="5.82241">
        <ele>559</ele>
        <time>2019-06-19T07:08:35Z</time>
      </trkpt>
      <trkpt lat="44.29787" lon="5.8224">
        <ele>559</ele>
        <time>2019-06-19T07:08:36Z</time>
      </trkpt>
      <trkpt lat="44.29781" lon="5.8224">
        <ele>559</ele>
        <time>2019-06-19T07:08:37Z</time>
      </trkpt>
      <trkpt lat="44.29776" lon="5.82239">
        <ele>559</ele>
        <time>2019-06-19T07:08:38Z</time>
      </trkpt>
      <trkpt lat="44.2977" lon="5.82237">
        <ele>559</ele>
        <time>2019-06-19T07:08:39Z</time>
      </trkpt>
      <trkpt lat="44.29764" lon="5.82235">
        <ele>559</ele>
        <time>2019-06-19T07:08:40Z</time>
      </trkpt>
      <trkpt lat="44.29758" lon="5.82233">
        <ele>559</ele>
        <time>2019-06-19T07:08:41Z</time>
      </trkpt>
      <trkpt lat="44.29752" lon="5.82232">
        <ele>559</ele>
        <time>2019-06-19T07:08:42Z</time>
      </trkpt>
      <trkpt lat="44.29746" lon="5.8223">
        <ele>559</ele>
        <time>2019-06-19T07:08:43Z</time>
      </trkpt>
      <trkpt lat="44.2974" lon="5.82227">
        <ele>559</ele>
        <time>2019-06-19T07:08:44Z</time>
      </trkpt>
      <trkpt lat="44.29734" lon="5.82224">
        <ele>559</ele>
        <time>2019-06-19T07:08:45Z</time>
      </trkpt>
      <trkpt lat="44.29728" lon="5.82221">
        <ele>559</ele>
        <time>2019-06-19T07:08:46Z</time>
      </trkpt>
      <trkpt lat="44.29723" lon="5.82218">
        <ele>559</ele>
        <time>2019-06-19T07:08:47Z</time>
      </trkpt>
      <trkpt lat="44.29717" lon="5.82214">
        <ele>559</ele>
        <time>2019-06-19T07:08:48Z</time>
      </trkpt>
      <trkpt lat="44.29711" lon="5.8221">
        <ele>559</ele>
        <time>2019-06-19T07:08:49Z</time>
      </trkpt>
      <trkpt lat="44.29706" lon="5.82206">
        <ele>559</ele>
        <time>2019-06-19T07:08:50Z</time>
      </trkpt>
      <trkpt lat="44.297" lon="5.82202">
        <ele>559</ele>
        <time>2019-06-19T07:08:51Z</time>
      </trkpt>
      <trkpt lat="44.29695" lon="5.82197">
        <ele>559</ele>
        <time>2019-06-19T07:08:52Z</time>
      </trkpt>
      <trkpt lat="44.2969" lon="5.82192">
        <ele>559</ele>
        <time>2019-06-19T07:08:53Z</time>
      </trkpt>
      <trkpt lat="44.29684" lon="5.82188">
        <ele>559</ele>
        <time>2019-06-19T07:08:54Z</time>
      </trkpt>
      <trkpt lat="44.29679" lon="5.82182">
        <ele>559</ele>
        <time>2019-06-19T07:08:55Z</time>
      </trkpt>
      <trkpt lat="44.29674" lon="5.82177">
        <ele>559</ele>
        <time>2019-06-19T07:08:56Z</time>
      </trkpt>
      <trkpt lat="44.29669" lon="5.82172">
        <ele>559</ele>
        <time>2019-06-19T07:08:57Z</time>
      </trkpt>
      <trkpt lat="44.29664" lon="5.82166">
        <ele>559</ele>
        <time>2019-06-19T07:08:58Z</time>
      </trkpt>
      <trkpt lat="44.29659" lon="5.82161">
        <ele>559</ele>
        <time>2019-06-19T07:08:59Z</time>
      </trkpt>
      <trkpt lat="44.29654" lon="5.82156">
        <ele>559</ele>
        <time>2019-06-19T07:09:00Z</time>
      </trkpt>
      <trkpt lat="44.29649" lon="5.82151">
        <ele>559</ele>
        <time>2019-06-19T07:09:01Z</time>
      </trkpt>
      <trkpt lat="44.29643" lon="5.82146">
        <ele>559</ele>
        <time>2019-06-19T07:09:02Z</time>
      </trkpt>
      <trkpt lat="44.29638" lon="5.82142">
        <ele>559</ele>
        <time>2019-06-19T07:09:03Z</time>
      </trkpt>
      <trkpt lat="44.29633" lon="5.82137">
        <ele>559</ele>
        <time>2019-06-19T07:09:04Z</time>
      </trkpt>
      <trkpt lat="44.29627" lon="5.82134">
        <ele>559</ele>
        <time>2019-06-19T07:09:05Z</time>
      </trkpt>
      <trkpt lat="44.29622" lon="5.8213">
        <ele>559</ele>
        <time>2019-06-19T07:09:06Z</time>
      </trkpt>
      <trkpt lat="44.29616" lon="5.82127">
        <ele>559</ele>
        <time>2019-06-19T07:09:07Z</time>
      </trkpt>
      <trkpt lat="44.29611" lon="5.82123">
        <ele>559</ele>
        <time>2019-06-19T07:09:08Z</time>
      </trkpt>
      <trkpt lat="44.29605" lon="5.8212">
        <ele>559</ele>
        <time>2019-06-19T07:09:09Z</time>
      </trkpt>
      <trkpt lat="44.29599" lon="5.82117">
        <ele>559</ele>
        <time>2019-06-19T07:09:10Z</time>
      </trkpt>
      <trkpt lat="44.29594" lon="5.82114">
        <ele>559</ele>
        <time>2019-06-19T07:09:11Z</time>
      </trkpt>
      <trkpt lat="44.29588" lon="5.82111">
        <ele>559</ele>
        <time>2019-06-19T07:09:12Z</time>
      </trkpt>
      <trkpt lat="44.29582" lon="5.82108">
        <ele>559</ele>
        <time>2019-06-19T07:09:13Z</time>
      </trkpt>
      <trkpt lat="44.29576" lon="5.82106">
        <ele>559</ele>
        <time>2019-06-19T07:09:14Z</time>
      </trkpt>
      <trkpt lat="44.29571" lon="5.82103">
        <ele>559</ele>
        <time>2019-06-19T07:09:15Z</time>
      </trkpt>
      <trkpt lat="44.29565" lon="5.82101">
        <ele>559</ele>
        <time>2019-06-19T07:09:16Z</time>
      </trkpt>
      <trkpt lat="44.29559" lon="5.821">
        <ele>559</ele>
        <time>2019-06-19T07:09:17Z</time>
      </trkpt>
      <trkpt lat="44.29553" lon="5.82098">
        <ele>559</ele>
        <time>2019-06-19T07:09:18Z</time>
      </trkpt>
      <trkpt lat="44.29547" lon="5.82097">
        <ele>559</ele>
        <time>2019-06-19T07:09:19Z</time>
      </trkpt>
      <trkpt lat="44.29542" lon="5.82096">
        <ele>559</ele>
        <time>2019-06-19T07:09:20Z</time>
      </trkpt>
      <trkpt lat="44.29536" lon="5.82095">
        <ele>559</ele>
        <time>2019-06-19T07:09:21Z</time>
      </trkpt>
      <trkpt lat="44.2953" lon="5.82094">
        <ele>559</ele>
        <time>2019-06-19T07:09:22Z</time>
      </trkpt>
      <trkpt lat="44.29525" lon="5.82093">
        <ele>559</ele>
        <time>2019-06-19T07:09:23Z</time>
      </trkpt>
      <trkpt lat="44.29519" lon="5.82093">
        <ele>559</ele>
        <time>2019-06-19T07:09:24Z</time>
      </trkpt>
      <trkpt lat="44.29513" lon="5.82092">
        <ele>559</ele>
        <time>2019-06-19T07:09:25Z</time>
      </trkpt>
      <trkpt lat="44.29507" lon="5.82091">
        <ele>559</ele>
        <time>2019-06-19T07:09:26Z</time>
      </trkpt>
      <trkpt lat="44.29502" lon="5.82091">
        <ele>559</ele>
        <time>2019-06-19T07:09:27Z</time>
      </trkpt>
      <trkpt lat="44.29496" lon="5.82091">
        <ele>559</ele>
        <time>2019-06-19T07:09:28Z</time>
      </trkpt>
      <trkpt lat="44.2949" lon="5.82092">
        <ele>559</ele>
        <time>2019-06-19T07:09:29Z</time>
      </trkpt>
      <trkpt lat="44.29484" lon="5.82093">
        <ele>559</ele>
        <time>2019-06-19T07:09:30Z</time>
      </trkpt>
      <trkpt lat="44.29478" lon="5.82094">
        <ele>559</ele>
        <time>2019-06-19T07:09:31Z</time>
      </trkpt>
      <trkpt lat="44.29472" lon="5.82096">
        <ele>559</ele>
        <time>2019-06-19T07:09:32Z</time>
      </trkpt>
      <trkpt lat="44.29467" lon="5.82099">
        <ele>559</ele>
        <time>2019-06-19T07:09:33Z</time>
      </trkpt>
      <trkpt lat="44.29461" lon="5.82102">
        <ele>559</ele>
        <time>2019-06-19T07:09:34Z</time>
      </trkpt>
      <trkpt lat="44.29455" lon="5.82107">
        <ele>559</ele>
        <time>2019-06-19T07:09:35Z</time>
      </trkpt>
      <trkpt lat="44.2945" lon="5.82112">
        <ele>559</ele>
        <time>2019-06-19T07:09:36Z</time>
      </trkpt>
      <trkpt lat="44.29444" lon="5.82117">
        <ele>559</ele>
        <time>2019-06-19T07:09:37Z</time>
      </trkpt>
      <trkpt lat="44.29439" lon="5.82121">
        <ele>559</ele>
        <time>2019-06-19T07:09:38Z</time>
      </trkpt>
      <trkpt lat="44.29434" lon="5.82127">
        <ele>559</ele>
        <time>2019-06-19T07:09:39Z</time>
      </trkpt>
      <trkpt lat="44.29429" lon="5.82132">
        <ele>560</ele>
        <time>2019-06-19T07:09:40Z</time>
      </trkpt>
      <trkpt lat="44.29425" lon="5.82137">
        <ele>560</ele>
        <time>2019-06-19T07:09:41Z</time>
      </trkpt>
      <trkpt lat="44.2942" lon="5.82142">
        <ele>560</ele>
        <time>2019-06-19T07:09:42Z</time>
      </trkpt>
      <trkpt lat="44.29415" lon="5.82147">
        <ele>560</ele>
        <time>2019-06-19T07:09:43Z</time>
      </trkpt>
      <trkpt lat="44.29411" lon="5.82152">
        <ele>561</ele>
        <time>2019-06-19T07:09:44Z</time>
      </trkpt>
      <trkpt lat="44.29406" lon="5.82157">
        <ele>561</ele>
        <time>2019-06-19T07:09:45Z</time>
      </trkpt>
      <trkpt lat="44.29402" lon="5.82162">
        <ele>561</ele>
        <time>2019-06-19T07:09:46Z</time>
      </trkpt>
      <trkpt lat="44.29398" lon="5.82167">
        <ele>561</ele>
        <time>2019-06-19T07:09:47Z</time>
      </trkpt>
      <trkpt lat="44.29394" lon="5.82172">
        <ele>561</ele>
        <time>2019-06-19T07:09:48Z</time>
      </trkpt>
      <trkpt lat="44.2939" lon="5.82177">
        <ele>561</ele>
        <time>2019-06-19T07:09:49Z</time>
      </trkpt>
      <trkpt lat="44.29386" lon="5.82182">
        <ele>561</ele>
        <time>2019-06-19T07:09:50Z</time>
      </trkpt>
      <trkpt lat="44.29382" lon="5.82187">
        <ele>561</ele>
        <time>2019-06-19T07:09:51Z</time>
      </trkpt>
      <trkpt lat="44.29378" lon="5.82192">
        <ele>562</ele>
        <time>2019-06-19T07:09:52Z</time>
      </trkpt>
      <trkpt lat="44.29373" lon="5.82196">
        <ele>562</ele>
        <time>2019-06-19T07:09:53Z</time>
      </trkpt>
      <trkpt lat="44.29369" lon="5.822">
        <ele>562</ele>
        <time>2019-06-19T07:09:54Z</time>
      </trkpt>
      <trkpt lat="44.29364" lon="5.82204">
        <ele>563</ele>
        <time>2019-06-19T07:09:55Z</time>
      </trkpt>
      <trkpt lat="44.29359" lon="5.82208">
        <ele>563</ele>
        <time>2019-06-19T07:09:56Z</time>
      </trkpt>
      <trkpt lat="44.29354" lon="5.82211">
        <ele>563</ele>
        <time>2019-06-19T07:09:57Z</time>
      </trkpt>
      <trkpt lat="44.29349" lon="5.82213">
        <ele>563</ele>
        <time>2019-06-19T07:09:58Z</time>
      </trkpt>
      <trkpt lat="44.29343" lon="5.82216">
        <ele>563</ele>
        <time>2019-06-19T07:09:59Z</time>
      </trkpt>
      <trkpt lat="44.29338" lon="5.82218">
        <ele>563</ele>
        <time>2019-06-19T07:10:00Z</time>
      </trkpt>
      <trkpt lat="44.29332" lon="5.82221">
        <ele>563</ele>
        <time>2019-06-19T07:10:01Z</time>
      </trkpt>
      <trkpt lat="44.29326" lon="5.82223">
        <ele>563</ele>
        <time>2019-06-19T07:10:02Z</time>
      </trkpt>
      <trkpt lat="44.29321" lon="5.82226">
        <ele>563</ele>
        <time>2019-06-19T07:10:03Z</time>
      </trkpt>
      <trkpt lat="44.29315" lon="5.82228">
        <ele>563</ele>
        <time>2019-06-19T07:10:04Z</time>
      </trkpt>
      <trkpt lat="44.29309" lon="5.82231">
        <ele>563</ele>
        <time>2019-06-19T07:10:05Z</time>
      </trkpt>
      <trkpt lat="44.29303" lon="5.82233">
        <ele>563</ele>
        <time>2019-06-19T07:10:06Z</time>
      </trkpt>
      <trkpt lat="44.29297" lon="5.82236">
        <ele>563</ele>
        <time>2019-06-19T07:10:07Z</time>
      </trkpt>
      <trkpt lat="44.2929" lon="5.82238">
        <ele>563</ele>
        <time>2019-06-19T07:10:08Z</time>
      </trkpt>
      <trkpt lat="44.29284" lon="5.82241">
        <ele>563</ele>
        <time>2019-06-19T07:10:09Z</time>
      </trkpt>
      <trkpt lat="44.29278" lon="5.82244">
        <ele>563</ele>
        <time>2019-06-19T07:10:10Z</time>
      </trkpt>
      <trkpt lat="44.29271" lon="5.82247">
        <ele>563</ele>
        <time>2019-06-19T07:10:11Z</time>
      </trkpt>
      <trkpt lat="44.29264" lon="5.82249">
        <ele>563</ele>
        <time>2019-06-19T07:10:12Z</time>
      </trkpt>
      <trkpt lat="44.29258" lon="5.82252">
        <ele>563</ele>
        <time>2019-06-19T07:10:13Z</time>
      </trkpt>
      <trkpt lat="44.29251" lon="5.82253">
        <ele>563</ele>
        <time>2019-06-19T07:10:14Z</time>
      </trkpt>
      <trkpt lat="44.29245" lon="5.82255">
        <ele>563</ele>
        <time>2019-06-19T07:10:15Z</time>
      </trkpt>
      <trkpt lat="44.29238" lon="5.82256">
        <ele>563</ele>
        <time>2019-06-19T07:10:16Z</time>
      </trkpt>
      <trkpt lat="44.29231" lon="5.82257">
        <ele>563</ele>
        <time>2019-06-19T07:10:17Z</time>
      </trkpt>
      <trkpt lat="44.29224" lon="5.82258">
        <ele>563</ele>
        <time>2019-06-19T07:10:18Z</time>
      </trkpt>
      <trkpt lat="44.29218" lon="5.82259">
        <ele>563</ele>
        <time>2019-06-19T07:10:19Z</time>
      </trkpt>
      <trkpt lat="44.29211" lon="5.8226">
        <ele>563</ele>
        <time>2019-06-19T07:10:20Z</time>
      </trkpt>
      <trkpt lat="44.29205" lon="5.82262">
        <ele>563</ele>
        <time>2019-06-19T07:10:21Z</time>
      </trkpt>
      <trkpt lat="44.29198" lon="5.82263">
        <ele>563</ele>
        <time>2019-06-19T07:10:22Z</time>
      </trkpt>
      <trkpt lat="44.29192" lon="5.82264">
        <ele>563</ele>
        <time>2019-06-19T07:10:23Z</time>
      </trkpt>
      <trkpt lat="44.29185" lon="5.82265">
        <ele>563</ele>
        <time>2019-06-19T07:10:24Z</time>
      </trkpt>
      <trkpt lat="44.29179" lon="5.82265">
        <ele>563</ele>
        <time>2019-06-19T07:10:25Z</time>
      </trkpt>
      <trkpt lat="44.29172" lon="5.82266">
        <ele>563</ele>
        <time>2019-06-19T07:10:26Z</time>
      </trkpt>
      <trkpt lat="44.29166" lon="5.82267">
        <ele>563</ele>
        <time>2019-06-19T07:10:27Z</time>
      </trkpt>
      <trkpt lat="44.29159" lon="5.82267">
        <ele>563</ele>
        <time>2019-06-19T07:10:28Z</time>
      </trkpt>
      <trkpt lat="44.29153" lon="5.82268">
        <ele>563</ele>
        <time>2019-06-19T07:10:29Z</time>
      </trkpt>
      <trkpt lat="44.29147" lon="5.82268">
        <ele>563</ele>
        <time>2019-06-19T07:10:30Z</time>
      </trkpt>
      <trkpt lat="44.29139" lon="5.82268">
        <ele>563</ele>
        <time>2019-06-19T07:10:31Z</time>
      </trkpt>
      <trkpt lat="44.29133" lon="5.82268">
        <ele>563</ele>
        <time>2019-06-19T07:10:32Z</time>
      </trkpt>
      <trkpt lat="44.29126" lon="5.82268">
        <ele>563</ele>
        <time>2019-06-19T07:10:33Z</time>
      </trkpt>
      <trkpt lat="44.29119" lon="5.82269">
        <ele>563</ele>
        <time>2019-06-19T07:10:34Z</time>
      </trkpt>
      <trkpt lat="44.29113" lon="5.82269">
        <ele>563</ele>
        <time>2019-06-19T07:10:35Z</time>
      </trkpt>
      <trkpt lat="44.29106" lon="5.8227">
        <ele>563</ele>
        <time>2019-06-19T07:10:36Z</time>
      </trkpt>
      <trkpt lat="44.29099" lon="5.8227">
        <ele>563</ele>
        <time>2019-06-19T07:10:37Z</time>
      </trkpt>
      <trkpt lat="44.29093" lon="5.82271">
        <ele>563</ele>
        <time>2019-06-19T07:10:38Z</time>
      </trkpt>
      <trkpt lat="44.29086" lon="5.82271">
        <ele>563</ele>
        <time>2019-06-19T07:10:39Z</time>
      </trkpt>
      <trkpt lat="44.2908" lon="5.82272">
        <ele>563</ele>
        <time>2019-06-19T07:10:40Z</time>
      </trkpt>
      <trkpt lat="44.29073" lon="5.82272">
        <ele>563</ele>
        <time>2019-06-19T07:10:41Z</time>
      </trkpt>
      <trkpt lat="44.29067" lon="5.82273">
        <ele>563</ele>
        <time>2019-06-19T07:10:42Z</time>
      </trkpt>
      <trkpt lat="44.29061" lon="5.82274">
        <ele>563</ele>
        <time>2019-06-19T07:10:43Z</time>
      </trkpt>
      <trkpt lat="44.29055" lon="5.82274">
        <ele>563</ele>
        <time>2019-06-19T07:10:44Z</time>
      </trkpt>
      <trkpt lat="44.29049" lon="5.82274">
        <ele>563</ele>
        <time>2019-06-19T07:10:45Z</time>
      </trkpt>
      <trkpt lat="44.29043" lon="5.82274">
        <ele>563</ele>
        <time>2019-06-19T07:10:46Z</time>
      </trkpt>
      <trkpt lat="44.29037" lon="5.82273">
        <ele>563</ele>
        <time>2019-06-19T07:10:47Z</time>
      </trkpt>
      <trkpt lat="44.29032" lon="5.82274">
        <ele>563</ele>
        <time>2019-06-19T07:10:48Z</time>
      </trkpt>
      <trkpt lat="44.29026" lon="5.82274">
        <ele>563</ele>
        <time>2019-06-19T07:10:49Z</time>
      </trkpt>
      <trkpt lat="44.29021" lon="5.82275">
        <ele>563</ele>
        <time>2019-06-19T07:10:50Z</time>
      </trkpt>
      <trkpt lat="44.29016" lon="5.82275">
        <ele>563</ele>
        <time>2019-06-19T07:10:51Z</time>
      </trkpt>
      <trkpt lat="44.2901" lon="5.82275">
        <ele>563</ele>
        <time>2019-06-19T07:10:52Z</time>
      </trkpt>
      <trkpt lat="44.29005" lon="5.82275">
        <ele>563</ele>
        <time>2019-06-19T07:10:53Z</time>
      </trkpt>
      <trkpt lat="44.29" lon="5.82276">
        <ele>563</ele>
        <time>2019-06-19T07:10:54Z</time>
      </trkpt>
      <trkpt lat="44.28995" lon="5.82276">
        <ele>563</ele>
        <time>2019-06-19T07:10:55Z</time>
      </trkpt>
      <trkpt lat="44.28989" lon="5.82276">
        <ele>563</ele>
        <time>2019-06-19T07:10:56Z</time>
      </trkpt>
      <trkpt lat="44.28984" lon="5.82277">
        <ele>563</ele>
        <time>2019-06-19T07:10:57Z</time>
      </trkpt>
      <trkpt lat="44.28979" lon="5.82277">
        <ele>563</ele>
        <time>2019-06-19T07:10:58Z</time>
      </trkpt>
      <trkpt lat="44.28975" lon="5.82278">
        <ele>563</ele>
        <time>2019-06-19T07:10:59Z</time>
      </trkpt>
      <trkpt lat="44.28969" lon="5.82278">
        <ele>563</ele>
        <time>2019-06-19T07:11:00Z</time>
      </trkpt>
      <trkpt lat="44.28965" lon="5.82278">
        <ele>563</ele>
        <time>2019-06-19T07:11:01Z</time>
      </trkpt>
      <trkpt lat="44.2896" lon="5.82279">
        <ele>563</ele>
        <time>2019-06-19T07:11:02Z</time>
      </trkpt>
      <trkpt lat="44.28954" lon="5.82279">
        <ele>563</ele>
        <time>2019-06-19T07:11:03Z</time>
      </trkpt>
      <trkpt lat="44.2895" lon="5.82279">
        <ele>563</ele>
        <time>2019-06-19T07:11:04Z</time>
      </trkpt>
      <trkpt lat="44.28945" lon="5.8228">
        <ele>563</ele>
        <time>2019-06-19T07:11:05Z</time>
      </trkpt>
      <trkpt lat="44.2894" lon="5.8228">
        <ele>563</ele>
        <time>2019-06-19T07:11:06Z</time>
      </trkpt>
      <trkpt lat="44.28935" lon="5.8228">
        <ele>563</ele>
        <time>2019-06-19T07:11:07Z</time>
      </trkpt>
      <trkpt lat="44.2893" lon="5.8228">
        <ele>563</ele>
        <time>2019-06-19T07:11:08Z</time>
      </trkpt>
      <trkpt lat="44.28925" lon="5.82279">
        <ele>563</ele>
        <time>2019-06-19T07:11:09Z</time>
      </trkpt>
      <trkpt lat="44.28921" lon="5.82278">
        <ele>563</ele>
        <time>2019-06-19T07:11:10Z</time>
      </trkpt>
      <trkpt lat="44.28916" lon="5.82278">
        <ele>563</ele>
        <time>2019-06-19T07:11:11Z</time>
      </trkpt>
      <trkpt lat="44.28911" lon="5.82276">
        <ele>563</ele>
        <time>2019-06-19T07:11:12Z</time>
      </trkpt>
      <trkpt lat="44.28907" lon="5.82275">
        <ele>563</ele>
        <time>2019-06-19T07:11:13Z</time>
      </trkpt>
      <trkpt lat="44.28902" lon="5.82273">
        <ele>563</ele>
        <time>2019-06-19T07:11:14Z</time>
      </trkpt>
      <trkpt lat="44.28897" lon="5.82271">
        <ele>563</ele>
        <time>2019-06-19T07:11:15Z</time>
      </trkpt>
      <trkpt lat="44.28893" lon="5.82269">
        <ele>563</ele>
        <time>2019-06-19T07:11:16Z</time>
      </trkpt>
      <trkpt lat="44.28888" lon="5.82267">
        <ele>563</ele>
        <time>2019-06-19T07:11:17Z</time>
      </trkpt>
      <trkpt lat="44.28884" lon="5.82264">
        <ele>563</ele>
        <time>2019-06-19T07:11:18Z</time>
      </trkpt>
      <trkpt lat="44.2888" lon="5.8226">
        <ele>563</ele>
        <time>2019-06-19T07:11:19Z</time>
      </trkpt>
      <trkpt lat="44.28875" lon="5.82256">
        <ele>563</ele>
        <time>2019-06-19T07:11:20Z</time>
      </trkpt>
      <trkpt lat="44.28871" lon="5.82252">
        <ele>563</ele>
        <time>2019-06-19T07:11:21Z</time>
      </trkpt>
      <trkpt lat="44.28866" lon="5.82248">
        <ele>563</ele>
        <time>2019-06-19T07:11:22Z</time>
      </trkpt>
      <trkpt lat="44.28862" lon="5.82244">
        <ele>563</ele>
        <time>2019-06-19T07:11:23Z</time>
      </trkpt>
      <trkpt lat="44.28857" lon="5.82239">
        <ele>563</ele>
        <time>2019-06-19T07:11:24Z</time>
      </trkpt>
      <trkpt lat="44.28853" lon="5.82235">
        <ele>563</ele>
        <time>2019-06-19T07:11:25Z</time>
      </trkpt>
      <trkpt lat="44.28848" lon="5.82231">
        <ele>563</ele>
        <time>2019-06-19T07:11:26Z</time>
      </trkpt>
      <trkpt lat="44.28844" lon="5.82227">
        <ele>563</ele>
        <time>2019-06-19T07:11:27Z</time>
      </trkpt>
      <trkpt lat="44.28839" lon="5.82222">
        <ele>563</ele>
        <time>2019-06-19T07:11:28Z</time>
      </trkpt>
      <trkpt lat="44.28834" lon="5.82217">
        <ele>563</ele>
        <time>2019-06-19T07:11:29Z</time>
      </trkpt>
      <trkpt lat="44.28829" lon="5.82212">
        <ele>563</ele>
        <time>2019-06-19T07:11:30Z</time>
      </trkpt>
      <trkpt lat="44.28823" lon="5.82208">
        <ele>563</ele>
        <time>2019-06-19T07:11:31Z</time>
      </trkpt>
      <trkpt lat="44.28818" lon="5.82204">
        <ele>563</ele>
        <time>2019-06-19T07:11:32Z</time>
      </trkpt>
      <trkpt lat="44.28812" lon="5.82199">
        <ele>563</ele>
        <time>2019-06-19T07:11:33Z</time>
      </trkpt>
      <trkpt lat="44.28807" lon="5.82194">
        <ele>563</ele>
        <time>2019-06-19T07:11:34Z</time>
      </trkpt>
      <trkpt lat="44.28801" lon="5.8219">
        <ele>563</ele>
        <time>2019-06-19T07:11:35Z</time>
      </trkpt>
      <trkpt lat="44.28794" lon="5.82184">
        <ele>563</ele>
        <time>2019-06-19T07:11:36Z</time>
      </trkpt>
      <trkpt lat="44.28788" lon="5.82179">
        <ele>563</ele>
        <time>2019-06-19T07:11:37Z</time>
      </trkpt>
      <trkpt lat="44.28781" lon="5.82175">
        <ele>563</ele>
        <time>2019-06-19T07:11:38Z</time>
      </trkpt>
      <trkpt lat="44.28775" lon="5.8217">
        <ele>563</ele>
        <time>2019-06-19T07:11:39Z</time>
      </trkpt>
      <trkpt lat="44.28768" lon="5.82166">
        <ele>562</ele>
        <time>2019-06-19T07:11:40Z</time>
      </trkpt>
      <trkpt lat="44.28761" lon="5.82162">
        <ele>562</ele>
        <time>2019-06-19T07:11:41Z</time>
      </trkpt>
      <trkpt lat="44.28754" lon="5.82157">
        <ele>562</ele>
        <time>2019-06-19T07:11:42Z</time>
      </trkpt>
      <trkpt lat="44.28747" lon="5.82153">
        <ele>561</ele>
        <time>2019-06-19T07:11:43Z</time>
      </trkpt>
      <trkpt lat="44.2874" lon="5.8215">
        <ele>561</ele>
        <time>2019-06-19T07:11:44Z</time>
      </trkpt>
      <trkpt lat="44.28732" lon="5.82146">
        <ele>560</ele>
        <time>2019-06-19T07:11:45Z</time>
      </trkpt>
      <trkpt lat="44.28725" lon="5.82143">
        <ele>560</ele>
        <time>2019-06-19T07:11:46Z</time>
      </trkpt>
      <trkpt lat="44.28717" lon="5.8214">
        <ele>559</ele>
        <time>2019-06-19T07:11:47Z</time>
      </trkpt>
      <trkpt lat="44.28708" lon="5.82137">
        <ele>559</ele>
        <time>2019-06-19T07:11:48Z</time>
      </trkpt>
      <trkpt lat="44.287" lon="5.82134">
        <ele>558</ele>
        <time>2019-06-19T07:11:49Z</time>
      </trkpt>
      <trkpt lat="44.28691" lon="5.82131">
        <ele>558</ele>
        <time>2019-06-19T07:11:50Z</time>
      </trkpt>
      <trkpt lat="44.28682" lon="5.82128">
        <ele>558</ele>
        <time>2019-06-19T07:11:51Z</time>
      </trkpt>
      <trkpt lat="44.28673" lon="5.82125">
        <ele>557</ele>
        <time>2019-06-19T07:11:52Z</time>
      </trkpt>
      <trkpt lat="44.28663" lon="5.82122">
        <ele>557</ele>
        <time>2019-06-19T07:11:53Z</time>
      </trkpt>
      <trkpt lat="44.28654" lon="5.8212">
        <ele>557</ele>
        <time>2019-06-19T07:11:54Z</time>
      </trkpt>
      <trkpt lat="44.28644" lon="5.82117">
        <ele>557</ele>
        <time>2019-06-19T07:11:55Z</time>
      </trkpt>
      <trkpt lat="44.28635" lon="5.82113">
        <ele>556</ele>
        <time>2019-06-19T07:11:56Z</time>
      </trkpt>
      <trkpt lat="44.28626" lon="5.8211">
        <ele>556</ele>
        <time>2019-06-19T07:11:57Z</time>
      </trkpt>
      <trkpt lat="44.28617" lon="5.82106">
        <ele>556</ele>
        <time>2019-06-19T07:11:58Z</time>
      </trkpt>
      <trkpt lat="44.28607" lon="5.82103">
        <ele>555</ele>
        <time>2019-06-19T07:11:59Z</time>
      </trkpt>
      <trkpt lat="44.28598" lon="5.82098">
        <ele>555</ele>
        <time>2019-06-19T07:12:00Z</time>
      </trkpt>
      <trkpt lat="44.28589" lon="5.82094">
        <ele>554</ele>
        <time>2019-06-19T07:12:01Z</time>
      </trkpt>
      <trkpt lat="44.28579" lon="5.8209">
        <ele>554</ele>
        <time>2019-06-19T07:12:02Z</time>
      </trkpt>
      <trkpt lat="44.2857" lon="5.82086">
        <ele>553</ele>
        <time>2019-06-19T07:12:03Z</time>
      </trkpt>
      <trkpt lat="44.28561" lon="5.82081">
        <ele>552</ele>
        <time>2019-06-19T07:12:04Z</time>
      </trkpt>
      <trkpt lat="44.28551" lon="5.82076">
        <ele>552</ele>
        <time>2019-06-19T07:12:05Z</time>
      </trkpt>
      <trkpt lat="44.28542" lon="5.82072">
        <ele>551</ele>
        <time>2019-06-19T07:12:06Z</time>
      </trkpt>
      <trkpt lat="44.28533" lon="5.82067">
        <ele>551</ele>
        <time>2019-06-19T07:12:07Z</time>
      </trkpt>
      <trkpt lat="44.28524" lon="5.82062">
        <ele>551</ele>
        <time>2019-06-19T07:12:08Z</time>
      </trkpt>
      <trkpt lat="44.28515" lon="5.82057">
        <ele>550</ele>
        <time>2019-06-19T07:12:09Z</time>
      </trkpt>
      <trkpt lat="44.28505" lon="5.82053">
        <ele>550</ele>
        <time>2019-06-19T07:12:10Z</time>
      </trkpt>
      <trkpt lat="44.28497" lon="5.82048">
        <ele>550</ele>
        <time>2019-06-19T07:12:11Z</time>
      </trkpt>
      <trkpt lat="44.28488" lon="5.82044">
        <ele>549</ele>
        <time>2019-06-19T07:12:12Z</time>
      </trkpt>
      <trkpt lat="44.28479" lon="5.82039">
        <ele>549</ele>
        <time>2019-06-19T07:12:13Z</time>
      </trkpt>
      <trkpt lat="44.28471" lon="5.82035">
        <ele>549</ele>
        <time>2019-06-19T07:12:14Z</time>
      </trkpt>
      <trkpt lat="44.28462" lon="5.82031">
        <ele>548</ele>
        <time>2019-06-19T07:12:15Z</time>
      </trkpt>
      <trkpt lat="44.28453" lon="5.82028">
        <ele>548</ele>
        <time>2019-06-19T07:12:16Z</time>
      </trkpt>
      <trkpt lat="44.28444" lon="5.82025">
        <ele>548</ele>
        <time>2019-06-19T07:12:17Z</time>
      </trkpt>
      <trkpt lat="44.28435" lon="5.82022">
        <ele>548</ele>
        <time>2019-06-19T07:12:18Z</time>
      </trkpt>
      <trkpt lat="44.28427" lon="5.82019">
        <ele>548</ele>
        <time>2019-06-19T07:12:19Z</time>
      </trkpt>
      <trkpt lat="44.28418" lon="5.82017">
        <ele>548</ele>
        <time>2019-06-19T07:12:20Z</time>
      </trkpt>
      <trkpt lat="44.28409" lon="5.82015">
        <ele>548</ele>
        <time>2019-06-19T07:12:21Z</time>
      </trkpt>
      <trkpt lat="44.284" lon="5.82014">
        <ele>548</ele>
        <time>2019-06-19T07:12:22Z</time>
      </trkpt>
      <trkpt lat="44.28392" lon="5.82013">
        <ele>548</ele>
        <time>2019-06-19T07:12:23Z</time>
      </trkpt>
      <trkpt lat="44.28383" lon="5.82013">
        <ele>548</ele>
        <time>2019-06-19T07:12:24Z</time>
      </trkpt>
      <trkpt lat="44.28374" lon="5.82012">
        <ele>548</ele>
        <time>2019-06-19T07:12:25Z</time>
      </trkpt>
      <trkpt lat="44.28366" lon="5.82012">
        <ele>548</ele>
        <time>2019-06-19T07:12:26Z</time>
      </trkpt>
      <trkpt lat="44.28357" lon="5.82011">
        <ele>548</ele>
        <time>2019-06-19T07:12:27Z</time>
      </trkpt>
      <trkpt lat="44.28349" lon="5.82012">
        <ele>548</ele>
        <time>2019-06-19T07:12:28Z</time>
      </trkpt>
      <trkpt lat="44.28341" lon="5.82012">
        <ele>548</ele>
        <time>2019-06-19T07:12:29Z</time>
      </trkpt>
      <trkpt lat="44.28332" lon="5.82011">
        <ele>548</ele>
        <time>2019-06-19T07:12:30Z</time>
      </trkpt>
      <trkpt lat="44.28324" lon="5.82011">
        <ele>548</ele>
        <time>2019-06-19T07:12:31Z</time>
      </trkpt>
      <trkpt lat="44.28316" lon="5.82011">
        <ele>548</ele>
        <time>2019-06-19T07:12:32Z</time>
      </trkpt>
      <trkpt lat="44.28307" lon="5.82011">
        <ele>548</ele>
        <time>2019-06-19T07:12:33Z</time>
      </trkpt>
      <trkpt lat="44.28299" lon="5.82011">
        <ele>548</ele>
        <time>2019-06-19T07:12:34Z</time>
      </trkpt>
      <trkpt lat="44.28291" lon="5.82012">
        <ele>548</ele>
        <time>2019-06-19T07:12:35Z</time>
      </trkpt>
      <trkpt lat="44.28283" lon="5.82012">
        <ele>548</ele>
        <time>2019-06-19T07:12:36Z</time>
      </trkpt>
      <trkpt lat="44.28275" lon="5.82012">
        <ele>548</ele>
        <time>2019-06-19T07:12:37Z</time>
      </trkpt>
      <trkpt lat="44.28267" lon="5.82011">
        <ele>548</ele>
        <time>2019-06-19T07:12:38Z</time>
      </trkpt>
      <trkpt lat="44.28259" lon="5.8201">
        <ele>548</ele>
        <time>2019-06-19T07:12:39Z</time>
      </trkpt>
      <trkpt lat="44.2825" lon="5.82009">
        <ele>548</ele>
        <time>2019-06-19T07:12:40Z</time>
      </trkpt>
      <trkpt lat="44.28242" lon="5.82007">
        <ele>548</ele>
        <time>2019-06-19T07:12:41Z</time>
      </trkpt>
      <trkpt lat="44.28234" lon="5.82004">
        <ele>548</ele>
        <time>2019-06-19T07:12:42Z</time>
      </trkpt>
      <trkpt lat="44.28226" lon="5.82001">
        <ele>548</ele>
        <time>2019-06-19T07:12:43Z</time>
      </trkpt>
      <trkpt lat="44.28218" lon="5.81997">
        <ele>548</ele>
        <time>2019-06-19T07:12:44Z</time>
      </trkpt>
      <trkpt lat="44.2821" lon="5.81993">
        <ele>548</ele>
        <time>2019-06-19T07:12:45Z</time>
      </trkpt>
      <trkpt lat="44.28202" lon="5.81988">
        <ele>548</ele>
        <time>2019-06-19T07:12:46Z</time>
      </trkpt>
      <trkpt lat="44.28194" lon="5.81984">
        <ele>548</ele>
        <time>2019-06-19T07:12:47Z</time>
      </trkpt>
      <trkpt lat="44.28187" lon="5.81979">
        <ele>548</ele>
        <time>2019-06-19T07:12:48Z</time>
      </trkpt>
      <trkpt lat="44.28179" lon="5.81974">
        <ele>548</ele>
        <time>2019-06-19T07:12:49Z</time>
      </trkpt>
      <trkpt lat="44.28172" lon="5.8197">
        <ele>548</ele>
        <time>2019-06-19T07:12:50Z</time>
      </trkpt>
      <trkpt lat="44.28165" lon="5.81965">
        <ele>548</ele>
        <time>2019-06-19T07:12:51Z</time>
      </trkpt>
      <trkpt lat="44.28157" lon="5.8196">
        <ele>548</ele>
        <time>2019-06-19T07:12:52Z</time>
      </trkpt>
      <trkpt lat="44.2815" lon="5.81956">
        <ele>548</ele>
        <time>2019-06-19T07:12:53Z</time>
      </trkpt>
      <trkpt lat="44.28143" lon="5.81951">
        <ele>548</ele>
        <time>2019-06-19T07:12:54Z</time>
      </trkpt>
      <trkpt lat="44.28136" lon="5.81946">
        <ele>548</ele>
        <time>2019-06-19T07:12:55Z</time>
      </trkpt>
      <trkpt lat="44.28129" lon="5.81942">
        <ele>548</ele>
        <time>2019-06-19T07:12:56Z</time>
      </trkpt>
      <trkpt lat="44.28122" lon="5.81937">
        <ele>547</ele>
        <time>2019-06-19T07:12:57Z</time>
      </trkpt>
      <trkpt lat="44.28115" lon="5.81932">
        <ele>547</ele>
        <time>2019-06-19T07:12:58Z</time>
      </trkpt>
      <trkpt lat="44.28107" lon="5.81927">
        <ele>547</ele>
        <time>2019-06-19T07:12:59Z</time>
      </trkpt>
      <trkpt lat="44.281" lon="5.81923">
        <ele>547</ele>
        <time>2019-06-19T07:13:00Z</time>
      </trkpt>
      <trkpt lat="44.28093" lon="5.81918">
        <ele>547</ele>
        <time>2019-06-19T07:13:01Z</time>
      </trkpt>
      <trkpt lat="44.28086" lon="5.81914">
        <ele>546</ele>
        <time>2019-06-19T07:13:02Z</time>
      </trkpt>
      <trkpt lat="44.28078" lon="5.81909">
        <ele>546</ele>
        <time>2019-06-19T07:13:03Z</time>
      </trkpt>
      <trkpt lat="44.28071" lon="5.81905">
        <ele>546</ele>
        <time>2019-06-19T07:13:04Z</time>
      </trkpt>
      <trkpt lat="44.28064" lon="5.819">
        <ele>546</ele>
        <time>2019-06-19T07:13:05Z</time>
      </trkpt>
      <trkpt lat="44.28056" lon="5.81895">
        <ele>546</ele>
        <time>2019-06-19T07:13:06Z</time>
      </trkpt>
      <trkpt lat="44.28049" lon="5.81891">
        <ele>546</ele>
        <time>2019-06-19T07:13:07Z</time>
      </trkpt>
      <trkpt lat="44.28042" lon="5.81887">
        <ele>546</ele>
        <time>2019-06-19T07:13:08Z</time>
      </trkpt>
      <trkpt lat="44.28035" lon="5.81882">
        <ele>546</ele>
        <time>2019-06-19T07:13:09Z</time>
      </trkpt>
      <trkpt lat="44.28027" lon="5.81878">
        <ele>546</ele>
        <time>2019-06-19T07:13:10Z</time>
      </trkpt>
      <trkpt lat="44.2802" lon="5.81873">
        <ele>546</ele>
        <time>2019-06-19T07:13:11Z</time>
      </trkpt>
      <trkpt lat="44.28013" lon="5.81869">
        <ele>546</ele>
        <time>2019-06-19T07:13:12Z</time>
      </trkpt>
      <trkpt lat="44.28006" lon="5.81864">
        <ele>546</ele>
        <time>2019-06-19T07:13:13Z</time>
      </trkpt>
      <trkpt lat="44.27999" lon="5.8186">
        <ele>546</ele>
        <time>2019-06-19T07:13:14Z</time>
      </trkpt>
      <trkpt lat="44.27993" lon="5.81856">
        <ele>546</ele>
        <time>2019-06-19T07:13:15Z</time>
      </trkpt>
      <trkpt lat="44.27986" lon="5.81851">
        <ele>546</ele>
        <time>2019-06-19T07:13:16Z</time>
      </trkpt>
      <trkpt lat="44.27979" lon="5.81847">
        <ele>546</ele>
        <time>2019-06-19T07:13:17Z</time>
      </trkpt>
      <trkpt lat="44.27972" lon="5.81843">
        <ele>546</ele>
        <time>2019-06-19T07:13:18Z</time>
      </trkpt>
      <trkpt lat="44.27966" lon="5.81839">
        <ele>546</ele>
        <time>2019-06-19T07:13:19Z</time>
      </trkpt>
      <trkpt lat="44.27959" lon="5.81834">
        <ele>546</ele>
        <time>2019-06-19T07:13:20Z</time>
      </trkpt>
      <trkpt lat="44.27953" lon="5.8183">
        <ele>546</ele>
        <time>2019-06-19T07:13:21Z</time>
      </trkpt>
      <trkpt lat="44.27946" lon="5.81826">
        <ele>546</ele>
        <time>2019-06-19T07:13:22Z</time>
      </trkpt>
      <trkpt lat="44.27939" lon="5.81822">
        <ele>546</ele>
        <time>2019-06-19T07:13:23Z</time>
      </trkpt>
      <trkpt lat="44.27932" lon="5.81817">
        <ele>546</ele>
        <time>2019-06-19T07:13:24Z</time>
      </trkpt>
      <trkpt lat="44.27925" lon="5.81813">
        <ele>546</ele>
        <time>2019-06-19T07:13:25Z</time>
      </trkpt>
      <trkpt lat="44.27919" lon="5.81808">
        <ele>546</ele>
        <time>2019-06-19T07:13:26Z</time>
      </trkpt>
      <trkpt lat="44.27912" lon="5.81804">
        <ele>546</ele>
        <time>2019-06-19T07:13:27Z</time>
      </trkpt>
      <trkpt lat="44.27905" lon="5.818">
        <ele>546</ele>
        <time>2019-06-19T07:13:28Z</time>
      </trkpt>
      <trkpt lat="44.27898" lon="5.81795">
        <ele>546</ele>
        <time>2019-06-19T07:13:29Z</time>
      </trkpt>
      <trkpt lat="44.27892" lon="5.8179">
        <ele>546</ele>
        <time>2019-06-19T07:13:30Z</time>
      </trkpt>
      <trkpt lat="44.27885" lon="5.81786">
        <ele>546</ele>
        <time>2019-06-19T07:13:31Z</time>
      </trkpt>
      <trkpt lat="44.27878" lon="5.81781">
        <ele>546</ele>
        <time>2019-06-19T07:13:32Z</time>
      </trkpt>
      <trkpt lat="44.27871" lon="5.81777">
        <ele>546</ele>
        <time>2019-06-19T07:13:33Z</time>
      </trkpt>
      <trkpt lat="44.27864" lon="5.81773">
        <ele>546</ele>
        <time>2019-06-19T07:13:34Z</time>
      </trkpt>
      <trkpt lat="44.27857" lon="5.81768">
        <ele>546</ele>
        <time>2019-06-19T07:13:35Z</time>
      </trkpt>
      <trkpt lat="44.2785" lon="5.81764">
        <ele>546</ele>
        <time>2019-06-19T07:13:36Z</time>
      </trkpt>
      <trkpt lat="44.27843" lon="5.81759">
        <ele>546</ele>
        <time>2019-06-19T07:13:37Z</time>
      </trkpt>
      <trkpt lat="44.27836" lon="5.81755">
        <ele>546</ele>
        <time>2019-06-19T07:13:38Z</time>
      </trkpt>
      <trkpt lat="44.27829" lon="5.8175">
        <ele>545</ele>
        <time>2019-06-19T07:13:39Z</time>
      </trkpt>
      <trkpt lat="44.27821" lon="5.81745">
        <ele>545</ele>
        <time>2019-06-19T07:13:40Z</time>
      </trkpt>
      <trkpt lat="44.27814" lon="5.8174">
        <ele>545</ele>
        <time>2019-06-19T07:13:41Z</time>
      </trkpt>
      <trkpt lat="44.27807" lon="5.81736">
        <ele>545</ele>
        <time>2019-06-19T07:13:42Z</time>
      </trkpt>
      <trkpt lat="44.278" lon="5.81731">
        <ele>545</ele>
        <time>2019-06-19T07:13:43Z</time>
      </trkpt>
      <trkpt lat="44.27792" lon="5.81726">
        <ele>545</ele>
        <time>2019-06-19T07:13:44Z</time>
      </trkpt>
      <trkpt lat="44.27785" lon="5.81721">
        <ele>544</ele>
        <time>2019-06-19T07:13:45Z</time>
      </trkpt>
      <trkpt lat="44.27778" lon="5.81716">
        <ele>544</ele>
        <time>2019-06-19T07:13:46Z</time>
      </trkpt>
      <trkpt lat="44.27771" lon="5.81711">
        <ele>544</ele>
        <time>2019-06-19T07:13:47Z</time>
      </trkpt>
      <trkpt lat="44.27763" lon="5.81706">
        <ele>544</ele>
        <time>2019-06-19T07:13:48Z</time>
      </trkpt>
      <trkpt lat="44.27756" lon="5.81702">
        <ele>544</ele>
        <time>2019-06-19T07:13:49Z</time>
      </trkpt>
      <trkpt lat="44.27749" lon="5.81697">
        <ele>544</ele>
        <time>2019-06-19T07:13:50Z</time>
      </trkpt>
      <trkpt lat="44.27742" lon="5.81692">
        <ele>544</ele>
        <time>2019-06-19T07:13:51Z</time>
      </trkpt>
      <trkpt lat="44.27735" lon="5.81686">
        <ele>544</ele>
        <time>2019-06-19T07:13:52Z</time>
      </trkpt>
      <trkpt lat="44.27729" lon="5.8168">
        <ele>543</ele>
        <time>2019-06-19T07:13:53Z</time>
      </trkpt>
      <trkpt lat="44.27723" lon="5.81673">
        <ele>543</ele>
        <time>2019-06-19T07:13:54Z</time>
      </trkpt>
      <trkpt lat="44.27716" lon="5.81666">
        <ele>543</ele>
        <time>2019-06-19T07:13:55Z</time>
      </trkpt>
      <trkpt lat="44.2771" lon="5.81659">
        <ele>543</ele>
        <time>2019-06-19T07:13:56Z</time>
      </trkpt>
      <trkpt lat="44.27704" lon="5.81652">
        <ele>543</ele>
        <time>2019-06-19T07:13:57Z</time>
      </trkpt>
      <trkpt lat="44.27698" lon="5.81645">
        <ele>543</ele>
        <time>2019-06-19T07:13:58Z</time>
      </trkpt>
      <trkpt lat="44.27692" lon="5.81638">
        <ele>543</ele>
        <time>2019-06-19T07:13:59Z</time>
      </trkpt>
      <trkpt lat="44.27686" lon="5.81631">
        <ele>543</ele>
        <time>2019-06-19T07:14:00Z</time>
      </trkpt>
      <trkpt lat="44.27681" lon="5.81624">
        <ele>543</ele>
        <time>2019-06-19T07:14:01Z</time>
      </trkpt>
      <trkpt lat="44.27675" lon="5.81617">
        <ele>543</ele>
        <time>2019-06-19T07:14:02Z</time>
      </trkpt>
      <trkpt lat="44.27669" lon="5.81611">
        <ele>543</ele>
        <time>2019-06-19T07:14:03Z</time>
      </trkpt>
      <trkpt lat="44.27664" lon="5.81605">
        <ele>543</ele>
        <time>2019-06-19T07:14:04Z</time>
      </trkpt>
      <trkpt lat="44.27659" lon="5.81598">
        <ele>543</ele>
        <time>2019-06-19T07:14:05Z</time>
      </trkpt>
      <trkpt lat="44.27654" lon="5.81591">
        <ele>543</ele>
        <time>2019-06-19T07:14:06Z</time>
      </trkpt>
      <trkpt lat="44.27649" lon="5.81585">
        <ele>543</ele>
        <time>2019-06-19T07:14:07Z</time>
      </trkpt>
      <trkpt lat="44.27643" lon="5.81579">
        <ele>543</ele>
        <time>2019-06-19T07:14:08Z</time>
      </trkpt>
      <trkpt lat="44.27638" lon="5.81573">
        <ele>543</ele>
        <time>2019-06-19T07:14:09Z</time>
      </trkpt>
      <trkpt lat="44.27633" lon="5.81568">
        <ele>543</ele>
        <time>2019-06-19T07:14:10Z</time>
      </trkpt>
      <trkpt lat="44.27628" lon="5.81562">
        <ele>543</ele>
        <time>2019-06-19T07:14:11Z</time>
      </trkpt>
      <trkpt lat="44.27622" lon="5.81556">
        <ele>543</ele>
        <time>2019-06-19T07:14:12Z</time>
      </trkpt>
      <trkpt lat="44.27617" lon="5.81549">
        <ele>543</ele>
        <time>2019-06-19T07:14:13Z</time>
      </trkpt>
      <trkpt lat="44.27612" lon="5.81543">
        <ele>543</ele>
        <time>2019-06-19T07:14:14Z</time>
      </trkpt>
      <trkpt lat="44.27606" lon="5.81536">
        <ele>542</ele>
        <time>2019-06-19T07:14:15Z</time>
      </trkpt>
      <trkpt lat="44.27601" lon="5.8153">
        <ele>542</ele>
        <time>2019-06-19T07:14:16Z</time>
      </trkpt>
      <trkpt lat="44.27596" lon="5.81523">
        <ele>542</ele>
        <time>2019-06-19T07:14:17Z</time>
      </trkpt>
      <trkpt lat="44.2759" lon="5.81517">
        <ele>541</ele>
        <time>2019-06-19T07:14:18Z</time>
      </trkpt>
      <trkpt lat="44.27585" lon="5.8151">
        <ele>541</ele>
        <time>2019-06-19T07:14:19Z</time>
      </trkpt>
      <trkpt lat="44.27579" lon="5.81503">
        <ele>540</ele>
        <time>2019-06-19T07:14:20Z</time>
      </trkpt>
      <trkpt lat="44.27573" lon="5.81496">
        <ele>540</ele>
        <time>2019-06-19T07:14:21Z</time>
      </trkpt>
      <trkpt lat="44.27568" lon="5.81489">
        <ele>539</ele>
        <time>2019-06-19T07:14:22Z</time>
      </trkpt>
      <trkpt lat="44.27562" lon="5.81481">
        <ele>539</ele>
        <time>2019-06-19T07:14:23Z</time>
      </trkpt>
      <trkpt lat="44.27555" lon="5.81473">
        <ele>538</ele>
        <time>2019-06-19T07:14:24Z</time>
      </trkpt>
      <trkpt lat="44.2755" lon="5.81466">
        <ele>538</ele>
        <time>2019-06-19T07:14:25Z</time>
      </trkpt>
      <trkpt lat="44.27544" lon="5.8146">
        <ele>537</ele>
        <time>2019-06-19T07:14:26Z</time>
      </trkpt>
      <trkpt lat="44.27538" lon="5.81453">
        <ele>537</ele>
        <time>2019-06-19T07:14:27Z</time>
      </trkpt>
      <trkpt lat="44.27532" lon="5.81446">
        <ele>537</ele>
        <time>2019-06-19T07:14:28Z</time>
      </trkpt>
      <trkpt lat="44.27527" lon="5.81438">
        <ele>536</ele>
        <time>2019-06-19T07:14:29Z</time>
      </trkpt>
      <trkpt lat="44.27521" lon="5.81431">
        <ele>536</ele>
        <time>2019-06-19T07:14:30Z</time>
      </trkpt>
      <trkpt lat="44.27515" lon="5.81425">
        <ele>536</ele>
        <time>2019-06-19T07:14:31Z</time>
      </trkpt>
      <trkpt lat="44.2751" lon="5.81418">
        <ele>536</ele>
        <time>2019-06-19T07:14:32Z</time>
      </trkpt>
      <trkpt lat="44.27504" lon="5.81411">
        <ele>536</ele>
        <time>2019-06-19T07:14:33Z</time>
      </trkpt>
      <trkpt lat="44.27498" lon="5.81404">
        <ele>536</ele>
        <time>2019-06-19T07:14:34Z</time>
      </trkpt>
      <trkpt lat="44.27493" lon="5.81398">
        <ele>536</ele>
        <time>2019-06-19T07:14:35Z</time>
      </trkpt>
      <trkpt lat="44.27487" lon="5.81392">
        <ele>536</ele>
        <time>2019-06-19T07:14:36Z</time>
      </trkpt>
      <trkpt lat="44.27481" lon="5.81387">
        <ele>536</ele>
        <time>2019-06-19T07:14:37Z</time>
      </trkpt>
      <trkpt lat="44.27474" lon="5.81381">
        <ele>536</ele>
        <time>2019-06-19T07:14:38Z</time>
      </trkpt>
      <trkpt lat="44.27468" lon="5.81377">
        <ele>536</ele>
        <time>2019-06-19T07:14:39Z</time>
      </trkpt>
      <trkpt lat="44.27461" lon="5.81372">
        <ele>536</ele>
        <time>2019-06-19T07:14:40Z</time>
      </trkpt>
      <trkpt lat="44.27455" lon="5.81367">
        <ele>536</ele>
        <time>2019-06-19T07:14:41Z</time>
      </trkpt>
      <trkpt lat="44.27449" lon="5.81363">
        <ele>536</ele>
        <time>2019-06-19T07:14:42Z</time>
      </trkpt>
      <trkpt lat="44.27442" lon="5.81359">
        <ele>536</ele>
        <time>2019-06-19T07:14:43Z</time>
      </trkpt>
      <trkpt lat="44.27436" lon="5.81355">
        <ele>536</ele>
        <time>2019-06-19T07:14:44Z</time>
      </trkpt>
      <trkpt lat="44.2743" lon="5.81351">
        <ele>536</ele>
        <time>2019-06-19T07:14:45Z</time>
      </trkpt>
      <trkpt lat="44.27424" lon="5.81347">
        <ele>536</ele>
        <time>2019-06-19T07:14:46Z</time>
      </trkpt>
      <trkpt lat="44.27418" lon="5.81344">
        <ele>536</ele>
        <time>2019-06-19T07:14:47Z</time>
      </trkpt>
      <trkpt lat="44.27412" lon="5.8134">
        <ele>536</ele>
        <time>2019-06-19T07:14:48Z</time>
      </trkpt>
      <trkpt lat="44.27406" lon="5.81337">
        <ele>536</ele>
        <time>2019-06-19T07:14:49Z</time>
      </trkpt>
      <trkpt lat="44.274" lon="5.81333">
        <ele>536</ele>
        <time>2019-06-19T07:14:50Z</time>
      </trkpt>
      <trkpt lat="44.27394" lon="5.8133">
        <ele>536</ele>
        <time>2019-06-19T07:14:51Z</time>
      </trkpt>
      <trkpt lat="44.27388" lon="5.81326">
        <ele>536</ele>
        <time>2019-06-19T07:14:52Z</time>
      </trkpt>
      <trkpt lat="44.27383" lon="5.81322">
        <ele>536</ele>
        <time>2019-06-19T07:14:53Z</time>
      </trkpt>
      <trkpt lat="44.27377" lon="5.81318">
        <ele>536</ele>
        <time>2019-06-19T07:14:54Z</time>
      </trkpt>
      <trkpt lat="44.27372" lon="5.81315">
        <ele>536</ele>
        <time>2019-06-19T07:14:55Z</time>
      </trkpt>
      <trkpt lat="44.27367" lon="5.81311">
        <ele>536</ele>
        <time>2019-06-19T07:14:56Z</time>
      </trkpt>
      <trkpt lat="44.27361" lon="5.81307">
        <ele>536</ele>
        <time>2019-06-19T07:14:57Z</time>
      </trkpt>
      <trkpt lat="44.27356" lon="5.81303">
        <ele>536</ele>
        <time>2019-06-19T07:14:58Z</time>
      </trkpt>
      <trkpt lat="44.27351" lon="5.81299">
        <ele>536</ele>
        <time>2019-06-19T07:14:59Z</time>
      </trkpt>
      <trkpt lat="44.27346" lon="5.81294">
        <ele>536</ele>
        <time>2019-06-19T07:15:00Z</time>
      </trkpt>
      <trkpt lat="44.27342" lon="5.8129">
        <ele>536</ele>
        <time>2019-06-19T07:15:01Z</time>
      </trkpt>
      <trkpt lat="44.27338" lon="5.81285">
        <ele>536</ele>
        <time>2019-06-19T07:15:02Z</time>
      </trkpt>
      <trkpt lat="44.27334" lon="5.8128">
        <ele>536</ele>
        <time>2019-06-19T07:15:03Z</time>
      </trkpt>
      <trkpt lat="44.2733" lon="5.81274">
        <ele>536</ele>
        <time>2019-06-19T07:15:04Z</time>
      </trkpt>
      <trkpt lat="44.27326" lon="5.81269">
        <ele>536</ele>
        <time>2019-06-19T07:15:05Z</time>
      </trkpt>
      <trkpt lat="44.27322" lon="5.81263">
        <ele>536</ele>
        <time>2019-06-19T07:15:06Z</time>
      </trkpt>
      <trkpt lat="44.27318" lon="5.81258">
        <ele>536</ele>
        <time>2019-06-19T07:15:07Z</time>
      </trkpt>
      <trkpt lat="44.27314" lon="5.81252">
        <ele>537</ele>
        <time>2019-06-19T07:15:08Z</time>
      </trkpt>
      <trkpt lat="44.27311" lon="5.81247">
        <ele>537</ele>
        <time>2019-06-19T07:15:09Z</time>
      </trkpt>
      <trkpt lat="44.27306" lon="5.81242">
        <ele>537</ele>
        <time>2019-06-19T07:15:10Z</time>
      </trkpt>
      <trkpt lat="44.27303" lon="5.81236">
        <ele>537</ele>
        <time>2019-06-19T07:15:11Z</time>
      </trkpt>
      <trkpt lat="44.27299" lon="5.8123">
        <ele>537</ele>
        <time>2019-06-19T07:15:12Z</time>
      </trkpt>
      <trkpt lat="44.27295" lon="5.81224">
        <ele>537</ele>
        <time>2019-06-19T07:15:13Z</time>
      </trkpt>
      <trkpt lat="44.2729" lon="5.81219">
        <ele>537</ele>
        <time>2019-06-19T07:15:14Z</time>
      </trkpt>
      <trkpt lat="44.27287" lon="5.81213">
        <ele>537</ele>
        <time>2019-06-19T07:15:15Z</time>
      </trkpt>
      <trkpt lat="44.27282" lon="5.81208">
        <ele>538</ele>
        <time>2019-06-19T07:15:16Z</time>
      </trkpt>
      <trkpt lat="44.27278" lon="5.81203">
        <ele>538</ele>
        <time>2019-06-19T07:15:17Z</time>
      </trkpt>
      <trkpt lat="44.27274" lon="5.81198">
        <ele>538</ele>
        <time>2019-06-19T07:15:18Z</time>
      </trkpt>
      <trkpt lat="44.27269" lon="5.81193">
        <ele>538</ele>
        <time>2019-06-19T07:15:19Z</time>
      </trkpt>
      <trkpt lat="44.27265" lon="5.81188">
        <ele>539</ele>
        <time>2019-06-19T07:15:20Z</time>
      </trkpt>
      <trkpt lat="44.2726" lon="5.81183">
        <ele>539</ele>
        <time>2019-06-19T07:15:21Z</time>
      </trkpt>
      <trkpt lat="44.27255" lon="5.81179">
        <ele>539</ele>
        <time>2019-06-19T07:15:22Z</time>
      </trkpt>
      <trkpt lat="44.2725" lon="5.81175">
        <ele>539</ele>
        <time>2019-06-19T07:15:23Z</time>
      </trkpt>
      <trkpt lat="44.27245" lon="5.8117">
        <ele>539</ele>
        <time>2019-06-19T07:15:24Z</time>
      </trkpt>
      <trkpt lat="44.2724" lon="5.81166">
        <ele>539</ele>
        <time>2019-06-19T07:15:25Z</time>
      </trkpt>
      <trkpt lat="44.27235" lon="5.81162">
        <ele>539</ele>
        <time>2019-06-19T07:15:26Z</time>
      </trkpt>
      <trkpt lat="44.27231" lon="5.81159">
        <ele>539</ele>
        <time>2019-06-19T07:15:27Z</time>
      </trkpt>
      <trkpt lat="44.27228" lon="5.81154">
        <ele>539</ele>
        <time>2019-06-19T07:15:28Z</time>
      </trkpt>
      <trkpt lat="44.27226" lon="5.81149">
        <ele>539</ele>
        <time>2019-06-19T07:15:29Z</time>
      </trkpt>
      <trkpt lat="44.27224" lon="5.81142">
        <ele>539</ele>
        <time>2019-06-19T07:15:30Z</time>
      </trkpt>
      <trkpt lat="44.27224" lon="5.81135">
        <ele>539</ele>
        <time>2019-06-19T07:15:31Z</time>
      </trkpt>
      <trkpt lat="44.27224" lon="5.81128">
        <ele>539</ele>
        <time>2019-06-19T07:15:32Z</time>
      </trkpt>
      <trkpt lat="44.27224" lon="5.8112">
        <ele>539</ele>
        <time>2019-06-19T07:15:33Z</time>
      </trkpt>
      <trkpt lat="44.27224" lon="5.81112">
        <ele>539</ele>
        <time>2019-06-19T07:15:34Z</time>
      </trkpt>
      <trkpt lat="44.27224" lon="5.81103">
        <ele>540</ele>
        <time>2019-06-19T07:15:35Z</time>
      </trkpt>
      <trkpt lat="44.27224" lon="5.81095">
        <ele>540</ele>
        <time>2019-06-19T07:15:36Z</time>
      </trkpt>
      <trkpt lat="44.27223" lon="5.81085">
        <ele>540</ele>
        <time>2019-06-19T07:15:37Z</time>
      </trkpt>
      <trkpt lat="44.27223" lon="5.81077">
        <ele>541</ele>
        <time>2019-06-19T07:15:38Z</time>
      </trkpt>
      <trkpt lat="44.27223" lon="5.81068">
        <ele>541</ele>
        <time>2019-06-19T07:15:39Z</time>
      </trkpt>
      <trkpt lat="44.27224" lon="5.8106">
        <ele>541</ele>
        <time>2019-06-19T07:15:40Z</time>
      </trkpt>
      <trkpt lat="44.27224" lon="5.81052">
        <ele>541</ele>
        <time>2019-06-19T07:15:41Z</time>
      </trkpt>
      <trkpt lat="44.27225" lon="5.81044">
        <ele>541</ele>
        <time>2019-06-19T07:15:42Z</time>
      </trkpt>
      <trkpt lat="44.27226" lon="5.81036">
        <ele>541</ele>
        <time>2019-06-19T07:15:43Z</time>
      </trkpt>
      <trkpt lat="44.27227" lon="5.81029">
        <ele>541</ele>
        <time>2019-06-19T07:15:44Z</time>
      </trkpt>
      <trkpt lat="44.27228" lon="5.81021">
        <ele>542</ele>
        <time>2019-06-19T07:15:45Z</time>
      </trkpt>
      <trkpt lat="44.27229" lon="5.81014">
        <ele>542</ele>
        <time>2019-06-19T07:15:46Z</time>
      </trkpt>
      <trkpt lat="44.2723" lon="5.81006">
        <ele>542</ele>
        <time>2019-06-19T07:15:47Z</time>
      </trkpt>
      <trkpt lat="44.27231" lon="5.80999">
        <ele>542</ele>
        <time>2019-06-19T07:15:48Z</time>
      </trkpt>
      <trkpt lat="44.27232" lon="5.80992">
        <ele>542</ele>
        <time>2019-06-19T07:15:49Z</time>
      </trkpt>
      <trkpt lat="44.27234" lon="5.80985">
        <ele>542</ele>
        <time>2019-06-19T07:15:50Z</time>
      </trkpt>
      <trkpt lat="44.27236" lon="5.80978">
        <ele>542</ele>
        <time>2019-06-19T07:15:51Z</time>
      </trkpt>
      <trkpt lat="44.27237" lon="5.80971">
        <ele>542</ele>
        <time>2019-06-19T07:15:52Z</time>
      </trkpt>
      <trkpt lat="44.27239" lon="5.80964">
        <ele>542</ele>
        <time>2019-06-19T07:15:53Z</time>
      </trkpt>
      <trkpt lat="44.27241" lon="5.80957">
        <ele>542</ele>
        <time>2019-06-19T07:15:54Z</time>
      </trkpt>
      <trkpt lat="44.27243" lon="5.80949">
        <ele>542</ele>
        <time>2019-06-19T07:15:55Z</time>
      </trkpt>
      <trkpt lat="44.27245" lon="5.80942">
        <ele>542</ele>
        <time>2019-06-19T07:15:56Z</time>
      </trkpt>
      <trkpt lat="44.27247" lon="5.80934">
        <ele>542</ele>
        <time>2019-06-19T07:15:57Z</time>
      </trkpt>
      <trkpt lat="44.27249" lon="5.80927">
        <ele>542</ele>
        <time>2019-06-19T07:15:58Z</time>
      </trkpt>
      <trkpt lat="44.2725" lon="5.80919">
        <ele>542</ele>
        <time>2019-06-19T07:15:59Z</time>
      </trkpt>
      <trkpt lat="44.27252" lon="5.80912">
        <ele>542</ele>
        <time>2019-06-19T07:16:00Z</time>
      </trkpt>
      <trkpt lat="44.27254" lon="5.80904">
        <ele>542</ele>
        <time>2019-06-19T07:16:01Z</time>
      </trkpt>
      <trkpt lat="44.27256" lon="5.80896">
        <ele>543</ele>
        <time>2019-06-19T07:16:02Z</time>
      </trkpt>
      <trkpt lat="44.27257" lon="5.80889">
        <ele>543</ele>
        <time>2019-06-19T07:16:03Z</time>
      </trkpt>
      <trkpt lat="44.27259" lon="5.80881">
        <ele>543</ele>
        <time>2019-06-19T07:16:04Z</time>
      </trkpt>
      <trkpt lat="44.27261" lon="5.80873">
        <ele>543</ele>
        <time>2019-06-19T07:16:05Z</time>
      </trkpt>
      <trkpt lat="44.27263" lon="5.80866">
        <ele>544</ele>
        <time>2019-06-19T07:16:06Z</time>
      </trkpt>
      <trkpt lat="44.27265" lon="5.80858">
        <ele>544</ele>
        <time>2019-06-19T07:16:07Z</time>
      </trkpt>
      <trkpt lat="44.27267" lon="5.80851">
        <ele>544</ele>
        <time>2019-06-19T07:16:08Z</time>
      </trkpt>
      <trkpt lat="44.27269" lon="5.80843">
        <ele>544</ele>
        <time>2019-06-19T07:16:09Z</time>
      </trkpt>
      <trkpt lat="44.27271" lon="5.80835">
        <ele>544</ele>
        <time>2019-06-19T07:16:10Z</time>
      </trkpt>
      <trkpt lat="44.27273" lon="5.80828">
        <ele>544</ele>
        <time>2019-06-19T07:16:11Z</time>
      </trkpt>
      <trkpt lat="44.27275" lon="5.80821">
        <ele>544</ele>
        <time>2019-06-19T07:16:12Z</time>
      </trkpt>
      <trkpt lat="44.27278" lon="5.80813">
        <ele>544</ele>
        <time>2019-06-19T07:16:13Z</time>
      </trkpt>
      <trkpt lat="44.2728" lon="5.80806">
        <ele>544</ele>
        <time>2019-06-19T07:16:14Z</time>
      </trkpt>
      <trkpt lat="44.27283" lon="5.80798">
        <ele>544</ele>
        <time>2019-06-19T07:16:15Z</time>
      </trkpt>
      <trkpt lat="44.27285" lon="5.80791">
        <ele>544</ele>
        <time>2019-06-19T07:16:16Z</time>
      </trkpt>
      <trkpt lat="44.27288" lon="5.80783">
        <ele>544</ele>
        <time>2019-06-19T07:16:17Z</time>
      </trkpt>
      <trkpt lat="44.2729" lon="5.80776">
        <ele>544</ele>
        <time>2019-06-19T07:16:18Z</time>
      </trkpt>
      <trkpt lat="44.27293" lon="5.80768">
        <ele>544</ele>
        <time>2019-06-19T07:16:18Z</time>
      </trkpt>
      <trkpt lat="44.27296" lon="5.8076">
        <ele>544</ele>
        <time>2019-06-19T07:16:20Z</time>
      </trkpt>
      <trkpt lat="44.27298" lon="5.80753">
        <ele>544</ele>
        <time>2019-06-19T07:16:21Z</time>
      </trkpt>
      <trkpt lat="44.27301" lon="5.80745">
        <ele>544</ele>
        <time>2019-06-19T07:16:21Z</time>
      </trkpt>
      <trkpt lat="44.27303" lon="5.80738">
        <ele>544</ele>
        <time>2019-06-19T07:16:23Z</time>
      </trkpt>
      <trkpt lat="44.27306" lon="5.8073">
        <ele>544</ele>
        <time>2019-06-19T07:16:23Z</time>
      </trkpt>
      <trkpt lat="44.2731" lon="5.80724">
        <ele>544</ele>
        <time>2019-06-19T07:16:25Z</time>
      </trkpt>
      <trkpt lat="44.27313" lon="5.80718">
        <ele>544</ele>
        <time>2019-06-19T07:16:25Z</time>
      </trkpt>
      <trkpt lat="44.27317" lon="5.80712">
        <ele>544</ele>
        <time>2019-06-19T07:16:27Z</time>
      </trkpt>
      <trkpt lat="44.2732" lon="5.80706">
        <ele>544</ele>
        <time>2019-06-19T07:16:28Z</time>
      </trkpt>
      <trkpt lat="44.27324" lon="5.80701">
        <ele>544</ele>
        <time>2019-06-19T07:16:29Z</time>
      </trkpt>
      <trkpt lat="44.27327" lon="5.80695">
        <ele>544</ele>
        <time>2019-06-19T07:16:29Z</time>
      </trkpt>
      <trkpt lat="44.2733" lon="5.8069">
        <ele>544</ele>
        <time>2019-06-19T07:16:31Z</time>
      </trkpt>
      <trkpt lat="44.27333" lon="5.80684">
        <ele>544</ele>
        <time>2019-06-19T07:16:32Z</time>
      </trkpt>
      <trkpt lat="44.27335" lon="5.80678">
        <ele>544</ele>
        <time>2019-06-19T07:16:32Z</time>
      </trkpt>
      <trkpt lat="44.27337" lon="5.80671">
        <ele>544</ele>
        <time>2019-06-19T07:16:33Z</time>
      </trkpt>
      <trkpt lat="44.27338" lon="5.80664">
        <ele>544</ele>
        <time>2019-06-19T07:16:34Z</time>
      </trkpt>
      <trkpt lat="44.27338" lon="5.80657">
        <ele>544</ele>
        <time>2019-06-19T07:16:36Z</time>
      </trkpt>
      <trkpt lat="44.27338" lon="5.80651">
        <ele>544</ele>
        <time>2019-06-19T07:16:37Z</time>
      </trkpt>
      <trkpt lat="44.27338" lon="5.80644">
        <ele>544</ele>
        <time>2019-06-19T07:16:38Z</time>
      </trkpt>
      <trkpt lat="44.27338" lon="5.80637">
        <ele>544</ele>
        <time>2019-06-19T07:16:39Z</time>
      </trkpt>
      <trkpt lat="44.27338" lon="5.80629">
        <ele>544</ele>
        <time>2019-06-19T07:16:39Z</time>
      </trkpt>
      <trkpt lat="44.27338" lon="5.80622">
        <ele>544</ele>
        <time>2019-06-19T07:16:41Z</time>
      </trkpt>
      <trkpt lat="44.27338" lon="5.80614">
        <ele>544</ele>
        <time>2019-06-19T07:16:42Z</time>
      </trkpt>
      <trkpt lat="44.27338" lon="5.80606">
        <ele>544</ele>
        <time>2019-06-19T07:16:43Z</time>
      </trkpt>
      <trkpt lat="44.27339" lon="5.80598">
        <ele>544</ele>
        <time>2019-06-19T07:16:44Z</time>
      </trkpt>
      <trkpt lat="44.27341" lon="5.8059">
        <ele>545</ele>
        <time>2019-06-19T07:16:44Z</time>
      </trkpt>
      <trkpt lat="44.27343" lon="5.80583">
        <ele>545</ele>
        <time>2019-06-19T07:16:45Z</time>
      </trkpt>
      <trkpt lat="44.27346" lon="5.80576">
        <ele>546</ele>
        <time>2019-06-19T07:16:47Z</time>
      </trkpt>
      <trkpt lat="44.27349" lon="5.80569">
        <ele>546</ele>
        <time>2019-06-19T07:16:47Z</time>
      </trkpt>
      <trkpt lat="44.27352" lon="5.80562">
        <ele>546</ele>
        <time>2019-06-19T07:16:48Z</time>
      </trkpt>
      <trkpt lat="44.27356" lon="5.80556">
        <ele>546</ele>
        <time>2019-06-19T07:16:50Z</time>
      </trkpt>
      <trkpt lat="44.2736" lon="5.8055">
        <ele>547</ele>
        <time>2019-06-19T07:16:50Z</time>
      </trkpt>
      <trkpt lat="44.27364" lon="5.80544">
        <ele>547</ele>
        <time>2019-06-19T07:16:51Z</time>
      </trkpt>
      <trkpt lat="44.27367" lon="5.80538">
        <ele>547</ele>
        <time>2019-06-19T07:16:53Z</time>
      </trkpt>
      <trkpt lat="44.27371" lon="5.80533">
        <ele>547</ele>
        <time>2019-06-19T07:16:54Z</time>
      </trkpt>
      <trkpt lat="44.27375" lon="5.80527">
        <ele>547</ele>
        <time>2019-06-19T07:16:54Z</time>
      </trkpt>
      <trkpt lat="44.27379" lon="5.80521">
        <ele>547</ele>
        <time>2019-06-19T07:16:55Z</time>
      </trkpt>
      <trkpt lat="44.27382" lon="5.80515">
        <ele>547</ele>
        <time>2019-06-19T07:16:56Z</time>
      </trkpt>
      <trkpt lat="44.27385" lon="5.80509">
        <ele>547</ele>
        <time>2019-06-19T07:16:58Z</time>
      </trkpt>
      <trkpt lat="44.27387" lon="5.80503">
        <ele>547</ele>
        <time>2019-06-19T07:16:58Z</time>
      </trkpt>
      <trkpt lat="44.2739" lon="5.80496">
        <ele>547</ele>
        <time>2019-06-19T07:16:59Z</time>
      </trkpt>
      <trkpt lat="44.27392" lon="5.80489">
        <ele>547</ele>
        <time>2019-06-19T07:17:00Z</time>
      </trkpt>
      <trkpt lat="44.27396" lon="5.80482">
        <ele>548</ele>
        <time>2019-06-19T07:17:01Z</time>
      </trkpt>
      <trkpt lat="44.27398" lon="5.80475">
        <ele>549</ele>
        <time>2019-06-19T07:17:03Z</time>
      </trkpt>
      <trkpt lat="44.274" lon="5.80468">
        <ele>550</ele>
        <time>2019-06-19T07:17:03Z</time>
      </trkpt>
      <trkpt lat="44.27402" lon="5.80461">
        <ele>551</ele>
        <time>2019-06-19T07:17:04Z</time>
      </trkpt>
      <trkpt lat="44.27404" lon="5.80454">
        <ele>552</ele>
        <time>2019-06-19T07:17:05Z</time>
      </trkpt>
      <trkpt lat="44.27407" lon="5.80447">
        <ele>553</ele>
        <time>2019-06-19T07:17:07Z</time>
      </trkpt>
      <trkpt lat="44.27409" lon="5.80439">
        <ele>554</ele>
        <time>2019-06-19T07:17:08Z</time>
      </trkpt>
      <trkpt lat="44.27412" lon="5.80432">
        <ele>555</ele>
        <time>2019-06-19T07:17:08Z</time>
      </trkpt>
      <trkpt lat="44.27415" lon="5.80423">
        <ele>556</ele>
        <time>2019-06-19T07:17:09Z</time>
      </trkpt>
      <trkpt lat="44.27417" lon="5.80415">
        <ele>557</ele>
        <time>2019-06-19T07:17:11Z</time>
      </trkpt>
      <trkpt lat="44.2742" lon="5.80407">
        <ele>558</ele>
        <time>2019-06-19T07:17:11Z</time>
      </trkpt>
      <trkpt lat="44.27422" lon="5.80399">
        <ele>558</ele>
        <time>2019-06-19T07:17:13Z</time>
      </trkpt>
      <trkpt lat="44.27425" lon="5.8039">
        <ele>558</ele>
        <time>2019-06-19T07:17:13Z</time>
      </trkpt>
      <trkpt lat="44.27427" lon="5.80382">
        <ele>558</ele>
        <time>2019-06-19T07:17:14Z</time>
      </trkpt>
      <trkpt lat="44.2743" lon="5.80373">
        <ele>558</ele>
        <time>2019-06-19T07:17:15Z</time>
      </trkpt>
      <trkpt lat="44.27432" lon="5.80365">
        <ele>558</ele>
        <time>2019-06-19T07:17:17Z</time>
      </trkpt>
      <trkpt lat="44.27435" lon="5.80357">
        <ele>558</ele>
        <time>2019-06-19T07:17:17Z</time>
      </trkpt>
      <trkpt lat="44.27438" lon="5.80349">
        <ele>558</ele>
        <time>2019-06-19T07:17:18Z</time>
      </trkpt>
      <trkpt lat="44.2744" lon="5.80341">
        <ele>558</ele>
        <time>2019-06-19T07:17:19Z</time>
      </trkpt>
      <trkpt lat="44.27443" lon="5.80333">
        <ele>558</ele>
        <time>2019-06-19T07:17:20Z</time>
      </trkpt>
      <trkpt lat="44.27446" lon="5.80325">
        <ele>558</ele>
        <time>2019-06-19T07:17:21Z</time>
      </trkpt>
      <trkpt lat="44.27449" lon="5.80318">
        <ele>558</ele>
        <time>2019-06-19T07:17:23Z</time>
      </trkpt>
      <trkpt lat="44.27451" lon="5.80311">
        <ele>558</ele>
        <time>2019-06-19T07:17:23Z</time>
      </trkpt>
      <trkpt lat="44.27454" lon="5.80304">
        <ele>558</ele>
        <time>2019-06-19T07:17:24Z</time>
      </trkpt>
      <trkpt lat="44.27457" lon="5.80298">
        <ele>558</ele>
        <time>2019-06-19T07:17:25Z</time>
      </trkpt>
      <trkpt lat="44.2746" lon="5.80292">
        <ele>558</ele>
        <time>2019-06-19T07:17:26Z</time>
      </trkpt>
      <trkpt lat="44.27462" lon="5.80286">
        <ele>558</ele>
        <time>2019-06-19T07:17:28Z</time>
      </trkpt>
      <trkpt lat="44.27465" lon="5.8028">
        <ele>558</ele>
        <time>2019-06-19T07:17:28Z</time>
      </trkpt>
      <trkpt lat="44.27468" lon="5.80274">
        <ele>558</ele>
        <time>2019-06-19T07:17:29Z</time>
      </trkpt>
      <trkpt lat="44.27471" lon="5.80269">
        <ele>558</ele>
        <time>2019-06-19T07:17:30Z</time>
      </trkpt>
      <trkpt lat="44.27473" lon="5.80264">
        <ele>558</ele>
        <time>2019-06-19T07:17:31Z</time>
      </trkpt>
      <trkpt lat="44.27475" lon="5.80258">
        <ele>557</ele>
        <time>2019-06-19T07:17:33Z</time>
      </trkpt>
      <trkpt lat="44.27478" lon="5.80253">
        <ele>557</ele>
        <time>2019-06-19T07:17:33Z</time>
      </trkpt>
      <trkpt lat="44.2748" lon="5.80247">
        <ele>557</ele>
        <time>2019-06-19T07:17:34Z</time>
      </trkpt>
      <trkpt lat="44.27482" lon="5.80242">
        <ele>557</ele>
        <time>2019-06-19T07:17:35Z</time>
      </trkpt>
      <trkpt lat="44.27484" lon="5.80236">
        <ele>557</ele>
        <time>2019-06-19T07:17:36Z</time>
      </trkpt>
      <trkpt lat="44.27487" lon="5.80232">
        <ele>557</ele>
        <time>2019-06-19T07:17:38Z</time>
      </trkpt>
      <trkpt lat="44.2749" lon="5.80226">
        <ele>557</ele>
        <time>2019-06-19T07:17:38Z</time>
      </trkpt>
      <trkpt lat="44.27493" lon="5.80221">
        <ele>557</ele>
        <time>2019-06-19T07:17:39Z</time>
      </trkpt>
      <trkpt lat="44.27497" lon="5.80215">
        <ele>557</ele>
        <time>2019-06-19T07:17:40Z</time>
      </trkpt>
      <trkpt lat="44.275" lon="5.8021">
        <ele>557</ele>
        <time>2019-06-19T07:17:41Z</time>
      </trkpt>
      <trkpt lat="44.27504" lon="5.80205">
        <ele>557</ele>
        <time>2019-06-19T07:17:43Z</time>
      </trkpt>
      <trkpt lat="44.27507" lon="5.80199">
        <ele>557</ele>
        <time>2019-06-19T07:17:43Z</time>
      </trkpt>
      <trkpt lat="44.2751" lon="5.80194">
        <ele>557</ele>
        <time>2019-06-19T07:17:44Z</time>
      </trkpt>
      <trkpt lat="44.27514" lon="5.80189">
        <ele>557</ele>
        <time>2019-06-19T07:17:45Z</time>
      </trkpt>
      <trkpt lat="44.27517" lon="5.80184">
        <ele>556</ele>
        <time>2019-06-19T07:17:46Z</time>
      </trkpt>
      <trkpt lat="44.27521" lon="5.80178">
        <ele>556</ele>
        <time>2019-06-19T07:17:47Z</time>
      </trkpt>
      <trkpt lat="44.27525" lon="5.80173">
        <ele>556</ele>
        <time>2019-06-19T07:17:48Z</time>
      </trkpt>
      <trkpt lat="44.27528" lon="5.80167">
        <ele>556</ele>
        <time>2019-06-19T07:17:49Z</time>
      </trkpt>
      <trkpt lat="44.27531" lon="5.80162">
        <ele>555</ele>
        <time>2019-06-19T07:17:50Z</time>
      </trkpt>
      <trkpt lat="44.27535" lon="5.80157">
        <ele>555</ele>
        <time>2019-06-19T07:17:51Z</time>
      </trkpt>
      <trkpt lat="44.27539" lon="5.80151">
        <ele>555</ele>
        <time>2019-06-19T07:17:52Z</time>
      </trkpt>
      <trkpt lat="44.27542" lon="5.80146">
        <ele>555</ele>
        <time>2019-06-19T07:17:53Z</time>
      </trkpt>
      <trkpt lat="44.27545" lon="5.80141">
        <ele>555</ele>
        <time>2019-06-19T07:17:54Z</time>
      </trkpt>
      <trkpt lat="44.27548" lon="5.80135">
        <ele>555</ele>
        <time>2019-06-19T07:17:55Z</time>
      </trkpt>
      <trkpt lat="44.27552" lon="5.80129">
        <ele>555</ele>
        <time>2019-06-19T07:17:56Z</time>
      </trkpt>
      <trkpt lat="44.27555" lon="5.80123">
        <ele>555</ele>
        <time>2019-06-19T07:17:58Z</time>
      </trkpt>
      <trkpt lat="44.27558" lon="5.80118">
        <ele>555</ele>
        <time>2019-06-19T07:17:58Z</time>
      </trkpt>
      <trkpt lat="44.2756" lon="5.80111">
        <ele>555</ele>
        <time>2019-06-19T07:17:59Z</time>
      </trkpt>
      <trkpt lat="44.27562" lon="5.80105">
        <ele>555</ele>
        <time>2019-06-19T07:18:00Z</time>
      </trkpt>
      <trkpt lat="44.27565" lon="5.80099">
        <ele>555</ele>
        <time>2019-06-19T07:18:01Z</time>
      </trkpt>
      <trkpt lat="44.27568" lon="5.80093">
        <ele>555</ele>
        <time>2019-06-19T07:18:02Z</time>
      </trkpt>
      <trkpt lat="44.2757" lon="5.80088">
        <ele>555</ele>
        <time>2019-06-19T07:18:03Z</time>
      </trkpt>
      <trkpt lat="44.27573" lon="5.80082">
        <ele>555</ele>
        <time>2019-06-19T07:18:04Z</time>
      </trkpt>
      <trkpt lat="44.27576" lon="5.80075">
        <ele>555</ele>
        <time>2019-06-19T07:18:05Z</time>
      </trkpt>
      <trkpt lat="44.27579" lon="5.80069">
        <ele>555</ele>
        <time>2019-06-19T07:18:07Z</time>
      </trkpt>
      <trkpt lat="44.27583" lon="5.80063">
        <ele>555</ele>
        <time>2019-06-19T07:18:07Z</time>
      </trkpt>
      <trkpt lat="44.27586" lon="5.80057">
        <ele>555</ele>
        <time>2019-06-19T07:18:08Z</time>
      </trkpt>
      <trkpt lat="44.27589" lon="5.80051">
        <ele>555</ele>
        <time>2019-06-19T07:18:09Z</time>
      </trkpt>
      <trkpt lat="44.27592" lon="5.80045">
        <ele>555</ele>
        <time>2019-06-19T07:18:10Z</time>
      </trkpt>
      <trkpt lat="44.27596" lon="5.80038">
        <ele>555</ele>
        <time>2019-06-19T07:18:11Z</time>
      </trkpt>
      <trkpt lat="44.27599" lon="5.80032">
        <ele>555</ele>
        <time>2019-06-19T07:18:13Z</time>
      </trkpt>
      <trkpt lat="44.27601" lon="5.80025">
        <ele>555</ele>
        <time>2019-06-19T07:18:13Z</time>
      </trkpt>
      <trkpt lat="44.27603" lon="5.80019">
        <ele>555</ele>
        <time>2019-06-19T07:18:14Z</time>
      </trkpt>
      <trkpt lat="44.27604" lon="5.80012">
        <ele>555</ele>
        <time>2019-06-19T07:18:15Z</time>
      </trkpt>
      <trkpt lat="44.27606" lon="5.80005">
        <ele>555</ele>
        <time>2019-06-19T07:18:16Z</time>
      </trkpt>
      <trkpt lat="44.27607" lon="5.79998">
        <ele>555</ele>
        <time>2019-06-19T07:18:17Z</time>
      </trkpt>
      <trkpt lat="44.27609" lon="5.7999">
        <ele>555</ele>
        <time>2019-06-19T07:18:18Z</time>
      </trkpt>
      <trkpt lat="44.2761" lon="5.79983">
        <ele>555</ele>
        <time>2019-06-19T07:18:19Z</time>
      </trkpt>
      <trkpt lat="44.27612" lon="5.79975">
        <ele>556</ele>
        <time>2019-06-19T07:18:20Z</time>
      </trkpt>
      <trkpt lat="44.27614" lon="5.79967">
        <ele>557</ele>
        <time>2019-06-19T07:18:21Z</time>
      </trkpt>
      <trkpt lat="44.27616" lon="5.7996">
        <ele>558</ele>
        <time>2019-06-19T07:18:22Z</time>
      </trkpt>
      <trkpt lat="44.27618" lon="5.79952">
        <ele>558</ele>
        <time>2019-06-19T07:18:23Z</time>
      </trkpt>
      <trkpt lat="44.2762" lon="5.79945">
        <ele>559</ele>
        <time>2019-06-19T07:18:24Z</time>
      </trkpt>
      <trkpt lat="44.27622" lon="5.79937">
        <ele>559</ele>
        <time>2019-06-19T07:18:25Z</time>
      </trkpt>
      <trkpt lat="44.27623" lon="5.79929">
        <ele>560</ele>
        <time>2019-06-19T07:18:26Z</time>
      </trkpt>
      <trkpt lat="44.27625" lon="5.79922">
        <ele>560</ele>
        <time>2019-06-19T07:18:27Z</time>
      </trkpt>
      <trkpt lat="44.27626" lon="5.79915">
        <ele>561</ele>
        <time>2019-06-19T07:18:28Z</time>
      </trkpt>
      <trkpt lat="44.27628" lon="5.79907">
        <ele>561</ele>
        <time>2019-06-19T07:18:29Z</time>
      </trkpt>
      <trkpt lat="44.27629" lon="5.79899">
        <ele>561</ele>
        <time>2019-06-19T07:18:30Z</time>
      </trkpt>
      <trkpt lat="44.27631" lon="5.79891">
        <ele>562</ele>
        <time>2019-06-19T07:18:31Z</time>
      </trkpt>
      <trkpt lat="44.27632" lon="5.79883">
        <ele>563</ele>
        <time>2019-06-19T07:18:32Z</time>
      </trkpt>
      <trkpt lat="44.27634" lon="5.79876">
        <ele>563</ele>
        <time>2019-06-19T07:18:33Z</time>
      </trkpt>
      <trkpt lat="44.27636" lon="5.79868">
        <ele>564</ele>
        <time>2019-06-19T07:18:34Z</time>
      </trkpt>
      <trkpt lat="44.27638" lon="5.7986">
        <ele>565</ele>
        <time>2019-06-19T07:18:35Z</time>
      </trkpt>
      <trkpt lat="44.2764" lon="5.79852">
        <ele>566</ele>
        <time>2019-06-19T07:18:36Z</time>
      </trkpt>
      <trkpt lat="44.27642" lon="5.79845">
        <ele>567</ele>
        <time>2019-06-19T07:18:37Z</time>
      </trkpt>
      <trkpt lat="44.27645" lon="5.79837">
        <ele>567</ele>
        <time>2019-06-19T07:18:38Z</time>
      </trkpt>
      <trkpt lat="44.27647" lon="5.79829">
        <ele>568</ele>
        <time>2019-06-19T07:18:39Z</time>
      </trkpt>
      <trkpt lat="44.2765" lon="5.79821">
        <ele>568</ele>
        <time>2019-06-19T07:18:40Z</time>
      </trkpt>
      <trkpt lat="44.27652" lon="5.79813">
        <ele>568</ele>
        <time>2019-06-19T07:18:41Z</time>
      </trkpt>
      <trkpt lat="44.27653" lon="5.79805">
        <ele>568</ele>
        <time>2019-06-19T07:18:42Z</time>
      </trkpt>
      <trkpt lat="44.27654" lon="5.79798">
        <ele>568</ele>
        <time>2019-06-19T07:18:43Z</time>
      </trkpt>
      <trkpt lat="44.27656" lon="5.7979">
        <ele>568</ele>
        <time>2019-06-19T07:18:44Z</time>
      </trkpt>
      <trkpt lat="44.27659" lon="5.79782">
        <ele>568</ele>
        <time>2019-06-19T07:18:45Z</time>
      </trkpt>
      <trkpt lat="44.2766" lon="5.79774">
        <ele>568</ele>
        <time>2019-06-19T07:18:46Z</time>
      </trkpt>
      <trkpt lat="44.27663" lon="5.79766">
        <ele>568</ele>
        <time>2019-06-19T07:18:47Z</time>
      </trkpt>
      <trkpt lat="44.27665" lon="5.79757">
        <ele>568</ele>
        <time>2019-06-19T07:18:48Z</time>
      </trkpt>
      <trkpt lat="44.27668" lon="5.79749">
        <ele>568</ele>
        <time>2019-06-19T07:18:49Z</time>
      </trkpt>
      <trkpt lat="44.2767" lon="5.79741">
        <ele>568</ele>
        <time>2019-06-19T07:18:50Z</time>
      </trkpt>
      <trkpt lat="44.27672" lon="5.79734">
        <ele>568</ele>
        <time>2019-06-19T07:18:51Z</time>
      </trkpt>
      <trkpt lat="44.27674" lon="5.79726">
        <ele>568</ele>
        <time>2019-06-19T07:18:52Z</time>
      </trkpt>
      <trkpt lat="44.27676" lon="5.79718">
        <ele>568</ele>
        <time>2019-06-19T07:18:53Z</time>
      </trkpt>
      <trkpt lat="44.27676" lon="5.7971">
        <ele>568</ele>
        <time>2019-06-19T07:18:54Z</time>
      </trkpt>
      <trkpt lat="44.27677" lon="5.79702">
        <ele>568</ele>
        <time>2019-06-19T07:18:55Z</time>
      </trkpt>
      <trkpt lat="44.27677" lon="5.79694">
        <ele>568</ele>
        <time>2019-06-19T07:18:56Z</time>
      </trkpt>
      <trkpt lat="44.27678" lon="5.79686">
        <ele>568</ele>
        <time>2019-06-19T07:18:57Z</time>
      </trkpt>
      <trkpt lat="44.27678" lon="5.79678">
        <ele>568</ele>
        <time>2019-06-19T07:18:58Z</time>
      </trkpt>
      <trkpt lat="44.27678" lon="5.79671">
        <ele>568</ele>
        <time>2019-06-19T07:18:59Z</time>
      </trkpt>
      <trkpt lat="44.27678" lon="5.79663">
        <ele>568</ele>
        <time>2019-06-19T07:19:00Z</time>
      </trkpt>
      <trkpt lat="44.27678" lon="5.79655">
        <ele>568</ele>
        <time>2019-06-19T07:19:01Z</time>
      </trkpt>
      <trkpt lat="44.27678" lon="5.79645">
        <ele>568</ele>
        <time>2019-06-19T07:19:02Z</time>
      </trkpt>
      <trkpt lat="44.27676" lon="5.79637">
        <ele>568</ele>
        <time>2019-06-19T07:19:03Z</time>
      </trkpt>
      <trkpt lat="44.27677" lon="5.79628">
        <ele>568</ele>
        <time>2019-06-19T07:19:04Z</time>
      </trkpt>
      <trkpt lat="44.27679" lon="5.79621">
        <ele>568</ele>
        <time>2019-06-19T07:19:05Z</time>
      </trkpt>
      <trkpt lat="44.2768" lon="5.79613">
        <ele>568</ele>
        <time>2019-06-19T07:19:07Z</time>
      </trkpt>
      <trkpt lat="44.27681" lon="5.79606">
        <ele>568</ele>
        <time>2019-06-19T07:19:07Z</time>
      </trkpt>
      <trkpt lat="44.27682" lon="5.796">
        <ele>567</ele>
        <time>2019-06-19T07:19:08Z</time>
      </trkpt>
      <trkpt lat="44.27685" lon="5.79594">
        <ele>567</ele>
        <time>2019-06-19T07:19:09Z</time>
      </trkpt>
      <trkpt lat="44.27684" lon="5.79587">
        <ele>567</ele>
        <time>2019-06-19T07:19:10Z</time>
      </trkpt>
      <trkpt lat="44.27685" lon="5.7958">
        <ele>567</ele>
        <time>2019-06-19T07:19:11Z</time>
      </trkpt>
      <trkpt lat="44.27686" lon="5.79573">
        <ele>567</ele>
        <time>2019-06-19T07:19:12Z</time>
      </trkpt>
      <trkpt lat="44.27686" lon="5.79565">
        <ele>567</ele>
        <time>2019-06-19T07:19:13Z</time>
      </trkpt>
      <trkpt lat="44.27687" lon="5.79559">
        <ele>567</ele>
        <time>2019-06-19T07:19:14Z</time>
      </trkpt>
      <trkpt lat="44.27689" lon="5.79552">
        <ele>567</ele>
        <time>2019-06-19T07:19:15Z</time>
      </trkpt>
      <trkpt lat="44.2769" lon="5.79545">
        <ele>566</ele>
        <time>2019-06-19T07:19:16Z</time>
      </trkpt>
      <trkpt lat="44.2769" lon="5.79538">
        <ele>566</ele>
        <time>2019-06-19T07:19:17Z</time>
      </trkpt>
      <trkpt lat="44.27689" lon="5.79529">
        <ele>565</ele>
        <time>2019-06-19T07:19:18Z</time>
      </trkpt>
      <trkpt lat="44.27689" lon="5.79521">
        <ele>565</ele>
        <time>2019-06-19T07:19:19Z</time>
      </trkpt>
      <trkpt lat="44.27689" lon="5.79514">
        <ele>564</ele>
        <time>2019-06-19T07:19:20Z</time>
      </trkpt>
      <trkpt lat="44.2769" lon="5.79507">
        <ele>564</ele>
        <time>2019-06-19T07:19:21Z</time>
      </trkpt>
      <trkpt lat="44.27692" lon="5.79501">
        <ele>564</ele>
        <time>2019-06-19T07:19:22Z</time>
      </trkpt>
      <trkpt lat="44.27693" lon="5.79493">
        <ele>564</ele>
        <time>2019-06-19T07:19:23Z</time>
      </trkpt>
      <trkpt lat="44.27694" lon="5.79486">
        <ele>564</ele>
        <time>2019-06-19T07:19:24Z</time>
      </trkpt>
      <trkpt lat="44.27696" lon="5.79479">
        <ele>564</ele>
        <time>2019-06-19T07:19:25Z</time>
      </trkpt>
      <trkpt lat="44.27697" lon="5.79471">
        <ele>564</ele>
        <time>2019-06-19T07:19:26Z</time>
      </trkpt>
      <trkpt lat="44.27698" lon="5.79464">
        <ele>564</ele>
        <time>2019-06-19T07:19:27Z</time>
      </trkpt>
      <trkpt lat="44.27699" lon="5.79457">
        <ele>564</ele>
        <time>2019-06-19T07:19:28Z</time>
      </trkpt>
      <trkpt lat="44.277" lon="5.79451">
        <ele>564</ele>
        <time>2019-06-19T07:19:29Z</time>
      </trkpt>
      <trkpt lat="44.277" lon="5.79444">
        <ele>564</ele>
        <time>2019-06-19T07:19:30Z</time>
      </trkpt>
      <trkpt lat="44.277" lon="5.79438">
        <ele>564</ele>
        <time>2019-06-19T07:19:31Z</time>
      </trkpt>
      <trkpt lat="44.27702" lon="5.79431">
        <ele>564</ele>
        <time>2019-06-19T07:19:32Z</time>
      </trkpt>
      <trkpt lat="44.27703" lon="5.79426">
        <ele>564</ele>
        <time>2019-06-19T07:19:33Z</time>
      </trkpt>
      <trkpt lat="44.27706" lon="5.7942">
        <ele>564</ele>
        <time>2019-06-19T07:19:34Z</time>
      </trkpt>
      <trkpt lat="44.27708" lon="5.79414">
        <ele>564</ele>
        <time>2019-06-19T07:19:35Z</time>
      </trkpt>
      <trkpt lat="44.27711" lon="5.79409">
        <ele>564</ele>
        <time>2019-06-19T07:19:36Z</time>
      </trkpt>
      <trkpt lat="44.27713" lon="5.79404">
        <ele>564</ele>
        <time>2019-06-19T07:19:37Z</time>
      </trkpt>
      <trkpt lat="44.27716" lon="5.79398">
        <ele>564</ele>
        <time>2019-06-19T07:19:38Z</time>
      </trkpt>
      <trkpt lat="44.27719" lon="5.79393">
        <ele>564</ele>
        <time>2019-06-19T07:19:39Z</time>
      </trkpt>
      <trkpt lat="44.27721" lon="5.79388">
        <ele>564</ele>
        <time>2019-06-19T07:19:40Z</time>
      </trkpt>
      <trkpt lat="44.27725" lon="5.79382">
        <ele>564</ele>
        <time>2019-06-19T07:19:41Z</time>
      </trkpt>
      <trkpt lat="44.27728" lon="5.79377">
        <ele>564</ele>
        <time>2019-06-19T07:19:42Z</time>
      </trkpt>
      <trkpt lat="44.2773" lon="5.79371">
        <ele>564</ele>
        <time>2019-06-19T07:19:43Z</time>
      </trkpt>
      <trkpt lat="44.27733" lon="5.79366">
        <ele>564</ele>
        <time>2019-06-19T07:19:44Z</time>
      </trkpt>
      <trkpt lat="44.27739" lon="5.79356">
        <ele>564</ele>
        <time>2019-06-19T07:19:46Z</time>
      </trkpt>
      <trkpt lat="44.27743" lon="5.79352">
        <ele>564</ele>
        <time>2019-06-19T07:19:47Z</time>
      </trkpt>
      <trkpt lat="44.27747" lon="5.79349">
        <ele>564</ele>
        <time>2019-06-19T07:19:48Z</time>
      </trkpt>
      <trkpt lat="44.27751" lon="5.79345">
        <ele>564</ele>
        <time>2019-06-19T07:19:49Z</time>
      </trkpt>
      <trkpt lat="44.27755" lon="5.79342">
        <ele>564</ele>
        <time>2019-06-19T07:19:50Z</time>
      </trkpt>
      <trkpt lat="44.2776" lon="5.79339">
        <ele>564</ele>
        <time>2019-06-19T07:19:51Z</time>
      </trkpt>
      <trkpt lat="44.27764" lon="5.79336">
        <ele>564</ele>
        <time>2019-06-19T07:19:52Z</time>
      </trkpt>
      <trkpt lat="44.27768" lon="5.79334">
        <ele>564</ele>
        <time>2019-06-19T07:19:53Z</time>
      </trkpt>
      <trkpt lat="44.27773" lon="5.79332">
        <ele>564</ele>
        <time>2019-06-19T07:19:54Z</time>
      </trkpt>
      <trkpt lat="44.27777" lon="5.79331">
        <ele>564</ele>
        <time>2019-06-19T07:19:55Z</time>
      </trkpt>
      <trkpt lat="44.27781" lon="5.7933">
        <ele>564</ele>
        <time>2019-06-19T07:19:56Z</time>
      </trkpt>
      <trkpt lat="44.27786" lon="5.7933">
        <ele>564</ele>
        <time>2019-06-19T07:19:57Z</time>
      </trkpt>
      <trkpt lat="44.27791" lon="5.7933">
        <ele>564</ele>
        <time>2019-06-19T07:19:58Z</time>
      </trkpt>
      <trkpt lat="44.27795" lon="5.79331">
        <ele>564</ele>
        <time>2019-06-19T07:19:59Z</time>
      </trkpt>
      <trkpt lat="44.27799" lon="5.79331">
        <ele>564</ele>
        <time>2019-06-19T07:20:00Z</time>
      </trkpt>
      <trkpt lat="44.27803" lon="5.79329">
        <ele>564</ele>
        <time>2019-06-19T07:20:01Z</time>
      </trkpt>
      <trkpt lat="44.27806" lon="5.79327">
        <ele>564</ele>
        <time>2019-06-19T07:20:02Z</time>
      </trkpt>
      <trkpt lat="44.27811" lon="5.79324">
        <ele>564</ele>
        <time>2019-06-19T07:20:03Z</time>
      </trkpt>
      <trkpt lat="44.27815" lon="5.79319">
        <ele>564</ele>
        <time>2019-06-19T07:20:04Z</time>
      </trkpt>
      <trkpt lat="44.27819" lon="5.79314">
        <ele>564</ele>
        <time>2019-06-19T07:20:05Z</time>
      </trkpt>
      <trkpt lat="44.27823" lon="5.79309">
        <ele>564</ele>
        <time>2019-06-19T07:20:07Z</time>
      </trkpt>
      <trkpt lat="44.27826" lon="5.79304">
        <ele>564</ele>
        <time>2019-06-19T07:20:07Z</time>
      </trkpt>
      <trkpt lat="44.27829" lon="5.79299">
        <ele>564</ele>
        <time>2019-06-19T07:20:08Z</time>
      </trkpt>
      <trkpt lat="44.27832" lon="5.79294">
        <ele>564</ele>
        <time>2019-06-19T07:20:09Z</time>
      </trkpt>
      <trkpt lat="44.27835" lon="5.79288">
        <ele>564</ele>
        <time>2019-06-19T07:20:10Z</time>
      </trkpt>
      <trkpt lat="44.27838" lon="5.79283">
        <ele>564</ele>
        <time>2019-06-19T07:20:11Z</time>
      </trkpt>
      <trkpt lat="44.27841" lon="5.79277">
        <ele>565</ele>
        <time>2019-06-19T07:20:12Z</time>
      </trkpt>
      <trkpt lat="44.27844" lon="5.79271">
        <ele>565</ele>
        <time>2019-06-19T07:20:13Z</time>
      </trkpt>
      <trkpt lat="44.27846" lon="5.79265">
        <ele>566</ele>
        <time>2019-06-19T07:20:14Z</time>
      </trkpt>
      <trkpt lat="44.27849" lon="5.79259">
        <ele>566</ele>
        <time>2019-06-19T07:20:15Z</time>
      </trkpt>
      <trkpt lat="44.27852" lon="5.79253">
        <ele>566</ele>
        <time>2019-06-19T07:20:16Z</time>
      </trkpt>
      <trkpt lat="44.27855" lon="5.79248">
        <ele>567</ele>
        <time>2019-06-19T07:20:17Z</time>
      </trkpt>
      <trkpt lat="44.27857" lon="5.79242">
        <ele>567</ele>
        <time>2019-06-19T07:20:18Z</time>
      </trkpt>
      <trkpt lat="44.27859" lon="5.79236">
        <ele>567</ele>
        <time>2019-06-19T07:20:19Z</time>
      </trkpt>
      <trkpt lat="44.27862" lon="5.7923">
        <ele>567</ele>
        <time>2019-06-19T07:20:20Z</time>
      </trkpt>
      <trkpt lat="44.27863" lon="5.79224">
        <ele>567</ele>
        <time>2019-06-19T07:20:21Z</time>
      </trkpt>
      <trkpt lat="44.27865" lon="5.79217">
        <ele>568</ele>
        <time>2019-06-19T07:20:22Z</time>
      </trkpt>
      <trkpt lat="44.27866" lon="5.79209">
        <ele>569</ele>
        <time>2019-06-19T07:20:23Z</time>
      </trkpt>
      <trkpt lat="44.27866" lon="5.79201">
        <ele>570</ele>
        <time>2019-06-19T07:20:24Z</time>
      </trkpt>
      <trkpt lat="44.27867" lon="5.79195">
        <ele>571</ele>
        <time>2019-06-19T07:20:25Z</time>
      </trkpt>
      <trkpt lat="44.27868" lon="5.79188">
        <ele>572</ele>
        <time>2019-06-19T07:20:26Z</time>
      </trkpt>
      <trkpt lat="44.27868" lon="5.79181">
        <ele>572</ele>
        <time>2019-06-19T07:20:27Z</time>
      </trkpt>
      <trkpt lat="44.27868" lon="5.79174">
        <ele>573</ele>
        <time>2019-06-19T07:20:28Z</time>
      </trkpt>
      <trkpt lat="44.27869" lon="5.79167">
        <ele>573</ele>
        <time>2019-06-19T07:20:29Z</time>
      </trkpt>
      <trkpt lat="44.27869" lon="5.7916">
        <ele>573</ele>
        <time>2019-06-19T07:20:30Z</time>
      </trkpt>
      <trkpt lat="44.27868" lon="5.79154">
        <ele>573</ele>
        <time>2019-06-19T07:20:31Z</time>
      </trkpt>
      <trkpt lat="44.27866" lon="5.79148">
        <ele>573</ele>
        <time>2019-06-19T07:20:32Z</time>
      </trkpt>
      <trkpt lat="44.27864" lon="5.79142">
        <ele>573</ele>
        <time>2019-06-19T07:20:33Z</time>
      </trkpt>
      <trkpt lat="44.27862" lon="5.79137">
        <ele>573</ele>
        <time>2019-06-19T07:20:34Z</time>
      </trkpt>
      <trkpt lat="44.27859" lon="5.79132">
        <ele>573</ele>
        <time>2019-06-19T07:20:35Z</time>
      </trkpt>
      <trkpt lat="44.27857" lon="5.79126">
        <ele>573</ele>
        <time>2019-06-19T07:20:36Z</time>
      </trkpt>
      <trkpt lat="44.27854" lon="5.79121">
        <ele>573</ele>
        <time>2019-06-19T07:20:37Z</time>
      </trkpt>
      <trkpt lat="44.27852" lon="5.79116">
        <ele>573</ele>
        <time>2019-06-19T07:20:38Z</time>
      </trkpt>
      <trkpt lat="44.2785" lon="5.7911">
        <ele>573</ele>
        <time>2019-06-19T07:20:39Z</time>
      </trkpt>
      <trkpt lat="44.27848" lon="5.79104">
        <ele>573</ele>
        <time>2019-06-19T07:20:40Z</time>
      </trkpt>
      <trkpt lat="44.27845" lon="5.79098">
        <ele>573</ele>
        <time>2019-06-19T07:20:41Z</time>
      </trkpt>
      <trkpt lat="44.27842" lon="5.79093">
        <ele>573</ele>
        <time>2019-06-19T07:20:42Z</time>
      </trkpt>
      <trkpt lat="44.2784" lon="5.79087">
        <ele>573</ele>
        <time>2019-06-19T07:20:43Z</time>
      </trkpt>
      <trkpt lat="44.27836" lon="5.79082">
        <ele>573</ele>
        <time>2019-06-19T07:20:44Z</time>
      </trkpt>
      <trkpt lat="44.27832" lon="5.79077">
        <ele>573</ele>
        <time>2019-06-19T07:20:45Z</time>
      </trkpt>
      <trkpt lat="44.27828" lon="5.79073">
        <ele>573</ele>
        <time>2019-06-19T07:20:46Z</time>
      </trkpt>
      <trkpt lat="44.27824" lon="5.79069">
        <ele>573</ele>
        <time>2019-06-19T07:20:47Z</time>
      </trkpt>
      <trkpt lat="44.2782" lon="5.79064">
        <ele>573</ele>
        <time>2019-06-19T07:20:48Z</time>
      </trkpt>
      <trkpt lat="44.27816" lon="5.7906">
        <ele>573</ele>
        <time>2019-06-19T07:20:49Z</time>
      </trkpt>
      <trkpt lat="44.27813" lon="5.79054">
        <ele>573</ele>
        <time>2019-06-19T07:20:50Z</time>
      </trkpt>
      <trkpt lat="44.27809" lon="5.79049">
        <ele>574</ele>
        <time>2019-06-19T07:20:51Z</time>
      </trkpt>
      <trkpt lat="44.27806" lon="5.79043">
        <ele>575</ele>
        <time>2019-06-19T07:20:52Z</time>
      </trkpt>
      <trkpt lat="44.27805" lon="5.79036">
        <ele>575</ele>
        <time>2019-06-19T07:20:53Z</time>
      </trkpt>
      <trkpt lat="44.27806" lon="5.79029">
        <ele>575</ele>
        <time>2019-06-19T07:20:54Z</time>
      </trkpt>
      <trkpt lat="44.27879" lon="5.79018">
        <ele>576</ele>
        <time>2019-06-19T07:21:08Z</time>
      </trkpt>
      <trkpt lat="44.27886" lon="5.79018">
        <ele>576</ele>
        <time>2019-06-19T07:21:09Z</time>
      </trkpt>
      <trkpt lat="44.27893" lon="5.79016">
        <ele>576</ele>
        <time>2019-06-19T07:21:10Z</time>
      </trkpt>
      <trkpt lat="44.27901" lon="5.79014">
        <ele>576</ele>
        <time>2019-06-19T07:21:11Z</time>
      </trkpt>
      <trkpt lat="44.27907" lon="5.79013">
        <ele>577</ele>
        <time>2019-06-19T07:21:12Z</time>
      </trkpt>
      <trkpt lat="44.27914" lon="5.7901">
        <ele>577</ele>
        <time>2019-06-19T07:21:13Z</time>
      </trkpt>
      <trkpt lat="44.2792" lon="5.79005">
        <ele>577</ele>
        <time>2019-06-19T07:21:14Z</time>
      </trkpt>
      <trkpt lat="44.27927" lon="5.79002">
        <ele>577</ele>
        <time>2019-06-19T07:21:15Z</time>
      </trkpt>
      <trkpt lat="44.27933" lon="5.78997">
        <ele>577</ele>
        <time>2019-06-19T07:21:16Z</time>
      </trkpt>
      <trkpt lat="44.27939" lon="5.78992">
        <ele>577</ele>
        <time>2019-06-19T07:21:17Z</time>
      </trkpt>
      <trkpt lat="44.27944" lon="5.78987">
        <ele>577</ele>
        <time>2019-06-19T07:21:18Z</time>
      </trkpt>
      <trkpt lat="44.2795" lon="5.7898">
        <ele>577</ele>
        <time>2019-06-19T07:21:19Z</time>
      </trkpt>
      <trkpt lat="44.27954" lon="5.78973">
        <ele>577</ele>
        <time>2019-06-19T07:21:20Z</time>
      </trkpt>
      <trkpt lat="44.27958" lon="5.78966">
        <ele>577</ele>
        <time>2019-06-19T07:21:21Z</time>
      </trkpt>
      <trkpt lat="44.27961" lon="5.78957">
        <ele>577</ele>
        <time>2019-06-19T07:21:22Z</time>
      </trkpt>
      <trkpt lat="44.27963" lon="5.78948">
        <ele>577</ele>
        <time>2019-06-19T07:21:23Z</time>
      </trkpt>
      <trkpt lat="44.27965" lon="5.78939">
        <ele>577</ele>
        <time>2019-06-19T07:21:24Z</time>
      </trkpt>
      <trkpt lat="44.27967" lon="5.78929">
        <ele>577</ele>
        <time>2019-06-19T07:21:25Z</time>
      </trkpt>
      <trkpt lat="44.27967" lon="5.78919">
        <ele>577</ele>
        <time>2019-06-19T07:21:26Z</time>
      </trkpt>
      <trkpt lat="44.27968" lon="5.78909">
        <ele>577</ele>
        <time>2019-06-19T07:21:27Z</time>
      </trkpt>
      <trkpt lat="44.27969" lon="5.789">
        <ele>577</ele>
        <time>2019-06-19T07:21:28Z</time>
      </trkpt>
      <trkpt lat="44.27969" lon="5.7889">
        <ele>578</ele>
        <time>2019-06-19T07:21:29Z</time>
      </trkpt>
      <trkpt lat="44.27969" lon="5.78879">
        <ele>578</ele>
        <time>2019-06-19T07:21:30Z</time>
      </trkpt>
      <trkpt lat="44.27969" lon="5.78869">
        <ele>578</ele>
        <time>2019-06-19T07:21:31Z</time>
      </trkpt>
      <trkpt lat="44.27969" lon="5.7886">
        <ele>578</ele>
        <time>2019-06-19T07:21:32Z</time>
      </trkpt>
      <trkpt lat="44.27968" lon="5.78851">
        <ele>578</ele>
        <time>2019-06-19T07:21:33Z</time>
      </trkpt>
      <trkpt lat="44.27967" lon="5.78842">
        <ele>578</ele>
        <time>2019-06-19T07:21:34Z</time>
      </trkpt>
      <trkpt lat="44.27966" lon="5.78833">
        <ele>578</ele>
        <time>2019-06-19T07:21:35Z</time>
      </trkpt>
      <trkpt lat="44.27964" lon="5.78824">
        <ele>578</ele>
        <time>2019-06-19T07:21:36Z</time>
      </trkpt>
      <trkpt lat="44.27962" lon="5.78815">
        <ele>578</ele>
        <time>2019-06-19T07:21:37Z</time>
      </trkpt>
      <trkpt lat="44.2796" lon="5.78806">
        <ele>578</ele>
        <time>2019-06-19T07:21:38Z</time>
      </trkpt>
      <trkpt lat="44.27958" lon="5.78797">
        <ele>578</ele>
        <time>2019-06-19T07:21:39Z</time>
      </trkpt>
      <trkpt lat="44.27955" lon="5.78789">
        <ele>578</ele>
        <time>2019-06-19T07:21:40Z</time>
      </trkpt>
      <trkpt lat="44.27952" lon="5.7878">
        <ele>578</ele>
        <time>2019-06-19T07:21:41Z</time>
      </trkpt>
      <trkpt lat="44.27949" lon="5.78772">
        <ele>578</ele>
        <time>2019-06-19T07:21:42Z</time>
      </trkpt>
      <trkpt lat="44.27946" lon="5.78763">
        <ele>578</ele>
        <time>2019-06-19T07:21:43Z</time>
      </trkpt>
      <trkpt lat="44.27943" lon="5.78755">
        <ele>578</ele>
        <time>2019-06-19T07:21:44Z</time>
      </trkpt>
      <trkpt lat="44.2794" lon="5.78746">
        <ele>578</ele>
        <time>2019-06-19T07:21:45Z</time>
      </trkpt>
      <trkpt lat="44.27938" lon="5.78737">
        <ele>578</ele>
        <time>2019-06-19T07:21:46Z</time>
      </trkpt>
      <trkpt lat="44.27936" lon="5.78728">
        <ele>578</ele>
        <time>2019-06-19T07:21:47Z</time>
      </trkpt>
      <trkpt lat="44.27935" lon="5.7872">
        <ele>578</ele>
        <time>2019-06-19T07:21:48Z</time>
      </trkpt>
      <trkpt lat="44.27935" lon="5.78711">
        <ele>578</ele>
        <time>2019-06-19T07:21:49Z</time>
      </trkpt>
      <trkpt lat="44.27935" lon="5.78702">
        <ele>578</ele>
        <time>2019-06-19T07:21:50Z</time>
      </trkpt>
      <trkpt lat="44.27933" lon="5.78693">
        <ele>578</ele>
        <time>2019-06-19T07:21:51Z</time>
      </trkpt>
      <trkpt lat="44.27931" lon="5.78685">
        <ele>578</ele>
        <time>2019-06-19T07:21:52Z</time>
      </trkpt>
      <trkpt lat="44.2793" lon="5.78675">
        <ele>578</ele>
        <time>2019-06-19T07:21:53Z</time>
      </trkpt>
      <trkpt lat="44.2793" lon="5.78665">
        <ele>578</ele>
        <time>2019-06-19T07:21:54Z</time>
      </trkpt>
      <trkpt lat="44.2793" lon="5.78656">
        <ele>578</ele>
        <time>2019-06-19T07:21:55Z</time>
      </trkpt>
      <trkpt lat="44.27932" lon="5.78648">
        <ele>577</ele>
        <time>2019-06-19T07:21:56Z</time>
      </trkpt>
      <trkpt lat="44.27938" lon="5.7864">
        <ele>576</ele>
        <time>2019-06-19T07:21:57Z</time>
      </trkpt>
      <trkpt lat="44.27943" lon="5.78633">
        <ele>575</ele>
        <time>2019-06-19T07:21:58Z</time>
      </trkpt>
      <trkpt lat="44.27948" lon="5.78626">
        <ele>574</ele>
        <time>2019-06-19T07:21:59Z</time>
      </trkpt>
      <trkpt lat="44.27952" lon="5.78618">
        <ele>573</ele>
        <time>2019-06-19T07:22:00Z</time>
      </trkpt>
      <trkpt lat="44.27955" lon="5.78609">
        <ele>572</ele>
        <time>2019-06-19T07:22:01Z</time>
      </trkpt>
      <trkpt lat="44.27958" lon="5.78601">
        <ele>572</ele>
        <time>2019-06-19T07:22:02Z</time>
      </trkpt>
      <trkpt lat="44.27961" lon="5.78592">
        <ele>572</ele>
        <time>2019-06-19T07:22:03Z</time>
      </trkpt>
      <trkpt lat="44.27962" lon="5.78583">
        <ele>572</ele>
        <time>2019-06-19T07:22:04Z</time>
      </trkpt>
      <trkpt lat="44.27962" lon="5.78573">
        <ele>572</ele>
        <time>2019-06-19T07:22:05Z</time>
      </trkpt>
      <trkpt lat="44.27961" lon="5.78563">
        <ele>572</ele>
        <time>2019-06-19T07:22:07Z</time>
      </trkpt>
      <trkpt lat="44.27961" lon="5.78554">
        <ele>572</ele>
        <time>2019-06-19T07:22:07Z</time>
      </trkpt>
      <trkpt lat="44.27961" lon="5.78545">
        <ele>572</ele>
        <time>2019-06-19T07:22:08Z</time>
      </trkpt>
      <trkpt lat="44.27961" lon="5.78536">
        <ele>572</ele>
        <time>2019-06-19T07:22:09Z</time>
      </trkpt>
      <trkpt lat="44.27962" lon="5.78527">
        <ele>572</ele>
        <time>2019-06-19T07:22:10Z</time>
      </trkpt>
      <trkpt lat="44.27963" lon="5.78519">
        <ele>573</ele>
        <time>2019-06-19T07:22:11Z</time>
      </trkpt>
      <trkpt lat="44.27963" lon="5.78511">
        <ele>573</ele>
        <time>2019-06-19T07:22:12Z</time>
      </trkpt>
      <trkpt lat="44.27962" lon="5.78502">
        <ele>573</ele>
        <time>2019-06-19T07:22:13Z</time>
      </trkpt>
      <trkpt lat="44.27961" lon="5.78493">
        <ele>574</ele>
        <time>2019-06-19T07:22:14Z</time>
      </trkpt>
      <trkpt lat="44.2796" lon="5.78485">
        <ele>574</ele>
        <time>2019-06-19T07:22:15Z</time>
      </trkpt>
      <trkpt lat="44.27959" lon="5.78477">
        <ele>574</ele>
        <time>2019-06-19T07:22:16Z</time>
      </trkpt>
      <trkpt lat="44.27959" lon="5.78468">
        <ele>574</ele>
        <time>2019-06-19T07:22:17Z</time>
      </trkpt>
      <trkpt lat="44.27958" lon="5.7846">
        <ele>574</ele>
        <time>2019-06-19T07:22:18Z</time>
      </trkpt>
      <trkpt lat="44.27958" lon="5.78451">
        <ele>574</ele>
        <time>2019-06-19T07:22:19Z</time>
      </trkpt>
      <trkpt lat="44.27957" lon="5.78443">
        <ele>574</ele>
        <time>2019-06-19T07:22:20Z</time>
      </trkpt>
      <trkpt lat="44.27956" lon="5.78435">
        <ele>574</ele>
        <time>2019-06-19T07:22:21Z</time>
      </trkpt>
      <trkpt lat="44.27954" lon="5.78427">
        <ele>574</ele>
        <time>2019-06-19T07:22:22Z</time>
      </trkpt>
      <trkpt lat="44.27953" lon="5.78419">
        <ele>574</ele>
        <time>2019-06-19T07:22:23Z</time>
      </trkpt>
      <trkpt lat="44.27952" lon="5.78411">
        <ele>574</ele>
        <time>2019-06-19T07:22:24Z</time>
      </trkpt>
      <trkpt lat="44.2795" lon="5.78404">
        <ele>574</ele>
        <time>2019-06-19T07:22:25Z</time>
      </trkpt>
      <trkpt lat="44.27949" lon="5.78396">
        <ele>574</ele>
        <time>2019-06-19T07:22:26Z</time>
      </trkpt>
      <trkpt lat="44.27948" lon="5.78388">
        <ele>574</ele>
        <time>2019-06-19T07:22:27Z</time>
      </trkpt>
      <trkpt lat="44.27946" lon="5.7838">
        <ele>574</ele>
        <time>2019-06-19T07:22:29Z</time>
      </trkpt>
      <trkpt lat="44.27945" lon="5.78372">
        <ele>574</ele>
        <time>2019-06-19T07:22:29Z</time>
      </trkpt>
      <trkpt lat="44.27943" lon="5.78365">
        <ele>574</ele>
        <time>2019-06-19T07:22:30Z</time>
      </trkpt>
      <trkpt lat="44.27942" lon="5.78356">
        <ele>574</ele>
        <time>2019-06-19T07:22:31Z</time>
      </trkpt>
      <trkpt lat="44.2794" lon="5.78348">
        <ele>574</ele>
        <time>2019-06-19T07:22:32Z</time>
      </trkpt>
      <trkpt lat="44.27939" lon="5.7834">
        <ele>574</ele>
        <time>2019-06-19T07:22:33Z</time>
      </trkpt>
      <trkpt lat="44.27937" lon="5.78332">
        <ele>574</ele>
        <time>2019-06-19T07:22:34Z</time>
      </trkpt>
      <trkpt lat="44.27937" lon="5.78325">
        <ele>574</ele>
        <time>2019-06-19T07:22:35Z</time>
      </trkpt>
      <trkpt lat="44.27936" lon="5.78317">
        <ele>574</ele>
        <time>2019-06-19T07:22:36Z</time>
      </trkpt>
      <trkpt lat="44.27934" lon="5.78309">
        <ele>574</ele>
        <time>2019-06-19T07:22:37Z</time>
      </trkpt>
      <trkpt lat="44.27932" lon="5.78301">
        <ele>573</ele>
        <time>2019-06-19T07:22:38Z</time>
      </trkpt>
      <trkpt lat="44.2793" lon="5.78293">
        <ele>573</ele>
        <time>2019-06-19T07:22:39Z</time>
      </trkpt>
      <trkpt lat="44.27928" lon="5.78285">
        <ele>572</ele>
        <time>2019-06-19T07:22:40Z</time>
      </trkpt>
      <trkpt lat="44.27925" lon="5.78277">
        <ele>572</ele>
        <time>2019-06-19T07:22:41Z</time>
      </trkpt>
      <trkpt lat="44.27922" lon="5.7827">
        <ele>572</ele>
        <time>2019-06-19T07:22:42Z</time>
      </trkpt>
      <trkpt lat="44.27919" lon="5.78263">
        <ele>572</ele>
        <time>2019-06-19T07:22:43Z</time>
      </trkpt>
      <trkpt lat="44.27916" lon="5.78257">
        <ele>572</ele>
        <time>2019-06-19T07:22:44Z</time>
      </trkpt>
      <trkpt lat="44.27912" lon="5.78251">
        <ele>572</ele>
        <time>2019-06-19T07:22:45Z</time>
      </trkpt>
      <trkpt lat="44.27908" lon="5.78246">
        <ele>572</ele>
        <time>2019-06-19T07:22:46Z</time>
      </trkpt>
      <trkpt lat="44.27904" lon="5.78241">
        <ele>572</ele>
        <time>2019-06-19T07:22:47Z</time>
      </trkpt>
      <trkpt lat="44.279" lon="5.78235">
        <ele>572</ele>
        <time>2019-06-19T07:22:48Z</time>
      </trkpt>
      <trkpt lat="44.27896" lon="5.78229">
        <ele>572</ele>
        <time>2019-06-19T07:22:49Z</time>
      </trkpt>
      <trkpt lat="44.27892" lon="5.78223">
        <ele>572</ele>
        <time>2019-06-19T07:22:50Z</time>
      </trkpt>
      <trkpt lat="44.27888" lon="5.78217">
        <ele>572</ele>
        <time>2019-06-19T07:22:51Z</time>
      </trkpt>
      <trkpt lat="44.27884" lon="5.78211">
        <ele>572</ele>
        <time>2019-06-19T07:22:52Z</time>
      </trkpt>
      <trkpt lat="44.2788" lon="5.78205">
        <ele>572</ele>
        <time>2019-06-19T07:22:53Z</time>
      </trkpt>
      <trkpt lat="44.27876" lon="5.78199">
        <ele>572</ele>
        <time>2019-06-19T07:22:54Z</time>
      </trkpt>
      <trkpt lat="44.27871" lon="5.78195">
        <ele>572</ele>
        <time>2019-06-19T07:22:55Z</time>
      </trkpt>
      <trkpt lat="44.27866" lon="5.78191">
        <ele>572</ele>
        <time>2019-06-19T07:22:56Z</time>
      </trkpt>
      <trkpt lat="44.27861" lon="5.78189">
        <ele>572</ele>
        <time>2019-06-19T07:22:57Z</time>
      </trkpt>
      <trkpt lat="44.27856" lon="5.78186">
        <ele>572</ele>
        <time>2019-06-19T07:22:59Z</time>
      </trkpt>
      <trkpt lat="44.2785" lon="5.78184">
        <ele>572</ele>
        <time>2019-06-19T07:22:59Z</time>
      </trkpt>
      <trkpt lat="44.27844" lon="5.78183">
        <ele>572</ele>
        <time>2019-06-19T07:23:00Z</time>
      </trkpt>
      <trkpt lat="44.27838" lon="5.78183">
        <ele>572</ele>
        <time>2019-06-19T07:23:01Z</time>
      </trkpt>
      <trkpt lat="44.27833" lon="5.78183">
        <ele>572</ele>
        <time>2019-06-19T07:23:03Z</time>
      </trkpt>
      <trkpt lat="44.27827" lon="5.78185">
        <ele>572</ele>
        <time>2019-06-19T07:23:03Z</time>
      </trkpt>
      <trkpt lat="44.27821" lon="5.78187">
        <ele>572</ele>
        <time>2019-06-19T07:23:04Z</time>
      </trkpt>
      <trkpt lat="44.27816" lon="5.78189">
        <ele>572</ele>
        <time>2019-06-19T07:23:05Z</time>
      </trkpt>
      <trkpt lat="44.27811" lon="5.78192">
        <ele>572</ele>
        <time>2019-06-19T07:23:07Z</time>
      </trkpt>
      <trkpt lat="44.27805" lon="5.78196">
        <ele>572</ele>
        <time>2019-06-19T07:23:07Z</time>
      </trkpt>
      <trkpt lat="44.278" lon="5.782">
        <ele>572</ele>
        <time>2019-06-19T07:23:08Z</time>
      </trkpt>
      <trkpt lat="44.27795" lon="5.78204">
        <ele>572</ele>
        <time>2019-06-19T07:23:09Z</time>
      </trkpt>
      <trkpt lat="44.2779" lon="5.78208">
        <ele>573</ele>
        <time>2019-06-19T07:23:10Z</time>
      </trkpt>
      <trkpt lat="44.27785" lon="5.78212">
        <ele>573</ele>
        <time>2019-06-19T07:23:11Z</time>
      </trkpt>
      <trkpt lat="44.2778" lon="5.78215">
        <ele>573</ele>
        <time>2019-06-19T07:23:12Z</time>
      </trkpt>
      <trkpt lat="44.27775" lon="5.78219">
        <ele>573</ele>
        <time>2019-06-19T07:23:13Z</time>
      </trkpt>
      <trkpt lat="44.27771" lon="5.78223">
        <ele>573</ele>
        <time>2019-06-19T07:23:14Z</time>
      </trkpt>
      <trkpt lat="44.27766" lon="5.78227">
        <ele>573</ele>
        <time>2019-06-19T07:23:15Z</time>
      </trkpt>
      <trkpt lat="44.27762" lon="5.78232">
        <ele>573</ele>
        <time>2019-06-19T07:23:16Z</time>
      </trkpt>
      <trkpt lat="44.27758" lon="5.78236">
        <ele>573</ele>
        <time>2019-06-19T07:23:17Z</time>
      </trkpt>
      <trkpt lat="44.27753" lon="5.78241">
        <ele>573</ele>
        <time>2019-06-19T07:23:18Z</time>
      </trkpt>
      <trkpt lat="44.27749" lon="5.78246">
        <ele>573</ele>
        <time>2019-06-19T07:23:19Z</time>
      </trkpt>
      <trkpt lat="44.27745" lon="5.78251">
        <ele>573</ele>
        <time>2019-06-19T07:23:20Z</time>
      </trkpt>
      <trkpt lat="44.2774" lon="5.78257">
        <ele>574</ele>
        <time>2019-06-19T07:23:21Z</time>
      </trkpt>
      <trkpt lat="44.27736" lon="5.78262">
        <ele>574</ele>
        <time>2019-06-19T07:23:22Z</time>
      </trkpt>
      <trkpt lat="44.27732" lon="5.78267">
        <ele>575</ele>
        <time>2019-06-19T07:23:23Z</time>
      </trkpt>
      <trkpt lat="44.27728" lon="5.78271">
        <ele>575</ele>
        <time>2019-06-19T07:23:24Z</time>
      </trkpt>
      <trkpt lat="44.27723" lon="5.78277">
        <ele>575</ele>
        <time>2019-06-19T07:23:25Z</time>
      </trkpt>
      <trkpt lat="44.2772" lon="5.78283">
        <ele>576</ele>
        <time>2019-06-19T07:23:26Z</time>
      </trkpt>
      <trkpt lat="44.27715" lon="5.78288">
        <ele>576</ele>
        <time>2019-06-19T07:23:27Z</time>
      </trkpt>
      <trkpt lat="44.27711" lon="5.78294">
        <ele>576</ele>
        <time>2019-06-19T07:23:28Z</time>
      </trkpt>
      <trkpt lat="44.27707" lon="5.78299">
        <ele>576</ele>
        <time>2019-06-19T07:23:29Z</time>
      </trkpt>
      <trkpt lat="44.27703" lon="5.78305">
        <ele>577</ele>
        <time>2019-06-19T07:23:30Z</time>
      </trkpt>
      <trkpt lat="44.27697" lon="5.78309">
        <ele>577</ele>
        <time>2019-06-19T07:23:31Z</time>
      </trkpt>
      <trkpt lat="44.27693" lon="5.78314">
        <ele>578</ele>
        <time>2019-06-19T07:23:32Z</time>
      </trkpt>
      <trkpt lat="44.27687" lon="5.78319">
        <ele>578</ele>
        <time>2019-06-19T07:23:33Z</time>
      </trkpt>
      <trkpt lat="44.27682" lon="5.78324">
        <ele>579</ele>
        <time>2019-06-19T07:23:34Z</time>
      </trkpt>
      <trkpt lat="44.27678" lon="5.78329">
        <ele>580</ele>
        <time>2019-06-19T07:23:35Z</time>
      </trkpt>
      <trkpt lat="44.27674" lon="5.78334">
        <ele>580</ele>
        <time>2019-06-19T07:23:36Z</time>
      </trkpt>
      <trkpt lat="44.27669" lon="5.78339">
        <ele>581</ele>
        <time>2019-06-19T07:23:37Z</time>
      </trkpt>
      <trkpt lat="44.27665" lon="5.78344">
        <ele>582</ele>
        <time>2019-06-19T07:23:38Z</time>
      </trkpt>
      <trkpt lat="44.2766" lon="5.78347">
        <ele>582</ele>
        <time>2019-06-19T07:23:39Z</time>
      </trkpt>
      <trkpt lat="44.27655" lon="5.78351">
        <ele>582</ele>
        <time>2019-06-19T07:23:40Z</time>
      </trkpt>
      <trkpt lat="44.2765" lon="5.78355">
        <ele>583</ele>
        <time>2019-06-19T07:23:41Z</time>
      </trkpt>
      <trkpt lat="44.27646" lon="5.7836">
        <ele>583</ele>
        <time>2019-06-19T07:23:42Z</time>
      </trkpt>
      <trkpt lat="44.27641" lon="5.78364">
        <ele>583</ele>
        <time>2019-06-19T07:23:43Z</time>
      </trkpt>
      <trkpt lat="44.27636" lon="5.78368">
        <ele>583</ele>
        <time>2019-06-19T07:23:44Z</time>
      </trkpt>
      <trkpt lat="44.27631" lon="5.78372">
        <ele>584</ele>
        <time>2019-06-19T07:23:45Z</time>
      </trkpt>
      <trkpt lat="44.27627" lon="5.78376">
        <ele>584</ele>
        <time>2019-06-19T07:23:46Z</time>
      </trkpt>
      <trkpt lat="44.27622" lon="5.78381">
        <ele>585</ele>
        <time>2019-06-19T07:23:47Z</time>
      </trkpt>
      <trkpt lat="44.27617" lon="5.78387">
        <ele>586</ele>
        <time>2019-06-19T07:23:48Z</time>
      </trkpt>
      <trkpt lat="44.27612" lon="5.78392">
        <ele>587</ele>
        <time>2019-06-19T07:23:49Z</time>
      </trkpt>
      <trkpt lat="44.27606" lon="5.78394">
        <ele>588</ele>
        <time>2019-06-19T07:23:50Z</time>
      </trkpt>
      <trkpt lat="44.27599" lon="5.78396">
        <ele>589</ele>
        <time>2019-06-19T07:23:51Z</time>
      </trkpt>
      <trkpt lat="44.27594" lon="5.78398">
        <ele>590</ele>
        <time>2019-06-19T07:23:52Z</time>
      </trkpt>
      <trkpt lat="44.27588" lon="5.78401">
        <ele>591</ele>
        <time>2019-06-19T07:23:53Z</time>
      </trkpt>
      <trkpt lat="44.27583" lon="5.78404">
        <ele>592</ele>
        <time>2019-06-19T07:23:54Z</time>
      </trkpt>
      <trkpt lat="44.27578" lon="5.78407">
        <ele>593</ele>
        <time>2019-06-19T07:23:55Z</time>
      </trkpt>
      <trkpt lat="44.27573" lon="5.78408">
        <ele>594</ele>
        <time>2019-06-19T07:23:56Z</time>
      </trkpt>
      <trkpt lat="44.27567" lon="5.7841">
        <ele>595</ele>
        <time>2019-06-19T07:23:57Z</time>
      </trkpt>
      <trkpt lat="44.27561" lon="5.78411">
        <ele>596</ele>
        <time>2019-06-19T07:23:58Z</time>
      </trkpt>
      <trkpt lat="44.27555" lon="5.78413">
        <ele>596</ele>
        <time>2019-06-19T07:23:59Z</time>
      </trkpt>
      <trkpt lat="44.27549" lon="5.78412">
        <ele>596</ele>
        <time>2019-06-19T07:24:00Z</time>
      </trkpt>
      <trkpt lat="44.27543" lon="5.78412">
        <ele>596</ele>
        <time>2019-06-19T07:24:01Z</time>
      </trkpt>
      <trkpt lat="44.27537" lon="5.78411">
        <ele>596</ele>
        <time>2019-06-19T07:24:02Z</time>
      </trkpt>
      <trkpt lat="44.27531" lon="5.78411">
        <ele>596</ele>
        <time>2019-06-19T07:24:03Z</time>
      </trkpt>
      <trkpt lat="44.27525" lon="5.78409">
        <ele>596</ele>
        <time>2019-06-19T07:24:04Z</time>
      </trkpt>
      <trkpt lat="44.27521" lon="5.78408">
        <ele>597</ele>
        <time>2019-06-19T07:24:05Z</time>
      </trkpt>
      <trkpt lat="44.27516" lon="5.78406">
        <ele>597</ele>
        <time>2019-06-19T07:24:07Z</time>
      </trkpt>
      <trkpt lat="44.2751" lon="5.78403">
        <ele>598</ele>
        <time>2019-06-19T07:24:07Z</time>
      </trkpt>
      <trkpt lat="44.27505" lon="5.784">
        <ele>599</ele>
        <time>2019-06-19T07:24:08Z</time>
      </trkpt>
      <trkpt lat="44.27501" lon="5.78396">
        <ele>600</ele>
        <time>2019-06-19T07:24:09Z</time>
      </trkpt>
      <trkpt lat="44.27496" lon="5.78393">
        <ele>601</ele>
        <time>2019-06-19T07:24:10Z</time>
      </trkpt>
      <trkpt lat="44.27491" lon="5.78389">
        <ele>602</ele>
        <time>2019-06-19T07:24:11Z</time>
      </trkpt>
      <trkpt lat="44.27487" lon="5.78385">
        <ele>602</ele>
        <time>2019-06-19T07:24:12Z</time>
      </trkpt>
      <trkpt lat="44.27483" lon="5.78381">
        <ele>603</ele>
        <time>2019-06-19T07:24:13Z</time>
      </trkpt>
      <trkpt lat="44.2748" lon="5.78377">
        <ele>603</ele>
        <time>2019-06-19T07:24:14Z</time>
      </trkpt>
      <trkpt lat="44.27476" lon="5.78372">
        <ele>603</ele>
        <time>2019-06-19T07:24:15Z</time>
      </trkpt>
      <trkpt lat="44.27473" lon="5.78368">
        <ele>603</ele>
        <time>2019-06-19T07:24:16Z</time>
      </trkpt>
      <trkpt lat="44.2747" lon="5.78363">
        <ele>603</ele>
        <time>2019-06-19T07:24:17Z</time>
      </trkpt>
      <trkpt lat="44.27467" lon="5.78357">
        <ele>603</ele>
        <time>2019-06-19T07:24:18Z</time>
      </trkpt>
      <trkpt lat="44.27465" lon="5.78349">
        <ele>603</ele>
        <time>2019-06-19T07:24:19Z</time>
      </trkpt>
      <trkpt lat="44.27465" lon="5.78341">
        <ele>603</ele>
        <time>2019-06-19T07:24:20Z</time>
      </trkpt>
      <trkpt lat="44.27468" lon="5.78334">
        <ele>603</ele>
        <time>2019-06-19T07:24:21Z</time>
      </trkpt>
      <trkpt lat="44.27472" lon="5.78328">
        <ele>603</ele>
        <time>2019-06-19T07:24:22Z</time>
      </trkpt>
      <trkpt lat="44.27478" lon="5.78322">
        <ele>603</ele>
        <time>2019-06-19T07:24:23Z</time>
      </trkpt>
      <trkpt lat="44.27483" lon="5.78317">
        <ele>603</ele>
        <time>2019-06-19T07:24:24Z</time>
      </trkpt>
      <trkpt lat="44.27488" lon="5.78313">
        <ele>603</ele>
        <time>2019-06-19T07:24:25Z</time>
      </trkpt>
      <trkpt lat="44.27493" lon="5.78308">
        <ele>602</ele>
        <time>2019-06-19T07:24:26Z</time>
      </trkpt>
      <trkpt lat="44.27498" lon="5.78304">
        <ele>601</ele>
        <time>2019-06-19T07:24:27Z</time>
      </trkpt>
      <trkpt lat="44.27503" lon="5.783">
        <ele>600</ele>
        <time>2019-06-19T07:24:28Z</time>
      </trkpt>
      <trkpt lat="44.27507" lon="5.78296">
        <ele>599</ele>
        <time>2019-06-19T07:24:29Z</time>
      </trkpt>
      <trkpt lat="44.27513" lon="5.78292">
        <ele>598</ele>
        <time>2019-06-19T07:24:30Z</time>
      </trkpt>
      <trkpt lat="44.27518" lon="5.78288">
        <ele>597</ele>
        <time>2019-06-19T07:24:31Z</time>
      </trkpt>
      <trkpt lat="44.27523" lon="5.78285">
        <ele>596</ele>
        <time>2019-06-19T07:24:32Z</time>
      </trkpt>
      <trkpt lat="44.27528" lon="5.78282">
        <ele>595</ele>
        <time>2019-06-19T07:24:33Z</time>
      </trkpt>
      <trkpt lat="44.27534" lon="5.78279">
        <ele>594</ele>
        <time>2019-06-19T07:24:34Z</time>
      </trkpt>
      <trkpt lat="44.27539" lon="5.78275">
        <ele>593</ele>
        <time>2019-06-19T07:24:35Z</time>
      </trkpt>
      <trkpt lat="44.27543" lon="5.7827">
        <ele>592</ele>
        <time>2019-06-19T07:24:36Z</time>
      </trkpt>
      <trkpt lat="44.27546" lon="5.78264">
        <ele>591</ele>
        <time>2019-06-19T07:24:37Z</time>
      </trkpt>
      <trkpt lat="44.27549" lon="5.78258">
        <ele>591</ele>
        <time>2019-06-19T07:24:38Z</time>
      </trkpt>
      <trkpt lat="44.27551" lon="5.78249">
        <ele>591</ele>
        <time>2019-06-19T07:24:39Z</time>
      </trkpt>
      <trkpt lat="44.27551" lon="5.7824">
        <ele>591</ele>
        <time>2019-06-19T07:24:40Z</time>
      </trkpt>
      <trkpt lat="44.27551" lon="5.78231">
        <ele>591</ele>
        <time>2019-06-19T07:24:41Z</time>
      </trkpt>
      <trkpt lat="44.27551" lon="5.78224">
        <ele>591</ele>
        <time>2019-06-19T07:24:42Z</time>
      </trkpt>
      <trkpt lat="44.27551" lon="5.78216">
        <ele>591</ele>
        <time>2019-06-19T07:24:43Z</time>
      </trkpt>
      <trkpt lat="44.2755" lon="5.78208">
        <ele>591</ele>
        <time>2019-06-19T07:24:44Z</time>
      </trkpt>
      <trkpt lat="44.27549" lon="5.782">
        <ele>591</ele>
        <time>2019-06-19T07:24:45Z</time>
      </trkpt>
      <trkpt lat="44.27547" lon="5.78194">
        <ele>591</ele>
        <time>2019-06-19T07:24:46Z</time>
      </trkpt>
      <trkpt lat="44.27545" lon="5.78187">
        <ele>590</ele>
        <time>2019-06-19T07:24:47Z</time>
      </trkpt>
      <trkpt lat="44.27542" lon="5.78181">
        <ele>589</ele>
        <time>2019-06-19T07:24:48Z</time>
      </trkpt>
      <trkpt lat="44.27539" lon="5.78175">
        <ele>588</ele>
        <time>2019-06-19T07:24:49Z</time>
      </trkpt>
      <trkpt lat="44.27536" lon="5.78169">
        <ele>587</ele>
        <time>2019-06-19T07:24:50Z</time>
      </trkpt>
      <trkpt lat="44.27531" lon="5.78163">
        <ele>586</ele>
        <time>2019-06-19T07:24:51Z</time>
      </trkpt>
      <trkpt lat="44.27527" lon="5.78158">
        <ele>585</ele>
        <time>2019-06-19T07:24:52Z</time>
      </trkpt>
      <trkpt lat="44.27522" lon="5.78152">
        <ele>585</ele>
        <time>2019-06-19T07:24:53Z</time>
      </trkpt>
      <trkpt lat="44.27518" lon="5.78147">
        <ele>585</ele>
        <time>2019-06-19T07:24:54Z</time>
      </trkpt>
      <trkpt lat="44.27513" lon="5.78141">
        <ele>585</ele>
        <time>2019-06-19T07:24:55Z</time>
      </trkpt>
      <trkpt lat="44.27508" lon="5.78135">
        <ele>585</ele>
        <time>2019-06-19T07:24:56Z</time>
      </trkpt>
      <trkpt lat="44.27504" lon="5.78129">
        <ele>585</ele>
        <time>2019-06-19T07:24:57Z</time>
      </trkpt>
      <trkpt lat="44.27499" lon="5.78124">
        <ele>585</ele>
        <time>2019-06-19T07:24:58Z</time>
      </trkpt>
      <trkpt lat="44.27494" lon="5.78118">
        <ele>585</ele>
        <time>2019-06-19T07:24:59Z</time>
      </trkpt>
      <trkpt lat="44.27489" lon="5.78112">
        <ele>585</ele>
        <time>2019-06-19T07:25:00Z</time>
      </trkpt>
      <trkpt lat="44.27485" lon="5.78106">
        <ele>585</ele>
        <time>2019-06-19T07:25:01Z</time>
      </trkpt>
      <trkpt lat="44.2748" lon="5.78101">
        <ele>585</ele>
        <time>2019-06-19T07:25:02Z</time>
      </trkpt>
      <trkpt lat="44.27475" lon="5.78095">
        <ele>585</ele>
        <time>2019-06-19T07:25:03Z</time>
      </trkpt>
      <trkpt lat="44.27471" lon="5.78089">
        <ele>585</ele>
        <time>2019-06-19T07:25:04Z</time>
      </trkpt>
      <trkpt lat="44.27466" lon="5.78084">
        <ele>585</ele>
        <time>2019-06-19T07:25:05Z</time>
      </trkpt>
      <trkpt lat="44.27461" lon="5.78079">
        <ele>585</ele>
        <time>2019-06-19T07:25:07Z</time>
      </trkpt>
      <trkpt lat="44.27457" lon="5.78074">
        <ele>585</ele>
        <time>2019-06-19T07:25:07Z</time>
      </trkpt>
      <trkpt lat="44.27452" lon="5.78068">
        <ele>585</ele>
        <time>2019-06-19T07:25:09Z</time>
      </trkpt>
      <trkpt lat="44.27448" lon="5.78063">
        <ele>585</ele>
        <time>2019-06-19T07:25:09Z</time>
      </trkpt>
      <trkpt lat="44.27444" lon="5.78057">
        <ele>585</ele>
        <time>2019-06-19T07:25:10Z</time>
      </trkpt>
      <trkpt lat="44.27439" lon="5.78052">
        <ele>585</ele>
        <time>2019-06-19T07:25:11Z</time>
      </trkpt>
      <trkpt lat="44.27435" lon="5.78046">
        <ele>585</ele>
        <time>2019-06-19T07:25:12Z</time>
      </trkpt>
      <trkpt lat="44.27431" lon="5.78039">
        <ele>585</ele>
        <time>2019-06-19T07:25:13Z</time>
      </trkpt>
      <trkpt lat="44.27426" lon="5.78033">
        <ele>585</ele>
        <time>2019-06-19T07:25:14Z</time>
      </trkpt>
      <trkpt lat="44.27422" lon="5.78027">
        <ele>585</ele>
        <time>2019-06-19T07:25:15Z</time>
      </trkpt>
      <trkpt lat="44.2742" lon="5.7802">
        <ele>585</ele>
        <time>2019-06-19T07:25:16Z</time>
      </trkpt>
      <trkpt lat="44.27417" lon="5.78012">
        <ele>585</ele>
        <time>2019-06-19T07:25:17Z</time>
      </trkpt>
      <trkpt lat="44.27415" lon="5.78004">
        <ele>586</ele>
        <time>2019-06-19T07:25:18Z</time>
      </trkpt>
      <trkpt lat="44.27414" lon="5.77996">
        <ele>586</ele>
        <time>2019-06-19T07:25:19Z</time>
      </trkpt>
      <trkpt lat="44.27413" lon="5.77988">
        <ele>586</ele>
        <time>2019-06-19T07:25:20Z</time>
      </trkpt>
      <trkpt lat="44.27412" lon="5.7798">
        <ele>586</ele>
        <time>2019-06-19T07:25:21Z</time>
      </trkpt>
      <trkpt lat="44.27413" lon="5.77971">
        <ele>586</ele>
        <time>2019-06-19T07:25:22Z</time>
      </trkpt>
      <trkpt lat="44.27413" lon="5.77963">
        <ele>586</ele>
        <time>2019-06-19T07:25:23Z</time>
      </trkpt>
      <trkpt lat="44.27413" lon="5.77955">
        <ele>586</ele>
        <time>2019-06-19T07:25:24Z</time>
      </trkpt>
      <trkpt lat="44.27412" lon="5.77946">
        <ele>587</ele>
        <time>2019-06-19T07:25:25Z</time>
      </trkpt>
      <trkpt lat="44.27411" lon="5.77938">
        <ele>587</ele>
        <time>2019-06-19T07:25:26Z</time>
      </trkpt>
      <trkpt lat="44.2741" lon="5.77929">
        <ele>587</ele>
        <time>2019-06-19T07:25:27Z</time>
      </trkpt>
      <trkpt lat="44.27407" lon="5.77921">
        <ele>587</ele>
        <time>2019-06-19T07:25:28Z</time>
      </trkpt>
      <trkpt lat="44.27404" lon="5.77913">
        <ele>587</ele>
        <time>2019-06-19T07:25:29Z</time>
      </trkpt>
      <trkpt lat="44.27401" lon="5.77906">
        <ele>587</ele>
        <time>2019-06-19T07:25:30Z</time>
      </trkpt>
      <trkpt lat="44.27396" lon="5.77898">
        <ele>587</ele>
        <time>2019-06-19T07:25:31Z</time>
      </trkpt>
      <trkpt lat="44.27391" lon="5.77891">
        <ele>587</ele>
        <time>2019-06-19T07:25:32Z</time>
      </trkpt>
      <trkpt lat="44.27386" lon="5.77885">
        <ele>587</ele>
        <time>2019-06-19T07:25:33Z</time>
      </trkpt>
      <trkpt lat="44.27382" lon="5.77879">
        <ele>588</ele>
        <time>2019-06-19T07:25:34Z</time>
      </trkpt>
      <trkpt lat="44.27377" lon="5.77873">
        <ele>588</ele>
        <time>2019-06-19T07:25:35Z</time>
      </trkpt>
      <trkpt lat="44.27372" lon="5.77868">
        <ele>589</ele>
        <time>2019-06-19T07:25:36Z</time>
      </trkpt>
      <trkpt lat="44.27367" lon="5.77862">
        <ele>589</ele>
        <time>2019-06-19T07:25:37Z</time>
      </trkpt>
      <trkpt lat="44.27362" lon="5.77856">
        <ele>589</ele>
        <time>2019-06-19T07:25:38Z</time>
      </trkpt>
      <trkpt lat="44.27357" lon="5.77851">
        <ele>589</ele>
        <time>2019-06-19T07:25:39Z</time>
      </trkpt>
      <trkpt lat="44.27352" lon="5.77845">
        <ele>590</ele>
        <time>2019-06-19T07:25:40Z</time>
      </trkpt>
      <trkpt lat="44.27347" lon="5.77839">
        <ele>590</ele>
        <time>2019-06-19T07:25:41Z</time>
      </trkpt>
      <trkpt lat="44.27342" lon="5.77834">
        <ele>590</ele>
        <time>2019-06-19T07:25:42Z</time>
      </trkpt>
      <trkpt lat="44.27337" lon="5.77829">
        <ele>590</ele>
        <time>2019-06-19T07:25:43Z</time>
      </trkpt>
      <trkpt lat="44.27332" lon="5.77824">
        <ele>590</ele>
        <time>2019-06-19T07:25:44Z</time>
      </trkpt>
      <trkpt lat="44.27327" lon="5.77819">
        <ele>591</ele>
        <time>2019-06-19T07:25:45Z</time>
      </trkpt>
      <trkpt lat="44.27322" lon="5.77814">
        <ele>591</ele>
        <time>2019-06-19T07:25:46Z</time>
      </trkpt>
      <trkpt lat="44.27317" lon="5.7781">
        <ele>591</ele>
        <time>2019-06-19T07:25:47Z</time>
      </trkpt>
      <trkpt lat="44.27312" lon="5.77805">
        <ele>591</ele>
        <time>2019-06-19T07:25:48Z</time>
      </trkpt>
      <trkpt lat="44.27308" lon="5.778">
        <ele>591</ele>
        <time>2019-06-19T07:25:49Z</time>
      </trkpt>
      <trkpt lat="44.27304" lon="5.77794">
        <ele>591</ele>
        <time>2019-06-19T07:25:50Z</time>
      </trkpt>
      <trkpt lat="44.27301" lon="5.77786">
        <ele>591</ele>
        <time>2019-06-19T07:25:51Z</time>
      </trkpt>
      <trkpt lat="44.273" lon="5.77778">
        <ele>591</ele>
        <time>2019-06-19T07:25:52Z</time>
      </trkpt>
      <trkpt lat="44.273" lon="5.7777">
        <ele>591</ele>
        <time>2019-06-19T07:25:53Z</time>
      </trkpt>
      <trkpt lat="44.27299" lon="5.77763">
        <ele>592</ele>
        <time>2019-06-19T07:25:54Z</time>
      </trkpt>
      <trkpt lat="44.27298" lon="5.77754">
        <ele>592</ele>
        <time>2019-06-19T07:25:55Z</time>
      </trkpt>
      <trkpt lat="44.27296" lon="5.77746">
        <ele>593</ele>
        <time>2019-06-19T07:25:56Z</time>
      </trkpt>
      <trkpt lat="44.27292" lon="5.7774">
        <ele>593</ele>
        <time>2019-06-19T07:25:57Z</time>
      </trkpt>
      <trkpt lat="44.27287" lon="5.77736">
        <ele>593</ele>
        <time>2019-06-19T07:25:58Z</time>
      </trkpt>
      <trkpt lat="44.27281" lon="5.77733">
        <ele>593</ele>
        <time>2019-06-19T07:25:59Z</time>
      </trkpt>
      <trkpt lat="44.27275" lon="5.77732">
        <ele>593</ele>
        <time>2019-06-19T07:26:00Z</time>
      </trkpt>
      <trkpt lat="44.27269" lon="5.77731">
        <ele>593</ele>
        <time>2019-06-19T07:26:01Z</time>
      </trkpt>
      <trkpt lat="44.27263" lon="5.77731">
        <ele>593</ele>
        <time>2019-06-19T07:26:02Z</time>
      </trkpt>
      <trkpt lat="44.27257" lon="5.77731">
        <ele>593</ele>
        <time>2019-06-19T07:26:03Z</time>
      </trkpt>
      <trkpt lat="44.27251" lon="5.77732">
        <ele>593</ele>
        <time>2019-06-19T07:26:04Z</time>
      </trkpt>
      <trkpt lat="44.27246" lon="5.77734">
        <ele>593</ele>
        <time>2019-06-19T07:26:05Z</time>
      </trkpt>
      <trkpt lat="44.2724" lon="5.77738">
        <ele>593</ele>
        <time>2019-06-19T07:26:07Z</time>
      </trkpt>
      <trkpt lat="44.27235" lon="5.77741">
        <ele>593</ele>
        <time>2019-06-19T07:26:07Z</time>
      </trkpt>
      <trkpt lat="44.27229" lon="5.77743">
        <ele>593</ele>
        <time>2019-06-19T07:26:08Z</time>
      </trkpt>
      <trkpt lat="44.27223" lon="5.77743">
        <ele>593</ele>
        <time>2019-06-19T07:26:09Z</time>
      </trkpt>
      <trkpt lat="44.27217" lon="5.7774">
        <ele>593</ele>
        <time>2019-06-19T07:26:10Z</time>
      </trkpt>
      <trkpt lat="44.27212" lon="5.77737">
        <ele>593</ele>
        <time>2019-06-19T07:26:11Z</time>
      </trkpt>
      <trkpt lat="44.27207" lon="5.77734">
        <ele>593</ele>
        <time>2019-06-19T07:26:12Z</time>
      </trkpt>
      <trkpt lat="44.27202" lon="5.7773">
        <ele>593</ele>
        <time>2019-06-19T07:26:13Z</time>
      </trkpt>
      <trkpt lat="44.27197" lon="5.77726">
        <ele>593</ele>
        <time>2019-06-19T07:26:14Z</time>
      </trkpt>
      <trkpt lat="44.27192" lon="5.77722">
        <ele>593</ele>
        <time>2019-06-19T07:26:15Z</time>
      </trkpt>
      <trkpt lat="44.27187" lon="5.77718">
        <ele>593</ele>
        <time>2019-06-19T07:26:16Z</time>
      </trkpt>
      <trkpt lat="44.27182" lon="5.77714">
        <ele>593</ele>
        <time>2019-06-19T07:26:17Z</time>
      </trkpt>
      <trkpt lat="44.27177" lon="5.77711">
        <ele>593</ele>
        <time>2019-06-19T07:26:18Z</time>
      </trkpt>
      <trkpt lat="44.27172" lon="5.77708">
        <ele>593</ele>
        <time>2019-06-19T07:26:19Z</time>
      </trkpt>
      <trkpt lat="44.27168" lon="5.77705">
        <ele>593</ele>
        <time>2019-06-19T07:26:20Z</time>
      </trkpt>
      <trkpt lat="44.27163" lon="5.77702">
        <ele>593</ele>
        <time>2019-06-19T07:26:21Z</time>
      </trkpt>
      <trkpt lat="44.27158" lon="5.77698">
        <ele>594</ele>
        <time>2019-06-19T07:26:22Z</time>
      </trkpt>
      <trkpt lat="44.27153" lon="5.77695">
        <ele>594</ele>
        <time>2019-06-19T07:26:23Z</time>
      </trkpt>
      <trkpt lat="44.27149" lon="5.77691">
        <ele>594</ele>
        <time>2019-06-19T07:26:24Z</time>
      </trkpt>
      <trkpt lat="44.27145" lon="5.77687">
        <ele>594</ele>
        <time>2019-06-19T07:26:25Z</time>
      </trkpt>
      <trkpt lat="44.2714" lon="5.77682">
        <ele>594</ele>
        <time>2019-06-19T07:26:26Z</time>
      </trkpt>
      <trkpt lat="44.27137" lon="5.77677">
        <ele>594</ele>
        <time>2019-06-19T07:26:27Z</time>
      </trkpt>
      <trkpt lat="44.27133" lon="5.77671">
        <ele>594</ele>
        <time>2019-06-19T07:26:28Z</time>
      </trkpt>
      <trkpt lat="44.27131" lon="5.77665">
        <ele>594</ele>
        <time>2019-06-19T07:26:29Z</time>
      </trkpt>
      <trkpt lat="44.27129" lon="5.77658">
        <ele>594</ele>
        <time>2019-06-19T07:26:30Z</time>
      </trkpt>
      <trkpt lat="44.27127" lon="5.77651">
        <ele>594</ele>
        <time>2019-06-19T07:26:31Z</time>
      </trkpt>
      <trkpt lat="44.27126" lon="5.77644">
        <ele>594</ele>
        <time>2019-06-19T07:26:32Z</time>
      </trkpt>
      <trkpt lat="44.27125" lon="5.77637">
        <ele>594</ele>
        <time>2019-06-19T07:26:33Z</time>
      </trkpt>
      <trkpt lat="44.27124" lon="5.77631">
        <ele>594</ele>
        <time>2019-06-19T07:26:34Z</time>
      </trkpt>
      <trkpt lat="44.27123" lon="5.77624">
        <ele>594</ele>
        <time>2019-06-19T07:26:35Z</time>
      </trkpt>
      <trkpt lat="44.27122" lon="5.77617">
        <ele>594</ele>
        <time>2019-06-19T07:26:36Z</time>
      </trkpt>
      <trkpt lat="44.27121" lon="5.77609">
        <ele>594</ele>
        <time>2019-06-19T07:26:37Z</time>
      </trkpt>
      <trkpt lat="44.2712" lon="5.77602">
        <ele>594</ele>
        <time>2019-06-19T07:26:38Z</time>
      </trkpt>
      <trkpt lat="44.27119" lon="5.77595">
        <ele>594</ele>
        <time>2019-06-19T07:26:39Z</time>
      </trkpt>
      <trkpt lat="44.27119" lon="5.77587">
        <ele>594</ele>
        <time>2019-06-19T07:26:40Z</time>
      </trkpt>
      <trkpt lat="44.27118" lon="5.77579">
        <ele>594</ele>
        <time>2019-06-19T07:26:41Z</time>
      </trkpt>
      <trkpt lat="44.27117" lon="5.77572">
        <ele>594</ele>
        <time>2019-06-19T07:26:42Z</time>
      </trkpt>
      <trkpt lat="44.27116" lon="5.77564">
        <ele>594</ele>
        <time>2019-06-19T07:26:43Z</time>
      </trkpt>
      <trkpt lat="44.27114" lon="5.77557">
        <ele>594</ele>
        <time>2019-06-19T07:26:44Z</time>
      </trkpt>
      <trkpt lat="44.27112" lon="5.7755">
        <ele>594</ele>
        <time>2019-06-19T07:26:45Z</time>
      </trkpt>
      <trkpt lat="44.27109" lon="5.77543">
        <ele>594</ele>
        <time>2019-06-19T07:26:46Z</time>
      </trkpt>
      <trkpt lat="44.27106" lon="5.77536">
        <ele>594</ele>
        <time>2019-06-19T07:26:47Z</time>
      </trkpt>
      <trkpt lat="44.27103" lon="5.7753">
        <ele>594</ele>
        <time>2019-06-19T07:26:48Z</time>
      </trkpt>
      <trkpt lat="44.271" lon="5.77524">
        <ele>594</ele>
        <time>2019-06-19T07:26:49Z</time>
      </trkpt>
      <trkpt lat="44.27097" lon="5.77519">
        <ele>594</ele>
        <time>2019-06-19T07:26:50Z</time>
      </trkpt>
      <trkpt lat="44.27094" lon="5.77513">
        <ele>594</ele>
        <time>2019-06-19T07:26:51Z</time>
      </trkpt>
      <trkpt lat="44.27091" lon="5.77507">
        <ele>595</ele>
        <time>2019-06-19T07:26:52Z</time>
      </trkpt>
      <trkpt lat="44.27088" lon="5.77501">
        <ele>595</ele>
        <time>2019-06-19T07:26:53Z</time>
      </trkpt>
      <trkpt lat="44.27084" lon="5.77496">
        <ele>595</ele>
        <time>2019-06-19T07:26:54Z</time>
      </trkpt>
      <trkpt lat="44.2708" lon="5.77491">
        <ele>596</ele>
        <time>2019-06-19T07:26:55Z</time>
      </trkpt>
      <trkpt lat="44.27075" lon="5.77487">
        <ele>596</ele>
        <time>2019-06-19T07:26:56Z</time>
      </trkpt>
      <trkpt lat="44.2707" lon="5.77484">
        <ele>597</ele>
        <time>2019-06-19T07:26:57Z</time>
      </trkpt>
      <trkpt lat="44.27065" lon="5.77482">
        <ele>597</ele>
        <time>2019-06-19T07:26:58Z</time>
      </trkpt>
      <trkpt lat="44.27059" lon="5.7748">
        <ele>597</ele>
        <time>2019-06-19T07:26:59Z</time>
      </trkpt>
      <trkpt lat="44.27053" lon="5.77479">
        <ele>598</ele>
        <time>2019-06-19T07:27:00Z</time>
      </trkpt>
      <trkpt lat="44.27048" lon="5.77477">
        <ele>598</ele>
        <time>2019-06-19T07:27:01Z</time>
      </trkpt>
      <trkpt lat="44.27043" lon="5.77472">
        <ele>598</ele>
        <time>2019-06-19T07:27:02Z</time>
      </trkpt>
      <trkpt lat="44.27039" lon="5.7747">
        <ele>598</ele>
        <time>2019-06-19T07:27:03Z</time>
      </trkpt>
      <trkpt lat="44.27036" lon="5.77463">
        <ele>598</ele>
        <time>2019-06-19T07:27:04Z</time>
      </trkpt>
      <trkpt lat="44.27033" lon="5.77455">
        <ele>598</ele>
        <time>2019-06-19T07:27:05Z</time>
      </trkpt>
      <trkpt lat="44.27029" lon="5.7745">
        <ele>598</ele>
        <time>2019-06-19T07:27:07Z</time>
      </trkpt>
      <trkpt lat="44.27024" lon="5.77443">
        <ele>598</ele>
        <time>2019-06-19T07:27:07Z</time>
      </trkpt>
      <trkpt lat="44.27018" lon="5.77439">
        <ele>598</ele>
        <time>2019-06-19T07:27:08Z</time>
      </trkpt>
      <trkpt lat="44.27012" lon="5.77433">
        <ele>598</ele>
        <time>2019-06-19T07:27:09Z</time>
      </trkpt>
      <trkpt lat="44.27006" lon="5.77428">
        <ele>598</ele>
        <time>2019-06-19T07:27:10Z</time>
      </trkpt>
      <trkpt lat="44.27" lon="5.77425">
        <ele>598</ele>
        <time>2019-06-19T07:27:11Z</time>
      </trkpt>
      <trkpt lat="44.26994" lon="5.77424">
        <ele>598</ele>
        <time>2019-06-19T07:27:12Z</time>
      </trkpt>
      <trkpt lat="44.26988" lon="5.77424">
        <ele>598</ele>
        <time>2019-06-19T07:27:13Z</time>
      </trkpt>
      <trkpt lat="44.26982" lon="5.77426">
        <ele>598</ele>
        <time>2019-06-19T07:27:14Z</time>
      </trkpt>
      <trkpt lat="44.26976" lon="5.77428">
        <ele>598</ele>
        <time>2019-06-19T07:27:15Z</time>
      </trkpt>
      <trkpt lat="44.2697" lon="5.77432">
        <ele>598</ele>
        <time>2019-06-19T07:27:16Z</time>
      </trkpt>
      <trkpt lat="44.26965" lon="5.77435">
        <ele>598</ele>
        <time>2019-06-19T07:27:17Z</time>
      </trkpt>
      <trkpt lat="44.26958" lon="5.77438">
        <ele>598</ele>
        <time>2019-06-19T07:27:18Z</time>
      </trkpt>
      <trkpt lat="44.26952" lon="5.77441">
        <ele>598</ele>
        <time>2019-06-19T07:27:19Z</time>
      </trkpt>
      <trkpt lat="44.26947" lon="5.77444">
        <ele>598</ele>
        <time>2019-06-19T07:27:20Z</time>
      </trkpt>
      <trkpt lat="44.26941" lon="5.77448">
        <ele>598</ele>
        <time>2019-06-19T07:27:21Z</time>
      </trkpt>
      <trkpt lat="44.26935" lon="5.77451">
        <ele>598</ele>
        <time>2019-06-19T07:27:22Z</time>
      </trkpt>
      <trkpt lat="44.26929" lon="5.77454">
        <ele>598</ele>
        <time>2019-06-19T07:27:23Z</time>
      </trkpt>
      <trkpt lat="44.26924" lon="5.7746">
        <ele>598</ele>
        <time>2019-06-19T07:27:24Z</time>
      </trkpt>
      <trkpt lat="44.26918" lon="5.77465">
        <ele>598</ele>
        <time>2019-06-19T07:27:25Z</time>
      </trkpt>
      <trkpt lat="44.26913" lon="5.77471">
        <ele>598</ele>
        <time>2019-06-19T07:27:26Z</time>
      </trkpt>
      <trkpt lat="44.26908" lon="5.77479">
        <ele>599</ele>
        <time>2019-06-19T07:27:27Z</time>
      </trkpt>
      <trkpt lat="44.26902" lon="5.77485">
        <ele>600</ele>
        <time>2019-06-19T07:27:28Z</time>
      </trkpt>
      <trkpt lat="44.26897" lon="5.7749">
        <ele>601</ele>
        <time>2019-06-19T07:27:29Z</time>
      </trkpt>
      <trkpt lat="44.26892" lon="5.77496">
        <ele>602</ele>
        <time>2019-06-19T07:27:30Z</time>
      </trkpt>
      <trkpt lat="44.26887" lon="5.775">
        <ele>603</ele>
        <time>2019-06-19T07:27:31Z</time>
      </trkpt>
      <trkpt lat="44.26881" lon="5.77505">
        <ele>604</ele>
        <time>2019-06-19T07:27:32Z</time>
      </trkpt>
      <trkpt lat="44.26876" lon="5.7751">
        <ele>605</ele>
        <time>2019-06-19T07:27:33Z</time>
      </trkpt>
      <trkpt lat="44.26871" lon="5.77516">
        <ele>605</ele>
        <time>2019-06-19T07:27:34Z</time>
      </trkpt>
      <trkpt lat="44.26866" lon="5.7752">
        <ele>606</ele>
        <time>2019-06-19T07:27:35Z</time>
      </trkpt>
      <trkpt lat="44.2686" lon="5.77524">
        <ele>606</ele>
        <time>2019-06-19T07:27:36Z</time>
      </trkpt>
      <trkpt lat="44.26854" lon="5.77527">
        <ele>606</ele>
        <time>2019-06-19T07:27:37Z</time>
      </trkpt>
      <trkpt lat="44.26849" lon="5.77531">
        <ele>606</ele>
        <time>2019-06-19T07:27:38Z</time>
      </trkpt>
      <trkpt lat="44.26843" lon="5.77535">
        <ele>606</ele>
        <time>2019-06-19T07:27:39Z</time>
      </trkpt>
      <trkpt lat="44.26838" lon="5.7754">
        <ele>606</ele>
        <time>2019-06-19T07:27:40Z</time>
      </trkpt>
      <trkpt lat="44.26832" lon="5.77543">
        <ele>606</ele>
        <time>2019-06-19T07:27:41Z</time>
      </trkpt>
      <trkpt lat="44.26825" lon="5.77545">
        <ele>606</ele>
        <time>2019-06-19T07:27:42Z</time>
      </trkpt>
      <trkpt lat="44.26813" lon="5.77553">
        <ele>606</ele>
        <time>2019-06-19T07:27:44Z</time>
      </trkpt>
      <trkpt lat="44.26806" lon="5.77559">
        <ele>606</ele>
        <time>2019-06-19T07:27:45Z</time>
      </trkpt>
      <trkpt lat="44.26799" lon="5.77565">
        <ele>606</ele>
        <time>2019-06-19T07:27:46Z</time>
      </trkpt>
      <trkpt lat="44.26748" lon="5.77523">
        <ele>605</ele>
        <time>2019-06-19T07:27:55Z</time>
      </trkpt>
      <trkpt lat="44.26744" lon="5.77515">
        <ele>604</ele>
        <time>2019-06-19T07:27:56Z</time>
      </trkpt>
      <trkpt lat="44.26713" lon="5.77453">
        <ele>603</ele>
        <time>2019-06-19T07:28:04Z</time>
      </trkpt>
      <trkpt lat="44.2671" lon="5.77445">
        <ele>602</ele>
        <time>2019-06-19T07:28:05Z</time>
      </trkpt>
      <trkpt lat="44.26707" lon="5.77437">
        <ele>601</ele>
        <time>2019-06-19T07:28:07Z</time>
      </trkpt>
      <trkpt lat="44.26703" lon="5.77432">
        <ele>600</ele>
        <time>2019-06-19T07:28:07Z</time>
      </trkpt>
      <trkpt lat="44.26699" lon="5.77423">
        <ele>599</ele>
        <time>2019-06-19T07:28:08Z</time>
      </trkpt>
      <trkpt lat="44.26695" lon="5.77414">
        <ele>598</ele>
        <time>2019-06-19T07:28:09Z</time>
      </trkpt>
      <trkpt lat="44.26691" lon="5.77405">
        <ele>597</ele>
        <time>2019-06-19T07:28:10Z</time>
      </trkpt>
      <trkpt lat="44.26686" lon="5.77397">
        <ele>596</ele>
        <time>2019-06-19T07:28:11Z</time>
      </trkpt>
      <trkpt lat="44.26676" lon="5.7738">
        <ele>596</ele>
        <time>2019-06-19T07:28:13Z</time>
      </trkpt>
      <trkpt lat="44.26672" lon="5.7737">
        <ele>596</ele>
        <time>2019-06-19T07:28:14Z</time>
      </trkpt>
      <trkpt lat="44.2667" lon="5.77359">
        <ele>597</ele>
        <time>2019-06-19T07:28:15Z</time>
      </trkpt>
      <trkpt lat="44.26667" lon="5.7735">
        <ele>598</ele>
        <time>2019-06-19T07:28:16Z</time>
      </trkpt>
      <trkpt lat="44.26665" lon="5.77341">
        <ele>599</ele>
        <time>2019-06-19T07:28:17Z</time>
      </trkpt>
      <trkpt lat="44.26661" lon="5.77332">
        <ele>600</ele>
        <time>2019-06-19T07:28:18Z</time>
      </trkpt>
      <trkpt lat="44.26657" lon="5.77323">
        <ele>601</ele>
        <time>2019-06-19T07:28:19Z</time>
      </trkpt>
      <trkpt lat="44.26652" lon="5.77316">
        <ele>603</ele>
        <time>2019-06-19T07:28:20Z</time>
      </trkpt>
      <trkpt lat="44.26647" lon="5.77311">
        <ele>604</ele>
        <time>2019-06-19T07:28:21Z</time>
      </trkpt>
      <trkpt lat="44.26641" lon="5.77306">
        <ele>605</ele>
        <time>2019-06-19T07:28:22Z</time>
      </trkpt>
      <trkpt lat="44.26637" lon="5.77303">
        <ele>606</ele>
        <time>2019-06-19T07:28:23Z</time>
      </trkpt>
      <trkpt lat="44.26633" lon="5.77301">
        <ele>607</ele>
        <time>2019-06-19T07:28:24Z</time>
      </trkpt>
      <trkpt lat="44.26628" lon="5.77296">
        <ele>608</ele>
        <time>2019-06-19T07:28:25Z</time>
      </trkpt>
      <trkpt lat="44.26622" lon="5.77289">
        <ele>609</ele>
        <time>2019-06-19T07:28:26Z</time>
      </trkpt>
      <trkpt lat="44.26617" lon="5.77284">
        <ele>610</ele>
        <time>2019-06-19T07:28:27Z</time>
      </trkpt>
      <trkpt lat="44.26611" lon="5.77278">
        <ele>611</ele>
        <time>2019-06-19T07:28:28Z</time>
      </trkpt>
      <trkpt lat="44.26607" lon="5.77272">
        <ele>612</ele>
        <time>2019-06-19T07:28:29Z</time>
      </trkpt>
      <trkpt lat="44.26602" lon="5.77266">
        <ele>613</ele>
        <time>2019-06-19T07:28:30Z</time>
      </trkpt>
      <trkpt lat="44.26598" lon="5.77259">
        <ele>614</ele>
        <time>2019-06-19T07:28:31Z</time>
      </trkpt>
      <trkpt lat="44.26596" lon="5.7725">
        <ele>615</ele>
        <time>2019-06-19T07:28:32Z</time>
      </trkpt>
      <trkpt lat="44.26595" lon="5.7724">
        <ele>616</ele>
        <time>2019-06-19T07:28:33Z</time>
      </trkpt>
      <trkpt lat="44.26596" lon="5.7723">
        <ele>617</ele>
        <time>2019-06-19T07:28:34Z</time>
      </trkpt>
      <trkpt lat="44.26599" lon="5.7722">
        <ele>617</ele>
        <time>2019-06-19T07:28:35Z</time>
      </trkpt>
      <trkpt lat="44.26603" lon="5.77212">
        <ele>617</ele>
        <time>2019-06-19T07:28:36Z</time>
      </trkpt>
      <trkpt lat="44.2661" lon="5.77206">
        <ele>617</ele>
        <time>2019-06-19T07:28:37Z</time>
      </trkpt>
      <trkpt lat="44.26616" lon="5.77201">
        <ele>617</ele>
        <time>2019-06-19T07:28:38Z</time>
      </trkpt>
      <trkpt lat="44.26622" lon="5.77195">
        <ele>617</ele>
        <time>2019-06-19T07:28:39Z</time>
      </trkpt>
      <trkpt lat="44.26627" lon="5.7719">
        <ele>617</ele>
        <time>2019-06-19T07:28:40Z</time>
      </trkpt>
      <trkpt lat="44.26633" lon="5.77184">
        <ele>616</ele>
        <time>2019-06-19T07:28:41Z</time>
      </trkpt>
      <trkpt lat="44.26637" lon="5.77179">
        <ele>616</ele>
        <time>2019-06-19T07:28:42Z</time>
      </trkpt>
      <trkpt lat="44.26643" lon="5.77173">
        <ele>615</ele>
        <time>2019-06-19T07:28:43Z</time>
      </trkpt>
      <trkpt lat="44.26648" lon="5.77168">
        <ele>614</ele>
        <time>2019-06-19T07:28:44Z</time>
      </trkpt>
      <trkpt lat="44.26654" lon="5.77162">
        <ele>614</ele>
        <time>2019-06-19T07:28:45Z</time>
      </trkpt>
      <trkpt lat="44.26659" lon="5.77156">
        <ele>614</ele>
        <time>2019-06-19T07:28:46Z</time>
      </trkpt>
      <trkpt lat="44.26664" lon="5.77149">
        <ele>613</ele>
        <time>2019-06-19T07:28:47Z</time>
      </trkpt>
      <trkpt lat="44.26669" lon="5.77143">
        <ele>613</ele>
        <time>2019-06-19T07:28:48Z</time>
      </trkpt>
      <trkpt lat="44.26674" lon="5.77136">
        <ele>613</ele>
        <time>2019-06-19T07:28:49Z</time>
      </trkpt>
      <trkpt lat="44.26678" lon="5.7713">
        <ele>613</ele>
        <time>2019-06-19T07:28:50Z</time>
      </trkpt>
      <trkpt lat="44.26683" lon="5.77123">
        <ele>612</ele>
        <time>2019-06-19T07:28:51Z</time>
      </trkpt>
      <trkpt lat="44.26688" lon="5.77116">
        <ele>612</ele>
        <time>2019-06-19T07:28:52Z</time>
      </trkpt>
      <trkpt lat="44.26693" lon="5.77109">
        <ele>611</ele>
        <time>2019-06-19T07:28:53Z</time>
      </trkpt>
      <trkpt lat="44.26697" lon="5.77102">
        <ele>611</ele>
        <time>2019-06-19T07:28:54Z</time>
      </trkpt>
      <trkpt lat="44.26701" lon="5.77095">
        <ele>610</ele>
        <time>2019-06-19T07:28:55Z</time>
      </trkpt>
      <trkpt lat="44.26706" lon="5.77087">
        <ele>610</ele>
        <time>2019-06-19T07:28:56Z</time>
      </trkpt>
      <trkpt lat="44.26709" lon="5.7708">
        <ele>609</ele>
        <time>2019-06-19T07:28:57Z</time>
      </trkpt>
      <trkpt lat="44.26712" lon="5.77072">
        <ele>609</ele>
        <time>2019-06-19T07:28:58Z</time>
      </trkpt>
      <trkpt lat="44.26714" lon="5.77064">
        <ele>608</ele>
        <time>2019-06-19T07:28:59Z</time>
      </trkpt>
      <trkpt lat="44.26715" lon="5.77055">
        <ele>607</ele>
        <time>2019-06-19T07:29:00Z</time>
      </trkpt>
      <trkpt lat="44.26716" lon="5.77046">
        <ele>607</ele>
        <time>2019-06-19T07:29:01Z</time>
      </trkpt>
      <trkpt lat="44.26716" lon="5.77037">
        <ele>607</ele>
        <time>2019-06-19T07:29:02Z</time>
      </trkpt>
      <trkpt lat="44.26716" lon="5.77028">
        <ele>607</ele>
        <time>2019-06-19T07:29:03Z</time>
      </trkpt>
      <trkpt lat="44.26716" lon="5.7702">
        <ele>607</ele>
        <time>2019-06-19T07:29:04Z</time>
      </trkpt>
      <trkpt lat="44.26716" lon="5.77012">
        <ele>607</ele>
        <time>2019-06-19T07:29:05Z</time>
      </trkpt>
      <trkpt lat="44.26716" lon="5.77003">
        <ele>606</ele>
        <time>2019-06-19T07:29:07Z</time>
      </trkpt>
      <trkpt lat="44.26714" lon="5.76994">
        <ele>605</ele>
        <time>2019-06-19T07:29:07Z</time>
      </trkpt>
      <trkpt lat="44.26713" lon="5.76985">
        <ele>605</ele>
        <time>2019-06-19T07:29:08Z</time>
      </trkpt>
      <trkpt lat="44.2671" lon="5.76977">
        <ele>604</ele>
        <time>2019-06-19T07:29:09Z</time>
      </trkpt>
      <trkpt lat="44.26707" lon="5.76969">
        <ele>603</ele>
        <time>2019-06-19T07:29:10Z</time>
      </trkpt>
      <trkpt lat="44.26705" lon="5.76961">
        <ele>603</ele>
        <time>2019-06-19T07:29:11Z</time>
      </trkpt>
      <trkpt lat="44.26702" lon="5.76953">
        <ele>602</ele>
        <time>2019-06-19T07:29:12Z</time>
      </trkpt>
      <trkpt lat="44.26698" lon="5.76945">
        <ele>602</ele>
        <time>2019-06-19T07:29:13Z</time>
      </trkpt>
      <trkpt lat="44.26693" lon="5.7694">
        <ele>601</ele>
        <time>2019-06-19T07:29:14Z</time>
      </trkpt>
      <trkpt lat="44.26686" lon="5.76937">
        <ele>601</ele>
        <time>2019-06-19T07:29:15Z</time>
      </trkpt>
      <trkpt lat="44.2668" lon="5.76934">
        <ele>601</ele>
        <time>2019-06-19T07:29:16Z</time>
      </trkpt>
      <trkpt lat="44.26674" lon="5.7693">
        <ele>601</ele>
        <time>2019-06-19T07:29:17Z</time>
      </trkpt>
      <trkpt lat="44.26667" lon="5.76927">
        <ele>601</ele>
        <time>2019-06-19T07:29:18Z</time>
      </trkpt>
      <trkpt lat="44.26661" lon="5.76924">
        <ele>601</ele>
        <time>2019-06-19T07:29:19Z</time>
      </trkpt>
      <trkpt lat="44.26654" lon="5.76922">
        <ele>601</ele>
        <time>2019-06-19T07:29:20Z</time>
      </trkpt>
      <trkpt lat="44.26648" lon="5.7692">
        <ele>601</ele>
        <time>2019-06-19T07:29:21Z</time>
      </trkpt>
      <trkpt lat="44.26642" lon="5.7692">
        <ele>601</ele>
        <time>2019-06-19T07:29:22Z</time>
      </trkpt>
      <trkpt lat="44.26636" lon="5.76923">
        <ele>601</ele>
        <time>2019-06-19T07:29:23Z</time>
      </trkpt>
      <trkpt lat="44.2663" lon="5.76923">
        <ele>601</ele>
        <time>2019-06-19T07:29:24Z</time>
      </trkpt>
      <trkpt lat="44.26624" lon="5.76922">
        <ele>601</ele>
        <time>2019-06-19T07:29:25Z</time>
      </trkpt>
      <trkpt lat="44.26618" lon="5.76923">
        <ele>601</ele>
        <time>2019-06-19T07:29:26Z</time>
      </trkpt>
      <trkpt lat="44.26611" lon="5.76923">
        <ele>602</ele>
        <time>2019-06-19T07:29:27Z</time>
      </trkpt>
      <trkpt lat="44.26605" lon="5.76926">
        <ele>603</ele>
        <time>2019-06-19T07:29:28Z</time>
      </trkpt>
      <trkpt lat="44.26598" lon="5.76927">
        <ele>604</ele>
        <time>2019-06-19T07:29:29Z</time>
      </trkpt>
      <trkpt lat="44.26592" lon="5.7693">
        <ele>605</ele>
        <time>2019-06-19T07:29:30Z</time>
      </trkpt>
      <trkpt lat="44.26586" lon="5.76932">
        <ele>606</ele>
        <time>2019-06-19T07:29:31Z</time>
      </trkpt>
      <trkpt lat="44.26581" lon="5.76931">
        <ele>607</ele>
        <time>2019-06-19T07:29:32Z</time>
      </trkpt>
      <trkpt lat="44.26575" lon="5.76929">
        <ele>608</ele>
        <time>2019-06-19T07:29:33Z</time>
      </trkpt>
      <trkpt lat="44.26569" lon="5.76927">
        <ele>609</ele>
        <time>2019-06-19T07:29:34Z</time>
      </trkpt>
      <trkpt lat="44.26564" lon="5.76925">
        <ele>610</ele>
        <time>2019-06-19T07:29:35Z</time>
      </trkpt>
      <trkpt lat="44.26558" lon="5.76924">
        <ele>611</ele>
        <time>2019-06-19T07:29:36Z</time>
      </trkpt>
      <trkpt lat="44.26552" lon="5.76922">
        <ele>612</ele>
        <time>2019-06-19T07:29:37Z</time>
      </trkpt>
      <trkpt lat="44.26547" lon="5.76921">
        <ele>613</ele>
        <time>2019-06-19T07:29:38Z</time>
      </trkpt>
      <trkpt lat="44.26541" lon="5.76919">
        <ele>614</ele>
        <time>2019-06-19T07:29:39Z</time>
      </trkpt>
      <trkpt lat="44.26536" lon="5.76917">
        <ele>615</ele>
        <time>2019-06-19T07:29:40Z</time>
      </trkpt>
      <trkpt lat="44.2653" lon="5.76916">
        <ele>616</ele>
        <time>2019-06-19T07:29:41Z</time>
      </trkpt>
      <trkpt lat="44.26524" lon="5.76915">
        <ele>617</ele>
        <time>2019-06-19T07:29:42Z</time>
      </trkpt>
      <trkpt lat="44.26519" lon="5.76914">
        <ele>618</ele>
        <time>2019-06-19T07:29:43Z</time>
      </trkpt>
      <trkpt lat="44.26514" lon="5.76913">
        <ele>618</ele>
        <time>2019-06-19T07:29:44Z</time>
      </trkpt>
      <trkpt lat="44.26508" lon="5.76911">
        <ele>619</ele>
        <time>2019-06-19T07:29:45Z</time>
      </trkpt>
      <trkpt lat="44.26503" lon="5.7691">
        <ele>619</ele>
        <time>2019-06-19T07:29:46Z</time>
      </trkpt>
      <trkpt lat="44.26498" lon="5.76908">
        <ele>619</ele>
        <time>2019-06-19T07:29:47Z</time>
      </trkpt>
      <trkpt lat="44.26471" lon="5.76931">
        <ele>621</ele>
        <time>2019-06-19T07:29:55Z</time>
      </trkpt>
      <trkpt lat="44.26471" lon="5.76933">
        <ele>624</ele>
        <time>2019-06-19T07:29:56Z</time>
      </trkpt>
      <trkpt lat="44.2647" lon="5.76926">
        <ele>628</ele>
        <time>2019-06-19T07:29:57Z</time>
      </trkpt>
      <trkpt lat="44.26471" lon="5.76913">
        <ele>632</ele>
        <time>2019-06-19T07:29:58Z</time>
      </trkpt>
      <trkpt lat="44.26472" lon="5.769">
        <ele>636</ele>
        <time>2019-06-19T07:29:59Z</time>
      </trkpt>
      <trkpt lat="44.26475" lon="5.7689">
        <ele>639</ele>
        <time>2019-06-19T07:30:00Z</time>
      </trkpt>
      <trkpt lat="44.26479" lon="5.76882">
        <ele>641</ele>
        <time>2019-06-19T07:30:01Z</time>
      </trkpt>
      <trkpt lat="44.26483" lon="5.76876">
        <ele>642</ele>
        <time>2019-06-19T07:30:02Z</time>
      </trkpt>
      <trkpt lat="44.26487" lon="5.76872">
        <ele>641</ele>
        <time>2019-06-19T07:30:03Z</time>
      </trkpt>
      <trkpt lat="44.26492" lon="5.76868">
        <ele>640</ele>
        <time>2019-06-19T07:30:04Z</time>
      </trkpt>
      <trkpt lat="44.26497" lon="5.76865">
        <ele>638</ele>
        <time>2019-06-19T07:30:05Z</time>
      </trkpt>
      <trkpt lat="44.26502" lon="5.76862">
        <ele>636</ele>
        <time>2019-06-19T07:30:06Z</time>
      </trkpt>
      <trkpt lat="44.26507" lon="5.76859">
        <ele>633</ele>
        <time>2019-06-19T07:30:07Z</time>
      </trkpt>
      <trkpt lat="44.26511" lon="5.76856">
        <ele>630</ele>
        <time>2019-06-19T07:30:08Z</time>
      </trkpt>
      <trkpt lat="44.26516" lon="5.76852">
        <ele>627</ele>
        <time>2019-06-19T07:30:09Z</time>
      </trkpt>
      <trkpt lat="44.26521" lon="5.76848">
        <ele>624</ele>
        <time>2019-06-19T07:30:10Z</time>
      </trkpt>
      <trkpt lat="44.26527" lon="5.76842">
        <ele>621</ele>
        <time>2019-06-19T07:30:11Z</time>
      </trkpt>
      <trkpt lat="44.26533" lon="5.76837">
        <ele>619</ele>
        <time>2019-06-19T07:30:12Z</time>
      </trkpt>
      <trkpt lat="44.26537" lon="5.76832">
        <ele>617</ele>
        <time>2019-06-19T07:30:13Z</time>
      </trkpt>
      <trkpt lat="44.26542" lon="5.76827">
        <ele>615</ele>
        <time>2019-06-19T07:30:14Z</time>
      </trkpt>
      <trkpt lat="44.26545" lon="5.76821">
        <ele>613</ele>
        <time>2019-06-19T07:30:15Z</time>
      </trkpt>
      <trkpt lat="44.26547" lon="5.76815">
        <ele>611</ele>
        <time>2019-06-19T07:30:16Z</time>
      </trkpt>
      <trkpt lat="44.26549" lon="5.76808">
        <ele>609</ele>
        <time>2019-06-19T07:30:17Z</time>
      </trkpt>
      <trkpt lat="44.26552" lon="5.76802">
        <ele>607</ele>
        <time>2019-06-19T07:30:18Z</time>
      </trkpt>
      <trkpt lat="44.26554" lon="5.76795">
        <ele>606</ele>
        <time>2019-06-19T07:30:19Z</time>
      </trkpt>
      <trkpt lat="44.26556" lon="5.76789">
        <ele>605</ele>
        <time>2019-06-19T07:30:20Z</time>
      </trkpt>
      <trkpt lat="44.2656" lon="5.76784">
        <ele>604</ele>
        <time>2019-06-19T07:30:21Z</time>
      </trkpt>
      <trkpt lat="44.26564" lon="5.76777">
        <ele>603</ele>
        <time>2019-06-19T07:30:22Z</time>
      </trkpt>
      <trkpt lat="44.26566" lon="5.76769">
        <ele>602</ele>
        <time>2019-06-19T07:30:23Z</time>
      </trkpt>
      <trkpt lat="44.26568" lon="5.76763">
        <ele>602</ele>
        <time>2019-06-19T07:30:24Z</time>
      </trkpt>
      <trkpt lat="44.26569" lon="5.76756">
        <ele>602</ele>
        <time>2019-06-19T07:30:25Z</time>
      </trkpt>
      <trkpt lat="44.26573" lon="5.76751">
        <ele>602</ele>
        <time>2019-06-19T07:30:26Z</time>
      </trkpt>
      <trkpt lat="44.26576" lon="5.76745">
        <ele>602</ele>
        <time>2019-06-19T07:30:27Z</time>
      </trkpt>
      <trkpt lat="44.26579" lon="5.7674">
        <ele>602</ele>
        <time>2019-06-19T07:30:28Z</time>
      </trkpt>
      <trkpt lat="44.26581" lon="5.76734">
        <ele>602</ele>
        <time>2019-06-19T07:30:29Z</time>
      </trkpt>
      <trkpt lat="44.26584" lon="5.76729">
        <ele>603</ele>
        <time>2019-06-19T07:30:30Z</time>
      </trkpt>
      <trkpt lat="44.26587" lon="5.76725">
        <ele>603</ele>
        <time>2019-06-19T07:30:31Z</time>
      </trkpt>
      <trkpt lat="44.2659" lon="5.7672">
        <ele>603</ele>
        <time>2019-06-19T07:30:32Z</time>
      </trkpt>
      <trkpt lat="44.26594" lon="5.76716">
        <ele>603</ele>
        <time>2019-06-19T07:30:33Z</time>
      </trkpt>
      <trkpt lat="44.26598" lon="5.76712">
        <ele>603</ele>
        <time>2019-06-19T07:30:34Z</time>
      </trkpt>
      <trkpt lat="44.26603" lon="5.76708">
        <ele>603</ele>
        <time>2019-06-19T07:30:35Z</time>
      </trkpt>
      <trkpt lat="44.26607" lon="5.76705">
        <ele>603</ele>
        <time>2019-06-19T07:30:36Z</time>
      </trkpt>
      <trkpt lat="44.26611" lon="5.76703">
        <ele>603</ele>
        <time>2019-06-19T07:30:37Z</time>
      </trkpt>
      <trkpt lat="44.26615" lon="5.767">
        <ele>603</ele>
        <time>2019-06-19T07:30:38Z</time>
      </trkpt>
      <trkpt lat="44.26618" lon="5.76696">
        <ele>603</ele>
        <time>2019-06-19T07:30:39Z</time>
      </trkpt>
      <trkpt lat="44.26622" lon="5.76691">
        <ele>603</ele>
        <time>2019-06-19T07:30:40Z</time>
      </trkpt>
      <trkpt lat="44.26625" lon="5.76686">
        <ele>603</ele>
        <time>2019-06-19T07:30:41Z</time>
      </trkpt>
      <trkpt lat="44.26627" lon="5.76681">
        <ele>603</ele>
        <time>2019-06-19T07:30:42Z</time>
      </trkpt>
      <trkpt lat="44.26628" lon="5.76675">
        <ele>603</ele>
        <time>2019-06-19T07:30:43Z</time>
      </trkpt>
      <trkpt lat="44.26629" lon="5.76668">
        <ele>603</ele>
        <time>2019-06-19T07:30:44Z</time>
      </trkpt>
      <trkpt lat="44.26638" lon="5.76624">
        <ele>603</ele>
        <time>2019-06-19T07:30:51Z</time>
      </trkpt>
      <trkpt lat="44.26638" lon="5.76617">
        <ele>604</ele>
        <time>2019-06-19T07:30:52Z</time>
      </trkpt>
      <trkpt lat="44.26637" lon="5.76609">
        <ele>605</ele>
        <time>2019-06-19T07:30:53Z</time>
      </trkpt>
      <trkpt lat="44.26636" lon="5.76601">
        <ele>606</ele>
        <time>2019-06-19T07:30:54Z</time>
      </trkpt>
      <trkpt lat="44.26635" lon="5.76594">
        <ele>607</ele>
        <time>2019-06-19T07:30:55Z</time>
      </trkpt>
      <trkpt lat="44.26634" lon="5.76588">
        <ele>608</ele>
        <time>2019-06-19T07:30:56Z</time>
      </trkpt>
      <trkpt lat="44.26631" lon="5.76582">
        <ele>609</ele>
        <time>2019-06-19T07:30:57Z</time>
      </trkpt>
      <trkpt lat="44.26627" lon="5.76576">
        <ele>610</ele>
        <time>2019-06-19T07:30:58Z</time>
      </trkpt>
      <trkpt lat="44.26624" lon="5.7657">
        <ele>611</ele>
        <time>2019-06-19T07:30:59Z</time>
      </trkpt>
      <trkpt lat="44.26621" lon="5.76564">
        <ele>612</ele>
        <time>2019-06-19T07:31:00Z</time>
      </trkpt>
      <trkpt lat="44.26617" lon="5.76551">
        <ele>613</ele>
        <time>2019-06-19T07:31:02Z</time>
      </trkpt>
      <trkpt lat="44.26615" lon="5.76545">
        <ele>614</ele>
        <time>2019-06-19T07:31:03Z</time>
      </trkpt>
      <trkpt lat="44.26613" lon="5.76538">
        <ele>615</ele>
        <time>2019-06-19T07:31:04Z</time>
      </trkpt>
      <trkpt lat="44.26611" lon="5.76532">
        <ele>615</ele>
        <time>2019-06-19T07:31:05Z</time>
      </trkpt>
      <trkpt lat="44.26608" lon="5.76526">
        <ele>615</ele>
        <time>2019-06-19T07:31:07Z</time>
      </trkpt>
      <trkpt lat="44.26605" lon="5.7652">
        <ele>615</ele>
        <time>2019-06-19T07:31:07Z</time>
      </trkpt>
      <trkpt lat="44.26601" lon="5.76515">
        <ele>615</ele>
        <time>2019-06-19T07:31:08Z</time>
      </trkpt>
      <trkpt lat="44.26597" lon="5.7651">
        <ele>615</ele>
        <time>2019-06-19T07:31:09Z</time>
      </trkpt>
      <trkpt lat="44.26593" lon="5.76506">
        <ele>615</ele>
        <time>2019-06-19T07:31:10Z</time>
      </trkpt>
      <trkpt lat="44.26589" lon="5.76501">
        <ele>615</ele>
        <time>2019-06-19T07:31:11Z</time>
      </trkpt>
      <trkpt lat="44.26585" lon="5.76497">
        <ele>616</ele>
        <time>2019-06-19T07:31:12Z</time>
      </trkpt>
      <trkpt lat="44.26581" lon="5.76493">
        <ele>616</ele>
        <time>2019-06-19T07:31:13Z</time>
      </trkpt>
      <trkpt lat="44.26576" lon="5.7649">
        <ele>617</ele>
        <time>2019-06-19T07:31:14Z</time>
      </trkpt>
      <trkpt lat="44.26571" lon="5.76487">
        <ele>617</ele>
        <time>2019-06-19T07:31:15Z</time>
      </trkpt>
      <trkpt lat="44.26567" lon="5.76484">
        <ele>617</ele>
        <time>2019-06-19T07:31:16Z</time>
      </trkpt>
      <trkpt lat="44.26562" lon="5.76481">
        <ele>618</ele>
        <time>2019-06-19T07:31:17Z</time>
      </trkpt>
      <trkpt lat="44.26558" lon="5.76478">
        <ele>618</ele>
        <time>2019-06-19T07:31:18Z</time>
      </trkpt>
      <trkpt lat="44.26553" lon="5.76475">
        <ele>619</ele>
        <time>2019-06-19T07:31:19Z</time>
      </trkpt>
      <trkpt lat="44.2655" lon="5.76471">
        <ele>619</ele>
        <time>2019-06-19T07:31:20Z</time>
      </trkpt>
      <trkpt lat="44.26546" lon="5.76467">
        <ele>619</ele>
        <time>2019-06-19T07:31:21Z</time>
      </trkpt>
      <trkpt lat="44.26545" lon="5.7646">
        <ele>619</ele>
        <time>2019-06-19T07:31:22Z</time>
      </trkpt>
      <trkpt lat="44.26545" lon="5.76454">
        <ele>620</ele>
        <time>2019-06-19T07:31:23Z</time>
      </trkpt>
      <trkpt lat="44.26546" lon="5.76447">
        <ele>620</ele>
        <time>2019-06-19T07:31:24Z</time>
      </trkpt>
      <trkpt lat="44.26548" lon="5.76441">
        <ele>620</ele>
        <time>2019-06-19T07:31:25Z</time>
      </trkpt>
      <trkpt lat="44.2655" lon="5.76434">
        <ele>621</ele>
        <time>2019-06-19T07:31:26Z</time>
      </trkpt>
      <trkpt lat="44.26552" lon="5.76428">
        <ele>621</ele>
        <time>2019-06-19T07:31:27Z</time>
      </trkpt>
      <trkpt lat="44.26554" lon="5.76421">
        <ele>621</ele>
        <time>2019-06-19T07:31:28Z</time>
      </trkpt>
      <trkpt lat="44.26557" lon="5.76414">
        <ele>621</ele>
        <time>2019-06-19T07:31:29Z</time>
      </trkpt>
      <trkpt lat="44.26561" lon="5.76407">
        <ele>621</ele>
        <time>2019-06-19T07:31:30Z</time>
      </trkpt>
      <trkpt lat="44.26564" lon="5.764">
        <ele>621</ele>
        <time>2019-06-19T07:31:31Z</time>
      </trkpt>
      <trkpt lat="44.26568" lon="5.76394">
        <ele>621</ele>
        <time>2019-06-19T07:31:32Z</time>
      </trkpt>
      <trkpt lat="44.26572" lon="5.76389">
        <ele>621</ele>
        <time>2019-06-19T07:31:33Z</time>
      </trkpt>
      <trkpt lat="44.26577" lon="5.76385">
        <ele>621</ele>
        <time>2019-06-19T07:31:34Z</time>
      </trkpt>
      <trkpt lat="44.26582" lon="5.76381">
        <ele>621</ele>
        <time>2019-06-19T07:31:35Z</time>
      </trkpt>
      <trkpt lat="44.26588" lon="5.76378">
        <ele>621</ele>
        <time>2019-06-19T07:31:36Z</time>
      </trkpt>
      <trkpt lat="44.26594" lon="5.76376">
        <ele>621</ele>
        <time>2019-06-19T07:31:37Z</time>
      </trkpt>
      <trkpt lat="44.26601" lon="5.76374">
        <ele>621</ele>
        <time>2019-06-19T07:31:38Z</time>
      </trkpt>
      <trkpt lat="44.26607" lon="5.76372">
        <ele>621</ele>
        <time>2019-06-19T07:31:39Z</time>
      </trkpt>
      <trkpt lat="44.26613" lon="5.76371">
        <ele>621</ele>
        <time>2019-06-19T07:31:40Z</time>
      </trkpt>
      <trkpt lat="44.26619" lon="5.76369">
        <ele>620</ele>
        <time>2019-06-19T07:31:41Z</time>
      </trkpt>
      <trkpt lat="44.26625" lon="5.76367">
        <ele>620</ele>
        <time>2019-06-19T07:31:42Z</time>
      </trkpt>
      <trkpt lat="44.26632" lon="5.76364">
        <ele>620</ele>
        <time>2019-06-19T07:31:43Z</time>
      </trkpt>
      <trkpt lat="44.26638" lon="5.76361">
        <ele>620</ele>
        <time>2019-06-19T07:31:44Z</time>
      </trkpt>
      <trkpt lat="44.26644" lon="5.76359">
        <ele>620</ele>
        <time>2019-06-19T07:31:45Z</time>
      </trkpt>
      <trkpt lat="44.2665" lon="5.76358">
        <ele>620</ele>
        <time>2019-06-19T07:31:46Z</time>
      </trkpt>
      <trkpt lat="44.26656" lon="5.76356">
        <ele>620</ele>
        <time>2019-06-19T07:31:47Z</time>
      </trkpt>
      <trkpt lat="44.26663" lon="5.76354">
        <ele>620</ele>
        <time>2019-06-19T07:31:48Z</time>
      </trkpt>
      <trkpt lat="44.26669" lon="5.76351">
        <ele>620</ele>
        <time>2019-06-19T07:31:49Z</time>
      </trkpt>
      <trkpt lat="44.26675" lon="5.76349">
        <ele>620</ele>
        <time>2019-06-19T07:31:50Z</time>
      </trkpt>
      <trkpt lat="44.26681" lon="5.76346">
        <ele>620</ele>
        <time>2019-06-19T07:31:51Z</time>
      </trkpt>
      <trkpt lat="44.26687" lon="5.76343">
        <ele>620</ele>
        <time>2019-06-19T07:31:52Z</time>
      </trkpt>
      <trkpt lat="44.26693" lon="5.76341">
        <ele>620</ele>
        <time>2019-06-19T07:31:53Z</time>
      </trkpt>
      <trkpt lat="44.26698" lon="5.76338">
        <ele>620</ele>
        <time>2019-06-19T07:31:54Z</time>
      </trkpt>
      <trkpt lat="44.26704" lon="5.76335">
        <ele>620</ele>
        <time>2019-06-19T07:31:55Z</time>
      </trkpt>
      <trkpt lat="44.2671" lon="5.76332">
        <ele>620</ele>
        <time>2019-06-19T07:31:56Z</time>
      </trkpt>
      <trkpt lat="44.26716" lon="5.76329">
        <ele>619</ele>
        <time>2019-06-19T07:31:57Z</time>
      </trkpt>
      <trkpt lat="44.26722" lon="5.76326">
        <ele>619</ele>
        <time>2019-06-19T07:31:58Z</time>
      </trkpt>
      <trkpt lat="44.26728" lon="5.76323">
        <ele>619</ele>
        <time>2019-06-19T07:31:59Z</time>
      </trkpt>
      <trkpt lat="44.26734" lon="5.7632">
        <ele>619</ele>
        <time>2019-06-19T07:32:00Z</time>
      </trkpt>
      <trkpt lat="44.2674" lon="5.76317">
        <ele>619</ele>
        <time>2019-06-19T07:32:01Z</time>
      </trkpt>
      <trkpt lat="44.26746" lon="5.76313">
        <ele>619</ele>
        <time>2019-06-19T07:32:02Z</time>
      </trkpt>
      <trkpt lat="44.26753" lon="5.76311">
        <ele>619</ele>
        <time>2019-06-19T07:32:03Z</time>
      </trkpt>
      <trkpt lat="44.26759" lon="5.76308">
        <ele>619</ele>
        <time>2019-06-19T07:32:04Z</time>
      </trkpt>
      <trkpt lat="44.26765" lon="5.76306">
        <ele>619</ele>
        <time>2019-06-19T07:32:05Z</time>
      </trkpt>
      <trkpt lat="44.26772" lon="5.76304">
        <ele>619</ele>
        <time>2019-06-19T07:32:07Z</time>
      </trkpt>
      <trkpt lat="44.26778" lon="5.76302">
        <ele>619</ele>
        <time>2019-06-19T07:32:07Z</time>
      </trkpt>
      <trkpt lat="44.26785" lon="5.763">
        <ele>619</ele>
        <time>2019-06-19T07:32:08Z</time>
      </trkpt>
      <trkpt lat="44.26791" lon="5.76298">
        <ele>619</ele>
        <time>2019-06-19T07:32:09Z</time>
      </trkpt>
      <trkpt lat="44.26797" lon="5.76296">
        <ele>619</ele>
        <time>2019-06-19T07:32:10Z</time>
      </trkpt>
      <trkpt lat="44.26804" lon="5.76294">
        <ele>619</ele>
        <time>2019-06-19T07:32:11Z</time>
      </trkpt>
      <trkpt lat="44.2681" lon="5.76291">
        <ele>619</ele>
        <time>2019-06-19T07:32:12Z</time>
      </trkpt>
      <trkpt lat="44.26817" lon="5.76288">
        <ele>619</ele>
        <time>2019-06-19T07:32:13Z</time>
      </trkpt>
      <trkpt lat="44.26823" lon="5.76285">
        <ele>619</ele>
        <time>2019-06-19T07:32:14Z</time>
      </trkpt>
      <trkpt lat="44.2683" lon="5.76281">
        <ele>619</ele>
        <time>2019-06-19T07:32:15Z</time>
      </trkpt>
      <trkpt lat="44.26836" lon="5.76277">
        <ele>619</ele>
        <time>2019-06-19T07:32:16Z</time>
      </trkpt>
      <trkpt lat="44.26841" lon="5.76271">
        <ele>619</ele>
        <time>2019-06-19T07:32:17Z</time>
      </trkpt>
      <trkpt lat="44.26847" lon="5.76266">
        <ele>619</ele>
        <time>2019-06-19T07:32:18Z</time>
      </trkpt>
      <trkpt lat="44.26852" lon="5.7626">
        <ele>619</ele>
        <time>2019-06-19T07:32:19Z</time>
      </trkpt>
      <trkpt lat="44.26857" lon="5.76253">
        <ele>619</ele>
        <time>2019-06-19T07:32:20Z</time>
      </trkpt>
      <trkpt lat="44.26861" lon="5.76246">
        <ele>619</ele>
        <time>2019-06-19T07:32:21Z</time>
      </trkpt>
      <trkpt lat="44.26864" lon="5.76238">
        <ele>619</ele>
        <time>2019-06-19T07:32:22Z</time>
      </trkpt>
      <trkpt lat="44.26867" lon="5.7623">
        <ele>619</ele>
        <time>2019-06-19T07:32:23Z</time>
      </trkpt>
      <trkpt lat="44.26868" lon="5.7622">
        <ele>619</ele>
        <time>2019-06-19T07:32:24Z</time>
      </trkpt>
      <trkpt lat="44.2687" lon="5.7621">
        <ele>619</ele>
        <time>2019-06-19T07:32:25Z</time>
      </trkpt>
      <trkpt lat="44.26871" lon="5.76199">
        <ele>619</ele>
        <time>2019-06-19T07:32:26Z</time>
      </trkpt>
      <trkpt lat="44.26871" lon="5.7619">
        <ele>619</ele>
        <time>2019-06-19T07:32:27Z</time>
      </trkpt>
      <trkpt lat="44.26872" lon="5.76181">
        <ele>619</ele>
        <time>2019-06-19T07:32:28Z</time>
      </trkpt>
      <trkpt lat="44.26871" lon="5.76172">
        <ele>619</ele>
        <time>2019-06-19T07:32:29Z</time>
      </trkpt>
      <trkpt lat="44.2687" lon="5.76164">
        <ele>619</ele>
        <time>2019-06-19T07:32:30Z</time>
      </trkpt>
      <trkpt lat="44.26868" lon="5.76155">
        <ele>619</ele>
        <time>2019-06-19T07:32:31Z</time>
      </trkpt>
      <trkpt lat="44.26864" lon="5.76147">
        <ele>619</ele>
        <time>2019-06-19T07:32:32Z</time>
      </trkpt>
      <trkpt lat="44.26861" lon="5.76139">
        <ele>619</ele>
        <time>2019-06-19T07:32:33Z</time>
      </trkpt>
      <trkpt lat="44.26857" lon="5.76131">
        <ele>619</ele>
        <time>2019-06-19T07:32:34Z</time>
      </trkpt>
      <trkpt lat="44.26854" lon="5.76123">
        <ele>619</ele>
        <time>2019-06-19T07:32:35Z</time>
      </trkpt>
      <trkpt lat="44.2685" lon="5.76115">
        <ele>619</ele>
        <time>2019-06-19T07:32:36Z</time>
      </trkpt>
      <trkpt lat="44.26846" lon="5.76107">
        <ele>619</ele>
        <time>2019-06-19T07:32:37Z</time>
      </trkpt>
      <trkpt lat="44.26842" lon="5.76098">
        <ele>619</ele>
        <time>2019-06-19T07:32:38Z</time>
      </trkpt>
      <trkpt lat="44.26838" lon="5.7609">
        <ele>619</ele>
        <time>2019-06-19T07:32:39Z</time>
      </trkpt>
      <trkpt lat="44.26833" lon="5.76083">
        <ele>619</ele>
        <time>2019-06-19T07:32:40Z</time>
      </trkpt>
      <trkpt lat="44.26829" lon="5.76075">
        <ele>620</ele>
        <time>2019-06-19T07:32:41Z</time>
      </trkpt>
      <trkpt lat="44.26824" lon="5.76067">
        <ele>621</ele>
        <time>2019-06-19T07:32:42Z</time>
      </trkpt>
      <trkpt lat="44.26819" lon="5.7606">
        <ele>622</ele>
        <time>2019-06-19T07:32:43Z</time>
      </trkpt>
      <trkpt lat="44.26814" lon="5.76053">
        <ele>622</ele>
        <time>2019-06-19T07:32:44Z</time>
      </trkpt>
      <trkpt lat="44.26809" lon="5.76047">
        <ele>623</ele>
        <time>2019-06-19T07:32:45Z</time>
      </trkpt>
      <trkpt lat="44.26804" lon="5.7604">
        <ele>624</ele>
        <time>2019-06-19T07:32:46Z</time>
      </trkpt>
      <trkpt lat="44.26799" lon="5.76033">
        <ele>624</ele>
        <time>2019-06-19T07:32:47Z</time>
      </trkpt>
      <trkpt lat="44.26794" lon="5.76027">
        <ele>624</ele>
        <time>2019-06-19T07:32:48Z</time>
      </trkpt>
      <trkpt lat="44.26789" lon="5.7602">
        <ele>625</ele>
        <time>2019-06-19T07:32:49Z</time>
      </trkpt>
      <trkpt lat="44.26784" lon="5.76014">
        <ele>625</ele>
        <time>2019-06-19T07:32:50Z</time>
      </trkpt>
      <trkpt lat="44.26778" lon="5.76008">
        <ele>625</ele>
        <time>2019-06-19T07:32:51Z</time>
      </trkpt>
      <trkpt lat="44.26773" lon="5.76002">
        <ele>625</ele>
        <time>2019-06-19T07:32:52Z</time>
      </trkpt>
      <trkpt lat="44.26768" lon="5.75995">
        <ele>625</ele>
        <time>2019-06-19T07:32:53Z</time>
      </trkpt>
      <trkpt lat="44.26763" lon="5.75989">
        <ele>625</ele>
        <time>2019-06-19T07:32:54Z</time>
      </trkpt>
      <trkpt lat="44.26758" lon="5.75982">
        <ele>626</ele>
        <time>2019-06-19T07:32:55Z</time>
      </trkpt>
      <trkpt lat="44.26753" lon="5.75976">
        <ele>626</ele>
        <time>2019-06-19T07:32:56Z</time>
      </trkpt>
      <trkpt lat="44.26749" lon="5.75968">
        <ele>626</ele>
        <time>2019-06-19T07:32:57Z</time>
      </trkpt>
      <trkpt lat="44.26745" lon="5.75961">
        <ele>626</ele>
        <time>2019-06-19T07:32:58Z</time>
      </trkpt>
      <trkpt lat="44.26741" lon="5.75953">
        <ele>626</ele>
        <time>2019-06-19T07:32:59Z</time>
      </trkpt>
      <trkpt lat="44.26736" lon="5.75946">
        <ele>626</ele>
        <time>2019-06-19T07:33:00Z</time>
      </trkpt>
      <trkpt lat="44.26732" lon="5.75939">
        <ele>626</ele>
        <time>2019-06-19T07:33:01Z</time>
      </trkpt>
      <trkpt lat="44.26728" lon="5.75931">
        <ele>626</ele>
        <time>2019-06-19T07:33:02Z</time>
      </trkpt>
      <trkpt lat="44.26725" lon="5.75923">
        <ele>626</ele>
        <time>2019-06-19T07:33:03Z</time>
      </trkpt>
      <trkpt lat="44.26721" lon="5.75914">
        <ele>626</ele>
        <time>2019-06-19T07:33:04Z</time>
      </trkpt>
      <trkpt lat="44.26719" lon="5.75906">
        <ele>626</ele>
        <time>2019-06-19T07:33:05Z</time>
      </trkpt>
      <trkpt lat="44.26715" lon="5.75897">
        <ele>626</ele>
        <time>2019-06-19T07:33:07Z</time>
      </trkpt>
      <trkpt lat="44.26712" lon="5.75888">
        <ele>626</ele>
        <time>2019-06-19T07:33:07Z</time>
      </trkpt>
      <trkpt lat="44.2671" lon="5.75879">
        <ele>626</ele>
        <time>2019-06-19T07:33:08Z</time>
      </trkpt>
      <trkpt lat="44.26708" lon="5.7587">
        <ele>626</ele>
        <time>2019-06-19T07:33:09Z</time>
      </trkpt>
      <trkpt lat="44.26705" lon="5.75861">
        <ele>626</ele>
        <time>2019-06-19T07:33:10Z</time>
      </trkpt>
      <trkpt lat="44.26703" lon="5.75852">
        <ele>626</ele>
        <time>2019-06-19T07:33:11Z</time>
      </trkpt>
      <trkpt lat="44.26701" lon="5.75843">
        <ele>626</ele>
        <time>2019-06-19T07:33:12Z</time>
      </trkpt>
      <trkpt lat="44.26699" lon="5.75834">
        <ele>625</ele>
        <time>2019-06-19T07:33:13Z</time>
      </trkpt>
      <trkpt lat="44.26697" lon="5.75825">
        <ele>625</ele>
        <time>2019-06-19T07:33:14Z</time>
      </trkpt>
      <trkpt lat="44.26696" lon="5.75817">
        <ele>625</ele>
        <time>2019-06-19T07:33:15Z</time>
      </trkpt>
      <trkpt lat="44.26694" lon="5.75808">
        <ele>624</ele>
        <time>2019-06-19T07:33:16Z</time>
      </trkpt>
      <trkpt lat="44.26693" lon="5.758">
        <ele>623</ele>
        <time>2019-06-19T07:33:17Z</time>
      </trkpt>
      <trkpt lat="44.26692" lon="5.75791">
        <ele>623</ele>
        <time>2019-06-19T07:33:18Z</time>
      </trkpt>
      <trkpt lat="44.26691" lon="5.75782">
        <ele>623</ele>
        <time>2019-06-19T07:33:19Z</time>
      </trkpt>
      <trkpt lat="44.26691" lon="5.75772">
        <ele>623</ele>
        <time>2019-06-19T07:33:20Z</time>
      </trkpt>
      <trkpt lat="44.26691" lon="5.75762">
        <ele>623</ele>
        <time>2019-06-19T07:33:21Z</time>
      </trkpt>
      <trkpt lat="44.26691" lon="5.75753">
        <ele>623</ele>
        <time>2019-06-19T07:33:22Z</time>
      </trkpt>
      <trkpt lat="44.26692" lon="5.75744">
        <ele>623</ele>
        <time>2019-06-19T07:33:23Z</time>
      </trkpt>
      <trkpt lat="44.26693" lon="5.75735">
        <ele>623</ele>
        <time>2019-06-19T07:33:24Z</time>
      </trkpt>
      <trkpt lat="44.26694" lon="5.75727">
        <ele>623</ele>
        <time>2019-06-19T07:33:25Z</time>
      </trkpt>
      <trkpt lat="44.26697" lon="5.75719">
        <ele>623</ele>
        <time>2019-06-19T07:33:26Z</time>
      </trkpt>
      <trkpt lat="44.267" lon="5.75711">
        <ele>623</ele>
        <time>2019-06-19T07:33:27Z</time>
      </trkpt>
      <trkpt lat="44.26704" lon="5.75703">
        <ele>623</ele>
        <time>2019-06-19T07:33:28Z</time>
      </trkpt>
      <trkpt lat="44.26708" lon="5.75696">
        <ele>623</ele>
        <time>2019-06-19T07:33:29Z</time>
      </trkpt>
      <trkpt lat="44.26712" lon="5.7569">
        <ele>623</ele>
        <time>2019-06-19T07:33:30Z</time>
      </trkpt>
      <trkpt lat="44.26716" lon="5.75684">
        <ele>623</ele>
        <time>2019-06-19T07:33:31Z</time>
      </trkpt>
      <trkpt lat="44.2672" lon="5.75677">
        <ele>623</ele>
        <time>2019-06-19T07:33:32Z</time>
      </trkpt>
      <trkpt lat="44.26722" lon="5.7567">
        <ele>623</ele>
        <time>2019-06-19T07:33:33Z</time>
      </trkpt>
      <trkpt lat="44.26723" lon="5.75663">
        <ele>623</ele>
        <time>2019-06-19T07:33:34Z</time>
      </trkpt>
      <trkpt lat="44.26722" lon="5.75656">
        <ele>623</ele>
        <time>2019-06-19T07:33:35Z</time>
      </trkpt>
      <trkpt lat="44.26719" lon="5.75648">
        <ele>623</ele>
        <time>2019-06-19T07:33:36Z</time>
      </trkpt>
      <trkpt lat="44.26715" lon="5.75642">
        <ele>623</ele>
        <time>2019-06-19T07:33:37Z</time>
      </trkpt>
      <trkpt lat="44.2671" lon="5.75636">
        <ele>623</ele>
        <time>2019-06-19T07:33:38Z</time>
      </trkpt>
      <trkpt lat="44.26705" lon="5.75631">
        <ele>623</ele>
        <time>2019-06-19T07:33:39Z</time>
      </trkpt>
      <trkpt lat="44.267" lon="5.75625">
        <ele>623</ele>
        <time>2019-06-19T07:33:40Z</time>
      </trkpt>
      <trkpt lat="44.26696" lon="5.75619">
        <ele>623</ele>
        <time>2019-06-19T07:33:41Z</time>
      </trkpt>
      <trkpt lat="44.26691" lon="5.75612">
        <ele>623</ele>
        <time>2019-06-19T07:33:42Z</time>
      </trkpt>
      <trkpt lat="44.26687" lon="5.75604">
        <ele>623</ele>
        <time>2019-06-19T07:33:43Z</time>
      </trkpt>
      <trkpt lat="44.26685" lon="5.75595">
        <ele>623</ele>
        <time>2019-06-19T07:33:44Z</time>
      </trkpt>
      <trkpt lat="44.26684" lon="5.75585">
        <ele>623</ele>
        <time>2019-06-19T07:33:45Z</time>
      </trkpt>
      <trkpt lat="44.26682" lon="5.75575">
        <ele>623</ele>
        <time>2019-06-19T07:33:46Z</time>
      </trkpt>
      <trkpt lat="44.26681" lon="5.75565">
        <ele>623</ele>
        <time>2019-06-19T07:33:47Z</time>
      </trkpt>
      <trkpt lat="44.2668" lon="5.75554">
        <ele>623</ele>
        <time>2019-06-19T07:33:48Z</time>
      </trkpt>
      <trkpt lat="44.26678" lon="5.75544">
        <ele>623</ele>
        <time>2019-06-19T07:33:49Z</time>
      </trkpt>
      <trkpt lat="44.26677" lon="5.75533">
        <ele>623</ele>
        <time>2019-06-19T07:33:50Z</time>
      </trkpt>
      <trkpt lat="44.26676" lon="5.75522">
        <ele>623</ele>
        <time>2019-06-19T07:33:51Z</time>
      </trkpt>
      <trkpt lat="44.26675" lon="5.75511">
        <ele>623</ele>
        <time>2019-06-19T07:33:52Z</time>
      </trkpt>
      <trkpt lat="44.26674" lon="5.755">
        <ele>623</ele>
        <time>2019-06-19T07:33:53Z</time>
      </trkpt>
      <trkpt lat="44.26672" lon="5.7549">
        <ele>623</ele>
        <time>2019-06-19T07:33:54Z</time>
      </trkpt>
      <trkpt lat="44.2667" lon="5.7548">
        <ele>623</ele>
        <time>2019-06-19T07:33:55Z</time>
      </trkpt>
      <trkpt lat="44.26669" lon="5.7547">
        <ele>622</ele>
        <time>2019-06-19T07:33:56Z</time>
      </trkpt>
      <trkpt lat="44.26666" lon="5.75461">
        <ele>621</ele>
        <time>2019-06-19T07:33:57Z</time>
      </trkpt>
      <trkpt lat="44.26665" lon="5.75451">
        <ele>620</ele>
        <time>2019-06-19T07:33:58Z</time>
      </trkpt>
      <trkpt lat="44.26662" lon="5.75441">
        <ele>620</ele>
        <time>2019-06-19T07:33:59Z</time>
      </trkpt>
      <trkpt lat="44.26659" lon="5.75432">
        <ele>619</ele>
        <time>2019-06-19T07:34:00Z</time>
      </trkpt>
      <trkpt lat="44.26656" lon="5.75423">
        <ele>619</ele>
        <time>2019-06-19T07:34:01Z</time>
      </trkpt>
      <trkpt lat="44.26653" lon="5.75415">
        <ele>618</ele>
        <time>2019-06-19T07:34:02Z</time>
      </trkpt>
      <trkpt lat="44.26648" lon="5.75406">
        <ele>618</ele>
        <time>2019-06-19T07:34:03Z</time>
      </trkpt>
      <trkpt lat="44.26644" lon="5.75398">
        <ele>618</ele>
        <time>2019-06-19T07:34:04Z</time>
      </trkpt>
      <trkpt lat="44.2664" lon="5.75391">
        <ele>618</ele>
        <time>2019-06-19T07:34:05Z</time>
      </trkpt>
      <trkpt lat="44.26635" lon="5.75383">
        <ele>618</ele>
        <time>2019-06-19T07:34:07Z</time>
      </trkpt>
      <trkpt lat="44.26631" lon="5.75376">
        <ele>618</ele>
        <time>2019-06-19T07:34:07Z</time>
      </trkpt>
      <trkpt lat="44.26627" lon="5.75368">
        <ele>618</ele>
        <time>2019-06-19T07:34:08Z</time>
      </trkpt>
      <trkpt lat="44.26623" lon="5.75361">
        <ele>618</ele>
        <time>2019-06-19T07:34:09Z</time>
      </trkpt>
      <trkpt lat="44.26619" lon="5.75354">
        <ele>618</ele>
        <time>2019-06-19T07:34:10Z</time>
      </trkpt>
      <trkpt lat="44.26615" lon="5.75347">
        <ele>618</ele>
        <time>2019-06-19T07:34:11Z</time>
      </trkpt>
      <trkpt lat="44.26611" lon="5.75339">
        <ele>618</ele>
        <time>2019-06-19T07:34:12Z</time>
      </trkpt>
      <trkpt lat="44.26608" lon="5.75331">
        <ele>618</ele>
        <time>2019-06-19T07:34:13Z</time>
      </trkpt>
      <trkpt lat="44.26605" lon="5.75324">
        <ele>618</ele>
        <time>2019-06-19T07:34:14Z</time>
      </trkpt>
      <trkpt lat="44.26601" lon="5.75316">
        <ele>618</ele>
        <time>2019-06-19T07:34:15Z</time>
      </trkpt>
      <trkpt lat="44.26598" lon="5.75308">
        <ele>618</ele>
        <time>2019-06-19T07:34:16Z</time>
      </trkpt>
      <trkpt lat="44.26595" lon="5.753">
        <ele>618</ele>
        <time>2019-06-19T07:34:17Z</time>
      </trkpt>
      <trkpt lat="44.26592" lon="5.75292">
        <ele>618</ele>
        <time>2019-06-19T07:34:18Z</time>
      </trkpt>
      <trkpt lat="44.26589" lon="5.75285">
        <ele>618</ele>
        <time>2019-06-19T07:34:19Z</time>
      </trkpt>
      <trkpt lat="44.26587" lon="5.75277">
        <ele>618</ele>
        <time>2019-06-19T07:34:20Z</time>
      </trkpt>
      <trkpt lat="44.26584" lon="5.75269">
        <ele>618</ele>
        <time>2019-06-19T07:34:21Z</time>
      </trkpt>
      <trkpt lat="44.26581" lon="5.7526">
        <ele>618</ele>
        <time>2019-06-19T07:34:22Z</time>
      </trkpt>
      <trkpt lat="44.26577" lon="5.75252">
        <ele>618</ele>
        <time>2019-06-19T07:34:23Z</time>
      </trkpt>
      <trkpt lat="44.26574" lon="5.75244">
        <ele>618</ele>
        <time>2019-06-19T07:34:24Z</time>
      </trkpt>
      <trkpt lat="44.26571" lon="5.75237">
        <ele>618</ele>
        <time>2019-06-19T07:34:25Z</time>
      </trkpt>
      <trkpt lat="44.26566" lon="5.75229">
        <ele>618</ele>
        <time>2019-06-19T07:34:26Z</time>
      </trkpt>
      <trkpt lat="44.26563" lon="5.75221">
        <ele>618</ele>
        <time>2019-06-19T07:34:27Z</time>
      </trkpt>
      <trkpt lat="44.26559" lon="5.75214">
        <ele>618</ele>
        <time>2019-06-19T07:34:28Z</time>
      </trkpt>
      <trkpt lat="44.26556" lon="5.75206">
        <ele>619</ele>
        <time>2019-06-19T07:34:29Z</time>
      </trkpt>
      <trkpt lat="44.26551" lon="5.75198">
        <ele>619</ele>
        <time>2019-06-19T07:34:30Z</time>
      </trkpt>
      <trkpt lat="44.26548" lon="5.75191">
        <ele>620</ele>
        <time>2019-06-19T07:34:31Z</time>
      </trkpt>
      <trkpt lat="44.26544" lon="5.75183">
        <ele>620</ele>
        <time>2019-06-19T07:34:32Z</time>
      </trkpt>
      <trkpt lat="44.2654" lon="5.75176">
        <ele>621</ele>
        <time>2019-06-19T07:34:33Z</time>
      </trkpt>
      <trkpt lat="44.26535" lon="5.75168">
        <ele>622</ele>
        <time>2019-06-19T07:34:34Z</time>
      </trkpt>
      <trkpt lat="44.26531" lon="5.75161">
        <ele>623</ele>
        <time>2019-06-19T07:34:35Z</time>
      </trkpt>
      <trkpt lat="44.26527" lon="5.75154">
        <ele>624</ele>
        <time>2019-06-19T07:34:36Z</time>
      </trkpt>
      <trkpt lat="44.26523" lon="5.75147">
        <ele>625</ele>
        <time>2019-06-19T07:34:37Z</time>
      </trkpt>
      <trkpt lat="44.26519" lon="5.7514">
        <ele>626</ele>
        <time>2019-06-19T07:34:38Z</time>
      </trkpt>
      <trkpt lat="44.26514" lon="5.75133">
        <ele>626</ele>
        <time>2019-06-19T07:34:39Z</time>
      </trkpt>
      <trkpt lat="44.2651" lon="5.75126">
        <ele>627</ele>
        <time>2019-06-19T07:34:40Z</time>
      </trkpt>
      <trkpt lat="44.26506" lon="5.75119">
        <ele>628</ele>
        <time>2019-06-19T07:34:41Z</time>
      </trkpt>
      <trkpt lat="44.26502" lon="5.75112">
        <ele>628</ele>
        <time>2019-06-19T07:34:42Z</time>
      </trkpt>
      <trkpt lat="44.26498" lon="5.75105">
        <ele>628</ele>
        <time>2019-06-19T07:34:43Z</time>
      </trkpt>
      <trkpt lat="44.26493" lon="5.75099">
        <ele>628</ele>
        <time>2019-06-19T07:34:44Z</time>
      </trkpt>
      <trkpt lat="44.26489" lon="5.75092">
        <ele>628</ele>
        <time>2019-06-19T07:34:45Z</time>
      </trkpt>
      <trkpt lat="44.26485" lon="5.75084">
        <ele>628</ele>
        <time>2019-06-19T07:34:46Z</time>
      </trkpt>
      <trkpt lat="44.26481" lon="5.75077">
        <ele>628</ele>
        <time>2019-06-19T07:34:47Z</time>
      </trkpt>
      <trkpt lat="44.26477" lon="5.7507">
        <ele>628</ele>
        <time>2019-06-19T07:34:48Z</time>
      </trkpt>
      <trkpt lat="44.26473" lon="5.75063">
        <ele>628</ele>
        <time>2019-06-19T07:34:49Z</time>
      </trkpt>
      <trkpt lat="44.26469" lon="5.75056">
        <ele>628</ele>
        <time>2019-06-19T07:34:50Z</time>
      </trkpt>
      <trkpt lat="44.26465" lon="5.75048">
        <ele>628</ele>
        <time>2019-06-19T07:34:51Z</time>
      </trkpt>
      <trkpt lat="44.26461" lon="5.75041">
        <ele>628</ele>
        <time>2019-06-19T07:34:52Z</time>
      </trkpt>
      <trkpt lat="44.26457" lon="5.75034">
        <ele>628</ele>
        <time>2019-06-19T07:34:53Z</time>
      </trkpt>
      <trkpt lat="44.26453" lon="5.75026">
        <ele>628</ele>
        <time>2019-06-19T07:34:54Z</time>
      </trkpt>
      <trkpt lat="44.26449" lon="5.75019">
        <ele>628</ele>
        <time>2019-06-19T07:34:55Z</time>
      </trkpt>
      <trkpt lat="44.26445" lon="5.75011">
        <ele>628</ele>
        <time>2019-06-19T07:34:56Z</time>
      </trkpt>
      <trkpt lat="44.26441" lon="5.75004">
        <ele>628</ele>
        <time>2019-06-19T07:34:57Z</time>
      </trkpt>
      <trkpt lat="44.26437" lon="5.74997">
        <ele>628</ele>
        <time>2019-06-19T07:34:58Z</time>
      </trkpt>
      <trkpt lat="44.26433" lon="5.74989">
        <ele>628</ele>
        <time>2019-06-19T07:34:59Z</time>
      </trkpt>
      <trkpt lat="44.26429" lon="5.74982">
        <ele>628</ele>
        <time>2019-06-19T07:35:00Z</time>
      </trkpt>
      <trkpt lat="44.26425" lon="5.74975">
        <ele>628</ele>
        <time>2019-06-19T07:35:01Z</time>
      </trkpt>
      <trkpt lat="44.26421" lon="5.74968">
        <ele>628</ele>
        <time>2019-06-19T07:35:02Z</time>
      </trkpt>
      <trkpt lat="44.26417" lon="5.74961">
        <ele>628</ele>
        <time>2019-06-19T07:35:03Z</time>
      </trkpt>
      <trkpt lat="44.26414" lon="5.74953">
        <ele>628</ele>
        <time>2019-06-19T07:35:04Z</time>
      </trkpt>
      <trkpt lat="44.26411" lon="5.74946">
        <ele>628</ele>
        <time>2019-06-19T07:35:05Z</time>
      </trkpt>
      <trkpt lat="44.26408" lon="5.74939">
        <ele>628</ele>
        <time>2019-06-19T07:35:07Z</time>
      </trkpt>
      <trkpt lat="44.26405" lon="5.74932">
        <ele>628</ele>
        <time>2019-06-19T07:35:07Z</time>
      </trkpt>
      <trkpt lat="44.26402" lon="5.74925">
        <ele>628</ele>
        <time>2019-06-19T07:35:08Z</time>
      </trkpt>
      <trkpt lat="44.264" lon="5.74918">
        <ele>628</ele>
        <time>2019-06-19T07:35:09Z</time>
      </trkpt>
      <trkpt lat="44.26398" lon="5.7491">
        <ele>628</ele>
        <time>2019-06-19T07:35:10Z</time>
      </trkpt>
      <trkpt lat="44.26396" lon="5.74902">
        <ele>628</ele>
        <time>2019-06-19T07:35:11Z</time>
      </trkpt>
      <trkpt lat="44.26394" lon="5.74895">
        <ele>628</ele>
        <time>2019-06-19T07:35:12Z</time>
      </trkpt>
      <trkpt lat="44.26393" lon="5.74888">
        <ele>628</ele>
        <time>2019-06-19T07:35:13Z</time>
      </trkpt>
      <trkpt lat="44.26391" lon="5.7488">
        <ele>628</ele>
        <time>2019-06-19T07:35:14Z</time>
      </trkpt>
      <trkpt lat="44.2639" lon="5.74873">
        <ele>628</ele>
        <time>2019-06-19T07:35:15Z</time>
      </trkpt>
      <trkpt lat="44.26388" lon="5.74866">
        <ele>628</ele>
        <time>2019-06-19T07:35:16Z</time>
      </trkpt>
      <trkpt lat="44.26386" lon="5.74859">
        <ele>628</ele>
        <time>2019-06-19T07:35:17Z</time>
      </trkpt>
      <trkpt lat="44.26384" lon="5.74852">
        <ele>628</ele>
        <time>2019-06-19T07:35:18Z</time>
      </trkpt>
      <trkpt lat="44.26381" lon="5.74846">
        <ele>628</ele>
        <time>2019-06-19T07:35:19Z</time>
      </trkpt>
      <trkpt lat="44.26378" lon="5.74839">
        <ele>628</ele>
        <time>2019-06-19T07:35:20Z</time>
      </trkpt>
      <trkpt lat="44.26375" lon="5.74833">
        <ele>628</ele>
        <time>2019-06-19T07:35:21Z</time>
      </trkpt>
      <trkpt lat="44.26372" lon="5.74827">
        <ele>628</ele>
        <time>2019-06-19T07:35:22Z</time>
      </trkpt>
      <trkpt lat="44.26368" lon="5.74821">
        <ele>628</ele>
        <time>2019-06-19T07:35:23Z</time>
      </trkpt>
      <trkpt lat="44.26365" lon="5.74816">
        <ele>628</ele>
        <time>2019-06-19T07:35:24Z</time>
      </trkpt>
      <trkpt lat="44.26362" lon="5.7481">
        <ele>628</ele>
        <time>2019-06-19T07:35:25Z</time>
      </trkpt>
      <trkpt lat="44.26358" lon="5.74804">
        <ele>629</ele>
        <time>2019-06-19T07:35:26Z</time>
      </trkpt>
      <trkpt lat="44.26355" lon="5.74799">
        <ele>629</ele>
        <time>2019-06-19T07:35:27Z</time>
      </trkpt>
      <trkpt lat="44.26352" lon="5.74793">
        <ele>629</ele>
        <time>2019-06-19T07:35:28Z</time>
      </trkpt>
      <trkpt lat="44.26348" lon="5.74788">
        <ele>630</ele>
        <time>2019-06-19T07:35:29Z</time>
      </trkpt>
      <trkpt lat="44.26345" lon="5.74782">
        <ele>630</ele>
        <time>2019-06-19T07:35:30Z</time>
      </trkpt>
      <trkpt lat="44.26342" lon="5.74776">
        <ele>630</ele>
        <time>2019-06-19T07:35:31Z</time>
      </trkpt>
      <trkpt lat="44.2634" lon="5.7477">
        <ele>631</ele>
        <time>2019-06-19T07:35:32Z</time>
      </trkpt>
      <trkpt lat="44.26337" lon="5.74764">
        <ele>631</ele>
        <time>2019-06-19T07:35:33Z</time>
      </trkpt>
      <trkpt lat="44.26334" lon="5.74758">
        <ele>631</ele>
        <time>2019-06-19T07:35:34Z</time>
      </trkpt>
      <trkpt lat="44.26332" lon="5.74752">
        <ele>632</ele>
        <time>2019-06-19T07:35:35Z</time>
      </trkpt>
      <trkpt lat="44.26329" lon="5.74746">
        <ele>632</ele>
        <time>2019-06-19T07:35:36Z</time>
      </trkpt>
      <trkpt lat="44.26327" lon="5.7474">
        <ele>632</ele>
        <time>2019-06-19T07:35:37Z</time>
      </trkpt>
      <trkpt lat="44.26324" lon="5.74734">
        <ele>632</ele>
        <time>2019-06-19T07:35:38Z</time>
      </trkpt>
      <trkpt lat="44.26322" lon="5.74728">
        <ele>633</ele>
        <time>2019-06-19T07:35:39Z</time>
      </trkpt>
      <trkpt lat="44.2632" lon="5.74722">
        <ele>633</ele>
        <time>2019-06-19T07:35:40Z</time>
      </trkpt>
      <trkpt lat="44.26317" lon="5.74717">
        <ele>633</ele>
        <time>2019-06-19T07:35:41Z</time>
      </trkpt>
      <trkpt lat="44.26315" lon="5.74711">
        <ele>634</ele>
        <time>2019-06-19T07:35:42Z</time>
      </trkpt>
      <trkpt lat="44.26312" lon="5.74705">
        <ele>634</ele>
        <time>2019-06-19T07:35:43Z</time>
      </trkpt>
      <trkpt lat="44.2631" lon="5.74699">
        <ele>634</ele>
        <time>2019-06-19T07:35:44Z</time>
      </trkpt>
      <trkpt lat="44.26308" lon="5.74693">
        <ele>634</ele>
        <time>2019-06-19T07:35:45Z</time>
      </trkpt>
      <trkpt lat="44.26305" lon="5.74687">
        <ele>635</ele>
        <time>2019-06-19T07:35:46Z</time>
      </trkpt>
      <trkpt lat="44.26303" lon="5.74682">
        <ele>635</ele>
        <time>2019-06-19T07:35:47Z</time>
      </trkpt>
      <trkpt lat="44.263" lon="5.74677">
        <ele>635</ele>
        <time>2019-06-19T07:35:48Z</time>
      </trkpt>
      <trkpt lat="44.26298" lon="5.74671">
        <ele>635</ele>
        <time>2019-06-19T07:35:49Z</time>
      </trkpt>
      <trkpt lat="44.26296" lon="5.74666">
        <ele>635</ele>
        <time>2019-06-19T07:35:50Z</time>
      </trkpt>
      <trkpt lat="44.26294" lon="5.7466">
        <ele>635</ele>
        <time>2019-06-19T07:35:51Z</time>
      </trkpt>
      <trkpt lat="44.26291" lon="5.74654">
        <ele>635</ele>
        <time>2019-06-19T07:35:52Z</time>
      </trkpt>
      <trkpt lat="44.26289" lon="5.74649">
        <ele>635</ele>
        <time>2019-06-19T07:35:53Z</time>
      </trkpt>
      <trkpt lat="44.26287" lon="5.74642">
        <ele>635</ele>
        <time>2019-06-19T07:35:54Z</time>
      </trkpt>
      <trkpt lat="44.26286" lon="5.74636">
        <ele>635</ele>
        <time>2019-06-19T07:35:55Z</time>
      </trkpt>
      <trkpt lat="44.26285" lon="5.74629">
        <ele>635</ele>
        <time>2019-06-19T07:35:56Z</time>
      </trkpt>
      <trkpt lat="44.26284" lon="5.74622">
        <ele>635</ele>
        <time>2019-06-19T07:35:57Z</time>
      </trkpt>
      <trkpt lat="44.26284" lon="5.74616">
        <ele>635</ele>
        <time>2019-06-19T07:35:58Z</time>
      </trkpt>
      <trkpt lat="44.26285" lon="5.74609">
        <ele>635</ele>
        <time>2019-06-19T07:35:59Z</time>
      </trkpt>
      <trkpt lat="44.26286" lon="5.74603">
        <ele>635</ele>
        <time>2019-06-19T07:36:00Z</time>
      </trkpt>
      <trkpt lat="44.26288" lon="5.74597">
        <ele>635</ele>
        <time>2019-06-19T07:36:01Z</time>
      </trkpt>
      <trkpt lat="44.2629" lon="5.74591">
        <ele>635</ele>
        <time>2019-06-19T07:36:02Z</time>
      </trkpt>
      <trkpt lat="44.26292" lon="5.74584">
        <ele>635</ele>
        <time>2019-06-19T07:36:03Z</time>
      </trkpt>
      <trkpt lat="44.26295" lon="5.74578">
        <ele>635</ele>
        <time>2019-06-19T07:36:04Z</time>
      </trkpt>
      <trkpt lat="44.26297" lon="5.74572">
        <ele>635</ele>
        <time>2019-06-19T07:36:05Z</time>
      </trkpt>
      <trkpt lat="44.263" lon="5.74566">
        <ele>635</ele>
        <time>2019-06-19T07:36:07Z</time>
      </trkpt>
      <trkpt lat="44.26303" lon="5.7456">
        <ele>635</ele>
        <time>2019-06-19T07:36:07Z</time>
      </trkpt>
      <trkpt lat="44.26306" lon="5.74554">
        <ele>635</ele>
        <time>2019-06-19T07:36:08Z</time>
      </trkpt>
      <trkpt lat="44.26309" lon="5.74547">
        <ele>635</ele>
        <time>2019-06-19T07:36:09Z</time>
      </trkpt>
      <trkpt lat="44.26312" lon="5.74541">
        <ele>635</ele>
        <time>2019-06-19T07:36:10Z</time>
      </trkpt>
      <trkpt lat="44.26315" lon="5.74535">
        <ele>635</ele>
        <time>2019-06-19T07:36:11Z</time>
      </trkpt>
      <trkpt lat="44.26318" lon="5.74528">
        <ele>635</ele>
        <time>2019-06-19T07:36:12Z</time>
      </trkpt>
      <trkpt lat="44.2632" lon="5.74522">
        <ele>635</ele>
        <time>2019-06-19T07:36:13Z</time>
      </trkpt>
      <trkpt lat="44.26323" lon="5.74515">
        <ele>635</ele>
        <time>2019-06-19T07:36:14Z</time>
      </trkpt>
      <trkpt lat="44.26326" lon="5.74509">
        <ele>635</ele>
        <time>2019-06-19T07:36:15Z</time>
      </trkpt>
      <trkpt lat="44.26328" lon="5.74502">
        <ele>635</ele>
        <time>2019-06-19T07:36:16Z</time>
      </trkpt>
      <trkpt lat="44.26331" lon="5.74495">
        <ele>635</ele>
        <time>2019-06-19T07:36:17Z</time>
      </trkpt>
      <trkpt lat="44.26334" lon="5.74488">
        <ele>635</ele>
        <time>2019-06-19T07:36:18Z</time>
      </trkpt>
      <trkpt lat="44.26338" lon="5.74482">
        <ele>635</ele>
        <time>2019-06-19T07:36:19Z</time>
      </trkpt>
      <trkpt lat="44.26342" lon="5.74476">
        <ele>635</ele>
        <time>2019-06-19T07:36:20Z</time>
      </trkpt>
      <trkpt lat="44.26346" lon="5.74471">
        <ele>635</ele>
        <time>2019-06-19T07:36:21Z</time>
      </trkpt>
      <trkpt lat="44.2635" lon="5.74465">
        <ele>635</ele>
        <time>2019-06-19T07:36:22Z</time>
      </trkpt>
      <trkpt lat="44.26354" lon="5.74459">
        <ele>635</ele>
        <time>2019-06-19T07:36:23Z</time>
      </trkpt>
      <trkpt lat="44.26357" lon="5.74452">
        <ele>635</ele>
        <time>2019-06-19T07:36:24Z</time>
      </trkpt>
      <trkpt lat="44.26361" lon="5.74446">
        <ele>635</ele>
        <time>2019-06-19T07:36:25Z</time>
      </trkpt>
      <trkpt lat="44.26363" lon="5.74439">
        <ele>635</ele>
        <time>2019-06-19T07:36:26Z</time>
      </trkpt>
      <trkpt lat="44.26365" lon="5.74433">
        <ele>635</ele>
        <time>2019-06-19T07:36:27Z</time>
      </trkpt>
      <trkpt lat="44.26366" lon="5.74426">
        <ele>635</ele>
        <time>2019-06-19T07:36:28Z</time>
      </trkpt>
      <trkpt lat="44.26367" lon="5.74418">
        <ele>635</ele>
        <time>2019-06-19T07:36:29Z</time>
      </trkpt>
      <trkpt lat="44.26366" lon="5.7441">
        <ele>635</ele>
        <time>2019-06-19T07:36:30Z</time>
      </trkpt>
      <trkpt lat="44.26365" lon="5.74403">
        <ele>635</ele>
        <time>2019-06-19T07:36:31Z</time>
      </trkpt>
      <trkpt lat="44.26364" lon="5.74397">
        <ele>635</ele>
        <time>2019-06-19T07:36:32Z</time>
      </trkpt>
      <trkpt lat="44.26362" lon="5.7439">
        <ele>635</ele>
        <time>2019-06-19T07:36:33Z</time>
      </trkpt>
      <trkpt lat="44.26361" lon="5.74383">
        <ele>635</ele>
        <time>2019-06-19T07:36:34Z</time>
      </trkpt>
      <trkpt lat="44.2636" lon="5.74377">
        <ele>635</ele>
        <time>2019-06-19T07:36:35Z</time>
      </trkpt>
      <trkpt lat="44.26358" lon="5.74371">
        <ele>635</ele>
        <time>2019-06-19T07:36:36Z</time>
      </trkpt>
      <trkpt lat="44.26357" lon="5.74364">
        <ele>635</ele>
        <time>2019-06-19T07:36:37Z</time>
      </trkpt>
      <trkpt lat="44.26356" lon="5.74357">
        <ele>635</ele>
        <time>2019-06-19T07:36:38Z</time>
      </trkpt>
      <trkpt lat="44.26355" lon="5.74351">
        <ele>635</ele>
        <time>2019-06-19T07:36:39Z</time>
      </trkpt>
      <trkpt lat="44.26353" lon="5.74344">
        <ele>635</ele>
        <time>2019-06-19T07:36:40Z</time>
      </trkpt>
      <trkpt lat="44.26352" lon="5.74337">
        <ele>635</ele>
        <time>2019-06-19T07:36:41Z</time>
      </trkpt>
      <trkpt lat="44.26351" lon="5.7433">
        <ele>635</ele>
        <time>2019-06-19T07:36:42Z</time>
      </trkpt>
      <trkpt lat="44.2635" lon="5.74323">
        <ele>635</ele>
        <time>2019-06-19T07:36:43Z</time>
      </trkpt>
      <trkpt lat="44.26349" lon="5.74316">
        <ele>635</ele>
        <time>2019-06-19T07:36:44Z</time>
      </trkpt>
      <trkpt lat="44.26348" lon="5.74309">
        <ele>635</ele>
        <time>2019-06-19T07:36:45Z</time>
      </trkpt>
      <trkpt lat="44.26348" lon="5.74302">
        <ele>635</ele>
        <time>2019-06-19T07:36:46Z</time>
      </trkpt>
      <trkpt lat="44.26347" lon="5.74295">
        <ele>635</ele>
        <time>2019-06-19T07:36:47Z</time>
      </trkpt>
      <trkpt lat="44.26347" lon="5.74288">
        <ele>635</ele>
        <time>2019-06-19T07:36:48Z</time>
      </trkpt>
      <trkpt lat="44.26346" lon="5.74281">
        <ele>635</ele>
        <time>2019-06-19T07:36:49Z</time>
      </trkpt>
      <trkpt lat="44.26345" lon="5.74273">
        <ele>635</ele>
        <time>2019-06-19T07:36:50Z</time>
      </trkpt>
      <trkpt lat="44.26345" lon="5.74265">
        <ele>635</ele>
        <time>2019-06-19T07:36:51Z</time>
      </trkpt>
      <trkpt lat="44.26345" lon="5.74258">
        <ele>635</ele>
        <time>2019-06-19T07:36:52Z</time>
      </trkpt>
      <trkpt lat="44.26344" lon="5.74251">
        <ele>635</ele>
        <time>2019-06-19T07:36:53Z</time>
      </trkpt>
      <trkpt lat="44.26344" lon="5.74243">
        <ele>635</ele>
        <time>2019-06-19T07:36:54Z</time>
      </trkpt>
      <trkpt lat="44.26343" lon="5.74236">
        <ele>635</ele>
        <time>2019-06-19T07:36:55Z</time>
      </trkpt>
      <trkpt lat="44.26342" lon="5.74229">
        <ele>635</ele>
        <time>2019-06-19T07:36:56Z</time>
      </trkpt>
      <trkpt lat="44.26342" lon="5.74221">
        <ele>635</ele>
        <time>2019-06-19T07:36:57Z</time>
      </trkpt>
      <trkpt lat="44.26341" lon="5.74214">
        <ele>635</ele>
        <time>2019-06-19T07:36:58Z</time>
      </trkpt>
      <trkpt lat="44.2634" lon="5.74206">
        <ele>635</ele>
        <time>2019-06-19T07:36:59Z</time>
      </trkpt>
      <trkpt lat="44.2634" lon="5.74198">
        <ele>635</ele>
        <time>2019-06-19T07:37:00Z</time>
      </trkpt>
      <trkpt lat="44.26339" lon="5.74191">
        <ele>635</ele>
        <time>2019-06-19T07:37:01Z</time>
      </trkpt>
      <trkpt lat="44.26339" lon="5.74183">
        <ele>635</ele>
        <time>2019-06-19T07:37:02Z</time>
      </trkpt>
      <trkpt lat="44.26339" lon="5.74175">
        <ele>635</ele>
        <time>2019-06-19T07:37:03Z</time>
      </trkpt>
      <trkpt lat="44.26338" lon="5.74167">
        <ele>635</ele>
        <time>2019-06-19T07:37:04Z</time>
      </trkpt>
      <trkpt lat="44.26337" lon="5.74159">
        <ele>635</ele>
        <time>2019-06-19T07:37:05Z</time>
      </trkpt>
      <trkpt lat="44.26337" lon="5.74152">
        <ele>635</ele>
        <time>2019-06-19T07:37:07Z</time>
      </trkpt>
      <trkpt lat="44.26336" lon="5.74144">
        <ele>635</ele>
        <time>2019-06-19T07:37:07Z</time>
      </trkpt>
      <trkpt lat="44.26335" lon="5.74136">
        <ele>635</ele>
        <time>2019-06-19T07:37:08Z</time>
      </trkpt>
      <trkpt lat="44.26335" lon="5.74128">
        <ele>635</ele>
        <time>2019-06-19T07:37:09Z</time>
      </trkpt>
      <trkpt lat="44.26334" lon="5.7412">
        <ele>635</ele>
        <time>2019-06-19T07:37:10Z</time>
      </trkpt>
      <trkpt lat="44.26334" lon="5.74112">
        <ele>635</ele>
        <time>2019-06-19T07:37:11Z</time>
      </trkpt>
      <trkpt lat="44.26333" lon="5.74104">
        <ele>635</ele>
        <time>2019-06-19T07:37:12Z</time>
      </trkpt>
      <trkpt lat="44.26332" lon="5.74096">
        <ele>635</ele>
        <time>2019-06-19T07:37:13Z</time>
      </trkpt>
      <trkpt lat="44.26332" lon="5.74088">
        <ele>635</ele>
        <time>2019-06-19T07:37:14Z</time>
      </trkpt>
      <trkpt lat="44.26331" lon="5.7408">
        <ele>635</ele>
        <time>2019-06-19T07:37:15Z</time>
      </trkpt>
      <trkpt lat="44.26331" lon="5.74071">
        <ele>635</ele>
        <time>2019-06-19T07:37:16Z</time>
      </trkpt>
      <trkpt lat="44.2633" lon="5.74063">
        <ele>635</ele>
        <time>2019-06-19T07:37:17Z</time>
      </trkpt>
      <trkpt lat="44.26329" lon="5.74055">
        <ele>635</ele>
        <time>2019-06-19T07:37:18Z</time>
      </trkpt>
      <trkpt lat="44.26329" lon="5.74047">
        <ele>635</ele>
        <time>2019-06-19T07:37:19Z</time>
      </trkpt>
      <trkpt lat="44.26328" lon="5.74039">
        <ele>635</ele>
        <time>2019-06-19T07:37:20Z</time>
      </trkpt>
      <trkpt lat="44.26327" lon="5.7403">
        <ele>635</ele>
        <time>2019-06-19T07:37:21Z</time>
      </trkpt>
      <trkpt lat="44.26326" lon="5.74022">
        <ele>635</ele>
        <time>2019-06-19T07:37:22Z</time>
      </trkpt>
      <trkpt lat="44.26326" lon="5.74013">
        <ele>635</ele>
        <time>2019-06-19T07:37:23Z</time>
      </trkpt>
      <trkpt lat="44.26326" lon="5.74004">
        <ele>635</ele>
        <time>2019-06-19T07:37:24Z</time>
      </trkpt>
      <trkpt lat="44.26326" lon="5.73995">
        <ele>635</ele>
        <time>2019-06-19T07:37:25Z</time>
      </trkpt>
      <trkpt lat="44.26326" lon="5.73986">
        <ele>635</ele>
        <time>2019-06-19T07:37:26Z</time>
      </trkpt>
      <trkpt lat="44.26326" lon="5.73978">
        <ele>635</ele>
        <time>2019-06-19T07:37:27Z</time>
      </trkpt>
      <trkpt lat="44.26325" lon="5.73969">
        <ele>635</ele>
        <time>2019-06-19T07:37:28Z</time>
      </trkpt>
      <trkpt lat="44.26325" lon="5.7396">
        <ele>636</ele>
        <time>2019-06-19T07:37:29Z</time>
      </trkpt>
      <trkpt lat="44.26324" lon="5.73951">
        <ele>636</ele>
        <time>2019-06-19T07:37:30Z</time>
      </trkpt>
      <trkpt lat="44.26324" lon="5.73941">
        <ele>636</ele>
        <time>2019-06-19T07:37:31Z</time>
      </trkpt>
      <trkpt lat="44.26323" lon="5.73932">
        <ele>636</ele>
        <time>2019-06-19T07:37:32Z</time>
      </trkpt>
      <trkpt lat="44.26323" lon="5.73922">
        <ele>636</ele>
        <time>2019-06-19T07:37:33Z</time>
      </trkpt>
      <trkpt lat="44.26323" lon="5.73913">
        <ele>636</ele>
        <time>2019-06-19T07:37:34Z</time>
      </trkpt>
      <trkpt lat="44.26323" lon="5.73903">
        <ele>636</ele>
        <time>2019-06-19T07:37:35Z</time>
      </trkpt>
      <trkpt lat="44.26322" lon="5.73893">
        <ele>636</ele>
        <time>2019-06-19T07:37:36Z</time>
      </trkpt>
      <trkpt lat="44.26322" lon="5.73883">
        <ele>636</ele>
        <time>2019-06-19T07:37:37Z</time>
      </trkpt>
      <trkpt lat="44.26321" lon="5.73873">
        <ele>636</ele>
        <time>2019-06-19T07:37:38Z</time>
      </trkpt>
      <trkpt lat="44.26321" lon="5.73862">
        <ele>636</ele>
        <time>2019-06-19T07:37:39Z</time>
      </trkpt>
      <trkpt lat="44.2632" lon="5.73852">
        <ele>636</ele>
        <time>2019-06-19T07:37:40Z</time>
      </trkpt>
      <trkpt lat="44.26319" lon="5.73841">
        <ele>636</ele>
        <time>2019-06-19T07:37:41Z</time>
      </trkpt>
      <trkpt lat="44.26319" lon="5.73831">
        <ele>636</ele>
        <time>2019-06-19T07:37:42Z</time>
      </trkpt>
      <trkpt lat="44.26318" lon="5.7382">
        <ele>636</ele>
        <time>2019-06-19T07:37:43Z</time>
      </trkpt>
      <trkpt lat="44.26318" lon="5.73809">
        <ele>636</ele>
        <time>2019-06-19T07:37:44Z</time>
      </trkpt>
      <trkpt lat="44.26316" lon="5.73799">
        <ele>636</ele>
        <time>2019-06-19T07:37:45Z</time>
      </trkpt>
      <trkpt lat="44.26315" lon="5.73788">
        <ele>636</ele>
        <time>2019-06-19T07:37:46Z</time>
      </trkpt>
      <trkpt lat="44.26313" lon="5.73778">
        <ele>636</ele>
        <time>2019-06-19T07:37:47Z</time>
      </trkpt>
      <trkpt lat="44.26312" lon="5.73768">
        <ele>636</ele>
        <time>2019-06-19T07:37:48Z</time>
      </trkpt>
      <trkpt lat="44.2631" lon="5.73758">
        <ele>636</ele>
        <time>2019-06-19T07:37:49Z</time>
      </trkpt>
      <trkpt lat="44.26308" lon="5.73748">
        <ele>636</ele>
        <time>2019-06-19T07:37:50Z</time>
      </trkpt>
      <trkpt lat="44.26307" lon="5.73738">
        <ele>636</ele>
        <time>2019-06-19T07:37:51Z</time>
      </trkpt>
      <trkpt lat="44.26305" lon="5.73728">
        <ele>636</ele>
        <time>2019-06-19T07:37:52Z</time>
      </trkpt>
      <trkpt lat="44.26303" lon="5.73717">
        <ele>636</ele>
        <time>2019-06-19T07:37:53Z</time>
      </trkpt>
      <trkpt lat="44.26302" lon="5.73707">
        <ele>636</ele>
        <time>2019-06-19T07:37:54Z</time>
      </trkpt>
      <trkpt lat="44.263" lon="5.73697">
        <ele>636</ele>
        <time>2019-06-19T07:37:55Z</time>
      </trkpt>
      <trkpt lat="44.26299" lon="5.73686">
        <ele>636</ele>
        <time>2019-06-19T07:37:56Z</time>
      </trkpt>
      <trkpt lat="44.26297" lon="5.73676">
        <ele>636</ele>
        <time>2019-06-19T07:37:57Z</time>
      </trkpt>
      <trkpt lat="44.26295" lon="5.73666">
        <ele>636</ele>
        <time>2019-06-19T07:37:58Z</time>
      </trkpt>
      <trkpt lat="44.26293" lon="5.73656">
        <ele>636</ele>
        <time>2019-06-19T07:37:59Z</time>
      </trkpt>
      <trkpt lat="44.26292" lon="5.73646">
        <ele>636</ele>
        <time>2019-06-19T07:38:00Z</time>
      </trkpt>
      <trkpt lat="44.2629" lon="5.73636">
        <ele>636</ele>
        <time>2019-06-19T07:38:01Z</time>
      </trkpt>
      <trkpt lat="44.26289" lon="5.73626">
        <ele>636</ele>
        <time>2019-06-19T07:38:02Z</time>
      </trkpt>
      <trkpt lat="44.26287" lon="5.73617">
        <ele>636</ele>
        <time>2019-06-19T07:38:03Z</time>
      </trkpt>
      <trkpt lat="44.26285" lon="5.73607">
        <ele>636</ele>
        <time>2019-06-19T07:38:04Z</time>
      </trkpt>
      <trkpt lat="44.26284" lon="5.73597">
        <ele>636</ele>
        <time>2019-06-19T07:38:05Z</time>
      </trkpt>
      <trkpt lat="44.26283" lon="5.73588">
        <ele>636</ele>
        <time>2019-06-19T07:38:07Z</time>
      </trkpt>
      <trkpt lat="44.26281" lon="5.73579">
        <ele>636</ele>
        <time>2019-06-19T07:38:07Z</time>
      </trkpt>
      <trkpt lat="44.2628" lon="5.7357">
        <ele>636</ele>
        <time>2019-06-19T07:38:08Z</time>
      </trkpt>
      <trkpt lat="44.26279" lon="5.73561">
        <ele>636</ele>
        <time>2019-06-19T07:38:09Z</time>
      </trkpt>
      <trkpt lat="44.26278" lon="5.73552">
        <ele>636</ele>
        <time>2019-06-19T07:38:10Z</time>
      </trkpt>
      <trkpt lat="44.26276" lon="5.73543">
        <ele>636</ele>
        <time>2019-06-19T07:38:11Z</time>
      </trkpt>
      <trkpt lat="44.26274" lon="5.73534">
        <ele>636</ele>
        <time>2019-06-19T07:38:12Z</time>
      </trkpt>
      <trkpt lat="44.26273" lon="5.73526">
        <ele>636</ele>
        <time>2019-06-19T07:38:13Z</time>
      </trkpt>
      <trkpt lat="44.26272" lon="5.73518">
        <ele>636</ele>
        <time>2019-06-19T07:38:14Z</time>
      </trkpt>
      <trkpt lat="44.2627" lon="5.73509">
        <ele>636</ele>
        <time>2019-06-19T07:38:15Z</time>
      </trkpt>
      <trkpt lat="44.26269" lon="5.735">
        <ele>636</ele>
        <time>2019-06-19T07:38:16Z</time>
      </trkpt>
      <trkpt lat="44.26267" lon="5.73492">
        <ele>636</ele>
        <time>2019-06-19T07:38:17Z</time>
      </trkpt>
      <trkpt lat="44.26266" lon="5.73484">
        <ele>636</ele>
        <time>2019-06-19T07:38:18Z</time>
      </trkpt>
      <trkpt lat="44.26265" lon="5.73476">
        <ele>636</ele>
        <time>2019-06-19T07:38:19Z</time>
      </trkpt>
      <trkpt lat="44.26264" lon="5.73467">
        <ele>636</ele>
        <time>2019-06-19T07:38:20Z</time>
      </trkpt>
      <trkpt lat="44.26262" lon="5.73458">
        <ele>636</ele>
        <time>2019-06-19T07:38:21Z</time>
      </trkpt>
      <trkpt lat="44.2626" lon="5.7345">
        <ele>636</ele>
        <time>2019-06-19T07:38:22Z</time>
      </trkpt>
      <trkpt lat="44.26259" lon="5.73442">
        <ele>636</ele>
        <time>2019-06-19T07:38:23Z</time>
      </trkpt>
      <trkpt lat="44.26257" lon="5.73434">
        <ele>636</ele>
        <time>2019-06-19T07:38:24Z</time>
      </trkpt>
      <trkpt lat="44.26256" lon="5.73426">
        <ele>636</ele>
        <time>2019-06-19T07:38:25Z</time>
      </trkpt>
      <trkpt lat="44.26254" lon="5.73418">
        <ele>636</ele>
        <time>2019-06-19T07:38:26Z</time>
      </trkpt>
      <trkpt lat="44.26251" lon="5.73411">
        <ele>636</ele>
        <time>2019-06-19T07:38:27Z</time>
      </trkpt>
      <trkpt lat="44.26249" lon="5.73403">
        <ele>636</ele>
        <time>2019-06-19T07:38:28Z</time>
      </trkpt>
      <trkpt lat="44.26247" lon="5.73395">
        <ele>636</ele>
        <time>2019-06-19T07:38:29Z</time>
      </trkpt>
      <trkpt lat="44.26244" lon="5.73387">
        <ele>636</ele>
        <time>2019-06-19T07:38:30Z</time>
      </trkpt>
      <trkpt lat="44.26242" lon="5.73379">
        <ele>636</ele>
        <time>2019-06-19T07:38:31Z</time>
      </trkpt>
      <trkpt lat="44.26239" lon="5.73371">
        <ele>636</ele>
        <time>2019-06-19T07:38:32Z</time>
      </trkpt>
      <trkpt lat="44.26236" lon="5.73363">
        <ele>636</ele>
        <time>2019-06-19T07:38:33Z</time>
      </trkpt>
      <trkpt lat="44.26234" lon="5.73355">
        <ele>636</ele>
        <time>2019-06-19T07:38:34Z</time>
      </trkpt>
      <trkpt lat="44.26231" lon="5.73348">
        <ele>636</ele>
        <time>2019-06-19T07:38:35Z</time>
      </trkpt>
      <trkpt lat="44.26228" lon="5.73341">
        <ele>636</ele>
        <time>2019-06-19T07:38:36Z</time>
      </trkpt>
      <trkpt lat="44.26226" lon="5.73333">
        <ele>636</ele>
        <time>2019-06-19T07:38:37Z</time>
      </trkpt>
      <trkpt lat="44.26224" lon="5.73324">
        <ele>636</ele>
        <time>2019-06-19T07:38:38Z</time>
      </trkpt>
      <trkpt lat="44.26222" lon="5.73316">
        <ele>637</ele>
        <time>2019-06-19T07:38:39Z</time>
      </trkpt>
      <trkpt lat="44.2622" lon="5.73308">
        <ele>637</ele>
        <time>2019-06-19T07:38:40Z</time>
      </trkpt>
      <trkpt lat="44.26217" lon="5.733">
        <ele>638</ele>
        <time>2019-06-19T07:38:41Z</time>
      </trkpt>
      <trkpt lat="44.26215" lon="5.73291">
        <ele>639</ele>
        <time>2019-06-19T07:38:42Z</time>
      </trkpt>
      <trkpt lat="44.26213" lon="5.73283">
        <ele>640</ele>
        <time>2019-06-19T07:38:43Z</time>
      </trkpt>
      <trkpt lat="44.2621" lon="5.73275">
        <ele>641</ele>
        <time>2019-06-19T07:38:44Z</time>
      </trkpt>
      <trkpt lat="44.26209" lon="5.73266">
        <ele>642</ele>
        <time>2019-06-19T07:38:45Z</time>
      </trkpt>
      <trkpt lat="44.26207" lon="5.73258">
        <ele>643</ele>
        <time>2019-06-19T07:38:46Z</time>
      </trkpt>
      <trkpt lat="44.26205" lon="5.73251">
        <ele>643</ele>
        <time>2019-06-19T07:38:47Z</time>
      </trkpt>
      <trkpt lat="44.26202" lon="5.73245">
        <ele>644</ele>
        <time>2019-06-19T07:38:48Z</time>
      </trkpt>
      <trkpt lat="44.262" lon="5.73239">
        <ele>644</ele>
        <time>2019-06-19T07:38:49Z</time>
      </trkpt>
      <trkpt lat="44.26198" lon="5.73233">
        <ele>644</ele>
        <time>2019-06-19T07:38:50Z</time>
      </trkpt>
      <trkpt lat="44.26196" lon="5.73227">
        <ele>644</ele>
        <time>2019-06-19T07:38:51Z</time>
      </trkpt>
      <trkpt lat="44.26194" lon="5.7322">
        <ele>644</ele>
        <time>2019-06-19T07:38:52Z</time>
      </trkpt>
      <trkpt lat="44.26191" lon="5.73213">
        <ele>645</ele>
        <time>2019-06-19T07:38:53Z</time>
      </trkpt>
      <trkpt lat="44.26189" lon="5.73206">
        <ele>645</ele>
        <time>2019-06-19T07:38:54Z</time>
      </trkpt>
      <trkpt lat="44.26186" lon="5.732">
        <ele>645</ele>
        <time>2019-06-19T07:38:55Z</time>
      </trkpt>
      <trkpt lat="44.26183" lon="5.73191">
        <ele>645</ele>
        <time>2019-06-19T07:38:56Z</time>
      </trkpt>
      <trkpt lat="44.26181" lon="5.73184">
        <ele>645</ele>
        <time>2019-06-19T07:38:57Z</time>
      </trkpt>
      <trkpt lat="44.26178" lon="5.73176">
        <ele>645</ele>
        <time>2019-06-19T07:38:58Z</time>
      </trkpt>
      <trkpt lat="44.26176" lon="5.73169">
        <ele>645</ele>
        <time>2019-06-19T07:38:59Z</time>
      </trkpt>
      <trkpt lat="44.26173" lon="5.73161">
        <ele>645</ele>
        <time>2019-06-19T07:39:00Z</time>
      </trkpt>
      <trkpt lat="44.26171" lon="5.73152">
        <ele>646</ele>
        <time>2019-06-19T07:39:01Z</time>
      </trkpt>
      <trkpt lat="44.26168" lon="5.73144">
        <ele>646</ele>
        <time>2019-06-19T07:39:02Z</time>
      </trkpt>
      <trkpt lat="44.26166" lon="5.73136">
        <ele>647</ele>
        <time>2019-06-19T07:39:03Z</time>
      </trkpt>
      <trkpt lat="44.26164" lon="5.73129">
        <ele>647</ele>
        <time>2019-06-19T07:39:04Z</time>
      </trkpt>
      <trkpt lat="44.26163" lon="5.73122">
        <ele>647</ele>
        <time>2019-06-19T07:39:05Z</time>
      </trkpt>
      <trkpt lat="44.26161" lon="5.73114">
        <ele>647</ele>
        <time>2019-06-19T07:39:07Z</time>
      </trkpt>
      <trkpt lat="44.26159" lon="5.73107">
        <ele>647</ele>
        <time>2019-06-19T07:39:07Z</time>
      </trkpt>
      <trkpt lat="44.26157" lon="5.731">
        <ele>647</ele>
        <time>2019-06-19T07:39:08Z</time>
      </trkpt>
      <trkpt lat="44.26156" lon="5.73093">
        <ele>647</ele>
        <time>2019-06-19T07:39:09Z</time>
      </trkpt>
      <trkpt lat="44.26155" lon="5.73085">
        <ele>647</ele>
        <time>2019-06-19T07:39:10Z</time>
      </trkpt>
      <trkpt lat="44.26155" lon="5.73078">
        <ele>647</ele>
        <time>2019-06-19T07:39:11Z</time>
      </trkpt>
      <trkpt lat="44.26154" lon="5.73071">
        <ele>647</ele>
        <time>2019-06-19T07:39:12Z</time>
      </trkpt>
      <trkpt lat="44.26154" lon="5.73064">
        <ele>647</ele>
        <time>2019-06-19T07:39:13Z</time>
      </trkpt>
      <trkpt lat="44.26154" lon="5.73057">
        <ele>647</ele>
        <time>2019-06-19T07:39:14Z</time>
      </trkpt>
      <trkpt lat="44.26153" lon="5.7305">
        <ele>647</ele>
        <time>2019-06-19T07:39:15Z</time>
      </trkpt>
      <trkpt lat="44.26153" lon="5.73043">
        <ele>647</ele>
        <time>2019-06-19T07:39:16Z</time>
      </trkpt>
      <trkpt lat="44.26153" lon="5.73036">
        <ele>647</ele>
        <time>2019-06-19T07:39:17Z</time>
      </trkpt>
      <trkpt lat="44.26153" lon="5.73029">
        <ele>647</ele>
        <time>2019-06-19T07:39:18Z</time>
      </trkpt>
      <trkpt lat="44.26153" lon="5.73022">
        <ele>647</ele>
        <time>2019-06-19T07:39:19Z</time>
      </trkpt>
      <trkpt lat="44.26153" lon="5.73015">
        <ele>647</ele>
        <time>2019-06-19T07:39:20Z</time>
      </trkpt>
      <trkpt lat="44.26154" lon="5.73008">
        <ele>647</ele>
        <time>2019-06-19T07:39:21Z</time>
      </trkpt>
      <trkpt lat="44.26154" lon="5.73001">
        <ele>647</ele>
        <time>2019-06-19T07:39:22Z</time>
      </trkpt>
      <trkpt lat="44.26154" lon="5.72995">
        <ele>648</ele>
        <time>2019-06-19T07:39:23Z</time>
      </trkpt>
      <trkpt lat="44.26155" lon="5.72988">
        <ele>648</ele>
        <time>2019-06-19T07:39:24Z</time>
      </trkpt>
      <trkpt lat="44.26155" lon="5.72981">
        <ele>648</ele>
        <time>2019-06-19T07:39:25Z</time>
      </trkpt>
      <trkpt lat="44.26155" lon="5.72974">
        <ele>648</ele>
        <time>2019-06-19T07:39:26Z</time>
      </trkpt>
      <trkpt lat="44.26155" lon="5.72968">
        <ele>648</ele>
        <time>2019-06-19T07:39:27Z</time>
      </trkpt>
      <trkpt lat="44.26155" lon="5.72961">
        <ele>648</ele>
        <time>2019-06-19T07:39:28Z</time>
      </trkpt>
      <trkpt lat="44.26156" lon="5.72955">
        <ele>648</ele>
        <time>2019-06-19T07:39:29Z</time>
      </trkpt>
      <trkpt lat="44.26156" lon="5.72948">
        <ele>649</ele>
        <time>2019-06-19T07:39:30Z</time>
      </trkpt>
      <trkpt lat="44.26157" lon="5.72942">
        <ele>649</ele>
        <time>2019-06-19T07:39:31Z</time>
      </trkpt>
      <trkpt lat="44.26156" lon="5.72936">
        <ele>649</ele>
        <time>2019-06-19T07:39:32Z</time>
      </trkpt>
      <trkpt lat="44.26157" lon="5.72929">
        <ele>650</ele>
        <time>2019-06-19T07:39:33Z</time>
      </trkpt>
      <trkpt lat="44.26157" lon="5.72923">
        <ele>650</ele>
        <time>2019-06-19T07:39:34Z</time>
      </trkpt>
      <trkpt lat="44.26157" lon="5.72917">
        <ele>651</ele>
        <time>2019-06-19T07:39:35Z</time>
      </trkpt>
      <trkpt lat="44.26157" lon="5.7291">
        <ele>652</ele>
        <time>2019-06-19T07:39:36Z</time>
      </trkpt>
      <trkpt lat="44.26158" lon="5.72904">
        <ele>652</ele>
        <time>2019-06-19T07:39:37Z</time>
      </trkpt>
      <trkpt lat="44.26159" lon="5.72897">
        <ele>653</ele>
        <time>2019-06-19T07:39:38Z</time>
      </trkpt>
      <trkpt lat="44.26159" lon="5.72891">
        <ele>653</ele>
        <time>2019-06-19T07:39:39Z</time>
      </trkpt>
      <trkpt lat="44.2616" lon="5.72885">
        <ele>654</ele>
        <time>2019-06-19T07:39:40Z</time>
      </trkpt>
      <trkpt lat="44.2616" lon="5.72879">
        <ele>654</ele>
        <time>2019-06-19T07:39:41Z</time>
      </trkpt>
      <trkpt lat="44.2616" lon="5.72873">
        <ele>654</ele>
        <time>2019-06-19T07:39:42Z</time>
      </trkpt>
      <trkpt lat="44.2616" lon="5.72866">
        <ele>654</ele>
        <time>2019-06-19T07:39:43Z</time>
      </trkpt>
      <trkpt lat="44.26161" lon="5.7286">
        <ele>655</ele>
        <time>2019-06-19T07:39:44Z</time>
      </trkpt>
      <trkpt lat="44.26161" lon="5.72854">
        <ele>655</ele>
        <time>2019-06-19T07:39:45Z</time>
      </trkpt>
      <trkpt lat="44.26161" lon="5.72848">
        <ele>655</ele>
        <time>2019-06-19T07:39:46Z</time>
      </trkpt>
      <trkpt lat="44.26161" lon="5.72843">
        <ele>655</ele>
        <time>2019-06-19T07:39:47Z</time>
      </trkpt>
      <trkpt lat="44.26162" lon="5.72836">
        <ele>655</ele>
        <time>2019-06-19T07:39:48Z</time>
      </trkpt>
      <trkpt lat="44.26162" lon="5.7283">
        <ele>655</ele>
        <time>2019-06-19T07:39:49Z</time>
      </trkpt>
      <trkpt lat="44.26162" lon="5.72824">
        <ele>656</ele>
        <time>2019-06-19T07:39:50Z</time>
      </trkpt>
      <trkpt lat="44.26162" lon="5.72818">
        <ele>656</ele>
        <time>2019-06-19T07:39:51Z</time>
      </trkpt>
      <trkpt lat="44.26162" lon="5.72812">
        <ele>656</ele>
        <time>2019-06-19T07:39:52Z</time>
      </trkpt>
      <trkpt lat="44.26162" lon="5.72806">
        <ele>656</ele>
        <time>2019-06-19T07:39:53Z</time>
      </trkpt>
      <trkpt lat="44.26162" lon="5.72799">
        <ele>656</ele>
        <time>2019-06-19T07:39:54Z</time>
      </trkpt>
      <trkpt lat="44.26161" lon="5.72794">
        <ele>656</ele>
        <time>2019-06-19T07:39:55Z</time>
      </trkpt>
      <trkpt lat="44.26161" lon="5.72788">
        <ele>656</ele>
        <time>2019-06-19T07:39:56Z</time>
      </trkpt>
      <trkpt lat="44.26159" lon="5.72783">
        <ele>657</ele>
        <time>2019-06-19T07:39:57Z</time>
      </trkpt>
      <trkpt lat="44.26158" lon="5.72778">
        <ele>657</ele>
        <time>2019-06-19T07:39:58Z</time>
      </trkpt>
      <trkpt lat="44.26157" lon="5.72772">
        <ele>658</ele>
        <time>2019-06-19T07:39:59Z</time>
      </trkpt>
      <trkpt lat="44.26156" lon="5.72766">
        <ele>658</ele>
        <time>2019-06-19T07:40:00Z</time>
      </trkpt>
      <trkpt lat="44.26154" lon="5.72761">
        <ele>658</ele>
        <time>2019-06-19T07:40:01Z</time>
      </trkpt>
      <trkpt lat="44.26154" lon="5.72753">
        <ele>658</ele>
        <time>2019-06-19T07:40:02Z</time>
      </trkpt>
      <trkpt lat="44.26153" lon="5.72747">
        <ele>658</ele>
        <time>2019-06-19T07:40:03Z</time>
      </trkpt>
      <trkpt lat="44.26152" lon="5.7274">
        <ele>658</ele>
        <time>2019-06-19T07:40:04Z</time>
      </trkpt>
      <trkpt lat="44.2615" lon="5.72734">
        <ele>658</ele>
        <time>2019-06-19T07:40:05Z</time>
      </trkpt>
      <trkpt lat="44.26149" lon="5.72728">
        <ele>658</ele>
        <time>2019-06-19T07:40:07Z</time>
      </trkpt>
      <trkpt lat="44.26148" lon="5.72722">
        <ele>658</ele>
        <time>2019-06-19T07:40:07Z</time>
      </trkpt>
      <trkpt lat="44.26146" lon="5.72717">
        <ele>658</ele>
        <time>2019-06-19T07:40:08Z</time>
      </trkpt>
      <trkpt lat="44.26146" lon="5.7271">
        <ele>658</ele>
        <time>2019-06-19T07:40:09Z</time>
      </trkpt>
      <trkpt lat="44.26144" lon="5.72704">
        <ele>658</ele>
        <time>2019-06-19T07:40:10Z</time>
      </trkpt>
      <trkpt lat="44.26142" lon="5.72699">
        <ele>658</ele>
        <time>2019-06-19T07:40:11Z</time>
      </trkpt>
      <trkpt lat="44.26141" lon="5.72693">
        <ele>658</ele>
        <time>2019-06-19T07:40:12Z</time>
      </trkpt>
      <trkpt lat="44.2614" lon="5.72687">
        <ele>658</ele>
        <time>2019-06-19T07:40:13Z</time>
      </trkpt>
      <trkpt lat="44.26139" lon="5.72681">
        <ele>658</ele>
        <time>2019-06-19T07:40:14Z</time>
      </trkpt>
      <trkpt lat="44.26138" lon="5.72675">
        <ele>658</ele>
        <time>2019-06-19T07:40:15Z</time>
      </trkpt>
      <trkpt lat="44.26136" lon="5.72669">
        <ele>658</ele>
        <time>2019-06-19T07:40:16Z</time>
      </trkpt>
      <trkpt lat="44.26135" lon="5.72663">
        <ele>658</ele>
        <time>2019-06-19T07:40:17Z</time>
      </trkpt>
      <trkpt lat="44.26134" lon="5.72657">
        <ele>658</ele>
        <time>2019-06-19T07:40:18Z</time>
      </trkpt>
      <trkpt lat="44.26132" lon="5.72652">
        <ele>658</ele>
        <time>2019-06-19T07:40:19Z</time>
      </trkpt>
      <trkpt lat="44.26131" lon="5.72647">
        <ele>658</ele>
        <time>2019-06-19T07:40:20Z</time>
      </trkpt>
      <trkpt lat="44.26129" lon="5.72641">
        <ele>658</ele>
        <time>2019-06-19T07:40:21Z</time>
      </trkpt>
      <trkpt lat="44.26127" lon="5.72636">
        <ele>658</ele>
        <time>2019-06-19T07:40:22Z</time>
      </trkpt>
      <trkpt lat="44.26125" lon="5.7263">
        <ele>658</ele>
        <time>2019-06-19T07:40:23Z</time>
      </trkpt>
      <trkpt lat="44.26123" lon="5.72624">
        <ele>658</ele>
        <time>2019-06-19T07:40:24Z</time>
      </trkpt>
      <trkpt lat="44.26121" lon="5.72618">
        <ele>658</ele>
        <time>2019-06-19T07:40:25Z</time>
      </trkpt>
      <trkpt lat="44.26119" lon="5.72612">
        <ele>658</ele>
        <time>2019-06-19T07:40:26Z</time>
      </trkpt>
      <trkpt lat="44.26117" lon="5.72605">
        <ele>658</ele>
        <time>2019-06-19T07:40:27Z</time>
      </trkpt>
      <trkpt lat="44.26115" lon="5.72598">
        <ele>658</ele>
        <time>2019-06-19T07:40:28Z</time>
      </trkpt>
      <trkpt lat="44.26114" lon="5.72591">
        <ele>658</ele>
        <time>2019-06-19T07:40:29Z</time>
      </trkpt>
      <trkpt lat="44.26112" lon="5.72583">
        <ele>658</ele>
        <time>2019-06-19T07:40:30Z</time>
      </trkpt>
      <trkpt lat="44.26111" lon="5.72575">
        <ele>658</ele>
        <time>2019-06-19T07:40:31Z</time>
      </trkpt>
      <trkpt lat="44.26109" lon="5.72567">
        <ele>658</ele>
        <time>2019-06-19T07:40:32Z</time>
      </trkpt>
      <trkpt lat="44.26107" lon="5.72559">
        <ele>658</ele>
        <time>2019-06-19T07:40:33Z</time>
      </trkpt>
      <trkpt lat="44.26104" lon="5.72551">
        <ele>658</ele>
        <time>2019-06-19T07:40:34Z</time>
      </trkpt>
      <trkpt lat="44.26102" lon="5.72542">
        <ele>658</ele>
        <time>2019-06-19T07:40:35Z</time>
      </trkpt>
      <trkpt lat="44.26101" lon="5.72533">
        <ele>658</ele>
        <time>2019-06-19T07:40:36Z</time>
      </trkpt>
      <trkpt lat="44.26098" lon="5.72524">
        <ele>658</ele>
        <time>2019-06-19T07:40:37Z</time>
      </trkpt>
      <trkpt lat="44.26096" lon="5.72515">
        <ele>658</ele>
        <time>2019-06-19T07:40:38Z</time>
      </trkpt>
      <trkpt lat="44.26094" lon="5.72506">
        <ele>658</ele>
        <time>2019-06-19T07:40:39Z</time>
      </trkpt>
      <trkpt lat="44.26092" lon="5.72497">
        <ele>658</ele>
        <time>2019-06-19T07:40:40Z</time>
      </trkpt>
      <trkpt lat="44.2609" lon="5.72487">
        <ele>658</ele>
        <time>2019-06-19T07:40:41Z</time>
      </trkpt>
      <trkpt lat="44.26088" lon="5.72476">
        <ele>658</ele>
        <time>2019-06-19T07:40:42Z</time>
      </trkpt>
      <trkpt lat="44.26087" lon="5.72466">
        <ele>658</ele>
        <time>2019-06-19T07:40:43Z</time>
      </trkpt>
      <trkpt lat="44.26085" lon="5.72456">
        <ele>658</ele>
        <time>2019-06-19T07:40:44Z</time>
      </trkpt>
      <trkpt lat="44.26083" lon="5.72445">
        <ele>658</ele>
        <time>2019-06-19T07:40:45Z</time>
      </trkpt>
      <trkpt lat="44.26081" lon="5.72435">
        <ele>658</ele>
        <time>2019-06-19T07:40:46Z</time>
      </trkpt>
      <trkpt lat="44.26079" lon="5.72425">
        <ele>658</ele>
        <time>2019-06-19T07:40:47Z</time>
      </trkpt>
      <trkpt lat="44.26076" lon="5.72415">
        <ele>658</ele>
        <time>2019-06-19T07:40:48Z</time>
      </trkpt>
      <trkpt lat="44.26074" lon="5.72406">
        <ele>658</ele>
        <time>2019-06-19T07:40:49Z</time>
      </trkpt>
      <trkpt lat="44.26071" lon="5.72398">
        <ele>659</ele>
        <time>2019-06-19T07:40:50Z</time>
      </trkpt>
      <trkpt lat="44.26067" lon="5.72389">
        <ele>659</ele>
        <time>2019-06-19T07:40:51Z</time>
      </trkpt>
      <trkpt lat="44.26064" lon="5.72381">
        <ele>659</ele>
        <time>2019-06-19T07:40:52Z</time>
      </trkpt>
      <trkpt lat="44.26061" lon="5.72373">
        <ele>659</ele>
        <time>2019-06-19T07:40:53Z</time>
      </trkpt>
      <trkpt lat="44.26057" lon="5.72365">
        <ele>660</ele>
        <time>2019-06-19T07:40:54Z</time>
      </trkpt>
      <trkpt lat="44.26053" lon="5.72357">
        <ele>660</ele>
        <time>2019-06-19T07:40:55Z</time>
      </trkpt>
      <trkpt lat="44.26049" lon="5.72349">
        <ele>660</ele>
        <time>2019-06-19T07:40:56Z</time>
      </trkpt>
      <trkpt lat="44.26045" lon="5.72341">
        <ele>660</ele>
        <time>2019-06-19T07:40:57Z</time>
      </trkpt>
      <trkpt lat="44.26041" lon="5.72334">
        <ele>661</ele>
        <time>2019-06-19T07:40:58Z</time>
      </trkpt>
      <trkpt lat="44.26038" lon="5.72326">
        <ele>661</ele>
        <time>2019-06-19T07:40:59Z</time>
      </trkpt>
      <trkpt lat="44.26035" lon="5.72319">
        <ele>661</ele>
        <time>2019-06-19T07:41:00Z</time>
      </trkpt>
      <trkpt lat="44.26031" lon="5.72311">
        <ele>661</ele>
        <time>2019-06-19T07:41:01Z</time>
      </trkpt>
      <trkpt lat="44.26028" lon="5.72304">
        <ele>662</ele>
        <time>2019-06-19T07:41:02Z</time>
      </trkpt>
      <trkpt lat="44.26024" lon="5.72297">
        <ele>662</ele>
        <time>2019-06-19T07:41:03Z</time>
      </trkpt>
      <trkpt lat="44.2602" lon="5.72289">
        <ele>662</ele>
        <time>2019-06-19T07:41:04Z</time>
      </trkpt>
      <trkpt lat="44.26017" lon="5.72282">
        <ele>663</ele>
        <time>2019-06-19T07:41:05Z</time>
      </trkpt>
      <trkpt lat="44.26013" lon="5.72275">
        <ele>663</ele>
        <time>2019-06-19T07:41:07Z</time>
      </trkpt>
      <trkpt lat="44.26009" lon="5.72267">
        <ele>663</ele>
        <time>2019-06-19T07:41:07Z</time>
      </trkpt>
      <trkpt lat="44.26006" lon="5.7226">
        <ele>663</ele>
        <time>2019-06-19T07:41:08Z</time>
      </trkpt>
      <trkpt lat="44.26003" lon="5.72252">
        <ele>663</ele>
        <time>2019-06-19T07:41:09Z</time>
      </trkpt>
      <trkpt lat="44.25999" lon="5.72245">
        <ele>663</ele>
        <time>2019-06-19T07:41:10Z</time>
      </trkpt>
      <trkpt lat="44.25996" lon="5.72237">
        <ele>663</ele>
        <time>2019-06-19T07:41:11Z</time>
      </trkpt>
      <trkpt lat="44.25992" lon="5.72229">
        <ele>663</ele>
        <time>2019-06-19T07:41:12Z</time>
      </trkpt>
      <trkpt lat="44.25989" lon="5.72222">
        <ele>663</ele>
        <time>2019-06-19T07:41:13Z</time>
      </trkpt>
      <trkpt lat="44.25985" lon="5.72215">
        <ele>664</ele>
        <time>2019-06-19T07:41:14Z</time>
      </trkpt>
      <trkpt lat="44.25982" lon="5.72208">
        <ele>664</ele>
        <time>2019-06-19T07:41:15Z</time>
      </trkpt>
      <trkpt lat="44.25978" lon="5.72201">
        <ele>665</ele>
        <time>2019-06-19T07:41:16Z</time>
      </trkpt>
      <trkpt lat="44.25975" lon="5.72194">
        <ele>665</ele>
        <time>2019-06-19T07:41:17Z</time>
      </trkpt>
      <trkpt lat="44.25972" lon="5.72187">
        <ele>665</ele>
        <time>2019-06-19T07:41:18Z</time>
      </trkpt>
      <trkpt lat="44.25968" lon="5.7218">
        <ele>665</ele>
        <time>2019-06-19T07:41:19Z</time>
      </trkpt>
      <trkpt lat="44.25964" lon="5.72172">
        <ele>665</ele>
        <time>2019-06-19T07:41:20Z</time>
      </trkpt>
      <trkpt lat="44.2596" lon="5.72164">
        <ele>665</ele>
        <time>2019-06-19T07:41:21Z</time>
      </trkpt>
      <trkpt lat="44.25956" lon="5.72156">
        <ele>665</ele>
        <time>2019-06-19T07:41:22Z</time>
      </trkpt>
      <trkpt lat="44.25953" lon="5.72148">
        <ele>665</ele>
        <time>2019-06-19T07:41:23Z</time>
      </trkpt>
      <trkpt lat="44.25949" lon="5.7214">
        <ele>665</ele>
        <time>2019-06-19T07:41:24Z</time>
      </trkpt>
      <trkpt lat="44.25944" lon="5.72132">
        <ele>665</ele>
        <time>2019-06-19T07:41:25Z</time>
      </trkpt>
      <trkpt lat="44.2594" lon="5.72124">
        <ele>665</ele>
        <time>2019-06-19T07:41:26Z</time>
      </trkpt>
      <trkpt lat="44.25935" lon="5.72117">
        <ele>665</ele>
        <time>2019-06-19T07:41:27Z</time>
      </trkpt>
      <trkpt lat="44.2593" lon="5.72109">
        <ele>665</ele>
        <time>2019-06-19T07:41:28Z</time>
      </trkpt>
      <trkpt lat="44.25925" lon="5.72102">
        <ele>665</ele>
        <time>2019-06-19T07:41:29Z</time>
      </trkpt>
      <trkpt lat="44.2592" lon="5.72094">
        <ele>665</ele>
        <time>2019-06-19T07:41:30Z</time>
      </trkpt>
      <trkpt lat="44.25915" lon="5.72087">
        <ele>665</ele>
        <time>2019-06-19T07:41:31Z</time>
      </trkpt>
      <trkpt lat="44.2591" lon="5.72079">
        <ele>665</ele>
        <time>2019-06-19T07:41:32Z</time>
      </trkpt>
      <trkpt lat="44.25905" lon="5.72072">
        <ele>665</ele>
        <time>2019-06-19T07:41:33Z</time>
      </trkpt>
      <trkpt lat="44.259" lon="5.72065">
        <ele>665</ele>
        <time>2019-06-19T07:41:34Z</time>
      </trkpt>
      <trkpt lat="44.25894" lon="5.72059">
        <ele>665</ele>
        <time>2019-06-19T07:41:35Z</time>
      </trkpt>
      <trkpt lat="44.25888" lon="5.72054">
        <ele>665</ele>
        <time>2019-06-19T07:41:36Z</time>
      </trkpt>
      <trkpt lat="44.25881" lon="5.72049">
        <ele>665</ele>
        <time>2019-06-19T07:41:37Z</time>
      </trkpt>
      <trkpt lat="44.25875" lon="5.72044">
        <ele>665</ele>
        <time>2019-06-19T07:41:38Z</time>
      </trkpt>
      <trkpt lat="44.25868" lon="5.7204">
        <ele>665</ele>
        <time>2019-06-19T07:41:39Z</time>
      </trkpt>
      <trkpt lat="44.25862" lon="5.72035">
        <ele>665</ele>
        <time>2019-06-19T07:41:40Z</time>
      </trkpt>
      <trkpt lat="44.25856" lon="5.72031">
        <ele>665</ele>
        <time>2019-06-19T07:41:41Z</time>
      </trkpt>
      <trkpt lat="44.2585" lon="5.72027">
        <ele>665</ele>
        <time>2019-06-19T07:41:42Z</time>
      </trkpt>
      <trkpt lat="44.25843" lon="5.72022">
        <ele>665</ele>
        <time>2019-06-19T07:41:43Z</time>
      </trkpt>
      <trkpt lat="44.25837" lon="5.72018">
        <ele>665</ele>
        <time>2019-06-19T07:41:44Z</time>
      </trkpt>
      <trkpt lat="44.25832" lon="5.72014">
        <ele>665</ele>
        <time>2019-06-19T07:41:45Z</time>
      </trkpt>
      <trkpt lat="44.25826" lon="5.7201">
        <ele>665</ele>
        <time>2019-06-19T07:41:46Z</time>
      </trkpt>
      <trkpt lat="44.25819" lon="5.72005">
        <ele>665</ele>
        <time>2019-06-19T07:41:47Z</time>
      </trkpt>
      <trkpt lat="44.25814" lon="5.72001">
        <ele>665</ele>
        <time>2019-06-19T07:41:48Z</time>
      </trkpt>
      <trkpt lat="44.25808" lon="5.71997">
        <ele>665</ele>
        <time>2019-06-19T07:41:49Z</time>
      </trkpt>
      <trkpt lat="44.25801" lon="5.71993">
        <ele>665</ele>
        <time>2019-06-19T07:41:50Z</time>
      </trkpt>
      <trkpt lat="44.25796" lon="5.71988">
        <ele>665</ele>
        <time>2019-06-19T07:41:51Z</time>
      </trkpt>
      <trkpt lat="44.2579" lon="5.71984">
        <ele>665</ele>
        <time>2019-06-19T07:41:52Z</time>
      </trkpt>
      <trkpt lat="44.25784" lon="5.7198">
        <ele>665</ele>
        <time>2019-06-19T07:41:53Z</time>
      </trkpt>
      <trkpt lat="44.25779" lon="5.71976">
        <ele>665</ele>
        <time>2019-06-19T07:41:54Z</time>
      </trkpt>
      <trkpt lat="44.25773" lon="5.71972">
        <ele>665</ele>
        <time>2019-06-19T07:41:55Z</time>
      </trkpt>
      <trkpt lat="44.25768" lon="5.71968">
        <ele>665</ele>
        <time>2019-06-19T07:41:56Z</time>
      </trkpt>
      <trkpt lat="44.25762" lon="5.71963">
        <ele>665</ele>
        <time>2019-06-19T07:41:57Z</time>
      </trkpt>
      <trkpt lat="44.25757" lon="5.71959">
        <ele>665</ele>
        <time>2019-06-19T07:41:58Z</time>
      </trkpt>
      <trkpt lat="44.25752" lon="5.71955">
        <ele>665</ele>
        <time>2019-06-19T07:41:59Z</time>
      </trkpt>
      <trkpt lat="44.25746" lon="5.7195">
        <ele>665</ele>
        <time>2019-06-19T07:42:00Z</time>
      </trkpt>
      <trkpt lat="44.25741" lon="5.71945">
        <ele>665</ele>
        <time>2019-06-19T07:42:01Z</time>
      </trkpt>
      <trkpt lat="44.25736" lon="5.71941">
        <ele>665</ele>
        <time>2019-06-19T07:42:02Z</time>
      </trkpt>
      <trkpt lat="44.25731" lon="5.71936">
        <ele>665</ele>
        <time>2019-06-19T07:42:03Z</time>
      </trkpt>
      <trkpt lat="44.25726" lon="5.71931">
        <ele>665</ele>
        <time>2019-06-19T07:42:04Z</time>
      </trkpt>
      <trkpt lat="44.2572" lon="5.71927">
        <ele>665</ele>
        <time>2019-06-19T07:42:05Z</time>
      </trkpt>
      <trkpt lat="44.25715" lon="5.71922">
        <ele>665</ele>
        <time>2019-06-19T07:42:07Z</time>
      </trkpt>
      <trkpt lat="44.2571" lon="5.71917">
        <ele>665</ele>
        <time>2019-06-19T07:42:07Z</time>
      </trkpt>
      <trkpt lat="44.25704" lon="5.71912">
        <ele>665</ele>
        <time>2019-06-19T07:42:08Z</time>
      </trkpt>
      <trkpt lat="44.25699" lon="5.71908">
        <ele>665</ele>
        <time>2019-06-19T07:42:09Z</time>
      </trkpt>
      <trkpt lat="44.25693" lon="5.71905">
        <ele>665</ele>
        <time>2019-06-19T07:42:10Z</time>
      </trkpt>
      <trkpt lat="44.25687" lon="5.71902">
        <ele>665</ele>
        <time>2019-06-19T07:42:11Z</time>
      </trkpt>
      <trkpt lat="44.25682" lon="5.71899">
        <ele>665</ele>
        <time>2019-06-19T07:42:12Z</time>
      </trkpt>
      <trkpt lat="44.25676" lon="5.71897">
        <ele>665</ele>
        <time>2019-06-19T07:42:13Z</time>
      </trkpt>
      <trkpt lat="44.2567" lon="5.71895">
        <ele>665</ele>
        <time>2019-06-19T07:42:14Z</time>
      </trkpt>
      <trkpt lat="44.25664" lon="5.71892">
        <ele>665</ele>
        <time>2019-06-19T07:42:15Z</time>
      </trkpt>
      <trkpt lat="44.25658" lon="5.7189">
        <ele>665</ele>
        <time>2019-06-19T07:42:16Z</time>
      </trkpt>
      <trkpt lat="44.25652" lon="5.71887">
        <ele>665</ele>
        <time>2019-06-19T07:42:17Z</time>
      </trkpt>
      <trkpt lat="44.25647" lon="5.71884">
        <ele>665</ele>
        <time>2019-06-19T07:42:18Z</time>
      </trkpt>
      <trkpt lat="44.25641" lon="5.7188">
        <ele>665</ele>
        <time>2019-06-19T07:42:19Z</time>
      </trkpt>
      <trkpt lat="44.25636" lon="5.71875">
        <ele>665</ele>
        <time>2019-06-19T07:42:20Z</time>
      </trkpt>
      <trkpt lat="44.25631" lon="5.7187">
        <ele>665</ele>
        <time>2019-06-19T07:42:21Z</time>
      </trkpt>
      <trkpt lat="44.25626" lon="5.71865">
        <ele>665</ele>
        <time>2019-06-19T07:42:22Z</time>
      </trkpt>
      <trkpt lat="44.25621" lon="5.71861">
        <ele>665</ele>
        <time>2019-06-19T07:42:23Z</time>
      </trkpt>
      <trkpt lat="44.25616" lon="5.71855">
        <ele>665</ele>
        <time>2019-06-19T07:42:24Z</time>
      </trkpt>
      <trkpt lat="44.25611" lon="5.71851">
        <ele>665</ele>
        <time>2019-06-19T07:42:25Z</time>
      </trkpt>
      <trkpt lat="44.25606" lon="5.71846">
        <ele>665</ele>
        <time>2019-06-19T07:42:26Z</time>
      </trkpt>
      <trkpt lat="44.25601" lon="5.71841">
        <ele>665</ele>
        <time>2019-06-19T07:42:27Z</time>
      </trkpt>
      <trkpt lat="44.25595" lon="5.71837">
        <ele>665</ele>
        <time>2019-06-19T07:42:28Z</time>
      </trkpt>
      <trkpt lat="44.25591" lon="5.71832">
        <ele>665</ele>
        <time>2019-06-19T07:42:29Z</time>
      </trkpt>
      <trkpt lat="44.25586" lon="5.71827">
        <ele>665</ele>
        <time>2019-06-19T07:42:30Z</time>
      </trkpt>
      <trkpt lat="44.25581" lon="5.71822">
        <ele>665</ele>
        <time>2019-06-19T07:42:31Z</time>
      </trkpt>
      <trkpt lat="44.25576" lon="5.71817">
        <ele>665</ele>
        <time>2019-06-19T07:42:32Z</time>
      </trkpt>
      <trkpt lat="44.25572" lon="5.71812">
        <ele>665</ele>
        <time>2019-06-19T07:42:33Z</time>
      </trkpt>
      <trkpt lat="44.25567" lon="5.71808">
        <ele>665</ele>
        <time>2019-06-19T07:42:34Z</time>
      </trkpt>
      <trkpt lat="44.25562" lon="5.71804">
        <ele>665</ele>
        <time>2019-06-19T07:42:35Z</time>
      </trkpt>
      <trkpt lat="44.25557" lon="5.71799">
        <ele>665</ele>
        <time>2019-06-19T07:42:36Z</time>
      </trkpt>
      <trkpt lat="44.25552" lon="5.71795">
        <ele>665</ele>
        <time>2019-06-19T07:42:37Z</time>
      </trkpt>
      <trkpt lat="44.25547" lon="5.71791">
        <ele>665</ele>
        <time>2019-06-19T07:42:38Z</time>
      </trkpt>
      <trkpt lat="44.25543" lon="5.71786">
        <ele>665</ele>
        <time>2019-06-19T07:42:39Z</time>
      </trkpt>
      <trkpt lat="44.25538" lon="5.71783">
        <ele>665</ele>
        <time>2019-06-19T07:42:40Z</time>
      </trkpt>
      <trkpt lat="44.25533" lon="5.71779">
        <ele>665</ele>
        <time>2019-06-19T07:42:41Z</time>
      </trkpt>
      <trkpt lat="44.25528" lon="5.71775">
        <ele>665</ele>
        <time>2019-06-19T07:42:42Z</time>
      </trkpt>
      <trkpt lat="44.25523" lon="5.71772">
        <ele>665</ele>
        <time>2019-06-19T07:42:43Z</time>
      </trkpt>
      <trkpt lat="44.25518" lon="5.71768">
        <ele>665</ele>
        <time>2019-06-19T07:42:44Z</time>
      </trkpt>
      <trkpt lat="44.25512" lon="5.71765">
        <ele>665</ele>
        <time>2019-06-19T07:42:45Z</time>
      </trkpt>
      <trkpt lat="44.25507" lon="5.71761">
        <ele>665</ele>
        <time>2019-06-19T07:42:46Z</time>
      </trkpt>
      <trkpt lat="44.25501" lon="5.71758">
        <ele>665</ele>
        <time>2019-06-19T07:42:47Z</time>
      </trkpt>
      <trkpt lat="44.25496" lon="5.71755">
        <ele>665</ele>
        <time>2019-06-19T07:42:48Z</time>
      </trkpt>
      <trkpt lat="44.2549" lon="5.71751">
        <ele>665</ele>
        <time>2019-06-19T07:42:49Z</time>
      </trkpt>
      <trkpt lat="44.25484" lon="5.71748">
        <ele>665</ele>
        <time>2019-06-19T07:42:50Z</time>
      </trkpt>
      <trkpt lat="44.25479" lon="5.71744">
        <ele>665</ele>
        <time>2019-06-19T07:42:51Z</time>
      </trkpt>
      <trkpt lat="44.25473" lon="5.71741">
        <ele>665</ele>
        <time>2019-06-19T07:42:52Z</time>
      </trkpt>
      <trkpt lat="44.25468" lon="5.71737">
        <ele>665</ele>
        <time>2019-06-19T07:42:53Z</time>
      </trkpt>
      <trkpt lat="44.25462" lon="5.71734">
        <ele>665</ele>
        <time>2019-06-19T07:42:54Z</time>
      </trkpt>
      <trkpt lat="44.25457" lon="5.7173">
        <ele>665</ele>
        <time>2019-06-19T07:42:55Z</time>
      </trkpt>
      <trkpt lat="44.25451" lon="5.71726">
        <ele>665</ele>
        <time>2019-06-19T07:42:56Z</time>
      </trkpt>
      <trkpt lat="44.25446" lon="5.71723">
        <ele>665</ele>
        <time>2019-06-19T07:42:57Z</time>
      </trkpt>
      <trkpt lat="44.2544" lon="5.7172">
        <ele>665</ele>
        <time>2019-06-19T07:42:58Z</time>
      </trkpt>
      <trkpt lat="44.25434" lon="5.71716">
        <ele>665</ele>
        <time>2019-06-19T07:42:59Z</time>
      </trkpt>
      <trkpt lat="44.25429" lon="5.71713">
        <ele>665</ele>
        <time>2019-06-19T07:43:00Z</time>
      </trkpt>
      <trkpt lat="44.25423" lon="5.71709">
        <ele>665</ele>
        <time>2019-06-19T07:43:01Z</time>
      </trkpt>
      <trkpt lat="44.25418" lon="5.71706">
        <ele>665</ele>
        <time>2019-06-19T07:43:02Z</time>
      </trkpt>
      <trkpt lat="44.25412" lon="5.71703">
        <ele>665</ele>
        <time>2019-06-19T07:43:03Z</time>
      </trkpt>
      <trkpt lat="44.25406" lon="5.71701">
        <ele>665</ele>
        <time>2019-06-19T07:43:04Z</time>
      </trkpt>
      <trkpt lat="44.25401" lon="5.71698">
        <ele>665</ele>
        <time>2019-06-19T07:43:05Z</time>
      </trkpt>
      <trkpt lat="44.25395" lon="5.71696">
        <ele>665</ele>
        <time>2019-06-19T07:43:06Z</time>
      </trkpt>
      <trkpt lat="44.25389" lon="5.71693">
        <ele>665</ele>
        <time>2019-06-19T07:43:07Z</time>
      </trkpt>
      <trkpt lat="44.25383" lon="5.7169">
        <ele>665</ele>
        <time>2019-06-19T07:43:08Z</time>
      </trkpt>
      <trkpt lat="44.25378" lon="5.71686">
        <ele>665</ele>
        <time>2019-06-19T07:43:09Z</time>
      </trkpt>
      <trkpt lat="44.25372" lon="5.71682">
        <ele>665</ele>
        <time>2019-06-19T07:43:10Z</time>
      </trkpt>
      <trkpt lat="44.25367" lon="5.71677">
        <ele>665</ele>
        <time>2019-06-19T07:43:11Z</time>
      </trkpt>
      <trkpt lat="44.25362" lon="5.71673">
        <ele>665</ele>
        <time>2019-06-19T07:43:12Z</time>
      </trkpt>
      <trkpt lat="44.25357" lon="5.71668">
        <ele>665</ele>
        <time>2019-06-19T07:43:13Z</time>
      </trkpt>
      <trkpt lat="44.25352" lon="5.71663">
        <ele>665</ele>
        <time>2019-06-19T07:43:14Z</time>
      </trkpt>
      <trkpt lat="44.25346" lon="5.71658">
        <ele>665</ele>
        <time>2019-06-19T07:43:15Z</time>
      </trkpt>
      <trkpt lat="44.25341" lon="5.71653">
        <ele>665</ele>
        <time>2019-06-19T07:43:16Z</time>
      </trkpt>
      <trkpt lat="44.25337" lon="5.71647">
        <ele>665</ele>
        <time>2019-06-19T07:43:17Z</time>
      </trkpt>
      <trkpt lat="44.25332" lon="5.71641">
        <ele>665</ele>
        <time>2019-06-19T07:43:18Z</time>
      </trkpt>
      <trkpt lat="44.25327" lon="5.71636">
        <ele>665</ele>
        <time>2019-06-19T07:43:19Z</time>
      </trkpt>
      <trkpt lat="44.25322" lon="5.7163">
        <ele>665</ele>
        <time>2019-06-19T07:43:20Z</time>
      </trkpt>
      <trkpt lat="44.25317" lon="5.71625">
        <ele>665</ele>
        <time>2019-06-19T07:43:21Z</time>
      </trkpt>
      <trkpt lat="44.25312" lon="5.7162">
        <ele>665</ele>
        <time>2019-06-19T07:43:22Z</time>
      </trkpt>
      <trkpt lat="44.25307" lon="5.71615">
        <ele>665</ele>
        <time>2019-06-19T07:43:23Z</time>
      </trkpt>
      <trkpt lat="44.25303" lon="5.71609">
        <ele>665</ele>
        <time>2019-06-19T07:43:24Z</time>
      </trkpt>
      <trkpt lat="44.25298" lon="5.71603">
        <ele>665</ele>
        <time>2019-06-19T07:43:25Z</time>
      </trkpt>
      <trkpt lat="44.25293" lon="5.71598">
        <ele>665</ele>
        <time>2019-06-19T07:43:26Z</time>
      </trkpt>
      <trkpt lat="44.25288" lon="5.71592">
        <ele>665</ele>
        <time>2019-06-19T07:43:27Z</time>
      </trkpt>
      <trkpt lat="44.25283" lon="5.71586">
        <ele>665</ele>
        <time>2019-06-19T07:43:28Z</time>
      </trkpt>
      <trkpt lat="44.25279" lon="5.71581">
        <ele>665</ele>
        <time>2019-06-19T07:43:29Z</time>
      </trkpt>
      <trkpt lat="44.25274" lon="5.71575">
        <ele>665</ele>
        <time>2019-06-19T07:43:30Z</time>
      </trkpt>
      <trkpt lat="44.2527" lon="5.71569">
        <ele>665</ele>
        <time>2019-06-19T07:43:32Z</time>
      </trkpt>
      <trkpt lat="44.25265" lon="5.71564">
        <ele>665</ele>
        <time>2019-06-19T07:43:32Z</time>
      </trkpt>
      <trkpt lat="44.25261" lon="5.71559">
        <ele>665</ele>
        <time>2019-06-19T07:43:33Z</time>
      </trkpt>
      <trkpt lat="44.25256" lon="5.71554">
        <ele>665</ele>
        <time>2019-06-19T07:43:34Z</time>
      </trkpt>
      <trkpt lat="44.25252" lon="5.71548">
        <ele>665</ele>
        <time>2019-06-19T07:43:35Z</time>
      </trkpt>
      <trkpt lat="44.25248" lon="5.71543">
        <ele>665</ele>
        <time>2019-06-19T07:43:36Z</time>
      </trkpt>
      <trkpt lat="44.25243" lon="5.71538">
        <ele>665</ele>
        <time>2019-06-19T07:43:37Z</time>
      </trkpt>
      <trkpt lat="44.25239" lon="5.71533">
        <ele>665</ele>
        <time>2019-06-19T07:43:38Z</time>
      </trkpt>
      <trkpt lat="44.25234" lon="5.71529">
        <ele>665</ele>
        <time>2019-06-19T07:43:39Z</time>
      </trkpt>
      <trkpt lat="44.2523" lon="5.71524">
        <ele>665</ele>
        <time>2019-06-19T07:43:40Z</time>
      </trkpt>
      <trkpt lat="44.25226" lon="5.71519">
        <ele>665</ele>
        <time>2019-06-19T07:43:41Z</time>
      </trkpt>
      <trkpt lat="44.25221" lon="5.71515">
        <ele>665</ele>
        <time>2019-06-19T07:43:42Z</time>
      </trkpt>
      <trkpt lat="44.25217" lon="5.7151">
        <ele>665</ele>
        <time>2019-06-19T07:43:43Z</time>
      </trkpt>
      <trkpt lat="44.25212" lon="5.71505">
        <ele>665</ele>
        <time>2019-06-19T07:43:44Z</time>
      </trkpt>
      <trkpt lat="44.25207" lon="5.71501">
        <ele>665</ele>
        <time>2019-06-19T07:43:45Z</time>
      </trkpt>
      <trkpt lat="44.25203" lon="5.71496">
        <ele>665</ele>
        <time>2019-06-19T07:43:46Z</time>
      </trkpt>
      <trkpt lat="44.25198" lon="5.71492">
        <ele>665</ele>
        <time>2019-06-19T07:43:47Z</time>
      </trkpt>
      <trkpt lat="44.25194" lon="5.71487">
        <ele>665</ele>
        <time>2019-06-19T07:43:48Z</time>
      </trkpt>
      <trkpt lat="44.25189" lon="5.71482">
        <ele>665</ele>
        <time>2019-06-19T07:43:49Z</time>
      </trkpt>
      <trkpt lat="44.25184" lon="5.71477">
        <ele>665</ele>
        <time>2019-06-19T07:43:50Z</time>
      </trkpt>
      <trkpt lat="44.2518" lon="5.71472">
        <ele>665</ele>
        <time>2019-06-19T07:43:51Z</time>
      </trkpt>
      <trkpt lat="44.25175" lon="5.71467">
        <ele>665</ele>
        <time>2019-06-19T07:43:52Z</time>
      </trkpt>
      <trkpt lat="44.2517" lon="5.71462">
        <ele>665</ele>
        <time>2019-06-19T07:43:53Z</time>
      </trkpt>
      <trkpt lat="44.25165" lon="5.71457">
        <ele>665</ele>
        <time>2019-06-19T07:43:54Z</time>
      </trkpt>
      <trkpt lat="44.2516" lon="5.71452">
        <ele>665</ele>
        <time>2019-06-19T07:43:55Z</time>
      </trkpt>
      <trkpt lat="44.25155" lon="5.71447">
        <ele>665</ele>
        <time>2019-06-19T07:43:56Z</time>
      </trkpt>
      <trkpt lat="44.2515" lon="5.71441">
        <ele>665</ele>
        <time>2019-06-19T07:43:57Z</time>
      </trkpt>
      <trkpt lat="44.25145" lon="5.71436">
        <ele>665</ele>
        <time>2019-06-19T07:43:58Z</time>
      </trkpt>
      <trkpt lat="44.2514" lon="5.7143">
        <ele>665</ele>
        <time>2019-06-19T07:43:59Z</time>
      </trkpt>
      <trkpt lat="44.25135" lon="5.71424">
        <ele>665</ele>
        <time>2019-06-19T07:44:00Z</time>
      </trkpt>
      <trkpt lat="44.2513" lon="5.71417">
        <ele>665</ele>
        <time>2019-06-19T07:44:01Z</time>
      </trkpt>
      <trkpt lat="44.25126" lon="5.7141">
        <ele>665</ele>
        <time>2019-06-19T07:44:02Z</time>
      </trkpt>
      <trkpt lat="44.25121" lon="5.71402">
        <ele>664</ele>
        <time>2019-06-19T07:44:03Z</time>
      </trkpt>
      <trkpt lat="44.25117" lon="5.71393">
        <ele>663</ele>
        <time>2019-06-19T07:44:04Z</time>
      </trkpt>
      <trkpt lat="44.25114" lon="5.71385">
        <ele>663</ele>
        <time>2019-06-19T07:44:05Z</time>
      </trkpt>
      <trkpt lat="44.25109" lon="5.71376">
        <ele>662</ele>
        <time>2019-06-19T07:44:06Z</time>
      </trkpt>
      <trkpt lat="44.25105" lon="5.71366">
        <ele>661</ele>
        <time>2019-06-19T07:44:07Z</time>
      </trkpt>
      <trkpt lat="44.25101" lon="5.71357">
        <ele>661</ele>
        <time>2019-06-19T07:44:08Z</time>
      </trkpt>
      <trkpt lat="44.25097" lon="5.71347">
        <ele>660</ele>
        <time>2019-06-19T07:44:09Z</time>
      </trkpt>
      <trkpt lat="44.25092" lon="5.71338">
        <ele>660</ele>
        <time>2019-06-19T07:44:10Z</time>
      </trkpt>
      <trkpt lat="44.25087" lon="5.71328">
        <ele>660</ele>
        <time>2019-06-19T07:44:11Z</time>
      </trkpt>
      <trkpt lat="44.25082" lon="5.71319">
        <ele>660</ele>
        <time>2019-06-19T07:44:12Z</time>
      </trkpt>
      <trkpt lat="44.25078" lon="5.71309">
        <ele>660</ele>
        <time>2019-06-19T07:44:13Z</time>
      </trkpt>
      <trkpt lat="44.25073" lon="5.71301">
        <ele>660</ele>
        <time>2019-06-19T07:44:14Z</time>
      </trkpt>
      <trkpt lat="44.25069" lon="5.71292">
        <ele>660</ele>
        <time>2019-06-19T07:44:15Z</time>
      </trkpt>
      <trkpt lat="44.25065" lon="5.71283">
        <ele>660</ele>
        <time>2019-06-19T07:44:16Z</time>
      </trkpt>
      <trkpt lat="44.25062" lon="5.71274">
        <ele>660</ele>
        <time>2019-06-19T07:44:17Z</time>
      </trkpt>
      <trkpt lat="44.25058" lon="5.71266">
        <ele>660</ele>
        <time>2019-06-19T07:44:18Z</time>
      </trkpt>
      <trkpt lat="44.25056" lon="5.71258">
        <ele>660</ele>
        <time>2019-06-19T07:44:19Z</time>
      </trkpt>
      <trkpt lat="44.25053" lon="5.71249">
        <ele>660</ele>
        <time>2019-06-19T07:44:20Z</time>
      </trkpt>
      <trkpt lat="44.2505" lon="5.71241">
        <ele>660</ele>
        <time>2019-06-19T07:44:21Z</time>
      </trkpt>
      <trkpt lat="44.25047" lon="5.71233">
        <ele>660</ele>
        <time>2019-06-19T07:44:22Z</time>
      </trkpt>
      <trkpt lat="44.25044" lon="5.71225">
        <ele>660</ele>
        <time>2019-06-19T07:44:23Z</time>
      </trkpt>
      <trkpt lat="44.25041" lon="5.71217">
        <ele>660</ele>
        <time>2019-06-19T07:44:24Z</time>
      </trkpt>
      <trkpt lat="44.25038" lon="5.71209">
        <ele>660</ele>
        <time>2019-06-19T07:44:25Z</time>
      </trkpt>
      <trkpt lat="44.25034" lon="5.71202">
        <ele>660</ele>
        <time>2019-06-19T07:44:26Z</time>
      </trkpt>
      <trkpt lat="44.25031" lon="5.71195">
        <ele>660</ele>
        <time>2019-06-19T07:44:27Z</time>
      </trkpt>
      <trkpt lat="44.25027" lon="5.71188">
        <ele>660</ele>
        <time>2019-06-19T07:44:28Z</time>
      </trkpt>
      <trkpt lat="44.25023" lon="5.71182">
        <ele>660</ele>
        <time>2019-06-19T07:44:29Z</time>
      </trkpt>
      <trkpt lat="44.25019" lon="5.71176">
        <ele>660</ele>
        <time>2019-06-19T07:44:30Z</time>
      </trkpt>
      <trkpt lat="44.25016" lon="5.71171">
        <ele>660</ele>
        <time>2019-06-19T07:44:31Z</time>
      </trkpt>
      <trkpt lat="44.25011" lon="5.71166">
        <ele>660</ele>
        <time>2019-06-19T07:44:32Z</time>
      </trkpt>
      <trkpt lat="44.25008" lon="5.71161">
        <ele>660</ele>
        <time>2019-06-19T07:44:33Z</time>
      </trkpt>
      <trkpt lat="44.25004" lon="5.71156">
        <ele>660</ele>
        <time>2019-06-19T07:44:34Z</time>
      </trkpt>
      <trkpt lat="44.25001" lon="5.71151">
        <ele>660</ele>
        <time>2019-06-19T07:44:35Z</time>
      </trkpt>
      <trkpt lat="44.24997" lon="5.71146">
        <ele>660</ele>
        <time>2019-06-19T07:44:36Z</time>
      </trkpt>
      <trkpt lat="44.24994" lon="5.71141">
        <ele>660</ele>
        <time>2019-06-19T07:44:37Z</time>
      </trkpt>
      <trkpt lat="44.2499" lon="5.71136">
        <ele>660</ele>
        <time>2019-06-19T07:44:38Z</time>
      </trkpt>
      <trkpt lat="44.24987" lon="5.71131">
        <ele>660</ele>
        <time>2019-06-19T07:44:39Z</time>
      </trkpt>
      <trkpt lat="44.24984" lon="5.71126">
        <ele>660</ele>
        <time>2019-06-19T07:44:40Z</time>
      </trkpt>
      <trkpt lat="44.2498" lon="5.71121">
        <ele>660</ele>
        <time>2019-06-19T07:44:41Z</time>
      </trkpt>
      <trkpt lat="44.24977" lon="5.71116">
        <ele>660</ele>
        <time>2019-06-19T07:44:42Z</time>
      </trkpt>
      <trkpt lat="44.24974" lon="5.71111">
        <ele>660</ele>
        <time>2019-06-19T07:44:43Z</time>
      </trkpt>
      <trkpt lat="44.24971" lon="5.71107">
        <ele>660</ele>
        <time>2019-06-19T07:44:44Z</time>
      </trkpt>
      <trkpt lat="44.24967" lon="5.71102">
        <ele>660</ele>
        <time>2019-06-19T07:44:45Z</time>
      </trkpt>
      <trkpt lat="44.24964" lon="5.71098">
        <ele>660</ele>
        <time>2019-06-19T07:44:46Z</time>
      </trkpt>
      <trkpt lat="44.24961" lon="5.71094">
        <ele>660</ele>
        <time>2019-06-19T07:44:47Z</time>
      </trkpt>
      <trkpt lat="44.24957" lon="5.7109">
        <ele>660</ele>
        <time>2019-06-19T07:44:48Z</time>
      </trkpt>
      <trkpt lat="44.24954" lon="5.71085">
        <ele>660</ele>
        <time>2019-06-19T07:44:49Z</time>
      </trkpt>
      <trkpt lat="44.24951" lon="5.71081">
        <ele>660</ele>
        <time>2019-06-19T07:44:50Z</time>
      </trkpt>
      <trkpt lat="44.24948" lon="5.71076">
        <ele>660</ele>
        <time>2019-06-19T07:44:51Z</time>
      </trkpt>
      <trkpt lat="44.24945" lon="5.71072">
        <ele>660</ele>
        <time>2019-06-19T07:44:52Z</time>
      </trkpt>
      <trkpt lat="44.24942" lon="5.71068">
        <ele>660</ele>
        <time>2019-06-19T07:44:53Z</time>
      </trkpt>
      <trkpt lat="44.24938" lon="5.71064">
        <ele>660</ele>
        <time>2019-06-19T07:44:54Z</time>
      </trkpt>
      <trkpt lat="44.24935" lon="5.71059">
        <ele>660</ele>
        <time>2019-06-19T07:44:55Z</time>
      </trkpt>
      <trkpt lat="44.24932" lon="5.71054">
        <ele>660</ele>
        <time>2019-06-19T07:44:56Z</time>
      </trkpt>
      <trkpt lat="44.24929" lon="5.71049">
        <ele>660</ele>
        <time>2019-06-19T07:44:57Z</time>
      </trkpt>
      <trkpt lat="44.24926" lon="5.71045">
        <ele>660</ele>
        <time>2019-06-19T07:44:58Z</time>
      </trkpt>
      <trkpt lat="44.24923" lon="5.7104">
        <ele>660</ele>
        <time>2019-06-19T07:44:59Z</time>
      </trkpt>
      <trkpt lat="44.24919" lon="5.71036">
        <ele>660</ele>
        <time>2019-06-19T07:45:00Z</time>
      </trkpt>
      <trkpt lat="44.24916" lon="5.71031">
        <ele>660</ele>
        <time>2019-06-19T07:45:01Z</time>
      </trkpt>
      <trkpt lat="44.24913" lon="5.71027">
        <ele>660</ele>
        <time>2019-06-19T07:45:02Z</time>
      </trkpt>
      <trkpt lat="44.2491" lon="5.71022">
        <ele>660</ele>
        <time>2019-06-19T07:45:03Z</time>
      </trkpt>
      <trkpt lat="44.24907" lon="5.71018">
        <ele>660</ele>
        <time>2019-06-19T07:45:04Z</time>
      </trkpt>
      <trkpt lat="44.24903" lon="5.71013">
        <ele>660</ele>
        <time>2019-06-19T07:45:05Z</time>
      </trkpt>
      <trkpt lat="44.249" lon="5.71008">
        <ele>660</ele>
        <time>2019-06-19T07:45:06Z</time>
      </trkpt>
      <trkpt lat="44.24896" lon="5.71003">
        <ele>660</ele>
        <time>2019-06-19T07:45:07Z</time>
      </trkpt>
      <trkpt lat="44.24893" lon="5.70998">
        <ele>660</ele>
        <time>2019-06-19T07:45:08Z</time>
      </trkpt>
      <trkpt lat="44.24889" lon="5.70994">
        <ele>660</ele>
        <time>2019-06-19T07:45:09Z</time>
      </trkpt>
      <trkpt lat="44.24885" lon="5.70989">
        <ele>660</ele>
        <time>2019-06-19T07:45:10Z</time>
      </trkpt>
      <trkpt lat="44.24881" lon="5.70985">
        <ele>660</ele>
        <time>2019-06-19T07:45:11Z</time>
      </trkpt>
      <trkpt lat="44.24876" lon="5.70981">
        <ele>660</ele>
        <time>2019-06-19T07:45:12Z</time>
      </trkpt>
      <trkpt lat="44.24873" lon="5.70977">
        <ele>660</ele>
        <time>2019-06-19T07:45:13Z</time>
      </trkpt>
      <trkpt lat="44.24869" lon="5.70972">
        <ele>660</ele>
        <time>2019-06-19T07:45:14Z</time>
      </trkpt>
      <trkpt lat="44.24865" lon="5.70968">
        <ele>660</ele>
        <time>2019-06-19T07:45:15Z</time>
      </trkpt>
      <trkpt lat="44.24862" lon="5.70964">
        <ele>661</ele>
        <time>2019-06-19T07:45:16Z</time>
      </trkpt>
      <trkpt lat="44.24858" lon="5.7096">
        <ele>661</ele>
        <time>2019-06-19T07:45:17Z</time>
      </trkpt>
      <trkpt lat="44.24854" lon="5.70956">
        <ele>661</ele>
        <time>2019-06-19T07:45:18Z</time>
      </trkpt>
      <trkpt lat="44.2485" lon="5.70952">
        <ele>661</ele>
        <time>2019-06-19T07:45:19Z</time>
      </trkpt>
      <trkpt lat="44.24846" lon="5.70948">
        <ele>661</ele>
        <time>2019-06-19T07:45:20Z</time>
      </trkpt>
      <trkpt lat="44.24842" lon="5.70943">
        <ele>661</ele>
        <time>2019-06-19T07:45:21Z</time>
      </trkpt>
      <trkpt lat="44.24839" lon="5.70939">
        <ele>661</ele>
        <time>2019-06-19T07:45:22Z</time>
      </trkpt>
      <trkpt lat="44.24834" lon="5.70934">
        <ele>661</ele>
        <time>2019-06-19T07:45:23Z</time>
      </trkpt>
      <trkpt lat="44.2483" lon="5.7093">
        <ele>661</ele>
        <time>2019-06-19T07:45:24Z</time>
      </trkpt>
      <trkpt lat="44.24826" lon="5.70926">
        <ele>661</ele>
        <time>2019-06-19T07:45:25Z</time>
      </trkpt>
      <trkpt lat="44.24822" lon="5.70921">
        <ele>661</ele>
        <time>2019-06-19T07:45:26Z</time>
      </trkpt>
      <trkpt lat="44.24818" lon="5.70917">
        <ele>661</ele>
        <time>2019-06-19T07:45:27Z</time>
      </trkpt>
      <trkpt lat="44.24813" lon="5.70912">
        <ele>661</ele>
        <time>2019-06-19T07:45:28Z</time>
      </trkpt>
      <trkpt lat="44.24809" lon="5.70907">
        <ele>661</ele>
        <time>2019-06-19T07:45:29Z</time>
      </trkpt>
      <trkpt lat="44.24805" lon="5.70902">
        <ele>661</ele>
        <time>2019-06-19T07:45:30Z</time>
      </trkpt>
      <trkpt lat="44.24801" lon="5.70897">
        <ele>661</ele>
        <time>2019-06-19T07:45:31Z</time>
      </trkpt>
      <trkpt lat="44.24797" lon="5.70892">
        <ele>661</ele>
        <time>2019-06-19T07:45:32Z</time>
      </trkpt>
      <trkpt lat="44.24793" lon="5.70887">
        <ele>661</ele>
        <time>2019-06-19T07:45:33Z</time>
      </trkpt>
      <trkpt lat="44.24789" lon="5.70882">
        <ele>661</ele>
        <time>2019-06-19T07:45:34Z</time>
      </trkpt>
      <trkpt lat="44.24784" lon="5.70878">
        <ele>661</ele>
        <time>2019-06-19T07:45:35Z</time>
      </trkpt>
      <trkpt lat="44.2478" lon="5.70874">
        <ele>662</ele>
        <time>2019-06-19T07:45:36Z</time>
      </trkpt>
      <trkpt lat="44.24775" lon="5.7087">
        <ele>662</ele>
        <time>2019-06-19T07:45:37Z</time>
      </trkpt>
      <trkpt lat="44.2477" lon="5.70865">
        <ele>662</ele>
        <time>2019-06-19T07:45:38Z</time>
      </trkpt>
      <trkpt lat="44.24766" lon="5.70861">
        <ele>662</ele>
        <time>2019-06-19T07:45:39Z</time>
      </trkpt>
      <trkpt lat="44.24761" lon="5.70857">
        <ele>663</ele>
        <time>2019-06-19T07:45:40Z</time>
      </trkpt>
      <trkpt lat="44.24756" lon="5.70853">
        <ele>663</ele>
        <time>2019-06-19T07:45:41Z</time>
      </trkpt>
      <trkpt lat="44.24751" lon="5.7085">
        <ele>663</ele>
        <time>2019-06-19T07:45:42Z</time>
      </trkpt>
      <trkpt lat="44.24746" lon="5.70846">
        <ele>663</ele>
        <time>2019-06-19T07:45:43Z</time>
      </trkpt>
      <trkpt lat="44.24741" lon="5.70843">
        <ele>663</ele>
        <time>2019-06-19T07:45:44Z</time>
      </trkpt>
      <trkpt lat="44.24736" lon="5.70839">
        <ele>663</ele>
        <time>2019-06-19T07:45:45Z</time>
      </trkpt>
      <trkpt lat="44.24731" lon="5.70836">
        <ele>663</ele>
        <time>2019-06-19T07:45:46Z</time>
      </trkpt>
      <trkpt lat="44.24727" lon="5.70833">
        <ele>663</ele>
        <time>2019-06-19T07:45:47Z</time>
      </trkpt>
      <trkpt lat="44.24722" lon="5.7083">
        <ele>663</ele>
        <time>2019-06-19T07:45:48Z</time>
      </trkpt>
      <trkpt lat="44.24718" lon="5.70827">
        <ele>663</ele>
        <time>2019-06-19T07:45:49Z</time>
      </trkpt>
      <trkpt lat="44.24713" lon="5.70824">
        <ele>663</ele>
        <time>2019-06-19T07:45:50Z</time>
      </trkpt>
      <trkpt lat="44.24709" lon="5.70821">
        <ele>663</ele>
        <time>2019-06-19T07:45:51Z</time>
      </trkpt>
      <trkpt lat="44.24704" lon="5.70818">
        <ele>663</ele>
        <time>2019-06-19T07:45:52Z</time>
      </trkpt>
      <trkpt lat="44.247" lon="5.70816">
        <ele>663</ele>
        <time>2019-06-19T07:45:53Z</time>
      </trkpt>
      <trkpt lat="44.24696" lon="5.70813">
        <ele>663</ele>
        <time>2019-06-19T07:45:54Z</time>
      </trkpt>
      <trkpt lat="44.24691" lon="5.7081">
        <ele>663</ele>
        <time>2019-06-19T07:45:55Z</time>
      </trkpt>
      <trkpt lat="44.24686" lon="5.70807">
        <ele>663</ele>
        <time>2019-06-19T07:45:56Z</time>
      </trkpt>
      <trkpt lat="44.24682" lon="5.70803">
        <ele>663</ele>
        <time>2019-06-19T07:45:57Z</time>
      </trkpt>
      <trkpt lat="44.24677" lon="5.708">
        <ele>663</ele>
        <time>2019-06-19T07:45:58Z</time>
      </trkpt>
      <trkpt lat="44.24673" lon="5.70795">
        <ele>663</ele>
        <time>2019-06-19T07:45:59Z</time>
      </trkpt>
      <trkpt lat="44.2467" lon="5.70791">
        <ele>663</ele>
        <time>2019-06-19T07:46:00Z</time>
      </trkpt>
      <trkpt lat="44.24666" lon="5.70787">
        <ele>663</ele>
        <time>2019-06-19T07:46:01Z</time>
      </trkpt>
      <trkpt lat="44.24663" lon="5.70782">
        <ele>664</ele>
        <time>2019-06-19T07:46:02Z</time>
      </trkpt>
      <trkpt lat="44.2466" lon="5.70777">
        <ele>664</ele>
        <time>2019-06-19T07:46:03Z</time>
      </trkpt>
      <trkpt lat="44.24658" lon="5.70772">
        <ele>664</ele>
        <time>2019-06-19T07:46:04Z</time>
      </trkpt>
      <trkpt lat="44.24655" lon="5.70766">
        <ele>664</ele>
        <time>2019-06-19T07:46:05Z</time>
      </trkpt>
      <trkpt lat="44.24652" lon="5.70761">
        <ele>664</ele>
        <time>2019-06-19T07:46:06Z</time>
      </trkpt>
      <trkpt lat="44.2465" lon="5.70756">
        <ele>664</ele>
        <time>2019-06-19T07:46:07Z</time>
      </trkpt>
      <trkpt lat="44.24647" lon="5.70751">
        <ele>664</ele>
        <time>2019-06-19T07:46:08Z</time>
      </trkpt>
      <trkpt lat="44.24644" lon="5.70745">
        <ele>664</ele>
        <time>2019-06-19T07:46:09Z</time>
      </trkpt>
      <trkpt lat="44.24641" lon="5.70738">
        <ele>664</ele>
        <time>2019-06-19T07:46:10Z</time>
      </trkpt>
      <trkpt lat="44.24638" lon="5.70731">
        <ele>664</ele>
        <time>2019-06-19T07:46:11Z</time>
      </trkpt>
      <trkpt lat="44.24635" lon="5.70725">
        <ele>664</ele>
        <time>2019-06-19T07:46:12Z</time>
      </trkpt>
      <trkpt lat="44.24631" lon="5.70718">
        <ele>664</ele>
        <time>2019-06-19T07:46:13Z</time>
      </trkpt>
      <trkpt lat="44.24628" lon="5.70712">
        <ele>664</ele>
        <time>2019-06-19T07:46:14Z</time>
      </trkpt>
      <trkpt lat="44.24627" lon="5.70707">
        <ele>664</ele>
        <time>2019-06-19T07:46:15Z</time>
      </trkpt>
      <trkpt lat="44.24627" lon="5.70701">
        <ele>664</ele>
        <time>2019-06-19T07:46:16Z</time>
      </trkpt>
      <trkpt lat="44.24628" lon="5.70695">
        <ele>664</ele>
        <time>2019-06-19T07:46:17Z</time>
      </trkpt>
      <trkpt lat="44.24632" lon="5.7069">
        <ele>664</ele>
        <time>2019-06-19T07:46:18Z</time>
      </trkpt>
      <trkpt lat="44.24638" lon="5.70688">
        <ele>664</ele>
        <time>2019-06-19T07:46:19Z</time>
      </trkpt>
      <trkpt lat="44.24644" lon="5.70688">
        <ele>664</ele>
        <time>2019-06-19T07:46:20Z</time>
      </trkpt>
      <trkpt lat="44.24651" lon="5.70688">
        <ele>664</ele>
        <time>2019-06-19T07:46:21Z</time>
      </trkpt>
      <trkpt lat="44.24658" lon="5.70688">
        <ele>664</ele>
        <time>2019-06-19T07:46:22Z</time>
      </trkpt>
      <trkpt lat="44.24665" lon="5.70688">
        <ele>664</ele>
        <time>2019-06-19T07:46:23Z</time>
      </trkpt>
      <trkpt lat="44.24671" lon="5.70687">
        <ele>664</ele>
        <time>2019-06-19T07:46:24Z</time>
      </trkpt>
      <trkpt lat="44.24678" lon="5.70687">
        <ele>664</ele>
        <time>2019-06-19T07:46:25Z</time>
      </trkpt>
      <trkpt lat="44.24686" lon="5.70686">
        <ele>664</ele>
        <time>2019-06-19T07:46:26Z</time>
      </trkpt>
      <trkpt lat="44.24693" lon="5.70685">
        <ele>664</ele>
        <time>2019-06-19T07:46:27Z</time>
      </trkpt>
      <trkpt lat="44.24699" lon="5.70685">
        <ele>664</ele>
        <time>2019-06-19T07:46:28Z</time>
      </trkpt>
      <trkpt lat="44.24706" lon="5.70684">
        <ele>664</ele>
        <time>2019-06-19T07:46:29Z</time>
      </trkpt>
      <trkpt lat="44.24712" lon="5.70683">
        <ele>664</ele>
        <time>2019-06-19T07:46:30Z</time>
      </trkpt>
      <trkpt lat="44.24718" lon="5.70682">
        <ele>664</ele>
        <time>2019-06-19T07:46:31Z</time>
      </trkpt>
      <trkpt lat="44.24725" lon="5.70681">
        <ele>664</ele>
        <time>2019-06-19T07:46:32Z</time>
      </trkpt>
      <trkpt lat="44.24732" lon="5.70681">
        <ele>664</ele>
        <time>2019-06-19T07:46:33Z</time>
      </trkpt>
      <trkpt lat="44.24739" lon="5.70679">
        <ele>664</ele>
        <time>2019-06-19T07:46:34Z</time>
      </trkpt>
      <trkpt lat="44.24746" lon="5.70676">
        <ele>664</ele>
        <time>2019-06-19T07:46:35Z</time>
      </trkpt>
      <trkpt lat="44.24752" lon="5.7067">
        <ele>664</ele>
        <time>2019-06-19T07:46:36Z</time>
      </trkpt>
      <trkpt lat="44.24754" lon="5.7066">
        <ele>664</ele>
        <time>2019-06-19T07:46:37Z</time>
      </trkpt>
      <trkpt lat="44.24753" lon="5.7065">
        <ele>664</ele>
        <time>2019-06-19T07:46:38Z</time>
      </trkpt>
      <trkpt lat="44.24751" lon="5.70642">
        <ele>664</ele>
        <time>2019-06-19T07:46:39Z</time>
      </trkpt>
      <trkpt lat="44.24749" lon="5.70634">
        <ele>664</ele>
        <time>2019-06-19T07:46:40Z</time>
      </trkpt>
      <trkpt lat="44.24747" lon="5.70625">
        <ele>664</ele>
        <time>2019-06-19T07:46:41Z</time>
      </trkpt>
      <trkpt lat="44.24744" lon="5.70616">
        <ele>664</ele>
        <time>2019-06-19T07:46:42Z</time>
      </trkpt>
      <trkpt lat="44.2474" lon="5.70608">
        <ele>664</ele>
        <time>2019-06-19T07:46:43Z</time>
      </trkpt>
      <trkpt lat="44.24736" lon="5.70601">
        <ele>664</ele>
        <time>2019-06-19T07:46:44Z</time>
      </trkpt>
      <trkpt lat="44.24731" lon="5.70595">
        <ele>664</ele>
        <time>2019-06-19T07:46:45Z</time>
      </trkpt>
      <trkpt lat="44.24726" lon="5.70592">
        <ele>664</ele>
        <time>2019-06-19T07:46:46Z</time>
      </trkpt>
      <trkpt lat="44.24721" lon="5.70589">
        <ele>664</ele>
        <time>2019-06-19T07:46:47Z</time>
      </trkpt>
      <trkpt lat="44.24715" lon="5.70586">
        <ele>664</ele>
        <time>2019-06-19T07:46:48Z</time>
      </trkpt>
      <trkpt lat="44.24708" lon="5.70582">
        <ele>664</ele>
        <time>2019-06-19T07:46:49Z</time>
      </trkpt>
      <trkpt lat="44.24702" lon="5.70577">
        <ele>664</ele>
        <time>2019-06-19T07:46:50Z</time>
      </trkpt>
      <trkpt lat="44.24698" lon="5.7057">
        <ele>664</ele>
        <time>2019-06-19T07:46:51Z</time>
      </trkpt>
      <trkpt lat="44.24696" lon="5.70561">
        <ele>664</ele>
        <time>2019-06-19T07:46:52Z</time>
      </trkpt>
      <trkpt lat="44.24696" lon="5.70552">
        <ele>664</ele>
        <time>2019-06-19T07:46:53Z</time>
      </trkpt>
      <trkpt lat="44.24699" lon="5.70544">
        <ele>664</ele>
        <time>2019-06-19T07:46:54Z</time>
      </trkpt>
      <trkpt lat="44.24704" lon="5.70537">
        <ele>664</ele>
        <time>2019-06-19T07:46:55Z</time>
      </trkpt>
      <trkpt lat="44.2471" lon="5.70531">
        <ele>664</ele>
        <time>2019-06-19T07:46:56Z</time>
      </trkpt>
      <trkpt lat="44.24715" lon="5.70525">
        <ele>664</ele>
        <time>2019-06-19T07:46:57Z</time>
      </trkpt>
      <trkpt lat="44.24721" lon="5.70519">
        <ele>664</ele>
        <time>2019-06-19T07:46:58Z</time>
      </trkpt>
      <trkpt lat="44.24728" lon="5.70513">
        <ele>664</ele>
        <time>2019-06-19T07:46:59Z</time>
      </trkpt>
      <trkpt lat="44.24734" lon="5.70507">
        <ele>664</ele>
        <time>2019-06-19T07:47:00Z</time>
      </trkpt>
      <trkpt lat="44.2474" lon="5.705">
        <ele>663</ele>
        <time>2019-06-19T07:47:01Z</time>
      </trkpt>
      <trkpt lat="44.24746" lon="5.70494">
        <ele>663</ele>
        <time>2019-06-19T07:47:02Z</time>
      </trkpt>
      <trkpt lat="44.24751" lon="5.70487">
        <ele>662</ele>
        <time>2019-06-19T07:47:03Z</time>
      </trkpt>
      <trkpt lat="44.24757" lon="5.7048">
        <ele>662</ele>
        <time>2019-06-19T07:47:04Z</time>
      </trkpt>
      <trkpt lat="44.24762" lon="5.70474">
        <ele>661</ele>
        <time>2019-06-19T07:47:05Z</time>
      </trkpt>
      <trkpt lat="44.24768" lon="5.70467">
        <ele>661</ele>
        <time>2019-06-19T07:47:06Z</time>
      </trkpt>
      <trkpt lat="44.24773" lon="5.7046">
        <ele>660</ele>
        <time>2019-06-19T07:47:07Z</time>
      </trkpt>
      <trkpt lat="44.24778" lon="5.70451">
        <ele>660</ele>
        <time>2019-06-19T07:47:08Z</time>
      </trkpt>
      <trkpt lat="44.24783" lon="5.70443">
        <ele>660</ele>
        <time>2019-06-19T07:47:09Z</time>
      </trkpt>
      <trkpt lat="44.24786" lon="5.70434">
        <ele>659</ele>
        <time>2019-06-19T07:47:10Z</time>
      </trkpt>
      <trkpt lat="44.24789" lon="5.70423">
        <ele>659</ele>
        <time>2019-06-19T07:47:11Z</time>
      </trkpt>
      <trkpt lat="44.24791" lon="5.70414">
        <ele>659</ele>
        <time>2019-06-19T07:47:12Z</time>
      </trkpt>
      <trkpt lat="44.24794" lon="5.70404">
        <ele>659</ele>
        <time>2019-06-19T07:47:13Z</time>
      </trkpt>
      <trkpt lat="44.24796" lon="5.70396">
        <ele>659</ele>
        <time>2019-06-19T07:47:14Z</time>
      </trkpt>
      <trkpt lat="44.24797" lon="5.70389">
        <ele>659</ele>
        <time>2019-06-19T07:47:15Z</time>
      </trkpt>
      <trkpt lat="44.24799" lon="5.70382">
        <ele>659</ele>
        <time>2019-06-19T07:47:16Z</time>
      </trkpt>
      <trkpt lat="44.24801" lon="5.70376">
        <ele>658</ele>
        <time>2019-06-19T07:47:17Z</time>
      </trkpt>
      <trkpt lat="44.24801" lon="5.70371">
        <ele>657</ele>
        <time>2019-06-19T07:47:18Z</time>
      </trkpt>
      <trkpt lat="44.24801" lon="5.70365">
        <ele>656</ele>
        <time>2019-06-19T07:47:19Z</time>
      </trkpt>
      <trkpt lat="44.248" lon="5.7036">
        <ele>655</ele>
        <time>2019-06-19T07:47:20Z</time>
      </trkpt>
      <trkpt lat="44.24799" lon="5.70356">
        <ele>654</ele>
        <time>2019-06-19T07:47:21Z</time>
      </trkpt>
      <trkpt lat="44.24797" lon="5.70351">
        <ele>654</ele>
        <time>2019-06-19T07:47:22Z</time>
      </trkpt>
      <trkpt lat="44.24794" lon="5.70346">
        <ele>654</ele>
        <time>2019-06-19T07:47:23Z</time>
      </trkpt>
      <trkpt lat="44.24791" lon="5.70342">
        <ele>654</ele>
        <time>2019-06-19T07:47:24Z</time>
      </trkpt>
      <trkpt lat="44.24788" lon="5.70338">
        <ele>654</ele>
        <time>2019-06-19T07:47:25Z</time>
      </trkpt>
      <trkpt lat="44.24784" lon="5.70336">
        <ele>654</ele>
        <time>2019-06-19T07:47:26Z</time>
      </trkpt>
      <trkpt lat="44.2478" lon="5.70335">
        <ele>654</ele>
        <time>2019-06-19T07:47:27Z</time>
      </trkpt>
      <trkpt lat="44.24775" lon="5.70336">
        <ele>654</ele>
        <time>2019-06-19T07:47:28Z</time>
      </trkpt>
      <trkpt lat="44.2477" lon="5.7034">
        <ele>654</ele>
        <time>2019-06-19T07:47:29Z</time>
      </trkpt>
      <trkpt lat="44.24765" lon="5.70344">
        <ele>654</ele>
        <time>2019-06-19T07:47:30Z</time>
      </trkpt>
      <trkpt lat="44.2476" lon="5.70348">
        <ele>654</ele>
        <time>2019-06-19T07:47:31Z</time>
      </trkpt>
      <trkpt lat="44.24756" lon="5.70353">
        <ele>654</ele>
        <time>2019-06-19T07:47:32Z</time>
      </trkpt>
      <trkpt lat="44.24752" lon="5.70358">
        <ele>654</ele>
        <time>2019-06-19T07:47:33Z</time>
      </trkpt>
      <trkpt lat="44.24747" lon="5.70362">
        <ele>654</ele>
        <time>2019-06-19T07:47:34Z</time>
      </trkpt>
      <trkpt lat="44.24742" lon="5.70367">
        <ele>654</ele>
        <time>2019-06-19T07:47:35Z</time>
      </trkpt>
      <trkpt lat="44.24737" lon="5.70372">
        <ele>654</ele>
        <time>2019-06-19T07:47:36Z</time>
      </trkpt>
      <trkpt lat="44.24733" lon="5.70377">
        <ele>654</ele>
        <time>2019-06-19T07:47:37Z</time>
      </trkpt>
      <trkpt lat="44.24728" lon="5.70381">
        <ele>654</ele>
        <time>2019-06-19T07:47:38Z</time>
      </trkpt>
      <trkpt lat="44.24723" lon="5.70386">
        <ele>654</ele>
        <time>2019-06-19T07:47:39Z</time>
      </trkpt>
      <trkpt lat="44.24718" lon="5.70391">
        <ele>654</ele>
        <time>2019-06-19T07:47:40Z</time>
      </trkpt>
      <trkpt lat="44.24713" lon="5.70395">
        <ele>654</ele>
        <time>2019-06-19T07:47:41Z</time>
      </trkpt>
      <trkpt lat="44.24709" lon="5.704">
        <ele>654</ele>
        <time>2019-06-19T07:47:42Z</time>
      </trkpt>
      <trkpt lat="44.24704" lon="5.70405">
        <ele>654</ele>
        <time>2019-06-19T07:47:43Z</time>
      </trkpt>
      <trkpt lat="44.24699" lon="5.7041">
        <ele>654</ele>
        <time>2019-06-19T07:47:44Z</time>
      </trkpt>
      <trkpt lat="44.24694" lon="5.70414">
        <ele>654</ele>
        <time>2019-06-19T07:47:45Z</time>
      </trkpt>
      <trkpt lat="44.2469" lon="5.70419">
        <ele>654</ele>
        <time>2019-06-19T07:47:46Z</time>
      </trkpt>
      <trkpt lat="44.24685" lon="5.70423">
        <ele>654</ele>
        <time>2019-06-19T07:47:47Z</time>
      </trkpt>
      <trkpt lat="44.2468" lon="5.70428">
        <ele>654</ele>
        <time>2019-06-19T07:47:48Z</time>
      </trkpt>
      <trkpt lat="44.24675" lon="5.70433">
        <ele>654</ele>
        <time>2019-06-19T07:47:49Z</time>
      </trkpt>
      <trkpt lat="44.2467" lon="5.70438">
        <ele>654</ele>
        <time>2019-06-19T07:47:50Z</time>
      </trkpt>
      <trkpt lat="44.24665" lon="5.70442">
        <ele>654</ele>
        <time>2019-06-19T07:47:51Z</time>
      </trkpt>
      <trkpt lat="44.2466" lon="5.70447">
        <ele>654</ele>
        <time>2019-06-19T07:47:52Z</time>
      </trkpt>
      <trkpt lat="44.24655" lon="5.70452">
        <ele>654</ele>
        <time>2019-06-19T07:47:53Z</time>
      </trkpt>
      <trkpt lat="44.2465" lon="5.70456">
        <ele>654</ele>
        <time>2019-06-19T07:47:54Z</time>
      </trkpt>
      <trkpt lat="44.24644" lon="5.7046">
        <ele>654</ele>
        <time>2019-06-19T07:47:55Z</time>
      </trkpt>
      <trkpt lat="44.24639" lon="5.70464">
        <ele>654</ele>
        <time>2019-06-19T07:47:56Z</time>
      </trkpt>
      <trkpt lat="44.24633" lon="5.70467">
        <ele>654</ele>
        <time>2019-06-19T07:47:57Z</time>
      </trkpt>
      <trkpt lat="44.24628" lon="5.70469">
        <ele>654</ele>
        <time>2019-06-19T07:47:58Z</time>
      </trkpt>
      <trkpt lat="44.24622" lon="5.70472">
        <ele>655</ele>
        <time>2019-06-19T07:47:59Z</time>
      </trkpt>
      <trkpt lat="44.24617" lon="5.70474">
        <ele>655</ele>
        <time>2019-06-19T07:48:00Z</time>
      </trkpt>
      <trkpt lat="44.24612" lon="5.70475">
        <ele>656</ele>
        <time>2019-06-19T07:48:01Z</time>
      </trkpt>
      <trkpt lat="44.24606" lon="5.70476">
        <ele>656</ele>
        <time>2019-06-19T07:48:02Z</time>
      </trkpt>
      <trkpt lat="44.24602" lon="5.70476">
        <ele>656</ele>
        <time>2019-06-19T07:48:03Z</time>
      </trkpt>
      <trkpt lat="44.24597" lon="5.70477">
        <ele>656</ele>
        <time>2019-06-19T07:48:04Z</time>
      </trkpt>
      <trkpt lat="44.24593" lon="5.70477">
        <ele>657</ele>
        <time>2019-06-19T07:48:05Z</time>
      </trkpt>
      <trkpt lat="44.24588" lon="5.70477">
        <ele>657</ele>
        <time>2019-06-19T07:48:06Z</time>
      </trkpt>
      <trkpt lat="44.24583" lon="5.70478">
        <ele>657</ele>
        <time>2019-06-19T07:48:07Z</time>
      </trkpt>
      <trkpt lat="44.24578" lon="5.70478">
        <ele>657</ele>
        <time>2019-06-19T07:48:08Z</time>
      </trkpt>
      <trkpt lat="44.24573" lon="5.70475">
        <ele>657</ele>
        <time>2019-06-19T07:48:09Z</time>
      </trkpt>
      <trkpt lat="44.24568" lon="5.70472">
        <ele>657</ele>
        <time>2019-06-19T07:48:10Z</time>
      </trkpt>
      <trkpt lat="44.24563" lon="5.70469">
        <ele>657</ele>
        <time>2019-06-19T07:48:11Z</time>
      </trkpt>
      <trkpt lat="44.24558" lon="5.70465">
        <ele>657</ele>
        <time>2019-06-19T07:48:12Z</time>
      </trkpt>
      <trkpt lat="44.24553" lon="5.70461">
        <ele>657</ele>
        <time>2019-06-19T07:48:13Z</time>
      </trkpt>
      <trkpt lat="44.24548" lon="5.70456">
        <ele>657</ele>
        <time>2019-06-19T07:48:14Z</time>
      </trkpt>
      <trkpt lat="44.24542" lon="5.70451">
        <ele>657</ele>
        <time>2019-06-19T07:48:15Z</time>
      </trkpt>
      <trkpt lat="44.24537" lon="5.70447">
        <ele>657</ele>
        <time>2019-06-19T07:48:16Z</time>
      </trkpt>
      <trkpt lat="44.24532" lon="5.70443">
        <ele>657</ele>
        <time>2019-06-19T07:48:17Z</time>
      </trkpt>
      <trkpt lat="44.24527" lon="5.70438">
        <ele>657</ele>
        <time>2019-06-19T07:48:18Z</time>
      </trkpt>
      <trkpt lat="44.24522" lon="5.70434">
        <ele>658</ele>
        <time>2019-06-19T07:48:19Z</time>
      </trkpt>
      <trkpt lat="44.24517" lon="5.7043">
        <ele>658</ele>
        <time>2019-06-19T07:48:20Z</time>
      </trkpt>
      <trkpt lat="44.24512" lon="5.70426">
        <ele>658</ele>
        <time>2019-06-19T07:48:21Z</time>
      </trkpt>
      <trkpt lat="44.24508" lon="5.70422">
        <ele>659</ele>
        <time>2019-06-19T07:48:22Z</time>
      </trkpt>
      <trkpt lat="44.24503" lon="5.70418">
        <ele>659</ele>
        <time>2019-06-19T07:48:23Z</time>
      </trkpt>
      <trkpt lat="44.24498" lon="5.70414">
        <ele>659</ele>
        <time>2019-06-19T07:48:24Z</time>
      </trkpt>
      <trkpt lat="44.24493" lon="5.70411">
        <ele>660</ele>
        <time>2019-06-19T07:48:25Z</time>
      </trkpt>
      <trkpt lat="44.24488" lon="5.70407">
        <ele>660</ele>
        <time>2019-06-19T07:48:26Z</time>
      </trkpt>
      <trkpt lat="44.24484" lon="5.70404">
        <ele>660</ele>
        <time>2019-06-19T07:48:27Z</time>
      </trkpt>
      <trkpt lat="44.24479" lon="5.70402">
        <ele>661</ele>
        <time>2019-06-19T07:48:28Z</time>
      </trkpt>
      <trkpt lat="44.24474" lon="5.70401">
        <ele>661</ele>
        <time>2019-06-19T07:48:29Z</time>
      </trkpt>
      <trkpt lat="44.24469" lon="5.70402">
        <ele>661</ele>
        <time>2019-06-19T07:48:30Z</time>
      </trkpt>
      <trkpt lat="44.24464" lon="5.70403">
        <ele>661</ele>
        <time>2019-06-19T07:48:31Z</time>
      </trkpt>
      <trkpt lat="44.24461" lon="5.70406">
        <ele>661</ele>
        <time>2019-06-19T07:48:32Z</time>
      </trkpt>
      <trkpt lat="44.24457" lon="5.70409">
        <ele>661</ele>
        <time>2019-06-19T07:48:33Z</time>
      </trkpt>
      <trkpt lat="44.24453" lon="5.70411">
        <ele>661</ele>
        <time>2019-06-19T07:48:34Z</time>
      </trkpt>
      <trkpt lat="44.24449" lon="5.70412">
        <ele>661</ele>
        <time>2019-06-19T07:48:35Z</time>
      </trkpt>
      <trkpt lat="44.24444" lon="5.70411">
        <ele>661</ele>
        <time>2019-06-19T07:48:36Z</time>
      </trkpt>
      <trkpt lat="44.2444" lon="5.70408">
        <ele>661</ele>
        <time>2019-06-19T07:48:37Z</time>
      </trkpt>
      <trkpt lat="44.24437" lon="5.70404">
        <ele>661</ele>
        <time>2019-06-19T07:48:38Z</time>
      </trkpt>
      <trkpt lat="44.24434" lon="5.704">
        <ele>661</ele>
        <time>2019-06-19T07:48:39Z</time>
      </trkpt>
      <trkpt lat="44.24431" lon="5.70397">
        <ele>661</ele>
        <time>2019-06-19T07:48:40Z</time>
      </trkpt>
      <trkpt lat="44.24428" lon="5.70394">
        <ele>661</ele>
        <time>2019-06-19T07:48:41Z</time>
      </trkpt>
      <trkpt lat="44.24426" lon="5.7039">
        <ele>661</ele>
        <time>2019-06-19T07:48:42Z</time>
      </trkpt>
      <trkpt lat="44.24422" lon="5.70388">
        <ele>662</ele>
        <time>2019-06-19T07:48:43Z</time>
      </trkpt>
      <trkpt lat="44.24419" lon="5.70384">
        <ele>662</ele>
        <time>2019-06-19T07:48:44Z</time>
      </trkpt>
      <trkpt lat="44.24416" lon="5.70381">
        <ele>662</ele>
        <time>2019-06-19T07:48:45Z</time>
      </trkpt>
      <trkpt lat="44.24413" lon="5.70378">
        <ele>662</ele>
        <time>2019-06-19T07:48:46Z</time>
      </trkpt>
      <trkpt lat="44.2441" lon="5.70376">
        <ele>662</ele>
        <time>2019-06-19T07:48:47Z</time>
      </trkpt>
      <trkpt lat="44.24407" lon="5.70374">
        <ele>662</ele>
        <time>2019-06-19T07:48:48Z</time>
      </trkpt>
      <trkpt lat="44.24404" lon="5.70372">
        <ele>662</ele>
        <time>2019-06-19T07:48:49Z</time>
      </trkpt>
      <trkpt lat="44.24401" lon="5.70371">
        <ele>662</ele>
        <time>2019-06-19T07:48:50Z</time>
      </trkpt>
      <trkpt lat="44.24398" lon="5.7037">
        <ele>663</ele>
        <time>2019-06-19T07:48:51Z</time>
      </trkpt>
      <trkpt lat="44.24395" lon="5.70368">
        <ele>663</ele>
        <time>2019-06-19T07:48:52Z</time>
      </trkpt>
      <trkpt lat="44.24391" lon="5.70367">
        <ele>664</ele>
        <time>2019-06-19T07:48:53Z</time>
      </trkpt>
      <trkpt lat="44.24388" lon="5.70366">
        <ele>665</ele>
        <time>2019-06-19T07:48:54Z</time>
      </trkpt>
      <trkpt lat="44.24385" lon="5.70365">
        <ele>665</ele>
        <time>2019-06-19T07:48:55Z</time>
      </trkpt>
      <trkpt lat="44.24381" lon="5.70364">
        <ele>666</ele>
        <time>2019-06-19T07:48:56Z</time>
      </trkpt>
      <trkpt lat="44.24377" lon="5.70363">
        <ele>667</ele>
        <time>2019-06-19T07:48:57Z</time>
      </trkpt>
      <trkpt lat="44.24375" lon="5.70361">
        <ele>667</ele>
        <time>2019-06-19T07:48:58Z</time>
      </trkpt>
      <trkpt lat="44.24372" lon="5.7036">
        <ele>668</ele>
        <time>2019-06-19T07:48:59Z</time>
      </trkpt>
      <trkpt lat="44.24369" lon="5.70358">
        <ele>668</ele>
        <time>2019-06-19T07:49:00Z</time>
      </trkpt>
      <trkpt lat="44.24366" lon="5.70357">
        <ele>668</ele>
        <time>2019-06-19T07:49:01Z</time>
      </trkpt>
      <trkpt lat="44.24363" lon="5.70357">
        <ele>668</ele>
        <time>2019-06-19T07:49:02Z</time>
      </trkpt>
      <trkpt lat="44.2436" lon="5.70357">
        <ele>668</ele>
        <time>2019-06-19T07:49:03Z</time>
      </trkpt>
      <trkpt lat="44.24357" lon="5.70357">
        <ele>668</ele>
        <time>2019-06-19T07:49:04Z</time>
      </trkpt>
      <trkpt lat="44.24354" lon="5.70357">
        <ele>668</ele>
        <time>2019-06-19T07:49:05Z</time>
      </trkpt>
      <trkpt lat="44.24352" lon="5.70358">
        <ele>668</ele>
        <time>2019-06-19T07:49:06Z</time>
      </trkpt>
      <trkpt lat="44.2435" lon="5.70358">
        <ele>668</ele>
        <time>2019-06-19T07:49:07Z</time>
      </trkpt>
      <trkpt lat="44.24347" lon="5.70358">
        <ele>668</ele>
        <time>2019-06-19T07:49:08Z</time>
      </trkpt>
      <trkpt lat="44.24345" lon="5.7036">
        <ele>668</ele>
        <time>2019-06-19T07:49:09Z</time>
      </trkpt>
      <trkpt lat="44.24343" lon="5.7036">
        <ele>668</ele>
        <time>2019-06-19T07:49:10Z</time>
      </trkpt>
      <trkpt lat="44.2434" lon="5.70359">
        <ele>668</ele>
        <time>2019-06-19T07:49:11Z</time>
      </trkpt>
      <trkpt lat="44.24336" lon="5.70358">
        <ele>668</ele>
        <time>2019-06-19T07:49:12Z</time>
      </trkpt>
      <trkpt lat="44.24332" lon="5.70357">
        <ele>668</ele>
        <time>2019-06-19T07:49:13Z</time>
      </trkpt>
      <trkpt lat="44.24329" lon="5.70358">
        <ele>668</ele>
        <time>2019-06-19T07:49:14Z</time>
      </trkpt>
      <trkpt lat="44.24326" lon="5.70357">
        <ele>668</ele>
        <time>2019-06-19T07:49:15Z</time>
      </trkpt>
      <trkpt lat="44.24322" lon="5.70357">
        <ele>668</ele>
        <time>2019-06-19T07:49:16Z</time>
      </trkpt>
      <trkpt lat="44.24319" lon="5.70358">
        <ele>668</ele>
        <time>2019-06-19T07:49:17Z</time>
      </trkpt>
      <trkpt lat="44.24317" lon="5.70359">
        <ele>668</ele>
        <time>2019-06-19T07:49:18Z</time>
      </trkpt>
      <trkpt lat="44.24314" lon="5.7036">
        <ele>668</ele>
        <time>2019-06-19T07:49:19Z</time>
      </trkpt>
      <trkpt lat="44.24312" lon="5.70361">
        <ele>669</ele>
        <time>2019-06-19T07:49:20Z</time>
      </trkpt>
      <trkpt lat="44.2431" lon="5.70362">
        <ele>669</ele>
        <time>2019-06-19T07:49:21Z</time>
      </trkpt>
      <trkpt lat="44.24308" lon="5.70363">
        <ele>669</ele>
        <time>2019-06-19T07:49:22Z</time>
      </trkpt>
      <trkpt lat="44.24305" lon="5.70363">
        <ele>670</ele>
        <time>2019-06-19T07:49:23Z</time>
      </trkpt>
      <trkpt lat="44.24303" lon="5.70365">
        <ele>670</ele>
        <time>2019-06-19T07:49:24Z</time>
      </trkpt>
      <trkpt lat="44.243" lon="5.70365">
        <ele>671</ele>
        <time>2019-06-19T07:49:25Z</time>
      </trkpt>
      <trkpt lat="44.24297" lon="5.70365">
        <ele>671</ele>
        <time>2019-06-19T07:49:26Z</time>
      </trkpt>
      <trkpt lat="44.24295" lon="5.70366">
        <ele>671</ele>
        <time>2019-06-19T07:49:27Z</time>
      </trkpt>
      <trkpt lat="44.24292" lon="5.70367">
        <ele>671</ele>
        <time>2019-06-19T07:49:28Z</time>
      </trkpt>
      <trkpt lat="44.24289" lon="5.70367">
        <ele>671</ele>
        <time>2019-06-19T07:49:29Z</time>
      </trkpt>
      <trkpt lat="44.24287" lon="5.70368">
        <ele>671</ele>
        <time>2019-06-19T07:49:30Z</time>
      </trkpt>
      <trkpt lat="44.24283" lon="5.7037">
        <ele>671</ele>
        <time>2019-06-19T07:49:31Z</time>
      </trkpt>
      <trkpt lat="44.2428" lon="5.7037">
        <ele>671</ele>
        <time>2019-06-19T07:49:32Z</time>
      </trkpt>
      <trkpt lat="44.24277" lon="5.70372">
        <ele>671</ele>
        <time>2019-06-19T07:49:33Z</time>
      </trkpt>
      <trkpt lat="44.24274" lon="5.70372">
        <ele>671</ele>
        <time>2019-06-19T07:49:34Z</time>
      </trkpt>
      <trkpt lat="44.24271" lon="5.70372">
        <ele>671</ele>
        <time>2019-06-19T07:49:35Z</time>
      </trkpt>
      <trkpt lat="44.24268" lon="5.70372">
        <ele>671</ele>
        <time>2019-06-19T07:49:36Z</time>
      </trkpt>
      <trkpt lat="44.24266" lon="5.70372">
        <ele>671</ele>
        <time>2019-06-19T07:49:37Z</time>
      </trkpt>
      <trkpt lat="44.24263" lon="5.70373">
        <ele>671</ele>
        <time>2019-06-19T07:49:38Z</time>
      </trkpt>
      <trkpt lat="44.2426" lon="5.70373">
        <ele>671</ele>
        <time>2019-06-19T07:49:39Z</time>
      </trkpt>
      <trkpt lat="44.24257" lon="5.70374">
        <ele>671</ele>
        <time>2019-06-19T07:49:40Z</time>
      </trkpt>
      <trkpt lat="44.24253" lon="5.70375">
        <ele>672</ele>
        <time>2019-06-19T07:49:41Z</time>
      </trkpt>
      <trkpt lat="44.2425" lon="5.70377">
        <ele>672</ele>
        <time>2019-06-19T07:49:42Z</time>
      </trkpt>
      <trkpt lat="44.24247" lon="5.70379">
        <ele>673</ele>
        <time>2019-06-19T07:49:43Z</time>
      </trkpt>
      <trkpt lat="44.24245" lon="5.7038">
        <ele>673</ele>
        <time>2019-06-19T07:49:44Z</time>
      </trkpt>
      <trkpt lat="44.24242" lon="5.70382">
        <ele>673</ele>
        <time>2019-06-19T07:49:45Z</time>
      </trkpt>
      <trkpt lat="44.24239" lon="5.70384">
        <ele>673</ele>
        <time>2019-06-19T07:49:46Z</time>
      </trkpt>
      <trkpt lat="44.24236" lon="5.70385">
        <ele>673</ele>
        <time>2019-06-19T07:49:47Z</time>
      </trkpt>
      <trkpt lat="44.24232" lon="5.70387">
        <ele>673</ele>
        <time>2019-06-19T07:49:48Z</time>
      </trkpt>
      <trkpt lat="44.24229" lon="5.70388">
        <ele>673</ele>
        <time>2019-06-19T07:49:49Z</time>
      </trkpt>
      <trkpt lat="44.24225" lon="5.70389">
        <ele>673</ele>
        <time>2019-06-19T07:49:50Z</time>
      </trkpt>
      <trkpt lat="44.24222" lon="5.70392">
        <ele>673</ele>
        <time>2019-06-19T07:49:51Z</time>
      </trkpt>
      <trkpt lat="44.24219" lon="5.70394">
        <ele>673</ele>
        <time>2019-06-19T07:49:52Z</time>
      </trkpt>
      <trkpt lat="44.24217" lon="5.70397">
        <ele>673</ele>
        <time>2019-06-19T07:49:53Z</time>
      </trkpt>
      <trkpt lat="44.24214" lon="5.70399">
        <ele>673</ele>
        <time>2019-06-19T07:49:54Z</time>
      </trkpt>
      <trkpt lat="44.24211" lon="5.70401">
        <ele>673</ele>
        <time>2019-06-19T07:49:55Z</time>
      </trkpt>
      <trkpt lat="44.24209" lon="5.70405">
        <ele>673</ele>
        <time>2019-06-19T07:49:56Z</time>
      </trkpt>
      <trkpt lat="44.24206" lon="5.70408">
        <ele>673</ele>
        <time>2019-06-19T07:49:57Z</time>
      </trkpt>
      <trkpt lat="44.24203" lon="5.7041">
        <ele>672</ele>
        <time>2019-06-19T07:49:58Z</time>
      </trkpt>
      <trkpt lat="44.242" lon="5.70413">
        <ele>671</ele>
        <time>2019-06-19T07:49:59Z</time>
      </trkpt>
      <trkpt lat="44.24198" lon="5.70414">
        <ele>671</ele>
        <time>2019-06-19T07:50:00Z</time>
      </trkpt>
      <trkpt lat="44.24195" lon="5.70417">
        <ele>671</ele>
        <time>2019-06-19T07:50:01Z</time>
      </trkpt>
      <trkpt lat="44.24192" lon="5.7042">
        <ele>671</ele>
        <time>2019-06-19T07:50:02Z</time>
      </trkpt>
      <trkpt lat="44.24189" lon="5.70422">
        <ele>671</ele>
        <time>2019-06-19T07:50:03Z</time>
      </trkpt>
      <trkpt lat="44.24187" lon="5.70425">
        <ele>671</ele>
        <time>2019-06-19T07:50:04Z</time>
      </trkpt>
      <trkpt lat="44.24184" lon="5.70428">
        <ele>671</ele>
        <time>2019-06-19T07:50:05Z</time>
      </trkpt>
      <trkpt lat="44.24182" lon="5.7043">
        <ele>671</ele>
        <time>2019-06-19T07:50:06Z</time>
      </trkpt>
      <trkpt lat="44.24179" lon="5.70433">
        <ele>671</ele>
        <time>2019-06-19T07:50:07Z</time>
      </trkpt>
      <trkpt lat="44.24176" lon="5.70435">
        <ele>671</ele>
        <time>2019-06-19T07:50:08Z</time>
      </trkpt>
      <trkpt lat="44.24173" lon="5.70436">
        <ele>671</ele>
        <time>2019-06-19T07:50:09Z</time>
      </trkpt>
      <trkpt lat="44.24171" lon="5.70437">
        <ele>671</ele>
        <time>2019-06-19T07:50:10Z</time>
      </trkpt>
      <trkpt lat="44.24168" lon="5.70438">
        <ele>672</ele>
        <time>2019-06-19T07:50:11Z</time>
      </trkpt>
      <trkpt lat="44.24165" lon="5.70439">
        <ele>672</ele>
        <time>2019-06-19T07:50:12Z</time>
      </trkpt>
      <trkpt lat="44.24162" lon="5.70438">
        <ele>672</ele>
        <time>2019-06-19T07:50:13Z</time>
      </trkpt>
      <trkpt lat="44.24158" lon="5.70437">
        <ele>673</ele>
        <time>2019-06-19T07:50:14Z</time>
      </trkpt>
      <trkpt lat="44.24155" lon="5.70436">
        <ele>673</ele>
        <time>2019-06-19T07:50:15Z</time>
      </trkpt>
      <trkpt lat="44.24152" lon="5.70433">
        <ele>674</ele>
        <time>2019-06-19T07:50:16Z</time>
      </trkpt>
      <trkpt lat="44.24148" lon="5.7043">
        <ele>675</ele>
        <time>2019-06-19T07:50:17Z</time>
      </trkpt>
      <trkpt lat="44.24145" lon="5.70427">
        <ele>676</ele>
        <time>2019-06-19T07:50:18Z</time>
      </trkpt>
      <trkpt lat="44.24142" lon="5.70423">
        <ele>676</ele>
        <time>2019-06-19T07:50:19Z</time>
      </trkpt>
      <trkpt lat="44.24139" lon="5.7042">
        <ele>677</ele>
        <time>2019-06-19T07:50:20Z</time>
      </trkpt>
      <trkpt lat="44.24136" lon="5.70417">
        <ele>677</ele>
        <time>2019-06-19T07:50:21Z</time>
      </trkpt>
      <trkpt lat="44.24132" lon="5.70414">
        <ele>678</ele>
        <time>2019-06-19T07:50:22Z</time>
      </trkpt>
      <trkpt lat="44.24129" lon="5.70411">
        <ele>678</ele>
        <time>2019-06-19T07:50:23Z</time>
      </trkpt>
      <trkpt lat="44.24125" lon="5.7041">
        <ele>678</ele>
        <time>2019-06-19T07:50:24Z</time>
      </trkpt>
      <trkpt lat="44.24121" lon="5.70409">
        <ele>678</ele>
        <time>2019-06-19T07:50:25Z</time>
      </trkpt>
      <trkpt lat="44.24118" lon="5.70408">
        <ele>678</ele>
        <time>2019-06-19T07:50:26Z</time>
      </trkpt>
      <trkpt lat="44.24113" lon="5.70408">
        <ele>679</ele>
        <time>2019-06-19T07:50:27Z</time>
      </trkpt>
      <trkpt lat="44.24109" lon="5.70409">
        <ele>679</ele>
        <time>2019-06-19T07:50:28Z</time>
      </trkpt>
      <trkpt lat="44.24104" lon="5.70409">
        <ele>679</ele>
        <time>2019-06-19T07:50:29Z</time>
      </trkpt>
      <trkpt lat="44.241" lon="5.70411">
        <ele>679</ele>
        <time>2019-06-19T07:50:30Z</time>
      </trkpt>
      <trkpt lat="44.24097" lon="5.70413">
        <ele>679</ele>
        <time>2019-06-19T07:50:31Z</time>
      </trkpt>
      <trkpt lat="44.24093" lon="5.70416">
        <ele>679</ele>
        <time>2019-06-19T07:50:32Z</time>
      </trkpt>
      <trkpt lat="44.24089" lon="5.7042">
        <ele>680</ele>
        <time>2019-06-19T07:50:33Z</time>
      </trkpt>
      <trkpt lat="44.24086" lon="5.70423">
        <ele>680</ele>
        <time>2019-06-19T07:50:34Z</time>
      </trkpt>
      <trkpt lat="44.24082" lon="5.70425">
        <ele>680</ele>
        <time>2019-06-19T07:50:35Z</time>
      </trkpt>
      <trkpt lat="44.24078" lon="5.70427">
        <ele>680</ele>
        <time>2019-06-19T07:50:36Z</time>
      </trkpt>
      <trkpt lat="44.24074" lon="5.70429">
        <ele>681</ele>
        <time>2019-06-19T07:50:37Z</time>
      </trkpt>
      <trkpt lat="44.2407" lon="5.70431">
        <ele>681</ele>
        <time>2019-06-19T07:50:38Z</time>
      </trkpt>
      <trkpt lat="44.24066" lon="5.70434">
        <ele>681</ele>
        <time>2019-06-19T07:50:39Z</time>
      </trkpt>
      <trkpt lat="44.24062" lon="5.70436">
        <ele>682</ele>
        <time>2019-06-19T07:50:40Z</time>
      </trkpt>
      <trkpt lat="44.24058" lon="5.70439">
        <ele>682</ele>
        <time>2019-06-19T07:50:41Z</time>
      </trkpt>
      <trkpt lat="44.24054" lon="5.70441">
        <ele>683</ele>
        <time>2019-06-19T07:50:42Z</time>
      </trkpt>
      <trkpt lat="44.24051" lon="5.70443">
        <ele>683</ele>
        <time>2019-06-19T07:50:43Z</time>
      </trkpt>
      <trkpt lat="44.24047" lon="5.70445">
        <ele>684</ele>
        <time>2019-06-19T07:50:44Z</time>
      </trkpt>
      <trkpt lat="44.24044" lon="5.70448">
        <ele>685</ele>
        <time>2019-06-19T07:50:45Z</time>
      </trkpt>
      <trkpt lat="44.24041" lon="5.7045">
        <ele>685</ele>
        <time>2019-06-19T07:50:46Z</time>
      </trkpt>
      <trkpt lat="44.24038" lon="5.70453">
        <ele>685</ele>
        <time>2019-06-19T07:50:47Z</time>
      </trkpt>
      <trkpt lat="44.24035" lon="5.70456">
        <ele>685</ele>
        <time>2019-06-19T07:50:48Z</time>
      </trkpt>
      <trkpt lat="44.24031" lon="5.70458">
        <ele>685</ele>
        <time>2019-06-19T07:50:49Z</time>
      </trkpt>
      <trkpt lat="44.24028" lon="5.7046">
        <ele>685</ele>
        <time>2019-06-19T07:50:50Z</time>
      </trkpt>
      <trkpt lat="44.24024" lon="5.70462">
        <ele>685</ele>
        <time>2019-06-19T07:50:51Z</time>
      </trkpt>
      <trkpt lat="44.24021" lon="5.70465">
        <ele>685</ele>
        <time>2019-06-19T07:50:52Z</time>
      </trkpt>
      <trkpt lat="44.24017" lon="5.70465">
        <ele>685</ele>
        <time>2019-06-19T07:50:53Z</time>
      </trkpt>
      <trkpt lat="44.24014" lon="5.70462">
        <ele>685</ele>
        <time>2019-06-19T07:50:54Z</time>
      </trkpt>
      <trkpt lat="44.24012" lon="5.70458">
        <ele>685</ele>
        <time>2019-06-19T07:50:55Z</time>
      </trkpt>
      <trkpt lat="44.2401" lon="5.70452">
        <ele>685</ele>
        <time>2019-06-19T07:50:56Z</time>
      </trkpt>
      <trkpt lat="44.24011" lon="5.70447">
        <ele>685</ele>
        <time>2019-06-19T07:50:57Z</time>
      </trkpt>
      <trkpt lat="44.24012" lon="5.70441">
        <ele>685</ele>
        <time>2019-06-19T07:50:58Z</time>
      </trkpt>
      <trkpt lat="44.24014" lon="5.70436">
        <ele>685</ele>
        <time>2019-06-19T07:50:59Z</time>
      </trkpt>
      <trkpt lat="44.24016" lon="5.70431">
        <ele>685</ele>
        <time>2019-06-19T07:51:00Z</time>
      </trkpt>
      <trkpt lat="44.24018" lon="5.70427">
        <ele>685</ele>
        <time>2019-06-19T07:51:01Z</time>
      </trkpt>
      <trkpt lat="44.2402" lon="5.70423">
        <ele>685</ele>
        <time>2019-06-19T07:51:02Z</time>
      </trkpt>
      <trkpt lat="44.2402" lon="5.70417">
        <ele>685</ele>
        <time>2019-06-19T07:51:03Z</time>
      </trkpt>
      <trkpt lat="44.24019" lon="5.70412">
        <ele>685</ele>
        <time>2019-06-19T07:51:04Z</time>
      </trkpt>
      <trkpt lat="44.24017" lon="5.70407">
        <ele>685</ele>
        <time>2019-06-19T07:51:05Z</time>
      </trkpt>
      <trkpt lat="44.24015" lon="5.70402">
        <ele>685</ele>
        <time>2019-06-19T07:51:06Z</time>
      </trkpt>
      <trkpt lat="44.24012" lon="5.70399">
        <ele>685</ele>
        <time>2019-06-19T07:51:07Z</time>
      </trkpt>
      <trkpt lat="44.24009" lon="5.70395">
        <ele>686</ele>
        <time>2019-06-19T07:51:08Z</time>
      </trkpt>
      <trkpt lat="44.24006" lon="5.70392">
        <ele>686</ele>
        <time>2019-06-19T07:51:09Z</time>
      </trkpt>
      <trkpt lat="44.24002" lon="5.70389">
        <ele>687</ele>
        <time>2019-06-19T07:51:10Z</time>
      </trkpt>
      <trkpt lat="44.23999" lon="5.70387">
        <ele>687</ele>
        <time>2019-06-19T07:51:11Z</time>
      </trkpt>
      <trkpt lat="44.23996" lon="5.70384">
        <ele>688</ele>
        <time>2019-06-19T07:51:12Z</time>
      </trkpt>
      <trkpt lat="44.23992" lon="5.70382">
        <ele>688</ele>
        <time>2019-06-19T07:51:13Z</time>
      </trkpt>
      <trkpt lat="44.23988" lon="5.7038">
        <ele>688</ele>
        <time>2019-06-19T07:51:14Z</time>
      </trkpt>
      <trkpt lat="44.23983" lon="5.70379">
        <ele>688</ele>
        <time>2019-06-19T07:51:15Z</time>
      </trkpt>
      <trkpt lat="44.23979" lon="5.70378">
        <ele>688</ele>
        <time>2019-06-19T07:51:16Z</time>
      </trkpt>
      <trkpt lat="44.23974" lon="5.70377">
        <ele>688</ele>
        <time>2019-06-19T07:51:17Z</time>
      </trkpt>
      <trkpt lat="44.23969" lon="5.70375">
        <ele>688</ele>
        <time>2019-06-19T07:51:18Z</time>
      </trkpt>
      <trkpt lat="44.23964" lon="5.70374">
        <ele>688</ele>
        <time>2019-06-19T07:51:19Z</time>
      </trkpt>
      <trkpt lat="44.23958" lon="5.70372">
        <ele>688</ele>
        <time>2019-06-19T07:51:20Z</time>
      </trkpt>
      <trkpt lat="44.23953" lon="5.70371">
        <ele>688</ele>
        <time>2019-06-19T07:51:21Z</time>
      </trkpt>
      <trkpt lat="44.23948" lon="5.70369">
        <ele>688</ele>
        <time>2019-06-19T07:51:22Z</time>
      </trkpt>
      <trkpt lat="44.23943" lon="5.70367">
        <ele>688</ele>
        <time>2019-06-19T07:51:23Z</time>
      </trkpt>
      <trkpt lat="44.23938" lon="5.70365">
        <ele>688</ele>
        <time>2019-06-19T07:51:24Z</time>
      </trkpt>
      <trkpt lat="44.23933" lon="5.70364">
        <ele>688</ele>
        <time>2019-06-19T07:51:25Z</time>
      </trkpt>
      <trkpt lat="44.23927" lon="5.70362">
        <ele>688</ele>
        <time>2019-06-19T07:51:26Z</time>
      </trkpt>
      <trkpt lat="44.23922" lon="5.7036">
        <ele>688</ele>
        <time>2019-06-19T07:51:27Z</time>
      </trkpt>
      <trkpt lat="44.23917" lon="5.70357">
        <ele>688</ele>
        <time>2019-06-19T07:51:28Z</time>
      </trkpt>
      <trkpt lat="44.23913" lon="5.70353">
        <ele>687</ele>
        <time>2019-06-19T07:51:29Z</time>
      </trkpt>
      <trkpt lat="44.23911" lon="5.70346">
        <ele>686</ele>
        <time>2019-06-19T07:51:30Z</time>
      </trkpt>
      <trkpt lat="44.2391" lon="5.70339">
        <ele>685</ele>
        <time>2019-06-19T07:51:31Z</time>
      </trkpt>
      <trkpt lat="44.23912" lon="5.70332">
        <ele>685</ele>
        <time>2019-06-19T07:51:32Z</time>
      </trkpt>
      <trkpt lat="44.23916" lon="5.70327">
        <ele>684</ele>
        <time>2019-06-19T07:51:33Z</time>
      </trkpt>
      <trkpt lat="44.2392" lon="5.70323">
        <ele>684</ele>
        <time>2019-06-19T07:51:34Z</time>
      </trkpt>
      <trkpt lat="44.23924" lon="5.7032">
        <ele>684</ele>
        <time>2019-06-19T07:51:35Z</time>
      </trkpt>
      <trkpt lat="44.23928" lon="5.70316">
        <ele>684</ele>
        <time>2019-06-19T07:51:36Z</time>
      </trkpt>
      <trkpt lat="44.23933" lon="5.70313">
        <ele>684</ele>
        <time>2019-06-19T07:51:37Z</time>
      </trkpt>
      <trkpt lat="44.23937" lon="5.70308">
        <ele>684</ele>
        <time>2019-06-19T07:51:38Z</time>
      </trkpt>
      <trkpt lat="44.23941" lon="5.70303">
        <ele>684</ele>
        <time>2019-06-19T07:51:39Z</time>
      </trkpt>
      <trkpt lat="44.23945" lon="5.70297">
        <ele>684</ele>
        <time>2019-06-19T07:51:40Z</time>
      </trkpt>
      <trkpt lat="44.23948" lon="5.70291">
        <ele>684</ele>
        <time>2019-06-19T07:51:41Z</time>
      </trkpt>
      <trkpt lat="44.2395" lon="5.70284">
        <ele>685</ele>
        <time>2019-06-19T07:51:42Z</time>
      </trkpt>
      <trkpt lat="44.23951" lon="5.70276">
        <ele>686</ele>
        <time>2019-06-19T07:51:43Z</time>
      </trkpt>
      <trkpt lat="44.23951" lon="5.70268">
        <ele>686</ele>
        <time>2019-06-19T07:51:44Z</time>
      </trkpt>
      <trkpt lat="44.2395" lon="5.7026">
        <ele>686</ele>
        <time>2019-06-19T07:51:45Z</time>
      </trkpt>
      <trkpt lat="44.23948" lon="5.70253">
        <ele>686</ele>
        <time>2019-06-19T07:51:46Z</time>
      </trkpt>
      <trkpt lat="44.23946" lon="5.70247">
        <ele>686</ele>
        <time>2019-06-19T07:51:47Z</time>
      </trkpt>
      <trkpt lat="44.23943" lon="5.7024">
        <ele>686</ele>
        <time>2019-06-19T07:51:48Z</time>
      </trkpt>
      <trkpt lat="44.2394" lon="5.70234">
        <ele>686</ele>
        <time>2019-06-19T07:51:49Z</time>
      </trkpt>
      <trkpt lat="44.23937" lon="5.70228">
        <ele>686</ele>
        <time>2019-06-19T07:51:50Z</time>
      </trkpt>
      <trkpt lat="44.23935" lon="5.70221">
        <ele>686</ele>
        <time>2019-06-19T07:51:51Z</time>
      </trkpt>
      <trkpt lat="44.23933" lon="5.70214">
        <ele>686</ele>
        <time>2019-06-19T07:51:52Z</time>
      </trkpt>
      <trkpt lat="44.23932" lon="5.70207">
        <ele>686</ele>
        <time>2019-06-19T07:51:53Z</time>
      </trkpt>
      <trkpt lat="44.2393" lon="5.70201">
        <ele>686</ele>
        <time>2019-06-19T07:51:54Z</time>
      </trkpt>
      <trkpt lat="44.23929" lon="5.70194">
        <ele>686</ele>
        <time>2019-06-19T07:51:55Z</time>
      </trkpt>
      <trkpt lat="44.23928" lon="5.70187">
        <ele>686</ele>
        <time>2019-06-19T07:51:56Z</time>
      </trkpt>
      <trkpt lat="44.23928" lon="5.70179">
        <ele>686</ele>
        <time>2019-06-19T07:51:57Z</time>
      </trkpt>
      <trkpt lat="44.23928" lon="5.70173">
        <ele>686</ele>
        <time>2019-06-19T07:51:58Z</time>
      </trkpt>
      <trkpt lat="44.23928" lon="5.70165">
        <ele>686</ele>
        <time>2019-06-19T07:51:59Z</time>
      </trkpt>
      <trkpt lat="44.23928" lon="5.70158">
        <ele>686</ele>
        <time>2019-06-19T07:52:00Z</time>
      </trkpt>
      <trkpt lat="44.23927" lon="5.7015">
        <ele>686</ele>
        <time>2019-06-19T07:52:01Z</time>
      </trkpt>
      <trkpt lat="44.23927" lon="5.70142">
        <ele>686</ele>
        <time>2019-06-19T07:52:02Z</time>
      </trkpt>
      <trkpt lat="44.23925" lon="5.70134">
        <ele>686</ele>
        <time>2019-06-19T07:52:03Z</time>
      </trkpt>
      <trkpt lat="44.23924" lon="5.70126">
        <ele>686</ele>
        <time>2019-06-19T07:52:04Z</time>
      </trkpt>
      <trkpt lat="44.23921" lon="5.7012">
        <ele>686</ele>
        <time>2019-06-19T07:52:05Z</time>
      </trkpt>
      <trkpt lat="44.23918" lon="5.70114">
        <ele>686</ele>
        <time>2019-06-19T07:52:06Z</time>
      </trkpt>
      <trkpt lat="44.23914" lon="5.70109">
        <ele>686</ele>
        <time>2019-06-19T07:52:07Z</time>
      </trkpt>
      <trkpt lat="44.2391" lon="5.70104">
        <ele>686</ele>
        <time>2019-06-19T07:52:08Z</time>
      </trkpt>
      <trkpt lat="44.23906" lon="5.70098">
        <ele>686</ele>
        <time>2019-06-19T07:52:09Z</time>
      </trkpt>
      <trkpt lat="44.23902" lon="5.70093">
        <ele>686</ele>
        <time>2019-06-19T07:52:10Z</time>
      </trkpt>
      <trkpt lat="44.23898" lon="5.70088">
        <ele>686</ele>
        <time>2019-06-19T07:52:11Z</time>
      </trkpt>
      <trkpt lat="44.23894" lon="5.70082">
        <ele>686</ele>
        <time>2019-06-19T07:52:12Z</time>
      </trkpt>
      <trkpt lat="44.23891" lon="5.70076">
        <ele>686</ele>
        <time>2019-06-19T07:52:13Z</time>
      </trkpt>
      <trkpt lat="44.23887" lon="5.7007">
        <ele>686</ele>
        <time>2019-06-19T07:52:14Z</time>
      </trkpt>
      <trkpt lat="44.23884" lon="5.70063">
        <ele>686</ele>
        <time>2019-06-19T07:52:15Z</time>
      </trkpt>
      <trkpt lat="44.2388" lon="5.70057">
        <ele>686</ele>
        <time>2019-06-19T07:52:16Z</time>
      </trkpt>
      <trkpt lat="44.23877" lon="5.7005">
        <ele>685</ele>
        <time>2019-06-19T07:52:17Z</time>
      </trkpt>
      <trkpt lat="44.23873" lon="5.70044">
        <ele>685</ele>
        <time>2019-06-19T07:52:18Z</time>
      </trkpt>
      <trkpt lat="44.23869" lon="5.70037">
        <ele>684</ele>
        <time>2019-06-19T07:52:19Z</time>
      </trkpt>
      <trkpt lat="44.23864" lon="5.70032">
        <ele>684</ele>
        <time>2019-06-19T07:52:20Z</time>
      </trkpt>
      <trkpt lat="44.23859" lon="5.70027">
        <ele>684</ele>
        <time>2019-06-19T07:52:21Z</time>
      </trkpt>
      <trkpt lat="44.23852" lon="5.70024">
        <ele>684</ele>
        <time>2019-06-19T07:52:22Z</time>
      </trkpt>
      <trkpt lat="44.23846" lon="5.70021">
        <ele>684</ele>
        <time>2019-06-19T07:52:23Z</time>
      </trkpt>
      <trkpt lat="44.2384" lon="5.70018">
        <ele>684</ele>
        <time>2019-06-19T07:52:24Z</time>
      </trkpt>
      <trkpt lat="44.23833" lon="5.70016">
        <ele>684</ele>
        <time>2019-06-19T07:52:25Z</time>
      </trkpt>
      <trkpt lat="44.23827" lon="5.70014">
        <ele>684</ele>
        <time>2019-06-19T07:52:26Z</time>
      </trkpt>
      <trkpt lat="44.2382" lon="5.70011">
        <ele>684</ele>
        <time>2019-06-19T07:52:27Z</time>
      </trkpt>
      <trkpt lat="44.23814" lon="5.70006">
        <ele>684</ele>
        <time>2019-06-19T07:52:28Z</time>
      </trkpt>
      <trkpt lat="44.2381" lon="5.69998">
        <ele>684</ele>
        <time>2019-06-19T07:52:29Z</time>
      </trkpt>
      <trkpt lat="44.23809" lon="5.69989">
        <ele>684</ele>
        <time>2019-06-19T07:52:30Z</time>
      </trkpt>
      <trkpt lat="44.23808" lon="5.6998">
        <ele>684</ele>
        <time>2019-06-19T07:52:31Z</time>
      </trkpt>
      <trkpt lat="44.23806" lon="5.69971">
        <ele>684</ele>
        <time>2019-06-19T07:52:32Z</time>
      </trkpt>
      <trkpt lat="44.23803" lon="5.69964">
        <ele>684</ele>
        <time>2019-06-19T07:52:33Z</time>
      </trkpt>
      <trkpt lat="44.23799" lon="5.6996">
        <ele>684</ele>
        <time>2019-06-19T07:52:34Z</time>
      </trkpt>
      <trkpt lat="44.23794" lon="5.69957">
        <ele>684</ele>
        <time>2019-06-19T07:52:35Z</time>
      </trkpt>
      <trkpt lat="44.23789" lon="5.69955">
        <ele>684</ele>
        <time>2019-06-19T07:52:36Z</time>
      </trkpt>
      <trkpt lat="44.23785" lon="5.69954">
        <ele>684</ele>
        <time>2019-06-19T07:52:37Z</time>
      </trkpt>
      <trkpt lat="44.2378" lon="5.69952">
        <ele>684</ele>
        <time>2019-06-19T07:52:38Z</time>
      </trkpt>
      <trkpt lat="44.23775" lon="5.6995">
        <ele>685</ele>
        <time>2019-06-19T07:52:39Z</time>
      </trkpt>
      <trkpt lat="44.23771" lon="5.69948">
        <ele>685</ele>
        <time>2019-06-19T07:52:40Z</time>
      </trkpt>
      <trkpt lat="44.23767" lon="5.69945">
        <ele>686</ele>
        <time>2019-06-19T07:52:41Z</time>
      </trkpt>
      <trkpt lat="44.23763" lon="5.69942">
        <ele>686</ele>
        <time>2019-06-19T07:52:42Z</time>
      </trkpt>
      <trkpt lat="44.2376" lon="5.69938">
        <ele>687</ele>
        <time>2019-06-19T07:52:43Z</time>
      </trkpt>
      <trkpt lat="44.23756" lon="5.69935">
        <ele>687</ele>
        <time>2019-06-19T07:52:44Z</time>
      </trkpt>
      <trkpt lat="44.23751" lon="5.69931">
        <ele>688</ele>
        <time>2019-06-19T07:52:45Z</time>
      </trkpt>
      <trkpt lat="44.23748" lon="5.69928">
        <ele>688</ele>
        <time>2019-06-19T07:52:46Z</time>
      </trkpt>
      <trkpt lat="44.23744" lon="5.69925">
        <ele>688</ele>
        <time>2019-06-19T07:52:47Z</time>
      </trkpt>
      <trkpt lat="44.2374" lon="5.69922">
        <ele>689</ele>
        <time>2019-06-19T07:52:48Z</time>
      </trkpt>
      <trkpt lat="44.23737" lon="5.69918">
        <ele>689</ele>
        <time>2019-06-19T07:52:49Z</time>
      </trkpt>
      <trkpt lat="44.23733" lon="5.69914">
        <ele>689</ele>
        <time>2019-06-19T07:52:50Z</time>
      </trkpt>
      <trkpt lat="44.2373" lon="5.69909">
        <ele>690</ele>
        <time>2019-06-19T07:52:51Z</time>
      </trkpt>
      <trkpt lat="44.23728" lon="5.69904">
        <ele>690</ele>
        <time>2019-06-19T07:52:52Z</time>
      </trkpt>
      <trkpt lat="44.23726" lon="5.69899">
        <ele>690</ele>
        <time>2019-06-19T07:52:53Z</time>
      </trkpt>
      <trkpt lat="44.23725" lon="5.69894">
        <ele>690</ele>
        <time>2019-06-19T07:52:54Z</time>
      </trkpt>
      <trkpt lat="44.23723" lon="5.69888">
        <ele>691</ele>
        <time>2019-06-19T07:52:55Z</time>
      </trkpt>
      <trkpt lat="44.23721" lon="5.69883">
        <ele>691</ele>
        <time>2019-06-19T07:52:56Z</time>
      </trkpt>
      <trkpt lat="44.2372" lon="5.69878">
        <ele>691</ele>
        <time>2019-06-19T07:52:57Z</time>
      </trkpt>
      <trkpt lat="44.23719" lon="5.69873">
        <ele>691</ele>
        <time>2019-06-19T07:52:58Z</time>
      </trkpt>
      <trkpt lat="44.23717" lon="5.69868">
        <ele>691</ele>
        <time>2019-06-19T07:52:59Z</time>
      </trkpt>
      <trkpt lat="44.23716" lon="5.69863">
        <ele>691</ele>
        <time>2019-06-19T07:53:00Z</time>
      </trkpt>
      <trkpt lat="44.23714" lon="5.69858">
        <ele>691</ele>
        <time>2019-06-19T07:53:01Z</time>
      </trkpt>
      <trkpt lat="44.23713" lon="5.69853">
        <ele>691</ele>
        <time>2019-06-19T07:53:02Z</time>
      </trkpt>
      <trkpt lat="44.23711" lon="5.69848">
        <ele>692</ele>
        <time>2019-06-19T07:53:03Z</time>
      </trkpt>
      <trkpt lat="44.2371" lon="5.69842">
        <ele>692</ele>
        <time>2019-06-19T07:53:04Z</time>
      </trkpt>
      <trkpt lat="44.23708" lon="5.69838">
        <ele>692</ele>
        <time>2019-06-19T07:53:05Z</time>
      </trkpt>
      <trkpt lat="44.23707" lon="5.69833">
        <ele>692</ele>
        <time>2019-06-19T07:53:06Z</time>
      </trkpt>
      <trkpt lat="44.23705" lon="5.69829">
        <ele>692</ele>
        <time>2019-06-19T07:53:07Z</time>
      </trkpt>
      <trkpt lat="44.23703" lon="5.69824">
        <ele>692</ele>
        <time>2019-06-19T07:53:08Z</time>
      </trkpt>
      <trkpt lat="44.23701" lon="5.6982">
        <ele>692</ele>
        <time>2019-06-19T07:53:09Z</time>
      </trkpt>
      <trkpt lat="44.237" lon="5.69815">
        <ele>693</ele>
        <time>2019-06-19T07:53:10Z</time>
      </trkpt>
      <trkpt lat="44.23698" lon="5.69811">
        <ele>693</ele>
        <time>2019-06-19T07:53:11Z</time>
      </trkpt>
      <trkpt lat="44.23696" lon="5.69807">
        <ele>693</ele>
        <time>2019-06-19T07:53:12Z</time>
      </trkpt>
      <trkpt lat="44.23695" lon="5.69803">
        <ele>694</ele>
        <time>2019-06-19T07:53:13Z</time>
      </trkpt>
      <trkpt lat="44.23694" lon="5.69797">
        <ele>694</ele>
        <time>2019-06-19T07:53:14Z</time>
      </trkpt>
      <trkpt lat="44.23692" lon="5.69793">
        <ele>694</ele>
        <time>2019-06-19T07:53:15Z</time>
      </trkpt>
      <trkpt lat="44.23691" lon="5.69787">
        <ele>694</ele>
        <time>2019-06-19T07:53:16Z</time>
      </trkpt>
      <trkpt lat="44.2369" lon="5.69782">
        <ele>694</ele>
        <time>2019-06-19T07:53:17Z</time>
      </trkpt>
      <trkpt lat="44.23688" lon="5.69778">
        <ele>694</ele>
        <time>2019-06-19T07:53:18Z</time>
      </trkpt>
      <trkpt lat="44.23687" lon="5.69773">
        <ele>694</ele>
        <time>2019-06-19T07:53:19Z</time>
      </trkpt>
      <trkpt lat="44.23685" lon="5.69769">
        <ele>694</ele>
        <time>2019-06-19T07:53:20Z</time>
      </trkpt>
      <trkpt lat="44.23683" lon="5.69764">
        <ele>694</ele>
        <time>2019-06-19T07:53:21Z</time>
      </trkpt>
      <trkpt lat="44.23682" lon="5.6976">
        <ele>694</ele>
        <time>2019-06-19T07:53:22Z</time>
      </trkpt>
      <trkpt lat="44.2368" lon="5.69755">
        <ele>694</ele>
        <time>2019-06-19T07:53:23Z</time>
      </trkpt>
      <trkpt lat="44.23679" lon="5.69751">
        <ele>694</ele>
        <time>2019-06-19T07:53:24Z</time>
      </trkpt>
      <trkpt lat="44.23677" lon="5.69747">
        <ele>694</ele>
        <time>2019-06-19T07:53:25Z</time>
      </trkpt>
      <trkpt lat="44.23675" lon="5.69743">
        <ele>695</ele>
        <time>2019-06-19T07:53:26Z</time>
      </trkpt>
      <trkpt lat="44.23673" lon="5.69738">
        <ele>695</ele>
        <time>2019-06-19T07:53:27Z</time>
      </trkpt>
      <trkpt lat="44.23671" lon="5.69734">
        <ele>696</ele>
        <time>2019-06-19T07:53:28Z</time>
      </trkpt>
      <trkpt lat="44.23669" lon="5.6973">
        <ele>696</ele>
        <time>2019-06-19T07:53:29Z</time>
      </trkpt>
      <trkpt lat="44.23667" lon="5.69726">
        <ele>697</ele>
        <time>2019-06-19T07:53:30Z</time>
      </trkpt>
      <trkpt lat="44.23666" lon="5.69722">
        <ele>697</ele>
        <time>2019-06-19T07:53:31Z</time>
      </trkpt>
      <trkpt lat="44.23663" lon="5.69718">
        <ele>697</ele>
        <time>2019-06-19T07:53:32Z</time>
      </trkpt>
      <trkpt lat="44.23661" lon="5.69713">
        <ele>698</ele>
        <time>2019-06-19T07:53:33Z</time>
      </trkpt>
      <trkpt lat="44.23659" lon="5.69709">
        <ele>698</ele>
        <time>2019-06-19T07:53:34Z</time>
      </trkpt>
      <trkpt lat="44.23656" lon="5.69705">
        <ele>699</ele>
        <time>2019-06-19T07:53:35Z</time>
      </trkpt>
      <trkpt lat="44.23654" lon="5.697">
        <ele>699</ele>
        <time>2019-06-19T07:53:36Z</time>
      </trkpt>
      <trkpt lat="44.23651" lon="5.69696">
        <ele>699</ele>
        <time>2019-06-19T07:53:37Z</time>
      </trkpt>
      <trkpt lat="44.23648" lon="5.69692">
        <ele>700</ele>
        <time>2019-06-19T07:53:38Z</time>
      </trkpt>
      <trkpt lat="44.23645" lon="5.69688">
        <ele>700</ele>
        <time>2019-06-19T07:53:39Z</time>
      </trkpt>
      <trkpt lat="44.23642" lon="5.69685">
        <ele>701</ele>
        <time>2019-06-19T07:53:40Z</time>
      </trkpt>
      <trkpt lat="44.23639" lon="5.69681">
        <ele>701</ele>
        <time>2019-06-19T07:53:41Z</time>
      </trkpt>
      <trkpt lat="44.23636" lon="5.69677">
        <ele>701</ele>
        <time>2019-06-19T07:53:42Z</time>
      </trkpt>
      <trkpt lat="44.23632" lon="5.69675">
        <ele>702</ele>
        <time>2019-06-19T07:53:43Z</time>
      </trkpt>
      <trkpt lat="44.23628" lon="5.69672">
        <ele>702</ele>
        <time>2019-06-19T07:53:44Z</time>
      </trkpt>
      <trkpt lat="44.23624" lon="5.6967">
        <ele>702</ele>
        <time>2019-06-19T07:53:45Z</time>
      </trkpt>
      <trkpt lat="44.23621" lon="5.69667">
        <ele>702</ele>
        <time>2019-06-19T07:53:46Z</time>
      </trkpt>
      <trkpt lat="44.23617" lon="5.69665">
        <ele>702</ele>
        <time>2019-06-19T07:53:47Z</time>
      </trkpt>
      <trkpt lat="44.23613" lon="5.69662">
        <ele>702</ele>
        <time>2019-06-19T07:53:48Z</time>
      </trkpt>
      <trkpt lat="44.23609" lon="5.6966">
        <ele>703</ele>
        <time>2019-06-19T07:53:49Z</time>
      </trkpt>
      <trkpt lat="44.23606" lon="5.69658">
        <ele>703</ele>
        <time>2019-06-19T07:53:50Z</time>
      </trkpt>
      <trkpt lat="44.23602" lon="5.69656">
        <ele>703</ele>
        <time>2019-06-19T07:53:51Z</time>
      </trkpt>
      <trkpt lat="44.23599" lon="5.69653">
        <ele>703</ele>
        <time>2019-06-19T07:53:52Z</time>
      </trkpt>
      <trkpt lat="44.23595" lon="5.69651">
        <ele>703</ele>
        <time>2019-06-19T07:53:53Z</time>
      </trkpt>
      <trkpt lat="44.23591" lon="5.69648">
        <ele>704</ele>
        <time>2019-06-19T07:53:54Z</time>
      </trkpt>
      <trkpt lat="44.23587" lon="5.69645">
        <ele>704</ele>
        <time>2019-06-19T07:53:55Z</time>
      </trkpt>
      <trkpt lat="44.23583" lon="5.69643">
        <ele>704</ele>
        <time>2019-06-19T07:53:56Z</time>
      </trkpt>
      <trkpt lat="44.2358" lon="5.69641">
        <ele>704</ele>
        <time>2019-06-19T07:53:57Z</time>
      </trkpt>
      <trkpt lat="44.23576" lon="5.6964">
        <ele>704</ele>
        <time>2019-06-19T07:53:58Z</time>
      </trkpt>
      <trkpt lat="44.23572" lon="5.69639">
        <ele>704</ele>
        <time>2019-06-19T07:53:59Z</time>
      </trkpt>
      <trkpt lat="44.23568" lon="5.69638">
        <ele>705</ele>
        <time>2019-06-19T07:54:00Z</time>
      </trkpt>
      <trkpt lat="44.23565" lon="5.69637">
        <ele>705</ele>
        <time>2019-06-19T07:54:01Z</time>
      </trkpt>
      <trkpt lat="44.2356" lon="5.69636">
        <ele>706</ele>
        <time>2019-06-19T07:54:02Z</time>
      </trkpt>
      <trkpt lat="44.23557" lon="5.69635">
        <ele>706</ele>
        <time>2019-06-19T07:54:03Z</time>
      </trkpt>
      <trkpt lat="44.23552" lon="5.69633">
        <ele>706</ele>
        <time>2019-06-19T07:54:04Z</time>
      </trkpt>
      <trkpt lat="44.23548" lon="5.6963">
        <ele>707</ele>
        <time>2019-06-19T07:54:05Z</time>
      </trkpt>
      <trkpt lat="44.23543" lon="5.69628">
        <ele>707</ele>
        <time>2019-06-19T07:54:06Z</time>
      </trkpt>
      <trkpt lat="44.23539" lon="5.69625">
        <ele>707</ele>
        <time>2019-06-19T07:54:07Z</time>
      </trkpt>
      <trkpt lat="44.23535" lon="5.69621">
        <ele>707</ele>
        <time>2019-06-19T07:54:08Z</time>
      </trkpt>
      <trkpt lat="44.23532" lon="5.69616">
        <ele>707</ele>
        <time>2019-06-19T07:54:09Z</time>
      </trkpt>
      <trkpt lat="44.2353" lon="5.6961">
        <ele>707</ele>
        <time>2019-06-19T07:54:10Z</time>
      </trkpt>
      <trkpt lat="44.23529" lon="5.69604">
        <ele>707</ele>
        <time>2019-06-19T07:54:11Z</time>
      </trkpt>
      <trkpt lat="44.23529" lon="5.69597">
        <ele>707</ele>
        <time>2019-06-19T07:54:12Z</time>
      </trkpt>
      <trkpt lat="44.2353" lon="5.69591">
        <ele>707</ele>
        <time>2019-06-19T07:54:13Z</time>
      </trkpt>
      <trkpt lat="44.23532" lon="5.69585">
        <ele>707</ele>
        <time>2019-06-19T07:54:14Z</time>
      </trkpt>
      <trkpt lat="44.23534" lon="5.69579">
        <ele>707</ele>
        <time>2019-06-19T07:54:15Z</time>
      </trkpt>
      <trkpt lat="44.23538" lon="5.69574">
        <ele>707</ele>
        <time>2019-06-19T07:54:16Z</time>
      </trkpt>
      <trkpt lat="44.23542" lon="5.6957">
        <ele>707</ele>
        <time>2019-06-19T07:54:17Z</time>
      </trkpt>
      <trkpt lat="44.23546" lon="5.69566">
        <ele>707</ele>
        <time>2019-06-19T07:54:18Z</time>
      </trkpt>
      <trkpt lat="44.2355" lon="5.69561">
        <ele>707</ele>
        <time>2019-06-19T07:54:19Z</time>
      </trkpt>
      <trkpt lat="44.23555" lon="5.69558">
        <ele>706</ele>
        <time>2019-06-19T07:54:20Z</time>
      </trkpt>
      <trkpt lat="44.23559" lon="5.69555">
        <ele>706</ele>
        <time>2019-06-19T07:54:21Z</time>
      </trkpt>
      <trkpt lat="44.23564" lon="5.69552">
        <ele>706</ele>
        <time>2019-06-19T07:54:22Z</time>
      </trkpt>
      <trkpt lat="44.23568" lon="5.69549">
        <ele>706</ele>
        <time>2019-06-19T07:54:23Z</time>
      </trkpt>
      <trkpt lat="44.23573" lon="5.69545">
        <ele>706</ele>
        <time>2019-06-19T07:54:24Z</time>
      </trkpt>
      <trkpt lat="44.23577" lon="5.69542">
        <ele>706</ele>
        <time>2019-06-19T07:54:25Z</time>
      </trkpt>
      <trkpt lat="44.23581" lon="5.69538">
        <ele>706</ele>
        <time>2019-06-19T07:54:26Z</time>
      </trkpt>
      <trkpt lat="44.23586" lon="5.69534">
        <ele>706</ele>
        <time>2019-06-19T07:54:27Z</time>
      </trkpt>
      <trkpt lat="44.2359" lon="5.6953">
        <ele>706</ele>
        <time>2019-06-19T07:54:28Z</time>
      </trkpt>
      <trkpt lat="44.23594" lon="5.69526">
        <ele>706</ele>
        <time>2019-06-19T07:54:29Z</time>
      </trkpt>
      <trkpt lat="44.23597" lon="5.6952">
        <ele>706</ele>
        <time>2019-06-19T07:54:30Z</time>
      </trkpt>
      <trkpt lat="44.236" lon="5.69514">
        <ele>706</ele>
        <time>2019-06-19T07:54:31Z</time>
      </trkpt>
      <trkpt lat="44.23602" lon="5.69508">
        <ele>706</ele>
        <time>2019-06-19T07:54:32Z</time>
      </trkpt>
      <trkpt lat="44.23603" lon="5.69501">
        <ele>706</ele>
        <time>2019-06-19T07:54:33Z</time>
      </trkpt>
      <trkpt lat="44.23605" lon="5.69494">
        <ele>706</ele>
        <time>2019-06-19T07:54:34Z</time>
      </trkpt>
      <trkpt lat="44.23606" lon="5.69488">
        <ele>706</ele>
        <time>2019-06-19T07:54:35Z</time>
      </trkpt>
      <trkpt lat="44.23607" lon="5.69482">
        <ele>706</ele>
        <time>2019-06-19T07:54:36Z</time>
      </trkpt>
      <trkpt lat="44.23608" lon="5.69476">
        <ele>706</ele>
        <time>2019-06-19T07:54:37Z</time>
      </trkpt>
      <trkpt lat="44.23609" lon="5.69471">
        <ele>706</ele>
        <time>2019-06-19T07:54:38Z</time>
      </trkpt>
      <trkpt lat="44.2361" lon="5.69465">
        <ele>706</ele>
        <time>2019-06-19T07:54:39Z</time>
      </trkpt>
      <trkpt lat="44.23611" lon="5.69459">
        <ele>706</ele>
        <time>2019-06-19T07:54:40Z</time>
      </trkpt>
      <trkpt lat="44.23611" lon="5.69454">
        <ele>705</ele>
        <time>2019-06-19T07:54:41Z</time>
      </trkpt>
      <trkpt lat="44.23613" lon="5.69449">
        <ele>705</ele>
        <time>2019-06-19T07:54:42Z</time>
      </trkpt>
      <trkpt lat="44.23614" lon="5.69443">
        <ele>704</ele>
        <time>2019-06-19T07:54:43Z</time>
      </trkpt>
      <trkpt lat="44.23615" lon="5.69438">
        <ele>704</ele>
        <time>2019-06-19T07:54:44Z</time>
      </trkpt>
      <trkpt lat="44.23616" lon="5.69432">
        <ele>703</ele>
        <time>2019-06-19T07:54:45Z</time>
      </trkpt>
      <trkpt lat="44.23617" lon="5.69427">
        <ele>702</ele>
        <time>2019-06-19T07:54:46Z</time>
      </trkpt>
      <trkpt lat="44.23618" lon="5.69422">
        <ele>702</ele>
        <time>2019-06-19T07:54:47Z</time>
      </trkpt>
      <trkpt lat="44.23619" lon="5.69416">
        <ele>702</ele>
        <time>2019-06-19T07:54:48Z</time>
      </trkpt>
      <trkpt lat="44.2362" lon="5.69411">
        <ele>702</ele>
        <time>2019-06-19T07:54:49Z</time>
      </trkpt>
      <trkpt lat="44.23621" lon="5.69406">
        <ele>702</ele>
        <time>2019-06-19T07:54:50Z</time>
      </trkpt>
      <trkpt lat="44.23621" lon="5.69401">
        <ele>702</ele>
        <time>2019-06-19T07:54:51Z</time>
      </trkpt>
      <trkpt lat="44.23623" lon="5.69396">
        <ele>702</ele>
        <time>2019-06-19T07:54:52Z</time>
      </trkpt>
      <trkpt lat="44.23624" lon="5.69391">
        <ele>702</ele>
        <time>2019-06-19T07:54:53Z</time>
      </trkpt>
      <trkpt lat="44.23625" lon="5.69385">
        <ele>702</ele>
        <time>2019-06-19T07:54:54Z</time>
      </trkpt>
      <trkpt lat="44.23627" lon="5.69379">
        <ele>702</ele>
        <time>2019-06-19T07:54:55Z</time>
      </trkpt>
      <trkpt lat="44.23628" lon="5.69374">
        <ele>702</ele>
        <time>2019-06-19T07:54:56Z</time>
      </trkpt>
      <trkpt lat="44.23629" lon="5.69368">
        <ele>702</ele>
        <time>2019-06-19T07:54:57Z</time>
      </trkpt>
      <trkpt lat="44.2363" lon="5.69362">
        <ele>702</ele>
        <time>2019-06-19T07:54:58Z</time>
      </trkpt>
      <trkpt lat="44.23631" lon="5.69357">
        <ele>702</ele>
        <time>2019-06-19T07:54:59Z</time>
      </trkpt>
      <trkpt lat="44.23632" lon="5.69351">
        <ele>702</ele>
        <time>2019-06-19T07:55:00Z</time>
      </trkpt>
      <trkpt lat="44.23633" lon="5.69345">
        <ele>702</ele>
        <time>2019-06-19T07:55:01Z</time>
      </trkpt>
      <trkpt lat="44.23635" lon="5.6934">
        <ele>702</ele>
        <time>2019-06-19T07:55:02Z</time>
      </trkpt>
      <trkpt lat="44.23636" lon="5.69333">
        <ele>702</ele>
        <time>2019-06-19T07:55:03Z</time>
      </trkpt>
      <trkpt lat="44.23637" lon="5.69326">
        <ele>702</ele>
        <time>2019-06-19T07:55:04Z</time>
      </trkpt>
      <trkpt lat="44.23638" lon="5.6932">
        <ele>702</ele>
        <time>2019-06-19T07:55:05Z</time>
      </trkpt>
      <trkpt lat="44.23639" lon="5.69313">
        <ele>702</ele>
        <time>2019-06-19T07:55:06Z</time>
      </trkpt>
      <trkpt lat="44.2364" lon="5.69307">
        <ele>702</ele>
        <time>2019-06-19T07:55:07Z</time>
      </trkpt>
      <trkpt lat="44.23641" lon="5.69301">
        <ele>702</ele>
        <time>2019-06-19T07:55:08Z</time>
      </trkpt>
      <trkpt lat="44.23642" lon="5.69295">
        <ele>702</ele>
        <time>2019-06-19T07:55:09Z</time>
      </trkpt>
      <trkpt lat="44.23643" lon="5.69288">
        <ele>702</ele>
        <time>2019-06-19T07:55:10Z</time>
      </trkpt>
      <trkpt lat="44.23644" lon="5.69282">
        <ele>702</ele>
        <time>2019-06-19T07:55:11Z</time>
      </trkpt>
      <trkpt lat="44.23645" lon="5.69276">
        <ele>702</ele>
        <time>2019-06-19T07:55:12Z</time>
      </trkpt>
      <trkpt lat="44.23646" lon="5.6927">
        <ele>702</ele>
        <time>2019-06-19T07:55:13Z</time>
      </trkpt>
      <trkpt lat="44.23647" lon="5.69263">
        <ele>702</ele>
        <time>2019-06-19T07:55:14Z</time>
      </trkpt>
      <trkpt lat="44.23647" lon="5.69257">
        <ele>702</ele>
        <time>2019-06-19T07:55:15Z</time>
      </trkpt>
      <trkpt lat="44.23648" lon="5.6925">
        <ele>702</ele>
        <time>2019-06-19T07:55:16Z</time>
      </trkpt>
      <trkpt lat="44.23649" lon="5.69244">
        <ele>701</ele>
        <time>2019-06-19T07:55:17Z</time>
      </trkpt>
      <trkpt lat="44.2365" lon="5.69237">
        <ele>701</ele>
        <time>2019-06-19T07:55:18Z</time>
      </trkpt>
      <trkpt lat="44.23651" lon="5.69231">
        <ele>700</ele>
        <time>2019-06-19T07:55:19Z</time>
      </trkpt>
      <trkpt lat="44.23653" lon="5.69226">
        <ele>699</ele>
        <time>2019-06-19T07:55:20Z</time>
      </trkpt>
      <trkpt lat="44.23653" lon="5.6922">
        <ele>699</ele>
        <time>2019-06-19T07:55:21Z</time>
      </trkpt>
      <trkpt lat="44.23655" lon="5.69214">
        <ele>699</ele>
        <time>2019-06-19T07:55:22Z</time>
      </trkpt>
      <trkpt lat="44.23655" lon="5.69207">
        <ele>698</ele>
        <time>2019-06-19T07:55:23Z</time>
      </trkpt>
      <trkpt lat="44.23656" lon="5.69201">
        <ele>698</ele>
        <time>2019-06-19T07:55:24Z</time>
      </trkpt>
      <trkpt lat="44.23657" lon="5.69194">
        <ele>698</ele>
        <time>2019-06-19T07:55:25Z</time>
      </trkpt>
      <trkpt lat="44.23658" lon="5.69188">
        <ele>698</ele>
        <time>2019-06-19T07:55:26Z</time>
      </trkpt>
      <trkpt lat="44.23658" lon="5.69181">
        <ele>698</ele>
        <time>2019-06-19T07:55:27Z</time>
      </trkpt>
      <trkpt lat="44.23659" lon="5.69175">
        <ele>698</ele>
        <time>2019-06-19T07:55:28Z</time>
      </trkpt>
      <trkpt lat="44.2366" lon="5.69169">
        <ele>698</ele>
        <time>2019-06-19T07:55:29Z</time>
      </trkpt>
      <trkpt lat="44.2366" lon="5.69162">
        <ele>698</ele>
        <time>2019-06-19T07:55:30Z</time>
      </trkpt>
      <trkpt lat="44.23661" lon="5.69156">
        <ele>698</ele>
        <time>2019-06-19T07:55:31Z</time>
      </trkpt>
      <trkpt lat="44.23661" lon="5.69149">
        <ele>698</ele>
        <time>2019-06-19T07:55:32Z</time>
      </trkpt>
      <trkpt lat="44.23662" lon="5.69143">
        <ele>698</ele>
        <time>2019-06-19T07:55:33Z</time>
      </trkpt>
      <trkpt lat="44.23663" lon="5.69137">
        <ele>698</ele>
        <time>2019-06-19T07:55:34Z</time>
      </trkpt>
      <trkpt lat="44.23663" lon="5.69132">
        <ele>698</ele>
        <time>2019-06-19T07:55:35Z</time>
      </trkpt>
      <trkpt lat="44.23663" lon="5.69126">
        <ele>698</ele>
        <time>2019-06-19T07:55:36Z</time>
      </trkpt>
      <trkpt lat="44.23663" lon="5.69121">
        <ele>698</ele>
        <time>2019-06-19T07:55:37Z</time>
      </trkpt>
      <trkpt lat="44.23663" lon="5.69115">
        <ele>699</ele>
        <time>2019-06-19T07:55:38Z</time>
      </trkpt>
      <trkpt lat="44.23663" lon="5.6911">
        <ele>700</ele>
        <time>2019-06-19T07:55:39Z</time>
      </trkpt>
      <trkpt lat="44.23664" lon="5.69105">
        <ele>701</ele>
        <time>2019-06-19T07:55:40Z</time>
      </trkpt>
      <trkpt lat="44.23664" lon="5.691">
        <ele>702</ele>
        <time>2019-06-19T07:55:41Z</time>
      </trkpt>
      <trkpt lat="44.23665" lon="5.69095">
        <ele>703</ele>
        <time>2019-06-19T07:55:42Z</time>
      </trkpt>
      <trkpt lat="44.23666" lon="5.69089">
        <ele>704</ele>
        <time>2019-06-19T07:55:43Z</time>
      </trkpt>
      <trkpt lat="44.23666" lon="5.69084">
        <ele>705</ele>
        <time>2019-06-19T07:55:44Z</time>
      </trkpt>
      <trkpt lat="44.23666" lon="5.69079">
        <ele>706</ele>
        <time>2019-06-19T07:55:45Z</time>
      </trkpt>
      <trkpt lat="44.23667" lon="5.69074">
        <ele>707</ele>
        <time>2019-06-19T07:55:46Z</time>
      </trkpt>
      <trkpt lat="44.23668" lon="5.69068">
        <ele>708</ele>
        <time>2019-06-19T07:55:47Z</time>
      </trkpt>
      <trkpt lat="44.23668" lon="5.69062">
        <ele>708</ele>
        <time>2019-06-19T07:55:48Z</time>
      </trkpt>
      <trkpt lat="44.23669" lon="5.69056">
        <ele>708</ele>
        <time>2019-06-19T07:55:49Z</time>
      </trkpt>
      <trkpt lat="44.23669" lon="5.69051">
        <ele>708</ele>
        <time>2019-06-19T07:55:50Z</time>
      </trkpt>
      <trkpt lat="44.23669" lon="5.69045">
        <ele>708</ele>
        <time>2019-06-19T07:55:51Z</time>
      </trkpt>
      <trkpt lat="44.2367" lon="5.69039">
        <ele>708</ele>
        <time>2019-06-19T07:55:52Z</time>
      </trkpt>
      <trkpt lat="44.2367" lon="5.69034">
        <ele>708</ele>
        <time>2019-06-19T07:55:53Z</time>
      </trkpt>
      <trkpt lat="44.23671" lon="5.69028">
        <ele>708</ele>
        <time>2019-06-19T07:55:54Z</time>
      </trkpt>
      <trkpt lat="44.23671" lon="5.69022">
        <ele>708</ele>
        <time>2019-06-19T07:55:55Z</time>
      </trkpt>
      <trkpt lat="44.23672" lon="5.69016">
        <ele>708</ele>
        <time>2019-06-19T07:55:56Z</time>
      </trkpt>
      <trkpt lat="44.23672" lon="5.69009">
        <ele>708</ele>
        <time>2019-06-19T07:55:57Z</time>
      </trkpt>
      <trkpt lat="44.23673" lon="5.69003">
        <ele>708</ele>
        <time>2019-06-19T07:55:58Z</time>
      </trkpt>
      <trkpt lat="44.23674" lon="5.68997">
        <ele>708</ele>
        <time>2019-06-19T07:55:59Z</time>
      </trkpt>
      <trkpt lat="44.23674" lon="5.68991">
        <ele>709</ele>
        <time>2019-06-19T07:56:00Z</time>
      </trkpt>
      <trkpt lat="44.23674" lon="5.68984">
        <ele>709</ele>
        <time>2019-06-19T07:56:01Z</time>
      </trkpt>
      <trkpt lat="44.23675" lon="5.68977">
        <ele>709</ele>
        <time>2019-06-19T07:56:02Z</time>
      </trkpt>
      <trkpt lat="44.23676" lon="5.68971">
        <ele>709</ele>
        <time>2019-06-19T07:56:03Z</time>
      </trkpt>
      <trkpt lat="44.23676" lon="5.68964">
        <ele>709</ele>
        <time>2019-06-19T07:56:04Z</time>
      </trkpt>
      <trkpt lat="44.23676" lon="5.68957">
        <ele>709</ele>
        <time>2019-06-19T07:56:05Z</time>
      </trkpt>
      <trkpt lat="44.23675" lon="5.68951">
        <ele>709</ele>
        <time>2019-06-19T07:56:06Z</time>
      </trkpt>
      <trkpt lat="44.23674" lon="5.68944">
        <ele>709</ele>
        <time>2019-06-19T07:56:07Z</time>
      </trkpt>
      <trkpt lat="44.23673" lon="5.68937">
        <ele>709</ele>
        <time>2019-06-19T07:56:08Z</time>
      </trkpt>
      <trkpt lat="44.23671" lon="5.6893">
        <ele>709</ele>
        <time>2019-06-19T07:56:09Z</time>
      </trkpt>
      <trkpt lat="44.2367" lon="5.68924">
        <ele>709</ele>
        <time>2019-06-19T07:56:10Z</time>
      </trkpt>
      <trkpt lat="44.23668" lon="5.68917">
        <ele>709</ele>
        <time>2019-06-19T07:56:11Z</time>
      </trkpt>
      <trkpt lat="44.23667" lon="5.6891">
        <ele>709</ele>
        <time>2019-06-19T07:56:12Z</time>
      </trkpt>
      <trkpt lat="44.23666" lon="5.68903">
        <ele>709</ele>
        <time>2019-06-19T07:56:13Z</time>
      </trkpt>
      <trkpt lat="44.23665" lon="5.68896">
        <ele>709</ele>
        <time>2019-06-19T07:56:14Z</time>
      </trkpt>
      <trkpt lat="44.23663" lon="5.68889">
        <ele>709</ele>
        <time>2019-06-19T07:56:15Z</time>
      </trkpt>
      <trkpt lat="44.23663" lon="5.68882">
        <ele>709</ele>
        <time>2019-06-19T07:56:16Z</time>
      </trkpt>
      <trkpt lat="44.23661" lon="5.68876">
        <ele>709</ele>
        <time>2019-06-19T07:56:17Z</time>
      </trkpt>
      <trkpt lat="44.2366" lon="5.68869">
        <ele>710</ele>
        <time>2019-06-19T07:56:18Z</time>
      </trkpt>
      <trkpt lat="44.23659" lon="5.68863">
        <ele>710</ele>
        <time>2019-06-19T07:56:19Z</time>
      </trkpt>
      <trkpt lat="44.23658" lon="5.68857">
        <ele>711</ele>
        <time>2019-06-19T07:56:20Z</time>
      </trkpt>
      <trkpt lat="44.23656" lon="5.6885">
        <ele>712</ele>
        <time>2019-06-19T07:56:21Z</time>
      </trkpt>
      <trkpt lat="44.23655" lon="5.68844">
        <ele>713</ele>
        <time>2019-06-19T07:56:22Z</time>
      </trkpt>
      <trkpt lat="44.23653" lon="5.68838">
        <ele>714</ele>
        <time>2019-06-19T07:56:23Z</time>
      </trkpt>
      <trkpt lat="44.23651" lon="5.68833">
        <ele>715</ele>
        <time>2019-06-19T07:56:24Z</time>
      </trkpt>
      <trkpt lat="44.2365" lon="5.68827">
        <ele>715</ele>
        <time>2019-06-19T07:56:25Z</time>
      </trkpt>
      <trkpt lat="44.23648" lon="5.68821">
        <ele>716</ele>
        <time>2019-06-19T07:56:26Z</time>
      </trkpt>
      <trkpt lat="44.23647" lon="5.68816">
        <ele>717</ele>
        <time>2019-06-19T07:56:27Z</time>
      </trkpt>
      <trkpt lat="44.23645" lon="5.6881">
        <ele>717</ele>
        <time>2019-06-19T07:56:28Z</time>
      </trkpt>
      <trkpt lat="44.23644" lon="5.68804">
        <ele>717</ele>
        <time>2019-06-19T07:56:29Z</time>
      </trkpt>
      <trkpt lat="44.23643" lon="5.68798">
        <ele>718</ele>
        <time>2019-06-19T07:56:30Z</time>
      </trkpt>
      <trkpt lat="44.23642" lon="5.68792">
        <ele>718</ele>
        <time>2019-06-19T07:56:31Z</time>
      </trkpt>
      <trkpt lat="44.23641" lon="5.68785">
        <ele>719</ele>
        <time>2019-06-19T07:56:32Z</time>
      </trkpt>
      <trkpt lat="44.23641" lon="5.68779">
        <ele>719</ele>
        <time>2019-06-19T07:56:33Z</time>
      </trkpt>
      <trkpt lat="44.23642" lon="5.68773">
        <ele>720</ele>
        <time>2019-06-19T07:56:34Z</time>
      </trkpt>
      <trkpt lat="44.23642" lon="5.68767">
        <ele>720</ele>
        <time>2019-06-19T07:56:35Z</time>
      </trkpt>
      <trkpt lat="44.23642" lon="5.6876">
        <ele>720</ele>
        <time>2019-06-19T07:56:36Z</time>
      </trkpt>
      <trkpt lat="44.23643" lon="5.68754">
        <ele>721</ele>
        <time>2019-06-19T07:56:37Z</time>
      </trkpt>
      <trkpt lat="44.23643" lon="5.68748">
        <ele>721</ele>
        <time>2019-06-19T07:56:38Z</time>
      </trkpt>
      <trkpt lat="44.23642" lon="5.68741">
        <ele>721</ele>
        <time>2019-06-19T07:56:39Z</time>
      </trkpt>
      <trkpt lat="44.23641" lon="5.68735">
        <ele>721</ele>
        <time>2019-06-19T07:56:40Z</time>
      </trkpt>
      <trkpt lat="44.23639" lon="5.68729">
        <ele>722</ele>
        <time>2019-06-19T07:56:41Z</time>
      </trkpt>
      <trkpt lat="44.23636" lon="5.68723">
        <ele>722</ele>
        <time>2019-06-19T07:56:42Z</time>
      </trkpt>
      <trkpt lat="44.23634" lon="5.68717">
        <ele>722</ele>
        <time>2019-06-19T07:56:43Z</time>
      </trkpt>
      <trkpt lat="44.23631" lon="5.68712">
        <ele>722</ele>
        <time>2019-06-19T07:56:44Z</time>
      </trkpt>
      <trkpt lat="44.23628" lon="5.68706">
        <ele>723</ele>
        <time>2019-06-19T07:56:45Z</time>
      </trkpt>
      <trkpt lat="44.23626" lon="5.687">
        <ele>723</ele>
        <time>2019-06-19T07:56:46Z</time>
      </trkpt>
      <trkpt lat="44.23623" lon="5.68695">
        <ele>723</ele>
        <time>2019-06-19T07:56:47Z</time>
      </trkpt>
      <trkpt lat="44.23621" lon="5.68689">
        <ele>723</ele>
        <time>2019-06-19T07:56:48Z</time>
      </trkpt>
      <trkpt lat="44.23618" lon="5.68684">
        <ele>724</ele>
        <time>2019-06-19T07:56:49Z</time>
      </trkpt>
      <trkpt lat="44.23616" lon="5.68679">
        <ele>724</ele>
        <time>2019-06-19T07:56:50Z</time>
      </trkpt>
      <trkpt lat="44.23615" lon="5.68673">
        <ele>725</ele>
        <time>2019-06-19T07:56:51Z</time>
      </trkpt>
      <trkpt lat="44.23613" lon="5.68667">
        <ele>726</ele>
        <time>2019-06-19T07:56:52Z</time>
      </trkpt>
      <trkpt lat="44.23613" lon="5.68661">
        <ele>726</ele>
        <time>2019-06-19T07:56:53Z</time>
      </trkpt>
      <trkpt lat="44.23612" lon="5.68655">
        <ele>726</ele>
        <time>2019-06-19T07:56:54Z</time>
      </trkpt>
      <trkpt lat="44.23611" lon="5.68649">
        <ele>727</ele>
        <time>2019-06-19T07:56:55Z</time>
      </trkpt>
      <trkpt lat="44.23611" lon="5.68642">
        <ele>727</ele>
        <time>2019-06-19T07:56:56Z</time>
      </trkpt>
      <trkpt lat="44.2361" lon="5.68636">
        <ele>727</ele>
        <time>2019-06-19T07:56:57Z</time>
      </trkpt>
      <trkpt lat="44.23608" lon="5.6863">
        <ele>727</ele>
        <time>2019-06-19T07:56:58Z</time>
      </trkpt>
      <trkpt lat="44.23607" lon="5.68623">
        <ele>727</ele>
        <time>2019-06-19T07:56:59Z</time>
      </trkpt>
      <trkpt lat="44.23606" lon="5.68617">
        <ele>727</ele>
        <time>2019-06-19T07:57:00Z</time>
      </trkpt>
      <trkpt lat="44.23605" lon="5.6861">
        <ele>727</ele>
        <time>2019-06-19T07:57:01Z</time>
      </trkpt>
      <trkpt lat="44.23604" lon="5.68604">
        <ele>727</ele>
        <time>2019-06-19T07:57:02Z</time>
      </trkpt>
      <trkpt lat="44.23603" lon="5.68598">
        <ele>727</ele>
        <time>2019-06-19T07:57:03Z</time>
      </trkpt>
      <trkpt lat="44.23603" lon="5.68591">
        <ele>727</ele>
        <time>2019-06-19T07:57:04Z</time>
      </trkpt>
      <trkpt lat="44.23602" lon="5.68585">
        <ele>727</ele>
        <time>2019-06-19T07:57:05Z</time>
      </trkpt>
      <trkpt lat="44.23601" lon="5.68579">
        <ele>727</ele>
        <time>2019-06-19T07:57:06Z</time>
      </trkpt>
      <trkpt lat="44.236" lon="5.68572">
        <ele>727</ele>
        <time>2019-06-19T07:57:07Z</time>
      </trkpt>
      <trkpt lat="44.23599" lon="5.68566">
        <ele>727</ele>
        <time>2019-06-19T07:57:08Z</time>
      </trkpt>
      <trkpt lat="44.23597" lon="5.6856">
        <ele>727</ele>
        <time>2019-06-19T07:57:09Z</time>
      </trkpt>
      <trkpt lat="44.23595" lon="5.68554">
        <ele>727</ele>
        <time>2019-06-19T07:57:10Z</time>
      </trkpt>
      <trkpt lat="44.23592" lon="5.68548">
        <ele>727</ele>
        <time>2019-06-19T07:57:11Z</time>
      </trkpt>
      <trkpt lat="44.23589" lon="5.68543">
        <ele>727</ele>
        <time>2019-06-19T07:57:12Z</time>
      </trkpt>
      <trkpt lat="44.23586" lon="5.68537">
        <ele>727</ele>
        <time>2019-06-19T07:57:13Z</time>
      </trkpt>
      <trkpt lat="44.23583" lon="5.68532">
        <ele>728</ele>
        <time>2019-06-19T07:57:14Z</time>
      </trkpt>
      <trkpt lat="44.2358" lon="5.68527">
        <ele>729</ele>
        <time>2019-06-19T07:57:15Z</time>
      </trkpt>
      <trkpt lat="44.23577" lon="5.68522">
        <ele>729</ele>
        <time>2019-06-19T07:57:16Z</time>
      </trkpt>
      <trkpt lat="44.23575" lon="5.68516">
        <ele>730</ele>
        <time>2019-06-19T07:57:17Z</time>
      </trkpt>
      <trkpt lat="44.23572" lon="5.68511">
        <ele>730</ele>
        <time>2019-06-19T07:57:18Z</time>
      </trkpt>
      <trkpt lat="44.2357" lon="5.68506">
        <ele>731</ele>
        <time>2019-06-19T07:57:19Z</time>
      </trkpt>
      <trkpt lat="44.23568" lon="5.685">
        <ele>731</ele>
        <time>2019-06-19T07:57:20Z</time>
      </trkpt>
      <trkpt lat="44.23565" lon="5.68495">
        <ele>731</ele>
        <time>2019-06-19T07:57:21Z</time>
      </trkpt>
      <trkpt lat="44.23563" lon="5.68489">
        <ele>732</ele>
        <time>2019-06-19T07:57:22Z</time>
      </trkpt>
      <trkpt lat="44.2356" lon="5.68483">
        <ele>732</ele>
        <time>2019-06-19T07:57:23Z</time>
      </trkpt>
      <trkpt lat="44.23558" lon="5.68478">
        <ele>733</ele>
        <time>2019-06-19T07:57:24Z</time>
      </trkpt>
      <trkpt lat="44.23555" lon="5.68472">
        <ele>733</ele>
        <time>2019-06-19T07:57:25Z</time>
      </trkpt>
      <trkpt lat="44.23553" lon="5.68466">
        <ele>733</ele>
        <time>2019-06-19T07:57:26Z</time>
      </trkpt>
      <trkpt lat="44.2355" lon="5.6846">
        <ele>734</ele>
        <time>2019-06-19T07:57:27Z</time>
      </trkpt>
      <trkpt lat="44.23548" lon="5.68455">
        <ele>734</ele>
        <time>2019-06-19T07:57:28Z</time>
      </trkpt>
      <trkpt lat="44.23545" lon="5.68449">
        <ele>734</ele>
        <time>2019-06-19T07:57:29Z</time>
      </trkpt>
      <trkpt lat="44.23542" lon="5.68443">
        <ele>734</ele>
        <time>2019-06-19T07:57:30Z</time>
      </trkpt>
      <trkpt lat="44.2354" lon="5.68438">
        <ele>734</ele>
        <time>2019-06-19T07:57:31Z</time>
      </trkpt>
      <trkpt lat="44.23538" lon="5.68432">
        <ele>734</ele>
        <time>2019-06-19T07:57:32Z</time>
      </trkpt>
      <trkpt lat="44.23535" lon="5.68426">
        <ele>734</ele>
        <time>2019-06-19T07:57:33Z</time>
      </trkpt>
      <trkpt lat="44.23533" lon="5.68421">
        <ele>734</ele>
        <time>2019-06-19T07:57:34Z</time>
      </trkpt>
      <trkpt lat="44.2353" lon="5.68416">
        <ele>734</ele>
        <time>2019-06-19T07:57:35Z</time>
      </trkpt>
      <trkpt lat="44.23527" lon="5.68411">
        <ele>734</ele>
        <time>2019-06-19T07:57:36Z</time>
      </trkpt>
      <trkpt lat="44.23523" lon="5.68407">
        <ele>734</ele>
        <time>2019-06-19T07:57:37Z</time>
      </trkpt>
      <trkpt lat="44.23519" lon="5.68404">
        <ele>734</ele>
        <time>2019-06-19T07:57:38Z</time>
      </trkpt>
      <trkpt lat="44.23515" lon="5.68403">
        <ele>734</ele>
        <time>2019-06-19T07:57:39Z</time>
      </trkpt>
      <trkpt lat="44.2351" lon="5.68402">
        <ele>734</ele>
        <time>2019-06-19T07:57:40Z</time>
      </trkpt>
      <trkpt lat="44.23505" lon="5.68404">
        <ele>734</ele>
        <time>2019-06-19T07:57:41Z</time>
      </trkpt>
      <trkpt lat="44.23501" lon="5.68407">
        <ele>734</ele>
        <time>2019-06-19T07:57:42Z</time>
      </trkpt>
      <trkpt lat="44.23497" lon="5.6841">
        <ele>734</ele>
        <time>2019-06-19T07:57:43Z</time>
      </trkpt>
      <trkpt lat="44.23493" lon="5.68414">
        <ele>734</ele>
        <time>2019-06-19T07:57:44Z</time>
      </trkpt>
      <trkpt lat="44.23489" lon="5.68417">
        <ele>734</ele>
        <time>2019-06-19T07:57:45Z</time>
      </trkpt>
      <trkpt lat="44.23486" lon="5.68419">
        <ele>734</ele>
        <time>2019-06-19T07:57:46Z</time>
      </trkpt>
      <trkpt lat="44.23481" lon="5.6842">
        <ele>734</ele>
        <time>2019-06-19T07:57:47Z</time>
      </trkpt>
      <trkpt lat="44.23476" lon="5.68418">
        <ele>734</ele>
        <time>2019-06-19T07:57:48Z</time>
      </trkpt>
      <trkpt lat="44.23473" lon="5.68414">
        <ele>734</ele>
        <time>2019-06-19T07:57:49Z</time>
      </trkpt>
      <trkpt lat="44.23471" lon="5.68409">
        <ele>734</ele>
        <time>2019-06-19T07:57:50Z</time>
      </trkpt>
      <trkpt lat="44.23468" lon="5.68403">
        <ele>734</ele>
        <time>2019-06-19T07:57:51Z</time>
      </trkpt>
      <trkpt lat="44.23466" lon="5.68398">
        <ele>734</ele>
        <time>2019-06-19T07:57:52Z</time>
      </trkpt>
      <trkpt lat="44.23464" lon="5.68393">
        <ele>734</ele>
        <time>2019-06-19T07:57:53Z</time>
      </trkpt>
      <trkpt lat="44.23462" lon="5.68387">
        <ele>734</ele>
        <time>2019-06-19T07:57:54Z</time>
      </trkpt>
      <trkpt lat="44.2346" lon="5.68382">
        <ele>734</ele>
        <time>2019-06-19T07:57:55Z</time>
      </trkpt>
      <trkpt lat="44.23458" lon="5.68377">
        <ele>734</ele>
        <time>2019-06-19T07:57:56Z</time>
      </trkpt>
      <trkpt lat="44.23456" lon="5.68372">
        <ele>734</ele>
        <time>2019-06-19T07:57:57Z</time>
      </trkpt>
      <trkpt lat="44.23453" lon="5.68368">
        <ele>734</ele>
        <time>2019-06-19T07:57:58Z</time>
      </trkpt>
      <trkpt lat="44.23451" lon="5.68365">
        <ele>734</ele>
        <time>2019-06-19T07:57:59Z</time>
      </trkpt>
      <trkpt lat="44.23449" lon="5.68361">
        <ele>734</ele>
        <time>2019-06-19T07:58:00Z</time>
      </trkpt>
      <trkpt lat="44.23446" lon="5.68357">
        <ele>734</ele>
        <time>2019-06-19T07:58:01Z</time>
      </trkpt>
      <trkpt lat="44.23444" lon="5.68353">
        <ele>734</ele>
        <time>2019-06-19T07:58:02Z</time>
      </trkpt>
      <trkpt lat="44.23441" lon="5.6835">
        <ele>734</ele>
        <time>2019-06-19T07:58:03Z</time>
      </trkpt>
      <trkpt lat="44.23439" lon="5.68345">
        <ele>734</ele>
        <time>2019-06-19T07:58:04Z</time>
      </trkpt>
      <trkpt lat="44.23436" lon="5.68342">
        <ele>734</ele>
        <time>2019-06-19T07:58:05Z</time>
      </trkpt>
      <trkpt lat="44.23434" lon="5.68338">
        <ele>734</ele>
        <time>2019-06-19T07:58:06Z</time>
      </trkpt>
      <trkpt lat="44.23431" lon="5.68334">
        <ele>734</ele>
        <time>2019-06-19T07:58:07Z</time>
      </trkpt>
      <trkpt lat="44.23429" lon="5.6833">
        <ele>734</ele>
        <time>2019-06-19T07:58:08Z</time>
      </trkpt>
      <trkpt lat="44.23426" lon="5.68327">
        <ele>734</ele>
        <time>2019-06-19T07:58:09Z</time>
      </trkpt>
      <trkpt lat="44.23423" lon="5.68323">
        <ele>734</ele>
        <time>2019-06-19T07:58:10Z</time>
      </trkpt>
      <trkpt lat="44.23421" lon="5.6832">
        <ele>734</ele>
        <time>2019-06-19T07:58:11Z</time>
      </trkpt>
      <trkpt lat="44.23418" lon="5.68316">
        <ele>734</ele>
        <time>2019-06-19T07:58:12Z</time>
      </trkpt>
      <trkpt lat="44.23415" lon="5.68313">
        <ele>734</ele>
        <time>2019-06-19T07:58:13Z</time>
      </trkpt>
      <trkpt lat="44.23413" lon="5.6831">
        <ele>734</ele>
        <time>2019-06-19T07:58:14Z</time>
      </trkpt>
      <trkpt lat="44.2341" lon="5.68307">
        <ele>734</ele>
        <time>2019-06-19T07:58:15Z</time>
      </trkpt>
      <trkpt lat="44.23407" lon="5.68304">
        <ele>734</ele>
        <time>2019-06-19T07:58:16Z</time>
      </trkpt>
      <trkpt lat="44.23404" lon="5.68302">
        <ele>734</ele>
        <time>2019-06-19T07:58:17Z</time>
      </trkpt>
      <trkpt lat="44.23401" lon="5.68299">
        <ele>734</ele>
        <time>2019-06-19T07:58:18Z</time>
      </trkpt>
      <trkpt lat="44.23398" lon="5.68296">
        <ele>734</ele>
        <time>2019-06-19T07:58:19Z</time>
      </trkpt>
      <trkpt lat="44.23395" lon="5.68293">
        <ele>734</ele>
        <time>2019-06-19T07:58:20Z</time>
      </trkpt>
      <trkpt lat="44.23392" lon="5.6829">
        <ele>734</ele>
        <time>2019-06-19T07:58:21Z</time>
      </trkpt>
      <trkpt lat="44.23389" lon="5.68287">
        <ele>734</ele>
        <time>2019-06-19T07:58:22Z</time>
      </trkpt>
      <trkpt lat="44.23386" lon="5.68284">
        <ele>734</ele>
        <time>2019-06-19T07:58:23Z</time>
      </trkpt>
      <trkpt lat="44.23383" lon="5.68281">
        <ele>734</ele>
        <time>2019-06-19T07:58:24Z</time>
      </trkpt>
      <trkpt lat="44.23381" lon="5.68279">
        <ele>734</ele>
        <time>2019-06-19T07:58:25Z</time>
      </trkpt>
      <trkpt lat="44.23378" lon="5.68276">
        <ele>734</ele>
        <time>2019-06-19T07:58:26Z</time>
      </trkpt>
      <trkpt lat="44.23375" lon="5.68273">
        <ele>734</ele>
        <time>2019-06-19T07:58:27Z</time>
      </trkpt>
      <trkpt lat="44.23373" lon="5.6827">
        <ele>734</ele>
        <time>2019-06-19T07:58:28Z</time>
      </trkpt>
      <trkpt lat="44.2337" lon="5.68268">
        <ele>734</ele>
        <time>2019-06-19T07:58:29Z</time>
      </trkpt>
      <trkpt lat="44.23367" lon="5.68266">
        <ele>734</ele>
        <time>2019-06-19T07:58:30Z</time>
      </trkpt>
      <trkpt lat="44.23365" lon="5.68263">
        <ele>734</ele>
        <time>2019-06-19T07:58:31Z</time>
      </trkpt>
      <trkpt lat="44.23362" lon="5.68261">
        <ele>734</ele>
        <time>2019-06-19T07:58:32Z</time>
      </trkpt>
      <trkpt lat="44.23359" lon="5.68258">
        <ele>734</ele>
        <time>2019-06-19T07:58:33Z</time>
      </trkpt>
      <trkpt lat="44.23356" lon="5.68256">
        <ele>735</ele>
        <time>2019-06-19T07:58:34Z</time>
      </trkpt>
      <trkpt lat="44.23353" lon="5.68254">
        <ele>735</ele>
        <time>2019-06-19T07:58:35Z</time>
      </trkpt>
      <trkpt lat="44.23351" lon="5.68253">
        <ele>735</ele>
        <time>2019-06-19T07:58:36Z</time>
      </trkpt>
      <trkpt lat="44.23348" lon="5.68251">
        <ele>736</ele>
        <time>2019-06-19T07:58:37Z</time>
      </trkpt>
      <trkpt lat="44.23346" lon="5.68249">
        <ele>736</ele>
        <time>2019-06-19T07:58:38Z</time>
      </trkpt>
      <trkpt lat="44.23343" lon="5.68248">
        <ele>736</ele>
        <time>2019-06-19T07:58:39Z</time>
      </trkpt>
      <trkpt lat="44.2334" lon="5.68246">
        <ele>737</ele>
        <time>2019-06-19T07:58:40Z</time>
      </trkpt>
      <trkpt lat="44.23337" lon="5.68244">
        <ele>737</ele>
        <time>2019-06-19T07:58:41Z</time>
      </trkpt>
      <trkpt lat="44.23334" lon="5.68242">
        <ele>738</ele>
        <time>2019-06-19T07:58:42Z</time>
      </trkpt>
      <trkpt lat="44.23332" lon="5.6824">
        <ele>738</ele>
        <time>2019-06-19T07:58:43Z</time>
      </trkpt>
      <trkpt lat="44.23329" lon="5.68239">
        <ele>739</ele>
        <time>2019-06-19T07:58:44Z</time>
      </trkpt>
      <trkpt lat="44.23327" lon="5.68237">
        <ele>739</ele>
        <time>2019-06-19T07:58:45Z</time>
      </trkpt>
      <trkpt lat="44.23324" lon="5.68236">
        <ele>740</ele>
        <time>2019-06-19T07:58:46Z</time>
      </trkpt>
      <trkpt lat="44.23322" lon="5.68234">
        <ele>740</ele>
        <time>2019-06-19T07:58:47Z</time>
      </trkpt>
      <trkpt lat="44.23318" lon="5.68232">
        <ele>740</ele>
        <time>2019-06-19T07:58:48Z</time>
      </trkpt>
      <trkpt lat="44.23316" lon="5.68231">
        <ele>741</ele>
        <time>2019-06-19T07:58:49Z</time>
      </trkpt>
      <trkpt lat="44.23314" lon="5.68229">
        <ele>741</ele>
        <time>2019-06-19T07:58:50Z</time>
      </trkpt>
      <trkpt lat="44.23311" lon="5.68228">
        <ele>741</ele>
        <time>2019-06-19T07:58:51Z</time>
      </trkpt>
      <trkpt lat="44.23308" lon="5.68227">
        <ele>741</ele>
        <time>2019-06-19T07:58:52Z</time>
      </trkpt>
      <trkpt lat="44.23306" lon="5.68226">
        <ele>742</ele>
        <time>2019-06-19T07:58:53Z</time>
      </trkpt>
      <trkpt lat="44.23302" lon="5.68225">
        <ele>742</ele>
        <time>2019-06-19T07:58:54Z</time>
      </trkpt>
      <trkpt lat="44.23299" lon="5.68224">
        <ele>743</ele>
        <time>2019-06-19T07:58:55Z</time>
      </trkpt>
      <trkpt lat="44.23296" lon="5.68222">
        <ele>744</ele>
        <time>2019-06-19T07:58:56Z</time>
      </trkpt>
      <trkpt lat="44.23294" lon="5.68221">
        <ele>745</ele>
        <time>2019-06-19T07:58:57Z</time>
      </trkpt>
      <trkpt lat="44.23291" lon="5.6822">
        <ele>746</ele>
        <time>2019-06-19T07:58:58Z</time>
      </trkpt>
      <trkpt lat="44.23288" lon="5.68218">
        <ele>746</ele>
        <time>2019-06-19T07:58:59Z</time>
      </trkpt>
      <trkpt lat="44.23285" lon="5.68216">
        <ele>746</ele>
        <time>2019-06-19T07:59:00Z</time>
      </trkpt>
      <trkpt lat="44.23282" lon="5.68215">
        <ele>746</ele>
        <time>2019-06-19T07:59:01Z</time>
      </trkpt>
      <trkpt lat="44.23279" lon="5.68214">
        <ele>746</ele>
        <time>2019-06-19T07:59:02Z</time>
      </trkpt>
      <trkpt lat="44.23276" lon="5.68213">
        <ele>746</ele>
        <time>2019-06-19T07:59:03Z</time>
      </trkpt>
      <trkpt lat="44.23273" lon="5.68212">
        <ele>746</ele>
        <time>2019-06-19T07:59:04Z</time>
      </trkpt>
      <trkpt lat="44.2327" lon="5.68212">
        <ele>747</ele>
        <time>2019-06-19T07:59:05Z</time>
      </trkpt>
      <trkpt lat="44.23267" lon="5.68211">
        <ele>747</ele>
        <time>2019-06-19T07:59:06Z</time>
      </trkpt>
      <trkpt lat="44.23264" lon="5.6821">
        <ele>747</ele>
        <time>2019-06-19T07:59:07Z</time>
      </trkpt>
      <trkpt lat="44.23262" lon="5.6821">
        <ele>747</ele>
        <time>2019-06-19T07:59:08Z</time>
      </trkpt>
      <trkpt lat="44.23259" lon="5.68209">
        <ele>748</ele>
        <time>2019-06-19T07:59:09Z</time>
      </trkpt>
      <trkpt lat="44.23256" lon="5.68209">
        <ele>748</ele>
        <time>2019-06-19T07:59:10Z</time>
      </trkpt>
      <trkpt lat="44.23253" lon="5.68208">
        <ele>748</ele>
        <time>2019-06-19T07:59:11Z</time>
      </trkpt>
      <trkpt lat="44.2325" lon="5.68209">
        <ele>748</ele>
        <time>2019-06-19T07:59:12Z</time>
      </trkpt>
      <trkpt lat="44.23247" lon="5.68209">
        <ele>749</ele>
        <time>2019-06-19T07:59:13Z</time>
      </trkpt>
      <trkpt lat="44.23244" lon="5.68208">
        <ele>749</ele>
        <time>2019-06-19T07:59:14Z</time>
      </trkpt>
      <trkpt lat="44.23241" lon="5.68208">
        <ele>750</ele>
        <time>2019-06-19T07:59:15Z</time>
      </trkpt>
      <trkpt lat="44.23239" lon="5.68208">
        <ele>750</ele>
        <time>2019-06-19T07:59:16Z</time>
      </trkpt>
      <trkpt lat="44.23236" lon="5.68208">
        <ele>750</ele>
        <time>2019-06-19T07:59:17Z</time>
      </trkpt>
      <trkpt lat="44.23233" lon="5.68208">
        <ele>750</ele>
        <time>2019-06-19T07:59:18Z</time>
      </trkpt>
      <trkpt lat="44.2323" lon="5.68207">
        <ele>751</ele>
        <time>2019-06-19T07:59:19Z</time>
      </trkpt>
      <trkpt lat="44.23227" lon="5.68207">
        <ele>751</ele>
        <time>2019-06-19T07:59:20Z</time>
      </trkpt>
      <trkpt lat="44.23225" lon="5.68206">
        <ele>751</ele>
        <time>2019-06-19T07:59:21Z</time>
      </trkpt>
      <trkpt lat="44.23222" lon="5.68206">
        <ele>751</ele>
        <time>2019-06-19T07:59:22Z</time>
      </trkpt>
      <trkpt lat="44.23218" lon="5.68205">
        <ele>751</ele>
        <time>2019-06-19T07:59:23Z</time>
      </trkpt>
      <trkpt lat="44.23215" lon="5.68205">
        <ele>751</ele>
        <time>2019-06-19T07:59:24Z</time>
      </trkpt>
      <trkpt lat="44.23212" lon="5.68204">
        <ele>751</ele>
        <time>2019-06-19T07:59:25Z</time>
      </trkpt>
      <trkpt lat="44.23209" lon="5.68204">
        <ele>751</ele>
        <time>2019-06-19T07:59:26Z</time>
      </trkpt>
      <trkpt lat="44.23206" lon="5.68204">
        <ele>751</ele>
        <time>2019-06-19T07:59:27Z</time>
      </trkpt>
      <trkpt lat="44.23203" lon="5.68204">
        <ele>751</ele>
        <time>2019-06-19T07:59:28Z</time>
      </trkpt>
      <trkpt lat="44.23199" lon="5.68204">
        <ele>751</ele>
        <time>2019-06-19T07:59:29Z</time>
      </trkpt>
      <trkpt lat="44.23196" lon="5.68204">
        <ele>751</ele>
        <time>2019-06-19T07:59:30Z</time>
      </trkpt>
      <trkpt lat="44.23192" lon="5.68203">
        <ele>751</ele>
        <time>2019-06-19T07:59:31Z</time>
      </trkpt>
      <trkpt lat="44.23189" lon="5.68203">
        <ele>751</ele>
        <time>2019-06-19T07:59:32Z</time>
      </trkpt>
      <trkpt lat="44.23186" lon="5.68204">
        <ele>751</ele>
        <time>2019-06-19T07:59:33Z</time>
      </trkpt>
      <trkpt lat="44.23183" lon="5.68204">
        <ele>751</ele>
        <time>2019-06-19T07:59:34Z</time>
      </trkpt>
      <trkpt lat="44.2318" lon="5.68205">
        <ele>751</ele>
        <time>2019-06-19T07:59:35Z</time>
      </trkpt>
      <trkpt lat="44.23177" lon="5.68205">
        <ele>751</ele>
        <time>2019-06-19T07:59:36Z</time>
      </trkpt>
      <trkpt lat="44.23174" lon="5.68204">
        <ele>751</ele>
        <time>2019-06-19T07:59:37Z</time>
      </trkpt>
      <trkpt lat="44.2317" lon="5.68203">
        <ele>751</ele>
        <time>2019-06-19T07:59:38Z</time>
      </trkpt>
      <trkpt lat="44.23167" lon="5.68203">
        <ele>751</ele>
        <time>2019-06-19T07:59:39Z</time>
      </trkpt>
      <trkpt lat="44.23164" lon="5.68203">
        <ele>751</ele>
        <time>2019-06-19T07:59:40Z</time>
      </trkpt>
      <trkpt lat="44.23161" lon="5.68202">
        <ele>751</ele>
        <time>2019-06-19T07:59:41Z</time>
      </trkpt>
      <trkpt lat="44.23158" lon="5.68201">
        <ele>751</ele>
        <time>2019-06-19T07:59:42Z</time>
      </trkpt>
      <trkpt lat="44.23155" lon="5.68201">
        <ele>751</ele>
        <time>2019-06-19T07:59:43Z</time>
      </trkpt>
      <trkpt lat="44.23152" lon="5.682">
        <ele>751</ele>
        <time>2019-06-19T07:59:44Z</time>
      </trkpt>
      <trkpt lat="44.23149" lon="5.682">
        <ele>751</ele>
        <time>2019-06-19T07:59:45Z</time>
      </trkpt>
      <trkpt lat="44.23146" lon="5.68199">
        <ele>751</ele>
        <time>2019-06-19T07:59:46Z</time>
      </trkpt>
      <trkpt lat="44.23143" lon="5.68199">
        <ele>751</ele>
        <time>2019-06-19T07:59:47Z</time>
      </trkpt>
      <trkpt lat="44.2314" lon="5.68198">
        <ele>750</ele>
        <time>2019-06-19T07:59:48Z</time>
      </trkpt>
      <trkpt lat="44.23137" lon="5.68198">
        <ele>750</ele>
        <time>2019-06-19T07:59:49Z</time>
      </trkpt>
      <trkpt lat="44.23133" lon="5.68197">
        <ele>750</ele>
        <time>2019-06-19T07:59:50Z</time>
      </trkpt>
      <trkpt lat="44.2313" lon="5.68195">
        <ele>750</ele>
        <time>2019-06-19T07:59:51Z</time>
      </trkpt>
      <trkpt lat="44.23127" lon="5.68195">
        <ele>750</ele>
        <time>2019-06-19T07:59:52Z</time>
      </trkpt>
      <trkpt lat="44.23124" lon="5.68194">
        <ele>750</ele>
        <time>2019-06-19T07:59:53Z</time>
      </trkpt>
      <trkpt lat="44.23121" lon="5.68193">
        <ele>750</ele>
        <time>2019-06-19T07:59:54Z</time>
      </trkpt>
      <trkpt lat="44.23118" lon="5.68192">
        <ele>750</ele>
        <time>2019-06-19T07:59:55Z</time>
      </trkpt>
      <trkpt lat="44.23115" lon="5.68191">
        <ele>750</ele>
        <time>2019-06-19T07:59:56Z</time>
      </trkpt>
      <trkpt lat="44.23112" lon="5.6819">
        <ele>750</ele>
        <time>2019-06-19T07:59:57Z</time>
      </trkpt>
      <trkpt lat="44.23109" lon="5.68189">
        <ele>750</ele>
        <time>2019-06-19T07:59:58Z</time>
      </trkpt>
      <trkpt lat="44.23106" lon="5.68188">
        <ele>750</ele>
        <time>2019-06-19T07:59:59Z</time>
      </trkpt>
      <trkpt lat="44.23103" lon="5.68187">
        <ele>750</ele>
        <time>2019-06-19T08:00:00Z</time>
      </trkpt>
      <trkpt lat="44.231" lon="5.68186">
        <ele>750</ele>
        <time>2019-06-19T08:00:01Z</time>
      </trkpt>
      <trkpt lat="44.23097" lon="5.68186">
        <ele>750</ele>
        <time>2019-06-19T08:00:02Z</time>
      </trkpt>
      <trkpt lat="44.23094" lon="5.68186">
        <ele>750</ele>
        <time>2019-06-19T08:00:03Z</time>
      </trkpt>
      <trkpt lat="44.23091" lon="5.68185">
        <ele>750</ele>
        <time>2019-06-19T08:00:04Z</time>
      </trkpt>
      <trkpt lat="44.23088" lon="5.68183">
        <ele>750</ele>
        <time>2019-06-19T08:00:05Z</time>
      </trkpt>
      <trkpt lat="44.23086" lon="5.68182">
        <ele>750</ele>
        <time>2019-06-19T08:00:06Z</time>
      </trkpt>
      <trkpt lat="44.23083" lon="5.68181">
        <ele>750</ele>
        <time>2019-06-19T08:00:07Z</time>
      </trkpt>
      <trkpt lat="44.2308" lon="5.6818">
        <ele>750</ele>
        <time>2019-06-19T08:00:08Z</time>
      </trkpt>
      <trkpt lat="44.23077" lon="5.68179">
        <ele>750</ele>
        <time>2019-06-19T08:00:09Z</time>
      </trkpt>
      <trkpt lat="44.23074" lon="5.68179">
        <ele>750</ele>
        <time>2019-06-19T08:00:10Z</time>
      </trkpt>
      <trkpt lat="44.23071" lon="5.68179">
        <ele>750</ele>
        <time>2019-06-19T08:00:11Z</time>
      </trkpt>
      <trkpt lat="44.23068" lon="5.68179">
        <ele>750</ele>
        <time>2019-06-19T08:00:12Z</time>
      </trkpt>
      <trkpt lat="44.23065" lon="5.68179">
        <ele>750</ele>
        <time>2019-06-19T08:00:13Z</time>
      </trkpt>
      <trkpt lat="44.23061" lon="5.6818">
        <ele>750</ele>
        <time>2019-06-19T08:00:14Z</time>
      </trkpt>
      <trkpt lat="44.23058" lon="5.68181">
        <ele>751</ele>
        <time>2019-06-19T08:00:15Z</time>
      </trkpt>
      <trkpt lat="44.23055" lon="5.68182">
        <ele>752</ele>
        <time>2019-06-19T08:00:16Z</time>
      </trkpt>
      <trkpt lat="44.23051" lon="5.68183">
        <ele>753</ele>
        <time>2019-06-19T08:00:17Z</time>
      </trkpt>
      <trkpt lat="44.23048" lon="5.68184">
        <ele>754</ele>
        <time>2019-06-19T08:00:18Z</time>
      </trkpt>
      <trkpt lat="44.23045" lon="5.68185">
        <ele>754</ele>
        <time>2019-06-19T08:00:19Z</time>
      </trkpt>
      <trkpt lat="44.23043" lon="5.68186">
        <ele>755</ele>
        <time>2019-06-19T08:00:20Z</time>
      </trkpt>
      <trkpt lat="44.2304" lon="5.68188">
        <ele>755</ele>
        <time>2019-06-19T08:00:21Z</time>
      </trkpt>
      <trkpt lat="44.23037" lon="5.68189">
        <ele>755</ele>
        <time>2019-06-19T08:00:22Z</time>
      </trkpt>
      <trkpt lat="44.23035" lon="5.68191">
        <ele>755</ele>
        <time>2019-06-19T08:00:23Z</time>
      </trkpt>
      <trkpt lat="44.23032" lon="5.68193">
        <ele>755</ele>
        <time>2019-06-19T08:00:24Z</time>
      </trkpt>
      <trkpt lat="44.2303" lon="5.68195">
        <ele>755</ele>
        <time>2019-06-19T08:00:25Z</time>
      </trkpt>
      <trkpt lat="44.23027" lon="5.68197">
        <ele>755</ele>
        <time>2019-06-19T08:00:26Z</time>
      </trkpt>
      <trkpt lat="44.23025" lon="5.682">
        <ele>755</ele>
        <time>2019-06-19T08:00:27Z</time>
      </trkpt>
      <trkpt lat="44.23022" lon="5.68201">
        <ele>755</ele>
        <time>2019-06-19T08:00:28Z</time>
      </trkpt>
      <trkpt lat="44.23019" lon="5.68204">
        <ele>755</ele>
        <time>2019-06-19T08:00:29Z</time>
      </trkpt>
      <trkpt lat="44.23017" lon="5.68206">
        <ele>755</ele>
        <time>2019-06-19T08:00:30Z</time>
      </trkpt>
      <trkpt lat="44.23015" lon="5.68208">
        <ele>756</ele>
        <time>2019-06-19T08:00:31Z</time>
      </trkpt>
      <trkpt lat="44.23012" lon="5.6821">
        <ele>757</ele>
        <time>2019-06-19T08:00:32Z</time>
      </trkpt>
      <trkpt lat="44.23009" lon="5.68212">
        <ele>757</ele>
        <time>2019-06-19T08:00:33Z</time>
      </trkpt>
      <trkpt lat="44.23007" lon="5.68214">
        <ele>757</ele>
        <time>2019-06-19T08:00:34Z</time>
      </trkpt>
      <trkpt lat="44.23005" lon="5.68216">
        <ele>758</ele>
        <time>2019-06-19T08:00:35Z</time>
      </trkpt>
      <trkpt lat="44.23002" lon="5.68219">
        <ele>759</ele>
        <time>2019-06-19T08:00:36Z</time>
      </trkpt>
      <trkpt lat="44.23" lon="5.68221">
        <ele>759</ele>
        <time>2019-06-19T08:00:37Z</time>
      </trkpt>
      <trkpt lat="44.22997" lon="5.68224">
        <ele>760</ele>
        <time>2019-06-19T08:00:38Z</time>
      </trkpt>
      <trkpt lat="44.22995" lon="5.68226">
        <ele>761</ele>
        <time>2019-06-19T08:00:39Z</time>
      </trkpt>
      <trkpt lat="44.22992" lon="5.68229">
        <ele>762</ele>
        <time>2019-06-19T08:00:40Z</time>
      </trkpt>
      <trkpt lat="44.2299" lon="5.68231">
        <ele>763</ele>
        <time>2019-06-19T08:00:41Z</time>
      </trkpt>
      <trkpt lat="44.22988" lon="5.68233">
        <ele>764</ele>
        <time>2019-06-19T08:00:42Z</time>
      </trkpt>
      <trkpt lat="44.22986" lon="5.68235">
        <ele>765</ele>
        <time>2019-06-19T08:00:43Z</time>
      </trkpt>
      <trkpt lat="44.22984" lon="5.68238">
        <ele>766</ele>
        <time>2019-06-19T08:00:44Z</time>
      </trkpt>
      <trkpt lat="44.22983" lon="5.68241">
        <ele>767</ele>
        <time>2019-06-19T08:00:45Z</time>
      </trkpt>
      <trkpt lat="44.22981" lon="5.68245">
        <ele>767</ele>
        <time>2019-06-19T08:00:46Z</time>
      </trkpt>
      <trkpt lat="44.2298" lon="5.68248">
        <ele>768</ele>
        <time>2019-06-19T08:00:47Z</time>
      </trkpt>
      <trkpt lat="44.22978" lon="5.68252">
        <ele>768</ele>
        <time>2019-06-19T08:00:48Z</time>
      </trkpt>
      <trkpt lat="44.22977" lon="5.68256">
        <ele>769</ele>
        <time>2019-06-19T08:00:49Z</time>
      </trkpt>
      <trkpt lat="44.22976" lon="5.68259">
        <ele>770</ele>
        <time>2019-06-19T08:00:50Z</time>
      </trkpt>
      <trkpt lat="44.22975" lon="5.68263">
        <ele>770</ele>
        <time>2019-06-19T08:00:51Z</time>
      </trkpt>
      <trkpt lat="44.22974" lon="5.68267">
        <ele>771</ele>
        <time>2019-06-19T08:00:52Z</time>
      </trkpt>
      <trkpt lat="44.22973" lon="5.6827">
        <ele>772</ele>
        <time>2019-06-19T08:00:53Z</time>
      </trkpt>
      <trkpt lat="44.22972" lon="5.68274">
        <ele>772</ele>
        <time>2019-06-19T08:00:54Z</time>
      </trkpt>
      <trkpt lat="44.22971" lon="5.68278">
        <ele>773</ele>
        <time>2019-06-19T08:00:55Z</time>
      </trkpt>
      <trkpt lat="44.2297" lon="5.68282">
        <ele>773</ele>
        <time>2019-06-19T08:00:56Z</time>
      </trkpt>
      <trkpt lat="44.22969" lon="5.68285">
        <ele>773</ele>
        <time>2019-06-19T08:00:57Z</time>
      </trkpt>
      <trkpt lat="44.22969" lon="5.68289">
        <ele>774</ele>
        <time>2019-06-19T08:00:58Z</time>
      </trkpt>
      <trkpt lat="44.22968" lon="5.68293">
        <ele>774</ele>
        <time>2019-06-19T08:00:59Z</time>
      </trkpt>
      <trkpt lat="44.22967" lon="5.68296">
        <ele>774</ele>
        <time>2019-06-19T08:01:00Z</time>
      </trkpt>
      <trkpt lat="44.22966" lon="5.68299">
        <ele>774</ele>
        <time>2019-06-19T08:01:01Z</time>
      </trkpt>
      <trkpt lat="44.22965" lon="5.68303">
        <ele>775</ele>
        <time>2019-06-19T08:01:02Z</time>
      </trkpt>
      <trkpt lat="44.22963" lon="5.68306">
        <ele>775</ele>
        <time>2019-06-19T08:01:03Z</time>
      </trkpt>
      <trkpt lat="44.22962" lon="5.68309">
        <ele>775</ele>
        <time>2019-06-19T08:01:04Z</time>
      </trkpt>
      <trkpt lat="44.22961" lon="5.68313">
        <ele>775</ele>
        <time>2019-06-19T08:01:05Z</time>
      </trkpt>
      <trkpt lat="44.2296" lon="5.68316">
        <ele>775</ele>
        <time>2019-06-19T08:01:06Z</time>
      </trkpt>
      <trkpt lat="44.22959" lon="5.68319">
        <ele>775</ele>
        <time>2019-06-19T08:01:07Z</time>
      </trkpt>
      <trkpt lat="44.22958" lon="5.68322">
        <ele>775</ele>
        <time>2019-06-19T08:01:08Z</time>
      </trkpt>
      <trkpt lat="44.22957" lon="5.68325">
        <ele>775</ele>
        <time>2019-06-19T08:01:09Z</time>
      </trkpt>
      <trkpt lat="44.22955" lon="5.68328">
        <ele>775</ele>
        <time>2019-06-19T08:01:10Z</time>
      </trkpt>
      <trkpt lat="44.22954" lon="5.68331">
        <ele>775</ele>
        <time>2019-06-19T08:01:11Z</time>
      </trkpt>
      <trkpt lat="44.22952" lon="5.68333">
        <ele>775</ele>
        <time>2019-06-19T08:01:12Z</time>
      </trkpt>
      <trkpt lat="44.22951" lon="5.68336">
        <ele>776</ele>
        <time>2019-06-19T08:01:13Z</time>
      </trkpt>
      <trkpt lat="44.2295" lon="5.68338">
        <ele>777</ele>
        <time>2019-06-19T08:01:14Z</time>
      </trkpt>
      <trkpt lat="44.22948" lon="5.68341">
        <ele>778</ele>
        <time>2019-06-19T08:01:15Z</time>
      </trkpt>
      <trkpt lat="44.22946" lon="5.68343">
        <ele>779</ele>
        <time>2019-06-19T08:01:16Z</time>
      </trkpt>
      <trkpt lat="44.22945" lon="5.68346">
        <ele>780</ele>
        <time>2019-06-19T08:01:17Z</time>
      </trkpt>
      <trkpt lat="44.22943" lon="5.68349">
        <ele>781</ele>
        <time>2019-06-19T08:01:18Z</time>
      </trkpt>
      <trkpt lat="44.22941" lon="5.68351">
        <ele>782</ele>
        <time>2019-06-19T08:01:19Z</time>
      </trkpt>
      <trkpt lat="44.22939" lon="5.68353">
        <ele>782</ele>
        <time>2019-06-19T08:01:20Z</time>
      </trkpt>
      <trkpt lat="44.22937" lon="5.68355">
        <ele>783</ele>
        <time>2019-06-19T08:01:21Z</time>
      </trkpt>
      <trkpt lat="44.22935" lon="5.68357">
        <ele>783</ele>
        <time>2019-06-19T08:01:22Z</time>
      </trkpt>
      <trkpt lat="44.22934" lon="5.68359">
        <ele>783</ele>
        <time>2019-06-19T08:01:23Z</time>
      </trkpt>
      <trkpt lat="44.22931" lon="5.68362">
        <ele>784</ele>
        <time>2019-06-19T08:01:24Z</time>
      </trkpt>
      <trkpt lat="44.22929" lon="5.68364">
        <ele>784</ele>
        <time>2019-06-19T08:01:25Z</time>
      </trkpt>
      <trkpt lat="44.22927" lon="5.68366">
        <ele>785</ele>
        <time>2019-06-19T08:01:26Z</time>
      </trkpt>
      <trkpt lat="44.22925" lon="5.68368">
        <ele>785</ele>
        <time>2019-06-19T08:01:27Z</time>
      </trkpt>
      <trkpt lat="44.22923" lon="5.6837">
        <ele>786</ele>
        <time>2019-06-19T08:01:28Z</time>
      </trkpt>
      <trkpt lat="44.2292" lon="5.68372">
        <ele>787</ele>
        <time>2019-06-19T08:01:29Z</time>
      </trkpt>
      <trkpt lat="44.22917" lon="5.68374">
        <ele>787</ele>
        <time>2019-06-19T08:01:30Z</time>
      </trkpt>
      <trkpt lat="44.22914" lon="5.68376">
        <ele>787</ele>
        <time>2019-06-19T08:01:31Z</time>
      </trkpt>
      <trkpt lat="44.22911" lon="5.68378">
        <ele>787</ele>
        <time>2019-06-19T08:01:32Z</time>
      </trkpt>
      <trkpt lat="44.22908" lon="5.68381">
        <ele>788</ele>
        <time>2019-06-19T08:01:33Z</time>
      </trkpt>
      <trkpt lat="44.22906" lon="5.68384">
        <ele>788</ele>
        <time>2019-06-19T08:01:34Z</time>
      </trkpt>
      <trkpt lat="44.22903" lon="5.68385">
        <ele>788</ele>
        <time>2019-06-19T08:01:35Z</time>
      </trkpt>
      <trkpt lat="44.229" lon="5.68386">
        <ele>788</ele>
        <time>2019-06-19T08:01:36Z</time>
      </trkpt>
      <trkpt lat="44.22898" lon="5.68387">
        <ele>788</ele>
        <time>2019-06-19T08:01:37Z</time>
      </trkpt>
      <trkpt lat="44.22895" lon="5.68388">
        <ele>788</ele>
        <time>2019-06-19T08:01:38Z</time>
      </trkpt>
      <trkpt lat="44.22893" lon="5.6839">
        <ele>788</ele>
        <time>2019-06-19T08:01:39Z</time>
      </trkpt>
      <trkpt lat="44.22891" lon="5.68392">
        <ele>787</ele>
        <time>2019-06-19T08:01:40Z</time>
      </trkpt>
      <trkpt lat="44.22889" lon="5.68393">
        <ele>786</ele>
        <time>2019-06-19T08:01:41Z</time>
      </trkpt>
      <trkpt lat="44.22886" lon="5.68394">
        <ele>786</ele>
        <time>2019-06-19T08:01:42Z</time>
      </trkpt>
      <trkpt lat="44.22883" lon="5.68396">
        <ele>785</ele>
        <time>2019-06-19T08:01:43Z</time>
      </trkpt>
      <trkpt lat="44.22881" lon="5.68398">
        <ele>785</ele>
        <time>2019-06-19T08:01:44Z</time>
      </trkpt>
      <trkpt lat="44.22879" lon="5.68399">
        <ele>785</ele>
        <time>2019-06-19T08:01:45Z</time>
      </trkpt>
      <trkpt lat="44.22876" lon="5.68399">
        <ele>785</ele>
        <time>2019-06-19T08:01:46Z</time>
      </trkpt>
      <trkpt lat="44.22873" lon="5.68401">
        <ele>785</ele>
        <time>2019-06-19T08:01:47Z</time>
      </trkpt>
      <trkpt lat="44.22871" lon="5.68402">
        <ele>785</ele>
        <time>2019-06-19T08:01:48Z</time>
      </trkpt>
      <trkpt lat="44.22869" lon="5.68404">
        <ele>784</ele>
        <time>2019-06-19T08:01:49Z</time>
      </trkpt>
      <trkpt lat="44.22867" lon="5.68407">
        <ele>784</ele>
        <time>2019-06-19T08:01:50Z</time>
      </trkpt>
      <trkpt lat="44.22864" lon="5.68409">
        <ele>784</ele>
        <time>2019-06-19T08:01:51Z</time>
      </trkpt>
      <trkpt lat="44.22861" lon="5.68412">
        <ele>784</ele>
        <time>2019-06-19T08:01:52Z</time>
      </trkpt>
      <trkpt lat="44.22859" lon="5.68415">
        <ele>784</ele>
        <time>2019-06-19T08:01:53Z</time>
      </trkpt>
      <trkpt lat="44.22857" lon="5.68419">
        <ele>784</ele>
        <time>2019-06-19T08:01:54Z</time>
      </trkpt>
      <trkpt lat="44.22854" lon="5.68422">
        <ele>784</ele>
        <time>2019-06-19T08:01:55Z</time>
      </trkpt>
      <trkpt lat="44.22852" lon="5.68425">
        <ele>784</ele>
        <time>2019-06-19T08:01:56Z</time>
      </trkpt>
      <trkpt lat="44.2285" lon="5.68428">
        <ele>784</ele>
        <time>2019-06-19T08:01:57Z</time>
      </trkpt>
      <trkpt lat="44.22849" lon="5.68432">
        <ele>784</ele>
        <time>2019-06-19T08:01:58Z</time>
      </trkpt>
      <trkpt lat="44.22847" lon="5.68435">
        <ele>784</ele>
        <time>2019-06-19T08:01:59Z</time>
      </trkpt>
      <trkpt lat="44.22844" lon="5.68438">
        <ele>784</ele>
        <time>2019-06-19T08:02:00Z</time>
      </trkpt>
      <trkpt lat="44.22842" lon="5.68442">
        <ele>784</ele>
        <time>2019-06-19T08:02:01Z</time>
      </trkpt>
      <trkpt lat="44.2284" lon="5.68445">
        <ele>784</ele>
        <time>2019-06-19T08:02:02Z</time>
      </trkpt>
      <trkpt lat="44.22838" lon="5.68449">
        <ele>784</ele>
        <time>2019-06-19T08:02:03Z</time>
      </trkpt>
      <trkpt lat="44.22836" lon="5.68452">
        <ele>784</ele>
        <time>2019-06-19T08:02:04Z</time>
      </trkpt>
      <trkpt lat="44.22834" lon="5.68455">
        <ele>785</ele>
        <time>2019-06-19T08:02:05Z</time>
      </trkpt>
      <trkpt lat="44.22831" lon="5.68458">
        <ele>786</ele>
        <time>2019-06-19T08:02:06Z</time>
      </trkpt>
      <trkpt lat="44.22829" lon="5.68461">
        <ele>787</ele>
        <time>2019-06-19T08:02:07Z</time>
      </trkpt>
      <trkpt lat="44.22826" lon="5.68462">
        <ele>788</ele>
        <time>2019-06-19T08:02:08Z</time>
      </trkpt>
      <trkpt lat="44.22824" lon="5.68464">
        <ele>788</ele>
        <time>2019-06-19T08:02:09Z</time>
      </trkpt>
      <trkpt lat="44.22822" lon="5.68466">
        <ele>788</ele>
        <time>2019-06-19T08:02:10Z</time>
      </trkpt>
      <trkpt lat="44.2282" lon="5.68466">
        <ele>788</ele>
        <time>2019-06-19T08:02:11Z</time>
      </trkpt>
      <trkpt lat="44.22817" lon="5.68465">
        <ele>788</ele>
        <time>2019-06-19T08:02:12Z</time>
      </trkpt>
      <trkpt lat="44.22815" lon="5.68462">
        <ele>788</ele>
        <time>2019-06-19T08:02:13Z</time>
      </trkpt>
      <trkpt lat="44.22815" lon="5.68458">
        <ele>788</ele>
        <time>2019-06-19T08:02:14Z</time>
      </trkpt>
      <trkpt lat="44.22815" lon="5.68454">
        <ele>788</ele>
        <time>2019-06-19T08:02:15Z</time>
      </trkpt>
      <trkpt lat="44.22816" lon="5.6845">
        <ele>788</ele>
        <time>2019-06-19T08:02:16Z</time>
      </trkpt>
      <trkpt lat="44.22818" lon="5.68448">
        <ele>788</ele>
        <time>2019-06-19T08:02:17Z</time>
      </trkpt>
      <trkpt lat="44.22821" lon="5.68445">
        <ele>788</ele>
        <time>2019-06-19T08:02:18Z</time>
      </trkpt>
      <trkpt lat="44.22823" lon="5.68442">
        <ele>788</ele>
        <time>2019-06-19T08:02:19Z</time>
      </trkpt>
      <trkpt lat="44.22826" lon="5.68439">
        <ele>788</ele>
        <time>2019-06-19T08:02:20Z</time>
      </trkpt>
      <trkpt lat="44.22828" lon="5.68437">
        <ele>788</ele>
        <time>2019-06-19T08:02:21Z</time>
      </trkpt>
      <trkpt lat="44.22831" lon="5.68434">
        <ele>788</ele>
        <time>2019-06-19T08:02:22Z</time>
      </trkpt>
      <trkpt lat="44.22833" lon="5.68431">
        <ele>788</ele>
        <time>2019-06-19T08:02:23Z</time>
      </trkpt>
      <trkpt lat="44.22834" lon="5.68428">
        <ele>788</ele>
        <time>2019-06-19T08:02:24Z</time>
      </trkpt>
      <trkpt lat="44.22836" lon="5.68426">
        <ele>788</ele>
        <time>2019-06-19T08:02:25Z</time>
      </trkpt>
      <trkpt lat="44.22837" lon="5.68422">
        <ele>788</ele>
        <time>2019-06-19T08:02:26Z</time>
      </trkpt>
      <trkpt lat="44.22839" lon="5.68419">
        <ele>788</ele>
        <time>2019-06-19T08:02:27Z</time>
      </trkpt>
      <trkpt lat="44.2284" lon="5.68416">
        <ele>788</ele>
        <time>2019-06-19T08:02:28Z</time>
      </trkpt>
      <trkpt lat="44.2284" lon="5.68412">
        <ele>788</ele>
        <time>2019-06-19T08:02:29Z</time>
      </trkpt>
      <trkpt lat="44.22841" lon="5.68408">
        <ele>788</ele>
        <time>2019-06-19T08:02:30Z</time>
      </trkpt>
      <trkpt lat="44.22842" lon="5.68404">
        <ele>788</ele>
        <time>2019-06-19T08:02:31Z</time>
      </trkpt>
      <trkpt lat="44.22844" lon="5.68401">
        <ele>788</ele>
        <time>2019-06-19T08:02:32Z</time>
      </trkpt>
      <trkpt lat="44.22845" lon="5.68397">
        <ele>788</ele>
        <time>2019-06-19T08:02:33Z</time>
      </trkpt>
      <trkpt lat="44.22846" lon="5.68394">
        <ele>788</ele>
        <time>2019-06-19T08:02:34Z</time>
      </trkpt>
      <trkpt lat="44.22847" lon="5.6839">
        <ele>788</ele>
        <time>2019-06-19T08:02:35Z</time>
      </trkpt>
      <trkpt lat="44.22848" lon="5.68387">
        <ele>787</ele>
        <time>2019-06-19T08:02:36Z</time>
      </trkpt>
      <trkpt lat="44.22849" lon="5.68383">
        <ele>786</ele>
        <time>2019-06-19T08:02:37Z</time>
      </trkpt>
      <trkpt lat="44.2285" lon="5.68379">
        <ele>786</ele>
        <time>2019-06-19T08:02:38Z</time>
      </trkpt>
      <trkpt lat="44.22851" lon="5.68375">
        <ele>785</ele>
        <time>2019-06-19T08:02:39Z</time>
      </trkpt>
      <trkpt lat="44.22852" lon="5.68372">
        <ele>784</ele>
        <time>2019-06-19T08:02:40Z</time>
      </trkpt>
      <trkpt lat="44.22853" lon="5.68369">
        <ele>783</ele>
        <time>2019-06-19T08:02:41Z</time>
      </trkpt>
      <trkpt lat="44.22855" lon="5.68366">
        <ele>783</ele>
        <time>2019-06-19T08:02:42Z</time>
      </trkpt>
      <trkpt lat="44.22856" lon="5.68363">
        <ele>783</ele>
        <time>2019-06-19T08:02:43Z</time>
      </trkpt>
      <trkpt lat="44.22857" lon="5.6836">
        <ele>783</ele>
        <time>2019-06-19T08:02:44Z</time>
      </trkpt>
      <trkpt lat="44.22858" lon="5.68357">
        <ele>783</ele>
        <time>2019-06-19T08:02:45Z</time>
      </trkpt>
      <trkpt lat="44.22858" lon="5.68354">
        <ele>783</ele>
        <time>2019-06-19T08:02:46Z</time>
      </trkpt>
      <trkpt lat="44.22859" lon="5.68351">
        <ele>783</ele>
        <time>2019-06-19T08:02:47Z</time>
      </trkpt>
      <trkpt lat="44.2286" lon="5.68348">
        <ele>783</ele>
        <time>2019-06-19T08:02:48Z</time>
      </trkpt>
      <trkpt lat="44.2286" lon="5.68345">
        <ele>783</ele>
        <time>2019-06-19T08:02:49Z</time>
      </trkpt>
      <trkpt lat="44.22861" lon="5.68341">
        <ele>783</ele>
        <time>2019-06-19T08:02:50Z</time>
      </trkpt>
      <trkpt lat="44.22862" lon="5.68338">
        <ele>783</ele>
        <time>2019-06-19T08:02:51Z</time>
      </trkpt>
      <trkpt lat="44.22863" lon="5.68335">
        <ele>783</ele>
        <time>2019-06-19T08:02:52Z</time>
      </trkpt>
      <trkpt lat="44.22864" lon="5.68332">
        <ele>783</ele>
        <time>2019-06-19T08:02:53Z</time>
      </trkpt>
      <trkpt lat="44.22865" lon="5.68329">
        <ele>783</ele>
        <time>2019-06-19T08:02:54Z</time>
      </trkpt>
      <trkpt lat="44.22866" lon="5.68326">
        <ele>783</ele>
        <time>2019-06-19T08:02:55Z</time>
      </trkpt>
      <trkpt lat="44.22868" lon="5.68323">
        <ele>783</ele>
        <time>2019-06-19T08:02:56Z</time>
      </trkpt>
      <trkpt lat="44.22869" lon="5.6832">
        <ele>783</ele>
        <time>2019-06-19T08:02:57Z</time>
      </trkpt>
      <trkpt lat="44.2287" lon="5.68318">
        <ele>783</ele>
        <time>2019-06-19T08:02:58Z</time>
      </trkpt>
      <trkpt lat="44.22871" lon="5.68316">
        <ele>783</ele>
        <time>2019-06-19T08:02:59Z</time>
      </trkpt>
      <trkpt lat="44.22873" lon="5.68313">
        <ele>783</ele>
        <time>2019-06-19T08:03:00Z</time>
      </trkpt>
      <trkpt lat="44.22875" lon="5.68311">
        <ele>783</ele>
        <time>2019-06-19T08:03:01Z</time>
      </trkpt>
      <trkpt lat="44.22876" lon="5.68309">
        <ele>783</ele>
        <time>2019-06-19T08:03:02Z</time>
      </trkpt>
      <trkpt lat="44.22878" lon="5.68307">
        <ele>783</ele>
        <time>2019-06-19T08:03:03Z</time>
      </trkpt>
      <trkpt lat="44.22879" lon="5.68305">
        <ele>783</ele>
        <time>2019-06-19T08:03:04Z</time>
      </trkpt>
      <trkpt lat="44.22881" lon="5.68303">
        <ele>783</ele>
        <time>2019-06-19T08:03:05Z</time>
      </trkpt>
      <trkpt lat="44.22883" lon="5.68301">
        <ele>783</ele>
        <time>2019-06-19T08:03:06Z</time>
      </trkpt>
      <trkpt lat="44.22884" lon="5.683">
        <ele>783</ele>
        <time>2019-06-19T08:03:07Z</time>
      </trkpt>
      <trkpt lat="44.22886" lon="5.68297">
        <ele>783</ele>
        <time>2019-06-19T08:03:08Z</time>
      </trkpt>
      <trkpt lat="44.22888" lon="5.68295">
        <ele>783</ele>
        <time>2019-06-19T08:03:09Z</time>
      </trkpt>
      <trkpt lat="44.22889" lon="5.68293">
        <ele>783</ele>
        <time>2019-06-19T08:03:10Z</time>
      </trkpt>
      <trkpt lat="44.22891" lon="5.6829">
        <ele>783</ele>
        <time>2019-06-19T08:03:11Z</time>
      </trkpt>
      <trkpt lat="44.22892" lon="5.68287">
        <ele>783</ele>
        <time>2019-06-19T08:03:12Z</time>
      </trkpt>
      <trkpt lat="44.22893" lon="5.68284">
        <ele>783</ele>
        <time>2019-06-19T08:03:13Z</time>
      </trkpt>
      <trkpt lat="44.22894" lon="5.68282">
        <ele>783</ele>
        <time>2019-06-19T08:03:14Z</time>
      </trkpt>
      <trkpt lat="44.22894" lon="5.6828">
        <ele>783</ele>
        <time>2019-06-19T08:03:15Z</time>
      </trkpt>
      <trkpt lat="44.22895" lon="5.68277">
        <ele>783</ele>
        <time>2019-06-19T08:03:16Z</time>
      </trkpt>
      <trkpt lat="44.22895" lon="5.68274">
        <ele>783</ele>
        <time>2019-06-19T08:03:17Z</time>
      </trkpt>
      <trkpt lat="44.22895" lon="5.68272">
        <ele>783</ele>
        <time>2019-06-19T08:03:18Z</time>
      </trkpt>
      <trkpt lat="44.22896" lon="5.68269">
        <ele>783</ele>
        <time>2019-06-19T08:03:19Z</time>
      </trkpt>
      <trkpt lat="44.22895" lon="5.68266">
        <ele>783</ele>
        <time>2019-06-19T08:03:20Z</time>
      </trkpt>
      <trkpt lat="44.22895" lon="5.68263">
        <ele>783</ele>
        <time>2019-06-19T08:03:21Z</time>
      </trkpt>
      <trkpt lat="44.22896" lon="5.6826">
        <ele>783</ele>
        <time>2019-06-19T08:03:22Z</time>
      </trkpt>
      <trkpt lat="44.22896" lon="5.68257">
        <ele>783</ele>
        <time>2019-06-19T08:03:23Z</time>
      </trkpt>
      <trkpt lat="44.22896" lon="5.68254">
        <ele>783</ele>
        <time>2019-06-19T08:03:24Z</time>
      </trkpt>
      <trkpt lat="44.22897" lon="5.68252">
        <ele>783</ele>
        <time>2019-06-19T08:03:25Z</time>
      </trkpt>
      <trkpt lat="44.22896" lon="5.68249">
        <ele>783</ele>
        <time>2019-06-19T08:03:26Z</time>
      </trkpt>
      <trkpt lat="44.22896" lon="5.68246">
        <ele>784</ele>
        <time>2019-06-19T08:03:27Z</time>
      </trkpt>
      <trkpt lat="44.22895" lon="5.68243">
        <ele>785</ele>
        <time>2019-06-19T08:03:28Z</time>
      </trkpt>
      <trkpt lat="44.22895" lon="5.6824">
        <ele>786</ele>
        <time>2019-06-19T08:03:29Z</time>
      </trkpt>
      <trkpt lat="44.22895" lon="5.68237">
        <ele>787</ele>
        <time>2019-06-19T08:03:30Z</time>
      </trkpt>
      <trkpt lat="44.22895" lon="5.68233">
        <ele>787</ele>
        <time>2019-06-19T08:03:31Z</time>
      </trkpt>
      <trkpt lat="44.22895" lon="5.6823">
        <ele>787</ele>
        <time>2019-06-19T08:03:32Z</time>
      </trkpt>
      <trkpt lat="44.22894" lon="5.68228">
        <ele>787</ele>
        <time>2019-06-19T08:03:33Z</time>
      </trkpt>
      <trkpt lat="44.22894" lon="5.68225">
        <ele>787</ele>
        <time>2019-06-19T08:03:34Z</time>
      </trkpt>
      <trkpt lat="44.22894" lon="5.68222">
        <ele>787</ele>
        <time>2019-06-19T08:03:35Z</time>
      </trkpt>
      <trkpt lat="44.22894" lon="5.68219">
        <ele>787</ele>
        <time>2019-06-19T08:03:36Z</time>
      </trkpt>
      <trkpt lat="44.22894" lon="5.68216">
        <ele>787</ele>
        <time>2019-06-19T08:03:37Z</time>
      </trkpt>
      <trkpt lat="44.22893" lon="5.68213">
        <ele>788</ele>
        <time>2019-06-19T08:03:38Z</time>
      </trkpt>
      <trkpt lat="44.22893" lon="5.6821">
        <ele>788</ele>
        <time>2019-06-19T08:03:39Z</time>
      </trkpt>
      <trkpt lat="44.22892" lon="5.68207">
        <ele>788</ele>
        <time>2019-06-19T08:03:40Z</time>
      </trkpt>
      <trkpt lat="44.22891" lon="5.68203">
        <ele>788</ele>
        <time>2019-06-19T08:03:41Z</time>
      </trkpt>
      <trkpt lat="44.2289" lon="5.682">
        <ele>789</ele>
        <time>2019-06-19T08:03:42Z</time>
      </trkpt>
      <trkpt lat="44.22889" lon="5.68198">
        <ele>790</ele>
        <time>2019-06-19T08:03:43Z</time>
      </trkpt>
      <trkpt lat="44.22887" lon="5.68195">
        <ele>791</ele>
        <time>2019-06-19T08:03:44Z</time>
      </trkpt>
      <trkpt lat="44.22885" lon="5.68193">
        <ele>792</ele>
        <time>2019-06-19T08:03:45Z</time>
      </trkpt>
      <trkpt lat="44.22883" lon="5.68192">
        <ele>793</ele>
        <time>2019-06-19T08:03:46Z</time>
      </trkpt>
      <trkpt lat="44.22881" lon="5.68191">
        <ele>794</ele>
        <time>2019-06-19T08:03:47Z</time>
      </trkpt>
      <trkpt lat="44.22878" lon="5.6819">
        <ele>795</ele>
        <time>2019-06-19T08:03:48Z</time>
      </trkpt>
      <trkpt lat="44.22876" lon="5.6819">
        <ele>796</ele>
        <time>2019-06-19T08:03:49Z</time>
      </trkpt>
      <trkpt lat="44.22874" lon="5.68189">
        <ele>797</ele>
        <time>2019-06-19T08:03:50Z</time>
      </trkpt>
      <trkpt lat="44.22873" lon="5.68189">
        <ele>797</ele>
        <time>2019-06-19T08:03:51Z</time>
      </trkpt>
      <trkpt lat="44.22871" lon="5.68189">
        <ele>798</ele>
        <time>2019-06-19T08:03:52Z</time>
      </trkpt>
      <trkpt lat="44.22869" lon="5.68189">
        <ele>798</ele>
        <time>2019-06-19T08:03:53Z</time>
      </trkpt>
      <trkpt lat="44.22867" lon="5.68189">
        <ele>799</ele>
        <time>2019-06-19T08:03:54Z</time>
      </trkpt>
      <trkpt lat="44.22865" lon="5.68189">
        <ele>799</ele>
        <time>2019-06-19T08:03:55Z</time>
      </trkpt>
      <trkpt lat="44.22863" lon="5.68189">
        <ele>800</ele>
        <time>2019-06-19T08:03:56Z</time>
      </trkpt>
      <trkpt lat="44.22861" lon="5.68189">
        <ele>800</ele>
        <time>2019-06-19T08:03:57Z</time>
      </trkpt>
      <trkpt lat="44.22858" lon="5.68189">
        <ele>801</ele>
        <time>2019-06-19T08:03:58Z</time>
      </trkpt>
      <trkpt lat="44.22857" lon="5.68189">
        <ele>801</ele>
        <time>2019-06-19T08:03:59Z</time>
      </trkpt>
      <trkpt lat="44.22854" lon="5.6819">
        <ele>802</ele>
        <time>2019-06-19T08:04:00Z</time>
      </trkpt>
      <trkpt lat="44.22853" lon="5.6819">
        <ele>802</ele>
        <time>2019-06-19T08:04:01Z</time>
      </trkpt>
      <trkpt lat="44.22851" lon="5.68191">
        <ele>803</ele>
        <time>2019-06-19T08:04:02Z</time>
      </trkpt>
      <trkpt lat="44.2285" lon="5.68191">
        <ele>803</ele>
        <time>2019-06-19T08:04:03Z</time>
      </trkpt>
      <trkpt lat="44.22847" lon="5.68192">
        <ele>803</ele>
        <time>2019-06-19T08:04:04Z</time>
      </trkpt>
      <trkpt lat="44.22845" lon="5.68193">
        <ele>803</ele>
        <time>2019-06-19T08:04:05Z</time>
      </trkpt>
      <trkpt lat="44.22843" lon="5.68194">
        <ele>803</ele>
        <time>2019-06-19T08:04:06Z</time>
      </trkpt>
      <trkpt lat="44.22841" lon="5.68194">
        <ele>803</ele>
        <time>2019-06-19T08:04:07Z</time>
      </trkpt>
      <trkpt lat="44.2284" lon="5.68196">
        <ele>803</ele>
        <time>2019-06-19T08:04:08Z</time>
      </trkpt>
      <trkpt lat="44.22838" lon="5.68197">
        <ele>803</ele>
        <time>2019-06-19T08:04:09Z</time>
      </trkpt>
      <trkpt lat="44.22837" lon="5.68198">
        <ele>803</ele>
        <time>2019-06-19T08:04:10Z</time>
      </trkpt>
      <trkpt lat="44.22834" lon="5.682">
        <ele>803</ele>
        <time>2019-06-19T08:04:11Z</time>
      </trkpt>
      <trkpt lat="44.22833" lon="5.68202">
        <ele>803</ele>
        <time>2019-06-19T08:04:12Z</time>
      </trkpt>
      <trkpt lat="44.22831" lon="5.68204">
        <ele>803</ele>
        <time>2019-06-19T08:04:13Z</time>
      </trkpt>
      <trkpt lat="44.2283" lon="5.68206">
        <ele>803</ele>
        <time>2019-06-19T08:04:14Z</time>
      </trkpt>
      <trkpt lat="44.22829" lon="5.68208">
        <ele>803</ele>
        <time>2019-06-19T08:04:15Z</time>
      </trkpt>
      <trkpt lat="44.22827" lon="5.6821">
        <ele>803</ele>
        <time>2019-06-19T08:04:16Z</time>
      </trkpt>
      <trkpt lat="44.22826" lon="5.68212">
        <ele>803</ele>
        <time>2019-06-19T08:04:17Z</time>
      </trkpt>
      <trkpt lat="44.22824" lon="5.68213">
        <ele>803</ele>
        <time>2019-06-19T08:04:18Z</time>
      </trkpt>
      <trkpt lat="44.22822" lon="5.68215">
        <ele>803</ele>
        <time>2019-06-19T08:04:19Z</time>
      </trkpt>
      <trkpt lat="44.22821" lon="5.68216">
        <ele>803</ele>
        <time>2019-06-19T08:04:20Z</time>
      </trkpt>
      <trkpt lat="44.22819" lon="5.68219">
        <ele>803</ele>
        <time>2019-06-19T08:04:21Z</time>
      </trkpt>
      <trkpt lat="44.22817" lon="5.68221">
        <ele>803</ele>
        <time>2019-06-19T08:04:22Z</time>
      </trkpt>
      <trkpt lat="44.22816" lon="5.68223">
        <ele>803</ele>
        <time>2019-06-19T08:04:23Z</time>
      </trkpt>
      <trkpt lat="44.22815" lon="5.68226">
        <ele>803</ele>
        <time>2019-06-19T08:04:24Z</time>
      </trkpt>
      <trkpt lat="44.22814" lon="5.68228">
        <ele>804</ele>
        <time>2019-06-19T08:04:25Z</time>
      </trkpt>
      <trkpt lat="44.22813" lon="5.6823">
        <ele>804</ele>
        <time>2019-06-19T08:04:26Z</time>
      </trkpt>
      <trkpt lat="44.22811" lon="5.68232">
        <ele>804</ele>
        <time>2019-06-19T08:04:27Z</time>
      </trkpt>
      <trkpt lat="44.22809" lon="5.68234">
        <ele>804</ele>
        <time>2019-06-19T08:04:28Z</time>
      </trkpt>
      <trkpt lat="44.22807" lon="5.68235">
        <ele>804</ele>
        <time>2019-06-19T08:04:29Z</time>
      </trkpt>
      <trkpt lat="44.22805" lon="5.68236">
        <ele>804</ele>
        <time>2019-06-19T08:04:30Z</time>
      </trkpt>
      <trkpt lat="44.22803" lon="5.68238">
        <ele>804</ele>
        <time>2019-06-19T08:04:31Z</time>
      </trkpt>
      <trkpt lat="44.22801" lon="5.68239">
        <ele>804</ele>
        <time>2019-06-19T08:04:32Z</time>
      </trkpt>
      <trkpt lat="44.22799" lon="5.6824">
        <ele>805</ele>
        <time>2019-06-19T08:04:33Z</time>
      </trkpt>
      <trkpt lat="44.22796" lon="5.68241">
        <ele>805</ele>
        <time>2019-06-19T08:04:34Z</time>
      </trkpt>
      <trkpt lat="44.22794" lon="5.68242">
        <ele>805</ele>
        <time>2019-06-19T08:04:35Z</time>
      </trkpt>
      <trkpt lat="44.22792" lon="5.68242">
        <ele>805</ele>
        <time>2019-06-19T08:04:36Z</time>
      </trkpt>
      <trkpt lat="44.22789" lon="5.68242">
        <ele>805</ele>
        <time>2019-06-19T08:04:37Z</time>
      </trkpt>
      <trkpt lat="44.22787" lon="5.68242">
        <ele>806</ele>
        <time>2019-06-19T08:04:38Z</time>
      </trkpt>
      <trkpt lat="44.22785" lon="5.68242">
        <ele>806</ele>
        <time>2019-06-19T08:04:39Z</time>
      </trkpt>
      <trkpt lat="44.22783" lon="5.68242">
        <ele>806</ele>
        <time>2019-06-19T08:04:40Z</time>
      </trkpt>
      <trkpt lat="44.22781" lon="5.68242">
        <ele>806</ele>
        <time>2019-06-19T08:04:41Z</time>
      </trkpt>
      <trkpt lat="44.22778" lon="5.68242">
        <ele>806</ele>
        <time>2019-06-19T08:04:42Z</time>
      </trkpt>
      <trkpt lat="44.22776" lon="5.68242">
        <ele>806</ele>
        <time>2019-06-19T08:04:43Z</time>
      </trkpt>
      <trkpt lat="44.22774" lon="5.68241">
        <ele>806</ele>
        <time>2019-06-19T08:04:44Z</time>
      </trkpt>
      <trkpt lat="44.22772" lon="5.68242">
        <ele>807</ele>
        <time>2019-06-19T08:04:45Z</time>
      </trkpt>
      <trkpt lat="44.22769" lon="5.68242">
        <ele>807</ele>
        <time>2019-06-19T08:04:46Z</time>
      </trkpt>
      <trkpt lat="44.22767" lon="5.68242">
        <ele>808</ele>
        <time>2019-06-19T08:04:47Z</time>
      </trkpt>
      <trkpt lat="44.22765" lon="5.68242">
        <ele>808</ele>
        <time>2019-06-19T08:04:48Z</time>
      </trkpt>
      <trkpt lat="44.22763" lon="5.68243">
        <ele>808</ele>
        <time>2019-06-19T08:04:49Z</time>
      </trkpt>
      <trkpt lat="44.2276" lon="5.68243">
        <ele>808</ele>
        <time>2019-06-19T08:04:50Z</time>
      </trkpt>
      <trkpt lat="44.22758" lon="5.68242">
        <ele>808</ele>
        <time>2019-06-19T08:04:51Z</time>
      </trkpt>
      <trkpt lat="44.22756" lon="5.68242">
        <ele>808</ele>
        <time>2019-06-19T08:04:52Z</time>
      </trkpt>
      <trkpt lat="44.22754" lon="5.68243">
        <ele>808</ele>
        <time>2019-06-19T08:04:53Z</time>
      </trkpt>
      <trkpt lat="44.22751" lon="5.68243">
        <ele>809</ele>
        <time>2019-06-19T08:04:54Z</time>
      </trkpt>
      <trkpt lat="44.22749" lon="5.68244">
        <ele>809</ele>
        <time>2019-06-19T08:04:55Z</time>
      </trkpt>
      <trkpt lat="44.22747" lon="5.68245">
        <ele>809</ele>
        <time>2019-06-19T08:04:56Z</time>
      </trkpt>
      <trkpt lat="44.22744" lon="5.68245">
        <ele>809</ele>
        <time>2019-06-19T08:04:57Z</time>
      </trkpt>
      <trkpt lat="44.22742" lon="5.68247">
        <ele>809</ele>
        <time>2019-06-19T08:04:58Z</time>
      </trkpt>
      <trkpt lat="44.22741" lon="5.68248">
        <ele>810</ele>
        <time>2019-06-19T08:04:59Z</time>
      </trkpt>
      <trkpt lat="44.22738" lon="5.68248">
        <ele>810</ele>
        <time>2019-06-19T08:05:00Z</time>
      </trkpt>
      <trkpt lat="44.22736" lon="5.6825">
        <ele>810</ele>
        <time>2019-06-19T08:05:01Z</time>
      </trkpt>
      <trkpt lat="44.22734" lon="5.68251">
        <ele>810</ele>
        <time>2019-06-19T08:05:02Z</time>
      </trkpt>
      <trkpt lat="44.22732" lon="5.68252">
        <ele>810</ele>
        <time>2019-06-19T08:05:03Z</time>
      </trkpt>
      <trkpt lat="44.2273" lon="5.68254">
        <ele>810</ele>
        <time>2019-06-19T08:05:04Z</time>
      </trkpt>
      <trkpt lat="44.22728" lon="5.68255">
        <ele>810</ele>
        <time>2019-06-19T08:05:05Z</time>
      </trkpt>
      <trkpt lat="44.22726" lon="5.68257">
        <ele>810</ele>
        <time>2019-06-19T08:05:06Z</time>
      </trkpt>
      <trkpt lat="44.22724" lon="5.68258">
        <ele>810</ele>
        <time>2019-06-19T08:05:07Z</time>
      </trkpt>
      <trkpt lat="44.22722" lon="5.6826">
        <ele>811</ele>
        <time>2019-06-19T08:05:08Z</time>
      </trkpt>
      <trkpt lat="44.22721" lon="5.68261">
        <ele>811</ele>
        <time>2019-06-19T08:05:09Z</time>
      </trkpt>
      <trkpt lat="44.22719" lon="5.68263">
        <ele>811</ele>
        <time>2019-06-19T08:05:10Z</time>
      </trkpt>
      <trkpt lat="44.22717" lon="5.68265">
        <ele>811</ele>
        <time>2019-06-19T08:05:11Z</time>
      </trkpt>
      <trkpt lat="44.22716" lon="5.68268">
        <ele>812</ele>
        <time>2019-06-19T08:05:12Z</time>
      </trkpt>
      <trkpt lat="44.22715" lon="5.6827">
        <ele>812</ele>
        <time>2019-06-19T08:05:13Z</time>
      </trkpt>
      <trkpt lat="44.22713" lon="5.68273">
        <ele>813</ele>
        <time>2019-06-19T08:05:14Z</time>
      </trkpt>
      <trkpt lat="44.22712" lon="5.68275">
        <ele>814</ele>
        <time>2019-06-19T08:05:15Z</time>
      </trkpt>
      <trkpt lat="44.2271" lon="5.68278">
        <ele>815</ele>
        <time>2019-06-19T08:05:16Z</time>
      </trkpt>
      <trkpt lat="44.22709" lon="5.6828">
        <ele>816</ele>
        <time>2019-06-19T08:05:17Z</time>
      </trkpt>
      <trkpt lat="44.22708" lon="5.68282">
        <ele>816</ele>
        <time>2019-06-19T08:05:18Z</time>
      </trkpt>
      <trkpt lat="44.22707" lon="5.68285">
        <ele>816</ele>
        <time>2019-06-19T08:05:19Z</time>
      </trkpt>
      <trkpt lat="44.22705" lon="5.68287">
        <ele>817</ele>
        <time>2019-06-19T08:05:20Z</time>
      </trkpt>
      <trkpt lat="44.22705" lon="5.68289">
        <ele>817</ele>
        <time>2019-06-19T08:05:21Z</time>
      </trkpt>
      <trkpt lat="44.22704" lon="5.68292">
        <ele>817</ele>
        <time>2019-06-19T08:05:22Z</time>
      </trkpt>
      <trkpt lat="44.22704" lon="5.68295">
        <ele>817</ele>
        <time>2019-06-19T08:05:23Z</time>
      </trkpt>
      <trkpt lat="44.22704" lon="5.68297">
        <ele>817</ele>
        <time>2019-06-19T08:05:24Z</time>
      </trkpt>
      <trkpt lat="44.22703" lon="5.683">
        <ele>817</ele>
        <time>2019-06-19T08:05:25Z</time>
      </trkpt>
      <trkpt lat="44.22702" lon="5.68304">
        <ele>818</ele>
        <time>2019-06-19T08:05:26Z</time>
      </trkpt>
      <trkpt lat="44.22702" lon="5.68307">
        <ele>819</ele>
        <time>2019-06-19T08:05:27Z</time>
      </trkpt>
      <trkpt lat="44.22702" lon="5.6831">
        <ele>819</ele>
        <time>2019-06-19T08:05:28Z</time>
      </trkpt>
      <trkpt lat="44.22701" lon="5.68314">
        <ele>820</ele>
        <time>2019-06-19T08:05:29Z</time>
      </trkpt>
      <trkpt lat="44.22702" lon="5.68317">
        <ele>821</ele>
        <time>2019-06-19T08:05:30Z</time>
      </trkpt>
      <trkpt lat="44.22701" lon="5.6832">
        <ele>822</ele>
        <time>2019-06-19T08:05:31Z</time>
      </trkpt>
      <trkpt lat="44.227" lon="5.68324">
        <ele>822</ele>
        <time>2019-06-19T08:05:32Z</time>
      </trkpt>
      <trkpt lat="44.22699" lon="5.68327">
        <ele>823</ele>
        <time>2019-06-19T08:05:33Z</time>
      </trkpt>
      <trkpt lat="44.22699" lon="5.6833">
        <ele>823</ele>
        <time>2019-06-19T08:05:34Z</time>
      </trkpt>
      <trkpt lat="44.22699" lon="5.68333">
        <ele>824</ele>
        <time>2019-06-19T08:05:35Z</time>
      </trkpt>
      <trkpt lat="44.22699" lon="5.68336">
        <ele>824</ele>
        <time>2019-06-19T08:05:36Z</time>
      </trkpt>
      <trkpt lat="44.22699" lon="5.68339">
        <ele>825</ele>
        <time>2019-06-19T08:05:37Z</time>
      </trkpt>
      <trkpt lat="44.227" lon="5.68342">
        <ele>825</ele>
        <time>2019-06-19T08:05:38Z</time>
      </trkpt>
      <trkpt lat="44.227" lon="5.68345">
        <ele>826</ele>
        <time>2019-06-19T08:05:39Z</time>
      </trkpt>
      <trkpt lat="44.227" lon="5.68349">
        <ele>826</ele>
        <time>2019-06-19T08:05:40Z</time>
      </trkpt>
      <trkpt lat="44.22701" lon="5.68352">
        <ele>827</ele>
        <time>2019-06-19T08:05:41Z</time>
      </trkpt>
      <trkpt lat="44.227" lon="5.68355">
        <ele>828</ele>
        <time>2019-06-19T08:05:42Z</time>
      </trkpt>
      <trkpt lat="44.227" lon="5.68359">
        <ele>828</ele>
        <time>2019-06-19T08:05:43Z</time>
      </trkpt>
      <trkpt lat="44.227" lon="5.68362">
        <ele>829</ele>
        <time>2019-06-19T08:05:44Z</time>
      </trkpt>
      <trkpt lat="44.227" lon="5.68365">
        <ele>829</ele>
        <time>2019-06-19T08:05:45Z</time>
      </trkpt>
      <trkpt lat="44.227" lon="5.68368">
        <ele>830</ele>
        <time>2019-06-19T08:05:46Z</time>
      </trkpt>
      <trkpt lat="44.227" lon="5.68372">
        <ele>830</ele>
        <time>2019-06-19T08:05:47Z</time>
      </trkpt>
      <trkpt lat="44.227" lon="5.68375">
        <ele>831</ele>
        <time>2019-06-19T08:05:48Z</time>
      </trkpt>
      <trkpt lat="44.22701" lon="5.68378">
        <ele>831</ele>
        <time>2019-06-19T08:05:49Z</time>
      </trkpt>
      <trkpt lat="44.22701" lon="5.68382">
        <ele>832</ele>
        <time>2019-06-19T08:05:50Z</time>
      </trkpt>
      <trkpt lat="44.22701" lon="5.68385">
        <ele>832</ele>
        <time>2019-06-19T08:05:51Z</time>
      </trkpt>
      <trkpt lat="44.22701" lon="5.68389">
        <ele>833</ele>
        <time>2019-06-19T08:05:52Z</time>
      </trkpt>
      <trkpt lat="44.22701" lon="5.68392">
        <ele>833</ele>
        <time>2019-06-19T08:05:53Z</time>
      </trkpt>
      <trkpt lat="44.227" lon="5.68396">
        <ele>833</ele>
        <time>2019-06-19T08:05:54Z</time>
      </trkpt>
      <trkpt lat="44.22699" lon="5.68399">
        <ele>834</ele>
        <time>2019-06-19T08:05:55Z</time>
      </trkpt>
      <trkpt lat="44.22698" lon="5.68403">
        <ele>834</ele>
        <time>2019-06-19T08:05:56Z</time>
      </trkpt>
      <trkpt lat="44.22696" lon="5.68406">
        <ele>834</ele>
        <time>2019-06-19T08:05:57Z</time>
      </trkpt>
      <trkpt lat="44.22694" lon="5.68409">
        <ele>834</ele>
        <time>2019-06-19T08:05:58Z</time>
      </trkpt>
      <trkpt lat="44.22691" lon="5.6841">
        <ele>834</ele>
        <time>2019-06-19T08:05:59Z</time>
      </trkpt>
      <trkpt lat="44.22688" lon="5.68411">
        <ele>834</ele>
        <time>2019-06-19T08:06:00Z</time>
      </trkpt>
      <trkpt lat="44.22686" lon="5.68409">
        <ele>834</ele>
        <time>2019-06-19T08:06:01Z</time>
      </trkpt>
      <trkpt lat="44.22683" lon="5.68407">
        <ele>834</ele>
        <time>2019-06-19T08:06:02Z</time>
      </trkpt>
      <trkpt lat="44.22681" lon="5.68405">
        <ele>834</ele>
        <time>2019-06-19T08:06:03Z</time>
      </trkpt>
      <trkpt lat="44.2268" lon="5.68402">
        <ele>834</ele>
        <time>2019-06-19T08:06:04Z</time>
      </trkpt>
      <trkpt lat="44.22679" lon="5.68399">
        <ele>834</ele>
        <time>2019-06-19T08:06:05Z</time>
      </trkpt>
      <trkpt lat="44.22678" lon="5.68395">
        <ele>834</ele>
        <time>2019-06-19T08:06:06Z</time>
      </trkpt>
      <trkpt lat="44.22677" lon="5.68391">
        <ele>834</ele>
        <time>2019-06-19T08:06:07Z</time>
      </trkpt>
      <trkpt lat="44.22677" lon="5.68387">
        <ele>834</ele>
        <time>2019-06-19T08:06:08Z</time>
      </trkpt>
      <trkpt lat="44.22677" lon="5.68384">
        <ele>834</ele>
        <time>2019-06-19T08:06:09Z</time>
      </trkpt>
      <trkpt lat="44.22677" lon="5.6838">
        <ele>834</ele>
        <time>2019-06-19T08:06:10Z</time>
      </trkpt>
      <trkpt lat="44.22677" lon="5.68377">
        <ele>834</ele>
        <time>2019-06-19T08:06:11Z</time>
      </trkpt>
      <trkpt lat="44.22678" lon="5.68374">
        <ele>834</ele>
        <time>2019-06-19T08:06:12Z</time>
      </trkpt>
      <trkpt lat="44.22678" lon="5.6837">
        <ele>834</ele>
        <time>2019-06-19T08:06:13Z</time>
      </trkpt>
      <trkpt lat="44.22677" lon="5.68367">
        <ele>834</ele>
        <time>2019-06-19T08:06:14Z</time>
      </trkpt>
      <trkpt lat="44.22676" lon="5.68364">
        <ele>834</ele>
        <time>2019-06-19T08:06:15Z</time>
      </trkpt>
      <trkpt lat="44.22676" lon="5.68361">
        <ele>834</ele>
        <time>2019-06-19T08:06:16Z</time>
      </trkpt>
      <trkpt lat="44.22675" lon="5.68358">
        <ele>834</ele>
        <time>2019-06-19T08:06:17Z</time>
      </trkpt>
      <trkpt lat="44.22675" lon="5.68354">
        <ele>834</ele>
        <time>2019-06-19T08:06:18Z</time>
      </trkpt>
      <trkpt lat="44.22674" lon="5.68351">
        <ele>834</ele>
        <time>2019-06-19T08:06:19Z</time>
      </trkpt>
      <trkpt lat="44.22673" lon="5.68348">
        <ele>834</ele>
        <time>2019-06-19T08:06:20Z</time>
      </trkpt>
      <trkpt lat="44.22673" lon="5.68346">
        <ele>834</ele>
        <time>2019-06-19T08:06:21Z</time>
      </trkpt>
      <trkpt lat="44.22672" lon="5.68343">
        <ele>834</ele>
        <time>2019-06-19T08:06:22Z</time>
      </trkpt>
      <trkpt lat="44.2267" lon="5.6834">
        <ele>834</ele>
        <time>2019-06-19T08:06:23Z</time>
      </trkpt>
      <trkpt lat="44.22669" lon="5.68337">
        <ele>834</ele>
        <time>2019-06-19T08:06:24Z</time>
      </trkpt>
      <trkpt lat="44.22668" lon="5.68335">
        <ele>834</ele>
        <time>2019-06-19T08:06:25Z</time>
      </trkpt>
      <trkpt lat="44.22668" lon="5.68332">
        <ele>834</ele>
        <time>2019-06-19T08:06:26Z</time>
      </trkpt>
      <trkpt lat="44.22667" lon="5.68329">
        <ele>834</ele>
        <time>2019-06-19T08:06:27Z</time>
      </trkpt>
      <trkpt lat="44.22666" lon="5.68326">
        <ele>834</ele>
        <time>2019-06-19T08:06:28Z</time>
      </trkpt>
      <trkpt lat="44.22665" lon="5.68323">
        <ele>834</ele>
        <time>2019-06-19T08:06:29Z</time>
      </trkpt>
      <trkpt lat="44.22664" lon="5.6832">
        <ele>835</ele>
        <time>2019-06-19T08:06:30Z</time>
      </trkpt>
      <trkpt lat="44.22663" lon="5.68316">
        <ele>836</ele>
        <time>2019-06-19T08:06:31Z</time>
      </trkpt>
      <trkpt lat="44.22663" lon="5.68312">
        <ele>837</ele>
        <time>2019-06-19T08:06:32Z</time>
      </trkpt>
      <trkpt lat="44.22662" lon="5.68309">
        <ele>838</ele>
        <time>2019-06-19T08:06:33Z</time>
      </trkpt>
      <trkpt lat="44.22661" lon="5.68306">
        <ele>839</ele>
        <time>2019-06-19T08:06:34Z</time>
      </trkpt>
      <trkpt lat="44.22661" lon="5.68303">
        <ele>839</ele>
        <time>2019-06-19T08:06:35Z</time>
      </trkpt>
      <trkpt lat="44.2266" lon="5.683">
        <ele>840</ele>
        <time>2019-06-19T08:06:36Z</time>
      </trkpt>
      <trkpt lat="44.2266" lon="5.68296">
        <ele>840</ele>
        <time>2019-06-19T08:06:37Z</time>
      </trkpt>
      <trkpt lat="44.22659" lon="5.68294">
        <ele>841</ele>
        <time>2019-06-19T08:06:38Z</time>
      </trkpt>
      <trkpt lat="44.22658" lon="5.68291">
        <ele>842</ele>
        <time>2019-06-19T08:06:39Z</time>
      </trkpt>
      <trkpt lat="44.22657" lon="5.68287">
        <ele>843</ele>
        <time>2019-06-19T08:06:40Z</time>
      </trkpt>
      <trkpt lat="44.22655" lon="5.68284">
        <ele>843</ele>
        <time>2019-06-19T08:06:41Z</time>
      </trkpt>
      <trkpt lat="44.22653" lon="5.68282">
        <ele>843</ele>
        <time>2019-06-19T08:06:42Z</time>
      </trkpt>
      <trkpt lat="44.22651" lon="5.6828">
        <ele>843</ele>
        <time>2019-06-19T08:06:43Z</time>
      </trkpt>
      <trkpt lat="44.22648" lon="5.6828">
        <ele>843</ele>
        <time>2019-06-19T08:06:44Z</time>
      </trkpt>
      <trkpt lat="44.22645" lon="5.68281">
        <ele>843</ele>
        <time>2019-06-19T08:06:45Z</time>
      </trkpt>
      <trkpt lat="44.22643" lon="5.68283">
        <ele>843</ele>
        <time>2019-06-19T08:06:46Z</time>
      </trkpt>
      <trkpt lat="44.22642" lon="5.68286">
        <ele>843</ele>
        <time>2019-06-19T08:06:47Z</time>
      </trkpt>
      <trkpt lat="44.22641" lon="5.68289">
        <ele>843</ele>
        <time>2019-06-19T08:06:48Z</time>
      </trkpt>
      <trkpt lat="44.2264" lon="5.68293">
        <ele>843</ele>
        <time>2019-06-19T08:06:49Z</time>
      </trkpt>
      <trkpt lat="44.22639" lon="5.68296">
        <ele>843</ele>
        <time>2019-06-19T08:06:50Z</time>
      </trkpt>
      <trkpt lat="44.22639" lon="5.683">
        <ele>843</ele>
        <time>2019-06-19T08:06:51Z</time>
      </trkpt>
      <trkpt lat="44.22639" lon="5.68304">
        <ele>843</ele>
        <time>2019-06-19T08:06:52Z</time>
      </trkpt>
      <trkpt lat="44.22639" lon="5.68308">
        <ele>843</ele>
        <time>2019-06-19T08:06:53Z</time>
      </trkpt>
      <trkpt lat="44.22638" lon="5.68312">
        <ele>843</ele>
        <time>2019-06-19T08:06:54Z</time>
      </trkpt>
      <trkpt lat="44.22638" lon="5.68315">
        <ele>843</ele>
        <time>2019-06-19T08:06:55Z</time>
      </trkpt>
      <trkpt lat="44.22638" lon="5.68319">
        <ele>844</ele>
        <time>2019-06-19T08:06:56Z</time>
      </trkpt>
      <trkpt lat="44.22639" lon="5.68322">
        <ele>845</ele>
        <time>2019-06-19T08:06:57Z</time>
      </trkpt>
      <trkpt lat="44.22638" lon="5.68326">
        <ele>846</ele>
        <time>2019-06-19T08:06:58Z</time>
      </trkpt>
      <trkpt lat="44.22638" lon="5.68329">
        <ele>846</ele>
        <time>2019-06-19T08:06:59Z</time>
      </trkpt>
      <trkpt lat="44.22639" lon="5.68332">
        <ele>847</ele>
        <time>2019-06-19T08:07:00Z</time>
      </trkpt>
      <trkpt lat="44.22639" lon="5.68335">
        <ele>847</ele>
        <time>2019-06-19T08:07:01Z</time>
      </trkpt>
      <trkpt lat="44.22639" lon="5.68339">
        <ele>848</ele>
        <time>2019-06-19T08:07:02Z</time>
      </trkpt>
      <trkpt lat="44.22639" lon="5.68342">
        <ele>848</ele>
        <time>2019-06-19T08:07:03Z</time>
      </trkpt>
      <trkpt lat="44.22639" lon="5.68345">
        <ele>848</ele>
        <time>2019-06-19T08:07:04Z</time>
      </trkpt>
      <trkpt lat="44.22639" lon="5.68349">
        <ele>848</ele>
        <time>2019-06-19T08:07:05Z</time>
      </trkpt>
      <trkpt lat="44.2264" lon="5.68351">
        <ele>848</ele>
        <time>2019-06-19T08:07:06Z</time>
      </trkpt>
      <trkpt lat="44.22639" lon="5.68355">
        <ele>848</ele>
        <time>2019-06-19T08:07:07Z</time>
      </trkpt>
      <trkpt lat="44.22638" lon="5.68358">
        <ele>848</ele>
        <time>2019-06-19T08:07:08Z</time>
      </trkpt>
      <trkpt lat="44.22636" lon="5.68361">
        <ele>848</ele>
        <time>2019-06-19T08:07:09Z</time>
      </trkpt>
      <trkpt lat="44.22634" lon="5.68364">
        <ele>848</ele>
        <time>2019-06-19T08:07:10Z</time>
      </trkpt>
      <trkpt lat="44.22633" lon="5.68367">
        <ele>848</ele>
        <time>2019-06-19T08:07:11Z</time>
      </trkpt>
      <trkpt lat="44.22631" lon="5.6837">
        <ele>848</ele>
        <time>2019-06-19T08:07:12Z</time>
      </trkpt>
      <trkpt lat="44.2263" lon="5.68372">
        <ele>848</ele>
        <time>2019-06-19T08:07:13Z</time>
      </trkpt>
      <trkpt lat="44.22628" lon="5.68374">
        <ele>848</ele>
        <time>2019-06-19T08:07:14Z</time>
      </trkpt>
      <trkpt lat="44.22626" lon="5.68376">
        <ele>848</ele>
        <time>2019-06-19T08:07:15Z</time>
      </trkpt>
      <trkpt lat="44.22625" lon="5.68379">
        <ele>848</ele>
        <time>2019-06-19T08:07:16Z</time>
      </trkpt>
      <trkpt lat="44.22623" lon="5.6838">
        <ele>848</ele>
        <time>2019-06-19T08:07:17Z</time>
      </trkpt>
      <trkpt lat="44.2262" lon="5.68382">
        <ele>848</ele>
        <time>2019-06-19T08:07:18Z</time>
      </trkpt>
      <trkpt lat="44.22618" lon="5.68384">
        <ele>848</ele>
        <time>2019-06-19T08:07:19Z</time>
      </trkpt>
      <trkpt lat="44.22616" lon="5.68385">
        <ele>848</ele>
        <time>2019-06-19T08:07:20Z</time>
      </trkpt>
      <trkpt lat="44.22614" lon="5.68386">
        <ele>848</ele>
        <time>2019-06-19T08:07:21Z</time>
      </trkpt>
      <trkpt lat="44.22612" lon="5.68388">
        <ele>848</ele>
        <time>2019-06-19T08:07:22Z</time>
      </trkpt>
      <trkpt lat="44.2261" lon="5.6839">
        <ele>848</ele>
        <time>2019-06-19T08:07:23Z</time>
      </trkpt>
      <trkpt lat="44.22609" lon="5.68391">
        <ele>848</ele>
        <time>2019-06-19T08:07:24Z</time>
      </trkpt>
      <trkpt lat="44.22606" lon="5.68393">
        <ele>848</ele>
        <time>2019-06-19T08:07:25Z</time>
      </trkpt>
      <trkpt lat="44.22604" lon="5.68395">
        <ele>848</ele>
        <time>2019-06-19T08:07:26Z</time>
      </trkpt>
      <trkpt lat="44.22603" lon="5.68397">
        <ele>848</ele>
        <time>2019-06-19T08:07:27Z</time>
      </trkpt>
      <trkpt lat="44.22601" lon="5.68399">
        <ele>848</ele>
        <time>2019-06-19T08:07:28Z</time>
      </trkpt>
      <trkpt lat="44.22599" lon="5.684">
        <ele>848</ele>
        <time>2019-06-19T08:07:29Z</time>
      </trkpt>
      <trkpt lat="44.22597" lon="5.68402">
        <ele>848</ele>
        <time>2019-06-19T08:07:30Z</time>
      </trkpt>
      <trkpt lat="44.22595" lon="5.68404">
        <ele>848</ele>
        <time>2019-06-19T08:07:31Z</time>
      </trkpt>
      <trkpt lat="44.22594" lon="5.68406">
        <ele>848</ele>
        <time>2019-06-19T08:07:32Z</time>
      </trkpt>
      <trkpt lat="44.22592" lon="5.68407">
        <ele>848</ele>
        <time>2019-06-19T08:07:33Z</time>
      </trkpt>
      <trkpt lat="44.2259" lon="5.68409">
        <ele>848</ele>
        <time>2019-06-19T08:07:34Z</time>
      </trkpt>
      <trkpt lat="44.22588" lon="5.68411">
        <ele>848</ele>
        <time>2019-06-19T08:07:35Z</time>
      </trkpt>
      <trkpt lat="44.22587" lon="5.68412">
        <ele>848</ele>
        <time>2019-06-19T08:07:36Z</time>
      </trkpt>
      <trkpt lat="44.22585" lon="5.68414">
        <ele>848</ele>
        <time>2019-06-19T08:07:37Z</time>
      </trkpt>
      <trkpt lat="44.22584" lon="5.68416">
        <ele>848</ele>
        <time>2019-06-19T08:07:38Z</time>
      </trkpt>
      <trkpt lat="44.22582" lon="5.68418">
        <ele>848</ele>
        <time>2019-06-19T08:07:39Z</time>
      </trkpt>
      <trkpt lat="44.22581" lon="5.68419">
        <ele>848</ele>
        <time>2019-06-19T08:07:40Z</time>
      </trkpt>
      <trkpt lat="44.22579" lon="5.68421">
        <ele>848</ele>
        <time>2019-06-19T08:07:41Z</time>
      </trkpt>
      <trkpt lat="44.22578" lon="5.68422">
        <ele>848</ele>
        <time>2019-06-19T08:07:42Z</time>
      </trkpt>
      <trkpt lat="44.22576" lon="5.68424">
        <ele>848</ele>
        <time>2019-06-19T08:07:43Z</time>
      </trkpt>
      <trkpt lat="44.22575" lon="5.68426">
        <ele>848</ele>
        <time>2019-06-19T08:07:44Z</time>
      </trkpt>
      <trkpt lat="44.22574" lon="5.68428">
        <ele>848</ele>
        <time>2019-06-19T08:07:45Z</time>
      </trkpt>
      <trkpt lat="44.22572" lon="5.6843">
        <ele>848</ele>
        <time>2019-06-19T08:07:46Z</time>
      </trkpt>
      <trkpt lat="44.22571" lon="5.68432">
        <ele>848</ele>
        <time>2019-06-19T08:07:47Z</time>
      </trkpt>
      <trkpt lat="44.2257" lon="5.68434">
        <ele>848</ele>
        <time>2019-06-19T08:07:48Z</time>
      </trkpt>
      <trkpt lat="44.22569" lon="5.68437">
        <ele>848</ele>
        <time>2019-06-19T08:07:49Z</time>
      </trkpt>
      <trkpt lat="44.22568" lon="5.68439">
        <ele>848</ele>
        <time>2019-06-19T08:07:50Z</time>
      </trkpt>
      <trkpt lat="44.22567" lon="5.68442">
        <ele>848</ele>
        <time>2019-06-19T08:07:51Z</time>
      </trkpt>
      <trkpt lat="44.22567" lon="5.68445">
        <ele>849</ele>
        <time>2019-06-19T08:07:52Z</time>
      </trkpt>
      <trkpt lat="44.22567" lon="5.68449">
        <ele>849</ele>
        <time>2019-06-19T08:07:53Z</time>
      </trkpt>
      <trkpt lat="44.22566" lon="5.68452">
        <ele>850</ele>
        <time>2019-06-19T08:07:54Z</time>
      </trkpt>
      <trkpt lat="44.22565" lon="5.68456">
        <ele>851</ele>
        <time>2019-06-19T08:07:55Z</time>
      </trkpt>
      <trkpt lat="44.22565" lon="5.68459">
        <ele>851</ele>
        <time>2019-06-19T08:07:56Z</time>
      </trkpt>
      <trkpt lat="44.22564" lon="5.68461">
        <ele>852</ele>
        <time>2019-06-19T08:07:57Z</time>
      </trkpt>
      <trkpt lat="44.22565" lon="5.68464">
        <ele>853</ele>
        <time>2019-06-19T08:07:58Z</time>
      </trkpt>
      <trkpt lat="44.22565" lon="5.68467">
        <ele>854</ele>
        <time>2019-06-19T08:07:59Z</time>
      </trkpt>
      <trkpt lat="44.22565" lon="5.6847">
        <ele>854</ele>
        <time>2019-06-19T08:08:00Z</time>
      </trkpt>
      <trkpt lat="44.22565" lon="5.68473">
        <ele>855</ele>
        <time>2019-06-19T08:08:01Z</time>
      </trkpt>
      <trkpt lat="44.22565" lon="5.68476">
        <ele>856</ele>
        <time>2019-06-19T08:08:02Z</time>
      </trkpt>
      <trkpt lat="44.22565" lon="5.68479">
        <ele>857</ele>
        <time>2019-06-19T08:08:03Z</time>
      </trkpt>
      <trkpt lat="44.22566" lon="5.68482">
        <ele>857</ele>
        <time>2019-06-19T08:08:04Z</time>
      </trkpt>
      <trkpt lat="44.22565" lon="5.68485">
        <ele>858</ele>
        <time>2019-06-19T08:08:05Z</time>
      </trkpt>
      <trkpt lat="44.22564" lon="5.68489">
        <ele>858</ele>
        <time>2019-06-19T08:08:06Z</time>
      </trkpt>
      <trkpt lat="44.22564" lon="5.68492">
        <ele>859</ele>
        <time>2019-06-19T08:08:07Z</time>
      </trkpt>
      <trkpt lat="44.22563" lon="5.68495">
        <ele>859</ele>
        <time>2019-06-19T08:08:08Z</time>
      </trkpt>
      <trkpt lat="44.22562" lon="5.68499">
        <ele>859</ele>
        <time>2019-06-19T08:08:09Z</time>
      </trkpt>
      <trkpt lat="44.22563" lon="5.68501">
        <ele>859</ele>
        <time>2019-06-19T08:08:10Z</time>
      </trkpt>
      <trkpt lat="44.22563" lon="5.68504">
        <ele>859</ele>
        <time>2019-06-19T08:08:11Z</time>
      </trkpt>
      <trkpt lat="44.22563" lon="5.68507">
        <ele>859</ele>
        <time>2019-06-19T08:08:12Z</time>
      </trkpt>
      <trkpt lat="44.22562" lon="5.6851">
        <ele>860</ele>
        <time>2019-06-19T08:08:13Z</time>
      </trkpt>
      <trkpt lat="44.22561" lon="5.68513">
        <ele>860</ele>
        <time>2019-06-19T08:08:14Z</time>
      </trkpt>
      <trkpt lat="44.22561" lon="5.68516">
        <ele>860</ele>
        <time>2019-06-19T08:08:15Z</time>
      </trkpt>
      <trkpt lat="44.2256" lon="5.68519">
        <ele>860</ele>
        <time>2019-06-19T08:08:16Z</time>
      </trkpt>
      <trkpt lat="44.22559" lon="5.68521">
        <ele>861</ele>
        <time>2019-06-19T08:08:17Z</time>
      </trkpt>
      <trkpt lat="44.22558" lon="5.68524">
        <ele>861</ele>
        <time>2019-06-19T08:08:18Z</time>
      </trkpt>
      <trkpt lat="44.22557" lon="5.68527">
        <ele>861</ele>
        <time>2019-06-19T08:08:19Z</time>
      </trkpt>
      <trkpt lat="44.22556" lon="5.6853">
        <ele>861</ele>
        <time>2019-06-19T08:08:20Z</time>
      </trkpt>
      <trkpt lat="44.22554" lon="5.68532">
        <ele>861</ele>
        <time>2019-06-19T08:08:21Z</time>
      </trkpt>
      <trkpt lat="44.22552" lon="5.68534">
        <ele>862</ele>
        <time>2019-06-19T08:08:22Z</time>
      </trkpt>
      <trkpt lat="44.22551" lon="5.68537">
        <ele>862</ele>
        <time>2019-06-19T08:08:23Z</time>
      </trkpt>
      <trkpt lat="44.2255" lon="5.68539">
        <ele>862</ele>
        <time>2019-06-19T08:08:24Z</time>
      </trkpt>
      <trkpt lat="44.22548" lon="5.68541">
        <ele>862</ele>
        <time>2019-06-19T08:08:25Z</time>
      </trkpt>
      <trkpt lat="44.22547" lon="5.68544">
        <ele>862</ele>
        <time>2019-06-19T08:08:26Z</time>
      </trkpt>
      <trkpt lat="44.22546" lon="5.68546">
        <ele>862</ele>
        <time>2019-06-19T08:08:27Z</time>
      </trkpt>
      <trkpt lat="44.22545" lon="5.68549">
        <ele>862</ele>
        <time>2019-06-19T08:08:28Z</time>
      </trkpt>
      <trkpt lat="44.22544" lon="5.68551">
        <ele>862</ele>
        <time>2019-06-19T08:08:29Z</time>
      </trkpt>
      <trkpt lat="44.22542" lon="5.68553">
        <ele>862</ele>
        <time>2019-06-19T08:08:30Z</time>
      </trkpt>
      <trkpt lat="44.22542" lon="5.68556">
        <ele>862</ele>
        <time>2019-06-19T08:08:31Z</time>
      </trkpt>
      <trkpt lat="44.22541" lon="5.6856">
        <ele>862</ele>
        <time>2019-06-19T08:08:32Z</time>
      </trkpt>
      <trkpt lat="44.2254" lon="5.68562">
        <ele>862</ele>
        <time>2019-06-19T08:08:33Z</time>
      </trkpt>
      <trkpt lat="44.22539" lon="5.68565">
        <ele>862</ele>
        <time>2019-06-19T08:08:34Z</time>
      </trkpt>
      <trkpt lat="44.22538" lon="5.68568">
        <ele>863</ele>
        <time>2019-06-19T08:08:35Z</time>
      </trkpt>
      <trkpt lat="44.22537" lon="5.68571">
        <ele>863</ele>
        <time>2019-06-19T08:08:36Z</time>
      </trkpt>
      <trkpt lat="44.22536" lon="5.68573">
        <ele>864</ele>
        <time>2019-06-19T08:08:37Z</time>
      </trkpt>
      <trkpt lat="44.22535" lon="5.68575">
        <ele>864</ele>
        <time>2019-06-19T08:08:38Z</time>
      </trkpt>
      <trkpt lat="44.22534" lon="5.68578">
        <ele>864</ele>
        <time>2019-06-19T08:08:39Z</time>
      </trkpt>
      <trkpt lat="44.22533" lon="5.6858">
        <ele>865</ele>
        <time>2019-06-19T08:08:40Z</time>
      </trkpt>
      <trkpt lat="44.22532" lon="5.68582">
        <ele>865</ele>
        <time>2019-06-19T08:08:41Z</time>
      </trkpt>
      <trkpt lat="44.22531" lon="5.68585">
        <ele>865</ele>
        <time>2019-06-19T08:08:42Z</time>
      </trkpt>
      <trkpt lat="44.2253" lon="5.68587">
        <ele>865</ele>
        <time>2019-06-19T08:08:43Z</time>
      </trkpt>
      <trkpt lat="44.2253" lon="5.6859">
        <ele>865</ele>
        <time>2019-06-19T08:08:44Z</time>
      </trkpt>
      <trkpt lat="44.22529" lon="5.68593">
        <ele>865</ele>
        <time>2019-06-19T08:08:45Z</time>
      </trkpt>
      <trkpt lat="44.22529" lon="5.68596">
        <ele>865</ele>
        <time>2019-06-19T08:08:46Z</time>
      </trkpt>
      <trkpt lat="44.22528" lon="5.68598">
        <ele>865</ele>
        <time>2019-06-19T08:08:47Z</time>
      </trkpt>
      <trkpt lat="44.22527" lon="5.68601">
        <ele>865</ele>
        <time>2019-06-19T08:08:48Z</time>
      </trkpt>
      <trkpt lat="44.22525" lon="5.68604">
        <ele>866</ele>
        <time>2019-06-19T08:08:49Z</time>
      </trkpt>
      <trkpt lat="44.22525" lon="5.68606">
        <ele>866</ele>
        <time>2019-06-19T08:08:50Z</time>
      </trkpt>
      <trkpt lat="44.22523" lon="5.68609">
        <ele>866</ele>
        <time>2019-06-19T08:08:51Z</time>
      </trkpt>
      <trkpt lat="44.22522" lon="5.68611">
        <ele>866</ele>
        <time>2019-06-19T08:08:52Z</time>
      </trkpt>
      <trkpt lat="44.2252" lon="5.68614">
        <ele>866</ele>
        <time>2019-06-19T08:08:53Z</time>
      </trkpt>
      <trkpt lat="44.22519" lon="5.68616">
        <ele>866</ele>
        <time>2019-06-19T08:08:54Z</time>
      </trkpt>
      <trkpt lat="44.22517" lon="5.68618">
        <ele>866</ele>
        <time>2019-06-19T08:08:55Z</time>
      </trkpt>
      <trkpt lat="44.22515" lon="5.68619">
        <ele>866</ele>
        <time>2019-06-19T08:08:56Z</time>
      </trkpt>
      <trkpt lat="44.22514" lon="5.68621">
        <ele>866</ele>
        <time>2019-06-19T08:08:57Z</time>
      </trkpt>
      <trkpt lat="44.22512" lon="5.68623">
        <ele>866</ele>
        <time>2019-06-19T08:08:58Z</time>
      </trkpt>
      <trkpt lat="44.22511" lon="5.68625">
        <ele>866</ele>
        <time>2019-06-19T08:08:59Z</time>
      </trkpt>
      <trkpt lat="44.22509" lon="5.68627">
        <ele>866</ele>
        <time>2019-06-19T08:09:00Z</time>
      </trkpt>
      <trkpt lat="44.22507" lon="5.68629">
        <ele>866</ele>
        <time>2019-06-19T08:09:01Z</time>
      </trkpt>
      <trkpt lat="44.22505" lon="5.6863">
        <ele>866</ele>
        <time>2019-06-19T08:09:02Z</time>
      </trkpt>
      <trkpt lat="44.22503" lon="5.68631">
        <ele>866</ele>
        <time>2019-06-19T08:09:03Z</time>
      </trkpt>
      <trkpt lat="44.22501" lon="5.68632">
        <ele>866</ele>
        <time>2019-06-19T08:09:04Z</time>
      </trkpt>
      <trkpt lat="44.22499" lon="5.68634">
        <ele>866</ele>
        <time>2019-06-19T08:09:05Z</time>
      </trkpt>
      <trkpt lat="44.22497" lon="5.68635">
        <ele>866</ele>
        <time>2019-06-19T08:09:06Z</time>
      </trkpt>
      <trkpt lat="44.22495" lon="5.68637">
        <ele>866</ele>
        <time>2019-06-19T08:09:07Z</time>
      </trkpt>
      <trkpt lat="44.22493" lon="5.68638">
        <ele>866</ele>
        <time>2019-06-19T08:09:08Z</time>
      </trkpt>
      <trkpt lat="44.22491" lon="5.68639">
        <ele>866</ele>
        <time>2019-06-19T08:09:09Z</time>
      </trkpt>
      <trkpt lat="44.2249" lon="5.68641">
        <ele>866</ele>
        <time>2019-06-19T08:09:10Z</time>
      </trkpt>
      <trkpt lat="44.22488" lon="5.68642">
        <ele>866</ele>
        <time>2019-06-19T08:09:11Z</time>
      </trkpt>
      <trkpt lat="44.22485" lon="5.68644">
        <ele>866</ele>
        <time>2019-06-19T08:09:12Z</time>
      </trkpt>
      <trkpt lat="44.22483" lon="5.68645">
        <ele>866</ele>
        <time>2019-06-19T08:09:13Z</time>
      </trkpt>
      <trkpt lat="44.22482" lon="5.68646">
        <ele>866</ele>
        <time>2019-06-19T08:09:14Z</time>
      </trkpt>
      <trkpt lat="44.2248" lon="5.68647">
        <ele>867</ele>
        <time>2019-06-19T08:09:15Z</time>
      </trkpt>
      <trkpt lat="44.22478" lon="5.68649">
        <ele>867</ele>
        <time>2019-06-19T08:09:16Z</time>
      </trkpt>
      <trkpt lat="44.22476" lon="5.68651">
        <ele>867</ele>
        <time>2019-06-19T08:09:17Z</time>
      </trkpt>
      <trkpt lat="44.22474" lon="5.68652">
        <ele>867</ele>
        <time>2019-06-19T08:09:18Z</time>
      </trkpt>
      <trkpt lat="44.22472" lon="5.68653">
        <ele>867</ele>
        <time>2019-06-19T08:09:19Z</time>
      </trkpt>
      <trkpt lat="44.22471" lon="5.68654">
        <ele>867</ele>
        <time>2019-06-19T08:09:20Z</time>
      </trkpt>
      <trkpt lat="44.22469" lon="5.68655">
        <ele>868</ele>
        <time>2019-06-19T08:09:21Z</time>
      </trkpt>
      <trkpt lat="44.22467" lon="5.68656">
        <ele>868</ele>
        <time>2019-06-19T08:09:22Z</time>
      </trkpt>
      <trkpt lat="44.22465" lon="5.68658">
        <ele>868</ele>
        <time>2019-06-19T08:09:23Z</time>
      </trkpt>
      <trkpt lat="44.22464" lon="5.68659">
        <ele>868</ele>
        <time>2019-06-19T08:09:24Z</time>
      </trkpt>
      <trkpt lat="44.22462" lon="5.6866">
        <ele>868</ele>
        <time>2019-06-19T08:09:25Z</time>
      </trkpt>
      <trkpt lat="44.2246" lon="5.68661">
        <ele>868</ele>
        <time>2019-06-19T08:09:26Z</time>
      </trkpt>
      <trkpt lat="44.22459" lon="5.68662">
        <ele>868</ele>
        <time>2019-06-19T08:09:27Z</time>
      </trkpt>
      <trkpt lat="44.22457" lon="5.68663">
        <ele>868</ele>
        <time>2019-06-19T08:09:28Z</time>
      </trkpt>
      <trkpt lat="44.22455" lon="5.68664">
        <ele>868</ele>
        <time>2019-06-19T08:09:29Z</time>
      </trkpt>
      <trkpt lat="44.22454" lon="5.68665">
        <ele>868</ele>
        <time>2019-06-19T08:09:30Z</time>
      </trkpt>
      <trkpt lat="44.22452" lon="5.68667">
        <ele>868</ele>
        <time>2019-06-19T08:09:31Z</time>
      </trkpt>
      <trkpt lat="44.2245" lon="5.68668">
        <ele>868</ele>
        <time>2019-06-19T08:09:32Z</time>
      </trkpt>
      <trkpt lat="44.22448" lon="5.68669">
        <ele>868</ele>
        <time>2019-06-19T08:09:33Z</time>
      </trkpt>
      <trkpt lat="44.22447" lon="5.6867">
        <ele>868</ele>
        <time>2019-06-19T08:09:34Z</time>
      </trkpt>
      <trkpt lat="44.22445" lon="5.68671">
        <ele>869</ele>
        <time>2019-06-19T08:09:35Z</time>
      </trkpt>
      <trkpt lat="44.22443" lon="5.68672">
        <ele>869</ele>
        <time>2019-06-19T08:09:36Z</time>
      </trkpt>
      <trkpt lat="44.22441" lon="5.68673">
        <ele>869</ele>
        <time>2019-06-19T08:09:37Z</time>
      </trkpt>
      <trkpt lat="44.22439" lon="5.68673">
        <ele>869</ele>
        <time>2019-06-19T08:09:38Z</time>
      </trkpt>
      <trkpt lat="44.22437" lon="5.68674">
        <ele>870</ele>
        <time>2019-06-19T08:09:39Z</time>
      </trkpt>
      <trkpt lat="44.22435" lon="5.68675">
        <ele>870</ele>
        <time>2019-06-19T08:09:40Z</time>
      </trkpt>
      <trkpt lat="44.22433" lon="5.68677">
        <ele>870</ele>
        <time>2019-06-19T08:09:41Z</time>
      </trkpt>
      <trkpt lat="44.22431" lon="5.68677">
        <ele>870</ele>
        <time>2019-06-19T08:09:42Z</time>
      </trkpt>
      <trkpt lat="44.22429" lon="5.68678">
        <ele>871</ele>
        <time>2019-06-19T08:09:43Z</time>
      </trkpt>
      <trkpt lat="44.22427" lon="5.68679">
        <ele>871</ele>
        <time>2019-06-19T08:09:44Z</time>
      </trkpt>
      <trkpt lat="44.22425" lon="5.6868">
        <ele>871</ele>
        <time>2019-06-19T08:09:45Z</time>
      </trkpt>
      <trkpt lat="44.22423" lon="5.68681">
        <ele>871</ele>
        <time>2019-06-19T08:09:46Z</time>
      </trkpt>
      <trkpt lat="44.22422" lon="5.68682">
        <ele>871</ele>
        <time>2019-06-19T08:09:47Z</time>
      </trkpt>
      <trkpt lat="44.2242" lon="5.68683">
        <ele>871</ele>
        <time>2019-06-19T08:09:48Z</time>
      </trkpt>
      <trkpt lat="44.22418" lon="5.68685">
        <ele>871</ele>
        <time>2019-06-19T08:09:49Z</time>
      </trkpt>
      <trkpt lat="44.22416" lon="5.68686">
        <ele>872</ele>
        <time>2019-06-19T08:09:50Z</time>
      </trkpt>
      <trkpt lat="44.22414" lon="5.68687">
        <ele>872</ele>
        <time>2019-06-19T08:09:51Z</time>
      </trkpt>
      <trkpt lat="44.22411" lon="5.68688">
        <ele>872</ele>
        <time>2019-06-19T08:09:52Z</time>
      </trkpt>
      <trkpt lat="44.22409" lon="5.6869">
        <ele>872</ele>
        <time>2019-06-19T08:09:53Z</time>
      </trkpt>
      <trkpt lat="44.22408" lon="5.68691">
        <ele>872</ele>
        <time>2019-06-19T08:09:54Z</time>
      </trkpt>
      <trkpt lat="44.22405" lon="5.68692">
        <ele>872</ele>
        <time>2019-06-19T08:09:55Z</time>
      </trkpt>
      <trkpt lat="44.22403" lon="5.68692">
        <ele>873</ele>
        <time>2019-06-19T08:09:56Z</time>
      </trkpt>
      <trkpt lat="44.22401" lon="5.68693">
        <ele>873</ele>
        <time>2019-06-19T08:09:57Z</time>
      </trkpt>
      <trkpt lat="44.22398" lon="5.68693">
        <ele>873</ele>
        <time>2019-06-19T08:09:58Z</time>
      </trkpt>
      <trkpt lat="44.22396" lon="5.68693">
        <ele>873</ele>
        <time>2019-06-19T08:09:59Z</time>
      </trkpt>
      <trkpt lat="44.22394" lon="5.68694">
        <ele>873</ele>
        <time>2019-06-19T08:10:00Z</time>
      </trkpt>
      <trkpt lat="44.22392" lon="5.68694">
        <ele>873</ele>
        <time>2019-06-19T08:10:01Z</time>
      </trkpt>
      <trkpt lat="44.2239" lon="5.68695">
        <ele>873</ele>
        <time>2019-06-19T08:10:02Z</time>
      </trkpt>
      <trkpt lat="44.22387" lon="5.68696">
        <ele>874</ele>
        <time>2019-06-19T08:10:03Z</time>
      </trkpt>
      <trkpt lat="44.22385" lon="5.68696">
        <ele>874</ele>
        <time>2019-06-19T08:10:04Z</time>
      </trkpt>
      <trkpt lat="44.22383" lon="5.68696">
        <ele>874</ele>
        <time>2019-06-19T08:10:05Z</time>
      </trkpt>
      <trkpt lat="44.22381" lon="5.68697">
        <ele>874</ele>
        <time>2019-06-19T08:10:06Z</time>
      </trkpt>
      <trkpt lat="44.22379" lon="5.68699">
        <ele>874</ele>
        <time>2019-06-19T08:10:07Z</time>
      </trkpt>
      <trkpt lat="44.22377" lon="5.687">
        <ele>874</ele>
        <time>2019-06-19T08:10:08Z</time>
      </trkpt>
      <trkpt lat="44.22375" lon="5.68701">
        <ele>875</ele>
        <time>2019-06-19T08:10:09Z</time>
      </trkpt>
      <trkpt lat="44.22372" lon="5.68703">
        <ele>875</ele>
        <time>2019-06-19T08:10:10Z</time>
      </trkpt>
      <trkpt lat="44.22371" lon="5.68703">
        <ele>875</ele>
        <time>2019-06-19T08:10:11Z</time>
      </trkpt>
      <trkpt lat="44.22369" lon="5.68704">
        <ele>875</ele>
        <time>2019-06-19T08:10:12Z</time>
      </trkpt>
      <trkpt lat="44.22367" lon="5.68705">
        <ele>875</ele>
        <time>2019-06-19T08:10:13Z</time>
      </trkpt>
      <trkpt lat="44.22365" lon="5.68706">
        <ele>875</ele>
        <time>2019-06-19T08:10:14Z</time>
      </trkpt>
      <trkpt lat="44.22363" lon="5.68707">
        <ele>875</ele>
        <time>2019-06-19T08:10:15Z</time>
      </trkpt>
      <trkpt lat="44.22361" lon="5.68709">
        <ele>875</ele>
        <time>2019-06-19T08:10:16Z</time>
      </trkpt>
      <trkpt lat="44.22359" lon="5.68709">
        <ele>875</ele>
        <time>2019-06-19T08:10:17Z</time>
      </trkpt>
      <trkpt lat="44.22357" lon="5.6871">
        <ele>875</ele>
        <time>2019-06-19T08:10:18Z</time>
      </trkpt>
      <trkpt lat="44.22355" lon="5.6871">
        <ele>876</ele>
        <time>2019-06-19T08:10:19Z</time>
      </trkpt>
      <trkpt lat="44.22353" lon="5.68711">
        <ele>876</ele>
        <time>2019-06-19T08:10:20Z</time>
      </trkpt>
      <trkpt lat="44.22351" lon="5.68712">
        <ele>877</ele>
        <time>2019-06-19T08:10:21Z</time>
      </trkpt>
      <trkpt lat="44.22349" lon="5.68712">
        <ele>877</ele>
        <time>2019-06-19T08:10:22Z</time>
      </trkpt>
      <trkpt lat="44.22348" lon="5.68713">
        <ele>878</ele>
        <time>2019-06-19T08:10:23Z</time>
      </trkpt>
      <trkpt lat="44.22346" lon="5.68715">
        <ele>878</ele>
        <time>2019-06-19T08:10:24Z</time>
      </trkpt>
      <trkpt lat="44.22344" lon="5.68716">
        <ele>879</ele>
        <time>2019-06-19T08:10:25Z</time>
      </trkpt>
      <trkpt lat="44.22342" lon="5.68718">
        <ele>879</ele>
        <time>2019-06-19T08:10:26Z</time>
      </trkpt>
      <trkpt lat="44.2234" lon="5.68719">
        <ele>880</ele>
        <time>2019-06-19T08:10:27Z</time>
      </trkpt>
      <trkpt lat="44.22338" lon="5.68721">
        <ele>880</ele>
        <time>2019-06-19T08:10:28Z</time>
      </trkpt>
      <trkpt lat="44.22336" lon="5.68722">
        <ele>880</ele>
        <time>2019-06-19T08:10:29Z</time>
      </trkpt>
      <trkpt lat="44.22334" lon="5.68723">
        <ele>880</ele>
        <time>2019-06-19T08:10:30Z</time>
      </trkpt>
      <trkpt lat="44.22332" lon="5.68725">
        <ele>881</ele>
        <time>2019-06-19T08:10:31Z</time>
      </trkpt>
      <trkpt lat="44.2233" lon="5.68726">
        <ele>881</ele>
        <time>2019-06-19T08:10:32Z</time>
      </trkpt>
      <trkpt lat="44.22328" lon="5.68727">
        <ele>881</ele>
        <time>2019-06-19T08:10:33Z</time>
      </trkpt>
      <trkpt lat="44.22326" lon="5.68728">
        <ele>881</ele>
        <time>2019-06-19T08:10:34Z</time>
      </trkpt>
      <trkpt lat="44.22324" lon="5.68729">
        <ele>881</ele>
        <time>2019-06-19T08:10:35Z</time>
      </trkpt>
      <trkpt lat="44.22322" lon="5.68729">
        <ele>882</ele>
        <time>2019-06-19T08:10:36Z</time>
      </trkpt>
      <trkpt lat="44.2232" lon="5.6873">
        <ele>882</ele>
        <time>2019-06-19T08:10:37Z</time>
      </trkpt>
      <trkpt lat="44.22318" lon="5.68731">
        <ele>882</ele>
        <time>2019-06-19T08:10:38Z</time>
      </trkpt>
      <trkpt lat="44.22316" lon="5.68731">
        <ele>883</ele>
        <time>2019-06-19T08:10:39Z</time>
      </trkpt>
      <trkpt lat="44.22314" lon="5.68732">
        <ele>883</ele>
        <time>2019-06-19T08:10:40Z</time>
      </trkpt>
      <trkpt lat="44.22313" lon="5.68733">
        <ele>884</ele>
        <time>2019-06-19T08:10:41Z</time>
      </trkpt>
      <trkpt lat="44.22311" lon="5.68733">
        <ele>884</ele>
        <time>2019-06-19T08:10:42Z</time>
      </trkpt>
      <trkpt lat="44.22308" lon="5.68733">
        <ele>884</ele>
        <time>2019-06-19T08:10:43Z</time>
      </trkpt>
      <trkpt lat="44.22307" lon="5.68733">
        <ele>884</ele>
        <time>2019-06-19T08:10:44Z</time>
      </trkpt>
      <trkpt lat="44.22305" lon="5.68733">
        <ele>885</ele>
        <time>2019-06-19T08:10:45Z</time>
      </trkpt>
      <trkpt lat="44.22303" lon="5.68733">
        <ele>885</ele>
        <time>2019-06-19T08:10:46Z</time>
      </trkpt>
      <trkpt lat="44.22301" lon="5.68734">
        <ele>885</ele>
        <time>2019-06-19T08:10:47Z</time>
      </trkpt>
      <trkpt lat="44.223" lon="5.68735">
        <ele>885</ele>
        <time>2019-06-19T08:10:48Z</time>
      </trkpt>
      <trkpt lat="44.22298" lon="5.68736">
        <ele>885</ele>
        <time>2019-06-19T08:10:49Z</time>
      </trkpt>
      <trkpt lat="44.22297" lon="5.68737">
        <ele>885</ele>
        <time>2019-06-19T08:10:50Z</time>
      </trkpt>
      <trkpt lat="44.22296" lon="5.68739">
        <ele>885</ele>
        <time>2019-06-19T08:10:52Z</time>
      </trkpt>
      <trkpt lat="44.22295" lon="5.6874">
        <ele>886</ele>
        <time>2019-06-19T08:10:59Z</time>
      </trkpt>
      <trkpt lat="44.22294" lon="5.68742">
        <ele>886</ele>
        <time>2019-06-19T08:11:02Z</time>
      </trkpt>
      <trkpt lat="44.22295" lon="5.68741">
        <ele>886</ele>
        <time>2019-06-19T08:11:07Z</time>
      </trkpt>
      <trkpt lat="44.22296" lon="5.68741">
        <ele>888</ele>
        <time>2019-06-19T08:11:10Z</time>
      </trkpt>
      <trkpt lat="44.22297" lon="5.68743">
        <ele>889</ele>
        <time>2019-06-19T08:11:16Z</time>
      </trkpt>
      <trkpt lat="44.22295" lon="5.68744">
        <ele>890</ele>
        <time>2019-06-19T08:11:19Z</time>
      </trkpt>
      <trkpt lat="44.22294" lon="5.68744">
        <ele>890</ele>
        <time>2019-06-19T08:11:23Z</time>
      </trkpt>
      <trkpt lat="44.22293" lon="5.68747">
        <ele>890</ele>
        <time>2019-06-19T08:11:25Z</time>
      </trkpt>
      <trkpt lat="44.22293" lon="5.68749">
        <ele>890</ele>
        <time>2019-06-19T08:11:27Z</time>
      </trkpt>
      <trkpt lat="44.22293" lon="5.6875">
        <ele>890</ele>
        <time>2019-06-19T08:11:28Z</time>
      </trkpt>
      <trkpt lat="44.22293" lon="5.68752">
        <ele>890</ele>
        <time>2019-06-19T08:11:29Z</time>
      </trkpt>
      <trkpt lat="44.22292" lon="5.68753">
        <ele>890</ele>
        <time>2019-06-19T08:11:30Z</time>
      </trkpt>
      <trkpt lat="44.22291" lon="5.68756">
        <ele>890</ele>
        <time>2019-06-19T08:11:32Z</time>
      </trkpt>
      <trkpt lat="44.22291" lon="5.68757">
        <ele>890</ele>
        <time>2019-06-19T08:11:33Z</time>
      </trkpt>
      <trkpt lat="44.22291" lon="5.68759">
        <ele>890</ele>
        <time>2019-06-19T08:11:34Z</time>
      </trkpt>
      <trkpt lat="44.2229" lon="5.6876">
        <ele>890</ele>
        <time>2019-06-19T08:11:35Z</time>
      </trkpt>
      <trkpt lat="44.2229" lon="5.68762">
        <ele>890</ele>
        <time>2019-06-19T08:11:36Z</time>
      </trkpt>
      <trkpt lat="44.22289" lon="5.68764">
        <ele>890</ele>
        <time>2019-06-19T08:11:37Z</time>
      </trkpt>
      <trkpt lat="44.22288" lon="5.68765">
        <ele>890</ele>
        <time>2019-06-19T08:11:38Z</time>
      </trkpt>
      <trkpt lat="44.22288" lon="5.68767">
        <ele>890</ele>
        <time>2019-06-19T08:11:39Z</time>
      </trkpt>
      <trkpt lat="44.22287" lon="5.68768">
        <ele>890</ele>
        <time>2019-06-19T08:11:40Z</time>
      </trkpt>
      <trkpt lat="44.22287" lon="5.6877">
        <ele>890</ele>
        <time>2019-06-19T08:11:41Z</time>
      </trkpt>
      <trkpt lat="44.22286" lon="5.68773">
        <ele>890</ele>
        <time>2019-06-19T08:11:43Z</time>
      </trkpt>
      <trkpt lat="44.22285" lon="5.68775">
        <ele>890</ele>
        <time>2019-06-19T08:11:45Z</time>
      </trkpt>
      <trkpt lat="44.22284" lon="5.68777">
        <ele>890</ele>
        <time>2019-06-19T08:11:47Z</time>
      </trkpt>
      <trkpt lat="44.22284" lon="5.68778">
        <ele>890</ele>
        <time>2019-06-19T08:11:50Z</time>
      </trkpt>
      <trkpt lat="44.22283" lon="5.6878">
        <ele>890</ele>
        <time>2019-06-19T08:11:51Z</time>
      </trkpt>
      <trkpt lat="44.22283" lon="5.68782">
        <ele>890</ele>
        <time>2019-06-19T08:11:52Z</time>
      </trkpt>
      <trkpt lat="44.22283" lon="5.68783">
        <ele>890</ele>
        <time>2019-06-19T08:11:53Z</time>
      </trkpt>
      <trkpt lat="44.22283" lon="5.68785">
        <ele>890</ele>
        <time>2019-06-19T08:11:55Z</time>
      </trkpt>
      <trkpt lat="44.22282" lon="5.68788">
        <ele>890</ele>
        <time>2019-06-19T08:11:57Z</time>
      </trkpt>
      <trkpt lat="44.22281" lon="5.6879">
        <ele>890</ele>
        <time>2019-06-19T08:11:59Z</time>
      </trkpt>
      <trkpt lat="44.2228" lon="5.68792">
        <ele>889</ele>
        <time>2019-06-19T08:12:02Z</time>
      </trkpt>
      <trkpt lat="44.22279" lon="5.68792">
        <ele>889</ele>
        <time>2019-06-19T08:12:04Z</time>
      </trkpt>
      <trkpt lat="44.22277" lon="5.68793">
        <ele>889</ele>
        <time>2019-06-19T08:12:06Z</time>
      </trkpt>
      <trkpt lat="44.22276" lon="5.68794">
        <ele>889</ele>
        <time>2019-06-19T08:12:08Z</time>
      </trkpt>
      <trkpt lat="44.22274" lon="5.68792">
        <ele>889</ele>
        <time>2019-06-19T08:12:11Z</time>
      </trkpt>
      <trkpt lat="44.22274" lon="5.6879">
        <ele>889</ele>
        <time>2019-06-19T08:12:12Z</time>
      </trkpt>
      <trkpt lat="44.22272" lon="5.68789">
        <ele>889</ele>
        <time>2019-06-19T08:12:13Z</time>
      </trkpt>
      <trkpt lat="44.22274" lon="5.68791">
        <ele>890</ele>
        <time>2019-06-19T08:12:19Z</time>
      </trkpt>
      <trkpt lat="44.22275" lon="5.68792">
        <ele>891</ele>
        <time>2019-06-19T08:12:23Z</time>
      </trkpt>
      <trkpt lat="44.22276" lon="5.68794">
        <ele>891</ele>
        <time>2019-06-19T08:12:26Z</time>
      </trkpt>
      <trkpt lat="44.22276" lon="5.68796">
        <ele>891</ele>
        <time>2019-06-19T08:12:28Z</time>
      </trkpt>
      <trkpt lat="44.22276" lon="5.68799">
        <ele>891</ele>
        <time>2019-06-19T08:12:30Z</time>
      </trkpt>
      <trkpt lat="44.22276" lon="5.68801">
        <ele>891</ele>
        <time>2019-06-19T08:12:32Z</time>
      </trkpt>
      <trkpt lat="44.22274" lon="5.68803">
        <ele>889</ele>
        <time>2019-06-19T08:12:39Z</time>
      </trkpt>
      <trkpt lat="44.22012" lon="5.69011">
        <ele>856</ele>
        <time>2019-06-19T08:13:15Z</time>
      </trkpt>
      <trkpt lat="44.22013" lon="5.69013">
        <ele>856</ele>
        <time>2019-06-19T08:13:20Z</time>
      </trkpt>
      <trkpt lat="44.22012" lon="5.69015">
        <ele>856</ele>
        <time>2019-06-19T08:13:21Z</time>
      </trkpt>
      <trkpt lat="44.22011" lon="5.69017">
        <ele>856</ele>
        <time>2019-06-19T08:13:22Z</time>
      </trkpt>
      <trkpt lat="44.22009" lon="5.69019">
        <ele>856</ele>
        <time>2019-06-19T08:13:23Z</time>
      </trkpt>
      <trkpt lat="44.22008" lon="5.69022">
        <ele>856</ele>
        <time>2019-06-19T08:13:24Z</time>
      </trkpt>
      <trkpt lat="44.22006" lon="5.69026">
        <ele>856</ele>
        <time>2019-06-19T08:13:25Z</time>
      </trkpt>
      <trkpt lat="44.22005" lon="5.6903">
        <ele>856</ele>
        <time>2019-06-19T08:13:26Z</time>
      </trkpt>
      <trkpt lat="44.22003" lon="5.69034">
        <ele>856</ele>
        <time>2019-06-19T08:13:27Z</time>
      </trkpt>
      <trkpt lat="44.22001" lon="5.69038">
        <ele>856</ele>
        <time>2019-06-19T08:13:28Z</time>
      </trkpt>
      <trkpt lat="44.21999" lon="5.69042">
        <ele>856</ele>
        <time>2019-06-19T08:13:29Z</time>
      </trkpt>
      <trkpt lat="44.21997" lon="5.69046">
        <ele>856</ele>
        <time>2019-06-19T08:13:30Z</time>
      </trkpt>
      <trkpt lat="44.21995" lon="5.69052">
        <ele>856</ele>
        <time>2019-06-19T08:13:31Z</time>
      </trkpt>
      <trkpt lat="44.21993" lon="5.69057">
        <ele>855</ele>
        <time>2019-06-19T08:13:32Z</time>
      </trkpt>
      <trkpt lat="44.21992" lon="5.69063">
        <ele>854</ele>
        <time>2019-06-19T08:13:33Z</time>
      </trkpt>
      <trkpt lat="44.21991" lon="5.69069">
        <ele>853</ele>
        <time>2019-06-19T08:13:34Z</time>
      </trkpt>
      <trkpt lat="44.21991" lon="5.69075">
        <ele>852</ele>
        <time>2019-06-19T08:13:35Z</time>
      </trkpt>
      <trkpt lat="44.2199" lon="5.69081">
        <ele>851</ele>
        <time>2019-06-19T08:13:36Z</time>
      </trkpt>
      <trkpt lat="44.21989" lon="5.69088">
        <ele>850</ele>
        <time>2019-06-19T08:13:37Z</time>
      </trkpt>
      <trkpt lat="44.21988" lon="5.69095">
        <ele>849</ele>
        <time>2019-06-19T08:13:38Z</time>
      </trkpt>
      <trkpt lat="44.21987" lon="5.69102">
        <ele>848</ele>
        <time>2019-06-19T08:13:39Z</time>
      </trkpt>
      <trkpt lat="44.21986" lon="5.6911">
        <ele>848</ele>
        <time>2019-06-19T08:13:40Z</time>
      </trkpt>
      <trkpt lat="44.21985" lon="5.69117">
        <ele>848</ele>
        <time>2019-06-19T08:13:41Z</time>
      </trkpt>
      <trkpt lat="44.21983" lon="5.69126">
        <ele>847</ele>
        <time>2019-06-19T08:13:42Z</time>
      </trkpt>
      <trkpt lat="44.21982" lon="5.69135">
        <ele>847</ele>
        <time>2019-06-19T08:13:43Z</time>
      </trkpt>
      <trkpt lat="44.21981" lon="5.69143">
        <ele>846</ele>
        <time>2019-06-19T08:13:44Z</time>
      </trkpt>
      <trkpt lat="44.21981" lon="5.69152">
        <ele>845</ele>
        <time>2019-06-19T08:13:45Z</time>
      </trkpt>
      <trkpt lat="44.2198" lon="5.69161">
        <ele>845</ele>
        <time>2019-06-19T08:13:46Z</time>
      </trkpt>
      <trkpt lat="44.21978" lon="5.69169">
        <ele>844</ele>
        <time>2019-06-19T08:13:47Z</time>
      </trkpt>
      <trkpt lat="44.21977" lon="5.69178">
        <ele>843</ele>
        <time>2019-06-19T08:13:48Z</time>
      </trkpt>
      <trkpt lat="44.21976" lon="5.69187">
        <ele>842</ele>
        <time>2019-06-19T08:13:49Z</time>
      </trkpt>
      <trkpt lat="44.21975" lon="5.69196">
        <ele>841</ele>
        <time>2019-06-19T08:13:50Z</time>
      </trkpt>
      <trkpt lat="44.21973" lon="5.69205">
        <ele>840</ele>
        <time>2019-06-19T08:13:51Z</time>
      </trkpt>
      <trkpt lat="44.21971" lon="5.69214">
        <ele>839</ele>
        <time>2019-06-19T08:13:52Z</time>
      </trkpt>
      <trkpt lat="44.2197" lon="5.69222">
        <ele>838</ele>
        <time>2019-06-19T08:13:53Z</time>
      </trkpt>
      <trkpt lat="44.21969" lon="5.69229">
        <ele>837</ele>
        <time>2019-06-19T08:13:54Z</time>
      </trkpt>
      <trkpt lat="44.21968" lon="5.69237">
        <ele>836</ele>
        <time>2019-06-19T08:13:55Z</time>
      </trkpt>
      <trkpt lat="44.21967" lon="5.69244">
        <ele>835</ele>
        <time>2019-06-19T08:13:56Z</time>
      </trkpt>
      <trkpt lat="44.21967" lon="5.69251">
        <ele>834</ele>
        <time>2019-06-19T08:13:57Z</time>
      </trkpt>
      <trkpt lat="44.21967" lon="5.69256">
        <ele>834</ele>
        <time>2019-06-19T08:13:58Z</time>
      </trkpt>
      <trkpt lat="44.21967" lon="5.69262">
        <ele>833</ele>
        <time>2019-06-19T08:13:59Z</time>
      </trkpt>
      <trkpt lat="44.21968" lon="5.69267">
        <ele>832</ele>
        <time>2019-06-19T08:14:00Z</time>
      </trkpt>
      <trkpt lat="44.21968" lon="5.69271">
        <ele>831</ele>
        <time>2019-06-19T08:14:01Z</time>
      </trkpt>
      <trkpt lat="44.21969" lon="5.69276">
        <ele>830</ele>
        <time>2019-06-19T08:14:02Z</time>
      </trkpt>
      <trkpt lat="44.2197" lon="5.69279">
        <ele>829</ele>
        <time>2019-06-19T08:14:03Z</time>
      </trkpt>
      <trkpt lat="44.2197" lon="5.69283">
        <ele>829</ele>
        <time>2019-06-19T08:14:04Z</time>
      </trkpt>
      <trkpt lat="44.2197" lon="5.69285">
        <ele>828</ele>
        <time>2019-06-19T08:14:05Z</time>
      </trkpt>
      <trkpt lat="44.21968" lon="5.69286">
        <ele>828</ele>
        <time>2019-06-19T08:14:06Z</time>
      </trkpt>
      <trkpt lat="44.21965" lon="5.69286">
        <ele>828</ele>
        <time>2019-06-19T08:14:07Z</time>
      </trkpt>
      <trkpt lat="44.21962" lon="5.69284">
        <ele>828</ele>
        <time>2019-06-19T08:14:08Z</time>
      </trkpt>
      <trkpt lat="44.2196" lon="5.69281">
        <ele>828</ele>
        <time>2019-06-19T08:14:09Z</time>
      </trkpt>
      <trkpt lat="44.21958" lon="5.69278">
        <ele>828</ele>
        <time>2019-06-19T08:14:10Z</time>
      </trkpt>
      <trkpt lat="44.21957" lon="5.69274">
        <ele>828</ele>
        <time>2019-06-19T08:14:11Z</time>
      </trkpt>
      <trkpt lat="44.21954" lon="5.69269">
        <ele>828</ele>
        <time>2019-06-19T08:14:12Z</time>
      </trkpt>
      <trkpt lat="44.21952" lon="5.69263">
        <ele>828</ele>
        <time>2019-06-19T08:14:13Z</time>
      </trkpt>
      <trkpt lat="44.21951" lon="5.69257">
        <ele>828</ele>
        <time>2019-06-19T08:14:14Z</time>
      </trkpt>
      <trkpt lat="44.21949" lon="5.6925">
        <ele>828</ele>
        <time>2019-06-19T08:14:15Z</time>
      </trkpt>
      <trkpt lat="44.21947" lon="5.69243">
        <ele>828</ele>
        <time>2019-06-19T08:14:16Z</time>
      </trkpt>
      <trkpt lat="44.21946" lon="5.69235">
        <ele>828</ele>
        <time>2019-06-19T08:14:17Z</time>
      </trkpt>
      <trkpt lat="44.21944" lon="5.69224">
        <ele>828</ele>
        <time>2019-06-19T08:14:18Z</time>
      </trkpt>
      <trkpt lat="44.21944" lon="5.69214">
        <ele>828</ele>
        <time>2019-06-19T08:14:19Z</time>
      </trkpt>
      <trkpt lat="44.21944" lon="5.69204">
        <ele>828</ele>
        <time>2019-06-19T08:14:20Z</time>
      </trkpt>
      <trkpt lat="44.21945" lon="5.69192">
        <ele>828</ele>
        <time>2019-06-19T08:14:21Z</time>
      </trkpt>
      <trkpt lat="44.21946" lon="5.69181">
        <ele>828</ele>
        <time>2019-06-19T08:14:22Z</time>
      </trkpt>
      <trkpt lat="44.21947" lon="5.69171">
        <ele>828</ele>
        <time>2019-06-19T08:14:23Z</time>
      </trkpt>
      <trkpt lat="44.21948" lon="5.6916">
        <ele>828</ele>
        <time>2019-06-19T08:14:24Z</time>
      </trkpt>
      <trkpt lat="44.21949" lon="5.69149">
        <ele>827</ele>
        <time>2019-06-19T08:14:25Z</time>
      </trkpt>
      <trkpt lat="44.2195" lon="5.69138">
        <ele>827</ele>
        <time>2019-06-19T08:14:26Z</time>
      </trkpt>
      <trkpt lat="44.21952" lon="5.69127">
        <ele>827</ele>
        <time>2019-06-19T08:14:27Z</time>
      </trkpt>
      <trkpt lat="44.21953" lon="5.69116">
        <ele>826</ele>
        <time>2019-06-19T08:14:28Z</time>
      </trkpt>
      <trkpt lat="44.21954" lon="5.69104">
        <ele>826</ele>
        <time>2019-06-19T08:14:29Z</time>
      </trkpt>
      <trkpt lat="44.21955" lon="5.69093">
        <ele>826</ele>
        <time>2019-06-19T08:14:30Z</time>
      </trkpt>
      <trkpt lat="44.21956" lon="5.69082">
        <ele>825</ele>
        <time>2019-06-19T08:14:31Z</time>
      </trkpt>
      <trkpt lat="44.21958" lon="5.69071">
        <ele>825</ele>
        <time>2019-06-19T08:14:32Z</time>
      </trkpt>
      <trkpt lat="44.21959" lon="5.6906">
        <ele>825</ele>
        <time>2019-06-19T08:14:33Z</time>
      </trkpt>
      <trkpt lat="44.2196" lon="5.69049">
        <ele>824</ele>
        <time>2019-06-19T08:14:34Z</time>
      </trkpt>
      <trkpt lat="44.2196" lon="5.69037">
        <ele>824</ele>
        <time>2019-06-19T08:14:35Z</time>
      </trkpt>
      <trkpt lat="44.21962" lon="5.69026">
        <ele>823</ele>
        <time>2019-06-19T08:14:36Z</time>
      </trkpt>
      <trkpt lat="44.21963" lon="5.69014">
        <ele>823</ele>
        <time>2019-06-19T08:14:37Z</time>
      </trkpt>
      <trkpt lat="44.21964" lon="5.69002">
        <ele>822</ele>
        <time>2019-06-19T08:14:38Z</time>
      </trkpt>
      <trkpt lat="44.21965" lon="5.68989">
        <ele>822</ele>
        <time>2019-06-19T08:14:39Z</time>
      </trkpt>
      <trkpt lat="44.21967" lon="5.68976">
        <ele>821</ele>
        <time>2019-06-19T08:14:40Z</time>
      </trkpt>
      <trkpt lat="44.2197" lon="5.68964">
        <ele>820</ele>
        <time>2019-06-19T08:14:41Z</time>
      </trkpt>
      <trkpt lat="44.21973" lon="5.68952">
        <ele>819</ele>
        <time>2019-06-19T08:14:42Z</time>
      </trkpt>
      <trkpt lat="44.21976" lon="5.68939">
        <ele>819</ele>
        <time>2019-06-19T08:14:43Z</time>
      </trkpt>
      <trkpt lat="44.2198" lon="5.68928">
        <ele>818</ele>
        <time>2019-06-19T08:14:44Z</time>
      </trkpt>
      <trkpt lat="44.21983" lon="5.68916">
        <ele>818</ele>
        <time>2019-06-19T08:14:45Z</time>
      </trkpt>
      <trkpt lat="44.21987" lon="5.68905">
        <ele>818</ele>
        <time>2019-06-19T08:14:46Z</time>
      </trkpt>
      <trkpt lat="44.21991" lon="5.68894">
        <ele>817</ele>
        <time>2019-06-19T08:14:47Z</time>
      </trkpt>
      <trkpt lat="44.21996" lon="5.68884">
        <ele>817</ele>
        <time>2019-06-19T08:14:48Z</time>
      </trkpt>
      <trkpt lat="44.22001" lon="5.68874">
        <ele>817</ele>
        <time>2019-06-19T08:14:49Z</time>
      </trkpt>
      <trkpt lat="44.22007" lon="5.68865">
        <ele>817</ele>
        <time>2019-06-19T08:14:50Z</time>
      </trkpt>
      <trkpt lat="44.22013" lon="5.68856">
        <ele>816</ele>
        <time>2019-06-19T08:14:51Z</time>
      </trkpt>
      <trkpt lat="44.22018" lon="5.68847">
        <ele>816</ele>
        <time>2019-06-19T08:14:52Z</time>
      </trkpt>
      <trkpt lat="44.22024" lon="5.68837">
        <ele>816</ele>
        <time>2019-06-19T08:14:53Z</time>
      </trkpt>
      <trkpt lat="44.22029" lon="5.68827">
        <ele>815</ele>
        <time>2019-06-19T08:14:54Z</time>
      </trkpt>
      <trkpt lat="44.22035" lon="5.68817">
        <ele>814</ele>
        <time>2019-06-19T08:14:55Z</time>
      </trkpt>
      <trkpt lat="44.2204" lon="5.68807">
        <ele>814</ele>
        <time>2019-06-19T08:14:56Z</time>
      </trkpt>
      <trkpt lat="44.22046" lon="5.68797">
        <ele>814</ele>
        <time>2019-06-19T08:14:57Z</time>
      </trkpt>
      <trkpt lat="44.22052" lon="5.68787">
        <ele>813</ele>
        <time>2019-06-19T08:14:58Z</time>
      </trkpt>
      <trkpt lat="44.22057" lon="5.68777">
        <ele>813</ele>
        <time>2019-06-19T08:14:59Z</time>
      </trkpt>
      <trkpt lat="44.22062" lon="5.68767">
        <ele>812</ele>
        <time>2019-06-19T08:15:00Z</time>
      </trkpt>
      <trkpt lat="44.22066" lon="5.68756">
        <ele>811</ele>
        <time>2019-06-19T08:15:01Z</time>
      </trkpt>
      <trkpt lat="44.2207" lon="5.68744">
        <ele>811</ele>
        <time>2019-06-19T08:15:02Z</time>
      </trkpt>
      <trkpt lat="44.22073" lon="5.68732">
        <ele>810</ele>
        <time>2019-06-19T08:15:03Z</time>
      </trkpt>
      <trkpt lat="44.22074" lon="5.68718">
        <ele>809</ele>
        <time>2019-06-19T08:15:04Z</time>
      </trkpt>
      <trkpt lat="44.22073" lon="5.68705">
        <ele>809</ele>
        <time>2019-06-19T08:15:05Z</time>
      </trkpt>
      <trkpt lat="44.22073" lon="5.68691">
        <ele>808</ele>
        <time>2019-06-19T08:15:06Z</time>
      </trkpt>
      <trkpt lat="44.22074" lon="5.68678">
        <ele>808</ele>
        <time>2019-06-19T08:15:07Z</time>
      </trkpt>
      <trkpt lat="44.22075" lon="5.68666">
        <ele>807</ele>
        <time>2019-06-19T08:15:08Z</time>
      </trkpt>
      <trkpt lat="44.22077" lon="5.68653">
        <ele>807</ele>
        <time>2019-06-19T08:15:09Z</time>
      </trkpt>
      <trkpt lat="44.22078" lon="5.6864">
        <ele>807</ele>
        <time>2019-06-19T08:15:10Z</time>
      </trkpt>
      <trkpt lat="44.2208" lon="5.68627">
        <ele>807</ele>
        <time>2019-06-19T08:15:11Z</time>
      </trkpt>
      <trkpt lat="44.22082" lon="5.68615">
        <ele>807</ele>
        <time>2019-06-19T08:15:12Z</time>
      </trkpt>
      <trkpt lat="44.22085" lon="5.68603">
        <ele>807</ele>
        <time>2019-06-19T08:15:13Z</time>
      </trkpt>
      <trkpt lat="44.22087" lon="5.68592">
        <ele>807</ele>
        <time>2019-06-19T08:15:14Z</time>
      </trkpt>
      <trkpt lat="44.22091" lon="5.68581">
        <ele>807</ele>
        <time>2019-06-19T08:15:15Z</time>
      </trkpt>
      <trkpt lat="44.22095" lon="5.6857">
        <ele>806</ele>
        <time>2019-06-19T08:15:16Z</time>
      </trkpt>
      <trkpt lat="44.22098" lon="5.6856">
        <ele>806</ele>
        <time>2019-06-19T08:15:17Z</time>
      </trkpt>
      <trkpt lat="44.22101" lon="5.68549">
        <ele>806</ele>
        <time>2019-06-19T08:15:18Z</time>
      </trkpt>
      <trkpt lat="44.22103" lon="5.68538">
        <ele>805</ele>
        <time>2019-06-19T08:15:19Z</time>
      </trkpt>
      <trkpt lat="44.22105" lon="5.68528">
        <ele>805</ele>
        <time>2019-06-19T08:15:20Z</time>
      </trkpt>
      <trkpt lat="44.22106" lon="5.68518">
        <ele>805</ele>
        <time>2019-06-19T08:15:21Z</time>
      </trkpt>
      <trkpt lat="44.22106" lon="5.68509">
        <ele>805</ele>
        <time>2019-06-19T08:15:22Z</time>
      </trkpt>
      <trkpt lat="44.22104" lon="5.685">
        <ele>805</ele>
        <time>2019-06-19T08:15:23Z</time>
      </trkpt>
      <trkpt lat="44.221" lon="5.68491">
        <ele>805</ele>
        <time>2019-06-19T08:15:24Z</time>
      </trkpt>
      <trkpt lat="44.22095" lon="5.68483">
        <ele>805</ele>
        <time>2019-06-19T08:15:25Z</time>
      </trkpt>
      <trkpt lat="44.2209" lon="5.68471">
        <ele>805</ele>
        <time>2019-06-19T08:15:26Z</time>
      </trkpt>
      <trkpt lat="44.22087" lon="5.68459">
        <ele>805</ele>
        <time>2019-06-19T08:15:27Z</time>
      </trkpt>
      <trkpt lat="44.22086" lon="5.68445">
        <ele>805</ele>
        <time>2019-06-19T08:15:28Z</time>
      </trkpt>
      <trkpt lat="44.22087" lon="5.68432">
        <ele>805</ele>
        <time>2019-06-19T08:15:29Z</time>
      </trkpt>
      <trkpt lat="44.22089" lon="5.68419">
        <ele>805</ele>
        <time>2019-06-19T08:15:30Z</time>
      </trkpt>
      <trkpt lat="44.22091" lon="5.68407">
        <ele>805</ele>
        <time>2019-06-19T08:15:31Z</time>
      </trkpt>
      <trkpt lat="44.22093" lon="5.68394">
        <ele>805</ele>
        <time>2019-06-19T08:15:32Z</time>
      </trkpt>
      <trkpt lat="44.22095" lon="5.68382">
        <ele>805</ele>
        <time>2019-06-19T08:15:33Z</time>
      </trkpt>
      <trkpt lat="44.22097" lon="5.68369">
        <ele>805</ele>
        <time>2019-06-19T08:15:34Z</time>
      </trkpt>
      <trkpt lat="44.22098" lon="5.68357">
        <ele>805</ele>
        <time>2019-06-19T08:15:35Z</time>
      </trkpt>
      <trkpt lat="44.22097" lon="5.68345">
        <ele>805</ele>
        <time>2019-06-19T08:15:36Z</time>
      </trkpt>
      <trkpt lat="44.22097" lon="5.68332">
        <ele>805</ele>
        <time>2019-06-19T08:15:37Z</time>
      </trkpt>
      <trkpt lat="44.22096" lon="5.68321">
        <ele>805</ele>
        <time>2019-06-19T08:15:38Z</time>
      </trkpt>
      <trkpt lat="44.22095" lon="5.68309">
        <ele>804</ele>
        <time>2019-06-19T08:15:39Z</time>
      </trkpt>
      <trkpt lat="44.22094" lon="5.68298">
        <ele>804</ele>
        <time>2019-06-19T08:15:40Z</time>
      </trkpt>
      <trkpt lat="44.22092" lon="5.68286">
        <ele>803</ele>
        <time>2019-06-19T08:15:41Z</time>
      </trkpt>
      <trkpt lat="44.22091" lon="5.68275">
        <ele>803</ele>
        <time>2019-06-19T08:15:42Z</time>
      </trkpt>
      <trkpt lat="44.2209" lon="5.68263">
        <ele>802</ele>
        <time>2019-06-19T08:15:43Z</time>
      </trkpt>
      <trkpt lat="44.22089" lon="5.68252">
        <ele>802</ele>
        <time>2019-06-19T08:15:44Z</time>
      </trkpt>
      <trkpt lat="44.22088" lon="5.6824">
        <ele>802</ele>
        <time>2019-06-19T08:15:45Z</time>
      </trkpt>
      <trkpt lat="44.22086" lon="5.68228">
        <ele>801</ele>
        <time>2019-06-19T08:15:46Z</time>
      </trkpt>
      <trkpt lat="44.22085" lon="5.68216">
        <ele>801</ele>
        <time>2019-06-19T08:15:47Z</time>
      </trkpt>
      <trkpt lat="44.22084" lon="5.68204">
        <ele>801</ele>
        <time>2019-06-19T08:15:48Z</time>
      </trkpt>
      <trkpt lat="44.22083" lon="5.68192">
        <ele>800</ele>
        <time>2019-06-19T08:15:49Z</time>
      </trkpt>
      <trkpt lat="44.22082" lon="5.68181">
        <ele>800</ele>
        <time>2019-06-19T08:15:50Z</time>
      </trkpt>
      <trkpt lat="44.22081" lon="5.68169">
        <ele>800</ele>
        <time>2019-06-19T08:15:51Z</time>
      </trkpt>
      <trkpt lat="44.2208" lon="5.68157">
        <ele>800</ele>
        <time>2019-06-19T08:15:52Z</time>
      </trkpt>
      <trkpt lat="44.22079" lon="5.68146">
        <ele>799</ele>
        <time>2019-06-19T08:15:53Z</time>
      </trkpt>
      <trkpt lat="44.22079" lon="5.68134">
        <ele>799</ele>
        <time>2019-06-19T08:15:54Z</time>
      </trkpt>
      <trkpt lat="44.22079" lon="5.68122">
        <ele>799</ele>
        <time>2019-06-19T08:15:55Z</time>
      </trkpt>
      <trkpt lat="44.22079" lon="5.6811">
        <ele>799</ele>
        <time>2019-06-19T08:15:56Z</time>
      </trkpt>
      <trkpt lat="44.22079" lon="5.68098">
        <ele>798</ele>
        <time>2019-06-19T08:15:57Z</time>
      </trkpt>
      <trkpt lat="44.22079" lon="5.68087">
        <ele>798</ele>
        <time>2019-06-19T08:15:58Z</time>
      </trkpt>
      <trkpt lat="44.2208" lon="5.68075">
        <ele>798</ele>
        <time>2019-06-19T08:15:59Z</time>
      </trkpt>
      <trkpt lat="44.2208" lon="5.68064">
        <ele>797</ele>
        <time>2019-06-19T08:16:00Z</time>
      </trkpt>
      <trkpt lat="44.22081" lon="5.68053">
        <ele>797</ele>
        <time>2019-06-19T08:16:01Z</time>
      </trkpt>
      <trkpt lat="44.22083" lon="5.68042">
        <ele>797</ele>
        <time>2019-06-19T08:16:02Z</time>
      </trkpt>
      <trkpt lat="44.22086" lon="5.68031">
        <ele>797</ele>
        <time>2019-06-19T08:16:03Z</time>
      </trkpt>
      <trkpt lat="44.22088" lon="5.68019">
        <ele>797</ele>
        <time>2019-06-19T08:16:04Z</time>
      </trkpt>
      <trkpt lat="44.22091" lon="5.68009">
        <ele>797</ele>
        <time>2019-06-19T08:16:05Z</time>
      </trkpt>
      <trkpt lat="44.22095" lon="5.67999">
        <ele>796</ele>
        <time>2019-06-19T08:16:06Z</time>
      </trkpt>
      <trkpt lat="44.22099" lon="5.67989">
        <ele>796</ele>
        <time>2019-06-19T08:16:07Z</time>
      </trkpt>
      <trkpt lat="44.22102" lon="5.6798">
        <ele>796</ele>
        <time>2019-06-19T08:16:08Z</time>
      </trkpt>
      <trkpt lat="44.22106" lon="5.67971">
        <ele>795</ele>
        <time>2019-06-19T08:16:09Z</time>
      </trkpt>
      <trkpt lat="44.2211" lon="5.67961">
        <ele>795</ele>
        <time>2019-06-19T08:16:10Z</time>
      </trkpt>
      <trkpt lat="44.22115" lon="5.67952">
        <ele>794</ele>
        <time>2019-06-19T08:16:11Z</time>
      </trkpt>
      <trkpt lat="44.2212" lon="5.67944">
        <ele>794</ele>
        <time>2019-06-19T08:16:12Z</time>
      </trkpt>
      <trkpt lat="44.22124" lon="5.67935">
        <ele>793</ele>
        <time>2019-06-19T08:16:13Z</time>
      </trkpt>
      <trkpt lat="44.22128" lon="5.67926">
        <ele>793</ele>
        <time>2019-06-19T08:16:14Z</time>
      </trkpt>
      <trkpt lat="44.22132" lon="5.67917">
        <ele>793</ele>
        <time>2019-06-19T08:16:15Z</time>
      </trkpt>
      <trkpt lat="44.22136" lon="5.67908">
        <ele>792</ele>
        <time>2019-06-19T08:16:16Z</time>
      </trkpt>
      <trkpt lat="44.22139" lon="5.679">
        <ele>792</ele>
        <time>2019-06-19T08:16:17Z</time>
      </trkpt>
      <trkpt lat="44.22142" lon="5.67891">
        <ele>792</ele>
        <time>2019-06-19T08:16:18Z</time>
      </trkpt>
      <trkpt lat="44.22146" lon="5.67882">
        <ele>792</ele>
        <time>2019-06-19T08:16:19Z</time>
      </trkpt>
      <trkpt lat="44.22149" lon="5.67873">
        <ele>792</ele>
        <time>2019-06-19T08:16:20Z</time>
      </trkpt>
      <trkpt lat="44.22152" lon="5.67864">
        <ele>792</ele>
        <time>2019-06-19T08:16:21Z</time>
      </trkpt>
      <trkpt lat="44.22156" lon="5.67856">
        <ele>792</ele>
        <time>2019-06-19T08:16:22Z</time>
      </trkpt>
      <trkpt lat="44.22159" lon="5.67847">
        <ele>792</ele>
        <time>2019-06-19T08:16:23Z</time>
      </trkpt>
      <trkpt lat="44.22162" lon="5.67838">
        <ele>792</ele>
        <time>2019-06-19T08:16:24Z</time>
      </trkpt>
      <trkpt lat="44.22166" lon="5.67829">
        <ele>792</ele>
        <time>2019-06-19T08:16:25Z</time>
      </trkpt>
      <trkpt lat="44.22169" lon="5.67821">
        <ele>792</ele>
        <time>2019-06-19T08:16:26Z</time>
      </trkpt>
      <trkpt lat="44.22173" lon="5.67812">
        <ele>792</ele>
        <time>2019-06-19T08:16:27Z</time>
      </trkpt>
      <trkpt lat="44.22178" lon="5.67804">
        <ele>792</ele>
        <time>2019-06-19T08:16:28Z</time>
      </trkpt>
      <trkpt lat="44.22181" lon="5.67796">
        <ele>792</ele>
        <time>2019-06-19T08:16:29Z</time>
      </trkpt>
      <trkpt lat="44.22185" lon="5.67787">
        <ele>792</ele>
        <time>2019-06-19T08:16:30Z</time>
      </trkpt>
      <trkpt lat="44.22188" lon="5.67778">
        <ele>792</ele>
        <time>2019-06-19T08:16:31Z</time>
      </trkpt>
      <trkpt lat="44.2219" lon="5.67769">
        <ele>792</ele>
        <time>2019-06-19T08:16:32Z</time>
      </trkpt>
      <trkpt lat="44.22194" lon="5.67761">
        <ele>792</ele>
        <time>2019-06-19T08:16:33Z</time>
      </trkpt>
      <trkpt lat="44.22197" lon="5.67752">
        <ele>792</ele>
        <time>2019-06-19T08:16:34Z</time>
      </trkpt>
      <trkpt lat="44.222" lon="5.67742">
        <ele>792</ele>
        <time>2019-06-19T08:16:35Z</time>
      </trkpt>
      <trkpt lat="44.22203" lon="5.67733">
        <ele>792</ele>
        <time>2019-06-19T08:16:36Z</time>
      </trkpt>
      <trkpt lat="44.22206" lon="5.67724">
        <ele>792</ele>
        <time>2019-06-19T08:16:37Z</time>
      </trkpt>
      <trkpt lat="44.22209" lon="5.67714">
        <ele>792</ele>
        <time>2019-06-19T08:16:38Z</time>
      </trkpt>
      <trkpt lat="44.22213" lon="5.67705">
        <ele>792</ele>
        <time>2019-06-19T08:16:39Z</time>
      </trkpt>
      <trkpt lat="44.22218" lon="5.67697">
        <ele>792</ele>
        <time>2019-06-19T08:16:40Z</time>
      </trkpt>
      <trkpt lat="44.22222" lon="5.67688">
        <ele>792</ele>
        <time>2019-06-19T08:16:41Z</time>
      </trkpt>
      <trkpt lat="44.22227" lon="5.6768">
        <ele>792</ele>
        <time>2019-06-19T08:16:42Z</time>
      </trkpt>
      <trkpt lat="44.22232" lon="5.67672">
        <ele>792</ele>
        <time>2019-06-19T08:16:43Z</time>
      </trkpt>
      <trkpt lat="44.22236" lon="5.67663">
        <ele>792</ele>
        <time>2019-06-19T08:16:44Z</time>
      </trkpt>
      <trkpt lat="44.22241" lon="5.67655">
        <ele>792</ele>
        <time>2019-06-19T08:16:45Z</time>
      </trkpt>
      <trkpt lat="44.22245" lon="5.67647">
        <ele>792</ele>
        <time>2019-06-19T08:16:46Z</time>
      </trkpt>
      <trkpt lat="44.22249" lon="5.67639">
        <ele>792</ele>
        <time>2019-06-19T08:16:47Z</time>
      </trkpt>
      <trkpt lat="44.22253" lon="5.67631">
        <ele>792</ele>
        <time>2019-06-19T08:16:48Z</time>
      </trkpt>
      <trkpt lat="44.22256" lon="5.67622">
        <ele>792</ele>
        <time>2019-06-19T08:16:49Z</time>
      </trkpt>
      <trkpt lat="44.2226" lon="5.67613">
        <ele>792</ele>
        <time>2019-06-19T08:16:50Z</time>
      </trkpt>
      <trkpt lat="44.22263" lon="5.67604">
        <ele>792</ele>
        <time>2019-06-19T08:16:51Z</time>
      </trkpt>
      <trkpt lat="44.22266" lon="5.67595">
        <ele>792</ele>
        <time>2019-06-19T08:16:52Z</time>
      </trkpt>
      <trkpt lat="44.22269" lon="5.67585">
        <ele>792</ele>
        <time>2019-06-19T08:16:53Z</time>
      </trkpt>
      <trkpt lat="44.22272" lon="5.67576">
        <ele>792</ele>
        <time>2019-06-19T08:16:54Z</time>
      </trkpt>
      <trkpt lat="44.22276" lon="5.67566">
        <ele>792</ele>
        <time>2019-06-19T08:16:55Z</time>
      </trkpt>
      <trkpt lat="44.22278" lon="5.67557">
        <ele>792</ele>
        <time>2019-06-19T08:16:56Z</time>
      </trkpt>
      <trkpt lat="44.2228" lon="5.67547">
        <ele>792</ele>
        <time>2019-06-19T08:16:57Z</time>
      </trkpt>
      <trkpt lat="44.22282" lon="5.67537">
        <ele>792</ele>
        <time>2019-06-19T08:16:58Z</time>
      </trkpt>
      <trkpt lat="44.22284" lon="5.67526">
        <ele>792</ele>
        <time>2019-06-19T08:16:59Z</time>
      </trkpt>
      <trkpt lat="44.22285" lon="5.67515">
        <ele>792</ele>
        <time>2019-06-19T08:17:00Z</time>
      </trkpt>
      <trkpt lat="44.22287" lon="5.67504">
        <ele>792</ele>
        <time>2019-06-19T08:17:01Z</time>
      </trkpt>
      <trkpt lat="44.22289" lon="5.67493">
        <ele>792</ele>
        <time>2019-06-19T08:17:02Z</time>
      </trkpt>
      <trkpt lat="44.2229" lon="5.67482">
        <ele>792</ele>
        <time>2019-06-19T08:17:03Z</time>
      </trkpt>
      <trkpt lat="44.22292" lon="5.67472">
        <ele>792</ele>
        <time>2019-06-19T08:17:04Z</time>
      </trkpt>
      <trkpt lat="44.22295" lon="5.67461">
        <ele>792</ele>
        <time>2019-06-19T08:17:05Z</time>
      </trkpt>
      <trkpt lat="44.22297" lon="5.67451">
        <ele>791</ele>
        <time>2019-06-19T08:17:06Z</time>
      </trkpt>
      <trkpt lat="44.22301" lon="5.67442">
        <ele>790</ele>
        <time>2019-06-19T08:17:07Z</time>
      </trkpt>
      <trkpt lat="44.22305" lon="5.67432">
        <ele>790</ele>
        <time>2019-06-19T08:17:08Z</time>
      </trkpt>
      <trkpt lat="44.22309" lon="5.67423">
        <ele>790</ele>
        <time>2019-06-19T08:17:09Z</time>
      </trkpt>
      <trkpt lat="44.22313" lon="5.67415">
        <ele>790</ele>
        <time>2019-06-19T08:17:10Z</time>
      </trkpt>
      <trkpt lat="44.22317" lon="5.67405">
        <ele>790</ele>
        <time>2019-06-19T08:17:11Z</time>
      </trkpt>
      <trkpt lat="44.22321" lon="5.67396">
        <ele>789</ele>
        <time>2019-06-19T08:17:12Z</time>
      </trkpt>
      <trkpt lat="44.22324" lon="5.67387">
        <ele>789</ele>
        <time>2019-06-19T08:17:13Z</time>
      </trkpt>
      <trkpt lat="44.22327" lon="5.67377">
        <ele>788</ele>
        <time>2019-06-19T08:17:14Z</time>
      </trkpt>
      <trkpt lat="44.2233" lon="5.67367">
        <ele>787</ele>
        <time>2019-06-19T08:17:15Z</time>
      </trkpt>
      <trkpt lat="44.22332" lon="5.67356">
        <ele>787</ele>
        <time>2019-06-19T08:17:16Z</time>
      </trkpt>
      <trkpt lat="44.22333" lon="5.67346">
        <ele>786</ele>
        <time>2019-06-19T08:17:17Z</time>
      </trkpt>
      <trkpt lat="44.22336" lon="5.67337">
        <ele>786</ele>
        <time>2019-06-19T08:17:18Z</time>
      </trkpt>
      <trkpt lat="44.22339" lon="5.67327">
        <ele>786</ele>
        <time>2019-06-19T08:17:19Z</time>
      </trkpt>
      <trkpt lat="44.22342" lon="5.67318">
        <ele>785</ele>
        <time>2019-06-19T08:17:20Z</time>
      </trkpt>
      <trkpt lat="44.22345" lon="5.67308">
        <ele>785</ele>
        <time>2019-06-19T08:17:21Z</time>
      </trkpt>
      <trkpt lat="44.22348" lon="5.67299">
        <ele>785</ele>
        <time>2019-06-19T08:17:22Z</time>
      </trkpt>
      <trkpt lat="44.22351" lon="5.6729">
        <ele>784</ele>
        <time>2019-06-19T08:17:23Z</time>
      </trkpt>
      <trkpt lat="44.22354" lon="5.6728">
        <ele>784</ele>
        <time>2019-06-19T08:17:24Z</time>
      </trkpt>
      <trkpt lat="44.22357" lon="5.6727">
        <ele>784</ele>
        <time>2019-06-19T08:17:25Z</time>
      </trkpt>
      <trkpt lat="44.22359" lon="5.6726">
        <ele>784</ele>
        <time>2019-06-19T08:17:26Z</time>
      </trkpt>
      <trkpt lat="44.22361" lon="5.6725">
        <ele>784</ele>
        <time>2019-06-19T08:17:27Z</time>
      </trkpt>
      <trkpt lat="44.22362" lon="5.67239">
        <ele>784</ele>
        <time>2019-06-19T08:17:28Z</time>
      </trkpt>
      <trkpt lat="44.22363" lon="5.67228">
        <ele>784</ele>
        <time>2019-06-19T08:17:29Z</time>
      </trkpt>
      <trkpt lat="44.22364" lon="5.67217">
        <ele>784</ele>
        <time>2019-06-19T08:17:30Z</time>
      </trkpt>
      <trkpt lat="44.22365" lon="5.67206">
        <ele>784</ele>
        <time>2019-06-19T08:17:31Z</time>
      </trkpt>
      <trkpt lat="44.22366" lon="5.67195">
        <ele>783</ele>
        <time>2019-06-19T08:17:32Z</time>
      </trkpt>
      <trkpt lat="44.22367" lon="5.67184">
        <ele>783</ele>
        <time>2019-06-19T08:17:33Z</time>
      </trkpt>
      <trkpt lat="44.22367" lon="5.67173">
        <ele>782</ele>
        <time>2019-06-19T08:17:34Z</time>
      </trkpt>
      <trkpt lat="44.22367" lon="5.67162">
        <ele>782</ele>
        <time>2019-06-19T08:17:35Z</time>
      </trkpt>
      <trkpt lat="44.22368" lon="5.67151">
        <ele>782</ele>
        <time>2019-06-19T08:17:36Z</time>
      </trkpt>
      <trkpt lat="44.22368" lon="5.6714">
        <ele>782</ele>
        <time>2019-06-19T08:17:37Z</time>
      </trkpt>
      <trkpt lat="44.22369" lon="5.6713">
        <ele>782</ele>
        <time>2019-06-19T08:17:38Z</time>
      </trkpt>
      <trkpt lat="44.22369" lon="5.67118">
        <ele>781</ele>
        <time>2019-06-19T08:17:39Z</time>
      </trkpt>
      <trkpt lat="44.22368" lon="5.67107">
        <ele>781</ele>
        <time>2019-06-19T08:17:40Z</time>
      </trkpt>
      <trkpt lat="44.22367" lon="5.67097">
        <ele>781</ele>
        <time>2019-06-19T08:17:41Z</time>
      </trkpt>
      <trkpt lat="44.22364" lon="5.67086">
        <ele>781</ele>
        <time>2019-06-19T08:17:42Z</time>
      </trkpt>
      <trkpt lat="44.22363" lon="5.67074">
        <ele>781</ele>
        <time>2019-06-19T08:17:43Z</time>
      </trkpt>
      <trkpt lat="44.22361" lon="5.67062">
        <ele>781</ele>
        <time>2019-06-19T08:17:44Z</time>
      </trkpt>
      <trkpt lat="44.2236" lon="5.6705">
        <ele>781</ele>
        <time>2019-06-19T08:17:45Z</time>
      </trkpt>
      <trkpt lat="44.22359" lon="5.67037">
        <ele>781</ele>
        <time>2019-06-19T08:17:46Z</time>
      </trkpt>
      <trkpt lat="44.22359" lon="5.67024">
        <ele>781</ele>
        <time>2019-06-19T08:17:47Z</time>
      </trkpt>
      <trkpt lat="44.22359" lon="5.67011">
        <ele>781</ele>
        <time>2019-06-19T08:17:48Z</time>
      </trkpt>
      <trkpt lat="44.22361" lon="5.66999">
        <ele>781</ele>
        <time>2019-06-19T08:17:49Z</time>
      </trkpt>
      <trkpt lat="44.22363" lon="5.66986">
        <ele>781</ele>
        <time>2019-06-19T08:17:50Z</time>
      </trkpt>
      <trkpt lat="44.22365" lon="5.66974">
        <ele>780</ele>
        <time>2019-06-19T08:17:51Z</time>
      </trkpt>
      <trkpt lat="44.22369" lon="5.66962">
        <ele>780</ele>
        <time>2019-06-19T08:17:52Z</time>
      </trkpt>
      <trkpt lat="44.22372" lon="5.6695">
        <ele>779</ele>
        <time>2019-06-19T08:17:53Z</time>
      </trkpt>
      <trkpt lat="44.22375" lon="5.66937">
        <ele>778</ele>
        <time>2019-06-19T08:17:54Z</time>
      </trkpt>
      <trkpt lat="44.22377" lon="5.66926">
        <ele>777</ele>
        <time>2019-06-19T08:17:55Z</time>
      </trkpt>
      <trkpt lat="44.2238" lon="5.66915">
        <ele>777</ele>
        <time>2019-06-19T08:17:56Z</time>
      </trkpt>
      <trkpt lat="44.22383" lon="5.66903">
        <ele>776</ele>
        <time>2019-06-19T08:17:57Z</time>
      </trkpt>
      <trkpt lat="44.22385" lon="5.66892">
        <ele>776</ele>
        <time>2019-06-19T08:17:58Z</time>
      </trkpt>
      <trkpt lat="44.22388" lon="5.66881">
        <ele>775</ele>
        <time>2019-06-19T08:17:59Z</time>
      </trkpt>
      <trkpt lat="44.2239" lon="5.6687">
        <ele>775</ele>
        <time>2019-06-19T08:18:00Z</time>
      </trkpt>
      <trkpt lat="44.22391" lon="5.66858">
        <ele>775</ele>
        <time>2019-06-19T08:18:01Z</time>
      </trkpt>
      <trkpt lat="44.22392" lon="5.66846">
        <ele>774</ele>
        <time>2019-06-19T08:18:02Z</time>
      </trkpt>
      <trkpt lat="44.22392" lon="5.66834">
        <ele>774</ele>
        <time>2019-06-19T08:18:03Z</time>
      </trkpt>
      <trkpt lat="44.22393" lon="5.66822">
        <ele>773</ele>
        <time>2019-06-19T08:18:04Z</time>
      </trkpt>
      <trkpt lat="44.22393" lon="5.6681">
        <ele>773</ele>
        <time>2019-06-19T08:18:05Z</time>
      </trkpt>
      <trkpt lat="44.22393" lon="5.66797">
        <ele>772</ele>
        <time>2019-06-19T08:18:06Z</time>
      </trkpt>
      <trkpt lat="44.22393" lon="5.66784">
        <ele>771</ele>
        <time>2019-06-19T08:18:07Z</time>
      </trkpt>
      <trkpt lat="44.22393" lon="5.66771">
        <ele>771</ele>
        <time>2019-06-19T08:18:08Z</time>
      </trkpt>
      <trkpt lat="44.22392" lon="5.66757">
        <ele>770</ele>
        <time>2019-06-19T08:18:09Z</time>
      </trkpt>
      <trkpt lat="44.22392" lon="5.66744">
        <ele>769</ele>
        <time>2019-06-19T08:18:10Z</time>
      </trkpt>
      <trkpt lat="44.22391" lon="5.6673">
        <ele>769</ele>
        <time>2019-06-19T08:18:11Z</time>
      </trkpt>
      <trkpt lat="44.2239" lon="5.66717">
        <ele>768</ele>
        <time>2019-06-19T08:18:12Z</time>
      </trkpt>
      <trkpt lat="44.22389" lon="5.66704">
        <ele>767</ele>
        <time>2019-06-19T08:18:13Z</time>
      </trkpt>
      <trkpt lat="44.22388" lon="5.66691">
        <ele>767</ele>
        <time>2019-06-19T08:18:14Z</time>
      </trkpt>
      <trkpt lat="44.22388" lon="5.66679">
        <ele>767</ele>
        <time>2019-06-19T08:18:15Z</time>
      </trkpt>
      <trkpt lat="44.22387" lon="5.66669">
        <ele>767</ele>
        <time>2019-06-19T08:18:16Z</time>
      </trkpt>
      <trkpt lat="44.22386" lon="5.66657">
        <ele>767</ele>
        <time>2019-06-19T08:18:17Z</time>
      </trkpt>
      <trkpt lat="44.22385" lon="5.66646">
        <ele>767</ele>
        <time>2019-06-19T08:18:18Z</time>
      </trkpt>
      <trkpt lat="44.22383" lon="5.66635">
        <ele>767</ele>
        <time>2019-06-19T08:18:19Z</time>
      </trkpt>
      <trkpt lat="44.22382" lon="5.66625">
        <ele>767</ele>
        <time>2019-06-19T08:18:20Z</time>
      </trkpt>
      <trkpt lat="44.2238" lon="5.66615">
        <ele>767</ele>
        <time>2019-06-19T08:18:21Z</time>
      </trkpt>
      <trkpt lat="44.22379" lon="5.66605">
        <ele>767</ele>
        <time>2019-06-19T08:18:22Z</time>
      </trkpt>
      <trkpt lat="44.22377" lon="5.66595">
        <ele>767</ele>
        <time>2019-06-19T08:18:23Z</time>
      </trkpt>
      <trkpt lat="44.22375" lon="5.66584">
        <ele>767</ele>
        <time>2019-06-19T08:18:24Z</time>
      </trkpt>
      <trkpt lat="44.22374" lon="5.66574">
        <ele>767</ele>
        <time>2019-06-19T08:18:25Z</time>
      </trkpt>
      <trkpt lat="44.22372" lon="5.66564">
        <ele>767</ele>
        <time>2019-06-19T08:18:26Z</time>
      </trkpt>
      <trkpt lat="44.22369" lon="5.66553">
        <ele>767</ele>
        <time>2019-06-19T08:18:27Z</time>
      </trkpt>
      <trkpt lat="44.22368" lon="5.66541">
        <ele>767</ele>
        <time>2019-06-19T08:18:28Z</time>
      </trkpt>
      <trkpt lat="44.22367" lon="5.6653">
        <ele>767</ele>
        <time>2019-06-19T08:18:29Z</time>
      </trkpt>
      <trkpt lat="44.22366" lon="5.66517">
        <ele>767</ele>
        <time>2019-06-19T08:18:30Z</time>
      </trkpt>
      <trkpt lat="44.22367" lon="5.66504">
        <ele>767</ele>
        <time>2019-06-19T08:18:31Z</time>
      </trkpt>
      <trkpt lat="44.22368" lon="5.66492">
        <ele>767</ele>
        <time>2019-06-19T08:18:32Z</time>
      </trkpt>
      <trkpt lat="44.22371" lon="5.66479">
        <ele>767</ele>
        <time>2019-06-19T08:18:33Z</time>
      </trkpt>
      <trkpt lat="44.22374" lon="5.66467">
        <ele>767</ele>
        <time>2019-06-19T08:18:34Z</time>
      </trkpt>
      <trkpt lat="44.22379" lon="5.66454">
        <ele>767</ele>
        <time>2019-06-19T08:18:35Z</time>
      </trkpt>
      <trkpt lat="44.22383" lon="5.66442">
        <ele>767</ele>
        <time>2019-06-19T08:18:36Z</time>
      </trkpt>
      <trkpt lat="44.22387" lon="5.66431">
        <ele>767</ele>
        <time>2019-06-19T08:18:37Z</time>
      </trkpt>
      <trkpt lat="44.22392" lon="5.66419">
        <ele>767</ele>
        <time>2019-06-19T08:18:38Z</time>
      </trkpt>
      <trkpt lat="44.22395" lon="5.66407">
        <ele>766</ele>
        <time>2019-06-19T08:18:39Z</time>
      </trkpt>
      <trkpt lat="44.22398" lon="5.66395">
        <ele>765</ele>
        <time>2019-06-19T08:18:40Z</time>
      </trkpt>
      <trkpt lat="44.224" lon="5.66383">
        <ele>764</ele>
        <time>2019-06-19T08:18:41Z</time>
      </trkpt>
      <trkpt lat="44.22402" lon="5.6637">
        <ele>764</ele>
        <time>2019-06-19T08:18:42Z</time>
      </trkpt>
      <trkpt lat="44.22402" lon="5.66357">
        <ele>764</ele>
        <time>2019-06-19T08:18:43Z</time>
      </trkpt>
      <trkpt lat="44.22403" lon="5.66345">
        <ele>763</ele>
        <time>2019-06-19T08:18:44Z</time>
      </trkpt>
      <trkpt lat="44.22402" lon="5.66333">
        <ele>763</ele>
        <time>2019-06-19T08:18:45Z</time>
      </trkpt>
      <trkpt lat="44.22401" lon="5.66322">
        <ele>762</ele>
        <time>2019-06-19T08:18:46Z</time>
      </trkpt>
      <trkpt lat="44.22399" lon="5.6631">
        <ele>762</ele>
        <time>2019-06-19T08:18:47Z</time>
      </trkpt>
      <trkpt lat="44.22398" lon="5.66299">
        <ele>761</ele>
        <time>2019-06-19T08:18:48Z</time>
      </trkpt>
      <trkpt lat="44.22395" lon="5.6629">
        <ele>761</ele>
        <time>2019-06-19T08:18:49Z</time>
      </trkpt>
      <trkpt lat="44.22392" lon="5.6628">
        <ele>760</ele>
        <time>2019-06-19T08:18:50Z</time>
      </trkpt>
      <trkpt lat="44.22389" lon="5.66271">
        <ele>760</ele>
        <time>2019-06-19T08:18:51Z</time>
      </trkpt>
      <trkpt lat="44.22386" lon="5.66262">
        <ele>760</ele>
        <time>2019-06-19T08:18:52Z</time>
      </trkpt>
      <trkpt lat="44.22383" lon="5.66252">
        <ele>759</ele>
        <time>2019-06-19T08:18:53Z</time>
      </trkpt>
      <trkpt lat="44.2238" lon="5.66243">
        <ele>759</ele>
        <time>2019-06-19T08:18:54Z</time>
      </trkpt>
      <trkpt lat="44.22376" lon="5.66233">
        <ele>758</ele>
        <time>2019-06-19T08:18:55Z</time>
      </trkpt>
      <trkpt lat="44.22372" lon="5.66224">
        <ele>757</ele>
        <time>2019-06-19T08:18:56Z</time>
      </trkpt>
      <trkpt lat="44.2237" lon="5.66216">
        <ele>756</ele>
        <time>2019-06-19T08:18:57Z</time>
      </trkpt>
      <trkpt lat="44.22367" lon="5.66206">
        <ele>756</ele>
        <time>2019-06-19T08:18:58Z</time>
      </trkpt>
      <trkpt lat="44.22366" lon="5.66196">
        <ele>756</ele>
        <time>2019-06-19T08:18:59Z</time>
      </trkpt>
      <trkpt lat="44.22364" lon="5.66187">
        <ele>756</ele>
        <time>2019-06-19T08:19:00Z</time>
      </trkpt>
      <trkpt lat="44.22363" lon="5.66177">
        <ele>756</ele>
        <time>2019-06-19T08:19:01Z</time>
      </trkpt>
      <trkpt lat="44.22361" lon="5.66166">
        <ele>756</ele>
        <time>2019-06-19T08:19:02Z</time>
      </trkpt>
      <trkpt lat="44.22361" lon="5.66156">
        <ele>756</ele>
        <time>2019-06-19T08:19:03Z</time>
      </trkpt>
      <trkpt lat="44.2236" lon="5.66145">
        <ele>756</ele>
        <time>2019-06-19T08:19:04Z</time>
      </trkpt>
      <trkpt lat="44.2236" lon="5.66135">
        <ele>756</ele>
        <time>2019-06-19T08:19:05Z</time>
      </trkpt>
      <trkpt lat="44.22359" lon="5.66124">
        <ele>756</ele>
        <time>2019-06-19T08:19:06Z</time>
      </trkpt>
      <trkpt lat="44.22359" lon="5.66114">
        <ele>756</ele>
        <time>2019-06-19T08:19:07Z</time>
      </trkpt>
      <trkpt lat="44.22358" lon="5.66104">
        <ele>756</ele>
        <time>2019-06-19T08:19:08Z</time>
      </trkpt>
      <trkpt lat="44.22358" lon="5.66093">
        <ele>756</ele>
        <time>2019-06-19T08:19:09Z</time>
      </trkpt>
      <trkpt lat="44.22358" lon="5.66082">
        <ele>756</ele>
        <time>2019-06-19T08:19:10Z</time>
      </trkpt>
      <trkpt lat="44.2236" lon="5.66072">
        <ele>756</ele>
        <time>2019-06-19T08:19:11Z</time>
      </trkpt>
      <trkpt lat="44.22363" lon="5.66061">
        <ele>756</ele>
        <time>2019-06-19T08:19:12Z</time>
      </trkpt>
      <trkpt lat="44.22368" lon="5.66053">
        <ele>755</ele>
        <time>2019-06-19T08:19:13Z</time>
      </trkpt>
      <trkpt lat="44.22373" lon="5.66046">
        <ele>755</ele>
        <time>2019-06-19T08:19:14Z</time>
      </trkpt>
      <trkpt lat="44.2238" lon="5.6604">
        <ele>755</ele>
        <time>2019-06-19T08:19:15Z</time>
      </trkpt>
      <trkpt lat="44.22387" lon="5.66036">
        <ele>754</ele>
        <time>2019-06-19T08:19:16Z</time>
      </trkpt>
      <trkpt lat="44.22393" lon="5.66033">
        <ele>754</ele>
        <time>2019-06-19T08:19:17Z</time>
      </trkpt>
      <trkpt lat="44.224" lon="5.66029">
        <ele>754</ele>
        <time>2019-06-19T08:19:18Z</time>
      </trkpt>
      <trkpt lat="44.22406" lon="5.66023">
        <ele>753</ele>
        <time>2019-06-19T08:19:19Z</time>
      </trkpt>
      <trkpt lat="44.22411" lon="5.66014">
        <ele>753</ele>
        <time>2019-06-19T08:19:20Z</time>
      </trkpt>
      <trkpt lat="44.22414" lon="5.66005">
        <ele>753</ele>
        <time>2019-06-19T08:19:21Z</time>
      </trkpt>
      <trkpt lat="44.22417" lon="5.65995">
        <ele>753</ele>
        <time>2019-06-19T08:19:22Z</time>
      </trkpt>
      <trkpt lat="44.22419" lon="5.65984">
        <ele>753</ele>
        <time>2019-06-19T08:19:23Z</time>
      </trkpt>
      <trkpt lat="44.2242" lon="5.65973">
        <ele>753</ele>
        <time>2019-06-19T08:19:24Z</time>
      </trkpt>
      <trkpt lat="44.22419" lon="5.65961">
        <ele>753</ele>
        <time>2019-06-19T08:19:25Z</time>
      </trkpt>
      <trkpt lat="44.22417" lon="5.6595">
        <ele>753</ele>
        <time>2019-06-19T08:19:26Z</time>
      </trkpt>
      <trkpt lat="44.22414" lon="5.65938">
        <ele>753</ele>
        <time>2019-06-19T08:19:27Z</time>
      </trkpt>
      <trkpt lat="44.2241" lon="5.65927">
        <ele>753</ele>
        <time>2019-06-19T08:19:28Z</time>
      </trkpt>
      <trkpt lat="44.22406" lon="5.65913">
        <ele>753</ele>
        <time>2019-06-19T08:19:29Z</time>
      </trkpt>
      <trkpt lat="44.22402" lon="5.659">
        <ele>753</ele>
        <time>2019-06-19T08:19:30Z</time>
      </trkpt>
      <trkpt lat="44.224" lon="5.65887">
        <ele>752</ele>
        <time>2019-06-19T08:19:31Z</time>
      </trkpt>
      <trkpt lat="44.22399" lon="5.65874">
        <ele>751</ele>
        <time>2019-06-19T08:19:32Z</time>
      </trkpt>
      <trkpt lat="44.22399" lon="5.65861">
        <ele>750</ele>
        <time>2019-06-19T08:19:33Z</time>
      </trkpt>
      <trkpt lat="44.22399" lon="5.65848">
        <ele>749</ele>
        <time>2019-06-19T08:19:34Z</time>
      </trkpt>
      <trkpt lat="44.22401" lon="5.65836">
        <ele>748</ele>
        <time>2019-06-19T08:19:35Z</time>
      </trkpt>
      <trkpt lat="44.22403" lon="5.65824">
        <ele>747</ele>
        <time>2019-06-19T08:19:36Z</time>
      </trkpt>
      <trkpt lat="44.22406" lon="5.65812">
        <ele>746</ele>
        <time>2019-06-19T08:19:37Z</time>
      </trkpt>
      <trkpt lat="44.22409" lon="5.65801">
        <ele>746</ele>
        <time>2019-06-19T08:19:38Z</time>
      </trkpt>
      <trkpt lat="44.22412" lon="5.65789">
        <ele>746</ele>
        <time>2019-06-19T08:19:39Z</time>
      </trkpt>
      <trkpt lat="44.22415" lon="5.65777">
        <ele>746</ele>
        <time>2019-06-19T08:19:40Z</time>
      </trkpt>
      <trkpt lat="44.22417" lon="5.65765">
        <ele>745</ele>
        <time>2019-06-19T08:19:41Z</time>
      </trkpt>
      <trkpt lat="44.22419" lon="5.65753">
        <ele>745</ele>
        <time>2019-06-19T08:19:42Z</time>
      </trkpt>
      <trkpt lat="44.22421" lon="5.65741">
        <ele>745</ele>
        <time>2019-06-19T08:19:43Z</time>
      </trkpt>
      <trkpt lat="44.22423" lon="5.65729">
        <ele>744</ele>
        <time>2019-06-19T08:19:44Z</time>
      </trkpt>
      <trkpt lat="44.22425" lon="5.65717">
        <ele>744</ele>
        <time>2019-06-19T08:19:45Z</time>
      </trkpt>
      <trkpt lat="44.22426" lon="5.65705">
        <ele>744</ele>
        <time>2019-06-19T08:19:46Z</time>
      </trkpt>
      <trkpt lat="44.22426" lon="5.65693">
        <ele>743</ele>
        <time>2019-06-19T08:19:47Z</time>
      </trkpt>
      <trkpt lat="44.22425" lon="5.65682">
        <ele>743</ele>
        <time>2019-06-19T08:19:48Z</time>
      </trkpt>
      <trkpt lat="44.22424" lon="5.65672">
        <ele>743</ele>
        <time>2019-06-19T08:19:49Z</time>
      </trkpt>
      <trkpt lat="44.22423" lon="5.65662">
        <ele>743</ele>
        <time>2019-06-19T08:19:50Z</time>
      </trkpt>
      <trkpt lat="44.22421" lon="5.65652">
        <ele>742</ele>
        <time>2019-06-19T08:19:51Z</time>
      </trkpt>
      <trkpt lat="44.22419" lon="5.65643">
        <ele>742</ele>
        <time>2019-06-19T08:19:52Z</time>
      </trkpt>
      <trkpt lat="44.22416" lon="5.65634">
        <ele>742</ele>
        <time>2019-06-19T08:19:53Z</time>
      </trkpt>
      <trkpt lat="44.22414" lon="5.65625">
        <ele>742</ele>
        <time>2019-06-19T08:19:54Z</time>
      </trkpt>
      <trkpt lat="44.22411" lon="5.65616">
        <ele>742</ele>
        <time>2019-06-19T08:19:55Z</time>
      </trkpt>
      <trkpt lat="44.22409" lon="5.65605">
        <ele>742</ele>
        <time>2019-06-19T08:19:56Z</time>
      </trkpt>
      <trkpt lat="44.22408" lon="5.65594">
        <ele>742</ele>
        <time>2019-06-19T08:19:57Z</time>
      </trkpt>
      <trkpt lat="44.22407" lon="5.65583">
        <ele>742</ele>
        <time>2019-06-19T08:19:58Z</time>
      </trkpt>
      <trkpt lat="44.22407" lon="5.65571">
        <ele>742</ele>
        <time>2019-06-19T08:19:59Z</time>
      </trkpt>
      <trkpt lat="44.22408" lon="5.6556">
        <ele>742</ele>
        <time>2019-06-19T08:20:00Z</time>
      </trkpt>
      <trkpt lat="44.22409" lon="5.65548">
        <ele>742</ele>
        <time>2019-06-19T08:20:01Z</time>
      </trkpt>
      <trkpt lat="44.22411" lon="5.65537">
        <ele>742</ele>
        <time>2019-06-19T08:20:02Z</time>
      </trkpt>
      <trkpt lat="44.22414" lon="5.65526">
        <ele>742</ele>
        <time>2019-06-19T08:20:03Z</time>
      </trkpt>
      <trkpt lat="44.22417" lon="5.65516">
        <ele>742</ele>
        <time>2019-06-19T08:20:04Z</time>
      </trkpt>
      <trkpt lat="44.22419" lon="5.65506">
        <ele>742</ele>
        <time>2019-06-19T08:20:05Z</time>
      </trkpt>
      <trkpt lat="44.22422" lon="5.65495">
        <ele>742</ele>
        <time>2019-06-19T08:20:06Z</time>
      </trkpt>
      <trkpt lat="44.22425" lon="5.65485">
        <ele>742</ele>
        <time>2019-06-19T08:20:07Z</time>
      </trkpt>
      <trkpt lat="44.22428" lon="5.65475">
        <ele>742</ele>
        <time>2019-06-19T08:20:08Z</time>
      </trkpt>
      <trkpt lat="44.2243" lon="5.65466">
        <ele>742</ele>
        <time>2019-06-19T08:20:09Z</time>
      </trkpt>
      <trkpt lat="44.22432" lon="5.65456">
        <ele>742</ele>
        <time>2019-06-19T08:20:10Z</time>
      </trkpt>
      <trkpt lat="44.22434" lon="5.65447">
        <ele>742</ele>
        <time>2019-06-19T08:20:11Z</time>
      </trkpt>
      <trkpt lat="44.22435" lon="5.65438">
        <ele>742</ele>
        <time>2019-06-19T08:20:12Z</time>
      </trkpt>
      <trkpt lat="44.22437" lon="5.65429">
        <ele>742</ele>
        <time>2019-06-19T08:20:13Z</time>
      </trkpt>
      <trkpt lat="44.22438" lon="5.65421">
        <ele>742</ele>
        <time>2019-06-19T08:20:14Z</time>
      </trkpt>
      <trkpt lat="44.2244" lon="5.65412">
        <ele>742</ele>
        <time>2019-06-19T08:20:15Z</time>
      </trkpt>
      <trkpt lat="44.22441" lon="5.65404">
        <ele>742</ele>
        <time>2019-06-19T08:20:16Z</time>
      </trkpt>
      <trkpt lat="44.22442" lon="5.65396">
        <ele>742</ele>
        <time>2019-06-19T08:20:17Z</time>
      </trkpt>
      <trkpt lat="44.22443" lon="5.65387">
        <ele>742</ele>
        <time>2019-06-19T08:20:18Z</time>
      </trkpt>
      <trkpt lat="44.22444" lon="5.65378">
        <ele>742</ele>
        <time>2019-06-19T08:20:19Z</time>
      </trkpt>
      <trkpt lat="44.22445" lon="5.65368">
        <ele>742</ele>
        <time>2019-06-19T08:20:20Z</time>
      </trkpt>
      <trkpt lat="44.22446" lon="5.65359">
        <ele>742</ele>
        <time>2019-06-19T08:20:21Z</time>
      </trkpt>
      <trkpt lat="44.22448" lon="5.65349">
        <ele>742</ele>
        <time>2019-06-19T08:20:22Z</time>
      </trkpt>
      <trkpt lat="44.22449" lon="5.65339">
        <ele>742</ele>
        <time>2019-06-19T08:20:23Z</time>
      </trkpt>
      <trkpt lat="44.22452" lon="5.65329">
        <ele>742</ele>
        <time>2019-06-19T08:20:24Z</time>
      </trkpt>
      <trkpt lat="44.22454" lon="5.65319">
        <ele>742</ele>
        <time>2019-06-19T08:20:25Z</time>
      </trkpt>
      <trkpt lat="44.22459" lon="5.65309">
        <ele>742</ele>
        <time>2019-06-19T08:20:26Z</time>
      </trkpt>
      <trkpt lat="44.22463" lon="5.653">
        <ele>742</ele>
        <time>2019-06-19T08:20:27Z</time>
      </trkpt>
      <trkpt lat="44.22469" lon="5.6529">
        <ele>741</ele>
        <time>2019-06-19T08:20:28Z</time>
      </trkpt>
      <trkpt lat="44.22475" lon="5.65281">
        <ele>741</ele>
        <time>2019-06-19T08:20:29Z</time>
      </trkpt>
      <trkpt lat="44.22481" lon="5.65272">
        <ele>741</ele>
        <time>2019-06-19T08:20:30Z</time>
      </trkpt>
      <trkpt lat="44.22487" lon="5.65264">
        <ele>741</ele>
        <time>2019-06-19T08:20:31Z</time>
      </trkpt>
      <trkpt lat="44.22493" lon="5.65255">
        <ele>741</ele>
        <time>2019-06-19T08:20:32Z</time>
      </trkpt>
      <trkpt lat="44.22498" lon="5.65246">
        <ele>741</ele>
        <time>2019-06-19T08:20:33Z</time>
      </trkpt>
      <trkpt lat="44.22503" lon="5.65236">
        <ele>741</ele>
        <time>2019-06-19T08:20:34Z</time>
      </trkpt>
      <trkpt lat="44.22506" lon="5.65226">
        <ele>741</ele>
        <time>2019-06-19T08:20:35Z</time>
      </trkpt>
      <trkpt lat="44.22511" lon="5.65217">
        <ele>741</ele>
        <time>2019-06-19T08:20:36Z</time>
      </trkpt>
      <trkpt lat="44.22514" lon="5.65208">
        <ele>741</ele>
        <time>2019-06-19T08:20:37Z</time>
      </trkpt>
      <trkpt lat="44.22518" lon="5.65198">
        <ele>741</ele>
        <time>2019-06-19T08:20:38Z</time>
      </trkpt>
      <trkpt lat="44.22521" lon="5.65189">
        <ele>741</ele>
        <time>2019-06-19T08:20:39Z</time>
      </trkpt>
      <trkpt lat="44.22524" lon="5.65179">
        <ele>740</ele>
        <time>2019-06-19T08:20:40Z</time>
      </trkpt>
      <trkpt lat="44.22527" lon="5.65168">
        <ele>740</ele>
        <time>2019-06-19T08:20:41Z</time>
      </trkpt>
      <trkpt lat="44.2253" lon="5.65158">
        <ele>739</ele>
        <time>2019-06-19T08:20:42Z</time>
      </trkpt>
      <trkpt lat="44.22531" lon="5.65147">
        <ele>739</ele>
        <time>2019-06-19T08:20:43Z</time>
      </trkpt>
      <trkpt lat="44.22533" lon="5.65137">
        <ele>739</ele>
        <time>2019-06-19T08:20:44Z</time>
      </trkpt>
      <trkpt lat="44.22535" lon="5.65126">
        <ele>738</ele>
        <time>2019-06-19T08:20:45Z</time>
      </trkpt>
      <trkpt lat="44.22536" lon="5.65116">
        <ele>738</ele>
        <time>2019-06-19T08:20:46Z</time>
      </trkpt>
      <trkpt lat="44.22537" lon="5.65105">
        <ele>738</ele>
        <time>2019-06-19T08:20:47Z</time>
      </trkpt>
      <trkpt lat="44.22539" lon="5.65095">
        <ele>738</ele>
        <time>2019-06-19T08:20:48Z</time>
      </trkpt>
      <trkpt lat="44.22541" lon="5.65085">
        <ele>737</ele>
        <time>2019-06-19T08:20:49Z</time>
      </trkpt>
      <trkpt lat="44.22543" lon="5.65075">
        <ele>737</ele>
        <time>2019-06-19T08:20:50Z</time>
      </trkpt>
      <trkpt lat="44.22546" lon="5.65064">
        <ele>736</ele>
        <time>2019-06-19T08:20:51Z</time>
      </trkpt>
      <trkpt lat="44.2255" lon="5.65055">
        <ele>736</ele>
        <time>2019-06-19T08:20:52Z</time>
      </trkpt>
      <trkpt lat="44.22554" lon="5.65045">
        <ele>735</ele>
        <time>2019-06-19T08:20:53Z</time>
      </trkpt>
      <trkpt lat="44.22557" lon="5.65035">
        <ele>735</ele>
        <time>2019-06-19T08:20:54Z</time>
      </trkpt>
      <trkpt lat="44.22562" lon="5.65027">
        <ele>735</ele>
        <time>2019-06-19T08:20:55Z</time>
      </trkpt>
      <trkpt lat="44.22565" lon="5.65019">
        <ele>734</ele>
        <time>2019-06-19T08:20:56Z</time>
      </trkpt>
      <trkpt lat="44.22569" lon="5.6501">
        <ele>734</ele>
        <time>2019-06-19T08:20:57Z</time>
      </trkpt>
      <trkpt lat="44.22572" lon="5.65002">
        <ele>733</ele>
        <time>2019-06-19T08:20:58Z</time>
      </trkpt>
      <trkpt lat="44.22576" lon="5.64994">
        <ele>733</ele>
        <time>2019-06-19T08:20:59Z</time>
      </trkpt>
      <trkpt lat="44.22579" lon="5.64985">
        <ele>732</ele>
        <time>2019-06-19T08:21:00Z</time>
      </trkpt>
      <trkpt lat="44.22581" lon="5.64976">
        <ele>732</ele>
        <time>2019-06-19T08:21:01Z</time>
      </trkpt>
      <trkpt lat="44.22584" lon="5.64966">
        <ele>731</ele>
        <time>2019-06-19T08:21:02Z</time>
      </trkpt>
      <trkpt lat="44.22586" lon="5.64957">
        <ele>731</ele>
        <time>2019-06-19T08:21:03Z</time>
      </trkpt>
      <trkpt lat="44.22588" lon="5.64947">
        <ele>731</ele>
        <time>2019-06-19T08:21:04Z</time>
      </trkpt>
      <trkpt lat="44.2259" lon="5.64937">
        <ele>731</ele>
        <time>2019-06-19T08:21:05Z</time>
      </trkpt>
      <trkpt lat="44.22592" lon="5.64927">
        <ele>730</ele>
        <time>2019-06-19T08:21:06Z</time>
      </trkpt>
      <trkpt lat="44.22593" lon="5.64917">
        <ele>730</ele>
        <time>2019-06-19T08:21:07Z</time>
      </trkpt>
      <trkpt lat="44.22594" lon="5.64907">
        <ele>730</ele>
        <time>2019-06-19T08:21:08Z</time>
      </trkpt>
      <trkpt lat="44.22594" lon="5.64896">
        <ele>730</ele>
        <time>2019-06-19T08:21:09Z</time>
      </trkpt>
      <trkpt lat="44.22595" lon="5.64886">
        <ele>730</ele>
        <time>2019-06-19T08:21:10Z</time>
      </trkpt>
      <trkpt lat="44.22595" lon="5.64876">
        <ele>730</ele>
        <time>2019-06-19T08:21:11Z</time>
      </trkpt>
      <trkpt lat="44.22595" lon="5.64866">
        <ele>730</ele>
        <time>2019-06-19T08:21:12Z</time>
      </trkpt>
      <trkpt lat="44.22595" lon="5.64856">
        <ele>730</ele>
        <time>2019-06-19T08:21:13Z</time>
      </trkpt>
      <trkpt lat="44.22594" lon="5.64846">
        <ele>730</ele>
        <time>2019-06-19T08:21:14Z</time>
      </trkpt>
      <trkpt lat="44.22595" lon="5.64836">
        <ele>730</ele>
        <time>2019-06-19T08:21:15Z</time>
      </trkpt>
      <trkpt lat="44.22595" lon="5.64826">
        <ele>730</ele>
        <time>2019-06-19T08:21:16Z</time>
      </trkpt>
      <trkpt lat="44.22595" lon="5.64816">
        <ele>730</ele>
        <time>2019-06-19T08:21:17Z</time>
      </trkpt>
      <trkpt lat="44.22596" lon="5.64806">
        <ele>730</ele>
        <time>2019-06-19T08:21:18Z</time>
      </trkpt>
      <trkpt lat="44.22597" lon="5.64795">
        <ele>730</ele>
        <time>2019-06-19T08:21:19Z</time>
      </trkpt>
      <trkpt lat="44.22598" lon="5.64785">
        <ele>730</ele>
        <time>2019-06-19T08:21:20Z</time>
      </trkpt>
      <trkpt lat="44.226" lon="5.64775">
        <ele>730</ele>
        <time>2019-06-19T08:21:21Z</time>
      </trkpt>
      <trkpt lat="44.22602" lon="5.64764">
        <ele>730</ele>
        <time>2019-06-19T08:21:22Z</time>
      </trkpt>
      <trkpt lat="44.22606" lon="5.64755">
        <ele>730</ele>
        <time>2019-06-19T08:21:23Z</time>
      </trkpt>
      <trkpt lat="44.2261" lon="5.64746">
        <ele>730</ele>
        <time>2019-06-19T08:21:24Z</time>
      </trkpt>
      <trkpt lat="44.22614" lon="5.64738">
        <ele>730</ele>
        <time>2019-06-19T08:21:25Z</time>
      </trkpt>
      <trkpt lat="44.22619" lon="5.64731">
        <ele>730</ele>
        <time>2019-06-19T08:21:26Z</time>
      </trkpt>
      <trkpt lat="44.22625" lon="5.64723">
        <ele>730</ele>
        <time>2019-06-19T08:21:27Z</time>
      </trkpt>
      <trkpt lat="44.2263" lon="5.64715">
        <ele>730</ele>
        <time>2019-06-19T08:21:28Z</time>
      </trkpt>
      <trkpt lat="44.22635" lon="5.64708">
        <ele>730</ele>
        <time>2019-06-19T08:21:29Z</time>
      </trkpt>
      <trkpt lat="44.2264" lon="5.647">
        <ele>730</ele>
        <time>2019-06-19T08:21:30Z</time>
      </trkpt>
      <trkpt lat="44.22644" lon="5.64692">
        <ele>730</ele>
        <time>2019-06-19T08:21:31Z</time>
      </trkpt>
      <trkpt lat="44.22649" lon="5.64683">
        <ele>730</ele>
        <time>2019-06-19T08:21:32Z</time>
      </trkpt>
      <trkpt lat="44.22653" lon="5.64675">
        <ele>730</ele>
        <time>2019-06-19T08:21:33Z</time>
      </trkpt>
      <trkpt lat="44.22657" lon="5.64666">
        <ele>730</ele>
        <time>2019-06-19T08:21:34Z</time>
      </trkpt>
      <trkpt lat="44.2266" lon="5.64657">
        <ele>730</ele>
        <time>2019-06-19T08:21:35Z</time>
      </trkpt>
      <trkpt lat="44.22663" lon="5.64647">
        <ele>730</ele>
        <time>2019-06-19T08:21:36Z</time>
      </trkpt>
      <trkpt lat="44.22666" lon="5.64638">
        <ele>730</ele>
        <time>2019-06-19T08:21:37Z</time>
      </trkpt>
      <trkpt lat="44.22669" lon="5.64628">
        <ele>730</ele>
        <time>2019-06-19T08:21:38Z</time>
      </trkpt>
      <trkpt lat="44.22671" lon="5.64618">
        <ele>729</ele>
        <time>2019-06-19T08:21:39Z</time>
      </trkpt>
      <trkpt lat="44.22673" lon="5.64608">
        <ele>729</ele>
        <time>2019-06-19T08:21:40Z</time>
      </trkpt>
      <trkpt lat="44.22674" lon="5.64598">
        <ele>729</ele>
        <time>2019-06-19T08:21:41Z</time>
      </trkpt>
      <trkpt lat="44.22675" lon="5.64588">
        <ele>728</ele>
        <time>2019-06-19T08:21:42Z</time>
      </trkpt>
      <trkpt lat="44.22677" lon="5.64579">
        <ele>727</ele>
        <time>2019-06-19T08:21:43Z</time>
      </trkpt>
      <trkpt lat="44.22678" lon="5.64572">
        <ele>727</ele>
        <time>2019-06-19T08:21:44Z</time>
      </trkpt>
      <trkpt lat="44.22678" lon="5.64566">
        <ele>726</ele>
        <time>2019-06-19T08:21:45Z</time>
      </trkpt>
      <trkpt lat="44.22676" lon="5.64561">
        <ele>726</ele>
        <time>2019-06-19T08:21:46Z</time>
      </trkpt>
      <trkpt lat="44.22674" lon="5.64558">
        <ele>726</ele>
        <time>2019-06-19T08:21:47Z</time>
      </trkpt>
      <trkpt lat="44.2267" lon="5.64555">
        <ele>726</ele>
        <time>2019-06-19T08:21:48Z</time>
      </trkpt>
      <trkpt lat="44.22667" lon="5.64553">
        <ele>726</ele>
        <time>2019-06-19T08:21:49Z</time>
      </trkpt>
      <trkpt lat="44.22662" lon="5.64551">
        <ele>726</ele>
        <time>2019-06-19T08:21:50Z</time>
      </trkpt>
      <trkpt lat="44.22658" lon="5.64549">
        <ele>726</ele>
        <time>2019-06-19T08:21:51Z</time>
      </trkpt>
      <trkpt lat="44.22654" lon="5.64546">
        <ele>726</ele>
        <time>2019-06-19T08:21:52Z</time>
      </trkpt>
      <trkpt lat="44.2265" lon="5.64543">
        <ele>726</ele>
        <time>2019-06-19T08:21:53Z</time>
      </trkpt>
      <trkpt lat="44.22646" lon="5.6454">
        <ele>726</ele>
        <time>2019-06-19T08:21:54Z</time>
      </trkpt>
      <trkpt lat="44.22642" lon="5.64537">
        <ele>726</ele>
        <time>2019-06-19T08:21:55Z</time>
      </trkpt>
      <trkpt lat="44.22638" lon="5.64533">
        <ele>726</ele>
        <time>2019-06-19T08:21:56Z</time>
      </trkpt>
      <trkpt lat="44.22634" lon="5.64529">
        <ele>726</ele>
        <time>2019-06-19T08:21:57Z</time>
      </trkpt>
      <trkpt lat="44.22632" lon="5.64524">
        <ele>726</ele>
        <time>2019-06-19T08:21:58Z</time>
      </trkpt>
      <trkpt lat="44.22631" lon="5.64517">
        <ele>725</ele>
        <time>2019-06-19T08:21:59Z</time>
      </trkpt>
      <trkpt lat="44.22633" lon="5.64511">
        <ele>725</ele>
        <time>2019-06-19T08:22:00Z</time>
      </trkpt>
      <trkpt lat="44.22635" lon="5.64505">
        <ele>725</ele>
        <time>2019-06-19T08:22:01Z</time>
      </trkpt>
      <trkpt lat="44.22638" lon="5.64499">
        <ele>724</ele>
        <time>2019-06-19T08:22:02Z</time>
      </trkpt>
      <trkpt lat="44.2264" lon="5.64492">
        <ele>724</ele>
        <time>2019-06-19T08:22:03Z</time>
      </trkpt>
      <trkpt lat="44.22642" lon="5.64485">
        <ele>724</ele>
        <time>2019-06-19T08:22:04Z</time>
      </trkpt>
      <trkpt lat="44.22643" lon="5.64478">
        <ele>723</ele>
        <time>2019-06-19T08:22:05Z</time>
      </trkpt>
      <trkpt lat="44.22643" lon="5.6447">
        <ele>723</ele>
        <time>2019-06-19T08:22:06Z</time>
      </trkpt>
      <trkpt lat="44.22644" lon="5.64462">
        <ele>723</ele>
        <time>2019-06-19T08:22:07Z</time>
      </trkpt>
      <trkpt lat="44.22645" lon="5.64453">
        <ele>723</ele>
        <time>2019-06-19T08:22:08Z</time>
      </trkpt>
      <trkpt lat="44.22647" lon="5.64445">
        <ele>723</ele>
        <time>2019-06-19T08:22:09Z</time>
      </trkpt>
      <trkpt lat="44.22649" lon="5.64437">
        <ele>723</ele>
        <time>2019-06-19T08:22:10Z</time>
      </trkpt>
      <trkpt lat="44.22651" lon="5.64428">
        <ele>722</ele>
        <time>2019-06-19T08:22:11Z</time>
      </trkpt>
      <trkpt lat="44.22654" lon="5.6442">
        <ele>722</ele>
        <time>2019-06-19T08:22:12Z</time>
      </trkpt>
      <trkpt lat="44.22656" lon="5.64411">
        <ele>722</ele>
        <time>2019-06-19T08:22:13Z</time>
      </trkpt>
      <trkpt lat="44.22658" lon="5.64403">
        <ele>722</ele>
        <time>2019-06-19T08:22:14Z</time>
      </trkpt>
      <trkpt lat="44.2266" lon="5.64394">
        <ele>721</ele>
        <time>2019-06-19T08:22:15Z</time>
      </trkpt>
      <trkpt lat="44.22662" lon="5.64386">
        <ele>721</ele>
        <time>2019-06-19T08:22:16Z</time>
      </trkpt>
      <trkpt lat="44.22664" lon="5.64377">
        <ele>721</ele>
        <time>2019-06-19T08:22:17Z</time>
      </trkpt>
      <trkpt lat="44.22666" lon="5.64369">
        <ele>721</ele>
        <time>2019-06-19T08:22:18Z</time>
      </trkpt>
      <trkpt lat="44.22668" lon="5.64361">
        <ele>721</ele>
        <time>2019-06-19T08:22:19Z</time>
      </trkpt>
      <trkpt lat="44.2267" lon="5.64352">
        <ele>721</ele>
        <time>2019-06-19T08:22:20Z</time>
      </trkpt>
      <trkpt lat="44.22673" lon="5.64344">
        <ele>721</ele>
        <time>2019-06-19T08:22:21Z</time>
      </trkpt>
      <trkpt lat="44.22677" lon="5.64337">
        <ele>721</ele>
        <time>2019-06-19T08:22:22Z</time>
      </trkpt>
      <trkpt lat="44.22682" lon="5.6433">
        <ele>721</ele>
        <time>2019-06-19T08:22:23Z</time>
      </trkpt>
      <trkpt lat="44.22686" lon="5.64324">
        <ele>721</ele>
        <time>2019-06-19T08:22:24Z</time>
      </trkpt>
      <trkpt lat="44.22691" lon="5.64317">
        <ele>721</ele>
        <time>2019-06-19T08:22:25Z</time>
      </trkpt>
      <trkpt lat="44.22694" lon="5.6431">
        <ele>721</ele>
        <time>2019-06-19T08:22:26Z</time>
      </trkpt>
      <trkpt lat="44.22698" lon="5.64303">
        <ele>721</ele>
        <time>2019-06-19T08:22:27Z</time>
      </trkpt>
      <trkpt lat="44.22702" lon="5.64296">
        <ele>721</ele>
        <time>2019-06-19T08:22:28Z</time>
      </trkpt>
      <trkpt lat="44.22705" lon="5.64289">
        <ele>721</ele>
        <time>2019-06-19T08:22:29Z</time>
      </trkpt>
      <trkpt lat="44.22709" lon="5.64283">
        <ele>720</ele>
        <time>2019-06-19T08:22:30Z</time>
      </trkpt>
      <trkpt lat="44.22713" lon="5.64276">
        <ele>720</ele>
        <time>2019-06-19T08:22:31Z</time>
      </trkpt>
      <trkpt lat="44.22717" lon="5.64269">
        <ele>720</ele>
        <time>2019-06-19T08:22:32Z</time>
      </trkpt>
      <trkpt lat="44.2272" lon="5.64262">
        <ele>720</ele>
        <time>2019-06-19T08:22:33Z</time>
      </trkpt>
      <trkpt lat="44.22725" lon="5.64256">
        <ele>719</ele>
        <time>2019-06-19T08:22:34Z</time>
      </trkpt>
      <trkpt lat="44.22729" lon="5.6425">
        <ele>719</ele>
        <time>2019-06-19T08:22:35Z</time>
      </trkpt>
      <trkpt lat="44.22734" lon="5.64243">
        <ele>719</ele>
        <time>2019-06-19T08:22:36Z</time>
      </trkpt>
      <trkpt lat="44.22738" lon="5.64237">
        <ele>719</ele>
        <time>2019-06-19T08:22:37Z</time>
      </trkpt>
      <trkpt lat="44.22742" lon="5.6423">
        <ele>718</ele>
        <time>2019-06-19T08:22:38Z</time>
      </trkpt>
      <trkpt lat="44.22746" lon="5.64223">
        <ele>718</ele>
        <time>2019-06-19T08:22:39Z</time>
      </trkpt>
      <trkpt lat="44.22749" lon="5.64215">
        <ele>718</ele>
        <time>2019-06-19T08:22:40Z</time>
      </trkpt>
      <trkpt lat="44.22752" lon="5.64207">
        <ele>717</ele>
        <time>2019-06-19T08:22:41Z</time>
      </trkpt>
      <trkpt lat="44.22754" lon="5.64198">
        <ele>717</ele>
        <time>2019-06-19T08:22:42Z</time>
      </trkpt>
      <trkpt lat="44.22757" lon="5.6419">
        <ele>717</ele>
        <time>2019-06-19T08:22:43Z</time>
      </trkpt>
      <trkpt lat="44.22759" lon="5.64181">
        <ele>716</ele>
        <time>2019-06-19T08:22:44Z</time>
      </trkpt>
      <trkpt lat="44.22762" lon="5.64173">
        <ele>716</ele>
        <time>2019-06-19T08:22:45Z</time>
      </trkpt>
      <trkpt lat="44.22765" lon="5.64165">
        <ele>716</ele>
        <time>2019-06-19T08:22:46Z</time>
      </trkpt>
      <trkpt lat="44.22765" lon="5.64156">
        <ele>716</ele>
        <time>2019-06-19T08:22:47Z</time>
      </trkpt>
      <trkpt lat="44.22765" lon="5.64149">
        <ele>716</ele>
        <time>2019-06-19T08:22:48Z</time>
      </trkpt>
      <trkpt lat="44.22763" lon="5.64141">
        <ele>716</ele>
        <time>2019-06-19T08:22:49Z</time>
      </trkpt>
      <trkpt lat="44.22761" lon="5.64134">
        <ele>716</ele>
        <time>2019-06-19T08:22:50Z</time>
      </trkpt>
      <trkpt lat="44.22758" lon="5.64126">
        <ele>716</ele>
        <time>2019-06-19T08:22:51Z</time>
      </trkpt>
      <trkpt lat="44.22755" lon="5.64119">
        <ele>716</ele>
        <time>2019-06-19T08:22:52Z</time>
      </trkpt>
      <trkpt lat="44.22753" lon="5.64112">
        <ele>716</ele>
        <time>2019-06-19T08:22:53Z</time>
      </trkpt>
      <trkpt lat="44.22751" lon="5.64105">
        <ele>716</ele>
        <time>2019-06-19T08:22:54Z</time>
      </trkpt>
      <trkpt lat="44.22749" lon="5.64098">
        <ele>716</ele>
        <time>2019-06-19T08:22:55Z</time>
      </trkpt>
      <trkpt lat="44.22746" lon="5.64093">
        <ele>716</ele>
        <time>2019-06-19T08:22:56Z</time>
      </trkpt>
      <trkpt lat="44.22745" lon="5.64089">
        <ele>716</ele>
        <time>2019-06-19T08:22:57Z</time>
      </trkpt>
      <trkpt lat="44.22746" lon="5.64084">
        <ele>716</ele>
        <time>2019-06-19T08:22:58Z</time>
      </trkpt>
      <trkpt lat="44.22748" lon="5.64079">
        <ele>716</ele>
        <time>2019-06-19T08:22:59Z</time>
      </trkpt>
      <trkpt lat="44.22752" lon="5.64074">
        <ele>716</ele>
        <time>2019-06-19T08:23:00Z</time>
      </trkpt>
      <trkpt lat="44.22755" lon="5.6407">
        <ele>716</ele>
        <time>2019-06-19T08:23:01Z</time>
      </trkpt>
      <trkpt lat="44.2276" lon="5.64065">
        <ele>716</ele>
        <time>2019-06-19T08:23:02Z</time>
      </trkpt>
      <trkpt lat="44.22764" lon="5.6406">
        <ele>716</ele>
        <time>2019-06-19T08:23:03Z</time>
      </trkpt>
      <trkpt lat="44.22768" lon="5.64055">
        <ele>716</ele>
        <time>2019-06-19T08:23:04Z</time>
      </trkpt>
      <trkpt lat="44.22772" lon="5.6405">
        <ele>716</ele>
        <time>2019-06-19T08:23:05Z</time>
      </trkpt>
      <trkpt lat="44.22776" lon="5.64045">
        <ele>716</ele>
        <time>2019-06-19T08:23:06Z</time>
      </trkpt>
      <trkpt lat="44.2278" lon="5.6404">
        <ele>716</ele>
        <time>2019-06-19T08:23:07Z</time>
      </trkpt>
      <trkpt lat="44.22784" lon="5.64035">
        <ele>716</ele>
        <time>2019-06-19T08:23:08Z</time>
      </trkpt>
      <trkpt lat="44.22788" lon="5.6403">
        <ele>716</ele>
        <time>2019-06-19T08:23:09Z</time>
      </trkpt>
      <trkpt lat="44.22792" lon="5.64024">
        <ele>716</ele>
        <time>2019-06-19T08:23:10Z</time>
      </trkpt>
      <trkpt lat="44.22796" lon="5.64019">
        <ele>716</ele>
        <time>2019-06-19T08:23:11Z</time>
      </trkpt>
      <trkpt lat="44.228" lon="5.64013">
        <ele>716</ele>
        <time>2019-06-19T08:23:12Z</time>
      </trkpt>
      <trkpt lat="44.22805" lon="5.64009">
        <ele>716</ele>
        <time>2019-06-19T08:23:13Z</time>
      </trkpt>
      <trkpt lat="44.22809" lon="5.64003">
        <ele>716</ele>
        <time>2019-06-19T08:23:14Z</time>
      </trkpt>
      <trkpt lat="44.22813" lon="5.63998">
        <ele>716</ele>
        <time>2019-06-19T08:23:15Z</time>
      </trkpt>
      <trkpt lat="44.22818" lon="5.63993">
        <ele>716</ele>
        <time>2019-06-19T08:23:16Z</time>
      </trkpt>
      <trkpt lat="44.22822" lon="5.63987">
        <ele>716</ele>
        <time>2019-06-19T08:23:17Z</time>
      </trkpt>
      <trkpt lat="44.22827" lon="5.63982">
        <ele>716</ele>
        <time>2019-06-19T08:23:18Z</time>
      </trkpt>
      <trkpt lat="44.22831" lon="5.63977">
        <ele>716</ele>
        <time>2019-06-19T08:23:19Z</time>
      </trkpt>
      <trkpt lat="44.22836" lon="5.63972">
        <ele>716</ele>
        <time>2019-06-19T08:23:20Z</time>
      </trkpt>
      <trkpt lat="44.22841" lon="5.63966">
        <ele>716</ele>
        <time>2019-06-19T08:23:21Z</time>
      </trkpt>
      <trkpt lat="44.22845" lon="5.63961">
        <ele>716</ele>
        <time>2019-06-19T08:23:22Z</time>
      </trkpt>
      <trkpt lat="44.2285" lon="5.63955">
        <ele>716</ele>
        <time>2019-06-19T08:23:23Z</time>
      </trkpt>
      <trkpt lat="44.22854" lon="5.63949">
        <ele>716</ele>
        <time>2019-06-19T08:23:24Z</time>
      </trkpt>
      <trkpt lat="44.22859" lon="5.63944">
        <ele>716</ele>
        <time>2019-06-19T08:23:25Z</time>
      </trkpt>
      <trkpt lat="44.22864" lon="5.63939">
        <ele>716</ele>
        <time>2019-06-19T08:23:26Z</time>
      </trkpt>
      <trkpt lat="44.22869" lon="5.63934">
        <ele>716</ele>
        <time>2019-06-19T08:23:27Z</time>
      </trkpt>
      <trkpt lat="44.22874" lon="5.63929">
        <ele>716</ele>
        <time>2019-06-19T08:23:28Z</time>
      </trkpt>
      <trkpt lat="44.2288" lon="5.63924">
        <ele>716</ele>
        <time>2019-06-19T08:23:29Z</time>
      </trkpt>
      <trkpt lat="44.22885" lon="5.63919">
        <ele>716</ele>
        <time>2019-06-19T08:23:30Z</time>
      </trkpt>
      <trkpt lat="44.2289" lon="5.63915">
        <ele>716</ele>
        <time>2019-06-19T08:23:31Z</time>
      </trkpt>
      <trkpt lat="44.22895" lon="5.6391">
        <ele>716</ele>
        <time>2019-06-19T08:23:32Z</time>
      </trkpt>
      <trkpt lat="44.229" lon="5.63904">
        <ele>716</ele>
        <time>2019-06-19T08:23:33Z</time>
      </trkpt>
      <trkpt lat="44.22905" lon="5.63899">
        <ele>716</ele>
        <time>2019-06-19T08:23:34Z</time>
      </trkpt>
      <trkpt lat="44.2291" lon="5.63894">
        <ele>716</ele>
        <time>2019-06-19T08:23:35Z</time>
      </trkpt>
      <trkpt lat="44.22915" lon="5.63889">
        <ele>716</ele>
        <time>2019-06-19T08:23:36Z</time>
      </trkpt>
      <trkpt lat="44.2292" lon="5.63883">
        <ele>716</ele>
        <time>2019-06-19T08:23:37Z</time>
      </trkpt>
      <trkpt lat="44.22925" lon="5.63877">
        <ele>716</ele>
        <time>2019-06-19T08:23:38Z</time>
      </trkpt>
      <trkpt lat="44.2293" lon="5.63871">
        <ele>716</ele>
        <time>2019-06-19T08:23:39Z</time>
      </trkpt>
      <trkpt lat="44.22934" lon="5.63865">
        <ele>716</ele>
        <time>2019-06-19T08:23:40Z</time>
      </trkpt>
      <trkpt lat="44.22938" lon="5.6386">
        <ele>716</ele>
        <time>2019-06-19T08:23:41Z</time>
      </trkpt>
      <trkpt lat="44.22942" lon="5.63855">
        <ele>716</ele>
        <time>2019-06-19T08:23:42Z</time>
      </trkpt>
      <trkpt lat="44.22947" lon="5.63849">
        <ele>716</ele>
        <time>2019-06-19T08:23:43Z</time>
      </trkpt>
      <trkpt lat="44.22951" lon="5.63844">
        <ele>716</ele>
        <time>2019-06-19T08:23:44Z</time>
      </trkpt>
      <trkpt lat="44.22955" lon="5.6384">
        <ele>716</ele>
        <time>2019-06-19T08:23:45Z</time>
      </trkpt>
      <trkpt lat="44.22959" lon="5.63835">
        <ele>716</ele>
        <time>2019-06-19T08:23:46Z</time>
      </trkpt>
      <trkpt lat="44.22963" lon="5.63831">
        <ele>715</ele>
        <time>2019-06-19T08:23:47Z</time>
      </trkpt>
      <trkpt lat="44.22967" lon="5.63826">
        <ele>715</ele>
        <time>2019-06-19T08:23:48Z</time>
      </trkpt>
      <trkpt lat="44.22971" lon="5.63822">
        <ele>715</ele>
        <time>2019-06-19T08:23:49Z</time>
      </trkpt>
      <trkpt lat="44.22974" lon="5.63819">
        <ele>715</ele>
        <time>2019-06-19T08:23:50Z</time>
      </trkpt>
      <trkpt lat="44.22979" lon="5.63815">
        <ele>715</ele>
        <time>2019-06-19T08:23:51Z</time>
      </trkpt>
      <trkpt lat="44.22984" lon="5.63812">
        <ele>715</ele>
        <time>2019-06-19T08:23:52Z</time>
      </trkpt>
      <trkpt lat="44.22989" lon="5.6381">
        <ele>715</ele>
        <time>2019-06-19T08:23:53Z</time>
      </trkpt>
      <trkpt lat="44.22994" lon="5.63807">
        <ele>715</ele>
        <time>2019-06-19T08:23:54Z</time>
      </trkpt>
      <trkpt lat="44.22999" lon="5.63804">
        <ele>715</ele>
        <time>2019-06-19T08:23:55Z</time>
      </trkpt>
      <trkpt lat="44.23005" lon="5.63801">
        <ele>715</ele>
        <time>2019-06-19T08:23:56Z</time>
      </trkpt>
      <trkpt lat="44.23011" lon="5.63797">
        <ele>715</ele>
        <time>2019-06-19T08:23:57Z</time>
      </trkpt>
      <trkpt lat="44.23016" lon="5.63793">
        <ele>715</ele>
        <time>2019-06-19T08:23:58Z</time>
      </trkpt>
      <trkpt lat="44.23021" lon="5.6379">
        <ele>715</ele>
        <time>2019-06-19T08:23:59Z</time>
      </trkpt>
      <trkpt lat="44.23027" lon="5.63786">
        <ele>715</ele>
        <time>2019-06-19T08:24:00Z</time>
      </trkpt>
      <trkpt lat="44.23032" lon="5.63782">
        <ele>715</ele>
        <time>2019-06-19T08:24:01Z</time>
      </trkpt>
      <trkpt lat="44.23037" lon="5.63778">
        <ele>715</ele>
        <time>2019-06-19T08:24:02Z</time>
      </trkpt>
      <trkpt lat="44.23042" lon="5.63773">
        <ele>715</ele>
        <time>2019-06-19T08:24:03Z</time>
      </trkpt>
      <trkpt lat="44.23047" lon="5.63769">
        <ele>715</ele>
        <time>2019-06-19T08:24:04Z</time>
      </trkpt>
      <trkpt lat="44.23052" lon="5.63764">
        <ele>715</ele>
        <time>2019-06-19T08:24:05Z</time>
      </trkpt>
      <trkpt lat="44.23057" lon="5.6376">
        <ele>715</ele>
        <time>2019-06-19T08:24:06Z</time>
      </trkpt>
      <trkpt lat="44.23062" lon="5.63755">
        <ele>715</ele>
        <time>2019-06-19T08:24:07Z</time>
      </trkpt>
      <trkpt lat="44.23068" lon="5.63752">
        <ele>715</ele>
        <time>2019-06-19T08:24:08Z</time>
      </trkpt>
      <trkpt lat="44.23074" lon="5.6375">
        <ele>715</ele>
        <time>2019-06-19T08:24:09Z</time>
      </trkpt>
      <trkpt lat="44.23081" lon="5.63749">
        <ele>715</ele>
        <time>2019-06-19T08:24:10Z</time>
      </trkpt>
      <trkpt lat="44.23087" lon="5.63747">
        <ele>715</ele>
        <time>2019-06-19T08:24:11Z</time>
      </trkpt>
      <trkpt lat="44.23093" lon="5.63746">
        <ele>715</ele>
        <time>2019-06-19T08:24:12Z</time>
      </trkpt>
      <trkpt lat="44.23098" lon="5.63745">
        <ele>715</ele>
        <time>2019-06-19T08:24:13Z</time>
      </trkpt>
      <trkpt lat="44.23103" lon="5.63743">
        <ele>715</ele>
        <time>2019-06-19T08:24:14Z</time>
      </trkpt>
      <trkpt lat="44.23108" lon="5.63741">
        <ele>715</ele>
        <time>2019-06-19T08:24:15Z</time>
      </trkpt>
      <trkpt lat="44.23112" lon="5.63738">
        <ele>715</ele>
        <time>2019-06-19T08:24:16Z</time>
      </trkpt>
      <trkpt lat="44.23116" lon="5.63734">
        <ele>715</ele>
        <time>2019-06-19T08:24:17Z</time>
      </trkpt>
      <trkpt lat="44.2312" lon="5.63729">
        <ele>715</ele>
        <time>2019-06-19T08:24:18Z</time>
      </trkpt>
      <trkpt lat="44.23124" lon="5.63725">
        <ele>715</ele>
        <time>2019-06-19T08:24:19Z</time>
      </trkpt>
      <trkpt lat="44.23128" lon="5.63721">
        <ele>715</ele>
        <time>2019-06-19T08:24:20Z</time>
      </trkpt>
      <trkpt lat="44.23132" lon="5.63717">
        <ele>715</ele>
        <time>2019-06-19T08:24:21Z</time>
      </trkpt>
      <trkpt lat="44.23136" lon="5.63713">
        <ele>715</ele>
        <time>2019-06-19T08:24:22Z</time>
      </trkpt>
      <trkpt lat="44.2314" lon="5.63708">
        <ele>715</ele>
        <time>2019-06-19T08:24:23Z</time>
      </trkpt>
      <trkpt lat="44.23143" lon="5.63704">
        <ele>715</ele>
        <time>2019-06-19T08:24:24Z</time>
      </trkpt>
      <trkpt lat="44.23146" lon="5.63699">
        <ele>715</ele>
        <time>2019-06-19T08:24:25Z</time>
      </trkpt>
      <trkpt lat="44.23149" lon="5.63694">
        <ele>715</ele>
        <time>2019-06-19T08:24:26Z</time>
      </trkpt>
      <trkpt lat="44.23153" lon="5.63689">
        <ele>715</ele>
        <time>2019-06-19T08:24:27Z</time>
      </trkpt>
      <trkpt lat="44.23156" lon="5.63683">
        <ele>715</ele>
        <time>2019-06-19T08:24:28Z</time>
      </trkpt>
      <trkpt lat="44.23159" lon="5.63678">
        <ele>715</ele>
        <time>2019-06-19T08:24:29Z</time>
      </trkpt>
      <trkpt lat="44.23161" lon="5.63674">
        <ele>715</ele>
        <time>2019-06-19T08:24:30Z</time>
      </trkpt>
      <trkpt lat="44.23163" lon="5.6367">
        <ele>715</ele>
        <time>2019-06-19T08:24:31Z</time>
      </trkpt>
      <trkpt lat="44.23166" lon="5.63665">
        <ele>715</ele>
        <time>2019-06-19T08:24:32Z</time>
      </trkpt>
      <trkpt lat="44.23169" lon="5.63659">
        <ele>715</ele>
        <time>2019-06-19T08:24:33Z</time>
      </trkpt>
      <trkpt lat="44.23172" lon="5.63653">
        <ele>715</ele>
        <time>2019-06-19T08:24:34Z</time>
      </trkpt>
      <trkpt lat="44.23174" lon="5.63647">
        <ele>715</ele>
        <time>2019-06-19T08:24:35Z</time>
      </trkpt>
      <trkpt lat="44.23177" lon="5.63641">
        <ele>715</ele>
        <time>2019-06-19T08:24:36Z</time>
      </trkpt>
      <trkpt lat="44.2318" lon="5.63634">
        <ele>715</ele>
        <time>2019-06-19T08:24:37Z</time>
      </trkpt>
      <trkpt lat="44.23184" lon="5.63628">
        <ele>714</ele>
        <time>2019-06-19T08:24:38Z</time>
      </trkpt>
      <trkpt lat="44.23187" lon="5.63622">
        <ele>713</ele>
        <time>2019-06-19T08:24:39Z</time>
      </trkpt>
      <trkpt lat="44.23191" lon="5.63615">
        <ele>713</ele>
        <time>2019-06-19T08:24:40Z</time>
      </trkpt>
      <trkpt lat="44.23196" lon="5.63609">
        <ele>713</ele>
        <time>2019-06-19T08:24:41Z</time>
      </trkpt>
      <trkpt lat="44.232" lon="5.63602">
        <ele>713</ele>
        <time>2019-06-19T08:24:42Z</time>
      </trkpt>
      <trkpt lat="44.23204" lon="5.63595">
        <ele>713</ele>
        <time>2019-06-19T08:24:43Z</time>
      </trkpt>
      <trkpt lat="44.23208" lon="5.63588">
        <ele>712</ele>
        <time>2019-06-19T08:24:44Z</time>
      </trkpt>
      <trkpt lat="44.23212" lon="5.63579">
        <ele>711</ele>
        <time>2019-06-19T08:24:45Z</time>
      </trkpt>
      <trkpt lat="44.23217" lon="5.6357">
        <ele>710</ele>
        <time>2019-06-19T08:24:46Z</time>
      </trkpt>
      <trkpt lat="44.23222" lon="5.63561">
        <ele>710</ele>
        <time>2019-06-19T08:24:47Z</time>
      </trkpt>
      <trkpt lat="44.23227" lon="5.63552">
        <ele>709</ele>
        <time>2019-06-19T08:24:48Z</time>
      </trkpt>
      <trkpt lat="44.23232" lon="5.63543">
        <ele>708</ele>
        <time>2019-06-19T08:24:49Z</time>
      </trkpt>
      <trkpt lat="44.23238" lon="5.63533">
        <ele>707</ele>
        <time>2019-06-19T08:24:50Z</time>
      </trkpt>
      <trkpt lat="44.23243" lon="5.63524">
        <ele>707</ele>
        <time>2019-06-19T08:24:51Z</time>
      </trkpt>
      <trkpt lat="44.23249" lon="5.63515">
        <ele>706</ele>
        <time>2019-06-19T08:24:52Z</time>
      </trkpt>
      <trkpt lat="44.23254" lon="5.63506">
        <ele>706</ele>
        <time>2019-06-19T08:24:53Z</time>
      </trkpt>
      <trkpt lat="44.2326" lon="5.63497">
        <ele>705</ele>
        <time>2019-06-19T08:24:54Z</time>
      </trkpt>
      <trkpt lat="44.23265" lon="5.63488">
        <ele>705</ele>
        <time>2019-06-19T08:24:55Z</time>
      </trkpt>
      <trkpt lat="44.2327" lon="5.63479">
        <ele>704</ele>
        <time>2019-06-19T08:24:56Z</time>
      </trkpt>
      <trkpt lat="44.23275" lon="5.6347">
        <ele>704</ele>
        <time>2019-06-19T08:24:57Z</time>
      </trkpt>
      <trkpt lat="44.23281" lon="5.63461">
        <ele>703</ele>
        <time>2019-06-19T08:24:58Z</time>
      </trkpt>
      <trkpt lat="44.23286" lon="5.63453">
        <ele>703</ele>
        <time>2019-06-19T08:24:59Z</time>
      </trkpt>
      <trkpt lat="44.23291" lon="5.63444">
        <ele>702</ele>
        <time>2019-06-19T08:25:00Z</time>
      </trkpt>
      <trkpt lat="44.23295" lon="5.63436">
        <ele>702</ele>
        <time>2019-06-19T08:25:01Z</time>
      </trkpt>
      <trkpt lat="44.233" lon="5.63428">
        <ele>702</ele>
        <time>2019-06-19T08:25:02Z</time>
      </trkpt>
      <trkpt lat="44.23304" lon="5.6342">
        <ele>702</ele>
        <time>2019-06-19T08:25:03Z</time>
      </trkpt>
      <trkpt lat="44.23309" lon="5.63413">
        <ele>702</ele>
        <time>2019-06-19T08:25:04Z</time>
      </trkpt>
      <trkpt lat="44.23314" lon="5.63406">
        <ele>702</ele>
        <time>2019-06-19T08:25:05Z</time>
      </trkpt>
      <trkpt lat="44.23318" lon="5.63398">
        <ele>702</ele>
        <time>2019-06-19T08:25:06Z</time>
      </trkpt>
      <trkpt lat="44.23323" lon="5.6339">
        <ele>702</ele>
        <time>2019-06-19T08:25:07Z</time>
      </trkpt>
      <trkpt lat="44.23327" lon="5.63383">
        <ele>702</ele>
        <time>2019-06-19T08:25:08Z</time>
      </trkpt>
      <trkpt lat="44.23331" lon="5.63376">
        <ele>702</ele>
        <time>2019-06-19T08:25:09Z</time>
      </trkpt>
      <trkpt lat="44.23336" lon="5.63368">
        <ele>702</ele>
        <time>2019-06-19T08:25:10Z</time>
      </trkpt>
      <trkpt lat="44.2334" lon="5.6336">
        <ele>701</ele>
        <time>2019-06-19T08:25:11Z</time>
      </trkpt>
      <trkpt lat="44.23344" lon="5.63352">
        <ele>701</ele>
        <time>2019-06-19T08:25:12Z</time>
      </trkpt>
      <trkpt lat="44.23347" lon="5.63344">
        <ele>701</ele>
        <time>2019-06-19T08:25:13Z</time>
      </trkpt>
      <trkpt lat="44.23349" lon="5.63336">
        <ele>701</ele>
        <time>2019-06-19T08:25:14Z</time>
      </trkpt>
      <trkpt lat="44.23352" lon="5.63328">
        <ele>701</ele>
        <time>2019-06-19T08:25:15Z</time>
      </trkpt>
      <trkpt lat="44.23354" lon="5.63321">
        <ele>701</ele>
        <time>2019-06-19T08:25:16Z</time>
      </trkpt>
      <trkpt lat="44.23355" lon="5.63313">
        <ele>701</ele>
        <time>2019-06-19T08:25:17Z</time>
      </trkpt>
      <trkpt lat="44.23357" lon="5.63305">
        <ele>701</ele>
        <time>2019-06-19T08:25:18Z</time>
      </trkpt>
      <trkpt lat="44.23358" lon="5.63298">
        <ele>701</ele>
        <time>2019-06-19T08:25:19Z</time>
      </trkpt>
      <trkpt lat="44.23359" lon="5.63291">
        <ele>701</ele>
        <time>2019-06-19T08:25:20Z</time>
      </trkpt>
      <trkpt lat="44.2336" lon="5.63283">
        <ele>701</ele>
        <time>2019-06-19T08:25:21Z</time>
      </trkpt>
      <trkpt lat="44.2336" lon="5.63276">
        <ele>701</ele>
        <time>2019-06-19T08:25:22Z</time>
      </trkpt>
      <trkpt lat="44.23361" lon="5.63268">
        <ele>701</ele>
        <time>2019-06-19T08:25:23Z</time>
      </trkpt>
      <trkpt lat="44.23362" lon="5.63261">
        <ele>701</ele>
        <time>2019-06-19T08:25:24Z</time>
      </trkpt>
      <trkpt lat="44.23362" lon="5.63254">
        <ele>701</ele>
        <time>2019-06-19T08:25:25Z</time>
      </trkpt>
      <trkpt lat="44.23363" lon="5.63247">
        <ele>701</ele>
        <time>2019-06-19T08:25:26Z</time>
      </trkpt>
      <trkpt lat="44.23364" lon="5.6324">
        <ele>701</ele>
        <time>2019-06-19T08:25:27Z</time>
      </trkpt>
      <trkpt lat="44.23364" lon="5.63232">
        <ele>701</ele>
        <time>2019-06-19T08:25:28Z</time>
      </trkpt>
      <trkpt lat="44.23365" lon="5.63225">
        <ele>701</ele>
        <time>2019-06-19T08:25:29Z</time>
      </trkpt>
      <trkpt lat="44.23365" lon="5.63217">
        <ele>701</ele>
        <time>2019-06-19T08:25:30Z</time>
      </trkpt>
      <trkpt lat="44.23365" lon="5.63209">
        <ele>701</ele>
        <time>2019-06-19T08:25:31Z</time>
      </trkpt>
      <trkpt lat="44.23366" lon="5.63201">
        <ele>701</ele>
        <time>2019-06-19T08:25:32Z</time>
      </trkpt>
      <trkpt lat="44.23366" lon="5.63193">
        <ele>701</ele>
        <time>2019-06-19T08:25:33Z</time>
      </trkpt>
      <trkpt lat="44.23367" lon="5.63185">
        <ele>701</ele>
        <time>2019-06-19T08:25:34Z</time>
      </trkpt>
      <trkpt lat="44.23366" lon="5.63177">
        <ele>701</ele>
        <time>2019-06-19T08:25:35Z</time>
      </trkpt>
      <trkpt lat="44.23366" lon="5.63168">
        <ele>701</ele>
        <time>2019-06-19T08:25:36Z</time>
      </trkpt>
      <trkpt lat="44.23365" lon="5.6316">
        <ele>701</ele>
        <time>2019-06-19T08:25:37Z</time>
      </trkpt>
      <trkpt lat="44.23363" lon="5.63152">
        <ele>701</ele>
        <time>2019-06-19T08:25:38Z</time>
      </trkpt>
      <trkpt lat="44.23362" lon="5.63145">
        <ele>701</ele>
        <time>2019-06-19T08:25:39Z</time>
      </trkpt>
      <trkpt lat="44.23359" lon="5.63138">
        <ele>701</ele>
        <time>2019-06-19T08:25:40Z</time>
      </trkpt>
      <trkpt lat="44.23355" lon="5.63132">
        <ele>701</ele>
        <time>2019-06-19T08:25:41Z</time>
      </trkpt>
      <trkpt lat="44.23351" lon="5.63127">
        <ele>701</ele>
        <time>2019-06-19T08:25:42Z</time>
      </trkpt>
      <trkpt lat="44.23347" lon="5.63123">
        <ele>701</ele>
        <time>2019-06-19T08:25:43Z</time>
      </trkpt>
      <trkpt lat="44.23342" lon="5.63121">
        <ele>701</ele>
        <time>2019-06-19T08:25:44Z</time>
      </trkpt>
      <trkpt lat="44.23337" lon="5.63118">
        <ele>701</ele>
        <time>2019-06-19T08:25:45Z</time>
      </trkpt>
      <trkpt lat="44.23332" lon="5.63116">
        <ele>701</ele>
        <time>2019-06-19T08:25:46Z</time>
      </trkpt>
      <trkpt lat="44.23327" lon="5.63115">
        <ele>701</ele>
        <time>2019-06-19T08:25:47Z</time>
      </trkpt>
      <trkpt lat="44.23322" lon="5.63113">
        <ele>701</ele>
        <time>2019-06-19T08:25:48Z</time>
      </trkpt>
      <trkpt lat="44.23317" lon="5.63112">
        <ele>700</ele>
        <time>2019-06-19T08:25:49Z</time>
      </trkpt>
      <trkpt lat="44.23311" lon="5.6311">
        <ele>700</ele>
        <time>2019-06-19T08:25:50Z</time>
      </trkpt>
      <trkpt lat="44.23306" lon="5.63109">
        <ele>700</ele>
        <time>2019-06-19T08:25:51Z</time>
      </trkpt>
      <trkpt lat="44.233" lon="5.63108">
        <ele>700</ele>
        <time>2019-06-19T08:25:52Z</time>
      </trkpt>
      <trkpt lat="44.23294" lon="5.63106">
        <ele>700</ele>
        <time>2019-06-19T08:25:53Z</time>
      </trkpt>
      <trkpt lat="44.23289" lon="5.63104">
        <ele>700</ele>
        <time>2019-06-19T08:25:54Z</time>
      </trkpt>
      <trkpt lat="44.23283" lon="5.63103">
        <ele>700</ele>
        <time>2019-06-19T08:25:55Z</time>
      </trkpt>
      <trkpt lat="44.23278" lon="5.63102">
        <ele>700</ele>
        <time>2019-06-19T08:25:56Z</time>
      </trkpt>
      <trkpt lat="44.23272" lon="5.63101">
        <ele>700</ele>
        <time>2019-06-19T08:25:57Z</time>
      </trkpt>
      <trkpt lat="44.23267" lon="5.63099">
        <ele>700</ele>
        <time>2019-06-19T08:25:58Z</time>
      </trkpt>
      <trkpt lat="44.23261" lon="5.63098">
        <ele>700</ele>
        <time>2019-06-19T08:25:59Z</time>
      </trkpt>
      <trkpt lat="44.23256" lon="5.63096">
        <ele>700</ele>
        <time>2019-06-19T08:26:00Z</time>
      </trkpt>
      <trkpt lat="44.2325" lon="5.63095">
        <ele>700</ele>
        <time>2019-06-19T08:26:01Z</time>
      </trkpt>
      <trkpt lat="44.23244" lon="5.63093">
        <ele>700</ele>
        <time>2019-06-19T08:26:02Z</time>
      </trkpt>
      <trkpt lat="44.23238" lon="5.63092">
        <ele>700</ele>
        <time>2019-06-19T08:26:03Z</time>
      </trkpt>
      <trkpt lat="44.23233" lon="5.6309">
        <ele>700</ele>
        <time>2019-06-19T08:26:04Z</time>
      </trkpt>
      <trkpt lat="44.23227" lon="5.63088">
        <ele>700</ele>
        <time>2019-06-19T08:26:05Z</time>
      </trkpt>
      <trkpt lat="44.23221" lon="5.63087">
        <ele>700</ele>
        <time>2019-06-19T08:26:06Z</time>
      </trkpt>
      <trkpt lat="44.23215" lon="5.63085">
        <ele>700</ele>
        <time>2019-06-19T08:26:07Z</time>
      </trkpt>
      <trkpt lat="44.23209" lon="5.63084">
        <ele>700</ele>
        <time>2019-06-19T08:26:08Z</time>
      </trkpt>
      <trkpt lat="44.23203" lon="5.63082">
        <ele>700</ele>
        <time>2019-06-19T08:26:09Z</time>
      </trkpt>
      <trkpt lat="44.23197" lon="5.63081">
        <ele>700</ele>
        <time>2019-06-19T08:26:10Z</time>
      </trkpt>
      <trkpt lat="44.23191" lon="5.6308">
        <ele>700</ele>
        <time>2019-06-19T08:26:11Z</time>
      </trkpt>
      <trkpt lat="44.23185" lon="5.63079">
        <ele>700</ele>
        <time>2019-06-19T08:26:12Z</time>
      </trkpt>
      <trkpt lat="44.23179" lon="5.63078">
        <ele>700</ele>
        <time>2019-06-19T08:26:13Z</time>
      </trkpt>
      <trkpt lat="44.23173" lon="5.63076">
        <ele>700</ele>
        <time>2019-06-19T08:26:14Z</time>
      </trkpt>
      <trkpt lat="44.23167" lon="5.63075">
        <ele>700</ele>
        <time>2019-06-19T08:26:15Z</time>
      </trkpt>
      <trkpt lat="44.23161" lon="5.63073">
        <ele>700</ele>
        <time>2019-06-19T08:26:16Z</time>
      </trkpt>
      <trkpt lat="44.23155" lon="5.63071">
        <ele>700</ele>
        <time>2019-06-19T08:26:17Z</time>
      </trkpt>
      <trkpt lat="44.23149" lon="5.6307">
        <ele>700</ele>
        <time>2019-06-19T08:26:18Z</time>
      </trkpt>
      <trkpt lat="44.23143" lon="5.63068">
        <ele>700</ele>
        <time>2019-06-19T08:26:19Z</time>
      </trkpt>
      <trkpt lat="44.23138" lon="5.63067">
        <ele>700</ele>
        <time>2019-06-19T08:26:20Z</time>
      </trkpt>
      <trkpt lat="44.23132" lon="5.63065">
        <ele>700</ele>
        <time>2019-06-19T08:26:21Z</time>
      </trkpt>
      <trkpt lat="44.23126" lon="5.63064">
        <ele>700</ele>
        <time>2019-06-19T08:26:22Z</time>
      </trkpt>
      <trkpt lat="44.2312" lon="5.63062">
        <ele>700</ele>
        <time>2019-06-19T08:26:23Z</time>
      </trkpt>
      <trkpt lat="44.23115" lon="5.63061">
        <ele>700</ele>
        <time>2019-06-19T08:26:24Z</time>
      </trkpt>
      <trkpt lat="44.2311" lon="5.63059">
        <ele>700</ele>
        <time>2019-06-19T08:26:25Z</time>
      </trkpt>
      <trkpt lat="44.23104" lon="5.63057">
        <ele>700</ele>
        <time>2019-06-19T08:26:26Z</time>
      </trkpt>
      <trkpt lat="44.23099" lon="5.63056">
        <ele>700</ele>
        <time>2019-06-19T08:26:27Z</time>
      </trkpt>
      <trkpt lat="44.23094" lon="5.63054">
        <ele>700</ele>
        <time>2019-06-19T08:26:28Z</time>
      </trkpt>
      <trkpt lat="44.23089" lon="5.63052">
        <ele>700</ele>
        <time>2019-06-19T08:26:29Z</time>
      </trkpt>
      <trkpt lat="44.23084" lon="5.63049">
        <ele>700</ele>
        <time>2019-06-19T08:26:30Z</time>
      </trkpt>
      <trkpt lat="44.23079" lon="5.63047">
        <ele>700</ele>
        <time>2019-06-19T08:26:31Z</time>
      </trkpt>
      <trkpt lat="44.23075" lon="5.63044">
        <ele>700</ele>
        <time>2019-06-19T08:26:32Z</time>
      </trkpt>
      <trkpt lat="44.2307" lon="5.63041">
        <ele>700</ele>
        <time>2019-06-19T08:26:33Z</time>
      </trkpt>
      <trkpt lat="44.23066" lon="5.63038">
        <ele>700</ele>
        <time>2019-06-19T08:26:34Z</time>
      </trkpt>
      <trkpt lat="44.23062" lon="5.63035">
        <ele>700</ele>
        <time>2019-06-19T08:26:35Z</time>
      </trkpt>
      <trkpt lat="44.23058" lon="5.63031">
        <ele>700</ele>
        <time>2019-06-19T08:26:36Z</time>
      </trkpt>
      <trkpt lat="44.23053" lon="5.63028">
        <ele>700</ele>
        <time>2019-06-19T08:26:37Z</time>
      </trkpt>
      <trkpt lat="44.23049" lon="5.63024">
        <ele>700</ele>
        <time>2019-06-19T08:26:38Z</time>
      </trkpt>
      <trkpt lat="44.23045" lon="5.6302">
        <ele>700</ele>
        <time>2019-06-19T08:26:39Z</time>
      </trkpt>
      <trkpt lat="44.23042" lon="5.63015">
        <ele>700</ele>
        <time>2019-06-19T08:26:40Z</time>
      </trkpt>
      <trkpt lat="44.23038" lon="5.63011">
        <ele>700</ele>
        <time>2019-06-19T08:26:41Z</time>
      </trkpt>
      <trkpt lat="44.23034" lon="5.63006">
        <ele>700</ele>
        <time>2019-06-19T08:26:42Z</time>
      </trkpt>
      <trkpt lat="44.2303" lon="5.63001">
        <ele>700</ele>
        <time>2019-06-19T08:26:43Z</time>
      </trkpt>
      <trkpt lat="44.23027" lon="5.62997">
        <ele>700</ele>
        <time>2019-06-19T08:26:44Z</time>
      </trkpt>
      <trkpt lat="44.23023" lon="5.62992">
        <ele>700</ele>
        <time>2019-06-19T08:26:45Z</time>
      </trkpt>
      <trkpt lat="44.23019" lon="5.62987">
        <ele>700</ele>
        <time>2019-06-19T08:26:46Z</time>
      </trkpt>
      <trkpt lat="44.23015" lon="5.62983">
        <ele>700</ele>
        <time>2019-06-19T08:26:47Z</time>
      </trkpt>
      <trkpt lat="44.23012" lon="5.62979">
        <ele>700</ele>
        <time>2019-06-19T08:26:48Z</time>
      </trkpt>
      <trkpt lat="44.23008" lon="5.62975">
        <ele>700</ele>
        <time>2019-06-19T08:26:49Z</time>
      </trkpt>
      <trkpt lat="44.23004" lon="5.62971">
        <ele>700</ele>
        <time>2019-06-19T08:26:50Z</time>
      </trkpt>
      <trkpt lat="44.23" lon="5.62968">
        <ele>700</ele>
        <time>2019-06-19T08:26:51Z</time>
      </trkpt>
      <trkpt lat="44.22996" lon="5.62964">
        <ele>700</ele>
        <time>2019-06-19T08:26:52Z</time>
      </trkpt>
      <trkpt lat="44.22992" lon="5.6296">
        <ele>700</ele>
        <time>2019-06-19T08:26:53Z</time>
      </trkpt>
      <trkpt lat="44.22988" lon="5.62957">
        <ele>700</ele>
        <time>2019-06-19T08:26:54Z</time>
      </trkpt>
      <trkpt lat="44.22984" lon="5.62954">
        <ele>700</ele>
        <time>2019-06-19T08:26:55Z</time>
      </trkpt>
      <trkpt lat="44.2298" lon="5.62951">
        <ele>700</ele>
        <time>2019-06-19T08:26:56Z</time>
      </trkpt>
      <trkpt lat="44.22976" lon="5.62949">
        <ele>700</ele>
        <time>2019-06-19T08:26:57Z</time>
      </trkpt>
      <trkpt lat="44.22972" lon="5.62947">
        <ele>700</ele>
        <time>2019-06-19T08:26:58Z</time>
      </trkpt>
      <trkpt lat="44.22967" lon="5.62945">
        <ele>700</ele>
        <time>2019-06-19T08:26:59Z</time>
      </trkpt>
      <trkpt lat="44.22963" lon="5.62942">
        <ele>700</ele>
        <time>2019-06-19T08:27:00Z</time>
      </trkpt>
      <trkpt lat="44.22959" lon="5.6294">
        <ele>700</ele>
        <time>2019-06-19T08:27:01Z</time>
      </trkpt>
      <trkpt lat="44.22955" lon="5.62937">
        <ele>700</ele>
        <time>2019-06-19T08:27:02Z</time>
      </trkpt>
      <trkpt lat="44.22952" lon="5.62934">
        <ele>700</ele>
        <time>2019-06-19T08:27:03Z</time>
      </trkpt>
      <trkpt lat="44.22948" lon="5.62931">
        <ele>700</ele>
        <time>2019-06-19T08:27:04Z</time>
      </trkpt>
      <trkpt lat="44.22944" lon="5.62929">
        <ele>700</ele>
        <time>2019-06-19T08:27:05Z</time>
      </trkpt>
      <trkpt lat="44.22941" lon="5.62926">
        <ele>700</ele>
        <time>2019-06-19T08:27:06Z</time>
      </trkpt>
      <trkpt lat="44.22937" lon="5.62923">
        <ele>700</ele>
        <time>2019-06-19T08:27:07Z</time>
      </trkpt>
      <trkpt lat="44.22935" lon="5.6292">
        <ele>700</ele>
        <time>2019-06-19T08:27:08Z</time>
      </trkpt>
      <trkpt lat="44.22932" lon="5.62917">
        <ele>700</ele>
        <time>2019-06-19T08:27:09Z</time>
      </trkpt>
      <trkpt lat="44.22929" lon="5.62914">
        <ele>700</ele>
        <time>2019-06-19T08:27:10Z</time>
      </trkpt>
      <trkpt lat="44.22926" lon="5.62911">
        <ele>700</ele>
        <time>2019-06-19T08:27:11Z</time>
      </trkpt>
      <trkpt lat="44.22923" lon="5.62907">
        <ele>701</ele>
        <time>2019-06-19T08:27:12Z</time>
      </trkpt>
      <trkpt lat="44.22919" lon="5.62903">
        <ele>701</ele>
        <time>2019-06-19T08:27:13Z</time>
      </trkpt>
      <trkpt lat="44.22916" lon="5.629">
        <ele>702</ele>
        <time>2019-06-19T08:27:14Z</time>
      </trkpt>
      <trkpt lat="44.22913" lon="5.62897">
        <ele>703</ele>
        <time>2019-06-19T08:27:15Z</time>
      </trkpt>
      <trkpt lat="44.2291" lon="5.62893">
        <ele>704</ele>
        <time>2019-06-19T08:27:16Z</time>
      </trkpt>
      <trkpt lat="44.22906" lon="5.6289">
        <ele>705</ele>
        <time>2019-06-19T08:27:17Z</time>
      </trkpt>
      <trkpt lat="44.22903" lon="5.62886">
        <ele>705</ele>
        <time>2019-06-19T08:27:18Z</time>
      </trkpt>
      <trkpt lat="44.229" lon="5.62882">
        <ele>706</ele>
        <time>2019-06-19T08:27:19Z</time>
      </trkpt>
      <trkpt lat="44.22896" lon="5.62879">
        <ele>706</ele>
        <time>2019-06-19T08:27:20Z</time>
      </trkpt>
      <trkpt lat="44.22893" lon="5.62875">
        <ele>707</ele>
        <time>2019-06-19T08:27:21Z</time>
      </trkpt>
      <trkpt lat="44.2289" lon="5.62872">
        <ele>707</ele>
        <time>2019-06-19T08:27:22Z</time>
      </trkpt>
      <trkpt lat="44.22887" lon="5.62867">
        <ele>707</ele>
        <time>2019-06-19T08:27:23Z</time>
      </trkpt>
      <trkpt lat="44.22883" lon="5.62864">
        <ele>707</ele>
        <time>2019-06-19T08:27:24Z</time>
      </trkpt>
      <trkpt lat="44.2288" lon="5.6286">
        <ele>707</ele>
        <time>2019-06-19T08:27:25Z</time>
      </trkpt>
      <trkpt lat="44.22876" lon="5.62856">
        <ele>707</ele>
        <time>2019-06-19T08:27:26Z</time>
      </trkpt>
      <trkpt lat="44.22874" lon="5.62852">
        <ele>707</ele>
        <time>2019-06-19T08:27:27Z</time>
      </trkpt>
      <trkpt lat="44.2287" lon="5.62849">
        <ele>707</ele>
        <time>2019-06-19T08:27:28Z</time>
      </trkpt>
      <trkpt lat="44.22867" lon="5.62845">
        <ele>707</ele>
        <time>2019-06-19T08:27:29Z</time>
      </trkpt>
      <trkpt lat="44.22864" lon="5.62841">
        <ele>707</ele>
        <time>2019-06-19T08:27:30Z</time>
      </trkpt>
      <trkpt lat="44.22861" lon="5.62837">
        <ele>707</ele>
        <time>2019-06-19T08:27:31Z</time>
      </trkpt>
      <trkpt lat="44.22858" lon="5.62833">
        <ele>707</ele>
        <time>2019-06-19T08:27:32Z</time>
      </trkpt>
      <trkpt lat="44.22855" lon="5.62828">
        <ele>707</ele>
        <time>2019-06-19T08:27:33Z</time>
      </trkpt>
      <trkpt lat="44.22852" lon="5.62824">
        <ele>707</ele>
        <time>2019-06-19T08:27:34Z</time>
      </trkpt>
      <trkpt lat="44.22849" lon="5.6282">
        <ele>707</ele>
        <time>2019-06-19T08:27:35Z</time>
      </trkpt>
      <trkpt lat="44.22845" lon="5.62815">
        <ele>707</ele>
        <time>2019-06-19T08:27:36Z</time>
      </trkpt>
      <trkpt lat="44.22842" lon="5.62811">
        <ele>707</ele>
        <time>2019-06-19T08:27:37Z</time>
      </trkpt>
      <trkpt lat="44.22839" lon="5.62806">
        <ele>707</ele>
        <time>2019-06-19T08:27:38Z</time>
      </trkpt>
      <trkpt lat="44.22835" lon="5.62802">
        <ele>707</ele>
        <time>2019-06-19T08:27:39Z</time>
      </trkpt>
      <trkpt lat="44.22832" lon="5.62797">
        <ele>707</ele>
        <time>2019-06-19T08:27:40Z</time>
      </trkpt>
      <trkpt lat="44.22828" lon="5.62793">
        <ele>707</ele>
        <time>2019-06-19T08:27:41Z</time>
      </trkpt>
      <trkpt lat="44.22825" lon="5.62788">
        <ele>707</ele>
        <time>2019-06-19T08:27:42Z</time>
      </trkpt>
      <trkpt lat="44.22821" lon="5.62784">
        <ele>707</ele>
        <time>2019-06-19T08:27:43Z</time>
      </trkpt>
      <trkpt lat="44.22817" lon="5.6278">
        <ele>707</ele>
        <time>2019-06-19T08:27:44Z</time>
      </trkpt>
      <trkpt lat="44.22813" lon="5.62776">
        <ele>707</ele>
        <time>2019-06-19T08:27:45Z</time>
      </trkpt>
      <trkpt lat="44.22809" lon="5.62772">
        <ele>707</ele>
        <time>2019-06-19T08:27:46Z</time>
      </trkpt>
      <trkpt lat="44.22804" lon="5.62768">
        <ele>707</ele>
        <time>2019-06-19T08:27:47Z</time>
      </trkpt>
      <trkpt lat="44.228" lon="5.62764">
        <ele>707</ele>
        <time>2019-06-19T08:27:48Z</time>
      </trkpt>
      <trkpt lat="44.22796" lon="5.62759">
        <ele>707</ele>
        <time>2019-06-19T08:27:49Z</time>
      </trkpt>
      <trkpt lat="44.22792" lon="5.62755">
        <ele>707</ele>
        <time>2019-06-19T08:27:50Z</time>
      </trkpt>
      <trkpt lat="44.22788" lon="5.6275">
        <ele>707</ele>
        <time>2019-06-19T08:27:51Z</time>
      </trkpt>
      <trkpt lat="44.22784" lon="5.62746">
        <ele>707</ele>
        <time>2019-06-19T08:27:52Z</time>
      </trkpt>
      <trkpt lat="44.2278" lon="5.62742">
        <ele>707</ele>
        <time>2019-06-19T08:27:53Z</time>
      </trkpt>
      <trkpt lat="44.22775" lon="5.62738">
        <ele>707</ele>
        <time>2019-06-19T08:27:54Z</time>
      </trkpt>
      <trkpt lat="44.22771" lon="5.62735">
        <ele>707</ele>
        <time>2019-06-19T08:27:55Z</time>
      </trkpt>
      <trkpt lat="44.22766" lon="5.6273">
        <ele>707</ele>
        <time>2019-06-19T08:27:56Z</time>
      </trkpt>
      <trkpt lat="44.22762" lon="5.62726">
        <ele>707</ele>
        <time>2019-06-19T08:27:57Z</time>
      </trkpt>
      <trkpt lat="44.22758" lon="5.62721">
        <ele>707</ele>
        <time>2019-06-19T08:27:58Z</time>
      </trkpt>
      <trkpt lat="44.22754" lon="5.62715">
        <ele>707</ele>
        <time>2019-06-19T08:27:59Z</time>
      </trkpt>
      <trkpt lat="44.22749" lon="5.6271">
        <ele>707</ele>
        <time>2019-06-19T08:28:00Z</time>
      </trkpt>
      <trkpt lat="44.22746" lon="5.62704">
        <ele>707</ele>
        <time>2019-06-19T08:28:01Z</time>
      </trkpt>
      <trkpt lat="44.22742" lon="5.62698">
        <ele>707</ele>
        <time>2019-06-19T08:28:02Z</time>
      </trkpt>
      <trkpt lat="44.22738" lon="5.62692">
        <ele>708</ele>
        <time>2019-06-19T08:28:03Z</time>
      </trkpt>
      <trkpt lat="44.22734" lon="5.62685">
        <ele>708</ele>
        <time>2019-06-19T08:28:04Z</time>
      </trkpt>
      <trkpt lat="44.2273" lon="5.62679">
        <ele>708</ele>
        <time>2019-06-19T08:28:05Z</time>
      </trkpt>
      <trkpt lat="44.22726" lon="5.62672">
        <ele>708</ele>
        <time>2019-06-19T08:28:06Z</time>
      </trkpt>
      <trkpt lat="44.22722" lon="5.62665">
        <ele>709</ele>
        <time>2019-06-19T08:28:07Z</time>
      </trkpt>
      <trkpt lat="44.22718" lon="5.62659">
        <ele>709</ele>
        <time>2019-06-19T08:28:08Z</time>
      </trkpt>
      <trkpt lat="44.22713" lon="5.62651">
        <ele>709</ele>
        <time>2019-06-19T08:28:09Z</time>
      </trkpt>
      <trkpt lat="44.2271" lon="5.62644">
        <ele>709</ele>
        <time>2019-06-19T08:28:10Z</time>
      </trkpt>
      <trkpt lat="44.22705" lon="5.62638">
        <ele>710</ele>
        <time>2019-06-19T08:28:11Z</time>
      </trkpt>
      <trkpt lat="44.22702" lon="5.6263">
        <ele>710</ele>
        <time>2019-06-19T08:28:12Z</time>
      </trkpt>
      <trkpt lat="44.22698" lon="5.62623">
        <ele>710</ele>
        <time>2019-06-19T08:28:13Z</time>
      </trkpt>
      <trkpt lat="44.22694" lon="5.62615">
        <ele>710</ele>
        <time>2019-06-19T08:28:14Z</time>
      </trkpt>
      <trkpt lat="44.2269" lon="5.62608">
        <ele>710</ele>
        <time>2019-06-19T08:28:15Z</time>
      </trkpt>
      <trkpt lat="44.22686" lon="5.62601">
        <ele>711</ele>
        <time>2019-06-19T08:28:16Z</time>
      </trkpt>
      <trkpt lat="44.22681" lon="5.62594">
        <ele>711</ele>
        <time>2019-06-19T08:28:17Z</time>
      </trkpt>
      <trkpt lat="44.22677" lon="5.62586">
        <ele>711</ele>
        <time>2019-06-19T08:28:18Z</time>
      </trkpt>
      <trkpt lat="44.22672" lon="5.62579">
        <ele>711</ele>
        <time>2019-06-19T08:28:19Z</time>
      </trkpt>
      <trkpt lat="44.22668" lon="5.62572">
        <ele>711</ele>
        <time>2019-06-19T08:28:20Z</time>
      </trkpt>
      <trkpt lat="44.22664" lon="5.62564">
        <ele>712</ele>
        <time>2019-06-19T08:28:21Z</time>
      </trkpt>
      <trkpt lat="44.2266" lon="5.62557">
        <ele>712</ele>
        <time>2019-06-19T08:28:22Z</time>
      </trkpt>
      <trkpt lat="44.22655" lon="5.6255">
        <ele>712</ele>
        <time>2019-06-19T08:28:23Z</time>
      </trkpt>
      <trkpt lat="44.22651" lon="5.62543">
        <ele>712</ele>
        <time>2019-06-19T08:28:24Z</time>
      </trkpt>
      <trkpt lat="44.22647" lon="5.62536">
        <ele>712</ele>
        <time>2019-06-19T08:28:25Z</time>
      </trkpt>
      <trkpt lat="44.22643" lon="5.62529">
        <ele>712</ele>
        <time>2019-06-19T08:28:26Z</time>
      </trkpt>
      <trkpt lat="44.22638" lon="5.62522">
        <ele>712</ele>
        <time>2019-06-19T08:28:27Z</time>
      </trkpt>
      <trkpt lat="44.22634" lon="5.62515">
        <ele>713</ele>
        <time>2019-06-19T08:28:28Z</time>
      </trkpt>
      <trkpt lat="44.2263" lon="5.62508">
        <ele>713</ele>
        <time>2019-06-19T08:28:29Z</time>
      </trkpt>
      <trkpt lat="44.22626" lon="5.62501">
        <ele>713</ele>
        <time>2019-06-19T08:28:30Z</time>
      </trkpt>
      <trkpt lat="44.22622" lon="5.62495">
        <ele>713</ele>
        <time>2019-06-19T08:28:31Z</time>
      </trkpt>
      <trkpt lat="44.22618" lon="5.62488">
        <ele>713</ele>
        <time>2019-06-19T08:28:32Z</time>
      </trkpt>
      <trkpt lat="44.22614" lon="5.62481">
        <ele>713</ele>
        <time>2019-06-19T08:28:33Z</time>
      </trkpt>
      <trkpt lat="44.2261" lon="5.62474">
        <ele>713</ele>
        <time>2019-06-19T08:28:34Z</time>
      </trkpt>
      <trkpt lat="44.22606" lon="5.62467">
        <ele>713</ele>
        <time>2019-06-19T08:28:35Z</time>
      </trkpt>
      <trkpt lat="44.22602" lon="5.62459">
        <ele>713</ele>
        <time>2019-06-19T08:28:36Z</time>
      </trkpt>
      <trkpt lat="44.22598" lon="5.62452">
        <ele>713</ele>
        <time>2019-06-19T08:28:37Z</time>
      </trkpt>
      <trkpt lat="44.22594" lon="5.62444">
        <ele>714</ele>
        <time>2019-06-19T08:28:38Z</time>
      </trkpt>
      <trkpt lat="44.22591" lon="5.62436">
        <ele>714</ele>
        <time>2019-06-19T08:28:39Z</time>
      </trkpt>
      <trkpt lat="44.22587" lon="5.62429">
        <ele>714</ele>
        <time>2019-06-19T08:28:40Z</time>
      </trkpt>
      <trkpt lat="44.22583" lon="5.62421">
        <ele>714</ele>
        <time>2019-06-19T08:28:41Z</time>
      </trkpt>
      <trkpt lat="44.2258" lon="5.62413">
        <ele>714</ele>
        <time>2019-06-19T08:28:42Z</time>
      </trkpt>
      <trkpt lat="44.22576" lon="5.62405">
        <ele>714</ele>
        <time>2019-06-19T08:28:43Z</time>
      </trkpt>
      <trkpt lat="44.22573" lon="5.62397">
        <ele>714</ele>
        <time>2019-06-19T08:28:44Z</time>
      </trkpt>
      <trkpt lat="44.22569" lon="5.62389">
        <ele>714</ele>
        <time>2019-06-19T08:28:45Z</time>
      </trkpt>
      <trkpt lat="44.22566" lon="5.62382">
        <ele>714</ele>
        <time>2019-06-19T08:28:46Z</time>
      </trkpt>
      <trkpt lat="44.22563" lon="5.62374">
        <ele>714</ele>
        <time>2019-06-19T08:28:47Z</time>
      </trkpt>
      <trkpt lat="44.2256" lon="5.62366">
        <ele>715</ele>
        <time>2019-06-19T08:28:48Z</time>
      </trkpt>
      <trkpt lat="44.22557" lon="5.62359">
        <ele>715</ele>
        <time>2019-06-19T08:28:49Z</time>
      </trkpt>
      <trkpt lat="44.22554" lon="5.62351">
        <ele>715</ele>
        <time>2019-06-19T08:28:50Z</time>
      </trkpt>
      <trkpt lat="44.22551" lon="5.62344">
        <ele>715</ele>
        <time>2019-06-19T08:28:51Z</time>
      </trkpt>
      <trkpt lat="44.22549" lon="5.62335">
        <ele>715</ele>
        <time>2019-06-19T08:28:52Z</time>
      </trkpt>
      <trkpt lat="44.22547" lon="5.62327">
        <ele>715</ele>
        <time>2019-06-19T08:28:53Z</time>
      </trkpt>
      <trkpt lat="44.22545" lon="5.62319">
        <ele>715</ele>
        <time>2019-06-19T08:28:54Z</time>
      </trkpt>
      <trkpt lat="44.22543" lon="5.6231">
        <ele>715</ele>
        <time>2019-06-19T08:28:55Z</time>
      </trkpt>
      <trkpt lat="44.22541" lon="5.62302">
        <ele>715</ele>
        <time>2019-06-19T08:28:56Z</time>
      </trkpt>
      <trkpt lat="44.22539" lon="5.62293">
        <ele>715</ele>
        <time>2019-06-19T08:28:57Z</time>
      </trkpt>
      <trkpt lat="44.22538" lon="5.62284">
        <ele>715</ele>
        <time>2019-06-19T08:28:58Z</time>
      </trkpt>
      <trkpt lat="44.22536" lon="5.62276">
        <ele>715</ele>
        <time>2019-06-19T08:28:59Z</time>
      </trkpt>
      <trkpt lat="44.22535" lon="5.62267">
        <ele>715</ele>
        <time>2019-06-19T08:29:00Z</time>
      </trkpt>
      <trkpt lat="44.22534" lon="5.62258">
        <ele>715</ele>
        <time>2019-06-19T08:29:01Z</time>
      </trkpt>
      <trkpt lat="44.22533" lon="5.6225">
        <ele>715</ele>
        <time>2019-06-19T08:29:02Z</time>
      </trkpt>
      <trkpt lat="44.22533" lon="5.62242">
        <ele>715</ele>
        <time>2019-06-19T08:29:03Z</time>
      </trkpt>
      <trkpt lat="44.22533" lon="5.62233">
        <ele>715</ele>
        <time>2019-06-19T08:29:04Z</time>
      </trkpt>
      <trkpt lat="44.22533" lon="5.62224">
        <ele>715</ele>
        <time>2019-06-19T08:29:05Z</time>
      </trkpt>
      <trkpt lat="44.22532" lon="5.62216">
        <ele>715</ele>
        <time>2019-06-19T08:29:06Z</time>
      </trkpt>
      <trkpt lat="44.22531" lon="5.62207">
        <ele>715</ele>
        <time>2019-06-19T08:29:07Z</time>
      </trkpt>
      <trkpt lat="44.22531" lon="5.62198">
        <ele>715</ele>
        <time>2019-06-19T08:29:08Z</time>
      </trkpt>
      <trkpt lat="44.2253" lon="5.62189">
        <ele>715</ele>
        <time>2019-06-19T08:29:09Z</time>
      </trkpt>
      <trkpt lat="44.22529" lon="5.6218">
        <ele>715</ele>
        <time>2019-06-19T08:29:10Z</time>
      </trkpt>
      <trkpt lat="44.22528" lon="5.62172">
        <ele>715</ele>
        <time>2019-06-19T08:29:11Z</time>
      </trkpt>
      <trkpt lat="44.22526" lon="5.62163">
        <ele>715</ele>
        <time>2019-06-19T08:29:12Z</time>
      </trkpt>
      <trkpt lat="44.22524" lon="5.62154">
        <ele>715</ele>
        <time>2019-06-19T08:29:13Z</time>
      </trkpt>
      <trkpt lat="44.22521" lon="5.62145">
        <ele>715</ele>
        <time>2019-06-19T08:29:14Z</time>
      </trkpt>
      <trkpt lat="44.22519" lon="5.62136">
        <ele>715</ele>
        <time>2019-06-19T08:29:15Z</time>
      </trkpt>
      <trkpt lat="44.22516" lon="5.62128">
        <ele>715</ele>
        <time>2019-06-19T08:29:16Z</time>
      </trkpt>
      <trkpt lat="44.22513" lon="5.6212">
        <ele>715</ele>
        <time>2019-06-19T08:29:17Z</time>
      </trkpt>
      <trkpt lat="44.22509" lon="5.62112">
        <ele>715</ele>
        <time>2019-06-19T08:29:18Z</time>
      </trkpt>
      <trkpt lat="44.22506" lon="5.62103">
        <ele>715</ele>
        <time>2019-06-19T08:29:19Z</time>
      </trkpt>
      <trkpt lat="44.22503" lon="5.62095">
        <ele>715</ele>
        <time>2019-06-19T08:29:20Z</time>
      </trkpt>
      <trkpt lat="44.225" lon="5.62088">
        <ele>715</ele>
        <time>2019-06-19T08:29:21Z</time>
      </trkpt>
      <trkpt lat="44.22496" lon="5.6208">
        <ele>715</ele>
        <time>2019-06-19T08:29:22Z</time>
      </trkpt>
      <trkpt lat="44.22493" lon="5.62073">
        <ele>715</ele>
        <time>2019-06-19T08:29:23Z</time>
      </trkpt>
      <trkpt lat="44.2249" lon="5.62065">
        <ele>715</ele>
        <time>2019-06-19T08:29:24Z</time>
      </trkpt>
      <trkpt lat="44.22486" lon="5.62058">
        <ele>715</ele>
        <time>2019-06-19T08:29:25Z</time>
      </trkpt>
      <trkpt lat="44.22483" lon="5.6205">
        <ele>715</ele>
        <time>2019-06-19T08:29:26Z</time>
      </trkpt>
      <trkpt lat="44.22479" lon="5.62043">
        <ele>715</ele>
        <time>2019-06-19T08:29:27Z</time>
      </trkpt>
      <trkpt lat="44.22476" lon="5.62035">
        <ele>715</ele>
        <time>2019-06-19T08:29:28Z</time>
      </trkpt>
      <trkpt lat="44.22472" lon="5.62027">
        <ele>715</ele>
        <time>2019-06-19T08:29:29Z</time>
      </trkpt>
      <trkpt lat="44.22468" lon="5.62019">
        <ele>715</ele>
        <time>2019-06-19T08:29:30Z</time>
      </trkpt>
      <trkpt lat="44.22464" lon="5.62011">
        <ele>715</ele>
        <time>2019-06-19T08:29:31Z</time>
      </trkpt>
      <trkpt lat="44.22461" lon="5.62003">
        <ele>715</ele>
        <time>2019-06-19T08:29:32Z</time>
      </trkpt>
      <trkpt lat="44.22457" lon="5.61996">
        <ele>715</ele>
        <time>2019-06-19T08:29:33Z</time>
      </trkpt>
      <trkpt lat="44.22454" lon="5.61988">
        <ele>715</ele>
        <time>2019-06-19T08:29:34Z</time>
      </trkpt>
      <trkpt lat="44.22451" lon="5.6198">
        <ele>715</ele>
        <time>2019-06-19T08:29:35Z</time>
      </trkpt>
      <trkpt lat="44.22447" lon="5.61972">
        <ele>715</ele>
        <time>2019-06-19T08:29:36Z</time>
      </trkpt>
      <trkpt lat="44.22444" lon="5.61965">
        <ele>715</ele>
        <time>2019-06-19T08:29:37Z</time>
      </trkpt>
      <trkpt lat="44.2244" lon="5.61957">
        <ele>715</ele>
        <time>2019-06-19T08:29:38Z</time>
      </trkpt>
      <trkpt lat="44.22437" lon="5.61949">
        <ele>715</ele>
        <time>2019-06-19T08:29:39Z</time>
      </trkpt>
      <trkpt lat="44.22433" lon="5.61942">
        <ele>715</ele>
        <time>2019-06-19T08:29:40Z</time>
      </trkpt>
      <trkpt lat="44.2243" lon="5.61935">
        <ele>715</ele>
        <time>2019-06-19T08:29:41Z</time>
      </trkpt>
      <trkpt lat="44.22426" lon="5.61928">
        <ele>715</ele>
        <time>2019-06-19T08:29:42Z</time>
      </trkpt>
      <trkpt lat="44.22423" lon="5.6192">
        <ele>715</ele>
        <time>2019-06-19T08:29:43Z</time>
      </trkpt>
      <trkpt lat="44.22419" lon="5.61913">
        <ele>715</ele>
        <time>2019-06-19T08:29:44Z</time>
      </trkpt>
      <trkpt lat="44.22416" lon="5.61905">
        <ele>715</ele>
        <time>2019-06-19T08:29:45Z</time>
      </trkpt>
      <trkpt lat="44.22413" lon="5.61897">
        <ele>715</ele>
        <time>2019-06-19T08:29:46Z</time>
      </trkpt>
      <trkpt lat="44.2241" lon="5.61889">
        <ele>715</ele>
        <time>2019-06-19T08:29:47Z</time>
      </trkpt>
      <trkpt lat="44.22406" lon="5.6188">
        <ele>715</ele>
        <time>2019-06-19T08:29:48Z</time>
      </trkpt>
      <trkpt lat="44.22404" lon="5.61871">
        <ele>715</ele>
        <time>2019-06-19T08:29:49Z</time>
      </trkpt>
      <trkpt lat="44.22401" lon="5.61862">
        <ele>715</ele>
        <time>2019-06-19T08:29:50Z</time>
      </trkpt>
      <trkpt lat="44.22399" lon="5.61853">
        <ele>715</ele>
        <time>2019-06-19T08:29:51Z</time>
      </trkpt>
      <trkpt lat="44.22397" lon="5.61844">
        <ele>715</ele>
        <time>2019-06-19T08:29:52Z</time>
      </trkpt>
      <trkpt lat="44.22395" lon="5.61836">
        <ele>715</ele>
        <time>2019-06-19T08:29:53Z</time>
      </trkpt>
      <trkpt lat="44.22393" lon="5.61827">
        <ele>715</ele>
        <time>2019-06-19T08:29:54Z</time>
      </trkpt>
      <trkpt lat="44.2239" lon="5.61819">
        <ele>715</ele>
        <time>2019-06-19T08:29:55Z</time>
      </trkpt>
      <trkpt lat="44.22388" lon="5.6181">
        <ele>715</ele>
        <time>2019-06-19T08:29:56Z</time>
      </trkpt>
      <trkpt lat="44.22385" lon="5.61801">
        <ele>714</ele>
        <time>2019-06-19T08:29:57Z</time>
      </trkpt>
      <trkpt lat="44.22383" lon="5.61793">
        <ele>714</ele>
        <time>2019-06-19T08:29:58Z</time>
      </trkpt>
      <trkpt lat="44.2238" lon="5.61785">
        <ele>714</ele>
        <time>2019-06-19T08:29:59Z</time>
      </trkpt>
      <trkpt lat="44.22377" lon="5.61777">
        <ele>714</ele>
        <time>2019-06-19T08:30:00Z</time>
      </trkpt>
      <trkpt lat="44.22374" lon="5.61769">
        <ele>714</ele>
        <time>2019-06-19T08:30:01Z</time>
      </trkpt>
      <trkpt lat="44.22371" lon="5.6176">
        <ele>714</ele>
        <time>2019-06-19T08:30:02Z</time>
      </trkpt>
      <trkpt lat="44.22368" lon="5.61752">
        <ele>714</ele>
        <time>2019-06-19T08:30:03Z</time>
      </trkpt>
      <trkpt lat="44.22365" lon="5.61744">
        <ele>714</ele>
        <time>2019-06-19T08:30:04Z</time>
      </trkpt>
      <trkpt lat="44.22362" lon="5.61736">
        <ele>714</ele>
        <time>2019-06-19T08:30:05Z</time>
      </trkpt>
      <trkpt lat="44.22359" lon="5.61729">
        <ele>714</ele>
        <time>2019-06-19T08:30:06Z</time>
      </trkpt>
      <trkpt lat="44.22356" lon="5.61721">
        <ele>714</ele>
        <time>2019-06-19T08:30:07Z</time>
      </trkpt>
      <trkpt lat="44.22353" lon="5.61714">
        <ele>714</ele>
        <time>2019-06-19T08:30:08Z</time>
      </trkpt>
      <trkpt lat="44.2235" lon="5.61706">
        <ele>714</ele>
        <time>2019-06-19T08:30:09Z</time>
      </trkpt>
      <trkpt lat="44.22347" lon="5.61698">
        <ele>714</ele>
        <time>2019-06-19T08:30:10Z</time>
      </trkpt>
      <trkpt lat="44.22343" lon="5.61691">
        <ele>714</ele>
        <time>2019-06-19T08:30:11Z</time>
      </trkpt>
      <trkpt lat="44.2234" lon="5.61683">
        <ele>714</ele>
        <time>2019-06-19T08:30:12Z</time>
      </trkpt>
      <trkpt lat="44.22337" lon="5.61675">
        <ele>714</ele>
        <time>2019-06-19T08:30:13Z</time>
      </trkpt>
      <trkpt lat="44.22334" lon="5.61667">
        <ele>714</ele>
        <time>2019-06-19T08:30:14Z</time>
      </trkpt>
      <trkpt lat="44.22331" lon="5.61659">
        <ele>714</ele>
        <time>2019-06-19T08:30:15Z</time>
      </trkpt>
      <trkpt lat="44.22328" lon="5.61652">
        <ele>714</ele>
        <time>2019-06-19T08:30:16Z</time>
      </trkpt>
      <trkpt lat="44.22324" lon="5.61644">
        <ele>714</ele>
        <time>2019-06-19T08:30:17Z</time>
      </trkpt>
      <trkpt lat="44.22321" lon="5.61636">
        <ele>714</ele>
        <time>2019-06-19T08:30:18Z</time>
      </trkpt>
      <trkpt lat="44.22318" lon="5.61629">
        <ele>714</ele>
        <time>2019-06-19T08:30:19Z</time>
      </trkpt>
      <trkpt lat="44.22315" lon="5.61621">
        <ele>714</ele>
        <time>2019-06-19T08:30:20Z</time>
      </trkpt>
      <trkpt lat="44.22312" lon="5.61613">
        <ele>714</ele>
        <time>2019-06-19T08:30:21Z</time>
      </trkpt>
      <trkpt lat="44.22309" lon="5.61606">
        <ele>714</ele>
        <time>2019-06-19T08:30:22Z</time>
      </trkpt>
      <trkpt lat="44.22306" lon="5.61598">
        <ele>714</ele>
        <time>2019-06-19T08:30:23Z</time>
      </trkpt>
      <trkpt lat="44.22303" lon="5.6159">
        <ele>714</ele>
        <time>2019-06-19T08:30:24Z</time>
      </trkpt>
      <trkpt lat="44.223" lon="5.61583">
        <ele>715</ele>
        <time>2019-06-19T08:30:25Z</time>
      </trkpt>
      <trkpt lat="44.22297" lon="5.61575">
        <ele>715</ele>
        <time>2019-06-19T08:30:26Z</time>
      </trkpt>
      <trkpt lat="44.22294" lon="5.61568">
        <ele>715</ele>
        <time>2019-06-19T08:30:27Z</time>
      </trkpt>
      <trkpt lat="44.22291" lon="5.61561">
        <ele>715</ele>
        <time>2019-06-19T08:30:28Z</time>
      </trkpt>
      <trkpt lat="44.22288" lon="5.61553">
        <ele>715</ele>
        <time>2019-06-19T08:30:29Z</time>
      </trkpt>
      <trkpt lat="44.22285" lon="5.61546">
        <ele>716</ele>
        <time>2019-06-19T08:30:30Z</time>
      </trkpt>
      <trkpt lat="44.22282" lon="5.61538">
        <ele>716</ele>
        <time>2019-06-19T08:30:31Z</time>
      </trkpt>
      <trkpt lat="44.22279" lon="5.6153">
        <ele>716</ele>
        <time>2019-06-19T08:30:32Z</time>
      </trkpt>
      <trkpt lat="44.22276" lon="5.61523">
        <ele>716</ele>
        <time>2019-06-19T08:30:33Z</time>
      </trkpt>
      <trkpt lat="44.22274" lon="5.61515">
        <ele>716</ele>
        <time>2019-06-19T08:30:34Z</time>
      </trkpt>
      <trkpt lat="44.22271" lon="5.61507">
        <ele>716</ele>
        <time>2019-06-19T08:30:35Z</time>
      </trkpt>
      <trkpt lat="44.22269" lon="5.61499">
        <ele>716</ele>
        <time>2019-06-19T08:30:36Z</time>
      </trkpt>
      <trkpt lat="44.22267" lon="5.6149">
        <ele>717</ele>
        <time>2019-06-19T08:30:37Z</time>
      </trkpt>
      <trkpt lat="44.22265" lon="5.61482">
        <ele>717</ele>
        <time>2019-06-19T08:30:38Z</time>
      </trkpt>
      <trkpt lat="44.22263" lon="5.61473">
        <ele>717</ele>
        <time>2019-06-19T08:30:39Z</time>
      </trkpt>
      <trkpt lat="44.22261" lon="5.61464">
        <ele>717</ele>
        <time>2019-06-19T08:30:40Z</time>
      </trkpt>
      <trkpt lat="44.22258" lon="5.61455">
        <ele>717</ele>
        <time>2019-06-19T08:30:41Z</time>
      </trkpt>
      <trkpt lat="44.22256" lon="5.61446">
        <ele>717</ele>
        <time>2019-06-19T08:30:42Z</time>
      </trkpt>
      <trkpt lat="44.22253" lon="5.61437">
        <ele>717</ele>
        <time>2019-06-19T08:30:43Z</time>
      </trkpt>
      <trkpt lat="44.22251" lon="5.61427">
        <ele>717</ele>
        <time>2019-06-19T08:30:44Z</time>
      </trkpt>
      <trkpt lat="44.22249" lon="5.61419">
        <ele>717</ele>
        <time>2019-06-19T08:30:45Z</time>
      </trkpt>
      <trkpt lat="44.22247" lon="5.6141">
        <ele>717</ele>
        <time>2019-06-19T08:30:46Z</time>
      </trkpt>
      <trkpt lat="44.22245" lon="5.61401">
        <ele>717</ele>
        <time>2019-06-19T08:30:47Z</time>
      </trkpt>
      <trkpt lat="44.22243" lon="5.61392">
        <ele>717</ele>
        <time>2019-06-19T08:30:48Z</time>
      </trkpt>
      <trkpt lat="44.2224" lon="5.61383">
        <ele>717</ele>
        <time>2019-06-19T08:30:49Z</time>
      </trkpt>
      <trkpt lat="44.22238" lon="5.61375">
        <ele>717</ele>
        <time>2019-06-19T08:30:50Z</time>
      </trkpt>
      <trkpt lat="44.22236" lon="5.61366">
        <ele>717</ele>
        <time>2019-06-19T08:30:51Z</time>
      </trkpt>
      <trkpt lat="44.22234" lon="5.61357">
        <ele>717</ele>
        <time>2019-06-19T08:30:52Z</time>
      </trkpt>
      <trkpt lat="44.22232" lon="5.61348">
        <ele>717</ele>
        <time>2019-06-19T08:30:53Z</time>
      </trkpt>
      <trkpt lat="44.2223" lon="5.6134">
        <ele>717</ele>
        <time>2019-06-19T08:30:54Z</time>
      </trkpt>
      <trkpt lat="44.22227" lon="5.61331">
        <ele>717</ele>
        <time>2019-06-19T08:30:55Z</time>
      </trkpt>
      <trkpt lat="44.22225" lon="5.61322">
        <ele>717</ele>
        <time>2019-06-19T08:30:56Z</time>
      </trkpt>
      <trkpt lat="44.22223" lon="5.61313">
        <ele>717</ele>
        <time>2019-06-19T08:30:57Z</time>
      </trkpt>
      <trkpt lat="44.22221" lon="5.61305">
        <ele>717</ele>
        <time>2019-06-19T08:30:58Z</time>
      </trkpt>
      <trkpt lat="44.22219" lon="5.61296">
        <ele>717</ele>
        <time>2019-06-19T08:30:59Z</time>
      </trkpt>
      <trkpt lat="44.22217" lon="5.61288">
        <ele>717</ele>
        <time>2019-06-19T08:31:00Z</time>
      </trkpt>
      <trkpt lat="44.22215" lon="5.61279">
        <ele>717</ele>
        <time>2019-06-19T08:31:01Z</time>
      </trkpt>
      <trkpt lat="44.22213" lon="5.61271">
        <ele>717</ele>
        <time>2019-06-19T08:31:02Z</time>
      </trkpt>
      <trkpt lat="44.22211" lon="5.61262">
        <ele>717</ele>
        <time>2019-06-19T08:31:03Z</time>
      </trkpt>
      <trkpt lat="44.22209" lon="5.61254">
        <ele>717</ele>
        <time>2019-06-19T08:31:04Z</time>
      </trkpt>
      <trkpt lat="44.22207" lon="5.61245">
        <ele>717</ele>
        <time>2019-06-19T08:31:05Z</time>
      </trkpt>
      <trkpt lat="44.22205" lon="5.61236">
        <ele>717</ele>
        <time>2019-06-19T08:31:06Z</time>
      </trkpt>
      <trkpt lat="44.22203" lon="5.61228">
        <ele>717</ele>
        <time>2019-06-19T08:31:07Z</time>
      </trkpt>
      <trkpt lat="44.222" lon="5.6122">
        <ele>717</ele>
        <time>2019-06-19T08:31:08Z</time>
      </trkpt>
      <trkpt lat="44.22199" lon="5.61212">
        <ele>717</ele>
        <time>2019-06-19T08:31:09Z</time>
      </trkpt>
      <trkpt lat="44.22197" lon="5.61204">
        <ele>717</ele>
        <time>2019-06-19T08:31:10Z</time>
      </trkpt>
      <trkpt lat="44.22195" lon="5.61196">
        <ele>717</ele>
        <time>2019-06-19T08:31:11Z</time>
      </trkpt>
      <trkpt lat="44.22194" lon="5.61188">
        <ele>717</ele>
        <time>2019-06-19T08:31:12Z</time>
      </trkpt>
      <trkpt lat="44.22192" lon="5.6118">
        <ele>717</ele>
        <time>2019-06-19T08:31:13Z</time>
      </trkpt>
      <trkpt lat="44.2219" lon="5.61172">
        <ele>717</ele>
        <time>2019-06-19T08:31:14Z</time>
      </trkpt>
      <trkpt lat="44.22189" lon="5.61164">
        <ele>718</ele>
        <time>2019-06-19T08:31:15Z</time>
      </trkpt>
      <trkpt lat="44.22187" lon="5.61155">
        <ele>718</ele>
        <time>2019-06-19T08:31:16Z</time>
      </trkpt>
      <trkpt lat="44.22186" lon="5.61147">
        <ele>718</ele>
        <time>2019-06-19T08:31:17Z</time>
      </trkpt>
      <trkpt lat="44.22184" lon="5.61139">
        <ele>718</ele>
        <time>2019-06-19T08:31:18Z</time>
      </trkpt>
      <trkpt lat="44.22183" lon="5.61131">
        <ele>719</ele>
        <time>2019-06-19T08:31:19Z</time>
      </trkpt>
      <trkpt lat="44.22181" lon="5.61122">
        <ele>719</ele>
        <time>2019-06-19T08:31:20Z</time>
      </trkpt>
      <trkpt lat="44.2218" lon="5.61114">
        <ele>719</ele>
        <time>2019-06-19T08:31:21Z</time>
      </trkpt>
      <trkpt lat="44.22179" lon="5.61105">
        <ele>719</ele>
        <time>2019-06-19T08:31:22Z</time>
      </trkpt>
      <trkpt lat="44.22177" lon="5.61097">
        <ele>719</ele>
        <time>2019-06-19T08:31:23Z</time>
      </trkpt>
      <trkpt lat="44.22176" lon="5.61088">
        <ele>719</ele>
        <time>2019-06-19T08:31:24Z</time>
      </trkpt>
      <trkpt lat="44.22175" lon="5.61079">
        <ele>719</ele>
        <time>2019-06-19T08:31:25Z</time>
      </trkpt>
      <trkpt lat="44.22173" lon="5.6107">
        <ele>719</ele>
        <time>2019-06-19T08:31:26Z</time>
      </trkpt>
      <trkpt lat="44.22172" lon="5.61061">
        <ele>719</ele>
        <time>2019-06-19T08:31:27Z</time>
      </trkpt>
      <trkpt lat="44.22171" lon="5.61052">
        <ele>719</ele>
        <time>2019-06-19T08:31:28Z</time>
      </trkpt>
      <trkpt lat="44.2217" lon="5.61043">
        <ele>719</ele>
        <time>2019-06-19T08:31:29Z</time>
      </trkpt>
      <trkpt lat="44.22168" lon="5.61034">
        <ele>719</ele>
        <time>2019-06-19T08:31:30Z</time>
      </trkpt>
      <trkpt lat="44.22167" lon="5.61025">
        <ele>719</ele>
        <time>2019-06-19T08:31:31Z</time>
      </trkpt>
      <trkpt lat="44.22166" lon="5.61017">
        <ele>719</ele>
        <time>2019-06-19T08:31:32Z</time>
      </trkpt>
      <trkpt lat="44.22165" lon="5.61009">
        <ele>719</ele>
        <time>2019-06-19T08:31:33Z</time>
      </trkpt>
      <trkpt lat="44.22164" lon="5.61">
        <ele>719</ele>
        <time>2019-06-19T08:31:34Z</time>
      </trkpt>
      <trkpt lat="44.22163" lon="5.60991">
        <ele>719</ele>
        <time>2019-06-19T08:31:35Z</time>
      </trkpt>
      <trkpt lat="44.22162" lon="5.60983">
        <ele>719</ele>
        <time>2019-06-19T08:31:36Z</time>
      </trkpt>
      <trkpt lat="44.2216" lon="5.60975">
        <ele>719</ele>
        <time>2019-06-19T08:31:37Z</time>
      </trkpt>
      <trkpt lat="44.22159" lon="5.60966">
        <ele>719</ele>
        <time>2019-06-19T08:31:38Z</time>
      </trkpt>
      <trkpt lat="44.22157" lon="5.60958">
        <ele>719</ele>
        <time>2019-06-19T08:31:39Z</time>
      </trkpt>
      <trkpt lat="44.22156" lon="5.6095">
        <ele>719</ele>
        <time>2019-06-19T08:31:40Z</time>
      </trkpt>
      <trkpt lat="44.22154" lon="5.60942">
        <ele>719</ele>
        <time>2019-06-19T08:31:41Z</time>
      </trkpt>
      <trkpt lat="44.22152" lon="5.60933">
        <ele>719</ele>
        <time>2019-06-19T08:31:42Z</time>
      </trkpt>
      <trkpt lat="44.22151" lon="5.60925">
        <ele>719</ele>
        <time>2019-06-19T08:31:43Z</time>
      </trkpt>
      <trkpt lat="44.22149" lon="5.60917">
        <ele>719</ele>
        <time>2019-06-19T08:31:44Z</time>
      </trkpt>
      <trkpt lat="44.22147" lon="5.60908">
        <ele>719</ele>
        <time>2019-06-19T08:31:45Z</time>
      </trkpt>
      <trkpt lat="44.22145" lon="5.609">
        <ele>719</ele>
        <time>2019-06-19T08:31:46Z</time>
      </trkpt>
      <trkpt lat="44.22144" lon="5.60892">
        <ele>719</ele>
        <time>2019-06-19T08:31:47Z</time>
      </trkpt>
      <trkpt lat="44.22144" lon="5.60884">
        <ele>719</ele>
        <time>2019-06-19T08:31:48Z</time>
      </trkpt>
      <trkpt lat="44.22147" lon="5.60877">
        <ele>719</ele>
        <time>2019-06-19T08:31:49Z</time>
      </trkpt>
      <trkpt lat="44.2215" lon="5.60871">
        <ele>720</ele>
        <time>2019-06-19T08:31:50Z</time>
      </trkpt>
      <trkpt lat="44.22156" lon="5.60868">
        <ele>720</ele>
        <time>2019-06-19T08:31:51Z</time>
      </trkpt>
      <trkpt lat="44.22161" lon="5.60866">
        <ele>720</ele>
        <time>2019-06-19T08:31:52Z</time>
      </trkpt>
      <trkpt lat="44.22167" lon="5.60865">
        <ele>721</ele>
        <time>2019-06-19T08:31:53Z</time>
      </trkpt>
      <trkpt lat="44.22173" lon="5.60864">
        <ele>721</ele>
        <time>2019-06-19T08:31:54Z</time>
      </trkpt>
      <trkpt lat="44.22178" lon="5.60863">
        <ele>722</ele>
        <time>2019-06-19T08:31:55Z</time>
      </trkpt>
      <trkpt lat="44.22184" lon="5.60862">
        <ele>722</ele>
        <time>2019-06-19T08:31:56Z</time>
      </trkpt>
      <trkpt lat="44.22189" lon="5.60862">
        <ele>722</ele>
        <time>2019-06-19T08:31:57Z</time>
      </trkpt>
      <trkpt lat="44.22194" lon="5.60862">
        <ele>723</ele>
        <time>2019-06-19T08:31:58Z</time>
      </trkpt>
      <trkpt lat="44.22198" lon="5.60862">
        <ele>723</ele>
        <time>2019-06-19T08:31:59Z</time>
      </trkpt>
      <trkpt lat="44.22203" lon="5.60863">
        <ele>723</ele>
        <time>2019-06-19T08:32:00Z</time>
      </trkpt>
      <trkpt lat="44.22208" lon="5.60864">
        <ele>723</ele>
        <time>2019-06-19T08:32:01Z</time>
      </trkpt>
      <trkpt lat="44.22213" lon="5.60866">
        <ele>723</ele>
        <time>2019-06-19T08:32:02Z</time>
      </trkpt>
      <trkpt lat="44.22218" lon="5.60868">
        <ele>723</ele>
        <time>2019-06-19T08:32:03Z</time>
      </trkpt>
      <trkpt lat="44.22223" lon="5.60869">
        <ele>723</ele>
        <time>2019-06-19T08:32:04Z</time>
      </trkpt>
      <trkpt lat="44.22228" lon="5.60871">
        <ele>723</ele>
        <time>2019-06-19T08:32:05Z</time>
      </trkpt>
      <trkpt lat="44.22233" lon="5.60873">
        <ele>723</ele>
        <time>2019-06-19T08:32:06Z</time>
      </trkpt>
      <trkpt lat="44.22238" lon="5.60875">
        <ele>723</ele>
        <time>2019-06-19T08:32:07Z</time>
      </trkpt>
      <trkpt lat="44.22242" lon="5.60877">
        <ele>723</ele>
        <time>2019-06-19T08:32:08Z</time>
      </trkpt>
      <trkpt lat="44.22247" lon="5.60879">
        <ele>723</ele>
        <time>2019-06-19T08:32:09Z</time>
      </trkpt>
      <trkpt lat="44.22252" lon="5.60881">
        <ele>723</ele>
        <time>2019-06-19T08:32:10Z</time>
      </trkpt>
      <trkpt lat="44.22256" lon="5.60884">
        <ele>723</ele>
        <time>2019-06-19T08:32:11Z</time>
      </trkpt>
      <trkpt lat="44.22261" lon="5.60886">
        <ele>723</ele>
        <time>2019-06-19T08:32:12Z</time>
      </trkpt>
      <trkpt lat="44.22266" lon="5.60889">
        <ele>723</ele>
        <time>2019-06-19T08:32:13Z</time>
      </trkpt>
      <trkpt lat="44.2227" lon="5.60892">
        <ele>723</ele>
        <time>2019-06-19T08:32:14Z</time>
      </trkpt>
      <trkpt lat="44.22275" lon="5.60895">
        <ele>723</ele>
        <time>2019-06-19T08:32:15Z</time>
      </trkpt>
      <trkpt lat="44.22279" lon="5.60898">
        <ele>723</ele>
        <time>2019-06-19T08:32:16Z</time>
      </trkpt>
      <trkpt lat="44.22284" lon="5.60901">
        <ele>723</ele>
        <time>2019-06-19T08:32:17Z</time>
      </trkpt>
      <trkpt lat="44.22289" lon="5.60904">
        <ele>723</ele>
        <time>2019-06-19T08:32:18Z</time>
      </trkpt>
      <trkpt lat="44.22293" lon="5.60906">
        <ele>723</ele>
        <time>2019-06-19T08:32:19Z</time>
      </trkpt>
      <trkpt lat="44.22298" lon="5.60909">
        <ele>723</ele>
        <time>2019-06-19T08:32:20Z</time>
      </trkpt>
      <trkpt lat="44.22302" lon="5.60912">
        <ele>723</ele>
        <time>2019-06-19T08:32:21Z</time>
      </trkpt>
      <trkpt lat="44.22307" lon="5.60915">
        <ele>723</ele>
        <time>2019-06-19T08:32:22Z</time>
      </trkpt>
      <trkpt lat="44.22311" lon="5.60918">
        <ele>723</ele>
        <time>2019-06-19T08:32:23Z</time>
      </trkpt>
      <trkpt lat="44.22315" lon="5.60921">
        <ele>723</ele>
        <time>2019-06-19T08:32:24Z</time>
      </trkpt>
      <trkpt lat="44.22319" lon="5.60924">
        <ele>723</ele>
        <time>2019-06-19T08:32:25Z</time>
      </trkpt>
      <trkpt lat="44.22324" lon="5.60927">
        <ele>723</ele>
        <time>2019-06-19T08:32:26Z</time>
      </trkpt>
      <trkpt lat="44.22328" lon="5.60929">
        <ele>723</ele>
        <time>2019-06-19T08:32:27Z</time>
      </trkpt>
      <trkpt lat="44.22332" lon="5.6093">
        <ele>723</ele>
        <time>2019-06-19T08:32:28Z</time>
      </trkpt>
      <trkpt lat="44.22336" lon="5.60931">
        <ele>723</ele>
        <time>2019-06-19T08:32:29Z</time>
      </trkpt>
      <trkpt lat="44.2234" lon="5.6093">
        <ele>724</ele>
        <time>2019-06-19T08:32:30Z</time>
      </trkpt>
      <trkpt lat="44.22345" lon="5.6093">
        <ele>724</ele>
        <time>2019-06-19T08:32:31Z</time>
      </trkpt>
      <trkpt lat="44.22349" lon="5.60929">
        <ele>724</ele>
        <time>2019-06-19T08:32:32Z</time>
      </trkpt>
      <trkpt lat="44.22353" lon="5.60928">
        <ele>724</ele>
        <time>2019-06-19T08:32:33Z</time>
      </trkpt>
      <trkpt lat="44.22357" lon="5.60926">
        <ele>725</ele>
        <time>2019-06-19T08:32:34Z</time>
      </trkpt>
      <trkpt lat="44.22361" lon="5.60923">
        <ele>725</ele>
        <time>2019-06-19T08:32:35Z</time>
      </trkpt>
      <trkpt lat="44.22365" lon="5.60921">
        <ele>725</ele>
        <time>2019-06-19T08:32:36Z</time>
      </trkpt>
      <trkpt lat="44.22369" lon="5.60919">
        <ele>726</ele>
        <time>2019-06-19T08:32:37Z</time>
      </trkpt>
      <trkpt lat="44.22373" lon="5.60916">
        <ele>726</ele>
        <time>2019-06-19T08:32:38Z</time>
      </trkpt>
      <trkpt lat="44.22376" lon="5.60914">
        <ele>726</ele>
        <time>2019-06-19T08:32:39Z</time>
      </trkpt>
      <trkpt lat="44.22379" lon="5.6091">
        <ele>727</ele>
        <time>2019-06-19T08:32:40Z</time>
      </trkpt>
      <trkpt lat="44.22382" lon="5.60906">
        <ele>727</ele>
        <time>2019-06-19T08:32:41Z</time>
      </trkpt>
      <trkpt lat="44.22384" lon="5.60901">
        <ele>727</ele>
        <time>2019-06-19T08:32:42Z</time>
      </trkpt>
      <trkpt lat="44.22386" lon="5.60896">
        <ele>727</ele>
        <time>2019-06-19T08:32:43Z</time>
      </trkpt>
      <trkpt lat="44.22387" lon="5.60891">
        <ele>727</ele>
        <time>2019-06-19T08:32:44Z</time>
      </trkpt>
      <trkpt lat="44.22388" lon="5.60886">
        <ele>727</ele>
        <time>2019-06-19T08:32:45Z</time>
      </trkpt>
      <trkpt lat="44.2239" lon="5.6088">
        <ele>727</ele>
        <time>2019-06-19T08:32:46Z</time>
      </trkpt>
      <trkpt lat="44.22391" lon="5.60875">
        <ele>727</ele>
        <time>2019-06-19T08:32:47Z</time>
      </trkpt>
      <trkpt lat="44.22393" lon="5.6087">
        <ele>727</ele>
        <time>2019-06-19T08:32:48Z</time>
      </trkpt>
      <trkpt lat="44.22395" lon="5.60864">
        <ele>727</ele>
        <time>2019-06-19T08:32:49Z</time>
      </trkpt>
      <trkpt lat="44.22399" lon="5.6086">
        <ele>727</ele>
        <time>2019-06-19T08:32:50Z</time>
      </trkpt>
      <trkpt lat="44.22403" lon="5.60857">
        <ele>727</ele>
        <time>2019-06-19T08:32:51Z</time>
      </trkpt>
      <trkpt lat="44.22408" lon="5.60856">
        <ele>727</ele>
        <time>2019-06-19T08:32:52Z</time>
      </trkpt>
      <trkpt lat="44.22412" lon="5.60857">
        <ele>727</ele>
        <time>2019-06-19T08:32:53Z</time>
      </trkpt>
      <trkpt lat="44.22416" lon="5.60859">
        <ele>727</ele>
        <time>2019-06-19T08:32:54Z</time>
      </trkpt>
      <trkpt lat="44.2242" lon="5.60861">
        <ele>727</ele>
        <time>2019-06-19T08:32:55Z</time>
      </trkpt>
      <trkpt lat="44.22424" lon="5.60864">
        <ele>727</ele>
        <time>2019-06-19T08:32:56Z</time>
      </trkpt>
      <trkpt lat="44.22428" lon="5.60867">
        <ele>728</ele>
        <time>2019-06-19T08:32:57Z</time>
      </trkpt>
      <trkpt lat="44.22431" lon="5.60871">
        <ele>728</ele>
        <time>2019-06-19T08:32:58Z</time>
      </trkpt>
      <trkpt lat="44.22435" lon="5.60874">
        <ele>728</ele>
        <time>2019-06-19T08:32:59Z</time>
      </trkpt>
      <trkpt lat="44.22438" lon="5.60878">
        <ele>729</ele>
        <time>2019-06-19T08:33:00Z</time>
      </trkpt>
      <trkpt lat="44.22442" lon="5.60881">
        <ele>729</ele>
        <time>2019-06-19T08:33:01Z</time>
      </trkpt>
      <trkpt lat="44.22445" lon="5.60884">
        <ele>729</ele>
        <time>2019-06-19T08:33:02Z</time>
      </trkpt>
      <trkpt lat="44.22449" lon="5.60888">
        <ele>730</ele>
        <time>2019-06-19T08:33:03Z</time>
      </trkpt>
      <trkpt lat="44.22452" lon="5.60891">
        <ele>730</ele>
        <time>2019-06-19T08:33:04Z</time>
      </trkpt>
      <trkpt lat="44.22455" lon="5.60895">
        <ele>730</ele>
        <time>2019-06-19T08:33:05Z</time>
      </trkpt>
      <trkpt lat="44.22459" lon="5.60899">
        <ele>731</ele>
        <time>2019-06-19T08:33:06Z</time>
      </trkpt>
      <trkpt lat="44.22462" lon="5.60903">
        <ele>731</ele>
        <time>2019-06-19T08:33:07Z</time>
      </trkpt>
      <trkpt lat="44.22465" lon="5.60907">
        <ele>731</ele>
        <time>2019-06-19T08:33:08Z</time>
      </trkpt>
      <trkpt lat="44.22469" lon="5.60911">
        <ele>731</ele>
        <time>2019-06-19T08:33:09Z</time>
      </trkpt>
      <trkpt lat="44.22472" lon="5.60915">
        <ele>731</ele>
        <time>2019-06-19T08:33:10Z</time>
      </trkpt>
      <trkpt lat="44.22476" lon="5.6092">
        <ele>731</ele>
        <time>2019-06-19T08:33:11Z</time>
      </trkpt>
      <trkpt lat="44.2248" lon="5.60924">
        <ele>731</ele>
        <time>2019-06-19T08:33:12Z</time>
      </trkpt>
      <trkpt lat="44.22484" lon="5.60928">
        <ele>731</ele>
        <time>2019-06-19T08:33:13Z</time>
      </trkpt>
      <trkpt lat="44.22488" lon="5.60932">
        <ele>732</ele>
        <time>2019-06-19T08:33:14Z</time>
      </trkpt>
      <trkpt lat="44.22492" lon="5.60935">
        <ele>732</ele>
        <time>2019-06-19T08:33:15Z</time>
      </trkpt>
      <trkpt lat="44.22497" lon="5.60939">
        <ele>732</ele>
        <time>2019-06-19T08:33:16Z</time>
      </trkpt>
      <trkpt lat="44.22501" lon="5.60942">
        <ele>732</ele>
        <time>2019-06-19T08:33:17Z</time>
      </trkpt>
      <trkpt lat="44.22506" lon="5.60945">
        <ele>732</ele>
        <time>2019-06-19T08:33:18Z</time>
      </trkpt>
      <trkpt lat="44.22512" lon="5.60946">
        <ele>732</ele>
        <time>2019-06-19T08:33:19Z</time>
      </trkpt>
      <trkpt lat="44.22518" lon="5.60948">
        <ele>732</ele>
        <time>2019-06-19T08:33:20Z</time>
      </trkpt>
      <trkpt lat="44.22524" lon="5.60948">
        <ele>732</ele>
        <time>2019-06-19T08:33:21Z</time>
      </trkpt>
      <trkpt lat="44.2253" lon="5.60949">
        <ele>732</ele>
        <time>2019-06-19T08:33:22Z</time>
      </trkpt>
      <trkpt lat="44.22536" lon="5.6095">
        <ele>732</ele>
        <time>2019-06-19T08:33:23Z</time>
      </trkpt>
      <trkpt lat="44.22542" lon="5.60951">
        <ele>732</ele>
        <time>2019-06-19T08:33:24Z</time>
      </trkpt>
      <trkpt lat="44.22548" lon="5.60951">
        <ele>732</ele>
        <time>2019-06-19T08:33:25Z</time>
      </trkpt>
      <trkpt lat="44.22554" lon="5.60952">
        <ele>732</ele>
        <time>2019-06-19T08:33:26Z</time>
      </trkpt>
      <trkpt lat="44.22559" lon="5.60953">
        <ele>732</ele>
        <time>2019-06-19T08:33:27Z</time>
      </trkpt>
      <trkpt lat="44.22565" lon="5.60954">
        <ele>732</ele>
        <time>2019-06-19T08:33:28Z</time>
      </trkpt>
      <trkpt lat="44.2257" lon="5.60956">
        <ele>732</ele>
        <time>2019-06-19T08:33:29Z</time>
      </trkpt>
      <trkpt lat="44.22575" lon="5.60958">
        <ele>732</ele>
        <time>2019-06-19T08:33:30Z</time>
      </trkpt>
      <trkpt lat="44.22581" lon="5.60961">
        <ele>732</ele>
        <time>2019-06-19T08:33:31Z</time>
      </trkpt>
      <trkpt lat="44.22586" lon="5.60963">
        <ele>732</ele>
        <time>2019-06-19T08:33:32Z</time>
      </trkpt>
      <trkpt lat="44.22591" lon="5.60966">
        <ele>732</ele>
        <time>2019-06-19T08:33:33Z</time>
      </trkpt>
      <trkpt lat="44.22597" lon="5.60968">
        <ele>732</ele>
        <time>2019-06-19T08:33:34Z</time>
      </trkpt>
      <trkpt lat="44.22604" lon="5.60971">
        <ele>732</ele>
        <time>2019-06-19T08:33:35Z</time>
      </trkpt>
      <trkpt lat="44.22609" lon="5.60972">
        <ele>732</ele>
        <time>2019-06-19T08:33:36Z</time>
      </trkpt>
      <trkpt lat="44.22614" lon="5.60974">
        <ele>732</ele>
        <time>2019-06-19T08:33:37Z</time>
      </trkpt>
      <trkpt lat="44.2262" lon="5.60974">
        <ele>733</ele>
        <time>2019-06-19T08:33:38Z</time>
      </trkpt>
      <trkpt lat="44.22625" lon="5.60973">
        <ele>733</ele>
        <time>2019-06-19T08:33:39Z</time>
      </trkpt>
      <trkpt lat="44.22631" lon="5.60972">
        <ele>733</ele>
        <time>2019-06-19T08:33:40Z</time>
      </trkpt>
      <trkpt lat="44.22637" lon="5.60971">
        <ele>733</ele>
        <time>2019-06-19T08:33:41Z</time>
      </trkpt>
      <trkpt lat="44.22643" lon="5.60971">
        <ele>733</ele>
        <time>2019-06-19T08:33:42Z</time>
      </trkpt>
      <trkpt lat="44.22649" lon="5.60971">
        <ele>733</ele>
        <time>2019-06-19T08:33:43Z</time>
      </trkpt>
      <trkpt lat="44.22654" lon="5.60971">
        <ele>733</ele>
        <time>2019-06-19T08:33:44Z</time>
      </trkpt>
      <trkpt lat="44.2266" lon="5.60972">
        <ele>733</ele>
        <time>2019-06-19T08:33:45Z</time>
      </trkpt>
      <trkpt lat="44.22666" lon="5.60974">
        <ele>733</ele>
        <time>2019-06-19T08:33:46Z</time>
      </trkpt>
      <trkpt lat="44.22672" lon="5.60975">
        <ele>734</ele>
        <time>2019-06-19T08:33:47Z</time>
      </trkpt>
      <trkpt lat="44.22678" lon="5.60977">
        <ele>734</ele>
        <time>2019-06-19T08:33:48Z</time>
      </trkpt>
      <trkpt lat="44.22684" lon="5.60979">
        <ele>735</ele>
        <time>2019-06-19T08:33:49Z</time>
      </trkpt>
      <trkpt lat="44.22689" lon="5.60982">
        <ele>735</ele>
        <time>2019-06-19T08:33:50Z</time>
      </trkpt>
      <trkpt lat="44.22694" lon="5.60984">
        <ele>736</ele>
        <time>2019-06-19T08:33:51Z</time>
      </trkpt>
      <trkpt lat="44.22699" lon="5.60987">
        <ele>736</ele>
        <time>2019-06-19T08:33:52Z</time>
      </trkpt>
      <trkpt lat="44.22704" lon="5.6099">
        <ele>736</ele>
        <time>2019-06-19T08:33:53Z</time>
      </trkpt>
      <trkpt lat="44.22709" lon="5.60992">
        <ele>736</ele>
        <time>2019-06-19T08:33:54Z</time>
      </trkpt>
      <trkpt lat="44.22714" lon="5.60993">
        <ele>736</ele>
        <time>2019-06-19T08:33:55Z</time>
      </trkpt>
      <trkpt lat="44.22719" lon="5.60995">
        <ele>736</ele>
        <time>2019-06-19T08:33:56Z</time>
      </trkpt>
      <trkpt lat="44.22723" lon="5.60997">
        <ele>736</ele>
        <time>2019-06-19T08:33:57Z</time>
      </trkpt>
      <trkpt lat="44.22728" lon="5.60999">
        <ele>736</ele>
        <time>2019-06-19T08:33:58Z</time>
      </trkpt>
      <trkpt lat="44.22732" lon="5.61001">
        <ele>736</ele>
        <time>2019-06-19T08:33:59Z</time>
      </trkpt>
      <trkpt lat="44.22736" lon="5.61002">
        <ele>736</ele>
        <time>2019-06-19T08:34:00Z</time>
      </trkpt>
      <trkpt lat="44.22741" lon="5.61003">
        <ele>736</ele>
        <time>2019-06-19T08:34:01Z</time>
      </trkpt>
      <trkpt lat="44.22746" lon="5.61003">
        <ele>736</ele>
        <time>2019-06-19T08:34:02Z</time>
      </trkpt>
      <trkpt lat="44.22751" lon="5.61003">
        <ele>736</ele>
        <time>2019-06-19T08:34:03Z</time>
      </trkpt>
      <trkpt lat="44.22756" lon="5.61002">
        <ele>736</ele>
        <time>2019-06-19T08:34:04Z</time>
      </trkpt>
      <trkpt lat="44.22761" lon="5.61002">
        <ele>736</ele>
        <time>2019-06-19T08:34:05Z</time>
      </trkpt>
      <trkpt lat="44.22766" lon="5.61001">
        <ele>736</ele>
        <time>2019-06-19T08:34:06Z</time>
      </trkpt>
      <trkpt lat="44.22771" lon="5.61">
        <ele>736</ele>
        <time>2019-06-19T08:34:07Z</time>
      </trkpt>
      <trkpt lat="44.22777" lon="5.61">
        <ele>736</ele>
        <time>2019-06-19T08:34:08Z</time>
      </trkpt>
      <trkpt lat="44.22783" lon="5.60999">
        <ele>736</ele>
        <time>2019-06-19T08:34:09Z</time>
      </trkpt>
      <trkpt lat="44.22788" lon="5.60999">
        <ele>736</ele>
        <time>2019-06-19T08:34:10Z</time>
      </trkpt>
      <trkpt lat="44.22794" lon="5.60998">
        <ele>736</ele>
        <time>2019-06-19T08:34:11Z</time>
      </trkpt>
      <trkpt lat="44.228" lon="5.60997">
        <ele>736</ele>
        <time>2019-06-19T08:34:12Z</time>
      </trkpt>
      <trkpt lat="44.22805" lon="5.60997">
        <ele>736</ele>
        <time>2019-06-19T08:34:13Z</time>
      </trkpt>
      <trkpt lat="44.22811" lon="5.60997">
        <ele>736</ele>
        <time>2019-06-19T08:34:14Z</time>
      </trkpt>
      <trkpt lat="44.22816" lon="5.60997">
        <ele>736</ele>
        <time>2019-06-19T08:34:15Z</time>
      </trkpt>
      <trkpt lat="44.22822" lon="5.60998">
        <ele>736</ele>
        <time>2019-06-19T08:34:16Z</time>
      </trkpt>
      <trkpt lat="44.22827" lon="5.60998">
        <ele>736</ele>
        <time>2019-06-19T08:34:17Z</time>
      </trkpt>
      <trkpt lat="44.22832" lon="5.60999">
        <ele>736</ele>
        <time>2019-06-19T08:34:18Z</time>
      </trkpt>
      <trkpt lat="44.22837" lon="5.60999">
        <ele>736</ele>
        <time>2019-06-19T08:34:19Z</time>
      </trkpt>
      <trkpt lat="44.22842" lon="5.61">
        <ele>736</ele>
        <time>2019-06-19T08:34:20Z</time>
      </trkpt>
      <trkpt lat="44.22847" lon="5.61">
        <ele>736</ele>
        <time>2019-06-19T08:34:21Z</time>
      </trkpt>
      <trkpt lat="44.22851" lon="5.61">
        <ele>736</ele>
        <time>2019-06-19T08:34:22Z</time>
      </trkpt>
      <trkpt lat="44.22856" lon="5.61001">
        <ele>736</ele>
        <time>2019-06-19T08:34:23Z</time>
      </trkpt>
      <trkpt lat="44.2286" lon="5.61001">
        <ele>737</ele>
        <time>2019-06-19T08:34:24Z</time>
      </trkpt>
      <trkpt lat="44.22865" lon="5.61">
        <ele>737</ele>
        <time>2019-06-19T08:34:25Z</time>
      </trkpt>
      <trkpt lat="44.22869" lon="5.61">
        <ele>737</ele>
        <time>2019-06-19T08:34:26Z</time>
      </trkpt>
      <trkpt lat="44.22874" lon="5.61">
        <ele>737</ele>
        <time>2019-06-19T08:34:27Z</time>
      </trkpt>
      <trkpt lat="44.22879" lon="5.61">
        <ele>737</ele>
        <time>2019-06-19T08:34:28Z</time>
      </trkpt>
      <trkpt lat="44.22884" lon="5.60999">
        <ele>737</ele>
        <time>2019-06-19T08:34:29Z</time>
      </trkpt>
      <trkpt lat="44.22888" lon="5.60999">
        <ele>738</ele>
        <time>2019-06-19T08:34:30Z</time>
      </trkpt>
      <trkpt lat="44.22893" lon="5.60999">
        <ele>738</ele>
        <time>2019-06-19T08:34:31Z</time>
      </trkpt>
      <trkpt lat="44.22898" lon="5.60999">
        <ele>738</ele>
        <time>2019-06-19T08:34:32Z</time>
      </trkpt>
      <trkpt lat="44.22903" lon="5.60998">
        <ele>738</ele>
        <time>2019-06-19T08:34:33Z</time>
      </trkpt>
      <trkpt lat="44.22907" lon="5.60998">
        <ele>739</ele>
        <time>2019-06-19T08:34:34Z</time>
      </trkpt>
      <trkpt lat="44.22911" lon="5.60998">
        <ele>739</ele>
        <time>2019-06-19T08:34:35Z</time>
      </trkpt>
      <trkpt lat="44.22916" lon="5.60998">
        <ele>739</ele>
        <time>2019-06-19T08:34:36Z</time>
      </trkpt>
      <trkpt lat="44.2292" lon="5.60998">
        <ele>739</ele>
        <time>2019-06-19T08:34:37Z</time>
      </trkpt>
      <trkpt lat="44.22924" lon="5.60999">
        <ele>739</ele>
        <time>2019-06-19T08:34:38Z</time>
      </trkpt>
      <trkpt lat="44.22929" lon="5.60999">
        <ele>739</ele>
        <time>2019-06-19T08:34:39Z</time>
      </trkpt>
      <trkpt lat="44.22933" lon="5.61">
        <ele>740</ele>
        <time>2019-06-19T08:34:40Z</time>
      </trkpt>
      <trkpt lat="44.22937" lon="5.61001">
        <ele>740</ele>
        <time>2019-06-19T08:34:41Z</time>
      </trkpt>
      <trkpt lat="44.22941" lon="5.61002">
        <ele>740</ele>
        <time>2019-06-19T08:34:42Z</time>
      </trkpt>
      <trkpt lat="44.22946" lon="5.61003">
        <ele>740</ele>
        <time>2019-06-19T08:34:43Z</time>
      </trkpt>
      <trkpt lat="44.2295" lon="5.61004">
        <ele>740</ele>
        <time>2019-06-19T08:34:44Z</time>
      </trkpt>
      <trkpt lat="44.22955" lon="5.61006">
        <ele>741</ele>
        <time>2019-06-19T08:34:45Z</time>
      </trkpt>
      <trkpt lat="44.22959" lon="5.61007">
        <ele>741</ele>
        <time>2019-06-19T08:34:46Z</time>
      </trkpt>
      <trkpt lat="44.22963" lon="5.61009">
        <ele>741</ele>
        <time>2019-06-19T08:34:47Z</time>
      </trkpt>
      <trkpt lat="44.22967" lon="5.61011">
        <ele>741</ele>
        <time>2019-06-19T08:34:48Z</time>
      </trkpt>
      <trkpt lat="44.22972" lon="5.61014">
        <ele>741</ele>
        <time>2019-06-19T08:34:49Z</time>
      </trkpt>
      <trkpt lat="44.22976" lon="5.61016">
        <ele>741</ele>
        <time>2019-06-19T08:34:50Z</time>
      </trkpt>
      <trkpt lat="44.2298" lon="5.61018">
        <ele>741</ele>
        <time>2019-06-19T08:34:51Z</time>
      </trkpt>
      <trkpt lat="44.22985" lon="5.6102">
        <ele>741</ele>
        <time>2019-06-19T08:34:52Z</time>
      </trkpt>
      <trkpt lat="44.22989" lon="5.61022">
        <ele>742</ele>
        <time>2019-06-19T08:34:53Z</time>
      </trkpt>
      <trkpt lat="44.22994" lon="5.61024">
        <ele>742</ele>
        <time>2019-06-19T08:34:54Z</time>
      </trkpt>
      <trkpt lat="44.22998" lon="5.61026">
        <ele>742</ele>
        <time>2019-06-19T08:34:55Z</time>
      </trkpt>
      <trkpt lat="44.23003" lon="5.61028">
        <ele>742</ele>
        <time>2019-06-19T08:34:56Z</time>
      </trkpt>
      <trkpt lat="44.23007" lon="5.6103">
        <ele>742</ele>
        <time>2019-06-19T08:34:57Z</time>
      </trkpt>
      <trkpt lat="44.23012" lon="5.61033">
        <ele>742</ele>
        <time>2019-06-19T08:34:58Z</time>
      </trkpt>
      <trkpt lat="44.23016" lon="5.61035">
        <ele>742</ele>
        <time>2019-06-19T08:34:59Z</time>
      </trkpt>
      <trkpt lat="44.23021" lon="5.61037">
        <ele>742</ele>
        <time>2019-06-19T08:35:00Z</time>
      </trkpt>
      <trkpt lat="44.23026" lon="5.6104">
        <ele>742</ele>
        <time>2019-06-19T08:35:01Z</time>
      </trkpt>
      <trkpt lat="44.23031" lon="5.61042">
        <ele>742</ele>
        <time>2019-06-19T08:35:02Z</time>
      </trkpt>
      <trkpt lat="44.23035" lon="5.61044">
        <ele>742</ele>
        <time>2019-06-19T08:35:03Z</time>
      </trkpt>
      <trkpt lat="44.2304" lon="5.61047">
        <ele>742</ele>
        <time>2019-06-19T08:35:04Z</time>
      </trkpt>
      <trkpt lat="44.23045" lon="5.61049">
        <ele>742</ele>
        <time>2019-06-19T08:35:05Z</time>
      </trkpt>
      <trkpt lat="44.2305" lon="5.61051">
        <ele>742</ele>
        <time>2019-06-19T08:35:06Z</time>
      </trkpt>
      <trkpt lat="44.23054" lon="5.61054">
        <ele>742</ele>
        <time>2019-06-19T08:35:07Z</time>
      </trkpt>
      <trkpt lat="44.23059" lon="5.61056">
        <ele>742</ele>
        <time>2019-06-19T08:35:08Z</time>
      </trkpt>
      <trkpt lat="44.23064" lon="5.61059">
        <ele>742</ele>
        <time>2019-06-19T08:35:09Z</time>
      </trkpt>
      <trkpt lat="44.23069" lon="5.61061">
        <ele>742</ele>
        <time>2019-06-19T08:35:10Z</time>
      </trkpt>
      <trkpt lat="44.23075" lon="5.61063">
        <ele>742</ele>
        <time>2019-06-19T08:35:11Z</time>
      </trkpt>
      <trkpt lat="44.2308" lon="5.61066">
        <ele>742</ele>
        <time>2019-06-19T08:35:12Z</time>
      </trkpt>
      <trkpt lat="44.23085" lon="5.61068">
        <ele>742</ele>
        <time>2019-06-19T08:35:13Z</time>
      </trkpt>
      <trkpt lat="44.2309" lon="5.61071">
        <ele>742</ele>
        <time>2019-06-19T08:35:14Z</time>
      </trkpt>
      <trkpt lat="44.23095" lon="5.61073">
        <ele>742</ele>
        <time>2019-06-19T08:35:15Z</time>
      </trkpt>
      <trkpt lat="44.23101" lon="5.61075">
        <ele>742</ele>
        <time>2019-06-19T08:35:16Z</time>
      </trkpt>
      <trkpt lat="44.23105" lon="5.61078">
        <ele>742</ele>
        <time>2019-06-19T08:35:17Z</time>
      </trkpt>
      <trkpt lat="44.2311" lon="5.6108">
        <ele>742</ele>
        <time>2019-06-19T08:35:18Z</time>
      </trkpt>
      <trkpt lat="44.23116" lon="5.61081">
        <ele>742</ele>
        <time>2019-06-19T08:35:19Z</time>
      </trkpt>
      <trkpt lat="44.2312" lon="5.61082">
        <ele>742</ele>
        <time>2019-06-19T08:35:20Z</time>
      </trkpt>
      <trkpt lat="44.23126" lon="5.61082">
        <ele>742</ele>
        <time>2019-06-19T08:35:21Z</time>
      </trkpt>
      <trkpt lat="44.23131" lon="5.61082">
        <ele>742</ele>
        <time>2019-06-19T08:35:22Z</time>
      </trkpt>
      <trkpt lat="44.23135" lon="5.6108">
        <ele>742</ele>
        <time>2019-06-19T08:35:23Z</time>
      </trkpt>
      <trkpt lat="44.2314" lon="5.61077">
        <ele>743</ele>
        <time>2019-06-19T08:35:24Z</time>
      </trkpt>
      <trkpt lat="44.23144" lon="5.61074">
        <ele>743</ele>
        <time>2019-06-19T08:35:25Z</time>
      </trkpt>
      <trkpt lat="44.23149" lon="5.61071">
        <ele>743</ele>
        <time>2019-06-19T08:35:26Z</time>
      </trkpt>
      <trkpt lat="44.23153" lon="5.61068">
        <ele>743</ele>
        <time>2019-06-19T08:35:27Z</time>
      </trkpt>
      <trkpt lat="44.23157" lon="5.61066">
        <ele>744</ele>
        <time>2019-06-19T08:35:28Z</time>
      </trkpt>
      <trkpt lat="44.23161" lon="5.61063">
        <ele>744</ele>
        <time>2019-06-19T08:35:29Z</time>
      </trkpt>
      <trkpt lat="44.23166" lon="5.61062">
        <ele>744</ele>
        <time>2019-06-19T08:35:30Z</time>
      </trkpt>
      <trkpt lat="44.23171" lon="5.61061">
        <ele>744</ele>
        <time>2019-06-19T08:35:31Z</time>
      </trkpt>
      <trkpt lat="44.23175" lon="5.6106">
        <ele>745</ele>
        <time>2019-06-19T08:35:32Z</time>
      </trkpt>
      <trkpt lat="44.2318" lon="5.6106">
        <ele>745</ele>
        <time>2019-06-19T08:35:33Z</time>
      </trkpt>
      <trkpt lat="44.23185" lon="5.6106">
        <ele>745</ele>
        <time>2019-06-19T08:35:34Z</time>
      </trkpt>
      <trkpt lat="44.2319" lon="5.61059">
        <ele>745</ele>
        <time>2019-06-19T08:35:35Z</time>
      </trkpt>
      <trkpt lat="44.23194" lon="5.61059">
        <ele>745</ele>
        <time>2019-06-19T08:35:36Z</time>
      </trkpt>
      <trkpt lat="44.23199" lon="5.61059">
        <ele>745</ele>
        <time>2019-06-19T08:35:37Z</time>
      </trkpt>
      <trkpt lat="44.23203" lon="5.6106">
        <ele>745</ele>
        <time>2019-06-19T08:35:38Z</time>
      </trkpt>
      <trkpt lat="44.23208" lon="5.6106">
        <ele>746</ele>
        <time>2019-06-19T08:35:39Z</time>
      </trkpt>
      <trkpt lat="44.23212" lon="5.61061">
        <ele>746</ele>
        <time>2019-06-19T08:35:40Z</time>
      </trkpt>
      <trkpt lat="44.23217" lon="5.61062">
        <ele>746</ele>
        <time>2019-06-19T08:35:41Z</time>
      </trkpt>
      <trkpt lat="44.23221" lon="5.61062">
        <ele>746</ele>
        <time>2019-06-19T08:35:42Z</time>
      </trkpt>
      <trkpt lat="44.23226" lon="5.61063">
        <ele>746</ele>
        <time>2019-06-19T08:35:43Z</time>
      </trkpt>
      <trkpt lat="44.2323" lon="5.61064">
        <ele>746</ele>
        <time>2019-06-19T08:35:44Z</time>
      </trkpt>
      <trkpt lat="44.23235" lon="5.61065">
        <ele>746</ele>
        <time>2019-06-19T08:35:45Z</time>
      </trkpt>
      <trkpt lat="44.2324" lon="5.61065">
        <ele>747</ele>
        <time>2019-06-19T08:35:46Z</time>
      </trkpt>
      <trkpt lat="44.23244" lon="5.61065">
        <ele>747</ele>
        <time>2019-06-19T08:35:47Z</time>
      </trkpt>
      <trkpt lat="44.23249" lon="5.61065">
        <ele>747</ele>
        <time>2019-06-19T08:35:48Z</time>
      </trkpt>
      <trkpt lat="44.23253" lon="5.61065">
        <ele>747</ele>
        <time>2019-06-19T08:35:49Z</time>
      </trkpt>
      <trkpt lat="44.23258" lon="5.61064">
        <ele>747</ele>
        <time>2019-06-19T08:35:50Z</time>
      </trkpt>
      <trkpt lat="44.23262" lon="5.61063">
        <ele>747</ele>
        <time>2019-06-19T08:35:51Z</time>
      </trkpt>
      <trkpt lat="44.23267" lon="5.61061">
        <ele>747</ele>
        <time>2019-06-19T08:35:52Z</time>
      </trkpt>
      <trkpt lat="44.23272" lon="5.6106">
        <ele>747</ele>
        <time>2019-06-19T08:35:53Z</time>
      </trkpt>
      <trkpt lat="44.23277" lon="5.61057">
        <ele>747</ele>
        <time>2019-06-19T08:35:54Z</time>
      </trkpt>
      <trkpt lat="44.23281" lon="5.61055">
        <ele>747</ele>
        <time>2019-06-19T08:35:55Z</time>
      </trkpt>
      <trkpt lat="44.23285" lon="5.61052">
        <ele>747</ele>
        <time>2019-06-19T08:35:56Z</time>
      </trkpt>
      <trkpt lat="44.23289" lon="5.61048">
        <ele>747</ele>
        <time>2019-06-19T08:35:57Z</time>
      </trkpt>
      <trkpt lat="44.23294" lon="5.61045">
        <ele>747</ele>
        <time>2019-06-19T08:35:58Z</time>
      </trkpt>
      <trkpt lat="44.23298" lon="5.61041">
        <ele>747</ele>
        <time>2019-06-19T08:35:59Z</time>
      </trkpt>
      <trkpt lat="44.23302" lon="5.61038">
        <ele>747</ele>
        <time>2019-06-19T08:36:00Z</time>
      </trkpt>
      <trkpt lat="44.23306" lon="5.61034">
        <ele>747</ele>
        <time>2019-06-19T08:36:01Z</time>
      </trkpt>
      <trkpt lat="44.2331" lon="5.6103">
        <ele>747</ele>
        <time>2019-06-19T08:36:02Z</time>
      </trkpt>
      <trkpt lat="44.23314" lon="5.61025">
        <ele>747</ele>
        <time>2019-06-19T08:36:03Z</time>
      </trkpt>
      <trkpt lat="44.23318" lon="5.61021">
        <ele>747</ele>
        <time>2019-06-19T08:36:04Z</time>
      </trkpt>
      <trkpt lat="44.23322" lon="5.61017">
        <ele>748</ele>
        <time>2019-06-19T08:36:05Z</time>
      </trkpt>
      <trkpt lat="44.23325" lon="5.61012">
        <ele>748</ele>
        <time>2019-06-19T08:36:06Z</time>
      </trkpt>
      <trkpt lat="44.23329" lon="5.61007">
        <ele>748</ele>
        <time>2019-06-19T08:36:07Z</time>
      </trkpt>
      <trkpt lat="44.23333" lon="5.61004">
        <ele>749</ele>
        <time>2019-06-19T08:36:08Z</time>
      </trkpt>
      <trkpt lat="44.23337" lon="5.61">
        <ele>749</ele>
        <time>2019-06-19T08:36:09Z</time>
      </trkpt>
      <trkpt lat="44.23342" lon="5.60997">
        <ele>749</ele>
        <time>2019-06-19T08:36:10Z</time>
      </trkpt>
      <trkpt lat="44.23346" lon="5.60994">
        <ele>749</ele>
        <time>2019-06-19T08:36:11Z</time>
      </trkpt>
      <trkpt lat="44.23351" lon="5.60992">
        <ele>750</ele>
        <time>2019-06-19T08:36:12Z</time>
      </trkpt>
      <trkpt lat="44.23355" lon="5.60989">
        <ele>750</ele>
        <time>2019-06-19T08:36:13Z</time>
      </trkpt>
      <trkpt lat="44.2336" lon="5.60987">
        <ele>750</ele>
        <time>2019-06-19T08:36:14Z</time>
      </trkpt>
      <trkpt lat="44.23364" lon="5.60986">
        <ele>750</ele>
        <time>2019-06-19T08:36:15Z</time>
      </trkpt>
      <trkpt lat="44.23369" lon="5.60985">
        <ele>751</ele>
        <time>2019-06-19T08:36:16Z</time>
      </trkpt>
      <trkpt lat="44.23374" lon="5.60984">
        <ele>751</ele>
        <time>2019-06-19T08:36:17Z</time>
      </trkpt>
      <trkpt lat="44.23378" lon="5.60983">
        <ele>751</ele>
        <time>2019-06-19T08:36:18Z</time>
      </trkpt>
      <trkpt lat="44.23383" lon="5.60982">
        <ele>751</ele>
        <time>2019-06-19T08:36:19Z</time>
      </trkpt>
      <trkpt lat="44.23387" lon="5.60981">
        <ele>751</ele>
        <time>2019-06-19T08:36:20Z</time>
      </trkpt>
      <trkpt lat="44.23391" lon="5.6098">
        <ele>751</ele>
        <time>2019-06-19T08:36:21Z</time>
      </trkpt>
      <trkpt lat="44.23395" lon="5.60978">
        <ele>751</ele>
        <time>2019-06-19T08:36:22Z</time>
      </trkpt>
      <trkpt lat="44.23399" lon="5.60977">
        <ele>751</ele>
        <time>2019-06-19T08:36:23Z</time>
      </trkpt>
      <trkpt lat="44.23404" lon="5.60975">
        <ele>751</ele>
        <time>2019-06-19T08:36:24Z</time>
      </trkpt>
      <trkpt lat="44.23409" lon="5.60972">
        <ele>752</ele>
        <time>2019-06-19T08:36:25Z</time>
      </trkpt>
      <trkpt lat="44.23413" lon="5.60969">
        <ele>753</ele>
        <time>2019-06-19T08:36:26Z</time>
      </trkpt>
      <trkpt lat="44.23417" lon="5.60966">
        <ele>754</ele>
        <time>2019-06-19T08:36:27Z</time>
      </trkpt>
      <trkpt lat="44.2342" lon="5.60963">
        <ele>755</ele>
        <time>2019-06-19T08:36:28Z</time>
      </trkpt>
      <trkpt lat="44.23423" lon="5.60959">
        <ele>755</ele>
        <time>2019-06-19T08:36:29Z</time>
      </trkpt>
      <trkpt lat="44.23425" lon="5.60955">
        <ele>755</ele>
        <time>2019-06-19T08:36:30Z</time>
      </trkpt>
      <trkpt lat="44.23428" lon="5.60951">
        <ele>755</ele>
        <time>2019-06-19T08:36:31Z</time>
      </trkpt>
      <trkpt lat="44.23431" lon="5.60947">
        <ele>756</ele>
        <time>2019-06-19T08:36:32Z</time>
      </trkpt>
      <trkpt lat="44.23433" lon="5.60942">
        <ele>756</ele>
        <time>2019-06-19T08:36:33Z</time>
      </trkpt>
      <trkpt lat="44.23436" lon="5.60938">
        <ele>756</ele>
        <time>2019-06-19T08:36:34Z</time>
      </trkpt>
      <trkpt lat="44.23439" lon="5.60933">
        <ele>756</ele>
        <time>2019-06-19T08:36:35Z</time>
      </trkpt>
      <trkpt lat="44.23442" lon="5.60928">
        <ele>756</ele>
        <time>2019-06-19T08:36:36Z</time>
      </trkpt>
      <trkpt lat="44.23445" lon="5.60922">
        <ele>756</ele>
        <time>2019-06-19T08:36:37Z</time>
      </trkpt>
      <trkpt lat="44.23449" lon="5.60917">
        <ele>756</ele>
        <time>2019-06-19T08:36:38Z</time>
      </trkpt>
      <trkpt lat="44.23452" lon="5.60911">
        <ele>756</ele>
        <time>2019-06-19T08:36:39Z</time>
      </trkpt>
      <trkpt lat="44.23455" lon="5.60905">
        <ele>756</ele>
        <time>2019-06-19T08:36:40Z</time>
      </trkpt>
      <trkpt lat="44.23458" lon="5.60899">
        <ele>756</ele>
        <time>2019-06-19T08:36:41Z</time>
      </trkpt>
      <trkpt lat="44.23461" lon="5.60893">
        <ele>756</ele>
        <time>2019-06-19T08:36:42Z</time>
      </trkpt>
      <trkpt lat="44.23465" lon="5.60887">
        <ele>756</ele>
        <time>2019-06-19T08:36:43Z</time>
      </trkpt>
      <trkpt lat="44.23468" lon="5.60882">
        <ele>756</ele>
        <time>2019-06-19T08:36:44Z</time>
      </trkpt>
      <trkpt lat="44.23471" lon="5.60876">
        <ele>756</ele>
        <time>2019-06-19T08:36:45Z</time>
      </trkpt>
      <trkpt lat="44.23475" lon="5.60871">
        <ele>756</ele>
        <time>2019-06-19T08:36:46Z</time>
      </trkpt>
      <trkpt lat="44.23478" lon="5.60865">
        <ele>756</ele>
        <time>2019-06-19T08:36:47Z</time>
      </trkpt>
      <trkpt lat="44.23481" lon="5.6086">
        <ele>756</ele>
        <time>2019-06-19T08:36:48Z</time>
      </trkpt>
      <trkpt lat="44.23484" lon="5.60856">
        <ele>756</ele>
        <time>2019-06-19T08:36:49Z</time>
      </trkpt>
      <trkpt lat="44.23488" lon="5.60851">
        <ele>756</ele>
        <time>2019-06-19T08:36:50Z</time>
      </trkpt>
      <trkpt lat="44.23491" lon="5.60846">
        <ele>756</ele>
        <time>2019-06-19T08:36:51Z</time>
      </trkpt>
      <trkpt lat="44.23494" lon="5.60841">
        <ele>756</ele>
        <time>2019-06-19T08:36:52Z</time>
      </trkpt>
      <trkpt lat="44.23497" lon="5.60837">
        <ele>756</ele>
        <time>2019-06-19T08:36:53Z</time>
      </trkpt>
      <trkpt lat="44.23501" lon="5.60833">
        <ele>756</ele>
        <time>2019-06-19T08:36:54Z</time>
      </trkpt>
      <trkpt lat="44.23504" lon="5.60829">
        <ele>756</ele>
        <time>2019-06-19T08:36:55Z</time>
      </trkpt>
      <trkpt lat="44.23508" lon="5.60824">
        <ele>756</ele>
        <time>2019-06-19T08:36:56Z</time>
      </trkpt>
      <trkpt lat="44.23511" lon="5.6082">
        <ele>756</ele>
        <time>2019-06-19T08:36:57Z</time>
      </trkpt>
      <trkpt lat="44.23514" lon="5.60815">
        <ele>756</ele>
        <time>2019-06-19T08:36:58Z</time>
      </trkpt>
      <trkpt lat="44.23518" lon="5.60811">
        <ele>756</ele>
        <time>2019-06-19T08:36:59Z</time>
      </trkpt>
      <trkpt lat="44.23521" lon="5.60807">
        <ele>756</ele>
        <time>2019-06-19T08:37:00Z</time>
      </trkpt>
      <trkpt lat="44.23525" lon="5.60803">
        <ele>756</ele>
        <time>2019-06-19T08:37:01Z</time>
      </trkpt>
      <trkpt lat="44.23528" lon="5.60798">
        <ele>756</ele>
        <time>2019-06-19T08:37:02Z</time>
      </trkpt>
      <trkpt lat="44.23531" lon="5.60794">
        <ele>756</ele>
        <time>2019-06-19T08:37:03Z</time>
      </trkpt>
      <trkpt lat="44.23534" lon="5.60789">
        <ele>756</ele>
        <time>2019-06-19T08:37:04Z</time>
      </trkpt>
      <trkpt lat="44.23537" lon="5.60784">
        <ele>756</ele>
        <time>2019-06-19T08:37:05Z</time>
      </trkpt>
      <trkpt lat="44.23541" lon="5.6078">
        <ele>756</ele>
        <time>2019-06-19T08:37:06Z</time>
      </trkpt>
      <trkpt lat="44.23544" lon="5.60776">
        <ele>756</ele>
        <time>2019-06-19T08:37:07Z</time>
      </trkpt>
      <trkpt lat="44.23547" lon="5.60771">
        <ele>756</ele>
        <time>2019-06-19T08:37:08Z</time>
      </trkpt>
      <trkpt lat="44.2355" lon="5.60767">
        <ele>756</ele>
        <time>2019-06-19T08:37:09Z</time>
      </trkpt>
      <trkpt lat="44.23553" lon="5.60763">
        <ele>756</ele>
        <time>2019-06-19T08:37:10Z</time>
      </trkpt>
      <trkpt lat="44.23557" lon="5.60759">
        <ele>756</ele>
        <time>2019-06-19T08:37:11Z</time>
      </trkpt>
      <trkpt lat="44.2356" lon="5.60755">
        <ele>756</ele>
        <time>2019-06-19T08:37:12Z</time>
      </trkpt>
      <trkpt lat="44.23563" lon="5.60751">
        <ele>756</ele>
        <time>2019-06-19T08:37:13Z</time>
      </trkpt>
      <trkpt lat="44.23567" lon="5.60747">
        <ele>756</ele>
        <time>2019-06-19T08:37:14Z</time>
      </trkpt>
      <trkpt lat="44.23571" lon="5.60743">
        <ele>756</ele>
        <time>2019-06-19T08:37:15Z</time>
      </trkpt>
      <trkpt lat="44.23574" lon="5.60739">
        <ele>756</ele>
        <time>2019-06-19T08:37:16Z</time>
      </trkpt>
      <trkpt lat="44.23578" lon="5.60736">
        <ele>756</ele>
        <time>2019-06-19T08:37:17Z</time>
      </trkpt>
      <trkpt lat="44.23582" lon="5.60733">
        <ele>756</ele>
        <time>2019-06-19T08:37:18Z</time>
      </trkpt>
      <trkpt lat="44.23587" lon="5.6073">
        <ele>756</ele>
        <time>2019-06-19T08:37:19Z</time>
      </trkpt>
      <trkpt lat="44.23591" lon="5.60728">
        <ele>756</ele>
        <time>2019-06-19T08:37:20Z</time>
      </trkpt>
      <trkpt lat="44.23595" lon="5.60725">
        <ele>756</ele>
        <time>2019-06-19T08:37:21Z</time>
      </trkpt>
      <trkpt lat="44.23599" lon="5.60723">
        <ele>756</ele>
        <time>2019-06-19T08:37:22Z</time>
      </trkpt>
      <trkpt lat="44.23604" lon="5.60721">
        <ele>756</ele>
        <time>2019-06-19T08:37:23Z</time>
      </trkpt>
      <trkpt lat="44.23608" lon="5.60719">
        <ele>756</ele>
        <time>2019-06-19T08:37:24Z</time>
      </trkpt>
      <trkpt lat="44.23613" lon="5.60718">
        <ele>756</ele>
        <time>2019-06-19T08:37:25Z</time>
      </trkpt>
      <trkpt lat="44.23617" lon="5.60716">
        <ele>756</ele>
        <time>2019-06-19T08:37:26Z</time>
      </trkpt>
      <trkpt lat="44.23621" lon="5.60714">
        <ele>756</ele>
        <time>2019-06-19T08:37:27Z</time>
      </trkpt>
      <trkpt lat="44.23626" lon="5.60713">
        <ele>756</ele>
        <time>2019-06-19T08:37:28Z</time>
      </trkpt>
      <trkpt lat="44.2363" lon="5.60712">
        <ele>756</ele>
        <time>2019-06-19T08:37:29Z</time>
      </trkpt>
      <trkpt lat="44.23634" lon="5.60711">
        <ele>756</ele>
        <time>2019-06-19T08:37:30Z</time>
      </trkpt>
      <trkpt lat="44.23639" lon="5.6071">
        <ele>756</ele>
        <time>2019-06-19T08:37:31Z</time>
      </trkpt>
      <trkpt lat="44.23643" lon="5.60708">
        <ele>756</ele>
        <time>2019-06-19T08:37:32Z</time>
      </trkpt>
      <trkpt lat="44.23647" lon="5.60706">
        <ele>756</ele>
        <time>2019-06-19T08:37:33Z</time>
      </trkpt>
      <trkpt lat="44.23651" lon="5.60704">
        <ele>756</ele>
        <time>2019-06-19T08:37:34Z</time>
      </trkpt>
      <trkpt lat="44.23655" lon="5.60702">
        <ele>756</ele>
        <time>2019-06-19T08:37:35Z</time>
      </trkpt>
      <trkpt lat="44.23659" lon="5.607">
        <ele>756</ele>
        <time>2019-06-19T08:37:36Z</time>
      </trkpt>
      <trkpt lat="44.23663" lon="5.60698">
        <ele>756</ele>
        <time>2019-06-19T08:37:37Z</time>
      </trkpt>
      <trkpt lat="44.23667" lon="5.60697">
        <ele>756</ele>
        <time>2019-06-19T08:37:38Z</time>
      </trkpt>
      <trkpt lat="44.23671" lon="5.60696">
        <ele>756</ele>
        <time>2019-06-19T08:37:39Z</time>
      </trkpt>
      <trkpt lat="44.23675" lon="5.60695">
        <ele>756</ele>
        <time>2019-06-19T08:37:40Z</time>
      </trkpt>
      <trkpt lat="44.23679" lon="5.60694">
        <ele>756</ele>
        <time>2019-06-19T08:37:41Z</time>
      </trkpt>
      <trkpt lat="44.23683" lon="5.60694">
        <ele>756</ele>
        <time>2019-06-19T08:37:42Z</time>
      </trkpt>
      <trkpt lat="44.23687" lon="5.60693">
        <ele>756</ele>
        <time>2019-06-19T08:37:43Z</time>
      </trkpt>
      <trkpt lat="44.23691" lon="5.60693">
        <ele>756</ele>
        <time>2019-06-19T08:37:44Z</time>
      </trkpt>
      <trkpt lat="44.23695" lon="5.60693">
        <ele>756</ele>
        <time>2019-06-19T08:37:45Z</time>
      </trkpt>
      <trkpt lat="44.23699" lon="5.60692">
        <ele>756</ele>
        <time>2019-06-19T08:37:46Z</time>
      </trkpt>
      <trkpt lat="44.23703" lon="5.60692">
        <ele>756</ele>
        <time>2019-06-19T08:37:47Z</time>
      </trkpt>
      <trkpt lat="44.23707" lon="5.60692">
        <ele>756</ele>
        <time>2019-06-19T08:37:48Z</time>
      </trkpt>
      <trkpt lat="44.23711" lon="5.60692">
        <ele>756</ele>
        <time>2019-06-19T08:37:49Z</time>
      </trkpt>
      <trkpt lat="44.23715" lon="5.60693">
        <ele>756</ele>
        <time>2019-06-19T08:37:50Z</time>
      </trkpt>
      <trkpt lat="44.23719" lon="5.60693">
        <ele>756</ele>
        <time>2019-06-19T08:37:51Z</time>
      </trkpt>
      <trkpt lat="44.23723" lon="5.60694">
        <ele>756</ele>
        <time>2019-06-19T08:37:52Z</time>
      </trkpt>
      <trkpt lat="44.23727" lon="5.60694">
        <ele>756</ele>
        <time>2019-06-19T08:37:53Z</time>
      </trkpt>
      <trkpt lat="44.23731" lon="5.60693">
        <ele>756</ele>
        <time>2019-06-19T08:37:54Z</time>
      </trkpt>
      <trkpt lat="44.23735" lon="5.60693">
        <ele>757</ele>
        <time>2019-06-19T08:37:55Z</time>
      </trkpt>
      <trkpt lat="44.23739" lon="5.60693">
        <ele>757</ele>
        <time>2019-06-19T08:37:56Z</time>
      </trkpt>
      <trkpt lat="44.23743" lon="5.60692">
        <ele>757</ele>
        <time>2019-06-19T08:37:57Z</time>
      </trkpt>
      <trkpt lat="44.23746" lon="5.60692">
        <ele>757</ele>
        <time>2019-06-19T08:37:58Z</time>
      </trkpt>
      <trkpt lat="44.2375" lon="5.60692">
        <ele>757</ele>
        <time>2019-06-19T08:37:59Z</time>
      </trkpt>
      <trkpt lat="44.23753" lon="5.60691">
        <ele>758</ele>
        <time>2019-06-19T08:38:00Z</time>
      </trkpt>
      <trkpt lat="44.23756" lon="5.60691">
        <ele>758</ele>
        <time>2019-06-19T08:38:01Z</time>
      </trkpt>
      <trkpt lat="44.23759" lon="5.60691">
        <ele>758</ele>
        <time>2019-06-19T08:38:02Z</time>
      </trkpt>
      <trkpt lat="44.23761" lon="5.60691">
        <ele>758</ele>
        <time>2019-06-19T08:38:03Z</time>
      </trkpt>
      <trkpt lat="44.23764" lon="5.60691">
        <ele>759</ele>
        <time>2019-06-19T08:38:04Z</time>
      </trkpt>
      <trkpt lat="44.23767" lon="5.60691">
        <ele>759</ele>
        <time>2019-06-19T08:38:05Z</time>
      </trkpt>
      <trkpt lat="44.2377" lon="5.60691">
        <ele>760</ele>
        <time>2019-06-19T08:38:06Z</time>
      </trkpt>
      <trkpt lat="44.23773" lon="5.60692">
        <ele>760</ele>
        <time>2019-06-19T08:38:07Z</time>
      </trkpt>
      <trkpt lat="44.23776" lon="5.60693">
        <ele>761</ele>
        <time>2019-06-19T08:38:08Z</time>
      </trkpt>
      <trkpt lat="44.23779" lon="5.60694">
        <ele>761</ele>
        <time>2019-06-19T08:38:09Z</time>
      </trkpt>
      <trkpt lat="44.23782" lon="5.60695">
        <ele>761</ele>
        <time>2019-06-19T08:38:10Z</time>
      </trkpt>
      <trkpt lat="44.23785" lon="5.60697">
        <ele>761</ele>
        <time>2019-06-19T08:38:11Z</time>
      </trkpt>
      <trkpt lat="44.23788" lon="5.60698">
        <ele>762</ele>
        <time>2019-06-19T08:38:12Z</time>
      </trkpt>
      <trkpt lat="44.23791" lon="5.607">
        <ele>762</ele>
        <time>2019-06-19T08:38:13Z</time>
      </trkpt>
      <trkpt lat="44.23794" lon="5.60701">
        <ele>762</ele>
        <time>2019-06-19T08:38:14Z</time>
      </trkpt>
      <trkpt lat="44.23798" lon="5.60703">
        <ele>762</ele>
        <time>2019-06-19T08:38:15Z</time>
      </trkpt>
      <trkpt lat="44.23801" lon="5.60705">
        <ele>762</ele>
        <time>2019-06-19T08:38:16Z</time>
      </trkpt>
      <trkpt lat="44.23805" lon="5.60708">
        <ele>762</ele>
        <time>2019-06-19T08:38:17Z</time>
      </trkpt>
      <trkpt lat="44.23809" lon="5.6071">
        <ele>762</ele>
        <time>2019-06-19T08:38:18Z</time>
      </trkpt>
      <trkpt lat="44.23812" lon="5.60712">
        <ele>762</ele>
        <time>2019-06-19T08:38:19Z</time>
      </trkpt>
      <trkpt lat="44.23816" lon="5.60714">
        <ele>762</ele>
        <time>2019-06-19T08:38:20Z</time>
      </trkpt>
      <trkpt lat="44.2382" lon="5.60716">
        <ele>762</ele>
        <time>2019-06-19T08:38:21Z</time>
      </trkpt>
      <trkpt lat="44.23824" lon="5.60718">
        <ele>762</ele>
        <time>2019-06-19T08:38:22Z</time>
      </trkpt>
      <trkpt lat="44.23827" lon="5.6072">
        <ele>762</ele>
        <time>2019-06-19T08:38:23Z</time>
      </trkpt>
      <trkpt lat="44.23831" lon="5.60721">
        <ele>762</ele>
        <time>2019-06-19T08:38:24Z</time>
      </trkpt>
      <trkpt lat="44.23834" lon="5.60723">
        <ele>763</ele>
        <time>2019-06-19T08:38:25Z</time>
      </trkpt>
      <trkpt lat="44.23838" lon="5.60725">
        <ele>763</ele>
        <time>2019-06-19T08:38:26Z</time>
      </trkpt>
      <trkpt lat="44.23841" lon="5.60727">
        <ele>763</ele>
        <time>2019-06-19T08:38:27Z</time>
      </trkpt>
      <trkpt lat="44.23845" lon="5.60729">
        <ele>763</ele>
        <time>2019-06-19T08:38:28Z</time>
      </trkpt>
      <trkpt lat="44.23848" lon="5.60731">
        <ele>763</ele>
        <time>2019-06-19T08:38:29Z</time>
      </trkpt>
      <trkpt lat="44.23852" lon="5.60733">
        <ele>764</ele>
        <time>2019-06-19T08:38:30Z</time>
      </trkpt>
      <trkpt lat="44.23855" lon="5.60735">
        <ele>764</ele>
        <time>2019-06-19T08:38:31Z</time>
      </trkpt>
      <trkpt lat="44.23859" lon="5.60736">
        <ele>764</ele>
        <time>2019-06-19T08:38:32Z</time>
      </trkpt>
      <trkpt lat="44.23862" lon="5.60738">
        <ele>764</ele>
        <time>2019-06-19T08:38:33Z</time>
      </trkpt>
      <trkpt lat="44.23866" lon="5.6074">
        <ele>764</ele>
        <time>2019-06-19T08:38:34Z</time>
      </trkpt>
      <trkpt lat="44.23869" lon="5.60742">
        <ele>764</ele>
        <time>2019-06-19T08:38:35Z</time>
      </trkpt>
      <trkpt lat="44.23872" lon="5.60743">
        <ele>765</ele>
        <time>2019-06-19T08:38:36Z</time>
      </trkpt>
      <trkpt lat="44.23875" lon="5.60745">
        <ele>765</ele>
        <time>2019-06-19T08:38:37Z</time>
      </trkpt>
      <trkpt lat="44.23878" lon="5.60747">
        <ele>765</ele>
        <time>2019-06-19T08:38:38Z</time>
      </trkpt>
      <trkpt lat="44.23882" lon="5.60749">
        <ele>765</ele>
        <time>2019-06-19T08:38:39Z</time>
      </trkpt>
      <trkpt lat="44.23885" lon="5.6075">
        <ele>765</ele>
        <time>2019-06-19T08:38:40Z</time>
      </trkpt>
      <trkpt lat="44.23888" lon="5.60752">
        <ele>766</ele>
        <time>2019-06-19T08:38:41Z</time>
      </trkpt>
      <trkpt lat="44.23891" lon="5.60753">
        <ele>766</ele>
        <time>2019-06-19T08:38:42Z</time>
      </trkpt>
      <trkpt lat="44.23894" lon="5.60754">
        <ele>766</ele>
        <time>2019-06-19T08:38:43Z</time>
      </trkpt>
      <trkpt lat="44.23897" lon="5.60755">
        <ele>766</ele>
        <time>2019-06-19T08:38:44Z</time>
      </trkpt>
      <trkpt lat="44.23899" lon="5.60757">
        <ele>767</ele>
        <time>2019-06-19T08:38:45Z</time>
      </trkpt>
      <trkpt lat="44.23902" lon="5.60758">
        <ele>767</ele>
        <time>2019-06-19T08:38:46Z</time>
      </trkpt>
      <trkpt lat="44.23904" lon="5.60759">
        <ele>767</ele>
        <time>2019-06-19T08:38:47Z</time>
      </trkpt>
      <trkpt lat="44.23907" lon="5.6076">
        <ele>767</ele>
        <time>2019-06-19T08:38:48Z</time>
      </trkpt>
      <trkpt lat="44.23911" lon="5.60762">
        <ele>767</ele>
        <time>2019-06-19T08:38:49Z</time>
      </trkpt>
      <trkpt lat="44.23914" lon="5.60763">
        <ele>767</ele>
        <time>2019-06-19T08:38:50Z</time>
      </trkpt>
      <trkpt lat="44.23916" lon="5.60765">
        <ele>767</ele>
        <time>2019-06-19T08:38:51Z</time>
      </trkpt>
      <trkpt lat="44.23919" lon="5.60766">
        <ele>767</ele>
        <time>2019-06-19T08:38:52Z</time>
      </trkpt>
      <trkpt lat="44.23922" lon="5.60767">
        <ele>767</ele>
        <time>2019-06-19T08:38:53Z</time>
      </trkpt>
      <trkpt lat="44.23924" lon="5.60768">
        <ele>767</ele>
        <time>2019-06-19T08:38:54Z</time>
      </trkpt>
      <trkpt lat="44.23926" lon="5.60769">
        <ele>767</ele>
        <time>2019-06-19T08:38:55Z</time>
      </trkpt>
      <trkpt lat="44.23927" lon="5.6077">
        <ele>767</ele>
        <time>2019-06-19T08:38:56Z</time>
      </trkpt>
      <trkpt lat="44.2393" lon="5.60772">
        <ele>767</ele>
        <time>2019-06-19T08:38:57Z</time>
      </trkpt>
      <trkpt lat="44.23932" lon="5.60774">
        <ele>768</ele>
        <time>2019-06-19T08:38:58Z</time>
      </trkpt>
      <trkpt lat="44.23935" lon="5.60776">
        <ele>769</ele>
        <time>2019-06-19T08:38:59Z</time>
      </trkpt>
      <trkpt lat="44.23938" lon="5.60778">
        <ele>770</ele>
        <time>2019-06-19T08:39:00Z</time>
      </trkpt>
      <trkpt lat="44.23942" lon="5.6078">
        <ele>771</ele>
        <time>2019-06-19T08:39:01Z</time>
      </trkpt>
      <trkpt lat="44.23946" lon="5.60781">
        <ele>772</ele>
        <time>2019-06-19T08:39:02Z</time>
      </trkpt>
      <trkpt lat="44.23949" lon="5.60784">
        <ele>773</ele>
        <time>2019-06-19T08:39:03Z</time>
      </trkpt>
      <trkpt lat="44.23951" lon="5.60786">
        <ele>774</ele>
        <time>2019-06-19T08:39:04Z</time>
      </trkpt>
      <trkpt lat="44.23955" lon="5.60787">
        <ele>775</ele>
        <time>2019-06-19T08:39:05Z</time>
      </trkpt>
      <trkpt lat="44.23958" lon="5.6079">
        <ele>776</ele>
        <time>2019-06-19T08:39:06Z</time>
      </trkpt>
      <trkpt lat="44.23962" lon="5.60793">
        <ele>777</ele>
        <time>2019-06-19T08:39:07Z</time>
      </trkpt>
      <trkpt lat="44.23964" lon="5.60795">
        <ele>778</ele>
        <time>2019-06-19T08:39:08Z</time>
      </trkpt>
      <trkpt lat="44.23968" lon="5.60799">
        <ele>778</ele>
        <time>2019-06-19T08:39:09Z</time>
      </trkpt>
      <trkpt lat="44.2397" lon="5.60803">
        <ele>778</ele>
        <time>2019-06-19T08:39:10Z</time>
      </trkpt>
      <trkpt lat="44.23973" lon="5.60806">
        <ele>778</ele>
        <time>2019-06-19T08:39:11Z</time>
      </trkpt>
      <trkpt lat="44.23977" lon="5.60808">
        <ele>778</ele>
        <time>2019-06-19T08:39:12Z</time>
      </trkpt>
      <trkpt lat="44.2398" lon="5.6081">
        <ele>778</ele>
        <time>2019-06-19T08:39:13Z</time>
      </trkpt>
      <trkpt lat="44.23983" lon="5.60811">
        <ele>778</ele>
        <time>2019-06-19T08:39:14Z</time>
      </trkpt>
      <trkpt lat="44.23987" lon="5.60811">
        <ele>778</ele>
        <time>2019-06-19T08:39:15Z</time>
      </trkpt>
      <trkpt lat="44.2399" lon="5.60811">
        <ele>778</ele>
        <time>2019-06-19T08:39:16Z</time>
      </trkpt>
      <trkpt lat="44.23993" lon="5.60811">
        <ele>778</ele>
        <time>2019-06-19T08:39:17Z</time>
      </trkpt>
      <trkpt lat="44.23996" lon="5.60812">
        <ele>778</ele>
        <time>2019-06-19T08:39:18Z</time>
      </trkpt>
      <trkpt lat="44.24" lon="5.60812">
        <ele>778</ele>
        <time>2019-06-19T08:39:19Z</time>
      </trkpt>
      <trkpt lat="44.24003" lon="5.60813">
        <ele>778</ele>
        <time>2019-06-19T08:39:20Z</time>
      </trkpt>
      <trkpt lat="44.24007" lon="5.60813">
        <ele>778</ele>
        <time>2019-06-19T08:39:21Z</time>
      </trkpt>
      <trkpt lat="44.24011" lon="5.60813">
        <ele>778</ele>
        <time>2019-06-19T08:39:22Z</time>
      </trkpt>
      <trkpt lat="44.24015" lon="5.60813">
        <ele>778</ele>
        <time>2019-06-19T08:39:23Z</time>
      </trkpt>
      <trkpt lat="44.24019" lon="5.60814">
        <ele>778</ele>
        <time>2019-06-19T08:39:24Z</time>
      </trkpt>
      <trkpt lat="44.24023" lon="5.60814">
        <ele>778</ele>
        <time>2019-06-19T08:39:25Z</time>
      </trkpt>
      <trkpt lat="44.24026" lon="5.60814">
        <ele>778</ele>
        <time>2019-06-19T08:39:26Z</time>
      </trkpt>
      <trkpt lat="44.2403" lon="5.60814">
        <ele>778</ele>
        <time>2019-06-19T08:39:27Z</time>
      </trkpt>
      <trkpt lat="44.24033" lon="5.60814">
        <ele>778</ele>
        <time>2019-06-19T08:39:28Z</time>
      </trkpt>
      <trkpt lat="44.24037" lon="5.60814">
        <ele>778</ele>
        <time>2019-06-19T08:39:29Z</time>
      </trkpt>
      <trkpt lat="44.24041" lon="5.60814">
        <ele>778</ele>
        <time>2019-06-19T08:39:30Z</time>
      </trkpt>
      <trkpt lat="44.24044" lon="5.60814">
        <ele>778</ele>
        <time>2019-06-19T08:39:31Z</time>
      </trkpt>
      <trkpt lat="44.24048" lon="5.60815">
        <ele>778</ele>
        <time>2019-06-19T08:39:32Z</time>
      </trkpt>
      <trkpt lat="44.24052" lon="5.60815">
        <ele>778</ele>
        <time>2019-06-19T08:39:33Z</time>
      </trkpt>
      <trkpt lat="44.24055" lon="5.60815">
        <ele>778</ele>
        <time>2019-06-19T08:39:34Z</time>
      </trkpt>
      <trkpt lat="44.24059" lon="5.60815">
        <ele>778</ele>
        <time>2019-06-19T08:39:35Z</time>
      </trkpt>
      <trkpt lat="44.24063" lon="5.60816">
        <ele>778</ele>
        <time>2019-06-19T08:39:36Z</time>
      </trkpt>
      <trkpt lat="44.24067" lon="5.60816">
        <ele>778</ele>
        <time>2019-06-19T08:39:37Z</time>
      </trkpt>
      <trkpt lat="44.24071" lon="5.60817">
        <ele>778</ele>
        <time>2019-06-19T08:39:38Z</time>
      </trkpt>
      <trkpt lat="44.24075" lon="5.60817">
        <ele>778</ele>
        <time>2019-06-19T08:39:39Z</time>
      </trkpt>
      <trkpt lat="44.24079" lon="5.60817">
        <ele>778</ele>
        <time>2019-06-19T08:39:40Z</time>
      </trkpt>
      <trkpt lat="44.24083" lon="5.60818">
        <ele>778</ele>
        <time>2019-06-19T08:39:41Z</time>
      </trkpt>
      <trkpt lat="44.24086" lon="5.60818">
        <ele>778</ele>
        <time>2019-06-19T08:39:42Z</time>
      </trkpt>
      <trkpt lat="44.2409" lon="5.60819">
        <ele>778</ele>
        <time>2019-06-19T08:39:43Z</time>
      </trkpt>
      <trkpt lat="44.24094" lon="5.60819">
        <ele>778</ele>
        <time>2019-06-19T08:39:44Z</time>
      </trkpt>
      <trkpt lat="44.24098" lon="5.60819">
        <ele>778</ele>
        <time>2019-06-19T08:39:45Z</time>
      </trkpt>
      <trkpt lat="44.24102" lon="5.6082">
        <ele>778</ele>
        <time>2019-06-19T08:39:46Z</time>
      </trkpt>
      <trkpt lat="44.24106" lon="5.6082">
        <ele>778</ele>
        <time>2019-06-19T08:39:47Z</time>
      </trkpt>
      <trkpt lat="44.2411" lon="5.6082">
        <ele>778</ele>
        <time>2019-06-19T08:39:48Z</time>
      </trkpt>
      <trkpt lat="44.24113" lon="5.60821">
        <ele>778</ele>
        <time>2019-06-19T08:39:49Z</time>
      </trkpt>
      <trkpt lat="44.24117" lon="5.6082">
        <ele>778</ele>
        <time>2019-06-19T08:39:50Z</time>
      </trkpt>
      <trkpt lat="44.24121" lon="5.6082">
        <ele>778</ele>
        <time>2019-06-19T08:39:51Z</time>
      </trkpt>
      <trkpt lat="44.24125" lon="5.6082">
        <ele>778</ele>
        <time>2019-06-19T08:39:52Z</time>
      </trkpt>
      <trkpt lat="44.24129" lon="5.6082">
        <ele>778</ele>
        <time>2019-06-19T08:39:53Z</time>
      </trkpt>
      <trkpt lat="44.24133" lon="5.6082">
        <ele>778</ele>
        <time>2019-06-19T08:39:54Z</time>
      </trkpt>
      <trkpt lat="44.24137" lon="5.6082">
        <ele>778</ele>
        <time>2019-06-19T08:39:55Z</time>
      </trkpt>
      <trkpt lat="44.24141" lon="5.60821">
        <ele>778</ele>
        <time>2019-06-19T08:39:56Z</time>
      </trkpt>
      <trkpt lat="44.24145" lon="5.60821">
        <ele>778</ele>
        <time>2019-06-19T08:39:57Z</time>
      </trkpt>
      <trkpt lat="44.24149" lon="5.60821">
        <ele>778</ele>
        <time>2019-06-19T08:39:58Z</time>
      </trkpt>
      <trkpt lat="44.24153" lon="5.60822">
        <ele>778</ele>
        <time>2019-06-19T08:39:59Z</time>
      </trkpt>
      <trkpt lat="44.24157" lon="5.60822">
        <ele>778</ele>
        <time>2019-06-19T08:40:00Z</time>
      </trkpt>
      <trkpt lat="44.24161" lon="5.60822">
        <ele>778</ele>
        <time>2019-06-19T08:40:01Z</time>
      </trkpt>
      <trkpt lat="44.24165" lon="5.60823">
        <ele>778</ele>
        <time>2019-06-19T08:40:02Z</time>
      </trkpt>
      <trkpt lat="44.24169" lon="5.60823">
        <ele>778</ele>
        <time>2019-06-19T08:40:03Z</time>
      </trkpt>
      <trkpt lat="44.24173" lon="5.60824">
        <ele>778</ele>
        <time>2019-06-19T08:40:04Z</time>
      </trkpt>
      <trkpt lat="44.24177" lon="5.60825">
        <ele>778</ele>
        <time>2019-06-19T08:40:05Z</time>
      </trkpt>
      <trkpt lat="44.24181" lon="5.60826">
        <ele>778</ele>
        <time>2019-06-19T08:40:06Z</time>
      </trkpt>
      <trkpt lat="44.24185" lon="5.60827">
        <ele>778</ele>
        <time>2019-06-19T08:40:07Z</time>
      </trkpt>
      <trkpt lat="44.24189" lon="5.60829">
        <ele>778</ele>
        <time>2019-06-19T08:40:08Z</time>
      </trkpt>
      <trkpt lat="44.24193" lon="5.6083">
        <ele>778</ele>
        <time>2019-06-19T08:40:09Z</time>
      </trkpt>
      <trkpt lat="44.24197" lon="5.60832">
        <ele>778</ele>
        <time>2019-06-19T08:40:10Z</time>
      </trkpt>
      <trkpt lat="44.24201" lon="5.60833">
        <ele>778</ele>
        <time>2019-06-19T08:40:11Z</time>
      </trkpt>
      <trkpt lat="44.24204" lon="5.60835">
        <ele>778</ele>
        <time>2019-06-19T08:40:12Z</time>
      </trkpt>
      <trkpt lat="44.24208" lon="5.60836">
        <ele>778</ele>
        <time>2019-06-19T08:40:13Z</time>
      </trkpt>
      <trkpt lat="44.24212" lon="5.60838">
        <ele>778</ele>
        <time>2019-06-19T08:40:14Z</time>
      </trkpt>
      <trkpt lat="44.24215" lon="5.6084">
        <ele>778</ele>
        <time>2019-06-19T08:40:15Z</time>
      </trkpt>
      <trkpt lat="44.24219" lon="5.60841">
        <ele>778</ele>
        <time>2019-06-19T08:40:16Z</time>
      </trkpt>
      <trkpt lat="44.24223" lon="5.60843">
        <ele>778</ele>
        <time>2019-06-19T08:40:17Z</time>
      </trkpt>
      <trkpt lat="44.24226" lon="5.60845">
        <ele>779</ele>
        <time>2019-06-19T08:40:18Z</time>
      </trkpt>
      <trkpt lat="44.2423" lon="5.60846">
        <ele>779</ele>
        <time>2019-06-19T08:40:19Z</time>
      </trkpt>
      <trkpt lat="44.24234" lon="5.60848">
        <ele>779</ele>
        <time>2019-06-19T08:40:20Z</time>
      </trkpt>
      <trkpt lat="44.24237" lon="5.60849">
        <ele>779</ele>
        <time>2019-06-19T08:40:21Z</time>
      </trkpt>
      <trkpt lat="44.24241" lon="5.60851">
        <ele>780</ele>
        <time>2019-06-19T08:40:22Z</time>
      </trkpt>
      <trkpt lat="44.24244" lon="5.60853">
        <ele>780</ele>
        <time>2019-06-19T08:40:23Z</time>
      </trkpt>
      <trkpt lat="44.24248" lon="5.60854">
        <ele>780</ele>
        <time>2019-06-19T08:40:24Z</time>
      </trkpt>
      <trkpt lat="44.24251" lon="5.60856">
        <ele>780</ele>
        <time>2019-06-19T08:40:25Z</time>
      </trkpt>
      <trkpt lat="44.24255" lon="5.60858">
        <ele>780</ele>
        <time>2019-06-19T08:40:26Z</time>
      </trkpt>
      <trkpt lat="44.24258" lon="5.60861">
        <ele>781</ele>
        <time>2019-06-19T08:40:27Z</time>
      </trkpt>
      <trkpt lat="44.24261" lon="5.60863">
        <ele>781</ele>
        <time>2019-06-19T08:40:28Z</time>
      </trkpt>
      <trkpt lat="44.24263" lon="5.60866">
        <ele>781</ele>
        <time>2019-06-19T08:40:29Z</time>
      </trkpt>
      <trkpt lat="44.24265" lon="5.6087">
        <ele>781</ele>
        <time>2019-06-19T08:40:30Z</time>
      </trkpt>
      <trkpt lat="44.24266" lon="5.60874">
        <ele>782</ele>
        <time>2019-06-19T08:40:31Z</time>
      </trkpt>
      <trkpt lat="44.24264" lon="5.60878">
        <ele>782</ele>
        <time>2019-06-19T08:40:32Z</time>
      </trkpt>
      <trkpt lat="44.24262" lon="5.60882">
        <ele>782</ele>
        <time>2019-06-19T08:40:33Z</time>
      </trkpt>
      <trkpt lat="44.24261" lon="5.60885">
        <ele>782</ele>
        <time>2019-06-19T08:40:34Z</time>
      </trkpt>
      <trkpt lat="44.2426" lon="5.6089">
        <ele>783</ele>
        <time>2019-06-19T08:40:35Z</time>
      </trkpt>
      <trkpt lat="44.24259" lon="5.60895">
        <ele>783</ele>
        <time>2019-06-19T08:40:36Z</time>
      </trkpt>
      <trkpt lat="44.2426" lon="5.60901">
        <ele>783</ele>
        <time>2019-06-19T08:40:37Z</time>
      </trkpt>
      <trkpt lat="44.24262" lon="5.60906">
        <ele>783</ele>
        <time>2019-06-19T08:40:38Z</time>
      </trkpt>
      <trkpt lat="44.24264" lon="5.60911">
        <ele>783</ele>
        <time>2019-06-19T08:40:39Z</time>
      </trkpt>
      <trkpt lat="44.24267" lon="5.60915">
        <ele>783</ele>
        <time>2019-06-19T08:40:40Z</time>
      </trkpt>
      <trkpt lat="44.24271" lon="5.60918">
        <ele>784</ele>
        <time>2019-06-19T08:40:41Z</time>
      </trkpt>
      <trkpt lat="44.24274" lon="5.60921">
        <ele>784</ele>
        <time>2019-06-19T08:40:42Z</time>
      </trkpt>
      <trkpt lat="44.24277" lon="5.60923">
        <ele>784</ele>
        <time>2019-06-19T08:40:43Z</time>
      </trkpt>
      <trkpt lat="44.24281" lon="5.60925">
        <ele>784</ele>
        <time>2019-06-19T08:40:44Z</time>
      </trkpt>
      <trkpt lat="44.24285" lon="5.60927">
        <ele>784</ele>
        <time>2019-06-19T08:40:45Z</time>
      </trkpt>
      <trkpt lat="44.24289" lon="5.60928">
        <ele>785</ele>
        <time>2019-06-19T08:40:46Z</time>
      </trkpt>
      <trkpt lat="44.24292" lon="5.6093">
        <ele>785</ele>
        <time>2019-06-19T08:40:47Z</time>
      </trkpt>
      <trkpt lat="44.24296" lon="5.60931">
        <ele>785</ele>
        <time>2019-06-19T08:40:48Z</time>
      </trkpt>
      <trkpt lat="44.243" lon="5.60933">
        <ele>785</ele>
        <time>2019-06-19T08:40:49Z</time>
      </trkpt>
      <trkpt lat="44.24303" lon="5.60934">
        <ele>785</ele>
        <time>2019-06-19T08:40:50Z</time>
      </trkpt>
      <trkpt lat="44.24307" lon="5.60935">
        <ele>785</ele>
        <time>2019-06-19T08:40:51Z</time>
      </trkpt>
      <trkpt lat="44.2431" lon="5.60936">
        <ele>786</ele>
        <time>2019-06-19T08:40:52Z</time>
      </trkpt>
      <trkpt lat="44.24314" lon="5.60938">
        <ele>786</ele>
        <time>2019-06-19T08:40:53Z</time>
      </trkpt>
      <trkpt lat="44.24317" lon="5.60939">
        <ele>786</ele>
        <time>2019-06-19T08:40:54Z</time>
      </trkpt>
      <trkpt lat="44.2432" lon="5.60941">
        <ele>786</ele>
        <time>2019-06-19T08:40:55Z</time>
      </trkpt>
      <trkpt lat="44.24323" lon="5.60942">
        <ele>786</ele>
        <time>2019-06-19T08:40:56Z</time>
      </trkpt>
      <trkpt lat="44.24326" lon="5.60944">
        <ele>786</ele>
        <time>2019-06-19T08:40:57Z</time>
      </trkpt>
      <trkpt lat="44.2433" lon="5.60945">
        <ele>786</ele>
        <time>2019-06-19T08:40:58Z</time>
      </trkpt>
      <trkpt lat="44.24333" lon="5.60947">
        <ele>786</ele>
        <time>2019-06-19T08:40:59Z</time>
      </trkpt>
      <trkpt lat="44.24336" lon="5.60949">
        <ele>786</ele>
        <time>2019-06-19T08:41:00Z</time>
      </trkpt>
      <trkpt lat="44.24339" lon="5.60951">
        <ele>786</ele>
        <time>2019-06-19T08:41:01Z</time>
      </trkpt>
      <trkpt lat="44.24342" lon="5.60952">
        <ele>787</ele>
        <time>2019-06-19T08:41:02Z</time>
      </trkpt>
      <trkpt lat="44.24345" lon="5.60953">
        <ele>787</ele>
        <time>2019-06-19T08:41:03Z</time>
      </trkpt>
      <trkpt lat="44.24347" lon="5.60955">
        <ele>787</ele>
        <time>2019-06-19T08:41:04Z</time>
      </trkpt>
      <trkpt lat="44.2435" lon="5.60957">
        <ele>787</ele>
        <time>2019-06-19T08:41:05Z</time>
      </trkpt>
      <trkpt lat="44.24353" lon="5.60959">
        <ele>787</ele>
        <time>2019-06-19T08:41:06Z</time>
      </trkpt>
      <trkpt lat="44.24355" lon="5.60962">
        <ele>788</ele>
        <time>2019-06-19T08:41:07Z</time>
      </trkpt>
      <trkpt lat="44.24358" lon="5.60964">
        <ele>788</ele>
        <time>2019-06-19T08:41:08Z</time>
      </trkpt>
      <trkpt lat="44.24361" lon="5.60967">
        <ele>788</ele>
        <time>2019-06-19T08:41:09Z</time>
      </trkpt>
      <trkpt lat="44.24363" lon="5.60969">
        <ele>788</ele>
        <time>2019-06-19T08:41:10Z</time>
      </trkpt>
      <trkpt lat="44.24366" lon="5.60971">
        <ele>788</ele>
        <time>2019-06-19T08:41:11Z</time>
      </trkpt>
      <trkpt lat="44.24369" lon="5.60974">
        <ele>788</ele>
        <time>2019-06-19T08:41:12Z</time>
      </trkpt>
      <trkpt lat="44.24372" lon="5.60976">
        <ele>788</ele>
        <time>2019-06-19T08:41:13Z</time>
      </trkpt>
      <trkpt lat="44.24374" lon="5.60978">
        <ele>788</ele>
        <time>2019-06-19T08:41:14Z</time>
      </trkpt>
      <trkpt lat="44.24377" lon="5.60981">
        <ele>788</ele>
        <time>2019-06-19T08:41:15Z</time>
      </trkpt>
      <trkpt lat="44.2438" lon="5.60984">
        <ele>788</ele>
        <time>2019-06-19T08:41:16Z</time>
      </trkpt>
      <trkpt lat="44.24382" lon="5.60987">
        <ele>789</ele>
        <time>2019-06-19T08:41:17Z</time>
      </trkpt>
      <trkpt lat="44.24385" lon="5.60989">
        <ele>789</ele>
        <time>2019-06-19T08:41:18Z</time>
      </trkpt>
      <trkpt lat="44.24388" lon="5.60992">
        <ele>789</ele>
        <time>2019-06-19T08:41:19Z</time>
      </trkpt>
      <trkpt lat="44.2439" lon="5.60994">
        <ele>789</ele>
        <time>2019-06-19T08:41:20Z</time>
      </trkpt>
      <trkpt lat="44.24393" lon="5.60997">
        <ele>789</ele>
        <time>2019-06-19T08:41:21Z</time>
      </trkpt>
      <trkpt lat="44.24396" lon="5.61">
        <ele>789</ele>
        <time>2019-06-19T08:41:22Z</time>
      </trkpt>
      <trkpt lat="44.24398" lon="5.61002">
        <ele>789</ele>
        <time>2019-06-19T08:41:23Z</time>
      </trkpt>
      <trkpt lat="44.24401" lon="5.61004">
        <ele>789</ele>
        <time>2019-06-19T08:41:24Z</time>
      </trkpt>
      <trkpt lat="44.24404" lon="5.61007">
        <ele>789</ele>
        <time>2019-06-19T08:41:25Z</time>
      </trkpt>
      <trkpt lat="44.24406" lon="5.6101">
        <ele>789</ele>
        <time>2019-06-19T08:41:26Z</time>
      </trkpt>
      <trkpt lat="44.24409" lon="5.61012">
        <ele>789</ele>
        <time>2019-06-19T08:41:27Z</time>
      </trkpt>
      <trkpt lat="44.24412" lon="5.61015">
        <ele>789</ele>
        <time>2019-06-19T08:41:28Z</time>
      </trkpt>
      <trkpt lat="44.24414" lon="5.61017">
        <ele>789</ele>
        <time>2019-06-19T08:41:29Z</time>
      </trkpt>
      <trkpt lat="44.24417" lon="5.61019">
        <ele>789</ele>
        <time>2019-06-19T08:41:30Z</time>
      </trkpt>
      <trkpt lat="44.2442" lon="5.61021">
        <ele>789</ele>
        <time>2019-06-19T08:41:31Z</time>
      </trkpt>
      <trkpt lat="44.24422" lon="5.61023">
        <ele>789</ele>
        <time>2019-06-19T08:41:32Z</time>
      </trkpt>
      <trkpt lat="44.24425" lon="5.61026">
        <ele>789</ele>
        <time>2019-06-19T08:41:33Z</time>
      </trkpt>
      <trkpt lat="44.24428" lon="5.61028">
        <ele>789</ele>
        <time>2019-06-19T08:41:34Z</time>
      </trkpt>
      <trkpt lat="44.2443" lon="5.61031">
        <ele>789</ele>
        <time>2019-06-19T08:41:35Z</time>
      </trkpt>
      <trkpt lat="44.24433" lon="5.61034">
        <ele>790</ele>
        <time>2019-06-19T08:41:36Z</time>
      </trkpt>
      <trkpt lat="44.24435" lon="5.61036">
        <ele>790</ele>
        <time>2019-06-19T08:41:37Z</time>
      </trkpt>
      <trkpt lat="44.24438" lon="5.61038">
        <ele>790</ele>
        <time>2019-06-19T08:41:38Z</time>
      </trkpt>
      <trkpt lat="44.24441" lon="5.6104">
        <ele>790</ele>
        <time>2019-06-19T08:41:39Z</time>
      </trkpt>
      <trkpt lat="44.24443" lon="5.61043">
        <ele>790</ele>
        <time>2019-06-19T08:41:40Z</time>
      </trkpt>
      <trkpt lat="44.24445" lon="5.61046">
        <ele>791</ele>
        <time>2019-06-19T08:41:41Z</time>
      </trkpt>
      <trkpt lat="44.24448" lon="5.61049">
        <ele>791</ele>
        <time>2019-06-19T08:41:42Z</time>
      </trkpt>
      <trkpt lat="44.2445" lon="5.61051">
        <ele>791</ele>
        <time>2019-06-19T08:41:43Z</time>
      </trkpt>
      <trkpt lat="44.24453" lon="5.61053">
        <ele>791</ele>
        <time>2019-06-19T08:41:44Z</time>
      </trkpt>
      <trkpt lat="44.24455" lon="5.61055">
        <ele>792</ele>
        <time>2019-06-19T08:41:45Z</time>
      </trkpt>
      <trkpt lat="44.24458" lon="5.61058">
        <ele>792</ele>
        <time>2019-06-19T08:41:46Z</time>
      </trkpt>
      <trkpt lat="44.2446" lon="5.6106">
        <ele>792</ele>
        <time>2019-06-19T08:41:47Z</time>
      </trkpt>
      <trkpt lat="44.24462" lon="5.61062">
        <ele>793</ele>
        <time>2019-06-19T08:41:48Z</time>
      </trkpt>
      <trkpt lat="44.24464" lon="5.61065">
        <ele>793</ele>
        <time>2019-06-19T08:41:49Z</time>
      </trkpt>
      <trkpt lat="44.24466" lon="5.61068">
        <ele>794</ele>
        <time>2019-06-19T08:41:50Z</time>
      </trkpt>
      <trkpt lat="44.24469" lon="5.61071">
        <ele>794</ele>
        <time>2019-06-19T08:41:51Z</time>
      </trkpt>
      <trkpt lat="44.2447" lon="5.61074">
        <ele>795</ele>
        <time>2019-06-19T08:41:52Z</time>
      </trkpt>
      <trkpt lat="44.24472" lon="5.61077">
        <ele>795</ele>
        <time>2019-06-19T08:41:53Z</time>
      </trkpt>
      <trkpt lat="44.24475" lon="5.61079">
        <ele>796</ele>
        <time>2019-06-19T08:41:54Z</time>
      </trkpt>
      <trkpt lat="44.24477" lon="5.61082">
        <ele>796</ele>
        <time>2019-06-19T08:41:55Z</time>
      </trkpt>
      <trkpt lat="44.24479" lon="5.61085">
        <ele>796</ele>
        <time>2019-06-19T08:41:56Z</time>
      </trkpt>
      <trkpt lat="44.24481" lon="5.61088">
        <ele>797</ele>
        <time>2019-06-19T08:41:57Z</time>
      </trkpt>
      <trkpt lat="44.24482" lon="5.61091">
        <ele>797</ele>
        <time>2019-06-19T08:41:58Z</time>
      </trkpt>
      <trkpt lat="44.24485" lon="5.61094">
        <ele>797</ele>
        <time>2019-06-19T08:41:59Z</time>
      </trkpt>
      <trkpt lat="44.24487" lon="5.61097">
        <ele>798</ele>
        <time>2019-06-19T08:42:00Z</time>
      </trkpt>
      <trkpt lat="44.24488" lon="5.611">
        <ele>798</ele>
        <time>2019-06-19T08:42:01Z</time>
      </trkpt>
      <trkpt lat="44.24491" lon="5.61104">
        <ele>798</ele>
        <time>2019-06-19T08:42:02Z</time>
      </trkpt>
      <trkpt lat="44.24493" lon="5.61107">
        <ele>798</ele>
        <time>2019-06-19T08:42:03Z</time>
      </trkpt>
      <trkpt lat="44.24495" lon="5.61111">
        <ele>798</ele>
        <time>2019-06-19T08:42:04Z</time>
      </trkpt>
      <trkpt lat="44.24497" lon="5.61114">
        <ele>798</ele>
        <time>2019-06-19T08:42:05Z</time>
      </trkpt>
      <trkpt lat="44.24499" lon="5.61117">
        <ele>798</ele>
        <time>2019-06-19T08:42:06Z</time>
      </trkpt>
      <trkpt lat="44.245" lon="5.6112">
        <ele>798</ele>
        <time>2019-06-19T08:42:07Z</time>
      </trkpt>
      <trkpt lat="44.24501" lon="5.61123">
        <ele>799</ele>
        <time>2019-06-19T08:42:08Z</time>
      </trkpt>
      <trkpt lat="44.24503" lon="5.61127">
        <ele>799</ele>
        <time>2019-06-19T08:42:09Z</time>
      </trkpt>
      <trkpt lat="44.24504" lon="5.61131">
        <ele>800</ele>
        <time>2019-06-19T08:42:10Z</time>
      </trkpt>
      <trkpt lat="44.24506" lon="5.61134">
        <ele>800</ele>
        <time>2019-06-19T08:42:11Z</time>
      </trkpt>
      <trkpt lat="44.24508" lon="5.61138">
        <ele>800</ele>
        <time>2019-06-19T08:42:12Z</time>
      </trkpt>
      <trkpt lat="44.2451" lon="5.61141">
        <ele>800</ele>
        <time>2019-06-19T08:42:13Z</time>
      </trkpt>
      <trkpt lat="44.24512" lon="5.61144">
        <ele>800</ele>
        <time>2019-06-19T08:42:14Z</time>
      </trkpt>
      <trkpt lat="44.24515" lon="5.61147">
        <ele>800</ele>
        <time>2019-06-19T08:42:15Z</time>
      </trkpt>
      <trkpt lat="44.24517" lon="5.61149">
        <ele>800</ele>
        <time>2019-06-19T08:42:16Z</time>
      </trkpt>
      <trkpt lat="44.24519" lon="5.61152">
        <ele>800</ele>
        <time>2019-06-19T08:42:17Z</time>
      </trkpt>
      <trkpt lat="44.24522" lon="5.61154">
        <ele>801</ele>
        <time>2019-06-19T08:42:18Z</time>
      </trkpt>
      <trkpt lat="44.24525" lon="5.61156">
        <ele>801</ele>
        <time>2019-06-19T08:42:19Z</time>
      </trkpt>
      <trkpt lat="44.24528" lon="5.61158">
        <ele>801</ele>
        <time>2019-06-19T08:42:20Z</time>
      </trkpt>
      <trkpt lat="44.24531" lon="5.61159">
        <ele>801</ele>
        <time>2019-06-19T08:42:21Z</time>
      </trkpt>
      <trkpt lat="44.24534" lon="5.61161">
        <ele>801</ele>
        <time>2019-06-19T08:42:22Z</time>
      </trkpt>
      <trkpt lat="44.24537" lon="5.61162">
        <ele>801</ele>
        <time>2019-06-19T08:42:23Z</time>
      </trkpt>
      <trkpt lat="44.2454" lon="5.61164">
        <ele>801</ele>
        <time>2019-06-19T08:42:24Z</time>
      </trkpt>
      <trkpt lat="44.24543" lon="5.61165">
        <ele>802</ele>
        <time>2019-06-19T08:42:25Z</time>
      </trkpt>
      <trkpt lat="44.24545" lon="5.61167">
        <ele>802</ele>
        <time>2019-06-19T08:42:26Z</time>
      </trkpt>
      <trkpt lat="44.24548" lon="5.6117">
        <ele>802</ele>
        <time>2019-06-19T08:42:27Z</time>
      </trkpt>
      <trkpt lat="44.2455" lon="5.61173">
        <ele>802</ele>
        <time>2019-06-19T08:42:28Z</time>
      </trkpt>
      <trkpt lat="44.24552" lon="5.61176">
        <ele>802</ele>
        <time>2019-06-19T08:42:29Z</time>
      </trkpt>
      <trkpt lat="44.24553" lon="5.61178">
        <ele>802</ele>
        <time>2019-06-19T08:42:30Z</time>
      </trkpt>
      <trkpt lat="44.24554" lon="5.61181">
        <ele>803</ele>
        <time>2019-06-19T08:42:31Z</time>
      </trkpt>
      <trkpt lat="44.24555" lon="5.61185">
        <ele>804</ele>
        <time>2019-06-19T08:42:32Z</time>
      </trkpt>
      <trkpt lat="44.24556" lon="5.61189">
        <ele>805</ele>
        <time>2019-06-19T08:42:33Z</time>
      </trkpt>
      <trkpt lat="44.24555" lon="5.61192">
        <ele>806</ele>
        <time>2019-06-19T08:42:34Z</time>
      </trkpt>
      <trkpt lat="44.24554" lon="5.61196">
        <ele>806</ele>
        <time>2019-06-19T08:42:35Z</time>
      </trkpt>
      <trkpt lat="44.24554" lon="5.61199">
        <ele>807</ele>
        <time>2019-06-19T08:42:36Z</time>
      </trkpt>
      <trkpt lat="44.24554" lon="5.61203">
        <ele>808</ele>
        <time>2019-06-19T08:42:37Z</time>
      </trkpt>
      <trkpt lat="44.24553" lon="5.61206">
        <ele>808</ele>
        <time>2019-06-19T08:42:38Z</time>
      </trkpt>
      <trkpt lat="44.24553" lon="5.6121">
        <ele>809</ele>
        <time>2019-06-19T08:42:39Z</time>
      </trkpt>
      <trkpt lat="44.24553" lon="5.61214">
        <ele>809</ele>
        <time>2019-06-19T08:42:40Z</time>
      </trkpt>
      <trkpt lat="44.24553" lon="5.61217">
        <ele>810</ele>
        <time>2019-06-19T08:42:41Z</time>
      </trkpt>
      <trkpt lat="44.24552" lon="5.61221">
        <ele>811</ele>
        <time>2019-06-19T08:42:42Z</time>
      </trkpt>
      <trkpt lat="44.24552" lon="5.61224">
        <ele>811</ele>
        <time>2019-06-19T08:42:43Z</time>
      </trkpt>
      <trkpt lat="44.24551" lon="5.61227">
        <ele>811</ele>
        <time>2019-06-19T08:42:44Z</time>
      </trkpt>
      <trkpt lat="44.2455" lon="5.61231">
        <ele>812</ele>
        <time>2019-06-19T08:42:45Z</time>
      </trkpt>
      <trkpt lat="44.24551" lon="5.61234">
        <ele>812</ele>
        <time>2019-06-19T08:42:46Z</time>
      </trkpt>
      <trkpt lat="44.24551" lon="5.61238">
        <ele>812</ele>
        <time>2019-06-19T08:42:47Z</time>
      </trkpt>
      <trkpt lat="44.24551" lon="5.61241">
        <ele>812</ele>
        <time>2019-06-19T08:42:48Z</time>
      </trkpt>
      <trkpt lat="44.24551" lon="5.61245">
        <ele>812</ele>
        <time>2019-06-19T08:42:49Z</time>
      </trkpt>
      <trkpt lat="44.24553" lon="5.61248">
        <ele>812</ele>
        <time>2019-06-19T08:42:50Z</time>
      </trkpt>
      <trkpt lat="44.24553" lon="5.61252">
        <ele>812</ele>
        <time>2019-06-19T08:42:51Z</time>
      </trkpt>
      <trkpt lat="44.24554" lon="5.61256">
        <ele>812</ele>
        <time>2019-06-19T08:42:52Z</time>
      </trkpt>
      <trkpt lat="44.24554" lon="5.6126">
        <ele>813</ele>
        <time>2019-06-19T08:42:53Z</time>
      </trkpt>
      <trkpt lat="44.24555" lon="5.61264">
        <ele>813</ele>
        <time>2019-06-19T08:42:54Z</time>
      </trkpt>
      <trkpt lat="44.24555" lon="5.61267">
        <ele>813</ele>
        <time>2019-06-19T08:42:55Z</time>
      </trkpt>
      <trkpt lat="44.24555" lon="5.61271">
        <ele>813</ele>
        <time>2019-06-19T08:42:56Z</time>
      </trkpt>
      <trkpt lat="44.24555" lon="5.61274">
        <ele>813</ele>
        <time>2019-06-19T08:42:57Z</time>
      </trkpt>
      <trkpt lat="44.24556" lon="5.61278">
        <ele>813</ele>
        <time>2019-06-19T08:42:58Z</time>
      </trkpt>
      <trkpt lat="44.24557" lon="5.61282">
        <ele>813</ele>
        <time>2019-06-19T08:42:59Z</time>
      </trkpt>
      <trkpt lat="44.24558" lon="5.61286">
        <ele>813</ele>
        <time>2019-06-19T08:43:00Z</time>
      </trkpt>
      <trkpt lat="44.24559" lon="5.6129">
        <ele>814</ele>
        <time>2019-06-19T08:43:01Z</time>
      </trkpt>
      <trkpt lat="44.24561" lon="5.61294">
        <ele>814</ele>
        <time>2019-06-19T08:43:02Z</time>
      </trkpt>
      <trkpt lat="44.24562" lon="5.61297">
        <ele>815</ele>
        <time>2019-06-19T08:43:03Z</time>
      </trkpt>
      <trkpt lat="44.24563" lon="5.61301">
        <ele>815</ele>
        <time>2019-06-19T08:43:04Z</time>
      </trkpt>
      <trkpt lat="44.24564" lon="5.61305">
        <ele>816</ele>
        <time>2019-06-19T08:43:05Z</time>
      </trkpt>
      <trkpt lat="44.24565" lon="5.61308">
        <ele>816</ele>
        <time>2019-06-19T08:43:06Z</time>
      </trkpt>
      <trkpt lat="44.24567" lon="5.61312">
        <ele>816</ele>
        <time>2019-06-19T08:43:07Z</time>
      </trkpt>
      <trkpt lat="44.24568" lon="5.61315">
        <ele>817</ele>
        <time>2019-06-19T08:43:08Z</time>
      </trkpt>
      <trkpt lat="44.24569" lon="5.61319">
        <ele>817</ele>
        <time>2019-06-19T08:43:09Z</time>
      </trkpt>
      <trkpt lat="44.2457" lon="5.61322">
        <ele>817</ele>
        <time>2019-06-19T08:43:10Z</time>
      </trkpt>
      <trkpt lat="44.24571" lon="5.61326">
        <ele>818</ele>
        <time>2019-06-19T08:43:11Z</time>
      </trkpt>
      <trkpt lat="44.24572" lon="5.6133">
        <ele>819</ele>
        <time>2019-06-19T08:43:12Z</time>
      </trkpt>
      <trkpt lat="44.24574" lon="5.61334">
        <ele>819</ele>
        <time>2019-06-19T08:43:13Z</time>
      </trkpt>
      <trkpt lat="44.24575" lon="5.61337">
        <ele>820</ele>
        <time>2019-06-19T08:43:14Z</time>
      </trkpt>
      <trkpt lat="44.24577" lon="5.61341">
        <ele>820</ele>
        <time>2019-06-19T08:43:15Z</time>
      </trkpt>
      <trkpt lat="44.24578" lon="5.61345">
        <ele>821</ele>
        <time>2019-06-19T08:43:16Z</time>
      </trkpt>
      <trkpt lat="44.2458" lon="5.61348">
        <ele>821</ele>
        <time>2019-06-19T08:43:17Z</time>
      </trkpt>
      <trkpt lat="44.24581" lon="5.61352">
        <ele>821</ele>
        <time>2019-06-19T08:43:18Z</time>
      </trkpt>
      <trkpt lat="44.24583" lon="5.61356">
        <ele>821</ele>
        <time>2019-06-19T08:43:19Z</time>
      </trkpt>
      <trkpt lat="44.24584" lon="5.61359">
        <ele>822</ele>
        <time>2019-06-19T08:43:20Z</time>
      </trkpt>
      <trkpt lat="44.24586" lon="5.61363">
        <ele>822</ele>
        <time>2019-06-19T08:43:21Z</time>
      </trkpt>
      <trkpt lat="44.24588" lon="5.61366">
        <ele>822</ele>
        <time>2019-06-19T08:43:22Z</time>
      </trkpt>
      <trkpt lat="44.24589" lon="5.6137">
        <ele>822</ele>
        <time>2019-06-19T08:43:23Z</time>
      </trkpt>
      <trkpt lat="44.24591" lon="5.61373">
        <ele>823</ele>
        <time>2019-06-19T08:43:24Z</time>
      </trkpt>
      <trkpt lat="44.24592" lon="5.61377">
        <ele>823</ele>
        <time>2019-06-19T08:43:25Z</time>
      </trkpt>
      <trkpt lat="44.24594" lon="5.6138">
        <ele>824</ele>
        <time>2019-06-19T08:43:26Z</time>
      </trkpt>
      <trkpt lat="44.24596" lon="5.61384">
        <ele>824</ele>
        <time>2019-06-19T08:43:27Z</time>
      </trkpt>
      <trkpt lat="44.24597" lon="5.61388">
        <ele>825</ele>
        <time>2019-06-19T08:43:28Z</time>
      </trkpt>
      <trkpt lat="44.24599" lon="5.61393">
        <ele>825</ele>
        <time>2019-06-19T08:43:29Z</time>
      </trkpt>
      <trkpt lat="44.246" lon="5.61397">
        <ele>825</ele>
        <time>2019-06-19T08:43:30Z</time>
      </trkpt>
      <trkpt lat="44.24601" lon="5.61402">
        <ele>825</ele>
        <time>2019-06-19T08:43:31Z</time>
      </trkpt>
      <trkpt lat="44.24603" lon="5.61406">
        <ele>825</ele>
        <time>2019-06-19T08:43:32Z</time>
      </trkpt>
      <trkpt lat="44.24604" lon="5.61411">
        <ele>825</ele>
        <time>2019-06-19T08:43:33Z</time>
      </trkpt>
      <trkpt lat="44.24606" lon="5.61415">
        <ele>825</ele>
        <time>2019-06-19T08:43:34Z</time>
      </trkpt>
      <trkpt lat="44.24609" lon="5.61419">
        <ele>825</ele>
        <time>2019-06-19T08:43:35Z</time>
      </trkpt>
      <trkpt lat="44.2461" lon="5.61423">
        <ele>825</ele>
        <time>2019-06-19T08:43:36Z</time>
      </trkpt>
      <trkpt lat="44.24612" lon="5.61427">
        <ele>825</ele>
        <time>2019-06-19T08:43:37Z</time>
      </trkpt>
      <trkpt lat="44.24614" lon="5.61431">
        <ele>825</ele>
        <time>2019-06-19T08:43:38Z</time>
      </trkpt>
      <trkpt lat="44.24615" lon="5.61435">
        <ele>825</ele>
        <time>2019-06-19T08:43:39Z</time>
      </trkpt>
      <trkpt lat="44.24616" lon="5.61439">
        <ele>825</ele>
        <time>2019-06-19T08:43:40Z</time>
      </trkpt>
      <trkpt lat="44.24618" lon="5.61444">
        <ele>825</ele>
        <time>2019-06-19T08:43:41Z</time>
      </trkpt>
      <trkpt lat="44.2462" lon="5.61447">
        <ele>825</ele>
        <time>2019-06-19T08:43:42Z</time>
      </trkpt>
      <trkpt lat="44.24621" lon="5.61451">
        <ele>825</ele>
        <time>2019-06-19T08:43:43Z</time>
      </trkpt>
      <trkpt lat="44.24622" lon="5.61455">
        <ele>825</ele>
        <time>2019-06-19T08:43:44Z</time>
      </trkpt>
      <trkpt lat="44.24624" lon="5.61459">
        <ele>825</ele>
        <time>2019-06-19T08:43:45Z</time>
      </trkpt>
      <trkpt lat="44.24625" lon="5.61463">
        <ele>825</ele>
        <time>2019-06-19T08:43:46Z</time>
      </trkpt>
      <trkpt lat="44.24627" lon="5.61467">
        <ele>825</ele>
        <time>2019-06-19T08:43:47Z</time>
      </trkpt>
      <trkpt lat="44.24628" lon="5.6147">
        <ele>825</ele>
        <time>2019-06-19T08:43:48Z</time>
      </trkpt>
      <trkpt lat="44.2463" lon="5.61474">
        <ele>825</ele>
        <time>2019-06-19T08:43:49Z</time>
      </trkpt>
      <trkpt lat="44.24631" lon="5.61478">
        <ele>825</ele>
        <time>2019-06-19T08:43:50Z</time>
      </trkpt>
      <trkpt lat="44.24632" lon="5.61482">
        <ele>825</ele>
        <time>2019-06-19T08:43:51Z</time>
      </trkpt>
      <trkpt lat="44.24634" lon="5.61485">
        <ele>825</ele>
        <time>2019-06-19T08:43:52Z</time>
      </trkpt>
      <trkpt lat="44.24635" lon="5.61489">
        <ele>825</ele>
        <time>2019-06-19T08:43:53Z</time>
      </trkpt>
      <trkpt lat="44.24637" lon="5.61493">
        <ele>825</ele>
        <time>2019-06-19T08:43:54Z</time>
      </trkpt>
      <trkpt lat="44.24639" lon="5.61496">
        <ele>825</ele>
        <time>2019-06-19T08:43:55Z</time>
      </trkpt>
      <trkpt lat="44.2464" lon="5.615">
        <ele>825</ele>
        <time>2019-06-19T08:43:56Z</time>
      </trkpt>
      <trkpt lat="44.24642" lon="5.61504">
        <ele>825</ele>
        <time>2019-06-19T08:43:57Z</time>
      </trkpt>
      <trkpt lat="44.24643" lon="5.61508">
        <ele>825</ele>
        <time>2019-06-19T08:43:58Z</time>
      </trkpt>
      <trkpt lat="44.24645" lon="5.61511">
        <ele>825</ele>
        <time>2019-06-19T08:43:59Z</time>
      </trkpt>
      <trkpt lat="44.24647" lon="5.61515">
        <ele>825</ele>
        <time>2019-06-19T08:44:00Z</time>
      </trkpt>
      <trkpt lat="44.24648" lon="5.61518">
        <ele>825</ele>
        <time>2019-06-19T08:44:01Z</time>
      </trkpt>
      <trkpt lat="44.24649" lon="5.61522">
        <ele>825</ele>
        <time>2019-06-19T08:44:02Z</time>
      </trkpt>
      <trkpt lat="44.24651" lon="5.61525">
        <ele>825</ele>
        <time>2019-06-19T08:44:03Z</time>
      </trkpt>
      <trkpt lat="44.24654" lon="5.61528">
        <ele>825</ele>
        <time>2019-06-19T08:44:04Z</time>
      </trkpt>
      <trkpt lat="44.24656" lon="5.61532">
        <ele>825</ele>
        <time>2019-06-19T08:44:05Z</time>
      </trkpt>
      <trkpt lat="44.24657" lon="5.61535">
        <ele>825</ele>
        <time>2019-06-19T08:44:06Z</time>
      </trkpt>
      <trkpt lat="44.24659" lon="5.61539">
        <ele>825</ele>
        <time>2019-06-19T08:44:07Z</time>
      </trkpt>
      <trkpt lat="44.2466" lon="5.61542">
        <ele>825</ele>
        <time>2019-06-19T08:44:08Z</time>
      </trkpt>
      <trkpt lat="44.24662" lon="5.61545">
        <ele>825</ele>
        <time>2019-06-19T08:44:09Z</time>
      </trkpt>
      <trkpt lat="44.24663" lon="5.61548">
        <ele>825</ele>
        <time>2019-06-19T08:44:10Z</time>
      </trkpt>
      <trkpt lat="44.24665" lon="5.61552">
        <ele>825</ele>
        <time>2019-06-19T08:44:11Z</time>
      </trkpt>
      <trkpt lat="44.24668" lon="5.61556">
        <ele>825</ele>
        <time>2019-06-19T08:44:12Z</time>
      </trkpt>
      <trkpt lat="44.2467" lon="5.61559">
        <ele>825</ele>
        <time>2019-06-19T08:44:13Z</time>
      </trkpt>
      <trkpt lat="44.24672" lon="5.61562">
        <ele>825</ele>
        <time>2019-06-19T08:44:14Z</time>
      </trkpt>
      <trkpt lat="44.24675" lon="5.61565">
        <ele>825</ele>
        <time>2019-06-19T08:44:15Z</time>
      </trkpt>
      <trkpt lat="44.24678" lon="5.61567">
        <ele>825</ele>
        <time>2019-06-19T08:44:16Z</time>
      </trkpt>
      <trkpt lat="44.2468" lon="5.61569">
        <ele>825</ele>
        <time>2019-06-19T08:44:17Z</time>
      </trkpt>
      <trkpt lat="44.24684" lon="5.6157">
        <ele>825</ele>
        <time>2019-06-19T08:44:18Z</time>
      </trkpt>
      <trkpt lat="44.24687" lon="5.61569">
        <ele>825</ele>
        <time>2019-06-19T08:44:19Z</time>
      </trkpt>
      <trkpt lat="44.24691" lon="5.61567">
        <ele>825</ele>
        <time>2019-06-19T08:44:20Z</time>
      </trkpt>
      <trkpt lat="44.24695" lon="5.61564">
        <ele>825</ele>
        <time>2019-06-19T08:44:21Z</time>
      </trkpt>
      <trkpt lat="44.24698" lon="5.61561">
        <ele>825</ele>
        <time>2019-06-19T08:44:22Z</time>
      </trkpt>
      <trkpt lat="44.24702" lon="5.61557">
        <ele>825</ele>
        <time>2019-06-19T08:44:23Z</time>
      </trkpt>
      <trkpt lat="44.24705" lon="5.61553">
        <ele>825</ele>
        <time>2019-06-19T08:44:24Z</time>
      </trkpt>
      <trkpt lat="44.24707" lon="5.61549">
        <ele>825</ele>
        <time>2019-06-19T08:44:25Z</time>
      </trkpt>
      <trkpt lat="44.24709" lon="5.61545">
        <ele>825</ele>
        <time>2019-06-19T08:44:26Z</time>
      </trkpt>
      <trkpt lat="44.24711" lon="5.61541">
        <ele>825</ele>
        <time>2019-06-19T08:44:27Z</time>
      </trkpt>
      <trkpt lat="44.24712" lon="5.61536">
        <ele>825</ele>
        <time>2019-06-19T08:44:28Z</time>
      </trkpt>
      <trkpt lat="44.24713" lon="5.61531">
        <ele>825</ele>
        <time>2019-06-19T08:44:29Z</time>
      </trkpt>
      <trkpt lat="44.24713" lon="5.61527">
        <ele>825</ele>
        <time>2019-06-19T08:44:30Z</time>
      </trkpt>
      <trkpt lat="44.24714" lon="5.61522">
        <ele>825</ele>
        <time>2019-06-19T08:44:31Z</time>
      </trkpt>
      <trkpt lat="44.24714" lon="5.61517">
        <ele>825</ele>
        <time>2019-06-19T08:44:32Z</time>
      </trkpt>
      <trkpt lat="44.24714" lon="5.61513">
        <ele>826</ele>
        <time>2019-06-19T08:44:33Z</time>
      </trkpt>
      <trkpt lat="44.24713" lon="5.61509">
        <ele>826</ele>
        <time>2019-06-19T08:44:34Z</time>
      </trkpt>
      <trkpt lat="44.24713" lon="5.61505">
        <ele>827</ele>
        <time>2019-06-19T08:44:35Z</time>
      </trkpt>
      <trkpt lat="44.24712" lon="5.615">
        <ele>827</ele>
        <time>2019-06-19T08:44:36Z</time>
      </trkpt>
      <trkpt lat="44.24712" lon="5.61496">
        <ele>828</ele>
        <time>2019-06-19T08:44:37Z</time>
      </trkpt>
      <trkpt lat="44.24712" lon="5.61492">
        <ele>828</ele>
        <time>2019-06-19T08:44:38Z</time>
      </trkpt>
      <trkpt lat="44.24712" lon="5.61487">
        <ele>829</ele>
        <time>2019-06-19T08:44:39Z</time>
      </trkpt>
      <trkpt lat="44.24711" lon="5.61483">
        <ele>829</ele>
        <time>2019-06-19T08:44:40Z</time>
      </trkpt>
      <trkpt lat="44.24711" lon="5.6148">
        <ele>830</ele>
        <time>2019-06-19T08:44:41Z</time>
      </trkpt>
      <trkpt lat="44.24711" lon="5.61476">
        <ele>831</ele>
        <time>2019-06-19T08:44:42Z</time>
      </trkpt>
      <trkpt lat="44.24711" lon="5.61472">
        <ele>831</ele>
        <time>2019-06-19T08:44:43Z</time>
      </trkpt>
      <trkpt lat="44.24712" lon="5.61467">
        <ele>832</ele>
        <time>2019-06-19T08:44:44Z</time>
      </trkpt>
      <trkpt lat="44.24712" lon="5.61464">
        <ele>833</ele>
        <time>2019-06-19T08:44:45Z</time>
      </trkpt>
      <trkpt lat="44.24711" lon="5.61461">
        <ele>833</ele>
        <time>2019-06-19T08:44:46Z</time>
      </trkpt>
      <trkpt lat="44.24711" lon="5.61457">
        <ele>833</ele>
        <time>2019-06-19T08:44:47Z</time>
      </trkpt>
      <trkpt lat="44.24711" lon="5.61453">
        <ele>834</ele>
        <time>2019-06-19T08:44:48Z</time>
      </trkpt>
      <trkpt lat="44.24711" lon="5.61451">
        <ele>834</ele>
        <time>2019-06-19T08:44:49Z</time>
      </trkpt>
      <trkpt lat="44.2471" lon="5.61448">
        <ele>834</ele>
        <time>2019-06-19T08:44:50Z</time>
      </trkpt>
      <trkpt lat="44.2471" lon="5.61445">
        <ele>834</ele>
        <time>2019-06-19T08:44:51Z</time>
      </trkpt>
      <trkpt lat="44.24709" lon="5.61441">
        <ele>834</ele>
        <time>2019-06-19T08:44:52Z</time>
      </trkpt>
      <trkpt lat="44.24709" lon="5.61437">
        <ele>834</ele>
        <time>2019-06-19T08:44:53Z</time>
      </trkpt>
      <trkpt lat="44.24708" lon="5.61435">
        <ele>834</ele>
        <time>2019-06-19T08:44:54Z</time>
      </trkpt>
      <trkpt lat="44.24707" lon="5.61431">
        <ele>834</ele>
        <time>2019-06-19T08:44:55Z</time>
      </trkpt>
      <trkpt lat="44.24707" lon="5.61427">
        <ele>835</ele>
        <time>2019-06-19T08:44:56Z</time>
      </trkpt>
      <trkpt lat="44.24707" lon="5.61423">
        <ele>835</ele>
        <time>2019-06-19T08:44:57Z</time>
      </trkpt>
      <trkpt lat="44.24706" lon="5.6142">
        <ele>836</ele>
        <time>2019-06-19T08:44:58Z</time>
      </trkpt>
      <trkpt lat="44.24706" lon="5.61417">
        <ele>836</ele>
        <time>2019-06-19T08:44:59Z</time>
      </trkpt>
      <trkpt lat="44.24705" lon="5.61413">
        <ele>837</ele>
        <time>2019-06-19T08:45:00Z</time>
      </trkpt>
      <trkpt lat="44.24705" lon="5.6141">
        <ele>837</ele>
        <time>2019-06-19T08:45:01Z</time>
      </trkpt>
      <trkpt lat="44.24704" lon="5.61406">
        <ele>837</ele>
        <time>2019-06-19T08:45:02Z</time>
      </trkpt>
      <trkpt lat="44.24703" lon="5.61403">
        <ele>838</ele>
        <time>2019-06-19T08:45:03Z</time>
      </trkpt>
      <trkpt lat="44.24703" lon="5.61399">
        <ele>838</ele>
        <time>2019-06-19T08:45:04Z</time>
      </trkpt>
      <trkpt lat="44.24702" lon="5.61396">
        <ele>838</ele>
        <time>2019-06-19T08:45:05Z</time>
      </trkpt>
      <trkpt lat="44.24702" lon="5.61392">
        <ele>838</ele>
        <time>2019-06-19T08:45:06Z</time>
      </trkpt>
      <trkpt lat="44.24702" lon="5.61389">
        <ele>838</ele>
        <time>2019-06-19T08:45:07Z</time>
      </trkpt>
      <trkpt lat="44.24702" lon="5.61385">
        <ele>838</ele>
        <time>2019-06-19T08:45:08Z</time>
      </trkpt>
      <trkpt lat="44.24701" lon="5.61382">
        <ele>838</ele>
        <time>2019-06-19T08:45:09Z</time>
      </trkpt>
      <trkpt lat="44.24701" lon="5.61379">
        <ele>838</ele>
        <time>2019-06-19T08:45:10Z</time>
      </trkpt>
      <trkpt lat="44.24701" lon="5.61377">
        <ele>838</ele>
        <time>2019-06-19T08:45:11Z</time>
      </trkpt>
      <trkpt lat="44.24701" lon="5.61374">
        <ele>838</ele>
        <time>2019-06-19T08:45:12Z</time>
      </trkpt>
      <trkpt lat="44.24701" lon="5.61371">
        <ele>838</ele>
        <time>2019-06-19T08:45:13Z</time>
      </trkpt>
      <trkpt lat="44.247" lon="5.61368">
        <ele>838</ele>
        <time>2019-06-19T08:45:14Z</time>
      </trkpt>
      <trkpt lat="44.24701" lon="5.61364">
        <ele>838</ele>
        <time>2019-06-19T08:45:15Z</time>
      </trkpt>
      <trkpt lat="44.24701" lon="5.61361">
        <ele>839</ele>
        <time>2019-06-19T08:45:16Z</time>
      </trkpt>
      <trkpt lat="44.24701" lon="5.61358">
        <ele>839</ele>
        <time>2019-06-19T08:45:17Z</time>
      </trkpt>
      <trkpt lat="44.24701" lon="5.61355">
        <ele>839</ele>
        <time>2019-06-19T08:45:18Z</time>
      </trkpt>
      <trkpt lat="44.247" lon="5.61351">
        <ele>839</ele>
        <time>2019-06-19T08:45:19Z</time>
      </trkpt>
      <trkpt lat="44.247" lon="5.61348">
        <ele>839</ele>
        <time>2019-06-19T08:45:20Z</time>
      </trkpt>
      <trkpt lat="44.24699" lon="5.61345">
        <ele>839</ele>
        <time>2019-06-19T08:45:21Z</time>
      </trkpt>
      <trkpt lat="44.24698" lon="5.61341">
        <ele>839</ele>
        <time>2019-06-19T08:45:22Z</time>
      </trkpt>
      <trkpt lat="44.24698" lon="5.61338">
        <ele>839</ele>
        <time>2019-06-19T08:45:23Z</time>
      </trkpt>
      <trkpt lat="44.24697" lon="5.61334">
        <ele>839</ele>
        <time>2019-06-19T08:45:24Z</time>
      </trkpt>
      <trkpt lat="44.24697" lon="5.61331">
        <ele>839</ele>
        <time>2019-06-19T08:45:25Z</time>
      </trkpt>
      <trkpt lat="44.24697" lon="5.61327">
        <ele>839</ele>
        <time>2019-06-19T08:45:26Z</time>
      </trkpt>
      <trkpt lat="44.24697" lon="5.61323">
        <ele>839</ele>
        <time>2019-06-19T08:45:27Z</time>
      </trkpt>
      <trkpt lat="44.24696" lon="5.61319">
        <ele>839</ele>
        <time>2019-06-19T08:45:28Z</time>
      </trkpt>
      <trkpt lat="44.24696" lon="5.61316">
        <ele>840</ele>
        <time>2019-06-19T08:45:29Z</time>
      </trkpt>
      <trkpt lat="44.24696" lon="5.61312">
        <ele>840</ele>
        <time>2019-06-19T08:45:30Z</time>
      </trkpt>
      <trkpt lat="44.24695" lon="5.61308">
        <ele>841</ele>
        <time>2019-06-19T08:45:31Z</time>
      </trkpt>
      <trkpt lat="44.24695" lon="5.61304">
        <ele>842</ele>
        <time>2019-06-19T08:45:32Z</time>
      </trkpt>
      <trkpt lat="44.24694" lon="5.613">
        <ele>842</ele>
        <time>2019-06-19T08:45:33Z</time>
      </trkpt>
      <trkpt lat="44.24694" lon="5.61296">
        <ele>843</ele>
        <time>2019-06-19T08:45:34Z</time>
      </trkpt>
      <trkpt lat="44.24693" lon="5.61292">
        <ele>844</ele>
        <time>2019-06-19T08:45:35Z</time>
      </trkpt>
      <trkpt lat="44.24692" lon="5.61289">
        <ele>844</ele>
        <time>2019-06-19T08:45:36Z</time>
      </trkpt>
      <trkpt lat="44.24691" lon="5.61285">
        <ele>845</ele>
        <time>2019-06-19T08:45:37Z</time>
      </trkpt>
      <trkpt lat="44.24691" lon="5.61282">
        <ele>846</ele>
        <time>2019-06-19T08:45:38Z</time>
      </trkpt>
      <trkpt lat="44.2469" lon="5.61278">
        <ele>846</ele>
        <time>2019-06-19T08:45:39Z</time>
      </trkpt>
      <trkpt lat="44.24689" lon="5.61274">
        <ele>846</ele>
        <time>2019-06-19T08:45:40Z</time>
      </trkpt>
      <trkpt lat="44.24689" lon="5.61271">
        <ele>847</ele>
        <time>2019-06-19T08:45:41Z</time>
      </trkpt>
      <trkpt lat="44.24689" lon="5.61267">
        <ele>847</ele>
        <time>2019-06-19T08:45:42Z</time>
      </trkpt>
      <trkpt lat="44.24689" lon="5.61264">
        <ele>847</ele>
        <time>2019-06-19T08:45:43Z</time>
      </trkpt>
      <trkpt lat="44.24689" lon="5.61261">
        <ele>847</ele>
        <time>2019-06-19T08:45:44Z</time>
      </trkpt>
      <trkpt lat="44.24689" lon="5.61257">
        <ele>847</ele>
        <time>2019-06-19T08:45:45Z</time>
      </trkpt>
      <trkpt lat="44.24689" lon="5.61253">
        <ele>847</ele>
        <time>2019-06-19T08:45:46Z</time>
      </trkpt>
      <trkpt lat="44.2469" lon="5.6125">
        <ele>847</ele>
        <time>2019-06-19T08:45:47Z</time>
      </trkpt>
      <trkpt lat="44.24691" lon="5.61246">
        <ele>847</ele>
        <time>2019-06-19T08:45:48Z</time>
      </trkpt>
      <trkpt lat="44.24691" lon="5.61242">
        <ele>847</ele>
        <time>2019-06-19T08:45:49Z</time>
      </trkpt>
      <trkpt lat="44.24692" lon="5.61238">
        <ele>847</ele>
        <time>2019-06-19T08:45:50Z</time>
      </trkpt>
      <trkpt lat="44.24692" lon="5.61235">
        <ele>848</ele>
        <time>2019-06-19T08:45:51Z</time>
      </trkpt>
      <trkpt lat="44.24692" lon="5.61232">
        <ele>848</ele>
        <time>2019-06-19T08:45:52Z</time>
      </trkpt>
      <trkpt lat="44.24693" lon="5.6123">
        <ele>848</ele>
        <time>2019-06-19T08:45:53Z</time>
      </trkpt>
      <trkpt lat="44.24693" lon="5.61227">
        <ele>848</ele>
        <time>2019-06-19T08:45:54Z</time>
      </trkpt>
      <trkpt lat="44.24694" lon="5.61224">
        <ele>848</ele>
        <time>2019-06-19T08:45:55Z</time>
      </trkpt>
      <trkpt lat="44.24694" lon="5.61221">
        <ele>848</ele>
        <time>2019-06-19T08:45:56Z</time>
      </trkpt>
      <trkpt lat="44.24695" lon="5.61219">
        <ele>848</ele>
        <time>2019-06-19T08:45:57Z</time>
      </trkpt>
      <trkpt lat="44.24695" lon="5.61216">
        <ele>848</ele>
        <time>2019-06-19T08:45:58Z</time>
      </trkpt>
      <trkpt lat="44.24695" lon="5.61214">
        <ele>848</ele>
        <time>2019-06-19T08:45:59Z</time>
      </trkpt>
      <trkpt lat="44.24696" lon="5.61211">
        <ele>848</ele>
        <time>2019-06-19T08:46:00Z</time>
      </trkpt>
      <trkpt lat="44.24696" lon="5.61208">
        <ele>848</ele>
        <time>2019-06-19T08:46:01Z</time>
      </trkpt>
      <trkpt lat="44.24696" lon="5.61205">
        <ele>848</ele>
        <time>2019-06-19T08:46:02Z</time>
      </trkpt>
      <trkpt lat="44.24696" lon="5.61203">
        <ele>848</ele>
        <time>2019-06-19T08:46:03Z</time>
      </trkpt>
      <trkpt lat="44.24696" lon="5.612">
        <ele>848</ele>
        <time>2019-06-19T08:46:04Z</time>
      </trkpt>
      <trkpt lat="44.24696" lon="5.61197">
        <ele>848</ele>
        <time>2019-06-19T08:46:05Z</time>
      </trkpt>
      <trkpt lat="44.24696" lon="5.61194">
        <ele>848</ele>
        <time>2019-06-19T08:46:06Z</time>
      </trkpt>
      <trkpt lat="44.24696" lon="5.61192">
        <ele>848</ele>
        <time>2019-06-19T08:46:07Z</time>
      </trkpt>
      <trkpt lat="44.24697" lon="5.61189">
        <ele>848</ele>
        <time>2019-06-19T08:46:08Z</time>
      </trkpt>
      <trkpt lat="44.24697" lon="5.61186">
        <ele>848</ele>
        <time>2019-06-19T08:46:09Z</time>
      </trkpt>
      <trkpt lat="44.24697" lon="5.61183">
        <ele>848</ele>
        <time>2019-06-19T08:46:10Z</time>
      </trkpt>
      <trkpt lat="44.24697" lon="5.6118">
        <ele>848</ele>
        <time>2019-06-19T08:46:11Z</time>
      </trkpt>
      <trkpt lat="44.24697" lon="5.61177">
        <ele>848</ele>
        <time>2019-06-19T08:46:12Z</time>
      </trkpt>
      <trkpt lat="44.24698" lon="5.61174">
        <ele>848</ele>
        <time>2019-06-19T08:46:13Z</time>
      </trkpt>
      <trkpt lat="44.24698" lon="5.61171">
        <ele>848</ele>
        <time>2019-06-19T08:46:14Z</time>
      </trkpt>
      <trkpt lat="44.24699" lon="5.61168">
        <ele>848</ele>
        <time>2019-06-19T08:46:15Z</time>
      </trkpt>
      <trkpt lat="44.24699" lon="5.61165">
        <ele>848</ele>
        <time>2019-06-19T08:46:16Z</time>
      </trkpt>
      <trkpt lat="44.24699" lon="5.61162">
        <ele>848</ele>
        <time>2019-06-19T08:46:17Z</time>
      </trkpt>
      <trkpt lat="44.247" lon="5.61159">
        <ele>848</ele>
        <time>2019-06-19T08:46:18Z</time>
      </trkpt>
      <trkpt lat="44.247" lon="5.61157">
        <ele>848</ele>
        <time>2019-06-19T08:46:19Z</time>
      </trkpt>
      <trkpt lat="44.247" lon="5.61154">
        <ele>848</ele>
        <time>2019-06-19T08:46:20Z</time>
      </trkpt>
      <trkpt lat="44.247" lon="5.61151">
        <ele>848</ele>
        <time>2019-06-19T08:46:21Z</time>
      </trkpt>
      <trkpt lat="44.247" lon="5.61148">
        <ele>848</ele>
        <time>2019-06-19T08:46:22Z</time>
      </trkpt>
      <trkpt lat="44.247" lon="5.61145">
        <ele>848</ele>
        <time>2019-06-19T08:46:23Z</time>
      </trkpt>
      <trkpt lat="44.247" lon="5.61143">
        <ele>848</ele>
        <time>2019-06-19T08:46:24Z</time>
      </trkpt>
      <trkpt lat="44.24701" lon="5.61139">
        <ele>848</ele>
        <time>2019-06-19T08:46:25Z</time>
      </trkpt>
      <trkpt lat="44.24701" lon="5.61136">
        <ele>848</ele>
        <time>2019-06-19T08:46:26Z</time>
      </trkpt>
      <trkpt lat="44.24701" lon="5.61133">
        <ele>848</ele>
        <time>2019-06-19T08:46:27Z</time>
      </trkpt>
      <trkpt lat="44.24702" lon="5.6113">
        <ele>848</ele>
        <time>2019-06-19T08:46:28Z</time>
      </trkpt>
      <trkpt lat="44.24702" lon="5.61127">
        <ele>848</ele>
        <time>2019-06-19T08:46:29Z</time>
      </trkpt>
      <trkpt lat="44.24702" lon="5.61124">
        <ele>848</ele>
        <time>2019-06-19T08:46:30Z</time>
      </trkpt>
      <trkpt lat="44.24703" lon="5.61121">
        <ele>848</ele>
        <time>2019-06-19T08:46:31Z</time>
      </trkpt>
      <trkpt lat="44.24703" lon="5.61118">
        <ele>848</ele>
        <time>2019-06-19T08:46:32Z</time>
      </trkpt>
      <trkpt lat="44.24704" lon="5.61115">
        <ele>848</ele>
        <time>2019-06-19T08:46:33Z</time>
      </trkpt>
      <trkpt lat="44.24704" lon="5.61112">
        <ele>848</ele>
        <time>2019-06-19T08:46:34Z</time>
      </trkpt>
      <trkpt lat="44.24704" lon="5.61108">
        <ele>848</ele>
        <time>2019-06-19T08:46:35Z</time>
      </trkpt>
      <trkpt lat="44.24705" lon="5.61105">
        <ele>848</ele>
        <time>2019-06-19T08:46:36Z</time>
      </trkpt>
      <trkpt lat="44.24705" lon="5.61102">
        <ele>848</ele>
        <time>2019-06-19T08:46:37Z</time>
      </trkpt>
      <trkpt lat="44.24705" lon="5.61099">
        <ele>848</ele>
        <time>2019-06-19T08:46:38Z</time>
      </trkpt>
      <trkpt lat="44.24706" lon="5.61096">
        <ele>848</ele>
        <time>2019-06-19T08:46:39Z</time>
      </trkpt>
      <trkpt lat="44.24706" lon="5.61092">
        <ele>848</ele>
        <time>2019-06-19T08:46:40Z</time>
      </trkpt>
      <trkpt lat="44.24706" lon="5.61088">
        <ele>848</ele>
        <time>2019-06-19T08:46:41Z</time>
      </trkpt>
      <trkpt lat="44.24706" lon="5.61085">
        <ele>848</ele>
        <time>2019-06-19T08:46:42Z</time>
      </trkpt>
      <trkpt lat="44.24706" lon="5.61082">
        <ele>848</ele>
        <time>2019-06-19T08:46:43Z</time>
      </trkpt>
      <trkpt lat="44.24706" lon="5.61078">
        <ele>848</ele>
        <time>2019-06-19T08:46:44Z</time>
      </trkpt>
      <trkpt lat="44.24706" lon="5.61075">
        <ele>848</ele>
        <time>2019-06-19T08:46:45Z</time>
      </trkpt>
      <trkpt lat="44.24706" lon="5.61072">
        <ele>849</ele>
        <time>2019-06-19T08:46:46Z</time>
      </trkpt>
      <trkpt lat="44.24706" lon="5.61069">
        <ele>849</ele>
        <time>2019-06-19T08:46:47Z</time>
      </trkpt>
      <trkpt lat="44.24707" lon="5.61066">
        <ele>849</ele>
        <time>2019-06-19T08:46:48Z</time>
      </trkpt>
      <trkpt lat="44.24707" lon="5.61063">
        <ele>850</ele>
        <time>2019-06-19T08:46:49Z</time>
      </trkpt>
      <trkpt lat="44.24707" lon="5.6106">
        <ele>850</ele>
        <time>2019-06-19T08:46:50Z</time>
      </trkpt>
      <trkpt lat="44.24708" lon="5.61057">
        <ele>850</ele>
        <time>2019-06-19T08:46:51Z</time>
      </trkpt>
      <trkpt lat="44.24708" lon="5.61053">
        <ele>850</ele>
        <time>2019-06-19T08:46:52Z</time>
      </trkpt>
      <trkpt lat="44.24709" lon="5.6105">
        <ele>851</ele>
        <time>2019-06-19T08:46:53Z</time>
      </trkpt>
      <trkpt lat="44.2471" lon="5.61047">
        <ele>851</ele>
        <time>2019-06-19T08:46:54Z</time>
      </trkpt>
      <trkpt lat="44.24711" lon="5.61045">
        <ele>851</ele>
        <time>2019-06-19T08:46:55Z</time>
      </trkpt>
      <trkpt lat="44.24714" lon="5.61045">
        <ele>851</ele>
        <time>2019-06-19T08:46:56Z</time>
      </trkpt>
      <trkpt lat="44.24716" lon="5.61046">
        <ele>851</ele>
        <time>2019-06-19T08:46:57Z</time>
      </trkpt>
      <trkpt lat="44.24718" lon="5.61048">
        <ele>851</ele>
        <time>2019-06-19T08:46:58Z</time>
      </trkpt>
      <trkpt lat="44.24718" lon="5.61051">
        <ele>851</ele>
        <time>2019-06-19T08:46:59Z</time>
      </trkpt>
      <trkpt lat="44.24717" lon="5.61055">
        <ele>851</ele>
        <time>2019-06-19T08:47:00Z</time>
      </trkpt>
      <trkpt lat="44.24717" lon="5.61059">
        <ele>851</ele>
        <time>2019-06-19T08:47:01Z</time>
      </trkpt>
      <trkpt lat="44.24716" lon="5.61062">
        <ele>851</ele>
        <time>2019-06-19T08:47:02Z</time>
      </trkpt>
      <trkpt lat="44.24715" lon="5.61065">
        <ele>851</ele>
        <time>2019-06-19T08:47:03Z</time>
      </trkpt>
      <trkpt lat="44.24714" lon="5.61069">
        <ele>851</ele>
        <time>2019-06-19T08:47:04Z</time>
      </trkpt>
      <trkpt lat="44.24713" lon="5.61073">
        <ele>852</ele>
        <time>2019-06-19T08:47:05Z</time>
      </trkpt>
      <trkpt lat="44.24712" lon="5.61076">
        <ele>852</ele>
        <time>2019-06-19T08:47:06Z</time>
      </trkpt>
      <trkpt lat="44.24712" lon="5.6108">
        <ele>852</ele>
        <time>2019-06-19T08:47:07Z</time>
      </trkpt>
      <trkpt lat="44.24712" lon="5.61084">
        <ele>852</ele>
        <time>2019-06-19T08:47:08Z</time>
      </trkpt>
      <trkpt lat="44.24712" lon="5.61087">
        <ele>852</ele>
        <time>2019-06-19T08:47:09Z</time>
      </trkpt>
      <trkpt lat="44.24712" lon="5.61091">
        <ele>852</ele>
        <time>2019-06-19T08:47:10Z</time>
      </trkpt>
      <trkpt lat="44.24711" lon="5.61095">
        <ele>852</ele>
        <time>2019-06-19T08:47:11Z</time>
      </trkpt>
      <trkpt lat="44.24711" lon="5.61099">
        <ele>853</ele>
        <time>2019-06-19T08:47:12Z</time>
      </trkpt>
      <trkpt lat="44.24711" lon="5.61102">
        <ele>853</ele>
        <time>2019-06-19T08:47:13Z</time>
      </trkpt>
      <trkpt lat="44.24711" lon="5.61106">
        <ele>853</ele>
        <time>2019-06-19T08:47:14Z</time>
      </trkpt>
      <trkpt lat="44.24711" lon="5.6111">
        <ele>853</ele>
        <time>2019-06-19T08:47:15Z</time>
      </trkpt>
      <trkpt lat="44.2471" lon="5.61114">
        <ele>854</ele>
        <time>2019-06-19T08:47:16Z</time>
      </trkpt>
      <trkpt lat="44.2471" lon="5.61117">
        <ele>854</ele>
        <time>2019-06-19T08:47:17Z</time>
      </trkpt>
      <trkpt lat="44.24711" lon="5.61121">
        <ele>854</ele>
        <time>2019-06-19T08:47:18Z</time>
      </trkpt>
      <trkpt lat="44.24711" lon="5.61125">
        <ele>854</ele>
        <time>2019-06-19T08:47:19Z</time>
      </trkpt>
      <trkpt lat="44.24712" lon="5.61128">
        <ele>855</ele>
        <time>2019-06-19T08:47:20Z</time>
      </trkpt>
      <trkpt lat="44.24712" lon="5.61131">
        <ele>855</ele>
        <time>2019-06-19T08:47:21Z</time>
      </trkpt>
      <trkpt lat="44.24712" lon="5.61135">
        <ele>855</ele>
        <time>2019-06-19T08:47:22Z</time>
      </trkpt>
      <trkpt lat="44.24712" lon="5.61139">
        <ele>855</ele>
        <time>2019-06-19T08:47:23Z</time>
      </trkpt>
      <trkpt lat="44.24712" lon="5.61142">
        <ele>856</ele>
        <time>2019-06-19T08:47:24Z</time>
      </trkpt>
      <trkpt lat="44.24712" lon="5.61145">
        <ele>856</ele>
        <time>2019-06-19T08:47:25Z</time>
      </trkpt>
      <trkpt lat="44.24712" lon="5.61149">
        <ele>856</ele>
        <time>2019-06-19T08:47:26Z</time>
      </trkpt>
      <trkpt lat="44.24713" lon="5.61152">
        <ele>857</ele>
        <time>2019-06-19T08:47:27Z</time>
      </trkpt>
      <trkpt lat="44.24713" lon="5.61155">
        <ele>857</ele>
        <time>2019-06-19T08:47:28Z</time>
      </trkpt>
      <trkpt lat="44.24714" lon="5.61159">
        <ele>857</ele>
        <time>2019-06-19T08:47:29Z</time>
      </trkpt>
      <trkpt lat="44.24714" lon="5.61162">
        <ele>858</ele>
        <time>2019-06-19T08:47:30Z</time>
      </trkpt>
      <trkpt lat="44.24714" lon="5.61165">
        <ele>858</ele>
        <time>2019-06-19T08:47:31Z</time>
      </trkpt>
      <trkpt lat="44.24714" lon="5.61169">
        <ele>858</ele>
        <time>2019-06-19T08:47:32Z</time>
      </trkpt>
      <trkpt lat="44.24714" lon="5.61172">
        <ele>859</ele>
        <time>2019-06-19T08:47:33Z</time>
      </trkpt>
      <trkpt lat="44.24714" lon="5.61175">
        <ele>859</ele>
        <time>2019-06-19T08:47:34Z</time>
      </trkpt>
      <trkpt lat="44.24715" lon="5.61179">
        <ele>859</ele>
        <time>2019-06-19T08:47:35Z</time>
      </trkpt>
      <trkpt lat="44.24715" lon="5.61182">
        <ele>860</ele>
        <time>2019-06-19T08:47:36Z</time>
      </trkpt>
      <trkpt lat="44.24715" lon="5.61186">
        <ele>860</ele>
        <time>2019-06-19T08:47:37Z</time>
      </trkpt>
      <trkpt lat="44.24715" lon="5.61189">
        <ele>860</ele>
        <time>2019-06-19T08:47:38Z</time>
      </trkpt>
      <trkpt lat="44.24715" lon="5.61192">
        <ele>861</ele>
        <time>2019-06-19T08:47:39Z</time>
      </trkpt>
      <trkpt lat="44.24715" lon="5.61195">
        <ele>861</ele>
        <time>2019-06-19T08:47:40Z</time>
      </trkpt>
      <trkpt lat="44.24716" lon="5.61198">
        <ele>861</ele>
        <time>2019-06-19T08:47:41Z</time>
      </trkpt>
      <trkpt lat="44.24716" lon="5.61201">
        <ele>861</ele>
        <time>2019-06-19T08:47:42Z</time>
      </trkpt>
      <trkpt lat="44.24716" lon="5.61205">
        <ele>862</ele>
        <time>2019-06-19T08:47:43Z</time>
      </trkpt>
      <trkpt lat="44.24716" lon="5.61208">
        <ele>862</ele>
        <time>2019-06-19T08:47:44Z</time>
      </trkpt>
      <trkpt lat="44.24716" lon="5.61211">
        <ele>862</ele>
        <time>2019-06-19T08:47:45Z</time>
      </trkpt>
      <trkpt lat="44.24717" lon="5.61214">
        <ele>863</ele>
        <time>2019-06-19T08:47:46Z</time>
      </trkpt>
      <trkpt lat="44.24717" lon="5.61217">
        <ele>863</ele>
        <time>2019-06-19T08:47:47Z</time>
      </trkpt>
      <trkpt lat="44.24717" lon="5.61221">
        <ele>863</ele>
        <time>2019-06-19T08:47:48Z</time>
      </trkpt>
      <trkpt lat="44.24717" lon="5.61224">
        <ele>863</ele>
        <time>2019-06-19T08:47:49Z</time>
      </trkpt>
      <trkpt lat="44.24718" lon="5.61227">
        <ele>864</ele>
        <time>2019-06-19T08:47:50Z</time>
      </trkpt>
      <trkpt lat="44.24718" lon="5.6123">
        <ele>864</ele>
        <time>2019-06-19T08:47:51Z</time>
      </trkpt>
      <trkpt lat="44.24718" lon="5.61234">
        <ele>864</ele>
        <time>2019-06-19T08:47:52Z</time>
      </trkpt>
      <trkpt lat="44.24718" lon="5.61237">
        <ele>865</ele>
        <time>2019-06-19T08:47:53Z</time>
      </trkpt>
      <trkpt lat="44.24719" lon="5.6124">
        <ele>865</ele>
        <time>2019-06-19T08:47:54Z</time>
      </trkpt>
      <trkpt lat="44.24719" lon="5.61243">
        <ele>865</ele>
        <time>2019-06-19T08:47:55Z</time>
      </trkpt>
      <trkpt lat="44.24719" lon="5.61247">
        <ele>865</ele>
        <time>2019-06-19T08:47:56Z</time>
      </trkpt>
      <trkpt lat="44.2472" lon="5.6125">
        <ele>866</ele>
        <time>2019-06-19T08:47:57Z</time>
      </trkpt>
      <trkpt lat="44.2472" lon="5.61254">
        <ele>866</ele>
        <time>2019-06-19T08:47:58Z</time>
      </trkpt>
      <trkpt lat="44.2472" lon="5.61257">
        <ele>866</ele>
        <time>2019-06-19T08:47:59Z</time>
      </trkpt>
      <trkpt lat="44.2472" lon="5.61261">
        <ele>867</ele>
        <time>2019-06-19T08:48:00Z</time>
      </trkpt>
      <trkpt lat="44.2472" lon="5.61265">
        <ele>867</ele>
        <time>2019-06-19T08:48:01Z</time>
      </trkpt>
      <trkpt lat="44.24721" lon="5.61268">
        <ele>867</ele>
        <time>2019-06-19T08:48:02Z</time>
      </trkpt>
      <trkpt lat="44.24721" lon="5.61272">
        <ele>868</ele>
        <time>2019-06-19T08:48:03Z</time>
      </trkpt>
      <trkpt lat="44.24721" lon="5.61276">
        <ele>868</ele>
        <time>2019-06-19T08:48:04Z</time>
      </trkpt>
      <trkpt lat="44.24721" lon="5.61279">
        <ele>868</ele>
        <time>2019-06-19T08:48:05Z</time>
      </trkpt>
      <trkpt lat="44.24722" lon="5.61283">
        <ele>868</ele>
        <time>2019-06-19T08:48:06Z</time>
      </trkpt>
      <trkpt lat="44.24722" lon="5.61287">
        <ele>869</ele>
        <time>2019-06-19T08:48:07Z</time>
      </trkpt>
      <trkpt lat="44.24723" lon="5.61291">
        <ele>869</ele>
        <time>2019-06-19T08:48:08Z</time>
      </trkpt>
      <trkpt lat="44.24724" lon="5.61295">
        <ele>869</ele>
        <time>2019-06-19T08:48:09Z</time>
      </trkpt>
      <trkpt lat="44.24724" lon="5.61298">
        <ele>869</ele>
        <time>2019-06-19T08:48:10Z</time>
      </trkpt>
      <trkpt lat="44.24724" lon="5.61302">
        <ele>869</ele>
        <time>2019-06-19T08:48:11Z</time>
      </trkpt>
      <trkpt lat="44.24725" lon="5.61305">
        <ele>869</ele>
        <time>2019-06-19T08:48:12Z</time>
      </trkpt>
      <trkpt lat="44.24725" lon="5.61309">
        <ele>869</ele>
        <time>2019-06-19T08:48:13Z</time>
      </trkpt>
      <trkpt lat="44.24726" lon="5.61312">
        <ele>869</ele>
        <time>2019-06-19T08:48:14Z</time>
      </trkpt>
      <trkpt lat="44.24727" lon="5.61316">
        <ele>870</ele>
        <time>2019-06-19T08:48:15Z</time>
      </trkpt>
      <trkpt lat="44.24728" lon="5.61319">
        <ele>870</ele>
        <time>2019-06-19T08:48:16Z</time>
      </trkpt>
      <trkpt lat="44.24728" lon="5.61323">
        <ele>870</ele>
        <time>2019-06-19T08:48:17Z</time>
      </trkpt>
      <trkpt lat="44.24729" lon="5.61327">
        <ele>870</ele>
        <time>2019-06-19T08:48:18Z</time>
      </trkpt>
      <trkpt lat="44.24729" lon="5.61331">
        <ele>870</ele>
        <time>2019-06-19T08:48:19Z</time>
      </trkpt>
      <trkpt lat="44.2473" lon="5.61334">
        <ele>870</ele>
        <time>2019-06-19T08:48:20Z</time>
      </trkpt>
      <trkpt lat="44.24731" lon="5.61337">
        <ele>870</ele>
        <time>2019-06-19T08:48:21Z</time>
      </trkpt>
      <trkpt lat="44.24733" lon="5.61341">
        <ele>870</ele>
        <time>2019-06-19T08:48:22Z</time>
      </trkpt>
      <trkpt lat="44.24734" lon="5.61344">
        <ele>870</ele>
        <time>2019-06-19T08:48:23Z</time>
      </trkpt>
      <trkpt lat="44.24734" lon="5.61347">
        <ele>870</ele>
        <time>2019-06-19T08:48:24Z</time>
      </trkpt>
      <trkpt lat="44.24736" lon="5.6135">
        <ele>871</ele>
        <time>2019-06-19T08:48:25Z</time>
      </trkpt>
      <trkpt lat="44.24737" lon="5.61354">
        <ele>871</ele>
        <time>2019-06-19T08:48:26Z</time>
      </trkpt>
      <trkpt lat="44.24738" lon="5.61357">
        <ele>871</ele>
        <time>2019-06-19T08:48:27Z</time>
      </trkpt>
      <trkpt lat="44.24739" lon="5.6136">
        <ele>872</ele>
        <time>2019-06-19T08:48:28Z</time>
      </trkpt>
      <trkpt lat="44.24741" lon="5.61363">
        <ele>872</ele>
        <time>2019-06-19T08:48:29Z</time>
      </trkpt>
      <trkpt lat="44.24742" lon="5.61366">
        <ele>872</ele>
        <time>2019-06-19T08:48:30Z</time>
      </trkpt>
      <trkpt lat="44.24744" lon="5.61369">
        <ele>873</ele>
        <time>2019-06-19T08:48:31Z</time>
      </trkpt>
      <trkpt lat="44.24746" lon="5.61372">
        <ele>873</ele>
        <time>2019-06-19T08:48:32Z</time>
      </trkpt>
      <trkpt lat="44.24747" lon="5.61375">
        <ele>874</ele>
        <time>2019-06-19T08:48:33Z</time>
      </trkpt>
      <trkpt lat="44.24749" lon="5.61378">
        <ele>874</ele>
        <time>2019-06-19T08:48:34Z</time>
      </trkpt>
      <trkpt lat="44.24751" lon="5.61381">
        <ele>874</ele>
        <time>2019-06-19T08:48:35Z</time>
      </trkpt>
      <trkpt lat="44.24753" lon="5.61383">
        <ele>875</ele>
        <time>2019-06-19T08:48:36Z</time>
      </trkpt>
      <trkpt lat="44.24755" lon="5.61386">
        <ele>875</ele>
        <time>2019-06-19T08:48:37Z</time>
      </trkpt>
      <trkpt lat="44.24757" lon="5.61388">
        <ele>876</ele>
        <time>2019-06-19T08:48:38Z</time>
      </trkpt>
      <trkpt lat="44.24759" lon="5.6139">
        <ele>876</ele>
        <time>2019-06-19T08:48:39Z</time>
      </trkpt>
      <trkpt lat="44.24762" lon="5.61392">
        <ele>876</ele>
        <time>2019-06-19T08:48:40Z</time>
      </trkpt>
      <trkpt lat="44.24764" lon="5.61393">
        <ele>877</ele>
        <time>2019-06-19T08:48:41Z</time>
      </trkpt>
      <trkpt lat="44.24766" lon="5.61395">
        <ele>877</ele>
        <time>2019-06-19T08:48:42Z</time>
      </trkpt>
      <trkpt lat="44.24769" lon="5.61396">
        <ele>877</ele>
        <time>2019-06-19T08:48:43Z</time>
      </trkpt>
      <trkpt lat="44.24771" lon="5.61397">
        <ele>877</ele>
        <time>2019-06-19T08:48:44Z</time>
      </trkpt>
      <trkpt lat="44.24774" lon="5.61398">
        <ele>877</ele>
        <time>2019-06-19T08:48:45Z</time>
      </trkpt>
      <trkpt lat="44.24776" lon="5.61399">
        <ele>877</ele>
        <time>2019-06-19T08:48:46Z</time>
      </trkpt>
      <trkpt lat="44.24779" lon="5.614">
        <ele>877</ele>
        <time>2019-06-19T08:48:47Z</time>
      </trkpt>
      <trkpt lat="44.24782" lon="5.61401">
        <ele>877</ele>
        <time>2019-06-19T08:48:48Z</time>
      </trkpt>
      <trkpt lat="44.24784" lon="5.61402">
        <ele>877</ele>
        <time>2019-06-19T08:48:49Z</time>
      </trkpt>
      <trkpt lat="44.24787" lon="5.61404">
        <ele>877</ele>
        <time>2019-06-19T08:48:50Z</time>
      </trkpt>
      <trkpt lat="44.24789" lon="5.61405">
        <ele>877</ele>
        <time>2019-06-19T08:48:51Z</time>
      </trkpt>
      <trkpt lat="44.24792" lon="5.61406">
        <ele>877</ele>
        <time>2019-06-19T08:48:52Z</time>
      </trkpt>
      <trkpt lat="44.24794" lon="5.61407">
        <ele>877</ele>
        <time>2019-06-19T08:48:53Z</time>
      </trkpt>
      <trkpt lat="44.24797" lon="5.61408">
        <ele>877</ele>
        <time>2019-06-19T08:48:54Z</time>
      </trkpt>
      <trkpt lat="44.24799" lon="5.6141">
        <ele>877</ele>
        <time>2019-06-19T08:48:55Z</time>
      </trkpt>
      <trkpt lat="44.24801" lon="5.61412">
        <ele>877</ele>
        <time>2019-06-19T08:48:56Z</time>
      </trkpt>
      <trkpt lat="44.24803" lon="5.61415">
        <ele>877</ele>
        <time>2019-06-19T08:48:57Z</time>
      </trkpt>
      <trkpt lat="44.24805" lon="5.61418">
        <ele>877</ele>
        <time>2019-06-19T08:48:58Z</time>
      </trkpt>
      <trkpt lat="44.24806" lon="5.61421">
        <ele>877</ele>
        <time>2019-06-19T08:48:59Z</time>
      </trkpt>
      <trkpt lat="44.24807" lon="5.61424">
        <ele>877</ele>
        <time>2019-06-19T08:49:00Z</time>
      </trkpt>
      <trkpt lat="44.24808" lon="5.61428">
        <ele>877</ele>
        <time>2019-06-19T08:49:01Z</time>
      </trkpt>
      <trkpt lat="44.24809" lon="5.61431">
        <ele>877</ele>
        <time>2019-06-19T08:49:02Z</time>
      </trkpt>
      <trkpt lat="44.24809" lon="5.61434">
        <ele>877</ele>
        <time>2019-06-19T08:49:03Z</time>
      </trkpt>
      <trkpt lat="44.24809" lon="5.61437">
        <ele>877</ele>
        <time>2019-06-19T08:49:04Z</time>
      </trkpt>
      <trkpt lat="44.24808" lon="5.6144">
        <ele>877</ele>
        <time>2019-06-19T08:49:05Z</time>
      </trkpt>
      <trkpt lat="44.24807" lon="5.61444">
        <ele>877</ele>
        <time>2019-06-19T08:49:06Z</time>
      </trkpt>
      <trkpt lat="44.24807" lon="5.61447">
        <ele>877</ele>
        <time>2019-06-19T08:49:07Z</time>
      </trkpt>
      <trkpt lat="44.24807" lon="5.6145">
        <ele>877</ele>
        <time>2019-06-19T08:49:08Z</time>
      </trkpt>
      <trkpt lat="44.24807" lon="5.61454">
        <ele>877</ele>
        <time>2019-06-19T08:49:09Z</time>
      </trkpt>
      <trkpt lat="44.24807" lon="5.61457">
        <ele>877</ele>
        <time>2019-06-19T08:49:10Z</time>
      </trkpt>
      <trkpt lat="44.24807" lon="5.6146">
        <ele>877</ele>
        <time>2019-06-19T08:49:11Z</time>
      </trkpt>
      <trkpt lat="44.24807" lon="5.61463">
        <ele>877</ele>
        <time>2019-06-19T08:49:12Z</time>
      </trkpt>
      <trkpt lat="44.24808" lon="5.61467">
        <ele>877</ele>
        <time>2019-06-19T08:49:13Z</time>
      </trkpt>
      <trkpt lat="44.24808" lon="5.6147">
        <ele>877</ele>
        <time>2019-06-19T08:49:14Z</time>
      </trkpt>
      <trkpt lat="44.24809" lon="5.61474">
        <ele>877</ele>
        <time>2019-06-19T08:49:15Z</time>
      </trkpt>
      <trkpt lat="44.2481" lon="5.61477">
        <ele>877</ele>
        <time>2019-06-19T08:49:16Z</time>
      </trkpt>
      <trkpt lat="44.24811" lon="5.6148">
        <ele>878</ele>
        <time>2019-06-19T08:49:17Z</time>
      </trkpt>
      <trkpt lat="44.24813" lon="5.61483">
        <ele>878</ele>
        <time>2019-06-19T08:49:18Z</time>
      </trkpt>
      <trkpt lat="44.24815" lon="5.61486">
        <ele>878</ele>
        <time>2019-06-19T08:49:19Z</time>
      </trkpt>
      <trkpt lat="44.24817" lon="5.61489">
        <ele>878</ele>
        <time>2019-06-19T08:49:20Z</time>
      </trkpt>
      <trkpt lat="44.24819" lon="5.61492">
        <ele>879</ele>
        <time>2019-06-19T08:49:21Z</time>
      </trkpt>
      <trkpt lat="44.24821" lon="5.61494">
        <ele>879</ele>
        <time>2019-06-19T08:49:22Z</time>
      </trkpt>
      <trkpt lat="44.24823" lon="5.61496">
        <ele>879</ele>
        <time>2019-06-19T08:49:23Z</time>
      </trkpt>
      <trkpt lat="44.24825" lon="5.61499">
        <ele>880</ele>
        <time>2019-06-19T08:49:24Z</time>
      </trkpt>
      <trkpt lat="44.24827" lon="5.61501">
        <ele>880</ele>
        <time>2019-06-19T08:49:25Z</time>
      </trkpt>
      <trkpt lat="44.24829" lon="5.61503">
        <ele>881</ele>
        <time>2019-06-19T08:49:26Z</time>
      </trkpt>
      <trkpt lat="44.24831" lon="5.61505">
        <ele>881</ele>
        <time>2019-06-19T08:49:27Z</time>
      </trkpt>
      <trkpt lat="44.24833" lon="5.61506">
        <ele>882</ele>
        <time>2019-06-19T08:49:28Z</time>
      </trkpt>
      <trkpt lat="44.24835" lon="5.61508">
        <ele>882</ele>
        <time>2019-06-19T08:49:29Z</time>
      </trkpt>
      <trkpt lat="44.24837" lon="5.6151">
        <ele>882</ele>
        <time>2019-06-19T08:49:30Z</time>
      </trkpt>
      <trkpt lat="44.24839" lon="5.61512">
        <ele>882</ele>
        <time>2019-06-19T08:49:31Z</time>
      </trkpt>
      <trkpt lat="44.24841" lon="5.61514">
        <ele>882</ele>
        <time>2019-06-19T08:49:32Z</time>
      </trkpt>
      <trkpt lat="44.24843" lon="5.61516">
        <ele>882</ele>
        <time>2019-06-19T08:49:33Z</time>
      </trkpt>
      <trkpt lat="44.24845" lon="5.61517">
        <ele>882</ele>
        <time>2019-06-19T08:49:34Z</time>
      </trkpt>
      <trkpt lat="44.24847" lon="5.61519">
        <ele>883</ele>
        <time>2019-06-19T08:49:35Z</time>
      </trkpt>
      <trkpt lat="44.24849" lon="5.61521">
        <ele>883</ele>
        <time>2019-06-19T08:49:36Z</time>
      </trkpt>
      <trkpt lat="44.24851" lon="5.61523">
        <ele>883</ele>
        <time>2019-06-19T08:49:37Z</time>
      </trkpt>
      <trkpt lat="44.24853" lon="5.61525">
        <ele>883</ele>
        <time>2019-06-19T08:49:38Z</time>
      </trkpt>
      <trkpt lat="44.24855" lon="5.61526">
        <ele>883</ele>
        <time>2019-06-19T08:49:39Z</time>
      </trkpt>
      <trkpt lat="44.24857" lon="5.61528">
        <ele>883</ele>
        <time>2019-06-19T08:49:40Z</time>
      </trkpt>
      <trkpt lat="44.24859" lon="5.6153">
        <ele>883</ele>
        <time>2019-06-19T08:49:41Z</time>
      </trkpt>
      <trkpt lat="44.2486" lon="5.61532">
        <ele>883</ele>
        <time>2019-06-19T08:49:42Z</time>
      </trkpt>
      <trkpt lat="44.24862" lon="5.61534">
        <ele>883</ele>
        <time>2019-06-19T08:49:43Z</time>
      </trkpt>
      <trkpt lat="44.24864" lon="5.61535">
        <ele>883</ele>
        <time>2019-06-19T08:49:44Z</time>
      </trkpt>
      <trkpt lat="44.24866" lon="5.61537">
        <ele>883</ele>
        <time>2019-06-19T08:49:45Z</time>
      </trkpt>
      <trkpt lat="44.24868" lon="5.61539">
        <ele>883</ele>
        <time>2019-06-19T08:49:46Z</time>
      </trkpt>
      <trkpt lat="44.2487" lon="5.6154">
        <ele>883</ele>
        <time>2019-06-19T08:49:47Z</time>
      </trkpt>
      <trkpt lat="44.24871" lon="5.61542">
        <ele>884</ele>
        <time>2019-06-19T08:49:48Z</time>
      </trkpt>
      <trkpt lat="44.24873" lon="5.61544">
        <ele>884</ele>
        <time>2019-06-19T08:49:49Z</time>
      </trkpt>
      <trkpt lat="44.24875" lon="5.61545">
        <ele>884</ele>
        <time>2019-06-19T08:49:50Z</time>
      </trkpt>
      <trkpt lat="44.24877" lon="5.61547">
        <ele>884</ele>
        <time>2019-06-19T08:49:51Z</time>
      </trkpt>
      <trkpt lat="44.24879" lon="5.61548">
        <ele>884</ele>
        <time>2019-06-19T08:49:52Z</time>
      </trkpt>
      <trkpt lat="44.24881" lon="5.61549">
        <ele>884</ele>
        <time>2019-06-19T08:49:53Z</time>
      </trkpt>
      <trkpt lat="44.24883" lon="5.61551">
        <ele>884</ele>
        <time>2019-06-19T08:49:54Z</time>
      </trkpt>
      <trkpt lat="44.24885" lon="5.61552">
        <ele>884</ele>
        <time>2019-06-19T08:49:55Z</time>
      </trkpt>
      <trkpt lat="44.24887" lon="5.61553">
        <ele>884</ele>
        <time>2019-06-19T08:49:56Z</time>
      </trkpt>
      <trkpt lat="44.24889" lon="5.61554">
        <ele>885</ele>
        <time>2019-06-19T08:49:57Z</time>
      </trkpt>
      <trkpt lat="44.24892" lon="5.61555">
        <ele>885</ele>
        <time>2019-06-19T08:49:58Z</time>
      </trkpt>
      <trkpt lat="44.24894" lon="5.61555">
        <ele>885</ele>
        <time>2019-06-19T08:49:59Z</time>
      </trkpt>
      <trkpt lat="44.24896" lon="5.61556">
        <ele>885</ele>
        <time>2019-06-19T08:50:00Z</time>
      </trkpt>
      <trkpt lat="44.24898" lon="5.61558">
        <ele>885</ele>
        <time>2019-06-19T08:50:01Z</time>
      </trkpt>
      <trkpt lat="44.249" lon="5.61559">
        <ele>886</ele>
        <time>2019-06-19T08:50:02Z</time>
      </trkpt>
      <trkpt lat="44.24902" lon="5.61559">
        <ele>886</ele>
        <time>2019-06-19T08:50:03Z</time>
      </trkpt>
      <trkpt lat="44.24905" lon="5.6156">
        <ele>886</ele>
        <time>2019-06-19T08:50:04Z</time>
      </trkpt>
      <trkpt lat="44.24907" lon="5.6156">
        <ele>886</ele>
        <time>2019-06-19T08:50:05Z</time>
      </trkpt>
      <trkpt lat="44.24909" lon="5.6156">
        <ele>886</ele>
        <time>2019-06-19T08:50:06Z</time>
      </trkpt>
      <trkpt lat="44.24911" lon="5.61561">
        <ele>886</ele>
        <time>2019-06-19T08:50:07Z</time>
      </trkpt>
      <trkpt lat="44.24913" lon="5.61561">
        <ele>886</ele>
        <time>2019-06-19T08:50:08Z</time>
      </trkpt>
      <trkpt lat="44.24915" lon="5.61562">
        <ele>886</ele>
        <time>2019-06-19T08:50:09Z</time>
      </trkpt>
      <trkpt lat="44.24918" lon="5.61562">
        <ele>886</ele>
        <time>2019-06-19T08:50:10Z</time>
      </trkpt>
      <trkpt lat="44.2492" lon="5.61562">
        <ele>886</ele>
        <time>2019-06-19T08:50:11Z</time>
      </trkpt>
      <trkpt lat="44.24923" lon="5.61562">
        <ele>886</ele>
        <time>2019-06-19T08:50:12Z</time>
      </trkpt>
      <trkpt lat="44.24925" lon="5.61562">
        <ele>886</ele>
        <time>2019-06-19T08:50:13Z</time>
      </trkpt>
      <trkpt lat="44.24927" lon="5.61562">
        <ele>886</ele>
        <time>2019-06-19T08:50:14Z</time>
      </trkpt>
      <trkpt lat="44.2493" lon="5.61561">
        <ele>886</ele>
        <time>2019-06-19T08:50:15Z</time>
      </trkpt>
      <trkpt lat="44.24932" lon="5.61561">
        <ele>886</ele>
        <time>2019-06-19T08:50:16Z</time>
      </trkpt>
      <trkpt lat="44.24934" lon="5.61561">
        <ele>886</ele>
        <time>2019-06-19T08:50:17Z</time>
      </trkpt>
      <trkpt lat="44.24937" lon="5.6156">
        <ele>886</ele>
        <time>2019-06-19T08:50:18Z</time>
      </trkpt>
      <trkpt lat="44.24939" lon="5.6156">
        <ele>886</ele>
        <time>2019-06-19T08:50:19Z</time>
      </trkpt>
      <trkpt lat="44.24942" lon="5.6156">
        <ele>886</ele>
        <time>2019-06-19T08:50:20Z</time>
      </trkpt>
      <trkpt lat="44.24945" lon="5.6156">
        <ele>886</ele>
        <time>2019-06-19T08:50:21Z</time>
      </trkpt>
      <trkpt lat="44.24947" lon="5.61559">
        <ele>886</ele>
        <time>2019-06-19T08:50:22Z</time>
      </trkpt>
      <trkpt lat="44.24949" lon="5.61558">
        <ele>887</ele>
        <time>2019-06-19T08:50:23Z</time>
      </trkpt>
      <trkpt lat="44.24952" lon="5.61557">
        <ele>887</ele>
        <time>2019-06-19T08:50:24Z</time>
      </trkpt>
      <trkpt lat="44.24954" lon="5.61557">
        <ele>887</ele>
        <time>2019-06-19T08:50:25Z</time>
      </trkpt>
      <trkpt lat="44.24957" lon="5.61556">
        <ele>887</ele>
        <time>2019-06-19T08:50:26Z</time>
      </trkpt>
      <trkpt lat="44.24959" lon="5.61556">
        <ele>887</ele>
        <time>2019-06-19T08:50:27Z</time>
      </trkpt>
      <trkpt lat="44.24961" lon="5.61555">
        <ele>887</ele>
        <time>2019-06-19T08:50:28Z</time>
      </trkpt>
      <trkpt lat="44.24964" lon="5.61555">
        <ele>887</ele>
        <time>2019-06-19T08:50:29Z</time>
      </trkpt>
      <trkpt lat="44.24966" lon="5.61555">
        <ele>888</ele>
        <time>2019-06-19T08:50:30Z</time>
      </trkpt>
      <trkpt lat="44.24968" lon="5.61555">
        <ele>888</ele>
        <time>2019-06-19T08:50:31Z</time>
      </trkpt>
      <trkpt lat="44.24971" lon="5.61556">
        <ele>888</ele>
        <time>2019-06-19T08:50:32Z</time>
      </trkpt>
      <trkpt lat="44.24973" lon="5.61558">
        <ele>888</ele>
        <time>2019-06-19T08:50:33Z</time>
      </trkpt>
      <trkpt lat="44.24974" lon="5.6156">
        <ele>889</ele>
        <time>2019-06-19T08:50:34Z</time>
      </trkpt>
      <trkpt lat="44.24976" lon="5.61563">
        <ele>889</ele>
        <time>2019-06-19T08:50:35Z</time>
      </trkpt>
      <trkpt lat="44.24976" lon="5.61566">
        <ele>889</ele>
        <time>2019-06-19T08:50:36Z</time>
      </trkpt>
      <trkpt lat="44.24976" lon="5.61569">
        <ele>890</ele>
        <time>2019-06-19T08:50:37Z</time>
      </trkpt>
      <trkpt lat="44.24976" lon="5.61573">
        <ele>890</ele>
        <time>2019-06-19T08:50:38Z</time>
      </trkpt>
      <trkpt lat="44.24974" lon="5.61576">
        <ele>891</ele>
        <time>2019-06-19T08:50:39Z</time>
      </trkpt>
      <trkpt lat="44.24972" lon="5.61579">
        <ele>892</ele>
        <time>2019-06-19T08:50:40Z</time>
      </trkpt>
      <trkpt lat="44.2497" lon="5.61582">
        <ele>892</ele>
        <time>2019-06-19T08:50:41Z</time>
      </trkpt>
      <trkpt lat="44.24968" lon="5.61585">
        <ele>893</ele>
        <time>2019-06-19T08:50:42Z</time>
      </trkpt>
      <trkpt lat="44.24968" lon="5.61588">
        <ele>893</ele>
        <time>2019-06-19T08:50:43Z</time>
      </trkpt>
      <trkpt lat="44.24966" lon="5.61591">
        <ele>893</ele>
        <time>2019-06-19T08:50:44Z</time>
      </trkpt>
      <trkpt lat="44.24965" lon="5.61594">
        <ele>894</ele>
        <time>2019-06-19T08:50:45Z</time>
      </trkpt>
      <trkpt lat="44.24965" lon="5.61597">
        <ele>894</ele>
        <time>2019-06-19T08:50:46Z</time>
      </trkpt>
      <trkpt lat="44.24963" lon="5.61601">
        <ele>894</ele>
        <time>2019-06-19T08:50:47Z</time>
      </trkpt>
      <trkpt lat="44.24963" lon="5.61604">
        <ele>895</ele>
        <time>2019-06-19T08:50:48Z</time>
      </trkpt>
      <trkpt lat="44.24961" lon="5.61607">
        <ele>895</ele>
        <time>2019-06-19T08:50:49Z</time>
      </trkpt>
      <trkpt lat="44.24961" lon="5.6161">
        <ele>896</ele>
        <time>2019-06-19T08:50:50Z</time>
      </trkpt>
      <trkpt lat="44.2496" lon="5.61613">
        <ele>896</ele>
        <time>2019-06-19T08:50:51Z</time>
      </trkpt>
      <trkpt lat="44.2496" lon="5.61616">
        <ele>897</ele>
        <time>2019-06-19T08:50:52Z</time>
      </trkpt>
      <trkpt lat="44.24959" lon="5.61619">
        <ele>897</ele>
        <time>2019-06-19T08:50:53Z</time>
      </trkpt>
      <trkpt lat="44.24958" lon="5.61622">
        <ele>897</ele>
        <time>2019-06-19T08:50:54Z</time>
      </trkpt>
      <trkpt lat="44.24958" lon="5.61625">
        <ele>897</ele>
        <time>2019-06-19T08:50:55Z</time>
      </trkpt>
      <trkpt lat="44.24958" lon="5.61628">
        <ele>898</ele>
        <time>2019-06-19T08:50:56Z</time>
      </trkpt>
      <trkpt lat="44.24958" lon="5.61631">
        <ele>898</ele>
        <time>2019-06-19T08:50:57Z</time>
      </trkpt>
      <trkpt lat="44.24958" lon="5.61634">
        <ele>898</ele>
        <time>2019-06-19T08:50:58Z</time>
      </trkpt>
      <trkpt lat="44.24958" lon="5.61637">
        <ele>898</ele>
        <time>2019-06-19T08:50:59Z</time>
      </trkpt>
      <trkpt lat="44.24957" lon="5.6164">
        <ele>899</ele>
        <time>2019-06-19T08:51:00Z</time>
      </trkpt>
      <trkpt lat="44.24957" lon="5.61643">
        <ele>899</ele>
        <time>2019-06-19T08:51:01Z</time>
      </trkpt>
      <trkpt lat="44.24958" lon="5.61646">
        <ele>899</ele>
        <time>2019-06-19T08:51:02Z</time>
      </trkpt>
      <trkpt lat="44.24958" lon="5.61648">
        <ele>899</ele>
        <time>2019-06-19T08:51:03Z</time>
      </trkpt>
      <trkpt lat="44.24958" lon="5.61651">
        <ele>900</ele>
        <time>2019-06-19T08:51:04Z</time>
      </trkpt>
      <trkpt lat="44.24958" lon="5.61654">
        <ele>900</ele>
        <time>2019-06-19T08:51:05Z</time>
      </trkpt>
      <trkpt lat="44.24958" lon="5.61657">
        <ele>900</ele>
        <time>2019-06-19T08:51:06Z</time>
      </trkpt>
      <trkpt lat="44.24958" lon="5.6166">
        <ele>900</ele>
        <time>2019-06-19T08:51:07Z</time>
      </trkpt>
      <trkpt lat="44.24959" lon="5.61663">
        <ele>900</ele>
        <time>2019-06-19T08:51:08Z</time>
      </trkpt>
      <trkpt lat="44.24959" lon="5.61666">
        <ele>900</ele>
        <time>2019-06-19T08:51:09Z</time>
      </trkpt>
      <trkpt lat="44.2496" lon="5.61668">
        <ele>901</ele>
        <time>2019-06-19T08:51:10Z</time>
      </trkpt>
      <trkpt lat="44.2496" lon="5.61671">
        <ele>901</ele>
        <time>2019-06-19T08:51:11Z</time>
      </trkpt>
      <trkpt lat="44.2496" lon="5.61674">
        <ele>901</ele>
        <time>2019-06-19T08:51:12Z</time>
      </trkpt>
      <trkpt lat="44.24961" lon="5.61677">
        <ele>901</ele>
        <time>2019-06-19T08:51:13Z</time>
      </trkpt>
      <trkpt lat="44.24961" lon="5.6168">
        <ele>901</ele>
        <time>2019-06-19T08:51:14Z</time>
      </trkpt>
      <trkpt lat="44.24962" lon="5.61683">
        <ele>901</ele>
        <time>2019-06-19T08:51:15Z</time>
      </trkpt>
      <trkpt lat="44.24963" lon="5.61686">
        <ele>902</ele>
        <time>2019-06-19T08:51:16Z</time>
      </trkpt>
      <trkpt lat="44.24963" lon="5.61689">
        <ele>902</ele>
        <time>2019-06-19T08:51:17Z</time>
      </trkpt>
      <trkpt lat="44.24963" lon="5.61692">
        <ele>902</ele>
        <time>2019-06-19T08:51:18Z</time>
      </trkpt>
      <trkpt lat="44.24964" lon="5.61694">
        <ele>903</ele>
        <time>2019-06-19T08:51:19Z</time>
      </trkpt>
      <trkpt lat="44.24965" lon="5.61697">
        <ele>903</ele>
        <time>2019-06-19T08:51:20Z</time>
      </trkpt>
      <trkpt lat="44.24966" lon="5.617">
        <ele>904</ele>
        <time>2019-06-19T08:51:21Z</time>
      </trkpt>
      <trkpt lat="44.24966" lon="5.61702">
        <ele>904</ele>
        <time>2019-06-19T08:51:22Z</time>
      </trkpt>
      <trkpt lat="44.24967" lon="5.61705">
        <ele>905</ele>
        <time>2019-06-19T08:51:23Z</time>
      </trkpt>
      <trkpt lat="44.24968" lon="5.61707">
        <ele>905</ele>
        <time>2019-06-19T08:51:24Z</time>
      </trkpt>
      <trkpt lat="44.24969" lon="5.6171">
        <ele>905</ele>
        <time>2019-06-19T08:51:25Z</time>
      </trkpt>
      <trkpt lat="44.2497" lon="5.61712">
        <ele>906</ele>
        <time>2019-06-19T08:51:26Z</time>
      </trkpt>
      <trkpt lat="44.24971" lon="5.61715">
        <ele>906</ele>
        <time>2019-06-19T08:51:27Z</time>
      </trkpt>
      <trkpt lat="44.24972" lon="5.61717">
        <ele>907</ele>
        <time>2019-06-19T08:51:28Z</time>
      </trkpt>
      <trkpt lat="44.24973" lon="5.61719">
        <ele>907</ele>
        <time>2019-06-19T08:51:29Z</time>
      </trkpt>
      <trkpt lat="44.24974" lon="5.61722">
        <ele>908</ele>
        <time>2019-06-19T08:51:30Z</time>
      </trkpt>
      <trkpt lat="44.24975" lon="5.61724">
        <ele>908</ele>
        <time>2019-06-19T08:51:31Z</time>
      </trkpt>
      <trkpt lat="44.24977" lon="5.61726">
        <ele>909</ele>
        <time>2019-06-19T08:51:32Z</time>
      </trkpt>
      <trkpt lat="44.24979" lon="5.61728">
        <ele>909</ele>
        <time>2019-06-19T08:51:33Z</time>
      </trkpt>
      <trkpt lat="44.24981" lon="5.6173">
        <ele>909</ele>
        <time>2019-06-19T08:51:34Z</time>
      </trkpt>
      <trkpt lat="44.24983" lon="5.61732">
        <ele>909</ele>
        <time>2019-06-19T08:51:35Z</time>
      </trkpt>
      <trkpt lat="44.24984" lon="5.61734">
        <ele>909</ele>
        <time>2019-06-19T08:51:36Z</time>
      </trkpt>
      <trkpt lat="44.24986" lon="5.61737">
        <ele>909</ele>
        <time>2019-06-19T08:51:37Z</time>
      </trkpt>
      <trkpt lat="44.24987" lon="5.61739">
        <ele>909</ele>
        <time>2019-06-19T08:51:38Z</time>
      </trkpt>
      <trkpt lat="44.24989" lon="5.61741">
        <ele>909</ele>
        <time>2019-06-19T08:51:39Z</time>
      </trkpt>
      <trkpt lat="44.24991" lon="5.61743">
        <ele>909</ele>
        <time>2019-06-19T08:51:40Z</time>
      </trkpt>
      <trkpt lat="44.24992" lon="5.61745">
        <ele>909</ele>
        <time>2019-06-19T08:51:41Z</time>
      </trkpt>
      <trkpt lat="44.24994" lon="5.61747">
        <ele>909</ele>
        <time>2019-06-19T08:51:42Z</time>
      </trkpt>
      <trkpt lat="44.24996" lon="5.61749">
        <ele>909</ele>
        <time>2019-06-19T08:51:43Z</time>
      </trkpt>
      <trkpt lat="44.24998" lon="5.6175">
        <ele>909</ele>
        <time>2019-06-19T08:51:44Z</time>
      </trkpt>
      <trkpt lat="44.25" lon="5.61752">
        <ele>909</ele>
        <time>2019-06-19T08:51:45Z</time>
      </trkpt>
      <trkpt lat="44.25002" lon="5.61754">
        <ele>910</ele>
        <time>2019-06-19T08:51:46Z</time>
      </trkpt>
      <trkpt lat="44.25004" lon="5.61756">
        <ele>910</ele>
        <time>2019-06-19T08:51:47Z</time>
      </trkpt>
      <trkpt lat="44.25007" lon="5.61757">
        <ele>910</ele>
        <time>2019-06-19T08:51:48Z</time>
      </trkpt>
      <trkpt lat="44.25009" lon="5.61758">
        <ele>910</ele>
        <time>2019-06-19T08:51:49Z</time>
      </trkpt>
      <trkpt lat="44.25011" lon="5.61759">
        <ele>910</ele>
        <time>2019-06-19T08:51:50Z</time>
      </trkpt>
      <trkpt lat="44.25014" lon="5.6176">
        <ele>910</ele>
        <time>2019-06-19T08:51:51Z</time>
      </trkpt>
      <trkpt lat="44.25016" lon="5.61761">
        <ele>910</ele>
        <time>2019-06-19T08:51:52Z</time>
      </trkpt>
      <trkpt lat="44.25018" lon="5.61762">
        <ele>911</ele>
        <time>2019-06-19T08:51:53Z</time>
      </trkpt>
      <trkpt lat="44.25021" lon="5.61763">
        <ele>911</ele>
        <time>2019-06-19T08:51:54Z</time>
      </trkpt>
      <trkpt lat="44.25023" lon="5.61763">
        <ele>911</ele>
        <time>2019-06-19T08:51:55Z</time>
      </trkpt>
      <trkpt lat="44.25026" lon="5.61764">
        <ele>911</ele>
        <time>2019-06-19T08:51:56Z</time>
      </trkpt>
      <trkpt lat="44.25028" lon="5.61765">
        <ele>911</ele>
        <time>2019-06-19T08:51:57Z</time>
      </trkpt>
      <trkpt lat="44.2503" lon="5.61765">
        <ele>911</ele>
        <time>2019-06-19T08:51:58Z</time>
      </trkpt>
      <trkpt lat="44.25032" lon="5.61766">
        <ele>911</ele>
        <time>2019-06-19T08:51:59Z</time>
      </trkpt>
      <trkpt lat="44.25034" lon="5.61766">
        <ele>911</ele>
        <time>2019-06-19T08:52:00Z</time>
      </trkpt>
      <trkpt lat="44.25037" lon="5.61766">
        <ele>911</ele>
        <time>2019-06-19T08:52:01Z</time>
      </trkpt>
      <trkpt lat="44.25039" lon="5.61766">
        <ele>912</ele>
        <time>2019-06-19T08:52:02Z</time>
      </trkpt>
      <trkpt lat="44.25041" lon="5.61767">
        <ele>912</ele>
        <time>2019-06-19T08:52:03Z</time>
      </trkpt>
      <trkpt lat="44.25043" lon="5.61767">
        <ele>912</ele>
        <time>2019-06-19T08:52:04Z</time>
      </trkpt>
      <trkpt lat="44.25045" lon="5.61767">
        <ele>912</ele>
        <time>2019-06-19T08:52:05Z</time>
      </trkpt>
      <trkpt lat="44.25047" lon="5.61767">
        <ele>912</ele>
        <time>2019-06-19T08:52:06Z</time>
      </trkpt>
      <trkpt lat="44.25049" lon="5.61767">
        <ele>912</ele>
        <time>2019-06-19T08:52:07Z</time>
      </trkpt>
      <trkpt lat="44.25052" lon="5.61767">
        <ele>913</ele>
        <time>2019-06-19T08:52:08Z</time>
      </trkpt>
      <trkpt lat="44.25054" lon="5.61767">
        <ele>913</ele>
        <time>2019-06-19T08:52:09Z</time>
      </trkpt>
      <trkpt lat="44.25056" lon="5.61767">
        <ele>913</ele>
        <time>2019-06-19T08:52:10Z</time>
      </trkpt>
      <trkpt lat="44.25058" lon="5.61768">
        <ele>913</ele>
        <time>2019-06-19T08:52:11Z</time>
      </trkpt>
      <trkpt lat="44.2506" lon="5.61768">
        <ele>913</ele>
        <time>2019-06-19T08:52:12Z</time>
      </trkpt>
      <trkpt lat="44.25062" lon="5.61768">
        <ele>913</ele>
        <time>2019-06-19T08:52:13Z</time>
      </trkpt>
      <trkpt lat="44.25064" lon="5.61768">
        <ele>913</ele>
        <time>2019-06-19T08:52:14Z</time>
      </trkpt>
      <trkpt lat="44.25066" lon="5.61767">
        <ele>913</ele>
        <time>2019-06-19T08:52:15Z</time>
      </trkpt>
      <trkpt lat="44.25069" lon="5.61767">
        <ele>913</ele>
        <time>2019-06-19T08:52:16Z</time>
      </trkpt>
      <trkpt lat="44.25071" lon="5.61767">
        <ele>913</ele>
        <time>2019-06-19T08:52:17Z</time>
      </trkpt>
      <trkpt lat="44.25073" lon="5.61767">
        <ele>913</ele>
        <time>2019-06-19T08:52:18Z</time>
      </trkpt>
      <trkpt lat="44.25075" lon="5.61767">
        <ele>913</ele>
        <time>2019-06-19T08:52:19Z</time>
      </trkpt>
      <trkpt lat="44.25077" lon="5.61768">
        <ele>913</ele>
        <time>2019-06-19T08:52:20Z</time>
      </trkpt>
      <trkpt lat="44.25079" lon="5.61768">
        <ele>913</ele>
        <time>2019-06-19T08:52:21Z</time>
      </trkpt>
      <trkpt lat="44.25082" lon="5.6177">
        <ele>913</ele>
        <time>2019-06-19T08:52:22Z</time>
      </trkpt>
      <trkpt lat="44.25084" lon="5.61771">
        <ele>913</ele>
        <time>2019-06-19T08:52:23Z</time>
      </trkpt>
      <trkpt lat="44.25086" lon="5.61773">
        <ele>913</ele>
        <time>2019-06-19T08:52:24Z</time>
      </trkpt>
      <trkpt lat="44.25088" lon="5.61776">
        <ele>913</ele>
        <time>2019-06-19T08:52:25Z</time>
      </trkpt>
      <trkpt lat="44.25089" lon="5.61779">
        <ele>913</ele>
        <time>2019-06-19T08:52:26Z</time>
      </trkpt>
      <trkpt lat="44.2509" lon="5.61783">
        <ele>913</ele>
        <time>2019-06-19T08:52:27Z</time>
      </trkpt>
      <trkpt lat="44.25089" lon="5.61787">
        <ele>913</ele>
        <time>2019-06-19T08:52:28Z</time>
      </trkpt>
      <trkpt lat="44.25089" lon="5.6179">
        <ele>914</ele>
        <time>2019-06-19T08:52:29Z</time>
      </trkpt>
      <trkpt lat="44.25087" lon="5.61792">
        <ele>914</ele>
        <time>2019-06-19T08:52:30Z</time>
      </trkpt>
      <trkpt lat="44.25085" lon="5.61794">
        <ele>914</ele>
        <time>2019-06-19T08:52:31Z</time>
      </trkpt>
      <trkpt lat="44.25084" lon="5.61796">
        <ele>915</ele>
        <time>2019-06-19T08:52:32Z</time>
      </trkpt>
      <trkpt lat="44.25082" lon="5.61798">
        <ele>915</ele>
        <time>2019-06-19T08:52:33Z</time>
      </trkpt>
      <trkpt lat="44.25079" lon="5.618">
        <ele>915</ele>
        <time>2019-06-19T08:52:34Z</time>
      </trkpt>
      <trkpt lat="44.25077" lon="5.61802">
        <ele>915</ele>
        <time>2019-06-19T08:52:35Z</time>
      </trkpt>
      <trkpt lat="44.25074" lon="5.61804">
        <ele>915</ele>
        <time>2019-06-19T08:52:36Z</time>
      </trkpt>
      <trkpt lat="44.25072" lon="5.61807">
        <ele>916</ele>
        <time>2019-06-19T08:52:37Z</time>
      </trkpt>
      <trkpt lat="44.25071" lon="5.61809">
        <ele>916</ele>
        <time>2019-06-19T08:52:38Z</time>
      </trkpt>
      <trkpt lat="44.25069" lon="5.61811">
        <ele>916</ele>
        <time>2019-06-19T08:52:39Z</time>
      </trkpt>
      <trkpt lat="44.25067" lon="5.61814">
        <ele>916</ele>
        <time>2019-06-19T08:52:40Z</time>
      </trkpt>
      <trkpt lat="44.25064" lon="5.61816">
        <ele>916</ele>
        <time>2019-06-19T08:52:41Z</time>
      </trkpt>
      <trkpt lat="44.25063" lon="5.61818">
        <ele>916</ele>
        <time>2019-06-19T08:52:42Z</time>
      </trkpt>
      <trkpt lat="44.25061" lon="5.6182">
        <ele>916</ele>
        <time>2019-06-19T08:52:43Z</time>
      </trkpt>
      <trkpt lat="44.2506" lon="5.61823">
        <ele>916</ele>
        <time>2019-06-19T08:52:44Z</time>
      </trkpt>
      <trkpt lat="44.25059" lon="5.61825">
        <ele>916</ele>
        <time>2019-06-19T08:52:45Z</time>
      </trkpt>
      <trkpt lat="44.25058" lon="5.61827">
        <ele>916</ele>
        <time>2019-06-19T08:52:46Z</time>
      </trkpt>
      <trkpt lat="44.25057" lon="5.6183">
        <ele>916</ele>
        <time>2019-06-19T08:52:47Z</time>
      </trkpt>
      <trkpt lat="44.25055" lon="5.61832">
        <ele>916</ele>
        <time>2019-06-19T08:52:48Z</time>
      </trkpt>
      <trkpt lat="44.25054" lon="5.61834">
        <ele>916</ele>
        <time>2019-06-19T08:52:49Z</time>
      </trkpt>
      <trkpt lat="44.25053" lon="5.61836">
        <ele>916</ele>
        <time>2019-06-19T08:52:50Z</time>
      </trkpt>
      <trkpt lat="44.25051" lon="5.61838">
        <ele>916</ele>
        <time>2019-06-19T08:52:51Z</time>
      </trkpt>
      <trkpt lat="44.2505" lon="5.6184">
        <ele>916</ele>
        <time>2019-06-19T08:52:52Z</time>
      </trkpt>
      <trkpt lat="44.25049" lon="5.61844">
        <ele>916</ele>
        <time>2019-06-19T08:52:53Z</time>
      </trkpt>
      <trkpt lat="44.25048" lon="5.61847">
        <ele>916</ele>
        <time>2019-06-19T08:52:54Z</time>
      </trkpt>
      <trkpt lat="44.25047" lon="5.6185">
        <ele>916</ele>
        <time>2019-06-19T08:52:55Z</time>
      </trkpt>
      <trkpt lat="44.25046" lon="5.61853">
        <ele>916</ele>
        <time>2019-06-19T08:52:56Z</time>
      </trkpt>
      <trkpt lat="44.25045" lon="5.61856">
        <ele>916</ele>
        <time>2019-06-19T08:52:57Z</time>
      </trkpt>
      <trkpt lat="44.25045" lon="5.6186">
        <ele>916</ele>
        <time>2019-06-19T08:52:58Z</time>
      </trkpt>
      <trkpt lat="44.25044" lon="5.61863">
        <ele>916</ele>
        <time>2019-06-19T08:52:59Z</time>
      </trkpt>
      <trkpt lat="44.25044" lon="5.61866">
        <ele>916</ele>
        <time>2019-06-19T08:53:00Z</time>
      </trkpt>
      <trkpt lat="44.25044" lon="5.61869">
        <ele>916</ele>
        <time>2019-06-19T08:53:01Z</time>
      </trkpt>
      <trkpt lat="44.25044" lon="5.61872">
        <ele>917</ele>
        <time>2019-06-19T08:53:02Z</time>
      </trkpt>
      <trkpt lat="44.25044" lon="5.61876">
        <ele>917</ele>
        <time>2019-06-19T08:53:03Z</time>
      </trkpt>
      <trkpt lat="44.25044" lon="5.61879">
        <ele>917</ele>
        <time>2019-06-19T08:53:04Z</time>
      </trkpt>
      <trkpt lat="44.25044" lon="5.61882">
        <ele>918</ele>
        <time>2019-06-19T08:53:05Z</time>
      </trkpt>
      <trkpt lat="44.25044" lon="5.61885">
        <ele>918</ele>
        <time>2019-06-19T08:53:06Z</time>
      </trkpt>
      <trkpt lat="44.25045" lon="5.61889">
        <ele>918</ele>
        <time>2019-06-19T08:53:07Z</time>
      </trkpt>
      <trkpt lat="44.25045" lon="5.61892">
        <ele>918</ele>
        <time>2019-06-19T08:53:08Z</time>
      </trkpt>
      <trkpt lat="44.25046" lon="5.61895">
        <ele>919</ele>
        <time>2019-06-19T08:53:09Z</time>
      </trkpt>
      <trkpt lat="44.25046" lon="5.61898">
        <ele>919</ele>
        <time>2019-06-19T08:53:10Z</time>
      </trkpt>
      <trkpt lat="44.25046" lon="5.61901">
        <ele>919</ele>
        <time>2019-06-19T08:53:11Z</time>
      </trkpt>
      <trkpt lat="44.25046" lon="5.61904">
        <ele>919</ele>
        <time>2019-06-19T08:53:12Z</time>
      </trkpt>
      <trkpt lat="44.25047" lon="5.61907">
        <ele>919</ele>
        <time>2019-06-19T08:53:13Z</time>
      </trkpt>
      <trkpt lat="44.25047" lon="5.6191">
        <ele>919</ele>
        <time>2019-06-19T08:53:14Z</time>
      </trkpt>
      <trkpt lat="44.25047" lon="5.61913">
        <ele>920</ele>
        <time>2019-06-19T08:53:15Z</time>
      </trkpt>
      <trkpt lat="44.25047" lon="5.61916">
        <ele>920</ele>
        <time>2019-06-19T08:53:16Z</time>
      </trkpt>
      <trkpt lat="44.25047" lon="5.6192">
        <ele>920</ele>
        <time>2019-06-19T08:53:17Z</time>
      </trkpt>
      <trkpt lat="44.25046" lon="5.61923">
        <ele>921</ele>
        <time>2019-06-19T08:53:18Z</time>
      </trkpt>
      <trkpt lat="44.25046" lon="5.61926">
        <ele>921</ele>
        <time>2019-06-19T08:53:19Z</time>
      </trkpt>
      <trkpt lat="44.25046" lon="5.61929">
        <ele>921</ele>
        <time>2019-06-19T08:53:20Z</time>
      </trkpt>
      <trkpt lat="44.25045" lon="5.61933">
        <ele>922</ele>
        <time>2019-06-19T08:53:21Z</time>
      </trkpt>
      <trkpt lat="44.25045" lon="5.61936">
        <ele>922</ele>
        <time>2019-06-19T08:53:22Z</time>
      </trkpt>
      <trkpt lat="44.25044" lon="5.61939">
        <ele>923</ele>
        <time>2019-06-19T08:53:23Z</time>
      </trkpt>
      <trkpt lat="44.25044" lon="5.61942">
        <ele>923</ele>
        <time>2019-06-19T08:53:24Z</time>
      </trkpt>
      <trkpt lat="44.25044" lon="5.61946">
        <ele>923</ele>
        <time>2019-06-19T08:53:25Z</time>
      </trkpt>
      <trkpt lat="44.25044" lon="5.61949">
        <ele>924</ele>
        <time>2019-06-19T08:53:26Z</time>
      </trkpt>
      <trkpt lat="44.25045" lon="5.61952">
        <ele>924</ele>
        <time>2019-06-19T08:53:27Z</time>
      </trkpt>
      <trkpt lat="44.25045" lon="5.61955">
        <ele>924</ele>
        <time>2019-06-19T08:53:28Z</time>
      </trkpt>
      <trkpt lat="44.25046" lon="5.61959">
        <ele>924</ele>
        <time>2019-06-19T08:53:29Z</time>
      </trkpt>
      <trkpt lat="44.25047" lon="5.61962">
        <ele>925</ele>
        <time>2019-06-19T08:53:30Z</time>
      </trkpt>
      <trkpt lat="44.25049" lon="5.61965">
        <ele>925</ele>
        <time>2019-06-19T08:53:31Z</time>
      </trkpt>
      <trkpt lat="44.2505" lon="5.61968">
        <ele>925</ele>
        <time>2019-06-19T08:53:32Z</time>
      </trkpt>
      <trkpt lat="44.25051" lon="5.61971">
        <ele>925</ele>
        <time>2019-06-19T08:53:33Z</time>
      </trkpt>
      <trkpt lat="44.25053" lon="5.61974">
        <ele>925</ele>
        <time>2019-06-19T08:53:34Z</time>
      </trkpt>
      <trkpt lat="44.25054" lon="5.61977">
        <ele>925</ele>
        <time>2019-06-19T08:53:35Z</time>
      </trkpt>
      <trkpt lat="44.25055" lon="5.6198">
        <ele>925</ele>
        <time>2019-06-19T08:53:36Z</time>
      </trkpt>
      <trkpt lat="44.25055" lon="5.61983">
        <ele>925</ele>
        <time>2019-06-19T08:53:37Z</time>
      </trkpt>
      <trkpt lat="44.25056" lon="5.61986">
        <ele>925</ele>
        <time>2019-06-19T08:53:38Z</time>
      </trkpt>
      <trkpt lat="44.25058" lon="5.61989">
        <ele>925</ele>
        <time>2019-06-19T08:53:39Z</time>
      </trkpt>
      <trkpt lat="44.25059" lon="5.61993">
        <ele>926</ele>
        <time>2019-06-19T08:53:40Z</time>
      </trkpt>
      <trkpt lat="44.2506" lon="5.61996">
        <ele>926</ele>
        <time>2019-06-19T08:53:41Z</time>
      </trkpt>
      <trkpt lat="44.25061" lon="5.61999">
        <ele>926</ele>
        <time>2019-06-19T08:53:42Z</time>
      </trkpt>
      <trkpt lat="44.25063" lon="5.62002">
        <ele>926</ele>
        <time>2019-06-19T08:53:43Z</time>
      </trkpt>
      <trkpt lat="44.25063" lon="5.62005">
        <ele>927</ele>
        <time>2019-06-19T08:53:44Z</time>
      </trkpt>
      <trkpt lat="44.25064" lon="5.62008">
        <ele>927</ele>
        <time>2019-06-19T08:53:45Z</time>
      </trkpt>
      <trkpt lat="44.25065" lon="5.62012">
        <ele>927</ele>
        <time>2019-06-19T08:53:46Z</time>
      </trkpt>
      <trkpt lat="44.25066" lon="5.62015">
        <ele>927</ele>
        <time>2019-06-19T08:53:47Z</time>
      </trkpt>
      <trkpt lat="44.25067" lon="5.62018">
        <ele>927</ele>
        <time>2019-06-19T08:53:48Z</time>
      </trkpt>
      <trkpt lat="44.25068" lon="5.62021">
        <ele>927</ele>
        <time>2019-06-19T08:53:49Z</time>
      </trkpt>
      <trkpt lat="44.25069" lon="5.62024">
        <ele>927</ele>
        <time>2019-06-19T08:53:50Z</time>
      </trkpt>
      <trkpt lat="44.25071" lon="5.62027">
        <ele>927</ele>
        <time>2019-06-19T08:53:51Z</time>
      </trkpt>
      <trkpt lat="44.25072" lon="5.62029">
        <ele>927</ele>
        <time>2019-06-19T08:53:52Z</time>
      </trkpt>
      <trkpt lat="44.25074" lon="5.62032">
        <ele>928</ele>
        <time>2019-06-19T08:53:53Z</time>
      </trkpt>
      <trkpt lat="44.25076" lon="5.62035">
        <ele>928</ele>
        <time>2019-06-19T08:53:54Z</time>
      </trkpt>
      <trkpt lat="44.25077" lon="5.62037">
        <ele>928</ele>
        <time>2019-06-19T08:53:55Z</time>
      </trkpt>
      <trkpt lat="44.25079" lon="5.6204">
        <ele>928</ele>
        <time>2019-06-19T08:53:56Z</time>
      </trkpt>
      <trkpt lat="44.2508" lon="5.62042">
        <ele>928</ele>
        <time>2019-06-19T08:53:57Z</time>
      </trkpt>
      <trkpt lat="44.25082" lon="5.62045">
        <ele>929</ele>
        <time>2019-06-19T08:53:58Z</time>
      </trkpt>
      <trkpt lat="44.25084" lon="5.62047">
        <ele>929</ele>
        <time>2019-06-19T08:53:59Z</time>
      </trkpt>
      <trkpt lat="44.25085" lon="5.62048">
        <ele>929</ele>
        <time>2019-06-19T08:54:00Z</time>
      </trkpt>
      <trkpt lat="44.25087" lon="5.6205">
        <ele>930</ele>
        <time>2019-06-19T08:54:01Z</time>
      </trkpt>
      <trkpt lat="44.25089" lon="5.62051">
        <ele>930</ele>
        <time>2019-06-19T08:54:02Z</time>
      </trkpt>
      <trkpt lat="44.25091" lon="5.62052">
        <ele>930</ele>
        <time>2019-06-19T08:54:03Z</time>
      </trkpt>
      <trkpt lat="44.25092" lon="5.62053">
        <ele>931</ele>
        <time>2019-06-19T08:54:04Z</time>
      </trkpt>
      <trkpt lat="44.25094" lon="5.62053">
        <ele>931</ele>
        <time>2019-06-19T08:54:05Z</time>
      </trkpt>
      <trkpt lat="44.25096" lon="5.62052">
        <ele>931</ele>
        <time>2019-06-19T08:54:06Z</time>
      </trkpt>
      <trkpt lat="44.25098" lon="5.62052">
        <ele>931</ele>
        <time>2019-06-19T08:54:07Z</time>
      </trkpt>
      <trkpt lat="44.25099" lon="5.62052">
        <ele>932</ele>
        <time>2019-06-19T08:54:08Z</time>
      </trkpt>
      <trkpt lat="44.25101" lon="5.62052">
        <ele>932</ele>
        <time>2019-06-19T08:54:09Z</time>
      </trkpt>
      <trkpt lat="44.25103" lon="5.62053">
        <ele>932</ele>
        <time>2019-06-19T08:54:10Z</time>
      </trkpt>
      <trkpt lat="44.25105" lon="5.62052">
        <ele>932</ele>
        <time>2019-06-19T08:54:11Z</time>
      </trkpt>
      <trkpt lat="44.25106" lon="5.62052">
        <ele>932</ele>
        <time>2019-06-19T08:54:12Z</time>
      </trkpt>
      <trkpt lat="44.25108" lon="5.62051">
        <ele>932</ele>
        <time>2019-06-19T08:54:13Z</time>
      </trkpt>
      <trkpt lat="44.2511" lon="5.62051">
        <ele>932</ele>
        <time>2019-06-19T08:54:14Z</time>
      </trkpt>
      <trkpt lat="44.25112" lon="5.62051">
        <ele>932</ele>
        <time>2019-06-19T08:54:15Z</time>
      </trkpt>
      <trkpt lat="44.25114" lon="5.62051">
        <ele>932</ele>
        <time>2019-06-19T08:54:16Z</time>
      </trkpt>
      <trkpt lat="44.25116" lon="5.6205">
        <ele>932</ele>
        <time>2019-06-19T08:54:17Z</time>
      </trkpt>
      <trkpt lat="44.25118" lon="5.6205">
        <ele>932</ele>
        <time>2019-06-19T08:54:18Z</time>
      </trkpt>
      <trkpt lat="44.2512" lon="5.62049">
        <ele>932</ele>
        <time>2019-06-19T08:54:19Z</time>
      </trkpt>
      <trkpt lat="44.25122" lon="5.62049">
        <ele>932</ele>
        <time>2019-06-19T08:54:20Z</time>
      </trkpt>
      <trkpt lat="44.25124" lon="5.62049">
        <ele>932</ele>
        <time>2019-06-19T08:54:21Z</time>
      </trkpt>
      <trkpt lat="44.25126" lon="5.62048">
        <ele>932</ele>
        <time>2019-06-19T08:54:22Z</time>
      </trkpt>
      <trkpt lat="44.25128" lon="5.62048">
        <ele>932</ele>
        <time>2019-06-19T08:54:23Z</time>
      </trkpt>
      <trkpt lat="44.2513" lon="5.62048">
        <ele>932</ele>
        <time>2019-06-19T08:54:24Z</time>
      </trkpt>
      <trkpt lat="44.25132" lon="5.62048">
        <ele>932</ele>
        <time>2019-06-19T08:54:25Z</time>
      </trkpt>
      <trkpt lat="44.25134" lon="5.62047">
        <ele>932</ele>
        <time>2019-06-19T08:54:26Z</time>
      </trkpt>
      <trkpt lat="44.25136" lon="5.62047">
        <ele>932</ele>
        <time>2019-06-19T08:54:27Z</time>
      </trkpt>
      <trkpt lat="44.25138" lon="5.62047">
        <ele>932</ele>
        <time>2019-06-19T08:54:28Z</time>
      </trkpt>
      <trkpt lat="44.2514" lon="5.62047">
        <ele>932</ele>
        <time>2019-06-19T08:54:29Z</time>
      </trkpt>
      <trkpt lat="44.25143" lon="5.62047">
        <ele>932</ele>
        <time>2019-06-19T08:54:30Z</time>
      </trkpt>
      <trkpt lat="44.25145" lon="5.62047">
        <ele>932</ele>
        <time>2019-06-19T08:54:31Z</time>
      </trkpt>
      <trkpt lat="44.25147" lon="5.62046">
        <ele>932</ele>
        <time>2019-06-19T08:54:32Z</time>
      </trkpt>
      <trkpt lat="44.25149" lon="5.62046">
        <ele>932</ele>
        <time>2019-06-19T08:54:33Z</time>
      </trkpt>
      <trkpt lat="44.25151" lon="5.62046">
        <ele>932</ele>
        <time>2019-06-19T08:54:34Z</time>
      </trkpt>
      <trkpt lat="44.25154" lon="5.62046">
        <ele>932</ele>
        <time>2019-06-19T08:54:35Z</time>
      </trkpt>
      <trkpt lat="44.25156" lon="5.62046">
        <ele>932</ele>
        <time>2019-06-19T08:54:36Z</time>
      </trkpt>
      <trkpt lat="44.25158" lon="5.62046">
        <ele>932</ele>
        <time>2019-06-19T08:54:37Z</time>
      </trkpt>
      <trkpt lat="44.2516" lon="5.62045">
        <ele>932</ele>
        <time>2019-06-19T08:54:38Z</time>
      </trkpt>
      <trkpt lat="44.25162" lon="5.62045">
        <ele>932</ele>
        <time>2019-06-19T08:54:39Z</time>
      </trkpt>
      <trkpt lat="44.25164" lon="5.62045">
        <ele>932</ele>
        <time>2019-06-19T08:54:40Z</time>
      </trkpt>
      <trkpt lat="44.25166" lon="5.62045">
        <ele>932</ele>
        <time>2019-06-19T08:54:41Z</time>
      </trkpt>
      <trkpt lat="44.25168" lon="5.62046">
        <ele>932</ele>
        <time>2019-06-19T08:54:42Z</time>
      </trkpt>
      <trkpt lat="44.25171" lon="5.62046">
        <ele>932</ele>
        <time>2019-06-19T08:54:43Z</time>
      </trkpt>
      <trkpt lat="44.25173" lon="5.62046">
        <ele>932</ele>
        <time>2019-06-19T08:54:44Z</time>
      </trkpt>
      <trkpt lat="44.25175" lon="5.62046">
        <ele>932</ele>
        <time>2019-06-19T08:54:45Z</time>
      </trkpt>
      <trkpt lat="44.25177" lon="5.62046">
        <ele>932</ele>
        <time>2019-06-19T08:54:46Z</time>
      </trkpt>
      <trkpt lat="44.2518" lon="5.62046">
        <ele>932</ele>
        <time>2019-06-19T08:54:47Z</time>
      </trkpt>
      <trkpt lat="44.25182" lon="5.62046">
        <ele>932</ele>
        <time>2019-06-19T08:54:48Z</time>
      </trkpt>
      <trkpt lat="44.25185" lon="5.62046">
        <ele>932</ele>
        <time>2019-06-19T08:54:49Z</time>
      </trkpt>
      <trkpt lat="44.25188" lon="5.62047">
        <ele>932</ele>
        <time>2019-06-19T08:54:50Z</time>
      </trkpt>
      <trkpt lat="44.2519" lon="5.62048">
        <ele>932</ele>
        <time>2019-06-19T08:54:51Z</time>
      </trkpt>
      <trkpt lat="44.25193" lon="5.62049">
        <ele>933</ele>
        <time>2019-06-19T08:54:52Z</time>
      </trkpt>
      <trkpt lat="44.25195" lon="5.6205">
        <ele>933</ele>
        <time>2019-06-19T08:54:53Z</time>
      </trkpt>
      <trkpt lat="44.25198" lon="5.62051">
        <ele>933</ele>
        <time>2019-06-19T08:54:54Z</time>
      </trkpt>
      <trkpt lat="44.25201" lon="5.62051">
        <ele>934</ele>
        <time>2019-06-19T08:54:55Z</time>
      </trkpt>
      <trkpt lat="44.25203" lon="5.62052">
        <ele>934</ele>
        <time>2019-06-19T08:54:56Z</time>
      </trkpt>
      <trkpt lat="44.25206" lon="5.62052">
        <ele>934</ele>
        <time>2019-06-19T08:54:57Z</time>
      </trkpt>
      <trkpt lat="44.25208" lon="5.62053">
        <ele>935</ele>
        <time>2019-06-19T08:54:58Z</time>
      </trkpt>
      <trkpt lat="44.25211" lon="5.62054">
        <ele>935</ele>
        <time>2019-06-19T08:54:59Z</time>
      </trkpt>
      <trkpt lat="44.25213" lon="5.62055">
        <ele>935</ele>
        <time>2019-06-19T08:55:00Z</time>
      </trkpt>
      <trkpt lat="44.25216" lon="5.62056">
        <ele>936</ele>
        <time>2019-06-19T08:55:01Z</time>
      </trkpt>
      <trkpt lat="44.25218" lon="5.62057">
        <ele>936</ele>
        <time>2019-06-19T08:55:02Z</time>
      </trkpt>
      <trkpt lat="44.2522" lon="5.62057">
        <ele>937</ele>
        <time>2019-06-19T08:55:03Z</time>
      </trkpt>
      <trkpt lat="44.25223" lon="5.62058">
        <ele>937</ele>
        <time>2019-06-19T08:55:04Z</time>
      </trkpt>
      <trkpt lat="44.25225" lon="5.62058">
        <ele>937</ele>
        <time>2019-06-19T08:55:05Z</time>
      </trkpt>
      <trkpt lat="44.25228" lon="5.62058">
        <ele>938</ele>
        <time>2019-06-19T08:55:06Z</time>
      </trkpt>
      <trkpt lat="44.2523" lon="5.62058">
        <ele>938</ele>
        <time>2019-06-19T08:55:07Z</time>
      </trkpt>
      <trkpt lat="44.25232" lon="5.62057">
        <ele>938</ele>
        <time>2019-06-19T08:55:08Z</time>
      </trkpt>
      <trkpt lat="44.25235" lon="5.62057">
        <ele>938</ele>
        <time>2019-06-19T08:55:09Z</time>
      </trkpt>
      <trkpt lat="44.25237" lon="5.62057">
        <ele>939</ele>
        <time>2019-06-19T08:55:10Z</time>
      </trkpt>
      <trkpt lat="44.25239" lon="5.62057">
        <ele>939</ele>
        <time>2019-06-19T08:55:11Z</time>
      </trkpt>
      <trkpt lat="44.25242" lon="5.62057">
        <ele>939</ele>
        <time>2019-06-19T08:55:12Z</time>
      </trkpt>
      <trkpt lat="44.25245" lon="5.62056">
        <ele>940</ele>
        <time>2019-06-19T08:55:13Z</time>
      </trkpt>
      <trkpt lat="44.25247" lon="5.62055">
        <ele>940</ele>
        <time>2019-06-19T08:55:14Z</time>
      </trkpt>
      <trkpt lat="44.2525" lon="5.62053">
        <ele>940</ele>
        <time>2019-06-19T08:55:15Z</time>
      </trkpt>
      <trkpt lat="44.25253" lon="5.62051">
        <ele>940</ele>
        <time>2019-06-19T08:55:16Z</time>
      </trkpt>
      <trkpt lat="44.25255" lon="5.6205">
        <ele>940</ele>
        <time>2019-06-19T08:55:17Z</time>
      </trkpt>
      <trkpt lat="44.25258" lon="5.62048">
        <ele>940</ele>
        <time>2019-06-19T08:55:18Z</time>
      </trkpt>
      <trkpt lat="44.25261" lon="5.62046">
        <ele>941</ele>
        <time>2019-06-19T08:55:19Z</time>
      </trkpt>
      <trkpt lat="44.25263" lon="5.62045">
        <ele>941</ele>
        <time>2019-06-19T08:55:20Z</time>
      </trkpt>
      <trkpt lat="44.25266" lon="5.62044">
        <ele>941</ele>
        <time>2019-06-19T08:55:21Z</time>
      </trkpt>
      <trkpt lat="44.25269" lon="5.62043">
        <ele>942</ele>
        <time>2019-06-19T08:55:22Z</time>
      </trkpt>
      <trkpt lat="44.25272" lon="5.62043">
        <ele>942</ele>
        <time>2019-06-19T08:55:23Z</time>
      </trkpt>
      <trkpt lat="44.25274" lon="5.62042">
        <ele>942</ele>
        <time>2019-06-19T08:55:24Z</time>
      </trkpt>
      <trkpt lat="44.25277" lon="5.62042">
        <ele>943</ele>
        <time>2019-06-19T08:55:25Z</time>
      </trkpt>
      <trkpt lat="44.25279" lon="5.62041">
        <ele>943</ele>
        <time>2019-06-19T08:55:26Z</time>
      </trkpt>
      <trkpt lat="44.25282" lon="5.62041">
        <ele>943</ele>
        <time>2019-06-19T08:55:27Z</time>
      </trkpt>
      <trkpt lat="44.25284" lon="5.62042">
        <ele>943</ele>
        <time>2019-06-19T08:55:28Z</time>
      </trkpt>
      <trkpt lat="44.25286" lon="5.62042">
        <ele>944</ele>
        <time>2019-06-19T08:55:29Z</time>
      </trkpt>
      <trkpt lat="44.25289" lon="5.62042">
        <ele>944</ele>
        <time>2019-06-19T08:55:30Z</time>
      </trkpt>
      <trkpt lat="44.25291" lon="5.62042">
        <ele>944</ele>
        <time>2019-06-19T08:55:31Z</time>
      </trkpt>
      <trkpt lat="44.25294" lon="5.62042">
        <ele>944</ele>
        <time>2019-06-19T08:55:32Z</time>
      </trkpt>
      <trkpt lat="44.25297" lon="5.62042">
        <ele>945</ele>
        <time>2019-06-19T08:55:33Z</time>
      </trkpt>
      <trkpt lat="44.25299" lon="5.62042">
        <ele>945</ele>
        <time>2019-06-19T08:55:34Z</time>
      </trkpt>
      <trkpt lat="44.25302" lon="5.62042">
        <ele>945</ele>
        <time>2019-06-19T08:55:35Z</time>
      </trkpt>
      <trkpt lat="44.25304" lon="5.62042">
        <ele>946</ele>
        <time>2019-06-19T08:55:36Z</time>
      </trkpt>
      <trkpt lat="44.25306" lon="5.62042">
        <ele>946</ele>
        <time>2019-06-19T08:55:37Z</time>
      </trkpt>
      <trkpt lat="44.25309" lon="5.62042">
        <ele>946</ele>
        <time>2019-06-19T08:55:38Z</time>
      </trkpt>
      <trkpt lat="44.25311" lon="5.62043">
        <ele>947</ele>
        <time>2019-06-19T08:55:39Z</time>
      </trkpt>
      <trkpt lat="44.25313" lon="5.62043">
        <ele>947</ele>
        <time>2019-06-19T08:55:40Z</time>
      </trkpt>
      <trkpt lat="44.25315" lon="5.62043">
        <ele>947</ele>
        <time>2019-06-19T08:55:41Z</time>
      </trkpt>
      <trkpt lat="44.25317" lon="5.62044">
        <ele>947</ele>
        <time>2019-06-19T08:55:42Z</time>
      </trkpt>
      <trkpt lat="44.2532" lon="5.62043">
        <ele>947</ele>
        <time>2019-06-19T08:55:43Z</time>
      </trkpt>
      <trkpt lat="44.25322" lon="5.62043">
        <ele>947</ele>
        <time>2019-06-19T08:55:44Z</time>
      </trkpt>
      <trkpt lat="44.25324" lon="5.62042">
        <ele>947</ele>
        <time>2019-06-19T08:55:45Z</time>
      </trkpt>
      <trkpt lat="44.25326" lon="5.62041">
        <ele>947</ele>
        <time>2019-06-19T08:55:46Z</time>
      </trkpt>
      <trkpt lat="44.25328" lon="5.62041">
        <ele>947</ele>
        <time>2019-06-19T08:55:47Z</time>
      </trkpt>
      <trkpt lat="44.2533" lon="5.62041">
        <ele>947</ele>
        <time>2019-06-19T08:55:48Z</time>
      </trkpt>
      <trkpt lat="44.25332" lon="5.62041">
        <ele>947</ele>
        <time>2019-06-19T08:55:49Z</time>
      </trkpt>
      <trkpt lat="44.25334" lon="5.62041">
        <ele>947</ele>
        <time>2019-06-19T08:55:50Z</time>
      </trkpt>
      <trkpt lat="44.25336" lon="5.6204">
        <ele>947</ele>
        <time>2019-06-19T08:55:51Z</time>
      </trkpt>
      <trkpt lat="44.25338" lon="5.6204">
        <ele>947</ele>
        <time>2019-06-19T08:55:52Z</time>
      </trkpt>
      <trkpt lat="44.2534" lon="5.62039">
        <ele>947</ele>
        <time>2019-06-19T08:55:53Z</time>
      </trkpt>
      <trkpt lat="44.25342" lon="5.62038">
        <ele>947</ele>
        <time>2019-06-19T08:55:54Z</time>
      </trkpt>
      <trkpt lat="44.25345" lon="5.62038">
        <ele>947</ele>
        <time>2019-06-19T08:55:55Z</time>
      </trkpt>
      <trkpt lat="44.25347" lon="5.62037">
        <ele>947</ele>
        <time>2019-06-19T08:55:56Z</time>
      </trkpt>
      <trkpt lat="44.25349" lon="5.62035">
        <ele>947</ele>
        <time>2019-06-19T08:55:57Z</time>
      </trkpt>
      <trkpt lat="44.25351" lon="5.62033">
        <ele>947</ele>
        <time>2019-06-19T08:55:58Z</time>
      </trkpt>
      <trkpt lat="44.25353" lon="5.62032">
        <ele>947</ele>
        <time>2019-06-19T08:55:59Z</time>
      </trkpt>
      <trkpt lat="44.25355" lon="5.6203">
        <ele>947</ele>
        <time>2019-06-19T08:56:00Z</time>
      </trkpt>
      <trkpt lat="44.25357" lon="5.62028">
        <ele>947</ele>
        <time>2019-06-19T08:56:01Z</time>
      </trkpt>
      <trkpt lat="44.25359" lon="5.62026">
        <ele>947</ele>
        <time>2019-06-19T08:56:02Z</time>
      </trkpt>
      <trkpt lat="44.25362" lon="5.62024">
        <ele>947</ele>
        <time>2019-06-19T08:56:03Z</time>
      </trkpt>
      <trkpt lat="44.25364" lon="5.62022">
        <ele>947</ele>
        <time>2019-06-19T08:56:04Z</time>
      </trkpt>
      <trkpt lat="44.25365" lon="5.62021">
        <ele>947</ele>
        <time>2019-06-19T08:56:05Z</time>
      </trkpt>
      <trkpt lat="44.25368" lon="5.62019">
        <ele>947</ele>
        <time>2019-06-19T08:56:06Z</time>
      </trkpt>
      <trkpt lat="44.2537" lon="5.62017">
        <ele>947</ele>
        <time>2019-06-19T08:56:07Z</time>
      </trkpt>
      <trkpt lat="44.25372" lon="5.62016">
        <ele>947</ele>
        <time>2019-06-19T08:56:08Z</time>
      </trkpt>
      <trkpt lat="44.25374" lon="5.62014">
        <ele>947</ele>
        <time>2019-06-19T08:56:09Z</time>
      </trkpt>
      <trkpt lat="44.25376" lon="5.62012">
        <ele>947</ele>
        <time>2019-06-19T08:56:10Z</time>
      </trkpt>
      <trkpt lat="44.25379" lon="5.6201">
        <ele>947</ele>
        <time>2019-06-19T08:56:11Z</time>
      </trkpt>
      <trkpt lat="44.25381" lon="5.62008">
        <ele>947</ele>
        <time>2019-06-19T08:56:12Z</time>
      </trkpt>
      <trkpt lat="44.25384" lon="5.62007">
        <ele>947</ele>
        <time>2019-06-19T08:56:13Z</time>
      </trkpt>
      <trkpt lat="44.25386" lon="5.62005">
        <ele>947</ele>
        <time>2019-06-19T08:56:14Z</time>
      </trkpt>
      <trkpt lat="44.25389" lon="5.62004">
        <ele>947</ele>
        <time>2019-06-19T08:56:15Z</time>
      </trkpt>
      <trkpt lat="44.25391" lon="5.62003">
        <ele>947</ele>
        <time>2019-06-19T08:56:16Z</time>
      </trkpt>
      <trkpt lat="44.25394" lon="5.62003">
        <ele>948</ele>
        <time>2019-06-19T08:56:17Z</time>
      </trkpt>
      <trkpt lat="44.25396" lon="5.62003">
        <ele>949</ele>
        <time>2019-06-19T08:56:18Z</time>
      </trkpt>
      <trkpt lat="44.25399" lon="5.62003">
        <ele>949</ele>
        <time>2019-06-19T08:56:19Z</time>
      </trkpt>
      <trkpt lat="44.25401" lon="5.62003">
        <ele>950</ele>
        <time>2019-06-19T08:56:20Z</time>
      </trkpt>
      <trkpt lat="44.25403" lon="5.62004">
        <ele>950</ele>
        <time>2019-06-19T08:56:21Z</time>
      </trkpt>
      <trkpt lat="44.25406" lon="5.62004">
        <ele>951</ele>
        <time>2019-06-19T08:56:22Z</time>
      </trkpt>
      <trkpt lat="44.25408" lon="5.62005">
        <ele>951</ele>
        <time>2019-06-19T08:56:23Z</time>
      </trkpt>
      <trkpt lat="44.2541" lon="5.62006">
        <ele>951</ele>
        <time>2019-06-19T08:56:24Z</time>
      </trkpt>
      <trkpt lat="44.25412" lon="5.62007">
        <ele>951</ele>
        <time>2019-06-19T08:56:25Z</time>
      </trkpt>
      <trkpt lat="44.25414" lon="5.62008">
        <ele>952</ele>
        <time>2019-06-19T08:56:26Z</time>
      </trkpt>
      <trkpt lat="44.25417" lon="5.62009">
        <ele>952</ele>
        <time>2019-06-19T08:56:27Z</time>
      </trkpt>
      <trkpt lat="44.25419" lon="5.6201">
        <ele>952</ele>
        <time>2019-06-19T08:56:28Z</time>
      </trkpt>
      <trkpt lat="44.25421" lon="5.62011">
        <ele>952</ele>
        <time>2019-06-19T08:56:29Z</time>
      </trkpt>
      <trkpt lat="44.25423" lon="5.62012">
        <ele>953</ele>
        <time>2019-06-19T08:56:30Z</time>
      </trkpt>
      <trkpt lat="44.25425" lon="5.62013">
        <ele>953</ele>
        <time>2019-06-19T08:56:31Z</time>
      </trkpt>
      <trkpt lat="44.25427" lon="5.62015">
        <ele>953</ele>
        <time>2019-06-19T08:56:32Z</time>
      </trkpt>
      <trkpt lat="44.25429" lon="5.62016">
        <ele>954</ele>
        <time>2019-06-19T08:56:33Z</time>
      </trkpt>
      <trkpt lat="44.25431" lon="5.62018">
        <ele>954</ele>
        <time>2019-06-19T08:56:34Z</time>
      </trkpt>
      <trkpt lat="44.25433" lon="5.62019">
        <ele>955</ele>
        <time>2019-06-19T08:56:35Z</time>
      </trkpt>
      <trkpt lat="44.25435" lon="5.62019">
        <ele>955</ele>
        <time>2019-06-19T08:56:36Z</time>
      </trkpt>
      <trkpt lat="44.25436" lon="5.62021">
        <ele>955</ele>
        <time>2019-06-19T08:56:37Z</time>
      </trkpt>
      <trkpt lat="44.25439" lon="5.62023">
        <ele>956</ele>
        <time>2019-06-19T08:56:38Z</time>
      </trkpt>
      <trkpt lat="44.25441" lon="5.62025">
        <ele>956</ele>
        <time>2019-06-19T08:56:39Z</time>
      </trkpt>
      <trkpt lat="44.25442" lon="5.62025">
        <ele>957</ele>
        <time>2019-06-19T08:56:40Z</time>
      </trkpt>
      <trkpt lat="44.25444" lon="5.62026">
        <ele>957</ele>
        <time>2019-06-19T08:56:41Z</time>
      </trkpt>
      <trkpt lat="44.25446" lon="5.62027">
        <ele>957</ele>
        <time>2019-06-19T08:56:42Z</time>
      </trkpt>
      <trkpt lat="44.25448" lon="5.62029">
        <ele>957</ele>
        <time>2019-06-19T08:56:43Z</time>
      </trkpt>
      <trkpt lat="44.2545" lon="5.62031">
        <ele>957</ele>
        <time>2019-06-19T08:56:44Z</time>
      </trkpt>
      <trkpt lat="44.25452" lon="5.62032">
        <ele>957</ele>
        <time>2019-06-19T08:56:45Z</time>
      </trkpt>
      <trkpt lat="44.25454" lon="5.62033">
        <ele>957</ele>
        <time>2019-06-19T08:56:46Z</time>
      </trkpt>
      <trkpt lat="44.25456" lon="5.62034">
        <ele>958</ele>
        <time>2019-06-19T08:56:47Z</time>
      </trkpt>
      <trkpt lat="44.25457" lon="5.62036">
        <ele>958</ele>
        <time>2019-06-19T08:56:48Z</time>
      </trkpt>
      <trkpt lat="44.25459" lon="5.62038">
        <ele>958</ele>
        <time>2019-06-19T08:56:49Z</time>
      </trkpt>
      <trkpt lat="44.25461" lon="5.62039">
        <ele>959</ele>
        <time>2019-06-19T08:56:50Z</time>
      </trkpt>
      <trkpt lat="44.25463" lon="5.62041">
        <ele>959</ele>
        <time>2019-06-19T08:56:51Z</time>
      </trkpt>
      <trkpt lat="44.25465" lon="5.62042">
        <ele>959</ele>
        <time>2019-06-19T08:56:52Z</time>
      </trkpt>
      <trkpt lat="44.25467" lon="5.62043">
        <ele>959</ele>
        <time>2019-06-19T08:56:53Z</time>
      </trkpt>
      <trkpt lat="44.25469" lon="5.62044">
        <ele>960</ele>
        <time>2019-06-19T08:56:54Z</time>
      </trkpt>
      <trkpt lat="44.25471" lon="5.62046">
        <ele>960</ele>
        <time>2019-06-19T08:56:55Z</time>
      </trkpt>
      <trkpt lat="44.25473" lon="5.62047">
        <ele>960</ele>
        <time>2019-06-19T08:56:56Z</time>
      </trkpt>
      <trkpt lat="44.25475" lon="5.62048">
        <ele>960</ele>
        <time>2019-06-19T08:56:57Z</time>
      </trkpt>
      <trkpt lat="44.25476" lon="5.62049">
        <ele>960</ele>
        <time>2019-06-19T08:56:58Z</time>
      </trkpt>
      <trkpt lat="44.25478" lon="5.6205">
        <ele>960</ele>
        <time>2019-06-19T08:56:59Z</time>
      </trkpt>
      <trkpt lat="44.2548" lon="5.62051">
        <ele>961</ele>
        <time>2019-06-19T08:57:00Z</time>
      </trkpt>
      <trkpt lat="44.25482" lon="5.62052">
        <ele>961</ele>
        <time>2019-06-19T08:57:01Z</time>
      </trkpt>
      <trkpt lat="44.25483" lon="5.62052">
        <ele>961</ele>
        <time>2019-06-19T08:57:02Z</time>
      </trkpt>
      <trkpt lat="44.25486" lon="5.62053">
        <ele>961</ele>
        <time>2019-06-19T08:57:03Z</time>
      </trkpt>
      <trkpt lat="44.25488" lon="5.62054">
        <ele>961</ele>
        <time>2019-06-19T08:57:04Z</time>
      </trkpt>
      <trkpt lat="44.2549" lon="5.62054">
        <ele>961</ele>
        <time>2019-06-19T08:57:05Z</time>
      </trkpt>
      <trkpt lat="44.25492" lon="5.62055">
        <ele>962</ele>
        <time>2019-06-19T08:57:06Z</time>
      </trkpt>
      <trkpt lat="44.25494" lon="5.62055">
        <ele>962</ele>
        <time>2019-06-19T08:57:07Z</time>
      </trkpt>
      <trkpt lat="44.25496" lon="5.62056">
        <ele>962</ele>
        <time>2019-06-19T08:57:08Z</time>
      </trkpt>
      <trkpt lat="44.25499" lon="5.62056">
        <ele>962</ele>
        <time>2019-06-19T08:57:09Z</time>
      </trkpt>
      <trkpt lat="44.25501" lon="5.62055">
        <ele>962</ele>
        <time>2019-06-19T08:57:10Z</time>
      </trkpt>
      <trkpt lat="44.25503" lon="5.62055">
        <ele>962</ele>
        <time>2019-06-19T08:57:11Z</time>
      </trkpt>
      <trkpt lat="44.25505" lon="5.62056">
        <ele>962</ele>
        <time>2019-06-19T08:57:12Z</time>
      </trkpt>
      <trkpt lat="44.25507" lon="5.62056">
        <ele>963</ele>
        <time>2019-06-19T08:57:13Z</time>
      </trkpt>
      <trkpt lat="44.2551" lon="5.62056">
        <ele>963</ele>
        <time>2019-06-19T08:57:14Z</time>
      </trkpt>
      <trkpt lat="44.25512" lon="5.62056">
        <ele>963</ele>
        <time>2019-06-19T08:57:15Z</time>
      </trkpt>
      <trkpt lat="44.25514" lon="5.62056">
        <ele>963</ele>
        <time>2019-06-19T08:57:16Z</time>
      </trkpt>
      <trkpt lat="44.25516" lon="5.62056">
        <ele>963</ele>
        <time>2019-06-19T08:57:17Z</time>
      </trkpt>
      <trkpt lat="44.25518" lon="5.62056">
        <ele>963</ele>
        <time>2019-06-19T08:57:18Z</time>
      </trkpt>
      <trkpt lat="44.2552" lon="5.62056">
        <ele>963</ele>
        <time>2019-06-19T08:57:19Z</time>
      </trkpt>
      <trkpt lat="44.25522" lon="5.62056">
        <ele>963</ele>
        <time>2019-06-19T08:57:20Z</time>
      </trkpt>
      <trkpt lat="44.25524" lon="5.62055">
        <ele>964</ele>
        <time>2019-06-19T08:57:21Z</time>
      </trkpt>
      <trkpt lat="44.25526" lon="5.62055">
        <ele>964</ele>
        <time>2019-06-19T08:57:22Z</time>
      </trkpt>
      <trkpt lat="44.25528" lon="5.62054">
        <ele>964</ele>
        <time>2019-06-19T08:57:23Z</time>
      </trkpt>
      <trkpt lat="44.2553" lon="5.62054">
        <ele>964</ele>
        <time>2019-06-19T08:57:24Z</time>
      </trkpt>
      <trkpt lat="44.25532" lon="5.62055">
        <ele>964</ele>
        <time>2019-06-19T08:57:25Z</time>
      </trkpt>
      <trkpt lat="44.25534" lon="5.62055">
        <ele>964</ele>
        <time>2019-06-19T08:57:26Z</time>
      </trkpt>
      <trkpt lat="44.25536" lon="5.62055">
        <ele>964</ele>
        <time>2019-06-19T08:57:27Z</time>
      </trkpt>
      <trkpt lat="44.25538" lon="5.62055">
        <ele>964</ele>
        <time>2019-06-19T08:57:28Z</time>
      </trkpt>
      <trkpt lat="44.2554" lon="5.62055">
        <ele>965</ele>
        <time>2019-06-19T08:57:29Z</time>
      </trkpt>
      <trkpt lat="44.25543" lon="5.62055">
        <ele>965</ele>
        <time>2019-06-19T08:57:30Z</time>
      </trkpt>
      <trkpt lat="44.25545" lon="5.62055">
        <ele>965</ele>
        <time>2019-06-19T08:57:31Z</time>
      </trkpt>
      <trkpt lat="44.25547" lon="5.62055">
        <ele>965</ele>
        <time>2019-06-19T08:57:32Z</time>
      </trkpt>
      <trkpt lat="44.25549" lon="5.62054">
        <ele>965</ele>
        <time>2019-06-19T08:57:33Z</time>
      </trkpt>
      <trkpt lat="44.25552" lon="5.62054">
        <ele>965</ele>
        <time>2019-06-19T08:57:34Z</time>
      </trkpt>
      <trkpt lat="44.25554" lon="5.62054">
        <ele>966</ele>
        <time>2019-06-19T08:57:35Z</time>
      </trkpt>
      <trkpt lat="44.25556" lon="5.62053">
        <ele>966</ele>
        <time>2019-06-19T08:57:36Z</time>
      </trkpt>
      <trkpt lat="44.25557" lon="5.62051">
        <ele>966</ele>
        <time>2019-06-19T08:57:37Z</time>
      </trkpt>
      <trkpt lat="44.25559" lon="5.62049">
        <ele>966</ele>
        <time>2019-06-19T08:57:38Z</time>
      </trkpt>
      <trkpt lat="44.25561" lon="5.62047">
        <ele>966</ele>
        <time>2019-06-19T08:57:39Z</time>
      </trkpt>
      <trkpt lat="44.25562" lon="5.62045">
        <ele>966</ele>
        <time>2019-06-19T08:57:40Z</time>
      </trkpt>
      <trkpt lat="44.25563" lon="5.62042">
        <ele>967</ele>
        <time>2019-06-19T08:57:41Z</time>
      </trkpt>
      <trkpt lat="44.25563" lon="5.62038">
        <ele>967</ele>
        <time>2019-06-19T08:57:42Z</time>
      </trkpt>
      <trkpt lat="44.25563" lon="5.62035">
        <ele>967</ele>
        <time>2019-06-19T08:57:43Z</time>
      </trkpt>
      <trkpt lat="44.25562" lon="5.62032">
        <ele>968</ele>
        <time>2019-06-19T08:57:44Z</time>
      </trkpt>
      <trkpt lat="44.2556" lon="5.62029">
        <ele>968</ele>
        <time>2019-06-19T08:57:45Z</time>
      </trkpt>
      <trkpt lat="44.25558" lon="5.62027">
        <ele>969</ele>
        <time>2019-06-19T08:57:46Z</time>
      </trkpt>
      <trkpt lat="44.25555" lon="5.62027">
        <ele>969</ele>
        <time>2019-06-19T08:57:47Z</time>
      </trkpt>
      <trkpt lat="44.25552" lon="5.62026">
        <ele>970</ele>
        <time>2019-06-19T08:57:48Z</time>
      </trkpt>
      <trkpt lat="44.25549" lon="5.62026">
        <ele>970</ele>
        <time>2019-06-19T08:57:49Z</time>
      </trkpt>
      <trkpt lat="44.25546" lon="5.62026">
        <ele>971</ele>
        <time>2019-06-19T08:57:50Z</time>
      </trkpt>
      <trkpt lat="44.25543" lon="5.62026">
        <ele>971</ele>
        <time>2019-06-19T08:57:51Z</time>
      </trkpt>
      <trkpt lat="44.2554" lon="5.62027">
        <ele>972</ele>
        <time>2019-06-19T08:57:52Z</time>
      </trkpt>
      <trkpt lat="44.25537" lon="5.62027">
        <ele>972</ele>
        <time>2019-06-19T08:57:53Z</time>
      </trkpt>
      <trkpt lat="44.25534" lon="5.62027">
        <ele>973</ele>
        <time>2019-06-19T08:57:54Z</time>
      </trkpt>
      <trkpt lat="44.25531" lon="5.62028">
        <ele>973</ele>
        <time>2019-06-19T08:57:55Z</time>
      </trkpt>
      <trkpt lat="44.25528" lon="5.62027">
        <ele>974</ele>
        <time>2019-06-19T08:57:56Z</time>
      </trkpt>
      <trkpt lat="44.25526" lon="5.62027">
        <ele>974</ele>
        <time>2019-06-19T08:57:57Z</time>
      </trkpt>
      <trkpt lat="44.25523" lon="5.62026">
        <ele>974</ele>
        <time>2019-06-19T08:57:58Z</time>
      </trkpt>
      <trkpt lat="44.25521" lon="5.62026">
        <ele>974</ele>
        <time>2019-06-19T08:57:59Z</time>
      </trkpt>
      <trkpt lat="44.25519" lon="5.62025">
        <ele>975</ele>
        <time>2019-06-19T08:58:00Z</time>
      </trkpt>
      <trkpt lat="44.25516" lon="5.62025">
        <ele>975</ele>
        <time>2019-06-19T08:58:01Z</time>
      </trkpt>
      <trkpt lat="44.25514" lon="5.62024">
        <ele>975</ele>
        <time>2019-06-19T08:58:02Z</time>
      </trkpt>
      <trkpt lat="44.25512" lon="5.62023">
        <ele>975</ele>
        <time>2019-06-19T08:58:03Z</time>
      </trkpt>
      <trkpt lat="44.2551" lon="5.62022">
        <ele>975</ele>
        <time>2019-06-19T08:58:04Z</time>
      </trkpt>
      <trkpt lat="44.25507" lon="5.62022">
        <ele>976</ele>
        <time>2019-06-19T08:58:05Z</time>
      </trkpt>
      <trkpt lat="44.25505" lon="5.62022">
        <ele>976</ele>
        <time>2019-06-19T08:58:06Z</time>
      </trkpt>
      <trkpt lat="44.25503" lon="5.62022">
        <ele>976</ele>
        <time>2019-06-19T08:58:07Z</time>
      </trkpt>
      <trkpt lat="44.25501" lon="5.62021">
        <ele>977</ele>
        <time>2019-06-19T08:58:08Z</time>
      </trkpt>
      <trkpt lat="44.25499" lon="5.6202">
        <ele>977</ele>
        <time>2019-06-19T08:58:09Z</time>
      </trkpt>
      <trkpt lat="44.25498" lon="5.62017">
        <ele>977</ele>
        <time>2019-06-19T08:58:10Z</time>
      </trkpt>
      <trkpt lat="44.25497" lon="5.62015">
        <ele>978</ele>
        <time>2019-06-19T08:58:11Z</time>
      </trkpt>
      <trkpt lat="44.25497" lon="5.62012">
        <ele>978</ele>
        <time>2019-06-19T08:58:12Z</time>
      </trkpt>
      <trkpt lat="44.25497" lon="5.62009">
        <ele>978</ele>
        <time>2019-06-19T08:58:13Z</time>
      </trkpt>
      <trkpt lat="44.25498" lon="5.62007">
        <ele>978</ele>
        <time>2019-06-19T08:58:14Z</time>
      </trkpt>
      <trkpt lat="44.255" lon="5.62005">
        <ele>978</ele>
        <time>2019-06-19T08:58:15Z</time>
      </trkpt>
      <trkpt lat="44.25502" lon="5.62004">
        <ele>978</ele>
        <time>2019-06-19T08:58:16Z</time>
      </trkpt>
      <trkpt lat="44.25504" lon="5.62002">
        <ele>979</ele>
        <time>2019-06-19T08:58:17Z</time>
      </trkpt>
      <trkpt lat="44.25507" lon="5.62">
        <ele>979</ele>
        <time>2019-06-19T08:58:18Z</time>
      </trkpt>
      <trkpt lat="44.2551" lon="5.62">
        <ele>979</ele>
        <time>2019-06-19T08:58:19Z</time>
      </trkpt>
      <trkpt lat="44.25513" lon="5.62">
        <ele>979</ele>
        <time>2019-06-19T08:58:20Z</time>
      </trkpt>
      <trkpt lat="44.25516" lon="5.62001">
        <ele>979</ele>
        <time>2019-06-19T08:58:21Z</time>
      </trkpt>
      <trkpt lat="44.25518" lon="5.62002">
        <ele>979</ele>
        <time>2019-06-19T08:58:22Z</time>
      </trkpt>
      <trkpt lat="44.25521" lon="5.62003">
        <ele>980</ele>
        <time>2019-06-19T08:58:23Z</time>
      </trkpt>
      <trkpt lat="44.25524" lon="5.62004">
        <ele>980</ele>
        <time>2019-06-19T08:58:24Z</time>
      </trkpt>
      <trkpt lat="44.25526" lon="5.62004">
        <ele>980</ele>
        <time>2019-06-19T08:58:25Z</time>
      </trkpt>
      <trkpt lat="44.25529" lon="5.62005">
        <ele>981</ele>
        <time>2019-06-19T08:58:26Z</time>
      </trkpt>
      <trkpt lat="44.25531" lon="5.62005">
        <ele>981</ele>
        <time>2019-06-19T08:58:27Z</time>
      </trkpt>
      <trkpt lat="44.25534" lon="5.62006">
        <ele>981</ele>
        <time>2019-06-19T08:58:28Z</time>
      </trkpt>
      <trkpt lat="44.25536" lon="5.62006">
        <ele>981</ele>
        <time>2019-06-19T08:58:29Z</time>
      </trkpt>
      <trkpt lat="44.25538" lon="5.62005">
        <ele>981</ele>
        <time>2019-06-19T08:58:30Z</time>
      </trkpt>
      <trkpt lat="44.2554" lon="5.62005">
        <ele>981</ele>
        <time>2019-06-19T08:58:31Z</time>
      </trkpt>
      <trkpt lat="44.25542" lon="5.62004">
        <ele>981</ele>
        <time>2019-06-19T08:58:32Z</time>
      </trkpt>
      <trkpt lat="44.25544" lon="5.62004">
        <ele>981</ele>
        <time>2019-06-19T08:58:33Z</time>
      </trkpt>
      <trkpt lat="44.25547" lon="5.62003">
        <ele>981</ele>
        <time>2019-06-19T08:58:34Z</time>
      </trkpt>
      <trkpt lat="44.25549" lon="5.62003">
        <ele>981</ele>
        <time>2019-06-19T08:58:35Z</time>
      </trkpt>
      <trkpt lat="44.2555" lon="5.62004">
        <ele>981</ele>
        <time>2019-06-19T08:58:36Z</time>
      </trkpt>
      <trkpt lat="44.25553" lon="5.62003">
        <ele>981</ele>
        <time>2019-06-19T08:58:37Z</time>
      </trkpt>
      <trkpt lat="44.25555" lon="5.62003">
        <ele>981</ele>
        <time>2019-06-19T08:58:38Z</time>
      </trkpt>
      <trkpt lat="44.25557" lon="5.62002">
        <ele>981</ele>
        <time>2019-06-19T08:58:39Z</time>
      </trkpt>
      <trkpt lat="44.25559" lon="5.62001">
        <ele>981</ele>
        <time>2019-06-19T08:58:40Z</time>
      </trkpt>
      <trkpt lat="44.25561" lon="5.62">
        <ele>981</ele>
        <time>2019-06-19T08:58:41Z</time>
      </trkpt>
      <trkpt lat="44.25563" lon="5.62">
        <ele>981</ele>
        <time>2019-06-19T08:58:42Z</time>
      </trkpt>
      <trkpt lat="44.25565" lon="5.61999">
        <ele>981</ele>
        <time>2019-06-19T08:58:43Z</time>
      </trkpt>
      <trkpt lat="44.25568" lon="5.61999">
        <ele>981</ele>
        <time>2019-06-19T08:58:44Z</time>
      </trkpt>
      <trkpt lat="44.2557" lon="5.61999">
        <ele>981</ele>
        <time>2019-06-19T08:58:45Z</time>
      </trkpt>
      <trkpt lat="44.25572" lon="5.61998">
        <ele>981</ele>
        <time>2019-06-19T08:58:46Z</time>
      </trkpt>
      <trkpt lat="44.25574" lon="5.61997">
        <ele>981</ele>
        <time>2019-06-19T08:58:47Z</time>
      </trkpt>
      <trkpt lat="44.25577" lon="5.61997">
        <ele>981</ele>
        <time>2019-06-19T08:58:48Z</time>
      </trkpt>
      <trkpt lat="44.25579" lon="5.61996">
        <ele>981</ele>
        <time>2019-06-19T08:58:49Z</time>
      </trkpt>
      <trkpt lat="44.25581" lon="5.61996">
        <ele>981</ele>
        <time>2019-06-19T08:58:50Z</time>
      </trkpt>
      <trkpt lat="44.25583" lon="5.61995">
        <ele>981</ele>
        <time>2019-06-19T08:58:51Z</time>
      </trkpt>
      <trkpt lat="44.25585" lon="5.61995">
        <ele>981</ele>
        <time>2019-06-19T08:58:52Z</time>
      </trkpt>
      <trkpt lat="44.25587" lon="5.61995">
        <ele>981</ele>
        <time>2019-06-19T08:58:53Z</time>
      </trkpt>
      <trkpt lat="44.25589" lon="5.61995">
        <ele>981</ele>
        <time>2019-06-19T08:58:54Z</time>
      </trkpt>
      <trkpt lat="44.25591" lon="5.61995">
        <ele>981</ele>
        <time>2019-06-19T08:58:55Z</time>
      </trkpt>
      <trkpt lat="44.25593" lon="5.61995">
        <ele>981</ele>
        <time>2019-06-19T08:58:56Z</time>
      </trkpt>
      <trkpt lat="44.25595" lon="5.61995">
        <ele>981</ele>
        <time>2019-06-19T08:58:57Z</time>
      </trkpt>
      <trkpt lat="44.25597" lon="5.61995">
        <ele>981</ele>
        <time>2019-06-19T08:58:58Z</time>
      </trkpt>
      <trkpt lat="44.256" lon="5.61995">
        <ele>981</ele>
        <time>2019-06-19T08:58:59Z</time>
      </trkpt>
      <trkpt lat="44.25602" lon="5.61996">
        <ele>981</ele>
        <time>2019-06-19T08:59:00Z</time>
      </trkpt>
      <trkpt lat="44.25604" lon="5.61996">
        <ele>981</ele>
        <time>2019-06-19T08:59:01Z</time>
      </trkpt>
      <trkpt lat="44.25606" lon="5.61997">
        <ele>981</ele>
        <time>2019-06-19T08:59:02Z</time>
      </trkpt>
      <trkpt lat="44.25608" lon="5.61998">
        <ele>981</ele>
        <time>2019-06-19T08:59:03Z</time>
      </trkpt>
      <trkpt lat="44.2561" lon="5.61998">
        <ele>981</ele>
        <time>2019-06-19T08:59:04Z</time>
      </trkpt>
      <trkpt lat="44.25612" lon="5.61999">
        <ele>981</ele>
        <time>2019-06-19T08:59:05Z</time>
      </trkpt>
      <trkpt lat="44.25614" lon="5.61999">
        <ele>982</ele>
        <time>2019-06-19T08:59:06Z</time>
      </trkpt>
      <trkpt lat="44.25616" lon="5.62">
        <ele>982</ele>
        <time>2019-06-19T08:59:07Z</time>
      </trkpt>
      <trkpt lat="44.25618" lon="5.62">
        <ele>982</ele>
        <time>2019-06-19T08:59:08Z</time>
      </trkpt>
      <trkpt lat="44.2562" lon="5.62">
        <ele>982</ele>
        <time>2019-06-19T08:59:09Z</time>
      </trkpt>
      <trkpt lat="44.25622" lon="5.62001">
        <ele>982</ele>
        <time>2019-06-19T08:59:10Z</time>
      </trkpt>
      <trkpt lat="44.25624" lon="5.62001">
        <ele>982</ele>
        <time>2019-06-19T08:59:11Z</time>
      </trkpt>
      <trkpt lat="44.25626" lon="5.62001">
        <ele>982</ele>
        <time>2019-06-19T08:59:12Z</time>
      </trkpt>
      <trkpt lat="44.25628" lon="5.62002">
        <ele>982</ele>
        <time>2019-06-19T08:59:13Z</time>
      </trkpt>
      <trkpt lat="44.2563" lon="5.62001">
        <ele>982</ele>
        <time>2019-06-19T08:59:14Z</time>
      </trkpt>
      <trkpt lat="44.25632" lon="5.62001">
        <ele>982</ele>
        <time>2019-06-19T08:59:15Z</time>
      </trkpt>
      <trkpt lat="44.25635" lon="5.62">
        <ele>982</ele>
        <time>2019-06-19T08:59:16Z</time>
      </trkpt>
      <trkpt lat="44.25637" lon="5.61999">
        <ele>982</ele>
        <time>2019-06-19T08:59:17Z</time>
      </trkpt>
      <trkpt lat="44.25639" lon="5.61998">
        <ele>982</ele>
        <time>2019-06-19T08:59:18Z</time>
      </trkpt>
      <trkpt lat="44.25641" lon="5.61998">
        <ele>982</ele>
        <time>2019-06-19T08:59:19Z</time>
      </trkpt>
      <trkpt lat="44.25644" lon="5.61998">
        <ele>982</ele>
        <time>2019-06-19T08:59:20Z</time>
      </trkpt>
      <trkpt lat="44.25646" lon="5.61997">
        <ele>982</ele>
        <time>2019-06-19T08:59:21Z</time>
      </trkpt>
      <trkpt lat="44.25648" lon="5.61996">
        <ele>982</ele>
        <time>2019-06-19T08:59:22Z</time>
      </trkpt>
      <trkpt lat="44.2565" lon="5.61996">
        <ele>982</ele>
        <time>2019-06-19T08:59:23Z</time>
      </trkpt>
      <trkpt lat="44.25652" lon="5.61995">
        <ele>983</ele>
        <time>2019-06-19T08:59:24Z</time>
      </trkpt>
      <trkpt lat="44.25655" lon="5.61994">
        <ele>983</ele>
        <time>2019-06-19T08:59:25Z</time>
      </trkpt>
      <trkpt lat="44.25657" lon="5.61994">
        <ele>983</ele>
        <time>2019-06-19T08:59:26Z</time>
      </trkpt>
      <trkpt lat="44.25659" lon="5.61993">
        <ele>983</ele>
        <time>2019-06-19T08:59:27Z</time>
      </trkpt>
      <trkpt lat="44.25662" lon="5.61993">
        <ele>983</ele>
        <time>2019-06-19T08:59:28Z</time>
      </trkpt>
      <trkpt lat="44.25664" lon="5.61992">
        <ele>984</ele>
        <time>2019-06-19T08:59:29Z</time>
      </trkpt>
      <trkpt lat="44.25666" lon="5.61991">
        <ele>984</ele>
        <time>2019-06-19T08:59:30Z</time>
      </trkpt>
      <trkpt lat="44.25669" lon="5.61991">
        <ele>984</ele>
        <time>2019-06-19T08:59:31Z</time>
      </trkpt>
      <trkpt lat="44.25671" lon="5.6199">
        <ele>984</ele>
        <time>2019-06-19T08:59:32Z</time>
      </trkpt>
      <trkpt lat="44.25673" lon="5.6199">
        <ele>984</ele>
        <time>2019-06-19T08:59:33Z</time>
      </trkpt>
      <trkpt lat="44.25675" lon="5.61989">
        <ele>985</ele>
        <time>2019-06-19T08:59:34Z</time>
      </trkpt>
      <trkpt lat="44.25677" lon="5.61988">
        <ele>985</ele>
        <time>2019-06-19T08:59:35Z</time>
      </trkpt>
      <trkpt lat="44.25679" lon="5.61988">
        <ele>985</ele>
        <time>2019-06-19T08:59:36Z</time>
      </trkpt>
      <trkpt lat="44.25682" lon="5.61987">
        <ele>985</ele>
        <time>2019-06-19T08:59:37Z</time>
      </trkpt>
      <trkpt lat="44.25683" lon="5.61985">
        <ele>986</ele>
        <time>2019-06-19T08:59:38Z</time>
      </trkpt>
      <trkpt lat="44.25686" lon="5.61984">
        <ele>986</ele>
        <time>2019-06-19T08:59:39Z</time>
      </trkpt>
      <trkpt lat="44.25687" lon="5.61983">
        <ele>986</ele>
        <time>2019-06-19T08:59:40Z</time>
      </trkpt>
      <trkpt lat="44.25689" lon="5.61983">
        <ele>986</ele>
        <time>2019-06-19T08:59:41Z</time>
      </trkpt>
      <trkpt lat="44.25692" lon="5.61983">
        <ele>986</ele>
        <time>2019-06-19T08:59:42Z</time>
      </trkpt>
      <trkpt lat="44.25694" lon="5.61983">
        <ele>987</ele>
        <time>2019-06-19T08:59:43Z</time>
      </trkpt>
      <trkpt lat="44.25696" lon="5.61982">
        <ele>987</ele>
        <time>2019-06-19T08:59:44Z</time>
      </trkpt>
      <trkpt lat="44.25698" lon="5.61981">
        <ele>987</ele>
        <time>2019-06-19T08:59:45Z</time>
      </trkpt>
      <trkpt lat="44.257" lon="5.6198">
        <ele>987</ele>
        <time>2019-06-19T08:59:46Z</time>
      </trkpt>
      <trkpt lat="44.25703" lon="5.6198">
        <ele>987</ele>
        <time>2019-06-19T08:59:47Z</time>
      </trkpt>
      <trkpt lat="44.25705" lon="5.61979">
        <ele>988</ele>
        <time>2019-06-19T08:59:48Z</time>
      </trkpt>
      <trkpt lat="44.25708" lon="5.61978">
        <ele>988</ele>
        <time>2019-06-19T08:59:49Z</time>
      </trkpt>
      <trkpt lat="44.2571" lon="5.61977">
        <ele>989</ele>
        <time>2019-06-19T08:59:50Z</time>
      </trkpt>
      <trkpt lat="44.25713" lon="5.61976">
        <ele>989</ele>
        <time>2019-06-19T08:59:51Z</time>
      </trkpt>
      <trkpt lat="44.25715" lon="5.61975">
        <ele>990</ele>
        <time>2019-06-19T08:59:52Z</time>
      </trkpt>
      <trkpt lat="44.25717" lon="5.61974">
        <ele>990</ele>
        <time>2019-06-19T08:59:53Z</time>
      </trkpt>
      <trkpt lat="44.25719" lon="5.61973">
        <ele>990</ele>
        <time>2019-06-19T08:59:54Z</time>
      </trkpt>
      <trkpt lat="44.25722" lon="5.61972">
        <ele>990</ele>
        <time>2019-06-19T08:59:55Z</time>
      </trkpt>
      <trkpt lat="44.25724" lon="5.61971">
        <ele>991</ele>
        <time>2019-06-19T08:59:56Z</time>
      </trkpt>
      <trkpt lat="44.25726" lon="5.6197">
        <ele>991</ele>
        <time>2019-06-19T08:59:57Z</time>
      </trkpt>
      <trkpt lat="44.25728" lon="5.61969">
        <ele>991</ele>
        <time>2019-06-19T08:59:58Z</time>
      </trkpt>
      <trkpt lat="44.2573" lon="5.61969">
        <ele>991</ele>
        <time>2019-06-19T08:59:59Z</time>
      </trkpt>
      <trkpt lat="44.25732" lon="5.6197">
        <ele>991</ele>
        <time>2019-06-19T09:00:00Z</time>
      </trkpt>
      <trkpt lat="44.25735" lon="5.61971">
        <ele>991</ele>
        <time>2019-06-19T09:00:01Z</time>
      </trkpt>
      <trkpt lat="44.25737" lon="5.61973">
        <ele>991</ele>
        <time>2019-06-19T09:00:02Z</time>
      </trkpt>
      <trkpt lat="44.25739" lon="5.61975">
        <ele>991</ele>
        <time>2019-06-19T09:00:03Z</time>
      </trkpt>
      <trkpt lat="44.2574" lon="5.61979">
        <ele>991</ele>
        <time>2019-06-19T09:00:04Z</time>
      </trkpt>
      <trkpt lat="44.25741" lon="5.61982">
        <ele>991</ele>
        <time>2019-06-19T09:00:05Z</time>
      </trkpt>
      <trkpt lat="44.25741" lon="5.61985">
        <ele>991</ele>
        <time>2019-06-19T09:00:06Z</time>
      </trkpt>
      <trkpt lat="44.25741" lon="5.61988">
        <ele>992</ele>
        <time>2019-06-19T09:00:07Z</time>
      </trkpt>
      <trkpt lat="44.25741" lon="5.61991">
        <ele>992</ele>
        <time>2019-06-19T09:00:08Z</time>
      </trkpt>
      <trkpt lat="44.25739" lon="5.61994">
        <ele>993</ele>
        <time>2019-06-19T09:00:09Z</time>
      </trkpt>
      <trkpt lat="44.25738" lon="5.61997">
        <ele>993</ele>
        <time>2019-06-19T09:00:10Z</time>
      </trkpt>
      <trkpt lat="44.25736" lon="5.62">
        <ele>994</ele>
        <time>2019-06-19T09:00:11Z</time>
      </trkpt>
      <trkpt lat="44.25733" lon="5.62002">
        <ele>994</ele>
        <time>2019-06-19T09:00:12Z</time>
      </trkpt>
      <trkpt lat="44.25731" lon="5.62003">
        <ele>995</ele>
        <time>2019-06-19T09:00:13Z</time>
      </trkpt>
      <trkpt lat="44.25728" lon="5.62006">
        <ele>996</ele>
        <time>2019-06-19T09:00:14Z</time>
      </trkpt>
      <trkpt lat="44.25727" lon="5.62008">
        <ele>996</ele>
        <time>2019-06-19T09:00:15Z</time>
      </trkpt>
      <trkpt lat="44.25726" lon="5.6201">
        <ele>997</ele>
        <time>2019-06-19T09:00:16Z</time>
      </trkpt>
      <trkpt lat="44.25725" lon="5.62011">
        <ele>998</ele>
        <time>2019-06-19T09:00:17Z</time>
      </trkpt>
      <trkpt lat="44.25724" lon="5.62013">
        <ele>998</ele>
        <time>2019-06-19T09:00:18Z</time>
      </trkpt>
      <trkpt lat="44.25722" lon="5.62015">
        <ele>999</ele>
        <time>2019-06-19T09:00:19Z</time>
      </trkpt>
      <trkpt lat="44.25721" lon="5.62017">
        <ele>999</ele>
        <time>2019-06-19T09:00:20Z</time>
      </trkpt>
      <trkpt lat="44.2572" lon="5.62019">
        <ele>999</ele>
        <time>2019-06-19T09:00:21Z</time>
      </trkpt>
      <trkpt lat="44.25719" lon="5.62022">
        <ele>1000</ele>
        <time>2019-06-19T09:00:22Z</time>
      </trkpt>
      <trkpt lat="44.25717" lon="5.62024">
        <ele>1000</ele>
        <time>2019-06-19T09:00:23Z</time>
      </trkpt>
      <trkpt lat="44.25716" lon="5.62027">
        <ele>1000</ele>
        <time>2019-06-19T09:00:24Z</time>
      </trkpt>
      <trkpt lat="44.25715" lon="5.62029">
        <ele>1001</ele>
        <time>2019-06-19T09:00:25Z</time>
      </trkpt>
      <trkpt lat="44.25714" lon="5.62032">
        <ele>1001</ele>
        <time>2019-06-19T09:00:26Z</time>
      </trkpt>
      <trkpt lat="44.25713" lon="5.62035">
        <ele>1001</ele>
        <time>2019-06-19T09:00:27Z</time>
      </trkpt>
      <trkpt lat="44.25712" lon="5.62037">
        <ele>1001</ele>
        <time>2019-06-19T09:00:28Z</time>
      </trkpt>
      <trkpt lat="44.25711" lon="5.62039">
        <ele>1002</ele>
        <time>2019-06-19T09:00:29Z</time>
      </trkpt>
      <trkpt lat="44.25709" lon="5.62042">
        <ele>1002</ele>
        <time>2019-06-19T09:00:30Z</time>
      </trkpt>
      <trkpt lat="44.25707" lon="5.62044">
        <ele>1002</ele>
        <time>2019-06-19T09:00:31Z</time>
      </trkpt>
      <trkpt lat="44.25706" lon="5.62046">
        <ele>1002</ele>
        <time>2019-06-19T09:00:32Z</time>
      </trkpt>
      <trkpt lat="44.25706" lon="5.62049">
        <ele>1003</ele>
        <time>2019-06-19T09:00:33Z</time>
      </trkpt>
      <trkpt lat="44.25706" lon="5.62052">
        <ele>1003</ele>
        <time>2019-06-19T09:00:34Z</time>
      </trkpt>
      <trkpt lat="44.25705" lon="5.62055">
        <ele>1003</ele>
        <time>2019-06-19T09:00:35Z</time>
      </trkpt>
      <trkpt lat="44.25705" lon="5.62057">
        <ele>1004</ele>
        <time>2019-06-19T09:00:36Z</time>
      </trkpt>
      <trkpt lat="44.25705" lon="5.6206">
        <ele>1004</ele>
        <time>2019-06-19T09:00:37Z</time>
      </trkpt>
      <trkpt lat="44.25704" lon="5.62063">
        <ele>1005</ele>
        <time>2019-06-19T09:00:38Z</time>
      </trkpt>
      <trkpt lat="44.25704" lon="5.62066">
        <ele>1005</ele>
        <time>2019-06-19T09:00:39Z</time>
      </trkpt>
      <trkpt lat="44.25703" lon="5.6207">
        <ele>1005</ele>
        <time>2019-06-19T09:00:40Z</time>
      </trkpt>
      <trkpt lat="44.25703" lon="5.62073">
        <ele>1005</ele>
        <time>2019-06-19T09:00:41Z</time>
      </trkpt>
      <trkpt lat="44.25703" lon="5.62076">
        <ele>1006</ele>
        <time>2019-06-19T09:00:42Z</time>
      </trkpt>
      <trkpt lat="44.25702" lon="5.6208">
        <ele>1006</ele>
        <time>2019-06-19T09:00:43Z</time>
      </trkpt>
      <trkpt lat="44.25702" lon="5.62083">
        <ele>1006</ele>
        <time>2019-06-19T09:00:44Z</time>
      </trkpt>
      <trkpt lat="44.25701" lon="5.62086">
        <ele>1006</ele>
        <time>2019-06-19T09:00:45Z</time>
      </trkpt>
      <trkpt lat="44.257" lon="5.62089">
        <ele>1007</ele>
        <time>2019-06-19T09:00:46Z</time>
      </trkpt>
      <trkpt lat="44.25699" lon="5.62092">
        <ele>1007</ele>
        <time>2019-06-19T09:00:47Z</time>
      </trkpt>
      <trkpt lat="44.25698" lon="5.62094">
        <ele>1007</ele>
        <time>2019-06-19T09:00:48Z</time>
      </trkpt>
      <trkpt lat="44.25697" lon="5.62097">
        <ele>1007</ele>
        <time>2019-06-19T09:00:49Z</time>
      </trkpt>
      <trkpt lat="44.25696" lon="5.621">
        <ele>1008</ele>
        <time>2019-06-19T09:00:50Z</time>
      </trkpt>
      <trkpt lat="44.25695" lon="5.62102">
        <ele>1008</ele>
        <time>2019-06-19T09:00:51Z</time>
      </trkpt>
      <trkpt lat="44.25694" lon="5.62105">
        <ele>1008</ele>
        <time>2019-06-19T09:00:52Z</time>
      </trkpt>
      <trkpt lat="44.25694" lon="5.62108">
        <ele>1009</ele>
        <time>2019-06-19T09:00:53Z</time>
      </trkpt>
      <trkpt lat="44.25693" lon="5.62111">
        <ele>1009</ele>
        <time>2019-06-19T09:00:54Z</time>
      </trkpt>
      <trkpt lat="44.25692" lon="5.62114">
        <ele>1009</ele>
        <time>2019-06-19T09:00:55Z</time>
      </trkpt>
      <trkpt lat="44.25691" lon="5.62116">
        <ele>1010</ele>
        <time>2019-06-19T09:00:56Z</time>
      </trkpt>
      <trkpt lat="44.2569" lon="5.62119">
        <ele>1010</ele>
        <time>2019-06-19T09:00:57Z</time>
      </trkpt>
      <trkpt lat="44.2569" lon="5.62122">
        <ele>1011</ele>
        <time>2019-06-19T09:00:58Z</time>
      </trkpt>
      <trkpt lat="44.25689" lon="5.62125">
        <ele>1011</ele>
        <time>2019-06-19T09:00:59Z</time>
      </trkpt>
      <trkpt lat="44.25689" lon="5.62127">
        <ele>1011</ele>
        <time>2019-06-19T09:01:00Z</time>
      </trkpt>
      <trkpt lat="44.25689" lon="5.6213">
        <ele>1011</ele>
        <time>2019-06-19T09:01:01Z</time>
      </trkpt>
      <trkpt lat="44.25688" lon="5.62133">
        <ele>1012</ele>
        <time>2019-06-19T09:01:02Z</time>
      </trkpt>
      <trkpt lat="44.25688" lon="5.62136">
        <ele>1012</ele>
        <time>2019-06-19T09:01:03Z</time>
      </trkpt>
      <trkpt lat="44.25688" lon="5.62139">
        <ele>1012</ele>
        <time>2019-06-19T09:01:04Z</time>
      </trkpt>
      <trkpt lat="44.25688" lon="5.62142">
        <ele>1012</ele>
        <time>2019-06-19T09:01:05Z</time>
      </trkpt>
      <trkpt lat="44.25687" lon="5.62145">
        <ele>1013</ele>
        <time>2019-06-19T09:01:06Z</time>
      </trkpt>
      <trkpt lat="44.25687" lon="5.62148">
        <ele>1013</ele>
        <time>2019-06-19T09:01:07Z</time>
      </trkpt>
      <trkpt lat="44.25687" lon="5.62151">
        <ele>1013</ele>
        <time>2019-06-19T09:01:08Z</time>
      </trkpt>
      <trkpt lat="44.25687" lon="5.62154">
        <ele>1013</ele>
        <time>2019-06-19T09:01:09Z</time>
      </trkpt>
      <trkpt lat="44.25687" lon="5.62157">
        <ele>1013</ele>
        <time>2019-06-19T09:01:10Z</time>
      </trkpt>
      <trkpt lat="44.25687" lon="5.62161">
        <ele>1014</ele>
        <time>2019-06-19T09:01:11Z</time>
      </trkpt>
      <trkpt lat="44.25686" lon="5.62164">
        <ele>1014</ele>
        <time>2019-06-19T09:01:12Z</time>
      </trkpt>
      <trkpt lat="44.25686" lon="5.62167">
        <ele>1014</ele>
        <time>2019-06-19T09:01:13Z</time>
      </trkpt>
      <trkpt lat="44.25686" lon="5.6217">
        <ele>1014</ele>
        <time>2019-06-19T09:01:14Z</time>
      </trkpt>
      <trkpt lat="44.25685" lon="5.62173">
        <ele>1015</ele>
        <time>2019-06-19T09:01:15Z</time>
      </trkpt>
      <trkpt lat="44.25684" lon="5.62175">
        <ele>1015</ele>
        <time>2019-06-19T09:01:16Z</time>
      </trkpt>
      <trkpt lat="44.25684" lon="5.62178">
        <ele>1015</ele>
        <time>2019-06-19T09:01:17Z</time>
      </trkpt>
      <trkpt lat="44.25683" lon="5.62181">
        <ele>1016</ele>
        <time>2019-06-19T09:01:18Z</time>
      </trkpt>
      <trkpt lat="44.25682" lon="5.62184">
        <ele>1016</ele>
        <time>2019-06-19T09:01:19Z</time>
      </trkpt>
      <trkpt lat="44.25681" lon="5.62188">
        <ele>1017</ele>
        <time>2019-06-19T09:01:20Z</time>
      </trkpt>
      <trkpt lat="44.25679" lon="5.6219">
        <ele>1017</ele>
        <time>2019-06-19T09:01:21Z</time>
      </trkpt>
      <trkpt lat="44.25678" lon="5.62193">
        <ele>1018</ele>
        <time>2019-06-19T09:01:22Z</time>
      </trkpt>
      <trkpt lat="44.25676" lon="5.62195">
        <ele>1019</ele>
        <time>2019-06-19T09:01:23Z</time>
      </trkpt>
      <trkpt lat="44.25674" lon="5.62198">
        <ele>1019</ele>
        <time>2019-06-19T09:01:24Z</time>
      </trkpt>
      <trkpt lat="44.25673" lon="5.62201">
        <ele>1019</ele>
        <time>2019-06-19T09:01:25Z</time>
      </trkpt>
      <trkpt lat="44.25673" lon="5.62204">
        <ele>1020</ele>
        <time>2019-06-19T09:01:26Z</time>
      </trkpt>
      <trkpt lat="44.25672" lon="5.62207">
        <ele>1020</ele>
        <time>2019-06-19T09:01:27Z</time>
      </trkpt>
      <trkpt lat="44.25673" lon="5.62211">
        <ele>1020</ele>
        <time>2019-06-19T09:01:28Z</time>
      </trkpt>
      <trkpt lat="44.25674" lon="5.62214">
        <ele>1021</ele>
        <time>2019-06-19T09:01:29Z</time>
      </trkpt>
      <trkpt lat="44.25676" lon="5.62216">
        <ele>1021</ele>
        <time>2019-06-19T09:01:30Z</time>
      </trkpt>
      <trkpt lat="44.25678" lon="5.62218">
        <ele>1021</ele>
        <time>2019-06-19T09:01:31Z</time>
      </trkpt>
      <trkpt lat="44.2568" lon="5.62219">
        <ele>1022</ele>
        <time>2019-06-19T09:01:32Z</time>
      </trkpt>
      <trkpt lat="44.25682" lon="5.6222">
        <ele>1022</ele>
        <time>2019-06-19T09:01:33Z</time>
      </trkpt>
      <trkpt lat="44.25684" lon="5.62221">
        <ele>1022</ele>
        <time>2019-06-19T09:01:34Z</time>
      </trkpt>
      <trkpt lat="44.25687" lon="5.6222">
        <ele>1022</ele>
        <time>2019-06-19T09:01:35Z</time>
      </trkpt>
      <trkpt lat="44.25689" lon="5.62219">
        <ele>1022</ele>
        <time>2019-06-19T09:01:36Z</time>
      </trkpt>
      <trkpt lat="44.25691" lon="5.62217">
        <ele>1022</ele>
        <time>2019-06-19T09:01:37Z</time>
      </trkpt>
      <trkpt lat="44.25693" lon="5.62215">
        <ele>1022</ele>
        <time>2019-06-19T09:01:38Z</time>
      </trkpt>
      <trkpt lat="44.25695" lon="5.62212">
        <ele>1022</ele>
        <time>2019-06-19T09:01:39Z</time>
      </trkpt>
      <trkpt lat="44.25695" lon="5.62209">
        <ele>1022</ele>
        <time>2019-06-19T09:01:40Z</time>
      </trkpt>
      <trkpt lat="44.25697" lon="5.62206">
        <ele>1022</ele>
        <time>2019-06-19T09:01:41Z</time>
      </trkpt>
      <trkpt lat="44.25698" lon="5.62202">
        <ele>1022</ele>
        <time>2019-06-19T09:01:42Z</time>
      </trkpt>
      <trkpt lat="44.25699" lon="5.62199">
        <ele>1022</ele>
        <time>2019-06-19T09:01:43Z</time>
      </trkpt>
      <trkpt lat="44.257" lon="5.62196">
        <ele>1022</ele>
        <time>2019-06-19T09:01:44Z</time>
      </trkpt>
      <trkpt lat="44.25701" lon="5.62192">
        <ele>1022</ele>
        <time>2019-06-19T09:01:45Z</time>
      </trkpt>
      <trkpt lat="44.25702" lon="5.62188">
        <ele>1022</ele>
        <time>2019-06-19T09:01:46Z</time>
      </trkpt>
      <trkpt lat="44.25703" lon="5.62186">
        <ele>1022</ele>
        <time>2019-06-19T09:01:47Z</time>
      </trkpt>
      <trkpt lat="44.25705" lon="5.62183">
        <ele>1022</ele>
        <time>2019-06-19T09:01:48Z</time>
      </trkpt>
      <trkpt lat="44.25705" lon="5.6218">
        <ele>1022</ele>
        <time>2019-06-19T09:01:49Z</time>
      </trkpt>
      <trkpt lat="44.25707" lon="5.62178">
        <ele>1022</ele>
        <time>2019-06-19T09:01:50Z</time>
      </trkpt>
      <trkpt lat="44.25708" lon="5.62175">
        <ele>1022</ele>
        <time>2019-06-19T09:01:51Z</time>
      </trkpt>
      <trkpt lat="44.25709" lon="5.62173">
        <ele>1022</ele>
        <time>2019-06-19T09:01:52Z</time>
      </trkpt>
      <trkpt lat="44.2571" lon="5.62171">
        <ele>1022</ele>
        <time>2019-06-19T09:01:53Z</time>
      </trkpt>
      <trkpt lat="44.25712" lon="5.62168">
        <ele>1022</ele>
        <time>2019-06-19T09:01:54Z</time>
      </trkpt>
      <trkpt lat="44.25713" lon="5.62166">
        <ele>1022</ele>
        <time>2019-06-19T09:01:55Z</time>
      </trkpt>
      <trkpt lat="44.25715" lon="5.62164">
        <ele>1022</ele>
        <time>2019-06-19T09:01:56Z</time>
      </trkpt>
      <trkpt lat="44.25716" lon="5.62162">
        <ele>1022</ele>
        <time>2019-06-19T09:01:57Z</time>
      </trkpt>
      <trkpt lat="44.25718" lon="5.62161">
        <ele>1022</ele>
        <time>2019-06-19T09:01:58Z</time>
      </trkpt>
      <trkpt lat="44.2572" lon="5.6216">
        <ele>1022</ele>
        <time>2019-06-19T09:01:59Z</time>
      </trkpt>
      <trkpt lat="44.25722" lon="5.62158">
        <ele>1022</ele>
        <time>2019-06-19T09:02:00Z</time>
      </trkpt>
      <trkpt lat="44.25724" lon="5.62157">
        <ele>1022</ele>
        <time>2019-06-19T09:02:01Z</time>
      </trkpt>
      <trkpt lat="44.25726" lon="5.62156">
        <ele>1022</ele>
        <time>2019-06-19T09:02:02Z</time>
      </trkpt>
      <trkpt lat="44.25727" lon="5.62155">
        <ele>1022</ele>
        <time>2019-06-19T09:02:03Z</time>
      </trkpt>
      <trkpt lat="44.25729" lon="5.62155">
        <ele>1022</ele>
        <time>2019-06-19T09:02:04Z</time>
      </trkpt>
      <trkpt lat="44.25732" lon="5.62155">
        <ele>1022</ele>
        <time>2019-06-19T09:02:05Z</time>
      </trkpt>
      <trkpt lat="44.25734" lon="5.62156">
        <ele>1022</ele>
        <time>2019-06-19T09:02:06Z</time>
      </trkpt>
      <trkpt lat="44.25736" lon="5.62156">
        <ele>1022</ele>
        <time>2019-06-19T09:02:07Z</time>
      </trkpt>
      <trkpt lat="44.25738" lon="5.62158">
        <ele>1022</ele>
        <time>2019-06-19T09:02:08Z</time>
      </trkpt>
      <trkpt lat="44.2574" lon="5.62159">
        <ele>1022</ele>
        <time>2019-06-19T09:02:09Z</time>
      </trkpt>
      <trkpt lat="44.25743" lon="5.6216">
        <ele>1022</ele>
        <time>2019-06-19T09:02:10Z</time>
      </trkpt>
      <trkpt lat="44.25745" lon="5.62161">
        <ele>1022</ele>
        <time>2019-06-19T09:02:11Z</time>
      </trkpt>
      <trkpt lat="44.25747" lon="5.62162">
        <ele>1022</ele>
        <time>2019-06-19T09:02:12Z</time>
      </trkpt>
      <trkpt lat="44.2575" lon="5.62163">
        <ele>1023</ele>
        <time>2019-06-19T09:02:13Z</time>
      </trkpt>
      <trkpt lat="44.25752" lon="5.62164">
        <ele>1023</ele>
        <time>2019-06-19T09:02:14Z</time>
      </trkpt>
      <trkpt lat="44.25755" lon="5.62164">
        <ele>1023</ele>
        <time>2019-06-19T09:02:15Z</time>
      </trkpt>
      <trkpt lat="44.25757" lon="5.62165">
        <ele>1023</ele>
        <time>2019-06-19T09:02:16Z</time>
      </trkpt>
      <trkpt lat="44.25759" lon="5.62167">
        <ele>1023</ele>
        <time>2019-06-19T09:02:17Z</time>
      </trkpt>
      <trkpt lat="44.25761" lon="5.62168">
        <ele>1023</ele>
        <time>2019-06-19T09:02:18Z</time>
      </trkpt>
      <trkpt lat="44.25763" lon="5.62169">
        <ele>1023</ele>
        <time>2019-06-19T09:02:19Z</time>
      </trkpt>
      <trkpt lat="44.25766" lon="5.6217">
        <ele>1024</ele>
        <time>2019-06-19T09:02:20Z</time>
      </trkpt>
      <trkpt lat="44.25768" lon="5.6217">
        <ele>1024</ele>
        <time>2019-06-19T09:02:21Z</time>
      </trkpt>
      <trkpt lat="44.2577" lon="5.62171">
        <ele>1024</ele>
        <time>2019-06-19T09:02:22Z</time>
      </trkpt>
      <trkpt lat="44.25772" lon="5.62171">
        <ele>1024</ele>
        <time>2019-06-19T09:02:23Z</time>
      </trkpt>
      <trkpt lat="44.25774" lon="5.62172">
        <ele>1024</ele>
        <time>2019-06-19T09:02:24Z</time>
      </trkpt>
      <trkpt lat="44.25776" lon="5.62172">
        <ele>1025</ele>
        <time>2019-06-19T09:02:25Z</time>
      </trkpt>
      <trkpt lat="44.25778" lon="5.62173">
        <ele>1025</ele>
        <time>2019-06-19T09:02:26Z</time>
      </trkpt>
      <trkpt lat="44.2578" lon="5.62173">
        <ele>1025</ele>
        <time>2019-06-19T09:02:27Z</time>
      </trkpt>
      <trkpt lat="44.25782" lon="5.62173">
        <ele>1025</ele>
        <time>2019-06-19T09:02:28Z</time>
      </trkpt>
      <trkpt lat="44.25784" lon="5.62172">
        <ele>1026</ele>
        <time>2019-06-19T09:02:29Z</time>
      </trkpt>
      <trkpt lat="44.25786" lon="5.62171">
        <ele>1026</ele>
        <time>2019-06-19T09:02:30Z</time>
      </trkpt>
      <trkpt lat="44.25788" lon="5.62171">
        <ele>1026</ele>
        <time>2019-06-19T09:02:31Z</time>
      </trkpt>
      <trkpt lat="44.25791" lon="5.62171">
        <ele>1026</ele>
        <time>2019-06-19T09:02:32Z</time>
      </trkpt>
      <trkpt lat="44.25793" lon="5.62171">
        <ele>1026</ele>
        <time>2019-06-19T09:02:33Z</time>
      </trkpt>
      <trkpt lat="44.25795" lon="5.6217">
        <ele>1026</ele>
        <time>2019-06-19T09:02:34Z</time>
      </trkpt>
      <trkpt lat="44.25797" lon="5.62169">
        <ele>1026</ele>
        <time>2019-06-19T09:02:35Z</time>
      </trkpt>
      <trkpt lat="44.25799" lon="5.62167">
        <ele>1026</ele>
        <time>2019-06-19T09:02:36Z</time>
      </trkpt>
      <trkpt lat="44.25801" lon="5.62166">
        <ele>1026</ele>
        <time>2019-06-19T09:02:37Z</time>
      </trkpt>
      <trkpt lat="44.25803" lon="5.62165">
        <ele>1027</ele>
        <time>2019-06-19T09:02:38Z</time>
      </trkpt>
      <trkpt lat="44.25805" lon="5.62164">
        <ele>1027</ele>
        <time>2019-06-19T09:02:39Z</time>
      </trkpt>
      <trkpt lat="44.25806" lon="5.62162">
        <ele>1027</ele>
        <time>2019-06-19T09:02:40Z</time>
      </trkpt>
      <trkpt lat="44.25808" lon="5.62161">
        <ele>1027</ele>
        <time>2019-06-19T09:02:41Z</time>
      </trkpt>
      <trkpt lat="44.2581" lon="5.62159">
        <ele>1027</ele>
        <time>2019-06-19T09:02:42Z</time>
      </trkpt>
      <trkpt lat="44.25811" lon="5.62157">
        <ele>1027</ele>
        <time>2019-06-19T09:02:43Z</time>
      </trkpt>
      <trkpt lat="44.25813" lon="5.62155">
        <ele>1027</ele>
        <time>2019-06-19T09:02:44Z</time>
      </trkpt>
      <trkpt lat="44.25814" lon="5.62153">
        <ele>1028</ele>
        <time>2019-06-19T09:02:45Z</time>
      </trkpt>
      <trkpt lat="44.25816" lon="5.62152">
        <ele>1028</ele>
        <time>2019-06-19T09:02:46Z</time>
      </trkpt>
      <trkpt lat="44.25818" lon="5.6215">
        <ele>1028</ele>
        <time>2019-06-19T09:02:47Z</time>
      </trkpt>
      <trkpt lat="44.25819" lon="5.62149">
        <ele>1029</ele>
        <time>2019-06-19T09:02:48Z</time>
      </trkpt>
      <trkpt lat="44.25821" lon="5.62147">
        <ele>1029</ele>
        <time>2019-06-19T09:02:49Z</time>
      </trkpt>
      <trkpt lat="44.25822" lon="5.62145">
        <ele>1029</ele>
        <time>2019-06-19T09:02:50Z</time>
      </trkpt>
      <trkpt lat="44.25824" lon="5.62143">
        <ele>1029</ele>
        <time>2019-06-19T09:02:51Z</time>
      </trkpt>
      <trkpt lat="44.25826" lon="5.62142">
        <ele>1030</ele>
        <time>2019-06-19T09:02:52Z</time>
      </trkpt>
      <trkpt lat="44.25827" lon="5.6214">
        <ele>1030</ele>
        <time>2019-06-19T09:02:53Z</time>
      </trkpt>
      <trkpt lat="44.25829" lon="5.62139">
        <ele>1030</ele>
        <time>2019-06-19T09:02:54Z</time>
      </trkpt>
      <trkpt lat="44.25831" lon="5.62137">
        <ele>1030</ele>
        <time>2019-06-19T09:02:55Z</time>
      </trkpt>
      <trkpt lat="44.25832" lon="5.62136">
        <ele>1030</ele>
        <time>2019-06-19T09:02:56Z</time>
      </trkpt>
      <trkpt lat="44.25834" lon="5.62134">
        <ele>1031</ele>
        <time>2019-06-19T09:02:57Z</time>
      </trkpt>
      <trkpt lat="44.25836" lon="5.62132">
        <ele>1031</ele>
        <time>2019-06-19T09:02:58Z</time>
      </trkpt>
      <trkpt lat="44.25837" lon="5.62131">
        <ele>1031</ele>
        <time>2019-06-19T09:02:59Z</time>
      </trkpt>
      <trkpt lat="44.25839" lon="5.62129">
        <ele>1031</ele>
        <time>2019-06-19T09:03:00Z</time>
      </trkpt>
      <trkpt lat="44.25841" lon="5.62128">
        <ele>1032</ele>
        <time>2019-06-19T09:03:01Z</time>
      </trkpt>
      <trkpt lat="44.25842" lon="5.62127">
        <ele>1032</ele>
        <time>2019-06-19T09:03:02Z</time>
      </trkpt>
      <trkpt lat="44.25844" lon="5.62125">
        <ele>1032</ele>
        <time>2019-06-19T09:03:03Z</time>
      </trkpt>
      <trkpt lat="44.25845" lon="5.62123">
        <ele>1032</ele>
        <time>2019-06-19T09:03:04Z</time>
      </trkpt>
      <trkpt lat="44.25847" lon="5.62121">
        <ele>1032</ele>
        <time>2019-06-19T09:03:05Z</time>
      </trkpt>
      <trkpt lat="44.25848" lon="5.62119">
        <ele>1032</ele>
        <time>2019-06-19T09:03:06Z</time>
      </trkpt>
      <trkpt lat="44.2585" lon="5.62118">
        <ele>1033</ele>
        <time>2019-06-19T09:03:07Z</time>
      </trkpt>
      <trkpt lat="44.25851" lon="5.62116">
        <ele>1033</ele>
        <time>2019-06-19T09:03:08Z</time>
      </trkpt>
      <trkpt lat="44.25853" lon="5.62115">
        <ele>1033</ele>
        <time>2019-06-19T09:03:09Z</time>
      </trkpt>
      <trkpt lat="44.25854" lon="5.62113">
        <ele>1033</ele>
        <time>2019-06-19T09:03:10Z</time>
      </trkpt>
      <trkpt lat="44.25856" lon="5.62112">
        <ele>1033</ele>
        <time>2019-06-19T09:03:11Z</time>
      </trkpt>
      <trkpt lat="44.25857" lon="5.6211">
        <ele>1034</ele>
        <time>2019-06-19T09:03:12Z</time>
      </trkpt>
      <trkpt lat="44.25859" lon="5.62108">
        <ele>1034</ele>
        <time>2019-06-19T09:03:13Z</time>
      </trkpt>
      <trkpt lat="44.2586" lon="5.62106">
        <ele>1034</ele>
        <time>2019-06-19T09:03:14Z</time>
      </trkpt>
      <trkpt lat="44.25861" lon="5.62104">
        <ele>1034</ele>
        <time>2019-06-19T09:03:15Z</time>
      </trkpt>
      <trkpt lat="44.25863" lon="5.62102">
        <ele>1034</ele>
        <time>2019-06-19T09:03:16Z</time>
      </trkpt>
      <trkpt lat="44.25864" lon="5.621">
        <ele>1035</ele>
        <time>2019-06-19T09:03:17Z</time>
      </trkpt>
      <trkpt lat="44.25866" lon="5.62098">
        <ele>1035</ele>
        <time>2019-06-19T09:03:18Z</time>
      </trkpt>
      <trkpt lat="44.25867" lon="5.62096">
        <ele>1035</ele>
        <time>2019-06-19T09:03:19Z</time>
      </trkpt>
      <trkpt lat="44.25868" lon="5.62095">
        <ele>1035</ele>
        <time>2019-06-19T09:03:20Z</time>
      </trkpt>
      <trkpt lat="44.25869" lon="5.62093">
        <ele>1036</ele>
        <time>2019-06-19T09:03:21Z</time>
      </trkpt>
      <trkpt lat="44.25871" lon="5.62091">
        <ele>1036</ele>
        <time>2019-06-19T09:03:22Z</time>
      </trkpt>
      <trkpt lat="44.25872" lon="5.62088">
        <ele>1036</ele>
        <time>2019-06-19T09:03:23Z</time>
      </trkpt>
      <trkpt lat="44.25872" lon="5.62086">
        <ele>1036</ele>
        <time>2019-06-19T09:03:24Z</time>
      </trkpt>
      <trkpt lat="44.25874" lon="5.62084">
        <ele>1036</ele>
        <time>2019-06-19T09:03:25Z</time>
      </trkpt>
      <trkpt lat="44.25875" lon="5.62082">
        <ele>1036</ele>
        <time>2019-06-19T09:03:26Z</time>
      </trkpt>
      <trkpt lat="44.25876" lon="5.6208">
        <ele>1037</ele>
        <time>2019-06-19T09:03:27Z</time>
      </trkpt>
      <trkpt lat="44.25877" lon="5.62077">
        <ele>1037</ele>
        <time>2019-06-19T09:03:28Z</time>
      </trkpt>
      <trkpt lat="44.25878" lon="5.62075">
        <ele>1037</ele>
        <time>2019-06-19T09:03:29Z</time>
      </trkpt>
      <trkpt lat="44.25879" lon="5.62073">
        <ele>1038</ele>
        <time>2019-06-19T09:03:30Z</time>
      </trkpt>
      <trkpt lat="44.2588" lon="5.62071">
        <ele>1038</ele>
        <time>2019-06-19T09:03:31Z</time>
      </trkpt>
      <trkpt lat="44.25881" lon="5.62069">
        <ele>1038</ele>
        <time>2019-06-19T09:03:32Z</time>
      </trkpt>
      <trkpt lat="44.25882" lon="5.62066">
        <ele>1039</ele>
        <time>2019-06-19T09:03:33Z</time>
      </trkpt>
      <trkpt lat="44.25883" lon="5.62063">
        <ele>1039</ele>
        <time>2019-06-19T09:03:34Z</time>
      </trkpt>
      <trkpt lat="44.25884" lon="5.6206">
        <ele>1039</ele>
        <time>2019-06-19T09:03:35Z</time>
      </trkpt>
      <trkpt lat="44.25885" lon="5.62058">
        <ele>1040</ele>
        <time>2019-06-19T09:03:36Z</time>
      </trkpt>
      <trkpt lat="44.25887" lon="5.62057">
        <ele>1040</ele>
        <time>2019-06-19T09:03:37Z</time>
      </trkpt>
      <trkpt lat="44.25888" lon="5.62055">
        <ele>1040</ele>
        <time>2019-06-19T09:03:38Z</time>
      </trkpt>
      <trkpt lat="44.2589" lon="5.62053">
        <ele>1041</ele>
        <time>2019-06-19T09:03:39Z</time>
      </trkpt>
      <trkpt lat="44.25891" lon="5.62051">
        <ele>1041</ele>
        <time>2019-06-19T09:03:40Z</time>
      </trkpt>
      <trkpt lat="44.25892" lon="5.62048">
        <ele>1041</ele>
        <time>2019-06-19T09:03:41Z</time>
      </trkpt>
      <trkpt lat="44.25893" lon="5.62045">
        <ele>1041</ele>
        <time>2019-06-19T09:03:42Z</time>
      </trkpt>
      <trkpt lat="44.25894" lon="5.62043">
        <ele>1041</ele>
        <time>2019-06-19T09:03:43Z</time>
      </trkpt>
      <trkpt lat="44.25895" lon="5.62041">
        <ele>1041</ele>
        <time>2019-06-19T09:03:44Z</time>
      </trkpt>
      <trkpt lat="44.25897" lon="5.62039">
        <ele>1041</ele>
        <time>2019-06-19T09:03:45Z</time>
      </trkpt>
      <trkpt lat="44.25898" lon="5.62036">
        <ele>1042</ele>
        <time>2019-06-19T09:03:46Z</time>
      </trkpt>
      <trkpt lat="44.25899" lon="5.62034">
        <ele>1042</ele>
        <time>2019-06-19T09:03:47Z</time>
      </trkpt>
      <trkpt lat="44.25901" lon="5.62031">
        <ele>1042</ele>
        <time>2019-06-19T09:03:48Z</time>
      </trkpt>
      <trkpt lat="44.25902" lon="5.62029">
        <ele>1042</ele>
        <time>2019-06-19T09:03:49Z</time>
      </trkpt>
      <trkpt lat="44.25903" lon="5.62027">
        <ele>1042</ele>
        <time>2019-06-19T09:03:50Z</time>
      </trkpt>
      <trkpt lat="44.25904" lon="5.62024">
        <ele>1042</ele>
        <time>2019-06-19T09:03:51Z</time>
      </trkpt>
      <trkpt lat="44.25905" lon="5.62022">
        <ele>1042</ele>
        <time>2019-06-19T09:03:52Z</time>
      </trkpt>
      <trkpt lat="44.25907" lon="5.6202">
        <ele>1042</ele>
        <time>2019-06-19T09:03:53Z</time>
      </trkpt>
      <trkpt lat="44.25908" lon="5.62018">
        <ele>1042</ele>
        <time>2019-06-19T09:03:54Z</time>
      </trkpt>
      <trkpt lat="44.25909" lon="5.62016">
        <ele>1042</ele>
        <time>2019-06-19T09:03:55Z</time>
      </trkpt>
      <trkpt lat="44.25911" lon="5.62014">
        <ele>1043</ele>
        <time>2019-06-19T09:03:56Z</time>
      </trkpt>
      <trkpt lat="44.25911" lon="5.62011">
        <ele>1043</ele>
        <time>2019-06-19T09:03:57Z</time>
      </trkpt>
      <trkpt lat="44.25912" lon="5.62009">
        <ele>1043</ele>
        <time>2019-06-19T09:03:58Z</time>
      </trkpt>
      <trkpt lat="44.25913" lon="5.62007">
        <ele>1044</ele>
        <time>2019-06-19T09:03:59Z</time>
      </trkpt>
      <trkpt lat="44.25914" lon="5.62004">
        <ele>1044</ele>
        <time>2019-06-19T09:04:00Z</time>
      </trkpt>
      <trkpt lat="44.25915" lon="5.62002">
        <ele>1044</ele>
        <time>2019-06-19T09:04:01Z</time>
      </trkpt>
      <trkpt lat="44.25916" lon="5.62">
        <ele>1044</ele>
        <time>2019-06-19T09:04:02Z</time>
      </trkpt>
      <trkpt lat="44.25917" lon="5.61999">
        <ele>1045</ele>
        <time>2019-06-19T09:04:03Z</time>
      </trkpt>
      <trkpt lat="44.25919" lon="5.61997">
        <ele>1045</ele>
        <time>2019-06-19T09:04:04Z</time>
      </trkpt>
      <trkpt lat="44.2592" lon="5.61994">
        <ele>1045</ele>
        <time>2019-06-19T09:04:05Z</time>
      </trkpt>
      <trkpt lat="44.25921" lon="5.61992">
        <ele>1045</ele>
        <time>2019-06-19T09:04:06Z</time>
      </trkpt>
      <trkpt lat="44.25922" lon="5.6199">
        <ele>1046</ele>
        <time>2019-06-19T09:04:07Z</time>
      </trkpt>
      <trkpt lat="44.25923" lon="5.61988">
        <ele>1046</ele>
        <time>2019-06-19T09:04:08Z</time>
      </trkpt>
      <trkpt lat="44.25924" lon="5.61986">
        <ele>1046</ele>
        <time>2019-06-19T09:04:09Z</time>
      </trkpt>
      <trkpt lat="44.25926" lon="5.61984">
        <ele>1046</ele>
        <time>2019-06-19T09:04:10Z</time>
      </trkpt>
      <trkpt lat="44.25927" lon="5.61982">
        <ele>1047</ele>
        <time>2019-06-19T09:04:11Z</time>
      </trkpt>
      <trkpt lat="44.25928" lon="5.61981">
        <ele>1047</ele>
        <time>2019-06-19T09:04:12Z</time>
      </trkpt>
      <trkpt lat="44.25929" lon="5.61979">
        <ele>1047</ele>
        <time>2019-06-19T09:04:13Z</time>
      </trkpt>
      <trkpt lat="44.2593" lon="5.61977">
        <ele>1047</ele>
        <time>2019-06-19T09:04:14Z</time>
      </trkpt>
      <trkpt lat="44.25932" lon="5.61975">
        <ele>1047</ele>
        <time>2019-06-19T09:04:15Z</time>
      </trkpt>
      <trkpt lat="44.25934" lon="5.61974">
        <ele>1048</ele>
        <time>2019-06-19T09:04:16Z</time>
      </trkpt>
      <trkpt lat="44.25936" lon="5.61973">
        <ele>1048</ele>
        <time>2019-06-19T09:04:17Z</time>
      </trkpt>
      <trkpt lat="44.25938" lon="5.61971">
        <ele>1048</ele>
        <time>2019-06-19T09:04:18Z</time>
      </trkpt>
      <trkpt lat="44.2594" lon="5.6197">
        <ele>1049</ele>
        <time>2019-06-19T09:04:19Z</time>
      </trkpt>
      <trkpt lat="44.25941" lon="5.61968">
        <ele>1049</ele>
        <time>2019-06-19T09:04:20Z</time>
      </trkpt>
      <trkpt lat="44.25943" lon="5.61966">
        <ele>1050</ele>
        <time>2019-06-19T09:04:21Z</time>
      </trkpt>
      <trkpt lat="44.25945" lon="5.61964">
        <ele>1050</ele>
        <time>2019-06-19T09:04:22Z</time>
      </trkpt>
      <trkpt lat="44.25946" lon="5.61962">
        <ele>1051</ele>
        <time>2019-06-19T09:04:23Z</time>
      </trkpt>
      <trkpt lat="44.25947" lon="5.6196">
        <ele>1051</ele>
        <time>2019-06-19T09:04:24Z</time>
      </trkpt>
      <trkpt lat="44.25948" lon="5.61957">
        <ele>1051</ele>
        <time>2019-06-19T09:04:25Z</time>
      </trkpt>
      <trkpt lat="44.25949" lon="5.61955">
        <ele>1052</ele>
        <time>2019-06-19T09:04:26Z</time>
      </trkpt>
      <trkpt lat="44.2595" lon="5.61952">
        <ele>1052</ele>
        <time>2019-06-19T09:04:27Z</time>
      </trkpt>
      <trkpt lat="44.2595" lon="5.61949">
        <ele>1052</ele>
        <time>2019-06-19T09:04:28Z</time>
      </trkpt>
      <trkpt lat="44.2595" lon="5.61946">
        <ele>1053</ele>
        <time>2019-06-19T09:04:29Z</time>
      </trkpt>
      <trkpt lat="44.2595" lon="5.61943">
        <ele>1053</ele>
        <time>2019-06-19T09:04:30Z</time>
      </trkpt>
      <trkpt lat="44.2595" lon="5.61939">
        <ele>1053</ele>
        <time>2019-06-19T09:04:31Z</time>
      </trkpt>
      <trkpt lat="44.25949" lon="5.61936">
        <ele>1054</ele>
        <time>2019-06-19T09:04:32Z</time>
      </trkpt>
      <trkpt lat="44.25948" lon="5.61933">
        <ele>1054</ele>
        <time>2019-06-19T09:04:33Z</time>
      </trkpt>
      <trkpt lat="44.25947" lon="5.6193">
        <ele>1055</ele>
        <time>2019-06-19T09:04:34Z</time>
      </trkpt>
      <trkpt lat="44.25946" lon="5.61928">
        <ele>1055</ele>
        <time>2019-06-19T09:04:35Z</time>
      </trkpt>
      <trkpt lat="44.25945" lon="5.61925">
        <ele>1055</ele>
        <time>2019-06-19T09:04:36Z</time>
      </trkpt>
      <trkpt lat="44.25944" lon="5.61922">
        <ele>1056</ele>
        <time>2019-06-19T09:04:37Z</time>
      </trkpt>
      <trkpt lat="44.25943" lon="5.61919">
        <ele>1056</ele>
        <time>2019-06-19T09:04:38Z</time>
      </trkpt>
      <trkpt lat="44.25941" lon="5.61916">
        <ele>1056</ele>
        <time>2019-06-19T09:04:39Z</time>
      </trkpt>
      <trkpt lat="44.2594" lon="5.61913">
        <ele>1056</ele>
        <time>2019-06-19T09:04:40Z</time>
      </trkpt>
      <trkpt lat="44.2594" lon="5.6191">
        <ele>1057</ele>
        <time>2019-06-19T09:04:41Z</time>
      </trkpt>
      <trkpt lat="44.25938" lon="5.61906">
        <ele>1057</ele>
        <time>2019-06-19T09:04:42Z</time>
      </trkpt>
      <trkpt lat="44.25938" lon="5.61903">
        <ele>1057</ele>
        <time>2019-06-19T09:04:43Z</time>
      </trkpt>
      <trkpt lat="44.25937" lon="5.61899">
        <ele>1057</ele>
        <time>2019-06-19T09:04:44Z</time>
      </trkpt>
      <trkpt lat="44.25936" lon="5.61895">
        <ele>1057</ele>
        <time>2019-06-19T09:04:45Z</time>
      </trkpt>
      <trkpt lat="44.25935" lon="5.61891">
        <ele>1058</ele>
        <time>2019-06-19T09:04:46Z</time>
      </trkpt>
      <trkpt lat="44.25935" lon="5.61888">
        <ele>1058</ele>
        <time>2019-06-19T09:04:47Z</time>
      </trkpt>
      <trkpt lat="44.25935" lon="5.61884">
        <ele>1058</ele>
        <time>2019-06-19T09:04:48Z</time>
      </trkpt>
      <trkpt lat="44.25934" lon="5.61881">
        <ele>1058</ele>
        <time>2019-06-19T09:04:49Z</time>
      </trkpt>
      <trkpt lat="44.25933" lon="5.61877">
        <ele>1058</ele>
        <time>2019-06-19T09:04:50Z</time>
      </trkpt>
      <trkpt lat="44.25933" lon="5.61874">
        <ele>1058</ele>
        <time>2019-06-19T09:04:51Z</time>
      </trkpt>
      <trkpt lat="44.25933" lon="5.61871">
        <ele>1059</ele>
        <time>2019-06-19T09:04:52Z</time>
      </trkpt>
      <trkpt lat="44.25933" lon="5.61868">
        <ele>1059</ele>
        <time>2019-06-19T09:04:53Z</time>
      </trkpt>
      <trkpt lat="44.25933" lon="5.61864">
        <ele>1059</ele>
        <time>2019-06-19T09:04:54Z</time>
      </trkpt>
      <trkpt lat="44.25932" lon="5.61861">
        <ele>1059</ele>
        <time>2019-06-19T09:04:55Z</time>
      </trkpt>
      <trkpt lat="44.25932" lon="5.61858">
        <ele>1060</ele>
        <time>2019-06-19T09:04:56Z</time>
      </trkpt>
      <trkpt lat="44.25932" lon="5.61855">
        <ele>1060</ele>
        <time>2019-06-19T09:04:57Z</time>
      </trkpt>
      <trkpt lat="44.25932" lon="5.61852">
        <ele>1060</ele>
        <time>2019-06-19T09:04:58Z</time>
      </trkpt>
      <trkpt lat="44.25933" lon="5.6185">
        <ele>1060</ele>
        <time>2019-06-19T09:04:59Z</time>
      </trkpt>
      <trkpt lat="44.25933" lon="5.61847">
        <ele>1060</ele>
        <time>2019-06-19T09:05:00Z</time>
      </trkpt>
      <trkpt lat="44.25933" lon="5.61844">
        <ele>1060</ele>
        <time>2019-06-19T09:05:01Z</time>
      </trkpt>
      <trkpt lat="44.25933" lon="5.61841">
        <ele>1060</ele>
        <time>2019-06-19T09:05:02Z</time>
      </trkpt>
      <trkpt lat="44.25933" lon="5.61838">
        <ele>1061</ele>
        <time>2019-06-19T09:05:03Z</time>
      </trkpt>
      <trkpt lat="44.25933" lon="5.61835">
        <ele>1061</ele>
        <time>2019-06-19T09:05:04Z</time>
      </trkpt>
      <trkpt lat="44.25932" lon="5.61832">
        <ele>1061</ele>
        <time>2019-06-19T09:05:05Z</time>
      </trkpt>
      <trkpt lat="44.25933" lon="5.61829">
        <ele>1061</ele>
        <time>2019-06-19T09:05:06Z</time>
      </trkpt>
      <trkpt lat="44.25933" lon="5.61826">
        <ele>1061</ele>
        <time>2019-06-19T09:05:07Z</time>
      </trkpt>
      <trkpt lat="44.25933" lon="5.61822">
        <ele>1061</ele>
        <time>2019-06-19T09:05:08Z</time>
      </trkpt>
      <trkpt lat="44.25933" lon="5.61819">
        <ele>1062</ele>
        <time>2019-06-19T09:05:09Z</time>
      </trkpt>
      <trkpt lat="44.25933" lon="5.61816">
        <ele>1062</ele>
        <time>2019-06-19T09:05:10Z</time>
      </trkpt>
      <trkpt lat="44.25934" lon="5.61813">
        <ele>1062</ele>
        <time>2019-06-19T09:05:11Z</time>
      </trkpt>
      <trkpt lat="44.25934" lon="5.61809">
        <ele>1062</ele>
        <time>2019-06-19T09:05:12Z</time>
      </trkpt>
      <trkpt lat="44.25935" lon="5.61807">
        <ele>1062</ele>
        <time>2019-06-19T09:05:13Z</time>
      </trkpt>
      <trkpt lat="44.25935" lon="5.61804">
        <ele>1063</ele>
        <time>2019-06-19T09:05:14Z</time>
      </trkpt>
      <trkpt lat="44.25935" lon="5.61801">
        <ele>1063</ele>
        <time>2019-06-19T09:05:15Z</time>
      </trkpt>
      <trkpt lat="44.25935" lon="5.61798">
        <ele>1063</ele>
        <time>2019-06-19T09:05:16Z</time>
      </trkpt>
      <trkpt lat="44.25935" lon="5.61795">
        <ele>1063</ele>
        <time>2019-06-19T09:05:17Z</time>
      </trkpt>
      <trkpt lat="44.25934" lon="5.61792">
        <ele>1064</ele>
        <time>2019-06-19T09:05:18Z</time>
      </trkpt>
      <trkpt lat="44.25933" lon="5.61789">
        <ele>1064</ele>
        <time>2019-06-19T09:05:19Z</time>
      </trkpt>
      <trkpt lat="44.25933" lon="5.61786">
        <ele>1064</ele>
        <time>2019-06-19T09:05:20Z</time>
      </trkpt>
      <trkpt lat="44.25933" lon="5.61783">
        <ele>1064</ele>
        <time>2019-06-19T09:05:21Z</time>
      </trkpt>
      <trkpt lat="44.25932" lon="5.61779">
        <ele>1064</ele>
        <time>2019-06-19T09:05:22Z</time>
      </trkpt>
      <trkpt lat="44.25931" lon="5.61777">
        <ele>1065</ele>
        <time>2019-06-19T09:05:23Z</time>
      </trkpt>
      <trkpt lat="44.2593" lon="5.61774">
        <ele>1065</ele>
        <time>2019-06-19T09:05:24Z</time>
      </trkpt>
      <trkpt lat="44.25929" lon="5.61771">
        <ele>1065</ele>
        <time>2019-06-19T09:05:25Z</time>
      </trkpt>
      <trkpt lat="44.25928" lon="5.61769">
        <ele>1065</ele>
        <time>2019-06-19T09:05:26Z</time>
      </trkpt>
      <trkpt lat="44.25928" lon="5.61766">
        <ele>1066</ele>
        <time>2019-06-19T09:05:27Z</time>
      </trkpt>
      <trkpt lat="44.25927" lon="5.61764">
        <ele>1066</ele>
        <time>2019-06-19T09:05:28Z</time>
      </trkpt>
      <trkpt lat="44.25925" lon="5.61762">
        <ele>1066</ele>
        <time>2019-06-19T09:05:29Z</time>
      </trkpt>
      <trkpt lat="44.25924" lon="5.61759">
        <ele>1066</ele>
        <time>2019-06-19T09:05:30Z</time>
      </trkpt>
      <trkpt lat="44.25923" lon="5.61757">
        <ele>1066</ele>
        <time>2019-06-19T09:05:31Z</time>
      </trkpt>
      <trkpt lat="44.25922" lon="5.61754">
        <ele>1066</ele>
        <time>2019-06-19T09:05:32Z</time>
      </trkpt>
      <trkpt lat="44.25921" lon="5.61751">
        <ele>1066</ele>
        <time>2019-06-19T09:05:33Z</time>
      </trkpt>
      <trkpt lat="44.25919" lon="5.61749">
        <ele>1066</ele>
        <time>2019-06-19T09:05:34Z</time>
      </trkpt>
      <trkpt lat="44.25917" lon="5.61747">
        <ele>1066</ele>
        <time>2019-06-19T09:05:35Z</time>
      </trkpt>
      <trkpt lat="44.25915" lon="5.61744">
        <ele>1066</ele>
        <time>2019-06-19T09:05:36Z</time>
      </trkpt>
      <trkpt lat="44.25913" lon="5.61743">
        <ele>1066</ele>
        <time>2019-06-19T09:05:37Z</time>
      </trkpt>
      <trkpt lat="44.2591" lon="5.61742">
        <ele>1066</ele>
        <time>2019-06-19T09:05:38Z</time>
      </trkpt>
      <trkpt lat="44.25908" lon="5.61742">
        <ele>1066</ele>
        <time>2019-06-19T09:05:39Z</time>
      </trkpt>
      <trkpt lat="44.25905" lon="5.61742">
        <ele>1066</ele>
        <time>2019-06-19T09:05:40Z</time>
      </trkpt>
      <trkpt lat="44.25903" lon="5.61742">
        <ele>1067</ele>
        <time>2019-06-19T09:05:41Z</time>
      </trkpt>
      <trkpt lat="44.259" lon="5.61742">
        <ele>1067</ele>
        <time>2019-06-19T09:05:42Z</time>
      </trkpt>
      <trkpt lat="44.25897" lon="5.61742">
        <ele>1068</ele>
        <time>2019-06-19T09:05:43Z</time>
      </trkpt>
      <trkpt lat="44.25895" lon="5.61743">
        <ele>1068</ele>
        <time>2019-06-19T09:05:44Z</time>
      </trkpt>
      <trkpt lat="44.25892" lon="5.61744">
        <ele>1068</ele>
        <time>2019-06-19T09:05:45Z</time>
      </trkpt>
      <trkpt lat="44.2589" lon="5.61746">
        <ele>1069</ele>
        <time>2019-06-19T09:05:46Z</time>
      </trkpt>
      <trkpt lat="44.25887" lon="5.61747">
        <ele>1069</ele>
        <time>2019-06-19T09:05:47Z</time>
      </trkpt>
      <trkpt lat="44.25884" lon="5.61748">
        <ele>1070</ele>
        <time>2019-06-19T09:05:48Z</time>
      </trkpt>
      <trkpt lat="44.25882" lon="5.61748">
        <ele>1070</ele>
        <time>2019-06-19T09:05:49Z</time>
      </trkpt>
      <trkpt lat="44.25879" lon="5.61749">
        <ele>1071</ele>
        <time>2019-06-19T09:05:50Z</time>
      </trkpt>
      <trkpt lat="44.25877" lon="5.61749">
        <ele>1071</ele>
        <time>2019-06-19T09:05:51Z</time>
      </trkpt>
      <trkpt lat="44.25874" lon="5.6175">
        <ele>1072</ele>
        <time>2019-06-19T09:05:52Z</time>
      </trkpt>
      <trkpt lat="44.25872" lon="5.61751">
        <ele>1072</ele>
        <time>2019-06-19T09:05:53Z</time>
      </trkpt>
      <trkpt lat="44.25869" lon="5.61751">
        <ele>1073</ele>
        <time>2019-06-19T09:05:54Z</time>
      </trkpt>
      <trkpt lat="44.25867" lon="5.6175">
        <ele>1073</ele>
        <time>2019-06-19T09:05:55Z</time>
      </trkpt>
      <trkpt lat="44.25865" lon="5.6175">
        <ele>1073</ele>
        <time>2019-06-19T09:05:56Z</time>
      </trkpt>
      <trkpt lat="44.25862" lon="5.61749">
        <ele>1074</ele>
        <time>2019-06-19T09:05:57Z</time>
      </trkpt>
      <trkpt lat="44.2586" lon="5.6175">
        <ele>1074</ele>
        <time>2019-06-19T09:05:58Z</time>
      </trkpt>
      <trkpt lat="44.25858" lon="5.6175">
        <ele>1074</ele>
        <time>2019-06-19T09:05:59Z</time>
      </trkpt>
      <trkpt lat="44.25856" lon="5.61749">
        <ele>1074</ele>
        <time>2019-06-19T09:06:00Z</time>
      </trkpt>
      <trkpt lat="44.25854" lon="5.61748">
        <ele>1075</ele>
        <time>2019-06-19T09:06:01Z</time>
      </trkpt>
      <trkpt lat="44.25852" lon="5.61747">
        <ele>1075</ele>
        <time>2019-06-19T09:06:02Z</time>
      </trkpt>
      <trkpt lat="44.2585" lon="5.61745">
        <ele>1075</ele>
        <time>2019-06-19T09:06:03Z</time>
      </trkpt>
      <trkpt lat="44.25848" lon="5.61745">
        <ele>1075</ele>
        <time>2019-06-19T09:06:04Z</time>
      </trkpt>
      <trkpt lat="44.25846" lon="5.61744">
        <ele>1076</ele>
        <time>2019-06-19T09:06:05Z</time>
      </trkpt>
      <trkpt lat="44.25845" lon="5.61742">
        <ele>1076</ele>
        <time>2019-06-19T09:06:06Z</time>
      </trkpt>
      <trkpt lat="44.25843" lon="5.6174">
        <ele>1076</ele>
        <time>2019-06-19T09:06:07Z</time>
      </trkpt>
      <trkpt lat="44.25842" lon="5.61739">
        <ele>1076</ele>
        <time>2019-06-19T09:06:08Z</time>
      </trkpt>
      <trkpt lat="44.2584" lon="5.61737">
        <ele>1076</ele>
        <time>2019-06-19T09:06:09Z</time>
      </trkpt>
      <trkpt lat="44.25838" lon="5.61735">
        <ele>1077</ele>
        <time>2019-06-19T09:06:10Z</time>
      </trkpt>
      <trkpt lat="44.25836" lon="5.61734">
        <ele>1077</ele>
        <time>2019-06-19T09:06:11Z</time>
      </trkpt>
      <trkpt lat="44.25834" lon="5.61732">
        <ele>1077</ele>
        <time>2019-06-19T09:06:12Z</time>
      </trkpt>
      <trkpt lat="44.25833" lon="5.61731">
        <ele>1077</ele>
        <time>2019-06-19T09:06:13Z</time>
      </trkpt>
      <trkpt lat="44.25831" lon="5.6173">
        <ele>1077</ele>
        <time>2019-06-19T09:06:14Z</time>
      </trkpt>
      <trkpt lat="44.25829" lon="5.61728">
        <ele>1077</ele>
        <time>2019-06-19T09:06:15Z</time>
      </trkpt>
      <trkpt lat="44.25827" lon="5.61727">
        <ele>1077</ele>
        <time>2019-06-19T09:06:16Z</time>
      </trkpt>
      <trkpt lat="44.25825" lon="5.61726">
        <ele>1077</ele>
        <time>2019-06-19T09:06:17Z</time>
      </trkpt>
      <trkpt lat="44.25823" lon="5.61725">
        <ele>1077</ele>
        <time>2019-06-19T09:06:18Z</time>
      </trkpt>
      <trkpt lat="44.25821" lon="5.61723">
        <ele>1077</ele>
        <time>2019-06-19T09:06:19Z</time>
      </trkpt>
      <trkpt lat="44.25819" lon="5.61721">
        <ele>1077</ele>
        <time>2019-06-19T09:06:20Z</time>
      </trkpt>
      <trkpt lat="44.25817" lon="5.6172">
        <ele>1077</ele>
        <time>2019-06-19T09:06:21Z</time>
      </trkpt>
      <trkpt lat="44.25816" lon="5.61718">
        <ele>1078</ele>
        <time>2019-06-19T09:06:22Z</time>
      </trkpt>
      <trkpt lat="44.25814" lon="5.61717">
        <ele>1078</ele>
        <time>2019-06-19T09:06:23Z</time>
      </trkpt>
      <trkpt lat="44.25812" lon="5.61716">
        <ele>1078</ele>
        <time>2019-06-19T09:06:24Z</time>
      </trkpt>
      <trkpt lat="44.25809" lon="5.61715">
        <ele>1078</ele>
        <time>2019-06-19T09:06:25Z</time>
      </trkpt>
      <trkpt lat="44.25807" lon="5.61716">
        <ele>1078</ele>
        <time>2019-06-19T09:06:26Z</time>
      </trkpt>
      <trkpt lat="44.25805" lon="5.61715">
        <ele>1079</ele>
        <time>2019-06-19T09:06:27Z</time>
      </trkpt>
      <trkpt lat="44.25802" lon="5.61715">
        <ele>1080</ele>
        <time>2019-06-19T09:06:28Z</time>
      </trkpt>
      <trkpt lat="44.25799" lon="5.61714">
        <ele>1080</ele>
        <time>2019-06-19T09:06:29Z</time>
      </trkpt>
      <trkpt lat="44.25797" lon="5.61714">
        <ele>1080</ele>
        <time>2019-06-19T09:06:30Z</time>
      </trkpt>
      <trkpt lat="44.25794" lon="5.61715">
        <ele>1081</ele>
        <time>2019-06-19T09:06:31Z</time>
      </trkpt>
      <trkpt lat="44.25791" lon="5.61715">
        <ele>1081</ele>
        <time>2019-06-19T09:06:32Z</time>
      </trkpt>
      <trkpt lat="44.25789" lon="5.61716">
        <ele>1081</ele>
        <time>2019-06-19T09:06:33Z</time>
      </trkpt>
      <trkpt lat="44.25786" lon="5.61716">
        <ele>1081</ele>
        <time>2019-06-19T09:06:34Z</time>
      </trkpt>
      <trkpt lat="44.25784" lon="5.61717">
        <ele>1081</ele>
        <time>2019-06-19T09:06:35Z</time>
      </trkpt>
      <trkpt lat="44.25782" lon="5.61717">
        <ele>1081</ele>
        <time>2019-06-19T09:06:36Z</time>
      </trkpt>
      <trkpt lat="44.25779" lon="5.61718">
        <ele>1082</ele>
        <time>2019-06-19T09:06:37Z</time>
      </trkpt>
      <trkpt lat="44.25776" lon="5.61719">
        <ele>1082</ele>
        <time>2019-06-19T09:06:38Z</time>
      </trkpt>
      <trkpt lat="44.25774" lon="5.61719">
        <ele>1082</ele>
        <time>2019-06-19T09:06:39Z</time>
      </trkpt>
      <trkpt lat="44.25771" lon="5.61719">
        <ele>1082</ele>
        <time>2019-06-19T09:06:40Z</time>
      </trkpt>
      <trkpt lat="44.25768" lon="5.61718">
        <ele>1083</ele>
        <time>2019-06-19T09:06:41Z</time>
      </trkpt>
      <trkpt lat="44.25766" lon="5.61716">
        <ele>1083</ele>
        <time>2019-06-19T09:06:42Z</time>
      </trkpt>
      <trkpt lat="44.25764" lon="5.61713">
        <ele>1083</ele>
        <time>2019-06-19T09:06:43Z</time>
      </trkpt>
      <trkpt lat="44.25763" lon="5.61709">
        <ele>1084</ele>
        <time>2019-06-19T09:06:44Z</time>
      </trkpt>
      <trkpt lat="44.25764" lon="5.61705">
        <ele>1084</ele>
        <time>2019-06-19T09:06:45Z</time>
      </trkpt>
      <trkpt lat="44.25767" lon="5.61702">
        <ele>1084</ele>
        <time>2019-06-19T09:06:46Z</time>
      </trkpt>
      <trkpt lat="44.2577" lon="5.617">
        <ele>1084</ele>
        <time>2019-06-19T09:06:47Z</time>
      </trkpt>
      <trkpt lat="44.25772" lon="5.61699">
        <ele>1084</ele>
        <time>2019-06-19T09:06:48Z</time>
      </trkpt>
      <trkpt lat="44.25775" lon="5.61698">
        <ele>1084</ele>
        <time>2019-06-19T09:06:49Z</time>
      </trkpt>
      <trkpt lat="44.25778" lon="5.61698">
        <ele>1084</ele>
        <time>2019-06-19T09:06:50Z</time>
      </trkpt>
      <trkpt lat="44.2578" lon="5.61698">
        <ele>1084</ele>
        <time>2019-06-19T09:06:51Z</time>
      </trkpt>
      <trkpt lat="44.25783" lon="5.61697">
        <ele>1084</ele>
        <time>2019-06-19T09:06:52Z</time>
      </trkpt>
      <trkpt lat="44.25785" lon="5.61697">
        <ele>1084</ele>
        <time>2019-06-19T09:06:53Z</time>
      </trkpt>
      <trkpt lat="44.25787" lon="5.61696">
        <ele>1084</ele>
        <time>2019-06-19T09:06:54Z</time>
      </trkpt>
      <trkpt lat="44.25789" lon="5.61696">
        <ele>1084</ele>
        <time>2019-06-19T09:06:55Z</time>
      </trkpt>
      <trkpt lat="44.25792" lon="5.61695">
        <ele>1084</ele>
        <time>2019-06-19T09:06:56Z</time>
      </trkpt>
      <trkpt lat="44.25793" lon="5.61695">
        <ele>1084</ele>
        <time>2019-06-19T09:06:57Z</time>
      </trkpt>
      <trkpt lat="44.25795" lon="5.61694">
        <ele>1084</ele>
        <time>2019-06-19T09:06:58Z</time>
      </trkpt>
      <trkpt lat="44.25798" lon="5.61694">
        <ele>1084</ele>
        <time>2019-06-19T09:06:59Z</time>
      </trkpt>
      <trkpt lat="44.258" lon="5.61694">
        <ele>1084</ele>
        <time>2019-06-19T09:07:00Z</time>
      </trkpt>
      <trkpt lat="44.25801" lon="5.61694">
        <ele>1084</ele>
        <time>2019-06-19T09:07:01Z</time>
      </trkpt>
      <trkpt lat="44.25803" lon="5.61694">
        <ele>1084</ele>
        <time>2019-06-19T09:07:02Z</time>
      </trkpt>
      <trkpt lat="44.25806" lon="5.61694">
        <ele>1084</ele>
        <time>2019-06-19T09:07:03Z</time>
      </trkpt>
      <trkpt lat="44.25808" lon="5.61694">
        <ele>1084</ele>
        <time>2019-06-19T09:07:04Z</time>
      </trkpt>
      <trkpt lat="44.2581" lon="5.61694">
        <ele>1084</ele>
        <time>2019-06-19T09:07:05Z</time>
      </trkpt>
      <trkpt lat="44.25812" lon="5.61694">
        <ele>1084</ele>
        <time>2019-06-19T09:07:06Z</time>
      </trkpt>
      <trkpt lat="44.25815" lon="5.61695">
        <ele>1084</ele>
        <time>2019-06-19T09:07:07Z</time>
      </trkpt>
      <trkpt lat="44.25817" lon="5.61696">
        <ele>1084</ele>
        <time>2019-06-19T09:07:08Z</time>
      </trkpt>
      <trkpt lat="44.2582" lon="5.61697">
        <ele>1084</ele>
        <time>2019-06-19T09:07:09Z</time>
      </trkpt>
      <trkpt lat="44.25822" lon="5.61697">
        <ele>1084</ele>
        <time>2019-06-19T09:07:10Z</time>
      </trkpt>
      <trkpt lat="44.25826" lon="5.61697">
        <ele>1084</ele>
        <time>2019-06-19T09:07:11Z</time>
      </trkpt>
      <trkpt lat="44.25828" lon="5.61698">
        <ele>1084</ele>
        <time>2019-06-19T09:07:12Z</time>
      </trkpt>
      <trkpt lat="44.2583" lon="5.61698">
        <ele>1084</ele>
        <time>2019-06-19T09:07:13Z</time>
      </trkpt>
      <trkpt lat="44.25832" lon="5.61699">
        <ele>1084</ele>
        <time>2019-06-19T09:07:14Z</time>
      </trkpt>
      <trkpt lat="44.25834" lon="5.617">
        <ele>1085</ele>
        <time>2019-06-19T09:07:15Z</time>
      </trkpt>
      <trkpt lat="44.25836" lon="5.617">
        <ele>1085</ele>
        <time>2019-06-19T09:07:16Z</time>
      </trkpt>
      <trkpt lat="44.25838" lon="5.61701">
        <ele>1085</ele>
        <time>2019-06-19T09:07:17Z</time>
      </trkpt>
      <trkpt lat="44.2584" lon="5.61701">
        <ele>1085</ele>
        <time>2019-06-19T09:07:18Z</time>
      </trkpt>
      <trkpt lat="44.25842" lon="5.61702">
        <ele>1085</ele>
        <time>2019-06-19T09:07:19Z</time>
      </trkpt>
      <trkpt lat="44.25844" lon="5.61702">
        <ele>1085</ele>
        <time>2019-06-19T09:07:20Z</time>
      </trkpt>
      <trkpt lat="44.25846" lon="5.61702">
        <ele>1085</ele>
        <time>2019-06-19T09:07:21Z</time>
      </trkpt>
      <trkpt lat="44.25848" lon="5.61702">
        <ele>1085</ele>
        <time>2019-06-19T09:07:22Z</time>
      </trkpt>
      <trkpt lat="44.2585" lon="5.61703">
        <ele>1085</ele>
        <time>2019-06-19T09:07:23Z</time>
      </trkpt>
      <trkpt lat="44.25852" lon="5.61703">
        <ele>1085</ele>
        <time>2019-06-19T09:07:24Z</time>
      </trkpt>
      <trkpt lat="44.25854" lon="5.61702">
        <ele>1085</ele>
        <time>2019-06-19T09:07:25Z</time>
      </trkpt>
      <trkpt lat="44.25856" lon="5.61702">
        <ele>1085</ele>
        <time>2019-06-19T09:07:26Z</time>
      </trkpt>
      <trkpt lat="44.25857" lon="5.61701">
        <ele>1085</ele>
        <time>2019-06-19T09:07:27Z</time>
      </trkpt>
      <trkpt lat="44.25859" lon="5.617">
        <ele>1085</ele>
        <time>2019-06-19T09:07:28Z</time>
      </trkpt>
      <trkpt lat="44.25862" lon="5.617">
        <ele>1085</ele>
        <time>2019-06-19T09:07:29Z</time>
      </trkpt>
      <trkpt lat="44.25864" lon="5.617">
        <ele>1085</ele>
        <time>2019-06-19T09:07:30Z</time>
      </trkpt>
      <trkpt lat="44.25866" lon="5.61699">
        <ele>1085</ele>
        <time>2019-06-19T09:07:31Z</time>
      </trkpt>
      <trkpt lat="44.25867" lon="5.61697">
        <ele>1085</ele>
        <time>2019-06-19T09:07:32Z</time>
      </trkpt>
      <trkpt lat="44.25869" lon="5.61695">
        <ele>1085</ele>
        <time>2019-06-19T09:07:33Z</time>
      </trkpt>
      <trkpt lat="44.25871" lon="5.61694">
        <ele>1085</ele>
        <time>2019-06-19T09:07:34Z</time>
      </trkpt>
      <trkpt lat="44.25874" lon="5.61693">
        <ele>1085</ele>
        <time>2019-06-19T09:07:35Z</time>
      </trkpt>
      <trkpt lat="44.25876" lon="5.61692">
        <ele>1085</ele>
        <time>2019-06-19T09:07:36Z</time>
      </trkpt>
      <trkpt lat="44.25878" lon="5.61691">
        <ele>1085</ele>
        <time>2019-06-19T09:07:37Z</time>
      </trkpt>
      <trkpt lat="44.2588" lon="5.61689">
        <ele>1085</ele>
        <time>2019-06-19T09:07:38Z</time>
      </trkpt>
      <trkpt lat="44.25882" lon="5.61688">
        <ele>1085</ele>
        <time>2019-06-19T09:07:39Z</time>
      </trkpt>
      <trkpt lat="44.25884" lon="5.61686">
        <ele>1085</ele>
        <time>2019-06-19T09:07:40Z</time>
      </trkpt>
      <trkpt lat="44.25886" lon="5.61684">
        <ele>1085</ele>
        <time>2019-06-19T09:07:41Z</time>
      </trkpt>
      <trkpt lat="44.25888" lon="5.61683">
        <ele>1085</ele>
        <time>2019-06-19T09:07:42Z</time>
      </trkpt>
      <trkpt lat="44.2589" lon="5.61682">
        <ele>1085</ele>
        <time>2019-06-19T09:07:43Z</time>
      </trkpt>
      <trkpt lat="44.25891" lon="5.6168">
        <ele>1085</ele>
        <time>2019-06-19T09:07:44Z</time>
      </trkpt>
      <trkpt lat="44.25893" lon="5.61679">
        <ele>1085</ele>
        <time>2019-06-19T09:07:45Z</time>
      </trkpt>
      <trkpt lat="44.25895" lon="5.61677">
        <ele>1085</ele>
        <time>2019-06-19T09:07:46Z</time>
      </trkpt>
      <trkpt lat="44.25896" lon="5.61676">
        <ele>1085</ele>
        <time>2019-06-19T09:07:47Z</time>
      </trkpt>
      <trkpt lat="44.25898" lon="5.61676">
        <ele>1085</ele>
        <time>2019-06-19T09:07:48Z</time>
      </trkpt>
      <trkpt lat="44.25898" lon="5.61674">
        <ele>1085</ele>
        <time>2019-06-19T09:07:49Z</time>
      </trkpt>
      <trkpt lat="44.259" lon="5.61672">
        <ele>1085</ele>
        <time>2019-06-19T09:07:50Z</time>
      </trkpt>
      <trkpt lat="44.25901" lon="5.6167">
        <ele>1085</ele>
        <time>2019-06-19T09:07:51Z</time>
      </trkpt>
      <trkpt lat="44.25902" lon="5.61667">
        <ele>1085</ele>
        <time>2019-06-19T09:07:52Z</time>
      </trkpt>
      <trkpt lat="44.25903" lon="5.61665">
        <ele>1085</ele>
        <time>2019-06-19T09:07:53Z</time>
      </trkpt>
      <trkpt lat="44.25904" lon="5.61664">
        <ele>1085</ele>
        <time>2019-06-19T09:07:54Z</time>
      </trkpt>
      <trkpt lat="44.25905" lon="5.61663">
        <ele>1085</ele>
        <time>2019-06-19T09:07:55Z</time>
      </trkpt>
      <trkpt lat="44.25906" lon="5.61662">
        <ele>1085</ele>
        <time>2019-06-19T09:07:56Z</time>
      </trkpt>
      <trkpt lat="44.25908" lon="5.6166">
        <ele>1085</ele>
        <time>2019-06-19T09:07:57Z</time>
      </trkpt>
      <trkpt lat="44.25909" lon="5.61659">
        <ele>1085</ele>
        <time>2019-06-19T09:07:58Z</time>
      </trkpt>
      <trkpt lat="44.25911" lon="5.61657">
        <ele>1085</ele>
        <time>2019-06-19T09:07:59Z</time>
      </trkpt>
      <trkpt lat="44.25912" lon="5.61656">
        <ele>1085</ele>
        <time>2019-06-19T09:08:00Z</time>
      </trkpt>
      <trkpt lat="44.25914" lon="5.61654">
        <ele>1085</ele>
        <time>2019-06-19T09:08:01Z</time>
      </trkpt>
      <trkpt lat="44.25916" lon="5.61652">
        <ele>1085</ele>
        <time>2019-06-19T09:08:02Z</time>
      </trkpt>
      <trkpt lat="44.25918" lon="5.6165">
        <ele>1085</ele>
        <time>2019-06-19T09:08:03Z</time>
      </trkpt>
      <trkpt lat="44.2592" lon="5.61648">
        <ele>1085</ele>
        <time>2019-06-19T09:08:04Z</time>
      </trkpt>
      <trkpt lat="44.25921" lon="5.61646">
        <ele>1085</ele>
        <time>2019-06-19T09:08:05Z</time>
      </trkpt>
      <trkpt lat="44.25922" lon="5.61644">
        <ele>1085</ele>
        <time>2019-06-19T09:08:06Z</time>
      </trkpt>
      <trkpt lat="44.25924" lon="5.61643">
        <ele>1085</ele>
        <time>2019-06-19T09:08:07Z</time>
      </trkpt>
      <trkpt lat="44.25925" lon="5.61641">
        <ele>1085</ele>
        <time>2019-06-19T09:08:08Z</time>
      </trkpt>
      <trkpt lat="44.25927" lon="5.61639">
        <ele>1085</ele>
        <time>2019-06-19T09:08:09Z</time>
      </trkpt>
      <trkpt lat="44.25928" lon="5.61638">
        <ele>1085</ele>
        <time>2019-06-19T09:08:10Z</time>
      </trkpt>
      <trkpt lat="44.2593" lon="5.61636">
        <ele>1085</ele>
        <time>2019-06-19T09:08:11Z</time>
      </trkpt>
      <trkpt lat="44.25932" lon="5.61635">
        <ele>1085</ele>
        <time>2019-06-19T09:08:12Z</time>
      </trkpt>
      <trkpt lat="44.25934" lon="5.61634">
        <ele>1085</ele>
        <time>2019-06-19T09:08:13Z</time>
      </trkpt>
      <trkpt lat="44.25938" lon="5.61633">
        <ele>1085</ele>
        <time>2019-06-19T09:08:14Z</time>
      </trkpt>
      <trkpt lat="44.2594" lon="5.61632">
        <ele>1085</ele>
        <time>2019-06-19T09:08:15Z</time>
      </trkpt>
      <trkpt lat="44.25943" lon="5.61631">
        <ele>1085</ele>
        <time>2019-06-19T09:08:16Z</time>
      </trkpt>
      <trkpt lat="44.25945" lon="5.61631">
        <ele>1086</ele>
        <time>2019-06-19T09:08:17Z</time>
      </trkpt>
      <trkpt lat="44.25947" lon="5.6163">
        <ele>1087</ele>
        <time>2019-06-19T09:08:18Z</time>
      </trkpt>
      <trkpt lat="44.25949" lon="5.61629">
        <ele>1088</ele>
        <time>2019-06-19T09:08:19Z</time>
      </trkpt>
      <trkpt lat="44.25951" lon="5.61627">
        <ele>1088</ele>
        <time>2019-06-19T09:08:20Z</time>
      </trkpt>
      <trkpt lat="44.25952" lon="5.61627">
        <ele>1088</ele>
        <time>2019-06-19T09:08:21Z</time>
      </trkpt>
      <trkpt lat="44.25954" lon="5.61626">
        <ele>1088</ele>
        <time>2019-06-19T09:08:22Z</time>
      </trkpt>
      <trkpt lat="44.25956" lon="5.61626">
        <ele>1088</ele>
        <time>2019-06-19T09:08:23Z</time>
      </trkpt>
      <trkpt lat="44.25959" lon="5.61627">
        <ele>1088</ele>
        <time>2019-06-19T09:08:24Z</time>
      </trkpt>
      <trkpt lat="44.25961" lon="5.61627">
        <ele>1088</ele>
        <time>2019-06-19T09:08:25Z</time>
      </trkpt>
      <trkpt lat="44.25963" lon="5.61628">
        <ele>1089</ele>
        <time>2019-06-19T09:08:26Z</time>
      </trkpt>
      <trkpt lat="44.25965" lon="5.61628">
        <ele>1089</ele>
        <time>2019-06-19T09:08:27Z</time>
      </trkpt>
      <trkpt lat="44.25967" lon="5.61629">
        <ele>1090</ele>
        <time>2019-06-19T09:08:28Z</time>
      </trkpt>
      <trkpt lat="44.25969" lon="5.61629">
        <ele>1090</ele>
        <time>2019-06-19T09:08:29Z</time>
      </trkpt>
      <trkpt lat="44.25972" lon="5.6163">
        <ele>1090</ele>
        <time>2019-06-19T09:08:30Z</time>
      </trkpt>
      <trkpt lat="44.25974" lon="5.61631">
        <ele>1091</ele>
        <time>2019-06-19T09:08:31Z</time>
      </trkpt>
      <trkpt lat="44.25977" lon="5.61632">
        <ele>1091</ele>
        <time>2019-06-19T09:08:32Z</time>
      </trkpt>
      <trkpt lat="44.25979" lon="5.61634">
        <ele>1091</ele>
        <time>2019-06-19T09:08:33Z</time>
      </trkpt>
      <trkpt lat="44.25981" lon="5.61635">
        <ele>1092</ele>
        <time>2019-06-19T09:08:34Z</time>
      </trkpt>
      <trkpt lat="44.25983" lon="5.61637">
        <ele>1092</ele>
        <time>2019-06-19T09:08:35Z</time>
      </trkpt>
      <trkpt lat="44.25986" lon="5.61638">
        <ele>1093</ele>
        <time>2019-06-19T09:08:36Z</time>
      </trkpt>
      <trkpt lat="44.25988" lon="5.61639">
        <ele>1093</ele>
        <time>2019-06-19T09:08:37Z</time>
      </trkpt>
      <trkpt lat="44.2599" lon="5.61641">
        <ele>1094</ele>
        <time>2019-06-19T09:08:38Z</time>
      </trkpt>
      <trkpt lat="44.25993" lon="5.61642">
        <ele>1094</ele>
        <time>2019-06-19T09:08:39Z</time>
      </trkpt>
      <trkpt lat="44.25995" lon="5.61643">
        <ele>1095</ele>
        <time>2019-06-19T09:08:40Z</time>
      </trkpt>
      <trkpt lat="44.25997" lon="5.61645">
        <ele>1095</ele>
        <time>2019-06-19T09:08:41Z</time>
      </trkpt>
      <trkpt lat="44.25999" lon="5.61645">
        <ele>1095</ele>
        <time>2019-06-19T09:08:42Z</time>
      </trkpt>
      <trkpt lat="44.26001" lon="5.61646">
        <ele>1096</ele>
        <time>2019-06-19T09:08:43Z</time>
      </trkpt>
      <trkpt lat="44.26003" lon="5.61646">
        <ele>1096</ele>
        <time>2019-06-19T09:08:44Z</time>
      </trkpt>
      <trkpt lat="44.26005" lon="5.61647">
        <ele>1096</ele>
        <time>2019-06-19T09:08:45Z</time>
      </trkpt>
      <trkpt lat="44.26007" lon="5.61648">
        <ele>1096</ele>
        <time>2019-06-19T09:08:46Z</time>
      </trkpt>
      <trkpt lat="44.26009" lon="5.61649">
        <ele>1097</ele>
        <time>2019-06-19T09:08:47Z</time>
      </trkpt>
      <trkpt lat="44.26011" lon="5.6165">
        <ele>1097</ele>
        <time>2019-06-19T09:08:48Z</time>
      </trkpt>
      <trkpt lat="44.26013" lon="5.61651">
        <ele>1097</ele>
        <time>2019-06-19T09:08:49Z</time>
      </trkpt>
      <trkpt lat="44.26015" lon="5.61652">
        <ele>1097</ele>
        <time>2019-06-19T09:08:50Z</time>
      </trkpt>
      <trkpt lat="44.26017" lon="5.61654">
        <ele>1097</ele>
        <time>2019-06-19T09:08:51Z</time>
      </trkpt>
      <trkpt lat="44.26019" lon="5.61655">
        <ele>1097</ele>
        <time>2019-06-19T09:08:52Z</time>
      </trkpt>
      <trkpt lat="44.26021" lon="5.61657">
        <ele>1098</ele>
        <time>2019-06-19T09:08:53Z</time>
      </trkpt>
      <trkpt lat="44.26023" lon="5.6166">
        <ele>1098</ele>
        <time>2019-06-19T09:08:54Z</time>
      </trkpt>
      <trkpt lat="44.26025" lon="5.61662">
        <ele>1098</ele>
        <time>2019-06-19T09:08:55Z</time>
      </trkpt>
      <trkpt lat="44.26028" lon="5.61666">
        <ele>1099</ele>
        <time>2019-06-19T09:08:56Z</time>
      </trkpt>
      <trkpt lat="44.2603" lon="5.61669">
        <ele>1099</ele>
        <time>2019-06-19T09:08:57Z</time>
      </trkpt>
      <trkpt lat="44.26032" lon="5.61672">
        <ele>1099</ele>
        <time>2019-06-19T09:08:58Z</time>
      </trkpt>
      <trkpt lat="44.26033" lon="5.61675">
        <ele>1099</ele>
        <time>2019-06-19T09:08:59Z</time>
      </trkpt>
      <trkpt lat="44.26035" lon="5.61678">
        <ele>1100</ele>
        <time>2019-06-19T09:09:00Z</time>
      </trkpt>
      <trkpt lat="44.26036" lon="5.61682">
        <ele>1100</ele>
        <time>2019-06-19T09:09:01Z</time>
      </trkpt>
      <trkpt lat="44.26037" lon="5.61685">
        <ele>1100</ele>
        <time>2019-06-19T09:09:02Z</time>
      </trkpt>
      <trkpt lat="44.26039" lon="5.61688">
        <ele>1100</ele>
        <time>2019-06-19T09:09:03Z</time>
      </trkpt>
      <trkpt lat="44.26041" lon="5.6169">
        <ele>1101</ele>
        <time>2019-06-19T09:09:04Z</time>
      </trkpt>
      <trkpt lat="44.26042" lon="5.61693">
        <ele>1101</ele>
        <time>2019-06-19T09:09:05Z</time>
      </trkpt>
      <trkpt lat="44.26044" lon="5.61695">
        <ele>1101</ele>
        <time>2019-06-19T09:09:06Z</time>
      </trkpt>
      <trkpt lat="44.26046" lon="5.61698">
        <ele>1101</ele>
        <time>2019-06-19T09:09:07Z</time>
      </trkpt>
      <trkpt lat="44.26047" lon="5.617">
        <ele>1101</ele>
        <time>2019-06-19T09:09:08Z</time>
      </trkpt>
      <trkpt lat="44.26048" lon="5.61702">
        <ele>1101</ele>
        <time>2019-06-19T09:09:09Z</time>
      </trkpt>
      <trkpt lat="44.2605" lon="5.61704">
        <ele>1101</ele>
        <time>2019-06-19T09:09:10Z</time>
      </trkpt>
      <trkpt lat="44.26051" lon="5.61707">
        <ele>1102</ele>
        <time>2019-06-19T09:09:11Z</time>
      </trkpt>
      <trkpt lat="44.26053" lon="5.61709">
        <ele>1102</ele>
        <time>2019-06-19T09:09:12Z</time>
      </trkpt>
      <trkpt lat="44.26054" lon="5.61711">
        <ele>1102</ele>
        <time>2019-06-19T09:09:13Z</time>
      </trkpt>
      <trkpt lat="44.26057" lon="5.61712">
        <ele>1103</ele>
        <time>2019-06-19T09:09:14Z</time>
      </trkpt>
      <trkpt lat="44.26059" lon="5.61714">
        <ele>1103</ele>
        <time>2019-06-19T09:09:15Z</time>
      </trkpt>
      <trkpt lat="44.2606" lon="5.61716">
        <ele>1103</ele>
        <time>2019-06-19T09:09:16Z</time>
      </trkpt>
      <trkpt lat="44.26062" lon="5.61717">
        <ele>1103</ele>
        <time>2019-06-19T09:09:17Z</time>
      </trkpt>
      <trkpt lat="44.26065" lon="5.61718">
        <ele>1103</ele>
        <time>2019-06-19T09:09:18Z</time>
      </trkpt>
      <trkpt lat="44.26067" lon="5.61719">
        <ele>1103</ele>
        <time>2019-06-19T09:09:19Z</time>
      </trkpt>
      <trkpt lat="44.26069" lon="5.61719">
        <ele>1104</ele>
        <time>2019-06-19T09:09:20Z</time>
      </trkpt>
      <trkpt lat="44.26071" lon="5.6172">
        <ele>1104</ele>
        <time>2019-06-19T09:09:21Z</time>
      </trkpt>
      <trkpt lat="44.26073" lon="5.61721">
        <ele>1104</ele>
        <time>2019-06-19T09:09:22Z</time>
      </trkpt>
      <trkpt lat="44.26076" lon="5.61721">
        <ele>1104</ele>
        <time>2019-06-19T09:09:23Z</time>
      </trkpt>
      <trkpt lat="44.26078" lon="5.61721">
        <ele>1104</ele>
        <time>2019-06-19T09:09:24Z</time>
      </trkpt>
      <trkpt lat="44.2608" lon="5.61721">
        <ele>1104</ele>
        <time>2019-06-19T09:09:25Z</time>
      </trkpt>
      <trkpt lat="44.26083" lon="5.61722">
        <ele>1104</ele>
        <time>2019-06-19T09:09:26Z</time>
      </trkpt>
      <trkpt lat="44.26085" lon="5.61722">
        <ele>1104</ele>
        <time>2019-06-19T09:09:27Z</time>
      </trkpt>
      <trkpt lat="44.26087" lon="5.61722">
        <ele>1104</ele>
        <time>2019-06-19T09:09:28Z</time>
      </trkpt>
      <trkpt lat="44.26089" lon="5.61723">
        <ele>1104</ele>
        <time>2019-06-19T09:09:29Z</time>
      </trkpt>
      <trkpt lat="44.26092" lon="5.61724">
        <ele>1104</ele>
        <time>2019-06-19T09:09:30Z</time>
      </trkpt>
      <trkpt lat="44.26094" lon="5.61725">
        <ele>1104</ele>
        <time>2019-06-19T09:09:31Z</time>
      </trkpt>
      <trkpt lat="44.26096" lon="5.61725">
        <ele>1104</ele>
        <time>2019-06-19T09:09:32Z</time>
      </trkpt>
      <trkpt lat="44.26098" lon="5.61726">
        <ele>1104</ele>
        <time>2019-06-19T09:09:33Z</time>
      </trkpt>
      <trkpt lat="44.261" lon="5.61727">
        <ele>1104</ele>
        <time>2019-06-19T09:09:34Z</time>
      </trkpt>
      <trkpt lat="44.26102" lon="5.61728">
        <ele>1104</ele>
        <time>2019-06-19T09:09:35Z</time>
      </trkpt>
      <trkpt lat="44.26104" lon="5.61729">
        <ele>1105</ele>
        <time>2019-06-19T09:09:36Z</time>
      </trkpt>
      <trkpt lat="44.26106" lon="5.61731">
        <ele>1105</ele>
        <time>2019-06-19T09:09:37Z</time>
      </trkpt>
      <trkpt lat="44.26108" lon="5.61732">
        <ele>1105</ele>
        <time>2019-06-19T09:09:38Z</time>
      </trkpt>
      <trkpt lat="44.26109" lon="5.61734">
        <ele>1105</ele>
        <time>2019-06-19T09:09:39Z</time>
      </trkpt>
      <trkpt lat="44.2611" lon="5.61736">
        <ele>1105</ele>
        <time>2019-06-19T09:09:40Z</time>
      </trkpt>
      <trkpt lat="44.26111" lon="5.61737">
        <ele>1105</ele>
        <time>2019-06-19T09:09:41Z</time>
      </trkpt>
      <trkpt lat="44.26113" lon="5.61738">
        <ele>1106</ele>
        <time>2019-06-19T09:09:42Z</time>
      </trkpt>
      <trkpt lat="44.26114" lon="5.61739">
        <ele>1106</ele>
        <time>2019-06-19T09:09:43Z</time>
      </trkpt>
      <trkpt lat="44.26115" lon="5.61741">
        <ele>1106</ele>
        <time>2019-06-19T09:09:44Z</time>
      </trkpt>
      <trkpt lat="44.26117" lon="5.61742">
        <ele>1107</ele>
        <time>2019-06-19T09:09:45Z</time>
      </trkpt>
      <trkpt lat="44.26118" lon="5.61744">
        <ele>1107</ele>
        <time>2019-06-19T09:09:46Z</time>
      </trkpt>
      <trkpt lat="44.26119" lon="5.61746">
        <ele>1107</ele>
        <time>2019-06-19T09:09:47Z</time>
      </trkpt>
      <trkpt lat="44.26121" lon="5.61747">
        <ele>1108</ele>
        <time>2019-06-19T09:09:48Z</time>
      </trkpt>
      <trkpt lat="44.26123" lon="5.61749">
        <ele>1108</ele>
        <time>2019-06-19T09:09:49Z</time>
      </trkpt>
      <trkpt lat="44.26124" lon="5.61751">
        <ele>1108</ele>
        <time>2019-06-19T09:09:50Z</time>
      </trkpt>
      <trkpt lat="44.26125" lon="5.61753">
        <ele>1109</ele>
        <time>2019-06-19T09:09:51Z</time>
      </trkpt>
      <trkpt lat="44.26126" lon="5.61755">
        <ele>1109</ele>
        <time>2019-06-19T09:09:52Z</time>
      </trkpt>
      <trkpt lat="44.26128" lon="5.61757">
        <ele>1109</ele>
        <time>2019-06-19T09:09:53Z</time>
      </trkpt>
      <trkpt lat="44.26129" lon="5.61759">
        <ele>1109</ele>
        <time>2019-06-19T09:09:54Z</time>
      </trkpt>
      <trkpt lat="44.2613" lon="5.6176">
        <ele>1110</ele>
        <time>2019-06-19T09:09:55Z</time>
      </trkpt>
      <trkpt lat="44.26131" lon="5.61762">
        <ele>1110</ele>
        <time>2019-06-19T09:09:56Z</time>
      </trkpt>
      <trkpt lat="44.26132" lon="5.61764">
        <ele>1111</ele>
        <time>2019-06-19T09:09:57Z</time>
      </trkpt>
      <trkpt lat="44.26133" lon="5.61766">
        <ele>1111</ele>
        <time>2019-06-19T09:09:58Z</time>
      </trkpt>
      <trkpt lat="44.26134" lon="5.61767">
        <ele>1112</ele>
        <time>2019-06-19T09:09:59Z</time>
      </trkpt>
      <trkpt lat="44.26136" lon="5.61769">
        <ele>1112</ele>
        <time>2019-06-19T09:10:00Z</time>
      </trkpt>
      <trkpt lat="44.26137" lon="5.61771">
        <ele>1112</ele>
        <time>2019-06-19T09:10:01Z</time>
      </trkpt>
      <trkpt lat="44.26138" lon="5.61773">
        <ele>1113</ele>
        <time>2019-06-19T09:10:02Z</time>
      </trkpt>
      <trkpt lat="44.26139" lon="5.61775">
        <ele>1113</ele>
        <time>2019-06-19T09:10:03Z</time>
      </trkpt>
      <trkpt lat="44.2614" lon="5.61777">
        <ele>1113</ele>
        <time>2019-06-19T09:10:04Z</time>
      </trkpt>
      <trkpt lat="44.26141" lon="5.61779">
        <ele>1113</ele>
        <time>2019-06-19T09:10:05Z</time>
      </trkpt>
      <trkpt lat="44.26143" lon="5.61781">
        <ele>1114</ele>
        <time>2019-06-19T09:10:06Z</time>
      </trkpt>
      <trkpt lat="44.26144" lon="5.61783">
        <ele>1114</ele>
        <time>2019-06-19T09:10:07Z</time>
      </trkpt>
      <trkpt lat="44.26145" lon="5.61785">
        <ele>1114</ele>
        <time>2019-06-19T09:10:08Z</time>
      </trkpt>
      <trkpt lat="44.26146" lon="5.61787">
        <ele>1114</ele>
        <time>2019-06-19T09:10:09Z</time>
      </trkpt>
      <trkpt lat="44.26147" lon="5.61789">
        <ele>1115</ele>
        <time>2019-06-19T09:10:10Z</time>
      </trkpt>
      <trkpt lat="44.26149" lon="5.61791">
        <ele>1115</ele>
        <time>2019-06-19T09:10:11Z</time>
      </trkpt>
      <trkpt lat="44.2615" lon="5.61794">
        <ele>1115</ele>
        <time>2019-06-19T09:10:12Z</time>
      </trkpt>
      <trkpt lat="44.26151" lon="5.61795">
        <ele>1115</ele>
        <time>2019-06-19T09:10:13Z</time>
      </trkpt>
      <trkpt lat="44.26153" lon="5.61797">
        <ele>1115</ele>
        <time>2019-06-19T09:10:14Z</time>
      </trkpt>
      <trkpt lat="44.26154" lon="5.61799">
        <ele>1115</ele>
        <time>2019-06-19T09:10:15Z</time>
      </trkpt>
      <trkpt lat="44.26155" lon="5.61801">
        <ele>1116</ele>
        <time>2019-06-19T09:10:16Z</time>
      </trkpt>
      <trkpt lat="44.26156" lon="5.61803">
        <ele>1116</ele>
        <time>2019-06-19T09:10:17Z</time>
      </trkpt>
      <trkpt lat="44.26157" lon="5.61805">
        <ele>1116</ele>
        <time>2019-06-19T09:10:18Z</time>
      </trkpt>
      <trkpt lat="44.26158" lon="5.61807">
        <ele>1117</ele>
        <time>2019-06-19T09:10:19Z</time>
      </trkpt>
      <trkpt lat="44.2616" lon="5.61809">
        <ele>1117</ele>
        <time>2019-06-19T09:10:20Z</time>
      </trkpt>
      <trkpt lat="44.26161" lon="5.61811">
        <ele>1117</ele>
        <time>2019-06-19T09:10:21Z</time>
      </trkpt>
      <trkpt lat="44.26162" lon="5.61813">
        <ele>1117</ele>
        <time>2019-06-19T09:10:22Z</time>
      </trkpt>
      <trkpt lat="44.26163" lon="5.61816">
        <ele>1118</ele>
        <time>2019-06-19T09:10:23Z</time>
      </trkpt>
      <trkpt lat="44.26164" lon="5.61818">
        <ele>1118</ele>
        <time>2019-06-19T09:10:24Z</time>
      </trkpt>
      <trkpt lat="44.26165" lon="5.61821">
        <ele>1118</ele>
        <time>2019-06-19T09:10:25Z</time>
      </trkpt>
      <trkpt lat="44.26167" lon="5.61823">
        <ele>1118</ele>
        <time>2019-06-19T09:10:26Z</time>
      </trkpt>
      <trkpt lat="44.26168" lon="5.61825">
        <ele>1118</ele>
        <time>2019-06-19T09:10:27Z</time>
      </trkpt>
      <trkpt lat="44.26169" lon="5.61827">
        <ele>1119</ele>
        <time>2019-06-19T09:10:28Z</time>
      </trkpt>
      <trkpt lat="44.26169" lon="5.61828">
        <ele>1119</ele>
        <time>2019-06-19T09:10:29Z</time>
      </trkpt>
      <trkpt lat="44.26171" lon="5.61831">
        <ele>1120</ele>
        <time>2019-06-19T09:10:30Z</time>
      </trkpt>
      <trkpt lat="44.26172" lon="5.61833">
        <ele>1120</ele>
        <time>2019-06-19T09:10:31Z</time>
      </trkpt>
      <trkpt lat="44.26173" lon="5.61836">
        <ele>1120</ele>
        <time>2019-06-19T09:10:32Z</time>
      </trkpt>
      <trkpt lat="44.26174" lon="5.61839">
        <ele>1121</ele>
        <time>2019-06-19T09:10:33Z</time>
      </trkpt>
      <trkpt lat="44.26176" lon="5.61842">
        <ele>1121</ele>
        <time>2019-06-19T09:10:34Z</time>
      </trkpt>
      <trkpt lat="44.26177" lon="5.61844">
        <ele>1121</ele>
        <time>2019-06-19T09:10:35Z</time>
      </trkpt>
      <trkpt lat="44.26178" lon="5.61846">
        <ele>1121</ele>
        <time>2019-06-19T09:10:36Z</time>
      </trkpt>
      <trkpt lat="44.26179" lon="5.61849">
        <ele>1121</ele>
        <time>2019-06-19T09:10:37Z</time>
      </trkpt>
      <trkpt lat="44.2618" lon="5.61852">
        <ele>1121</ele>
        <time>2019-06-19T09:10:38Z</time>
      </trkpt>
      <trkpt lat="44.26181" lon="5.61854">
        <ele>1121</ele>
        <time>2019-06-19T09:10:39Z</time>
      </trkpt>
      <trkpt lat="44.26182" lon="5.61857">
        <ele>1121</ele>
        <time>2019-06-19T09:10:40Z</time>
      </trkpt>
      <trkpt lat="44.26183" lon="5.6186">
        <ele>1122</ele>
        <time>2019-06-19T09:10:41Z</time>
      </trkpt>
      <trkpt lat="44.26183" lon="5.61862">
        <ele>1122</ele>
        <time>2019-06-19T09:10:42Z</time>
      </trkpt>
      <trkpt lat="44.26184" lon="5.61865">
        <ele>1122</ele>
        <time>2019-06-19T09:10:43Z</time>
      </trkpt>
      <trkpt lat="44.26184" lon="5.61868">
        <ele>1122</ele>
        <time>2019-06-19T09:10:44Z</time>
      </trkpt>
      <trkpt lat="44.26184" lon="5.6187">
        <ele>1122</ele>
        <time>2019-06-19T09:10:45Z</time>
      </trkpt>
      <trkpt lat="44.26185" lon="5.61873">
        <ele>1122</ele>
        <time>2019-06-19T09:10:46Z</time>
      </trkpt>
      <trkpt lat="44.26185" lon="5.61876">
        <ele>1122</ele>
        <time>2019-06-19T09:10:47Z</time>
      </trkpt>
      <trkpt lat="44.26185" lon="5.61879">
        <ele>1122</ele>
        <time>2019-06-19T09:10:48Z</time>
      </trkpt>
      <trkpt lat="44.26185" lon="5.61882">
        <ele>1123</ele>
        <time>2019-06-19T09:10:49Z</time>
      </trkpt>
      <trkpt lat="44.26185" lon="5.61885">
        <ele>1123</ele>
        <time>2019-06-19T09:10:50Z</time>
      </trkpt>
      <trkpt lat="44.26186" lon="5.61888">
        <ele>1123</ele>
        <time>2019-06-19T09:10:51Z</time>
      </trkpt>
      <trkpt lat="44.26186" lon="5.61891">
        <ele>1123</ele>
        <time>2019-06-19T09:10:52Z</time>
      </trkpt>
      <trkpt lat="44.26186" lon="5.61894">
        <ele>1124</ele>
        <time>2019-06-19T09:10:53Z</time>
      </trkpt>
      <trkpt lat="44.26187" lon="5.61897">
        <ele>1124</ele>
        <time>2019-06-19T09:10:54Z</time>
      </trkpt>
      <trkpt lat="44.26187" lon="5.619">
        <ele>1124</ele>
        <time>2019-06-19T09:10:55Z</time>
      </trkpt>
      <trkpt lat="44.26188" lon="5.61903">
        <ele>1124</ele>
        <time>2019-06-19T09:10:56Z</time>
      </trkpt>
      <trkpt lat="44.26188" lon="5.61906">
        <ele>1124</ele>
        <time>2019-06-19T09:10:57Z</time>
      </trkpt>
      <trkpt lat="44.26188" lon="5.61908">
        <ele>1124</ele>
        <time>2019-06-19T09:10:58Z</time>
      </trkpt>
      <trkpt lat="44.26189" lon="5.61911">
        <ele>1124</ele>
        <time>2019-06-19T09:10:59Z</time>
      </trkpt>
      <trkpt lat="44.26189" lon="5.61914">
        <ele>1124</ele>
        <time>2019-06-19T09:11:00Z</time>
      </trkpt>
      <trkpt lat="44.2619" lon="5.61917">
        <ele>1124</ele>
        <time>2019-06-19T09:11:01Z</time>
      </trkpt>
      <trkpt lat="44.26191" lon="5.6192">
        <ele>1125</ele>
        <time>2019-06-19T09:11:02Z</time>
      </trkpt>
      <trkpt lat="44.26191" lon="5.61923">
        <ele>1125</ele>
        <time>2019-06-19T09:11:03Z</time>
      </trkpt>
      <trkpt lat="44.26192" lon="5.61926">
        <ele>1125</ele>
        <time>2019-06-19T09:11:04Z</time>
      </trkpt>
      <trkpt lat="44.26193" lon="5.61929">
        <ele>1125</ele>
        <time>2019-06-19T09:11:05Z</time>
      </trkpt>
      <trkpt lat="44.26194" lon="5.61932">
        <ele>1125</ele>
        <time>2019-06-19T09:11:06Z</time>
      </trkpt>
      <trkpt lat="44.26195" lon="5.61935">
        <ele>1125</ele>
        <time>2019-06-19T09:11:07Z</time>
      </trkpt>
      <trkpt lat="44.26196" lon="5.61938">
        <ele>1125</ele>
        <time>2019-06-19T09:11:08Z</time>
      </trkpt>
      <trkpt lat="44.26197" lon="5.61941">
        <ele>1125</ele>
        <time>2019-06-19T09:11:09Z</time>
      </trkpt>
      <trkpt lat="44.26198" lon="5.61944">
        <ele>1126</ele>
        <time>2019-06-19T09:11:10Z</time>
      </trkpt>
      <trkpt lat="44.26199" lon="5.61947">
        <ele>1126</ele>
        <time>2019-06-19T09:11:11Z</time>
      </trkpt>
      <trkpt lat="44.262" lon="5.6195">
        <ele>1126</ele>
        <time>2019-06-19T09:11:12Z</time>
      </trkpt>
      <trkpt lat="44.26201" lon="5.61954">
        <ele>1126</ele>
        <time>2019-06-19T09:11:13Z</time>
      </trkpt>
      <trkpt lat="44.26202" lon="5.61957">
        <ele>1126</ele>
        <time>2019-06-19T09:11:14Z</time>
      </trkpt>
      <trkpt lat="44.26203" lon="5.61959">
        <ele>1126</ele>
        <time>2019-06-19T09:11:15Z</time>
      </trkpt>
      <trkpt lat="44.26205" lon="5.61962">
        <ele>1126</ele>
        <time>2019-06-19T09:11:16Z</time>
      </trkpt>
      <trkpt lat="44.26205" lon="5.61965">
        <ele>1127</ele>
        <time>2019-06-19T09:11:17Z</time>
      </trkpt>
      <trkpt lat="44.26206" lon="5.61968">
        <ele>1127</ele>
        <time>2019-06-19T09:11:18Z</time>
      </trkpt>
      <trkpt lat="44.26207" lon="5.61971">
        <ele>1127</ele>
        <time>2019-06-19T09:11:19Z</time>
      </trkpt>
      <trkpt lat="44.26207" lon="5.61974">
        <ele>1127</ele>
        <time>2019-06-19T09:11:20Z</time>
      </trkpt>
      <trkpt lat="44.26208" lon="5.61977">
        <ele>1127</ele>
        <time>2019-06-19T09:11:21Z</time>
      </trkpt>
      <trkpt lat="44.26209" lon="5.61979">
        <ele>1128</ele>
        <time>2019-06-19T09:11:22Z</time>
      </trkpt>
      <trkpt lat="44.2621" lon="5.61982">
        <ele>1128</ele>
        <time>2019-06-19T09:11:23Z</time>
      </trkpt>
      <trkpt lat="44.2621" lon="5.61984">
        <ele>1128</ele>
        <time>2019-06-19T09:11:24Z</time>
      </trkpt>
      <trkpt lat="44.26211" lon="5.61987">
        <ele>1128</ele>
        <time>2019-06-19T09:11:25Z</time>
      </trkpt>
      <trkpt lat="44.26212" lon="5.61989">
        <ele>1128</ele>
        <time>2019-06-19T09:11:26Z</time>
      </trkpt>
      <trkpt lat="44.26212" lon="5.61992">
        <ele>1128</ele>
        <time>2019-06-19T09:11:27Z</time>
      </trkpt>
      <trkpt lat="44.26213" lon="5.61996">
        <ele>1129</ele>
        <time>2019-06-19T09:11:28Z</time>
      </trkpt>
      <trkpt lat="44.26214" lon="5.62">
        <ele>1129</ele>
        <time>2019-06-19T09:11:29Z</time>
      </trkpt>
      <trkpt lat="44.26215" lon="5.62005">
        <ele>1129</ele>
        <time>2019-06-19T09:11:30Z</time>
      </trkpt>
      <trkpt lat="44.26216" lon="5.62009">
        <ele>1129</ele>
        <time>2019-06-19T09:11:31Z</time>
      </trkpt>
      <trkpt lat="44.26217" lon="5.62012">
        <ele>1130</ele>
        <time>2019-06-19T09:11:32Z</time>
      </trkpt>
      <trkpt lat="44.26218" lon="5.62016">
        <ele>1130</ele>
        <time>2019-06-19T09:11:33Z</time>
      </trkpt>
      <trkpt lat="44.26219" lon="5.62019">
        <ele>1130</ele>
        <time>2019-06-19T09:11:34Z</time>
      </trkpt>
      <trkpt lat="44.2622" lon="5.62022">
        <ele>1131</ele>
        <time>2019-06-19T09:11:35Z</time>
      </trkpt>
      <trkpt lat="44.26221" lon="5.62026">
        <ele>1131</ele>
        <time>2019-06-19T09:11:36Z</time>
      </trkpt>
      <trkpt lat="44.26222" lon="5.62029">
        <ele>1131</ele>
        <time>2019-06-19T09:11:37Z</time>
      </trkpt>
      <trkpt lat="44.26222" lon="5.62032">
        <ele>1131</ele>
        <time>2019-06-19T09:11:38Z</time>
      </trkpt>
      <trkpt lat="44.26223" lon="5.62036">
        <ele>1131</ele>
        <time>2019-06-19T09:11:39Z</time>
      </trkpt>
      <trkpt lat="44.26224" lon="5.62039">
        <ele>1131</ele>
        <time>2019-06-19T09:11:40Z</time>
      </trkpt>
      <trkpt lat="44.26224" lon="5.62042">
        <ele>1131</ele>
        <time>2019-06-19T09:11:41Z</time>
      </trkpt>
      <trkpt lat="44.26225" lon="5.62045">
        <ele>1131</ele>
        <time>2019-06-19T09:11:42Z</time>
      </trkpt>
      <trkpt lat="44.26225" lon="5.62048">
        <ele>1131</ele>
        <time>2019-06-19T09:11:43Z</time>
      </trkpt>
      <trkpt lat="44.26226" lon="5.62051">
        <ele>1132</ele>
        <time>2019-06-19T09:11:44Z</time>
      </trkpt>
      <trkpt lat="44.26226" lon="5.62054">
        <ele>1132</ele>
        <time>2019-06-19T09:11:45Z</time>
      </trkpt>
      <trkpt lat="44.26227" lon="5.62057">
        <ele>1132</ele>
        <time>2019-06-19T09:11:46Z</time>
      </trkpt>
      <trkpt lat="44.26227" lon="5.6206">
        <ele>1132</ele>
        <time>2019-06-19T09:11:47Z</time>
      </trkpt>
      <trkpt lat="44.26228" lon="5.62063">
        <ele>1132</ele>
        <time>2019-06-19T09:11:48Z</time>
      </trkpt>
      <trkpt lat="44.26228" lon="5.62065">
        <ele>1132</ele>
        <time>2019-06-19T09:11:49Z</time>
      </trkpt>
      <trkpt lat="44.26228" lon="5.62068">
        <ele>1132</ele>
        <time>2019-06-19T09:11:50Z</time>
      </trkpt>
      <trkpt lat="44.26228" lon="5.62072">
        <ele>1132</ele>
        <time>2019-06-19T09:11:51Z</time>
      </trkpt>
      <trkpt lat="44.26227" lon="5.62075">
        <ele>1133</ele>
        <time>2019-06-19T09:11:52Z</time>
      </trkpt>
      <trkpt lat="44.26227" lon="5.62078">
        <ele>1133</ele>
        <time>2019-06-19T09:11:53Z</time>
      </trkpt>
      <trkpt lat="44.26228" lon="5.62081">
        <ele>1133</ele>
        <time>2019-06-19T09:11:54Z</time>
      </trkpt>
      <trkpt lat="44.26228" lon="5.62083">
        <ele>1134</ele>
        <time>2019-06-19T09:11:55Z</time>
      </trkpt>
      <trkpt lat="44.26228" lon="5.62087">
        <ele>1134</ele>
        <time>2019-06-19T09:11:56Z</time>
      </trkpt>
      <trkpt lat="44.26228" lon="5.62089">
        <ele>1134</ele>
        <time>2019-06-19T09:11:57Z</time>
      </trkpt>
      <trkpt lat="44.26228" lon="5.62092">
        <ele>1135</ele>
        <time>2019-06-19T09:11:58Z</time>
      </trkpt>
      <trkpt lat="44.26228" lon="5.62094">
        <ele>1135</ele>
        <time>2019-06-19T09:11:59Z</time>
      </trkpt>
      <trkpt lat="44.26228" lon="5.62097">
        <ele>1135</ele>
        <time>2019-06-19T09:12:00Z</time>
      </trkpt>
      <trkpt lat="44.26228" lon="5.62099">
        <ele>1136</ele>
        <time>2019-06-19T09:12:01Z</time>
      </trkpt>
      <trkpt lat="44.26226" lon="5.62102">
        <ele>1136</ele>
        <time>2019-06-19T09:12:02Z</time>
      </trkpt>
      <trkpt lat="44.26226" lon="5.62104">
        <ele>1136</ele>
        <time>2019-06-19T09:12:03Z</time>
      </trkpt>
      <trkpt lat="44.26225" lon="5.62107">
        <ele>1136</ele>
        <time>2019-06-19T09:12:04Z</time>
      </trkpt>
      <trkpt lat="44.26224" lon="5.6211">
        <ele>1136</ele>
        <time>2019-06-19T09:12:05Z</time>
      </trkpt>
      <trkpt lat="44.26223" lon="5.62113">
        <ele>1136</ele>
        <time>2019-06-19T09:12:06Z</time>
      </trkpt>
      <trkpt lat="44.26222" lon="5.62115">
        <ele>1136</ele>
        <time>2019-06-19T09:12:07Z</time>
      </trkpt>
      <trkpt lat="44.26221" lon="5.62118">
        <ele>1136</ele>
        <time>2019-06-19T09:12:08Z</time>
      </trkpt>
      <trkpt lat="44.26221" lon="5.62121">
        <ele>1137</ele>
        <time>2019-06-19T09:12:09Z</time>
      </trkpt>
      <trkpt lat="44.26221" lon="5.62123">
        <ele>1137</ele>
        <time>2019-06-19T09:12:10Z</time>
      </trkpt>
      <trkpt lat="44.2622" lon="5.62126">
        <ele>1137</ele>
        <time>2019-06-19T09:12:11Z</time>
      </trkpt>
      <trkpt lat="44.2622" lon="5.62128">
        <ele>1138</ele>
        <time>2019-06-19T09:12:12Z</time>
      </trkpt>
      <trkpt lat="44.26218" lon="5.62131">
        <ele>1138</ele>
        <time>2019-06-19T09:12:13Z</time>
      </trkpt>
      <trkpt lat="44.26217" lon="5.62133">
        <ele>1139</ele>
        <time>2019-06-19T09:12:14Z</time>
      </trkpt>
      <trkpt lat="44.26216" lon="5.62135">
        <ele>1139</ele>
        <time>2019-06-19T09:12:15Z</time>
      </trkpt>
      <trkpt lat="44.26215" lon="5.62136">
        <ele>1139</ele>
        <time>2019-06-19T09:12:16Z</time>
      </trkpt>
      <trkpt lat="44.26213" lon="5.62139">
        <ele>1139</ele>
        <time>2019-06-19T09:12:17Z</time>
      </trkpt>
      <trkpt lat="44.26213" lon="5.62141">
        <ele>1139</ele>
        <time>2019-06-19T09:12:18Z</time>
      </trkpt>
      <trkpt lat="44.26212" lon="5.62143">
        <ele>1140</ele>
        <time>2019-06-19T09:12:19Z</time>
      </trkpt>
      <trkpt lat="44.26211" lon="5.62144">
        <ele>1140</ele>
        <time>2019-06-19T09:12:20Z</time>
      </trkpt>
      <trkpt lat="44.26209" lon="5.62145">
        <ele>1140</ele>
        <time>2019-06-19T09:12:21Z</time>
      </trkpt>
      <trkpt lat="44.26207" lon="5.62146">
        <ele>1140</ele>
        <time>2019-06-19T09:12:22Z</time>
      </trkpt>
      <trkpt lat="44.26206" lon="5.62148">
        <ele>1140</ele>
        <time>2019-06-19T09:12:23Z</time>
      </trkpt>
      <trkpt lat="44.26204" lon="5.62149">
        <ele>1140</ele>
        <time>2019-06-19T09:12:24Z</time>
      </trkpt>
      <trkpt lat="44.26202" lon="5.62151">
        <ele>1140</ele>
        <time>2019-06-19T09:12:25Z</time>
      </trkpt>
      <trkpt lat="44.26201" lon="5.62151">
        <ele>1140</ele>
        <time>2019-06-19T09:12:26Z</time>
      </trkpt>
      <trkpt lat="44.26198" lon="5.62151">
        <ele>1140</ele>
        <time>2019-06-19T09:12:27Z</time>
      </trkpt>
      <trkpt lat="44.26196" lon="5.6215">
        <ele>1140</ele>
        <time>2019-06-19T09:12:28Z</time>
      </trkpt>
      <trkpt lat="44.26193" lon="5.6215">
        <ele>1140</ele>
        <time>2019-06-19T09:12:29Z</time>
      </trkpt>
      <trkpt lat="44.26191" lon="5.62149">
        <ele>1140</ele>
        <time>2019-06-19T09:12:30Z</time>
      </trkpt>
      <trkpt lat="44.26188" lon="5.62148">
        <ele>1141</ele>
        <time>2019-06-19T09:12:31Z</time>
      </trkpt>
      <trkpt lat="44.26186" lon="5.62147">
        <ele>1141</ele>
        <time>2019-06-19T09:12:32Z</time>
      </trkpt>
      <trkpt lat="44.26184" lon="5.62145">
        <ele>1141</ele>
        <time>2019-06-19T09:12:33Z</time>
      </trkpt>
      <trkpt lat="44.26182" lon="5.62143">
        <ele>1141</ele>
        <time>2019-06-19T09:12:34Z</time>
      </trkpt>
      <trkpt lat="44.2618" lon="5.62142">
        <ele>1141</ele>
        <time>2019-06-19T09:12:35Z</time>
      </trkpt>
      <trkpt lat="44.26177" lon="5.62141">
        <ele>1141</ele>
        <time>2019-06-19T09:12:36Z</time>
      </trkpt>
      <trkpt lat="44.26175" lon="5.62141">
        <ele>1141</ele>
        <time>2019-06-19T09:12:37Z</time>
      </trkpt>
      <trkpt lat="44.26172" lon="5.62141">
        <ele>1141</ele>
        <time>2019-06-19T09:12:38Z</time>
      </trkpt>
      <trkpt lat="44.2617" lon="5.62143">
        <ele>1141</ele>
        <time>2019-06-19T09:12:39Z</time>
      </trkpt>
      <trkpt lat="44.26168" lon="5.62146">
        <ele>1141</ele>
        <time>2019-06-19T09:12:40Z</time>
      </trkpt>
      <trkpt lat="44.26167" lon="5.62149">
        <ele>1142</ele>
        <time>2019-06-19T09:12:41Z</time>
      </trkpt>
      <trkpt lat="44.26167" lon="5.62153">
        <ele>1142</ele>
        <time>2019-06-19T09:12:42Z</time>
      </trkpt>
      <trkpt lat="44.26168" lon="5.62156">
        <ele>1143</ele>
        <time>2019-06-19T09:12:43Z</time>
      </trkpt>
      <trkpt lat="44.2617" lon="5.62159">
        <ele>1143</ele>
        <time>2019-06-19T09:12:44Z</time>
      </trkpt>
      <trkpt lat="44.26172" lon="5.62162">
        <ele>1144</ele>
        <time>2019-06-19T09:12:45Z</time>
      </trkpt>
      <trkpt lat="44.26174" lon="5.62164">
        <ele>1144</ele>
        <time>2019-06-19T09:12:46Z</time>
      </trkpt>
      <trkpt lat="44.26177" lon="5.62166">
        <ele>1145</ele>
        <time>2019-06-19T09:12:47Z</time>
      </trkpt>
      <trkpt lat="44.2618" lon="5.62167">
        <ele>1146</ele>
        <time>2019-06-19T09:12:48Z</time>
      </trkpt>
      <trkpt lat="44.26183" lon="5.62169">
        <ele>1146</ele>
        <time>2019-06-19T09:12:49Z</time>
      </trkpt>
      <trkpt lat="44.26186" lon="5.62171">
        <ele>1146</ele>
        <time>2019-06-19T09:12:50Z</time>
      </trkpt>
      <trkpt lat="44.26189" lon="5.62173">
        <ele>1147</ele>
        <time>2019-06-19T09:12:51Z</time>
      </trkpt>
      <trkpt lat="44.26192" lon="5.62175">
        <ele>1147</ele>
        <time>2019-06-19T09:12:52Z</time>
      </trkpt>
      <trkpt lat="44.26195" lon="5.62177">
        <ele>1147</ele>
        <time>2019-06-19T09:12:53Z</time>
      </trkpt>
      <trkpt lat="44.26198" lon="5.62179">
        <ele>1147</ele>
        <time>2019-06-19T09:12:54Z</time>
      </trkpt>
      <trkpt lat="44.262" lon="5.62181">
        <ele>1147</ele>
        <time>2019-06-19T09:12:55Z</time>
      </trkpt>
      <trkpt lat="44.26203" lon="5.62183">
        <ele>1147</ele>
        <time>2019-06-19T09:12:56Z</time>
      </trkpt>
      <trkpt lat="44.26205" lon="5.62184">
        <ele>1147</ele>
        <time>2019-06-19T09:12:57Z</time>
      </trkpt>
      <trkpt lat="44.26207" lon="5.62185">
        <ele>1147</ele>
        <time>2019-06-19T09:12:58Z</time>
      </trkpt>
      <trkpt lat="44.2621" lon="5.62187">
        <ele>1147</ele>
        <time>2019-06-19T09:12:59Z</time>
      </trkpt>
      <trkpt lat="44.26212" lon="5.62188">
        <ele>1147</ele>
        <time>2019-06-19T09:13:00Z</time>
      </trkpt>
      <trkpt lat="44.26214" lon="5.62189">
        <ele>1147</ele>
        <time>2019-06-19T09:13:01Z</time>
      </trkpt>
      <trkpt lat="44.26216" lon="5.62191">
        <ele>1147</ele>
        <time>2019-06-19T09:13:02Z</time>
      </trkpt>
      <trkpt lat="44.26218" lon="5.62193">
        <ele>1147</ele>
        <time>2019-06-19T09:13:03Z</time>
      </trkpt>
      <trkpt lat="44.26221" lon="5.62194">
        <ele>1147</ele>
        <time>2019-06-19T09:13:04Z</time>
      </trkpt>
      <trkpt lat="44.26223" lon="5.62195">
        <ele>1147</ele>
        <time>2019-06-19T09:13:05Z</time>
      </trkpt>
      <trkpt lat="44.26225" lon="5.62197">
        <ele>1147</ele>
        <time>2019-06-19T09:13:06Z</time>
      </trkpt>
      <trkpt lat="44.26227" lon="5.62198">
        <ele>1147</ele>
        <time>2019-06-19T09:13:07Z</time>
      </trkpt>
      <trkpt lat="44.26229" lon="5.622">
        <ele>1147</ele>
        <time>2019-06-19T09:13:08Z</time>
      </trkpt>
      <trkpt lat="44.26232" lon="5.622">
        <ele>1147</ele>
        <time>2019-06-19T09:13:09Z</time>
      </trkpt>
      <trkpt lat="44.26235" lon="5.62201">
        <ele>1147</ele>
        <time>2019-06-19T09:13:10Z</time>
      </trkpt>
      <trkpt lat="44.26237" lon="5.62202">
        <ele>1147</ele>
        <time>2019-06-19T09:13:11Z</time>
      </trkpt>
      <trkpt lat="44.26239" lon="5.62203">
        <ele>1147</ele>
        <time>2019-06-19T09:13:12Z</time>
      </trkpt>
      <trkpt lat="44.26242" lon="5.62203">
        <ele>1147</ele>
        <time>2019-06-19T09:13:13Z</time>
      </trkpt>
      <trkpt lat="44.26244" lon="5.62204">
        <ele>1147</ele>
        <time>2019-06-19T09:13:14Z</time>
      </trkpt>
      <trkpt lat="44.26246" lon="5.62204">
        <ele>1147</ele>
        <time>2019-06-19T09:13:15Z</time>
      </trkpt>
      <trkpt lat="44.26247" lon="5.62204">
        <ele>1147</ele>
        <time>2019-06-19T09:13:16Z</time>
      </trkpt>
      <trkpt lat="44.26248" lon="5.62203">
        <ele>1147</ele>
        <time>2019-06-19T09:13:18Z</time>
      </trkpt>
      <trkpt lat="44.26248" lon="5.62201">
        <ele>1147</ele>
        <time>2019-06-19T09:13:20Z</time>
      </trkpt>
      <trkpt lat="44.26248" lon="5.62199">
        <ele>1147</ele>
        <time>2019-06-19T09:13:24Z</time>
      </trkpt>
      <trkpt lat="44.26249" lon="5.622">
        <ele>1147</ele>
        <time>2019-06-19T09:13:33Z</time>
      </trkpt>
      <trkpt lat="44.2625" lon="5.62199">
        <ele>1148</ele>
        <time>2019-06-19T09:13:36Z</time>
      </trkpt>
      <trkpt lat="44.26252" lon="5.62198">
        <ele>1150</ele>
        <time>2019-06-19T09:13:45Z</time>
      </trkpt>
      <trkpt lat="44.2625" lon="5.62197">
        <ele>1152</ele>
        <time>2019-06-19T09:14:20Z</time>
      </trkpt>
      <trkpt lat="44.26252" lon="5.62197">
        <ele>1152</ele>
        <time>2019-06-19T09:14:45Z</time>
      </trkpt>
      <trkpt lat="44.26251" lon="5.62198">
        <ele>1153</ele>
        <time>2019-06-19T09:14:52Z</time>
      </trkpt>
      <trkpt lat="44.26251" lon="5.622">
        <ele>1157</ele>
        <time>2019-06-19T09:15:15Z</time>
      </trkpt>
      <trkpt lat="44.2625" lon="5.62199">
        <ele>1159</ele>
        <time>2019-06-19T09:15:53Z</time>
      </trkpt>
      <trkpt lat="44.26249" lon="5.62198">
        <ele>1159</ele>
        <time>2019-06-19T09:16:08Z</time>
      </trkpt>
      <trkpt lat="44.26247" lon="5.62198">
        <ele>1159</ele>
        <time>2019-06-19T09:16:27Z</time>
      </trkpt>
      <trkpt lat="44.26246" lon="5.62198">
        <ele>1159</ele>
        <time>2019-06-19T09:16:30Z</time>
      </trkpt>
      <trkpt lat="44.26245" lon="5.62199">
        <ele>1159</ele>
        <time>2019-06-19T09:16:34Z</time>
      </trkpt>
      <trkpt lat="44.26244" lon="5.622">
        <ele>1159</ele>
        <time>2019-06-19T09:16:38Z</time>
      </trkpt>
      <trkpt lat="44.26242" lon="5.62201">
        <ele>1159</ele>
        <time>2019-06-19T09:16:46Z</time>
      </trkpt>
      <trkpt lat="44.26241" lon="5.62201">
        <ele>1159</ele>
        <time>2019-06-19T09:16:51Z</time>
      </trkpt>
      <trkpt lat="44.2624" lon="5.62201">
        <ele>1159</ele>
        <time>2019-06-19T09:17:03Z</time>
      </trkpt>
      <trkpt lat="44.26241" lon="5.62201">
        <ele>1159</ele>
        <time>2019-06-19T09:17:27Z</time>
      </trkpt>
      <trkpt lat="44.26242" lon="5.622">
        <ele>1159</ele>
        <time>2019-06-19T09:17:36Z</time>
      </trkpt>
      <trkpt lat="44.26243" lon="5.622">
        <ele>1158</ele>
        <time>2019-06-19T09:17:48Z</time>
      </trkpt>
      <trkpt lat="44.26244" lon="5.62199">
        <ele>1158</ele>
        <time>2019-06-19T09:17:53Z</time>
      </trkpt>
      <trkpt lat="44.26246" lon="5.62199">
        <ele>1158</ele>
        <time>2019-06-19T09:18:54Z</time>
      </trkpt>
      <trkpt lat="44.26247" lon="5.62198">
        <ele>1158</ele>
        <time>2019-06-19T09:18:57Z</time>
      </trkpt>
      <trkpt lat="44.26248" lon="5.62197">
        <ele>1158</ele>
        <time>2019-06-19T09:19:00Z</time>
      </trkpt>
      <trkpt lat="44.2625" lon="5.62195">
        <ele>1158</ele>
        <time>2019-06-19T09:19:09Z</time>
      </trkpt>
      <trkpt lat="44.26251" lon="5.62194">
        <ele>1158</ele>
        <time>2019-06-19T09:19:15Z</time>
      </trkpt>
      <trkpt lat="44.2625" lon="5.62195">
        <ele>1158</ele>
        <time>2019-06-19T09:19:25Z</time>
      </trkpt>
      <trkpt lat="44.26249" lon="5.62197">
        <ele>1158</ele>
        <time>2019-06-19T09:19:31Z</time>
      </trkpt>
      <trkpt lat="44.26248" lon="5.62198">
        <ele>1158</ele>
        <time>2019-06-19T09:19:36Z</time>
      </trkpt>
      <trkpt lat="44.26247" lon="5.62198">
        <ele>1158</ele>
        <time>2019-06-19T09:19:41Z</time>
      </trkpt>
      <trkpt lat="44.26247" lon="5.62197">
        <ele>1157</ele>
        <time>2019-06-19T09:19:46Z</time>
      </trkpt>
      <trkpt lat="44.26247" lon="5.62195">
        <ele>1157</ele>
        <time>2019-06-19T09:19:48Z</time>
      </trkpt>
      <trkpt lat="44.26247" lon="5.62193">
        <ele>1157</ele>
        <time>2019-06-19T09:19:50Z</time>
      </trkpt>
      <trkpt lat="44.26248" lon="5.62191">
        <ele>1157</ele>
        <time>2019-06-19T09:19:51Z</time>
      </trkpt>
      <trkpt lat="44.26249" lon="5.6219">
        <ele>1157</ele>
        <time>2019-06-19T09:19:55Z</time>
      </trkpt>
      <trkpt lat="44.26249" lon="5.62188">
        <ele>1157</ele>
        <time>2019-06-19T09:20:11Z</time>
      </trkpt>
      <trkpt lat="44.2625" lon="5.62187">
        <ele>1157</ele>
        <time>2019-06-19T09:20:12Z</time>
      </trkpt>
      <trkpt lat="44.26251" lon="5.62184">
        <ele>1157</ele>
        <time>2019-06-19T09:20:13Z</time>
      </trkpt>
      <trkpt lat="44.26252" lon="5.62182">
        <ele>1157</ele>
        <time>2019-06-19T09:20:14Z</time>
      </trkpt>
      <trkpt lat="44.26254" lon="5.6218">
        <ele>1157</ele>
        <time>2019-06-19T09:20:15Z</time>
      </trkpt>
      <trkpt lat="44.26256" lon="5.62177">
        <ele>1157</ele>
        <time>2019-06-19T09:20:16Z</time>
      </trkpt>
      <trkpt lat="44.26258" lon="5.62174">
        <ele>1157</ele>
        <time>2019-06-19T09:20:17Z</time>
      </trkpt>
      <trkpt lat="44.2626" lon="5.6217">
        <ele>1157</ele>
        <time>2019-06-19T09:20:18Z</time>
      </trkpt>
      <trkpt lat="44.26263" lon="5.62164">
        <ele>1156</ele>
        <time>2019-06-19T09:20:19Z</time>
      </trkpt>
      <trkpt lat="44.26265" lon="5.62158">
        <ele>1156</ele>
        <time>2019-06-19T09:20:20Z</time>
      </trkpt>
      <trkpt lat="44.26268" lon="5.62152">
        <ele>1155</ele>
        <time>2019-06-19T09:20:21Z</time>
      </trkpt>
      <trkpt lat="44.26271" lon="5.62146">
        <ele>1154</ele>
        <time>2019-06-19T09:20:22Z</time>
      </trkpt>
      <trkpt lat="44.26275" lon="5.6214">
        <ele>1154</ele>
        <time>2019-06-19T09:20:23Z</time>
      </trkpt>
      <trkpt lat="44.26279" lon="5.62133">
        <ele>1153</ele>
        <time>2019-06-19T09:20:24Z</time>
      </trkpt>
      <trkpt lat="44.26283" lon="5.62125">
        <ele>1152</ele>
        <time>2019-06-19T09:20:25Z</time>
      </trkpt>
      <trkpt lat="44.26288" lon="5.62118">
        <ele>1152</ele>
        <time>2019-06-19T09:20:26Z</time>
      </trkpt>
      <trkpt lat="44.26294" lon="5.62111">
        <ele>1151</ele>
        <time>2019-06-19T09:20:27Z</time>
      </trkpt>
      <trkpt lat="44.263" lon="5.62104">
        <ele>1151</ele>
        <time>2019-06-19T09:20:28Z</time>
      </trkpt>
      <trkpt lat="44.26307" lon="5.62096">
        <ele>1151</ele>
        <time>2019-06-19T09:20:29Z</time>
      </trkpt>
      <trkpt lat="44.26315" lon="5.62089">
        <ele>1151</ele>
        <time>2019-06-19T09:20:30Z</time>
      </trkpt>
      <trkpt lat="44.26322" lon="5.62081">
        <ele>1151</ele>
        <time>2019-06-19T09:20:31Z</time>
      </trkpt>
      <trkpt lat="44.26329" lon="5.62074">
        <ele>1151</ele>
        <time>2019-06-19T09:20:32Z</time>
      </trkpt>
      <trkpt lat="44.26338" lon="5.62066">
        <ele>1151</ele>
        <time>2019-06-19T09:20:33Z</time>
      </trkpt>
      <trkpt lat="44.26347" lon="5.62058">
        <ele>1151</ele>
        <time>2019-06-19T09:20:34Z</time>
      </trkpt>
      <trkpt lat="44.26356" lon="5.6205">
        <ele>1151</ele>
        <time>2019-06-19T09:20:35Z</time>
      </trkpt>
      <trkpt lat="44.26365" lon="5.62042">
        <ele>1151</ele>
        <time>2019-06-19T09:20:36Z</time>
      </trkpt>
      <trkpt lat="44.26375" lon="5.62033">
        <ele>1151</ele>
        <time>2019-06-19T09:20:37Z</time>
      </trkpt>
      <trkpt lat="44.26384" lon="5.62025">
        <ele>1151</ele>
        <time>2019-06-19T09:20:38Z</time>
      </trkpt>
      <trkpt lat="44.26392" lon="5.62018">
        <ele>1151</ele>
        <time>2019-06-19T09:20:39Z</time>
      </trkpt>
      <trkpt lat="44.26403" lon="5.62011">
        <ele>1151</ele>
        <time>2019-06-19T09:20:40Z</time>
      </trkpt>
      <trkpt lat="44.26413" lon="5.62003">
        <ele>1151</ele>
        <time>2019-06-19T09:20:41Z</time>
      </trkpt>
      <trkpt lat="44.26421" lon="5.61994">
        <ele>1151</ele>
        <time>2019-06-19T09:20:42Z</time>
      </trkpt>
      <trkpt lat="44.26428" lon="5.61983">
        <ele>1151</ele>
        <time>2019-06-19T09:20:43Z</time>
      </trkpt>
      <trkpt lat="44.26434" lon="5.6197">
        <ele>1150</ele>
        <time>2019-06-19T09:20:44Z</time>
      </trkpt>
      <trkpt lat="44.26436" lon="5.61956">
        <ele>1149</ele>
        <time>2019-06-19T09:20:45Z</time>
      </trkpt>
      <trkpt lat="44.26439" lon="5.61942">
        <ele>1148</ele>
        <time>2019-06-19T09:20:46Z</time>
      </trkpt>
      <trkpt lat="44.26441" lon="5.61928">
        <ele>1147</ele>
        <time>2019-06-19T09:20:47Z</time>
      </trkpt>
      <trkpt lat="44.26445" lon="5.61914">
        <ele>1145</ele>
        <time>2019-06-19T09:20:48Z</time>
      </trkpt>
      <trkpt lat="44.26448" lon="5.61901">
        <ele>1143</ele>
        <time>2019-06-19T09:20:49Z</time>
      </trkpt>
      <trkpt lat="44.26453" lon="5.61889">
        <ele>1141</ele>
        <time>2019-06-19T09:20:50Z</time>
      </trkpt>
      <trkpt lat="44.26457" lon="5.61877">
        <ele>1139</ele>
        <time>2019-06-19T09:20:51Z</time>
      </trkpt>
      <trkpt lat="44.26462" lon="5.61865">
        <ele>1137</ele>
        <time>2019-06-19T09:20:52Z</time>
      </trkpt>
      <trkpt lat="44.26468" lon="5.61853">
        <ele>1136</ele>
        <time>2019-06-19T09:20:53Z</time>
      </trkpt>
      <trkpt lat="44.26474" lon="5.61842">
        <ele>1134</ele>
        <time>2019-06-19T09:20:54Z</time>
      </trkpt>
      <trkpt lat="44.2648" lon="5.61832">
        <ele>1133</ele>
        <time>2019-06-19T09:20:55Z</time>
      </trkpt>
      <trkpt lat="44.26485" lon="5.61822">
        <ele>1132</ele>
        <time>2019-06-19T09:20:56Z</time>
      </trkpt>
      <trkpt lat="44.26492" lon="5.61814">
        <ele>1130</ele>
        <time>2019-06-19T09:20:57Z</time>
      </trkpt>
      <trkpt lat="44.265" lon="5.61809">
        <ele>1129</ele>
        <time>2019-06-19T09:20:58Z</time>
      </trkpt>
      <trkpt lat="44.26508" lon="5.61807">
        <ele>1128</ele>
        <time>2019-06-19T09:20:59Z</time>
      </trkpt>
      <trkpt lat="44.26516" lon="5.61807">
        <ele>1126</ele>
        <time>2019-06-19T09:21:00Z</time>
      </trkpt>
      <trkpt lat="44.26523" lon="5.61807">
        <ele>1125</ele>
        <time>2019-06-19T09:21:01Z</time>
      </trkpt>
      <trkpt lat="44.26531" lon="5.61806">
        <ele>1124</ele>
        <time>2019-06-19T09:21:02Z</time>
      </trkpt>
      <trkpt lat="44.26539" lon="5.61802">
        <ele>1123</ele>
        <time>2019-06-19T09:21:03Z</time>
      </trkpt>
      <trkpt lat="44.26547" lon="5.61796">
        <ele>1122</ele>
        <time>2019-06-19T09:21:04Z</time>
      </trkpt>
      <trkpt lat="44.26553" lon="5.61786">
        <ele>1121</ele>
        <time>2019-06-19T09:21:05Z</time>
      </trkpt>
      <trkpt lat="44.26559" lon="5.61775">
        <ele>1120</ele>
        <time>2019-06-19T09:21:06Z</time>
      </trkpt>
      <trkpt lat="44.26562" lon="5.61761">
        <ele>1119</ele>
        <time>2019-06-19T09:21:07Z</time>
      </trkpt>
      <trkpt lat="44.26565" lon="5.61745">
        <ele>1118</ele>
        <time>2019-06-19T09:21:08Z</time>
      </trkpt>
      <trkpt lat="44.26564" lon="5.6173">
        <ele>1117</ele>
        <time>2019-06-19T09:21:09Z</time>
      </trkpt>
      <trkpt lat="44.26559" lon="5.61714">
        <ele>1116</ele>
        <time>2019-06-19T09:21:10Z</time>
      </trkpt>
      <trkpt lat="44.26555" lon="5.61701">
        <ele>1115</ele>
        <time>2019-06-19T09:21:11Z</time>
      </trkpt>
      <trkpt lat="44.26552" lon="5.61689">
        <ele>1114</ele>
        <time>2019-06-19T09:21:12Z</time>
      </trkpt>
      <trkpt lat="44.26551" lon="5.61677">
        <ele>1113</ele>
        <time>2019-06-19T09:21:13Z</time>
      </trkpt>
      <trkpt lat="44.26549" lon="5.61664">
        <ele>1112</ele>
        <time>2019-06-19T09:21:14Z</time>
      </trkpt>
      <trkpt lat="44.2655" lon="5.61653">
        <ele>1112</ele>
        <time>2019-06-19T09:21:15Z</time>
      </trkpt>
      <trkpt lat="44.26553" lon="5.61642">
        <ele>1111</ele>
        <time>2019-06-19T09:21:16Z</time>
      </trkpt>
      <trkpt lat="44.26557" lon="5.61632">
        <ele>1111</ele>
        <time>2019-06-19T09:21:17Z</time>
      </trkpt>
      <trkpt lat="44.2656" lon="5.61622">
        <ele>1110</ele>
        <time>2019-06-19T09:21:18Z</time>
      </trkpt>
      <trkpt lat="44.26561" lon="5.61611">
        <ele>1110</ele>
        <time>2019-06-19T09:21:19Z</time>
      </trkpt>
      <trkpt lat="44.26564" lon="5.61599">
        <ele>1109</ele>
        <time>2019-06-19T09:21:20Z</time>
      </trkpt>
      <trkpt lat="44.26566" lon="5.61588">
        <ele>1108</ele>
        <time>2019-06-19T09:21:21Z</time>
      </trkpt>
      <trkpt lat="44.2657" lon="5.61576">
        <ele>1107</ele>
        <time>2019-06-19T09:21:22Z</time>
      </trkpt>
      <trkpt lat="44.26575" lon="5.61564">
        <ele>1107</ele>
        <time>2019-06-19T09:21:23Z</time>
      </trkpt>
      <trkpt lat="44.26581" lon="5.61553">
        <ele>1106</ele>
        <time>2019-06-19T09:21:24Z</time>
      </trkpt>
      <trkpt lat="44.26588" lon="5.61542">
        <ele>1105</ele>
        <time>2019-06-19T09:21:25Z</time>
      </trkpt>
      <trkpt lat="44.26594" lon="5.6153">
        <ele>1105</ele>
        <time>2019-06-19T09:21:26Z</time>
      </trkpt>
      <trkpt lat="44.266" lon="5.61518">
        <ele>1104</ele>
        <time>2019-06-19T09:21:27Z</time>
      </trkpt>
      <trkpt lat="44.26606" lon="5.61506">
        <ele>1104</ele>
        <time>2019-06-19T09:21:28Z</time>
      </trkpt>
      <trkpt lat="44.26612" lon="5.61494">
        <ele>1103</ele>
        <time>2019-06-19T09:21:29Z</time>
      </trkpt>
      <trkpt lat="44.26619" lon="5.61483">
        <ele>1102</ele>
        <time>2019-06-19T09:21:30Z</time>
      </trkpt>
      <trkpt lat="44.26627" lon="5.61474">
        <ele>1101</ele>
        <time>2019-06-19T09:21:31Z</time>
      </trkpt>
      <trkpt lat="44.26636" lon="5.61466">
        <ele>1101</ele>
        <time>2019-06-19T09:21:32Z</time>
      </trkpt>
      <trkpt lat="44.26645" lon="5.6146">
        <ele>1100</ele>
        <time>2019-06-19T09:21:33Z</time>
      </trkpt>
      <trkpt lat="44.26654" lon="5.61456">
        <ele>1099</ele>
        <time>2019-06-19T09:21:34Z</time>
      </trkpt>
      <trkpt lat="44.26664" lon="5.61452">
        <ele>1098</ele>
        <time>2019-06-19T09:21:35Z</time>
      </trkpt>
      <trkpt lat="44.26673" lon="5.61446">
        <ele>1098</ele>
        <time>2019-06-19T09:21:36Z</time>
      </trkpt>
      <trkpt lat="44.26682" lon="5.61439">
        <ele>1097</ele>
        <time>2019-06-19T09:21:37Z</time>
      </trkpt>
      <trkpt lat="44.2669" lon="5.61431">
        <ele>1096</ele>
        <time>2019-06-19T09:21:38Z</time>
      </trkpt>
      <trkpt lat="44.26699" lon="5.61422">
        <ele>1095</ele>
        <time>2019-06-19T09:21:39Z</time>
      </trkpt>
      <trkpt lat="44.26707" lon="5.61414">
        <ele>1094</ele>
        <time>2019-06-19T09:21:40Z</time>
      </trkpt>
      <trkpt lat="44.26716" lon="5.61405">
        <ele>1093</ele>
        <time>2019-06-19T09:21:41Z</time>
      </trkpt>
      <trkpt lat="44.26725" lon="5.61395">
        <ele>1092</ele>
        <time>2019-06-19T09:21:42Z</time>
      </trkpt>
      <trkpt lat="44.26734" lon="5.61384">
        <ele>1091</ele>
        <time>2019-06-19T09:21:43Z</time>
      </trkpt>
      <trkpt lat="44.26743" lon="5.61374">
        <ele>1090</ele>
        <time>2019-06-19T09:21:44Z</time>
      </trkpt>
      <trkpt lat="44.26752" lon="5.61363">
        <ele>1089</ele>
        <time>2019-06-19T09:21:45Z</time>
      </trkpt>
      <trkpt lat="44.26762" lon="5.61352">
        <ele>1088</ele>
        <time>2019-06-19T09:21:46Z</time>
      </trkpt>
      <trkpt lat="44.26772" lon="5.61341">
        <ele>1087</ele>
        <time>2019-06-19T09:21:47Z</time>
      </trkpt>
      <trkpt lat="44.26781" lon="5.6133">
        <ele>1086</ele>
        <time>2019-06-19T09:21:48Z</time>
      </trkpt>
      <trkpt lat="44.26791" lon="5.61318">
        <ele>1085</ele>
        <time>2019-06-19T09:21:49Z</time>
      </trkpt>
      <trkpt lat="44.26799" lon="5.61307">
        <ele>1084</ele>
        <time>2019-06-19T09:21:50Z</time>
      </trkpt>
      <trkpt lat="44.26807" lon="5.61295">
        <ele>1083</ele>
        <time>2019-06-19T09:21:51Z</time>
      </trkpt>
      <trkpt lat="44.26814" lon="5.61282">
        <ele>1082</ele>
        <time>2019-06-19T09:21:52Z</time>
      </trkpt>
      <trkpt lat="44.2682" lon="5.61269">
        <ele>1081</ele>
        <time>2019-06-19T09:21:53Z</time>
      </trkpt>
      <trkpt lat="44.26825" lon="5.61257">
        <ele>1080</ele>
        <time>2019-06-19T09:21:54Z</time>
      </trkpt>
      <trkpt lat="44.26832" lon="5.61245">
        <ele>1079</ele>
        <time>2019-06-19T09:21:55Z</time>
      </trkpt>
      <trkpt lat="44.26839" lon="5.61235">
        <ele>1078</ele>
        <time>2019-06-19T09:21:56Z</time>
      </trkpt>
      <trkpt lat="44.26848" lon="5.61226">
        <ele>1077</ele>
        <time>2019-06-19T09:21:57Z</time>
      </trkpt>
      <trkpt lat="44.26857" lon="5.61218">
        <ele>1076</ele>
        <time>2019-06-19T09:21:58Z</time>
      </trkpt>
      <trkpt lat="44.26867" lon="5.61211">
        <ele>1075</ele>
        <time>2019-06-19T09:21:59Z</time>
      </trkpt>
      <trkpt lat="44.26878" lon="5.61204">
        <ele>1074</ele>
        <time>2019-06-19T09:22:00Z</time>
      </trkpt>
      <trkpt lat="44.26888" lon="5.61197">
        <ele>1073</ele>
        <time>2019-06-19T09:22:01Z</time>
      </trkpt>
      <trkpt lat="44.26898" lon="5.61189">
        <ele>1072</ele>
        <time>2019-06-19T09:22:02Z</time>
      </trkpt>
      <trkpt lat="44.26907" lon="5.6118">
        <ele>1071</ele>
        <time>2019-06-19T09:22:03Z</time>
      </trkpt>
      <trkpt lat="44.26916" lon="5.61169">
        <ele>1070</ele>
        <time>2019-06-19T09:22:04Z</time>
      </trkpt>
      <trkpt lat="44.26925" lon="5.61159">
        <ele>1069</ele>
        <time>2019-06-19T09:22:05Z</time>
      </trkpt>
      <trkpt lat="44.26935" lon="5.6115">
        <ele>1068</ele>
        <time>2019-06-19T09:22:06Z</time>
      </trkpt>
      <trkpt lat="44.26944" lon="5.6114">
        <ele>1067</ele>
        <time>2019-06-19T09:22:07Z</time>
      </trkpt>
      <trkpt lat="44.26954" lon="5.61132">
        <ele>1066</ele>
        <time>2019-06-19T09:22:08Z</time>
      </trkpt>
      <trkpt lat="44.26965" lon="5.61124">
        <ele>1065</ele>
        <time>2019-06-19T09:22:09Z</time>
      </trkpt>
      <trkpt lat="44.26976" lon="5.61115">
        <ele>1064</ele>
        <time>2019-06-19T09:22:10Z</time>
      </trkpt>
      <trkpt lat="44.26986" lon="5.61106">
        <ele>1063</ele>
        <time>2019-06-19T09:22:11Z</time>
      </trkpt>
      <trkpt lat="44.26996" lon="5.61097">
        <ele>1062</ele>
        <time>2019-06-19T09:22:12Z</time>
      </trkpt>
      <trkpt lat="44.27005" lon="5.61089">
        <ele>1061</ele>
        <time>2019-06-19T09:22:13Z</time>
      </trkpt>
      <trkpt lat="44.27015" lon="5.61082">
        <ele>1060</ele>
        <time>2019-06-19T09:22:14Z</time>
      </trkpt>
      <trkpt lat="44.27023" lon="5.61076">
        <ele>1060</ele>
        <time>2019-06-19T09:22:15Z</time>
      </trkpt>
      <trkpt lat="44.27032" lon="5.61071">
        <ele>1059</ele>
        <time>2019-06-19T09:22:16Z</time>
      </trkpt>
      <trkpt lat="44.27041" lon="5.61068">
        <ele>1058</ele>
        <time>2019-06-19T09:22:17Z</time>
      </trkpt>
      <trkpt lat="44.27052" lon="5.61066">
        <ele>1057</ele>
        <time>2019-06-19T09:22:18Z</time>
      </trkpt>
      <trkpt lat="44.2706" lon="5.61064">
        <ele>1056</ele>
        <time>2019-06-19T09:22:19Z</time>
      </trkpt>
      <trkpt lat="44.27069" lon="5.61062">
        <ele>1055</ele>
        <time>2019-06-19T09:22:20Z</time>
      </trkpt>
      <trkpt lat="44.27078" lon="5.61059">
        <ele>1054</ele>
        <time>2019-06-19T09:22:21Z</time>
      </trkpt>
      <trkpt lat="44.27086" lon="5.61056">
        <ele>1053</ele>
        <time>2019-06-19T09:22:22Z</time>
      </trkpt>
      <trkpt lat="44.27093" lon="5.61051">
        <ele>1052</ele>
        <time>2019-06-19T09:22:23Z</time>
      </trkpt>
      <trkpt lat="44.271" lon="5.61046">
        <ele>1051</ele>
        <time>2019-06-19T09:22:24Z</time>
      </trkpt>
      <trkpt lat="44.27108" lon="5.61042">
        <ele>1050</ele>
        <time>2019-06-19T09:22:25Z</time>
      </trkpt>
      <trkpt lat="44.27116" lon="5.61038">
        <ele>1049</ele>
        <time>2019-06-19T09:22:26Z</time>
      </trkpt>
      <trkpt lat="44.27124" lon="5.61034">
        <ele>1048</ele>
        <time>2019-06-19T09:22:27Z</time>
      </trkpt>
      <trkpt lat="44.27133" lon="5.61031">
        <ele>1047</ele>
        <time>2019-06-19T09:22:28Z</time>
      </trkpt>
      <trkpt lat="44.27141" lon="5.61027">
        <ele>1047</ele>
        <time>2019-06-19T09:22:29Z</time>
      </trkpt>
      <trkpt lat="44.27149" lon="5.61022">
        <ele>1047</ele>
        <time>2019-06-19T09:22:30Z</time>
      </trkpt>
      <trkpt lat="44.27156" lon="5.61016">
        <ele>1046</ele>
        <time>2019-06-19T09:22:31Z</time>
      </trkpt>
      <trkpt lat="44.27163" lon="5.6101">
        <ele>1046</ele>
        <time>2019-06-19T09:22:32Z</time>
      </trkpt>
      <trkpt lat="44.27171" lon="5.61005">
        <ele>1045</ele>
        <time>2019-06-19T09:22:33Z</time>
      </trkpt>
      <trkpt lat="44.27177" lon="5.61001">
        <ele>1045</ele>
        <time>2019-06-19T09:22:34Z</time>
      </trkpt>
      <trkpt lat="44.27185" lon="5.60998">
        <ele>1044</ele>
        <time>2019-06-19T09:22:35Z</time>
      </trkpt>
      <trkpt lat="44.27191" lon="5.60996">
        <ele>1044</ele>
        <time>2019-06-19T09:22:36Z</time>
      </trkpt>
      <trkpt lat="44.27198" lon="5.60993">
        <ele>1043</ele>
        <time>2019-06-19T09:22:37Z</time>
      </trkpt>
      <trkpt lat="44.27204" lon="5.6099">
        <ele>1042</ele>
        <time>2019-06-19T09:22:38Z</time>
      </trkpt>
      <trkpt lat="44.2721" lon="5.60988">
        <ele>1042</ele>
        <time>2019-06-19T09:22:39Z</time>
      </trkpt>
      <trkpt lat="44.27217" lon="5.60985">
        <ele>1041</ele>
        <time>2019-06-19T09:22:40Z</time>
      </trkpt>
      <trkpt lat="44.27225" lon="5.60982">
        <ele>1041</ele>
        <time>2019-06-19T09:22:41Z</time>
      </trkpt>
      <trkpt lat="44.27232" lon="5.60979">
        <ele>1040</ele>
        <time>2019-06-19T09:22:42Z</time>
      </trkpt>
      <trkpt lat="44.2724" lon="5.60976">
        <ele>1040</ele>
        <time>2019-06-19T09:22:43Z</time>
      </trkpt>
      <trkpt lat="44.27247" lon="5.60974">
        <ele>1039</ele>
        <time>2019-06-19T09:22:44Z</time>
      </trkpt>
      <trkpt lat="44.27255" lon="5.60971">
        <ele>1038</ele>
        <time>2019-06-19T09:22:45Z</time>
      </trkpt>
      <trkpt lat="44.27262" lon="5.60968">
        <ele>1038</ele>
        <time>2019-06-19T09:22:46Z</time>
      </trkpt>
      <trkpt lat="44.2727" lon="5.60964">
        <ele>1037</ele>
        <time>2019-06-19T09:22:47Z</time>
      </trkpt>
      <trkpt lat="44.27277" lon="5.60959">
        <ele>1037</ele>
        <time>2019-06-19T09:22:48Z</time>
      </trkpt>
      <trkpt lat="44.27284" lon="5.60951">
        <ele>1036</ele>
        <time>2019-06-19T09:22:49Z</time>
      </trkpt>
      <trkpt lat="44.27289" lon="5.60941">
        <ele>1036</ele>
        <time>2019-06-19T09:22:50Z</time>
      </trkpt>
      <trkpt lat="44.27294" lon="5.6093">
        <ele>1036</ele>
        <time>2019-06-19T09:22:51Z</time>
      </trkpt>
      <trkpt lat="44.27297" lon="5.60917">
        <ele>1035</ele>
        <time>2019-06-19T09:22:52Z</time>
      </trkpt>
      <trkpt lat="44.27301" lon="5.60905">
        <ele>1035</ele>
        <time>2019-06-19T09:22:53Z</time>
      </trkpt>
      <trkpt lat="44.27304" lon="5.60893">
        <ele>1034</ele>
        <time>2019-06-19T09:22:54Z</time>
      </trkpt>
      <trkpt lat="44.27309" lon="5.60882">
        <ele>1033</ele>
        <time>2019-06-19T09:22:55Z</time>
      </trkpt>
      <trkpt lat="44.27316" lon="5.60873">
        <ele>1033</ele>
        <time>2019-06-19T09:22:56Z</time>
      </trkpt>
      <trkpt lat="44.27321" lon="5.60865">
        <ele>1032</ele>
        <time>2019-06-19T09:22:57Z</time>
      </trkpt>
      <trkpt lat="44.27325" lon="5.60857">
        <ele>1032</ele>
        <time>2019-06-19T09:22:58Z</time>
      </trkpt>
      <trkpt lat="44.27328" lon="5.60848">
        <ele>1031</ele>
        <time>2019-06-19T09:22:59Z</time>
      </trkpt>
      <trkpt lat="44.27329" lon="5.60839">
        <ele>1030</ele>
        <time>2019-06-19T09:23:00Z</time>
      </trkpt>
      <trkpt lat="44.27328" lon="5.6083">
        <ele>1029</ele>
        <time>2019-06-19T09:23:01Z</time>
      </trkpt>
      <trkpt lat="44.27325" lon="5.60823">
        <ele>1029</ele>
        <time>2019-06-19T09:23:02Z</time>
      </trkpt>
      <trkpt lat="44.27319" lon="5.60817">
        <ele>1028</ele>
        <time>2019-06-19T09:23:03Z</time>
      </trkpt>
      <trkpt lat="44.27316" lon="5.6081">
        <ele>1027</ele>
        <time>2019-06-19T09:23:04Z</time>
      </trkpt>
      <trkpt lat="44.27315" lon="5.60802">
        <ele>1026</ele>
        <time>2019-06-19T09:23:05Z</time>
      </trkpt>
      <trkpt lat="44.27315" lon="5.60793">
        <ele>1025</ele>
        <time>2019-06-19T09:23:06Z</time>
      </trkpt>
      <trkpt lat="44.27316" lon="5.60786">
        <ele>1024</ele>
        <time>2019-06-19T09:23:07Z</time>
      </trkpt>
      <trkpt lat="44.27318" lon="5.60777">
        <ele>1024</ele>
        <time>2019-06-19T09:23:08Z</time>
      </trkpt>
      <trkpt lat="44.27322" lon="5.60769">
        <ele>1023</ele>
        <time>2019-06-19T09:23:09Z</time>
      </trkpt>
      <trkpt lat="44.27326" lon="5.60759">
        <ele>1023</ele>
        <time>2019-06-19T09:23:10Z</time>
      </trkpt>
      <trkpt lat="44.27333" lon="5.60751">
        <ele>1022</ele>
        <time>2019-06-19T09:23:11Z</time>
      </trkpt>
      <trkpt lat="44.27341" lon="5.60742">
        <ele>1022</ele>
        <time>2019-06-19T09:23:12Z</time>
      </trkpt>
      <trkpt lat="44.27349" lon="5.60735">
        <ele>1022</ele>
        <time>2019-06-19T09:23:13Z</time>
      </trkpt>
      <trkpt lat="44.27359" lon="5.60728">
        <ele>1022</ele>
        <time>2019-06-19T09:23:14Z</time>
      </trkpt>
      <trkpt lat="44.27367" lon="5.60724">
        <ele>1021</ele>
        <time>2019-06-19T09:23:15Z</time>
      </trkpt>
      <trkpt lat="44.27375" lon="5.60721">
        <ele>1020</ele>
        <time>2019-06-19T09:23:16Z</time>
      </trkpt>
      <trkpt lat="44.27382" lon="5.60719">
        <ele>1019</ele>
        <time>2019-06-19T09:23:17Z</time>
      </trkpt>
      <trkpt lat="44.2739" lon="5.60717">
        <ele>1018</ele>
        <time>2019-06-19T09:23:18Z</time>
      </trkpt>
      <trkpt lat="44.27398" lon="5.60715">
        <ele>1017</ele>
        <time>2019-06-19T09:23:19Z</time>
      </trkpt>
      <trkpt lat="44.27406" lon="5.60712">
        <ele>1016</ele>
        <time>2019-06-19T09:23:20Z</time>
      </trkpt>
      <trkpt lat="44.27413" lon="5.60706">
        <ele>1015</ele>
        <time>2019-06-19T09:23:21Z</time>
      </trkpt>
      <trkpt lat="44.27419" lon="5.60699">
        <ele>1014</ele>
        <time>2019-06-19T09:23:22Z</time>
      </trkpt>
      <trkpt lat="44.27425" lon="5.6069">
        <ele>1013</ele>
        <time>2019-06-19T09:23:23Z</time>
      </trkpt>
      <trkpt lat="44.2743" lon="5.6068">
        <ele>1013</ele>
        <time>2019-06-19T09:23:24Z</time>
      </trkpt>
      <trkpt lat="44.27433" lon="5.6067">
        <ele>1012</ele>
        <time>2019-06-19T09:23:25Z</time>
      </trkpt>
      <trkpt lat="44.27436" lon="5.60661">
        <ele>1011</ele>
        <time>2019-06-19T09:23:26Z</time>
      </trkpt>
      <trkpt lat="44.27436" lon="5.60651">
        <ele>1011</ele>
        <time>2019-06-19T09:23:27Z</time>
      </trkpt>
      <trkpt lat="44.2744" lon="5.60643">
        <ele>1010</ele>
        <time>2019-06-19T09:23:28Z</time>
      </trkpt>
      <trkpt lat="44.27444" lon="5.60636">
        <ele>1009</ele>
        <time>2019-06-19T09:23:29Z</time>
      </trkpt>
      <trkpt lat="44.27449" lon="5.60631">
        <ele>1009</ele>
        <time>2019-06-19T09:23:30Z</time>
      </trkpt>
      <trkpt lat="44.27455" lon="5.60628">
        <ele>1008</ele>
        <time>2019-06-19T09:23:31Z</time>
      </trkpt>
      <trkpt lat="44.27461" lon="5.60624">
        <ele>1008</ele>
        <time>2019-06-19T09:23:32Z</time>
      </trkpt>
      <trkpt lat="44.27467" lon="5.6062">
        <ele>1007</ele>
        <time>2019-06-19T09:23:33Z</time>
      </trkpt>
      <trkpt lat="44.27474" lon="5.60614">
        <ele>1007</ele>
        <time>2019-06-19T09:23:34Z</time>
      </trkpt>
      <trkpt lat="44.2748" lon="5.60606">
        <ele>1006</ele>
        <time>2019-06-19T09:23:35Z</time>
      </trkpt>
      <trkpt lat="44.27486" lon="5.60598">
        <ele>1005</ele>
        <time>2019-06-19T09:23:36Z</time>
      </trkpt>
      <trkpt lat="44.2749" lon="5.60587">
        <ele>1005</ele>
        <time>2019-06-19T09:23:37Z</time>
      </trkpt>
      <trkpt lat="44.27493" lon="5.60576">
        <ele>1004</ele>
        <time>2019-06-19T09:23:38Z</time>
      </trkpt>
      <trkpt lat="44.27496" lon="5.60564">
        <ele>1003</ele>
        <time>2019-06-19T09:23:39Z</time>
      </trkpt>
      <trkpt lat="44.27498" lon="5.60551">
        <ele>1003</ele>
        <time>2019-06-19T09:23:40Z</time>
      </trkpt>
      <trkpt lat="44.27501" lon="5.60538">
        <ele>1002</ele>
        <time>2019-06-19T09:23:41Z</time>
      </trkpt>
      <trkpt lat="44.27504" lon="5.60526">
        <ele>1001</ele>
        <time>2019-06-19T09:23:42Z</time>
      </trkpt>
      <trkpt lat="44.27507" lon="5.60514">
        <ele>1000</ele>
        <time>2019-06-19T09:23:43Z</time>
      </trkpt>
      <trkpt lat="44.2751" lon="5.60503">
        <ele>999</ele>
        <time>2019-06-19T09:23:44Z</time>
      </trkpt>
      <trkpt lat="44.27512" lon="5.60492">
        <ele>999</ele>
        <time>2019-06-19T09:23:45Z</time>
      </trkpt>
      <trkpt lat="44.27514" lon="5.60481">
        <ele>998</ele>
        <time>2019-06-19T09:23:46Z</time>
      </trkpt>
      <trkpt lat="44.27515" lon="5.6047">
        <ele>998</ele>
        <time>2019-06-19T09:23:47Z</time>
      </trkpt>
      <trkpt lat="44.27515" lon="5.60462">
        <ele>997</ele>
        <time>2019-06-19T09:23:48Z</time>
      </trkpt>
      <trkpt lat="44.27512" lon="5.60455">
        <ele>996</ele>
        <time>2019-06-19T09:23:49Z</time>
      </trkpt>
      <trkpt lat="44.27511" lon="5.60447">
        <ele>995</ele>
        <time>2019-06-19T09:23:50Z</time>
      </trkpt>
      <trkpt lat="44.27512" lon="5.60438">
        <ele>994</ele>
        <time>2019-06-19T09:23:51Z</time>
      </trkpt>
      <trkpt lat="44.27513" lon="5.60433">
        <ele>993</ele>
        <time>2019-06-19T09:23:52Z</time>
      </trkpt>
      <trkpt lat="44.27515" lon="5.60431">
        <ele>992</ele>
        <time>2019-06-19T09:23:53Z</time>
      </trkpt>
      <trkpt lat="44.2752" lon="5.60434">
        <ele>991</ele>
        <time>2019-06-19T09:23:54Z</time>
      </trkpt>
      <trkpt lat="44.27527" lon="5.60438">
        <ele>990</ele>
        <time>2019-06-19T09:23:55Z</time>
      </trkpt>
      <trkpt lat="44.27534" lon="5.60442">
        <ele>989</ele>
        <time>2019-06-19T09:23:56Z</time>
      </trkpt>
      <trkpt lat="44.27541" lon="5.60447">
        <ele>988</ele>
        <time>2019-06-19T09:23:57Z</time>
      </trkpt>
      <trkpt lat="44.27549" lon="5.60453">
        <ele>987</ele>
        <time>2019-06-19T09:23:58Z</time>
      </trkpt>
      <trkpt lat="44.27556" lon="5.60459">
        <ele>986</ele>
        <time>2019-06-19T09:23:59Z</time>
      </trkpt>
      <trkpt lat="44.27564" lon="5.60464">
        <ele>985</ele>
        <time>2019-06-19T09:24:00Z</time>
      </trkpt>
      <trkpt lat="44.27572" lon="5.6047">
        <ele>984</ele>
        <time>2019-06-19T09:24:01Z</time>
      </trkpt>
      <trkpt lat="44.27581" lon="5.60474">
        <ele>983</ele>
        <time>2019-06-19T09:24:02Z</time>
      </trkpt>
      <trkpt lat="44.27591" lon="5.60477">
        <ele>982</ele>
        <time>2019-06-19T09:24:03Z</time>
      </trkpt>
      <trkpt lat="44.276" lon="5.60477">
        <ele>981</ele>
        <time>2019-06-19T09:24:04Z</time>
      </trkpt>
      <trkpt lat="44.27609" lon="5.60477">
        <ele>980</ele>
        <time>2019-06-19T09:24:05Z</time>
      </trkpt>
      <trkpt lat="44.27618" lon="5.60477">
        <ele>979</ele>
        <time>2019-06-19T09:24:06Z</time>
      </trkpt>
      <trkpt lat="44.27628" lon="5.60477">
        <ele>978</ele>
        <time>2019-06-19T09:24:07Z</time>
      </trkpt>
      <trkpt lat="44.27638" lon="5.60478">
        <ele>978</ele>
        <time>2019-06-19T09:24:08Z</time>
      </trkpt>
      <trkpt lat="44.27648" lon="5.60479">
        <ele>977</ele>
        <time>2019-06-19T09:24:09Z</time>
      </trkpt>
      <trkpt lat="44.27657" lon="5.60479">
        <ele>977</ele>
        <time>2019-06-19T09:24:10Z</time>
      </trkpt>
      <trkpt lat="44.27666" lon="5.6048">
        <ele>976</ele>
        <time>2019-06-19T09:24:11Z</time>
      </trkpt>
      <trkpt lat="44.27675" lon="5.60481">
        <ele>976</ele>
        <time>2019-06-19T09:24:12Z</time>
      </trkpt>
      <trkpt lat="44.27684" lon="5.60479">
        <ele>976</ele>
        <time>2019-06-19T09:24:13Z</time>
      </trkpt>
      <trkpt lat="44.27692" lon="5.60475">
        <ele>976</ele>
        <time>2019-06-19T09:24:14Z</time>
      </trkpt>
      <trkpt lat="44.277" lon="5.60469">
        <ele>975</ele>
        <time>2019-06-19T09:24:15Z</time>
      </trkpt>
      <trkpt lat="44.27708" lon="5.60461">
        <ele>975</ele>
        <time>2019-06-19T09:24:16Z</time>
      </trkpt>
      <trkpt lat="44.27715" lon="5.60452">
        <ele>975</ele>
        <time>2019-06-19T09:24:17Z</time>
      </trkpt>
      <trkpt lat="44.27721" lon="5.60443">
        <ele>975</ele>
        <time>2019-06-19T09:24:18Z</time>
      </trkpt>
      <trkpt lat="44.27725" lon="5.60432">
        <ele>974</ele>
        <time>2019-06-19T09:24:19Z</time>
      </trkpt>
      <trkpt lat="44.27729" lon="5.60421">
        <ele>974</ele>
        <time>2019-06-19T09:24:20Z</time>
      </trkpt>
      <trkpt lat="44.27731" lon="5.60408">
        <ele>973</ele>
        <time>2019-06-19T09:24:21Z</time>
      </trkpt>
      <trkpt lat="44.27731" lon="5.60395">
        <ele>972</ele>
        <time>2019-06-19T09:24:22Z</time>
      </trkpt>
      <trkpt lat="44.27731" lon="5.60382">
        <ele>971</ele>
        <time>2019-06-19T09:24:23Z</time>
      </trkpt>
      <trkpt lat="44.27731" lon="5.60369">
        <ele>970</ele>
        <time>2019-06-19T09:24:24Z</time>
      </trkpt>
      <trkpt lat="44.2773" lon="5.60356">
        <ele>969</ele>
        <time>2019-06-19T09:24:25Z</time>
      </trkpt>
      <trkpt lat="44.27729" lon="5.60344">
        <ele>968</ele>
        <time>2019-06-19T09:24:26Z</time>
      </trkpt>
      <trkpt lat="44.27728" lon="5.60332">
        <ele>968</ele>
        <time>2019-06-19T09:24:27Z</time>
      </trkpt>
      <trkpt lat="44.27726" lon="5.60321">
        <ele>968</ele>
        <time>2019-06-19T09:24:28Z</time>
      </trkpt>
      <trkpt lat="44.27724" lon="5.6031">
        <ele>968</ele>
        <time>2019-06-19T09:24:29Z</time>
      </trkpt>
      <trkpt lat="44.27725" lon="5.603">
        <ele>967</ele>
        <time>2019-06-19T09:24:30Z</time>
      </trkpt>
      <trkpt lat="44.27727" lon="5.6029">
        <ele>967</ele>
        <time>2019-06-19T09:24:31Z</time>
      </trkpt>
      <trkpt lat="44.27729" lon="5.60281">
        <ele>966</ele>
        <time>2019-06-19T09:24:32Z</time>
      </trkpt>
      <trkpt lat="44.27734" lon="5.60275">
        <ele>965</ele>
        <time>2019-06-19T09:24:33Z</time>
      </trkpt>
      <trkpt lat="44.27739" lon="5.60269">
        <ele>964</ele>
        <time>2019-06-19T09:24:34Z</time>
      </trkpt>
      <trkpt lat="44.27743" lon="5.60264">
        <ele>963</ele>
        <time>2019-06-19T09:24:35Z</time>
      </trkpt>
      <trkpt lat="44.27747" lon="5.60256">
        <ele>962</ele>
        <time>2019-06-19T09:24:36Z</time>
      </trkpt>
      <trkpt lat="44.2775" lon="5.60248">
        <ele>962</ele>
        <time>2019-06-19T09:24:37Z</time>
      </trkpt>
      <trkpt lat="44.2775" lon="5.6024">
        <ele>961</ele>
        <time>2019-06-19T09:24:38Z</time>
      </trkpt>
      <trkpt lat="44.27745" lon="5.60233">
        <ele>960</ele>
        <time>2019-06-19T09:24:39Z</time>
      </trkpt>
      <trkpt lat="44.27737" lon="5.60228">
        <ele>959</ele>
        <time>2019-06-19T09:24:40Z</time>
      </trkpt>
      <trkpt lat="44.27727" lon="5.60223">
        <ele>959</ele>
        <time>2019-06-19T09:24:41Z</time>
      </trkpt>
      <trkpt lat="44.27719" lon="5.60218">
        <ele>958</ele>
        <time>2019-06-19T09:24:42Z</time>
      </trkpt>
      <trkpt lat="44.27712" lon="5.60212">
        <ele>958</ele>
        <time>2019-06-19T09:24:43Z</time>
      </trkpt>
      <trkpt lat="44.27707" lon="5.60206">
        <ele>957</ele>
        <time>2019-06-19T09:24:44Z</time>
      </trkpt>
      <trkpt lat="44.27704" lon="5.60198">
        <ele>957</ele>
        <time>2019-06-19T09:24:45Z</time>
      </trkpt>
      <trkpt lat="44.27702" lon="5.6019">
        <ele>957</ele>
        <time>2019-06-19T09:24:46Z</time>
      </trkpt>
      <trkpt lat="44.27702" lon="5.60181">
        <ele>956</ele>
        <time>2019-06-19T09:24:47Z</time>
      </trkpt>
      <trkpt lat="44.27703" lon="5.60172">
        <ele>956</ele>
        <time>2019-06-19T09:24:48Z</time>
      </trkpt>
      <trkpt lat="44.27708" lon="5.60166">
        <ele>955</ele>
        <time>2019-06-19T09:24:49Z</time>
      </trkpt>
      <trkpt lat="44.27715" lon="5.60161">
        <ele>955</ele>
        <time>2019-06-19T09:24:50Z</time>
      </trkpt>
      <trkpt lat="44.27722" lon="5.60157">
        <ele>954</ele>
        <time>2019-06-19T09:24:51Z</time>
      </trkpt>
      <trkpt lat="44.27728" lon="5.60152">
        <ele>954</ele>
        <time>2019-06-19T09:24:52Z</time>
      </trkpt>
      <trkpt lat="44.27736" lon="5.60147">
        <ele>954</ele>
        <time>2019-06-19T09:24:53Z</time>
      </trkpt>
      <trkpt lat="44.27743" lon="5.60143">
        <ele>954</ele>
        <time>2019-06-19T09:24:54Z</time>
      </trkpt>
      <trkpt lat="44.2775" lon="5.60138">
        <ele>954</ele>
        <time>2019-06-19T09:24:55Z</time>
      </trkpt>
      <trkpt lat="44.27758" lon="5.60133">
        <ele>953</ele>
        <time>2019-06-19T09:24:56Z</time>
      </trkpt>
      <trkpt lat="44.27767" lon="5.60131">
        <ele>953</ele>
        <time>2019-06-19T09:24:57Z</time>
      </trkpt>
      <trkpt lat="44.27776" lon="5.6013">
        <ele>953</ele>
        <time>2019-06-19T09:24:58Z</time>
      </trkpt>
      <trkpt lat="44.27785" lon="5.60132">
        <ele>952</ele>
        <time>2019-06-19T09:24:59Z</time>
      </trkpt>
      <trkpt lat="44.27794" lon="5.60135">
        <ele>952</ele>
        <time>2019-06-19T09:25:00Z</time>
      </trkpt>
      <trkpt lat="44.27802" lon="5.60137">
        <ele>951</ele>
        <time>2019-06-19T09:25:01Z</time>
      </trkpt>
      <trkpt lat="44.2781" lon="5.60138">
        <ele>951</ele>
        <time>2019-06-19T09:25:02Z</time>
      </trkpt>
      <trkpt lat="44.27819" lon="5.60138">
        <ele>950</ele>
        <time>2019-06-19T09:25:03Z</time>
      </trkpt>
      <trkpt lat="44.27827" lon="5.60136">
        <ele>950</ele>
        <time>2019-06-19T09:25:04Z</time>
      </trkpt>
      <trkpt lat="44.27835" lon="5.60132">
        <ele>949</ele>
        <time>2019-06-19T09:25:05Z</time>
      </trkpt>
      <trkpt lat="44.27843" lon="5.60126">
        <ele>949</ele>
        <time>2019-06-19T09:25:06Z</time>
      </trkpt>
      <trkpt lat="44.2785" lon="5.60119">
        <ele>949</ele>
        <time>2019-06-19T09:25:07Z</time>
      </trkpt>
      <trkpt lat="44.27858" lon="5.60111">
        <ele>948</ele>
        <time>2019-06-19T09:25:08Z</time>
      </trkpt>
      <trkpt lat="44.27864" lon="5.60104">
        <ele>948</ele>
        <time>2019-06-19T09:25:09Z</time>
      </trkpt>
      <trkpt lat="44.27871" lon="5.60098">
        <ele>947</ele>
        <time>2019-06-19T09:25:10Z</time>
      </trkpt>
      <trkpt lat="44.27878" lon="5.6009">
        <ele>947</ele>
        <time>2019-06-19T09:25:11Z</time>
      </trkpt>
      <trkpt lat="44.27884" lon="5.60082">
        <ele>946</ele>
        <time>2019-06-19T09:25:12Z</time>
      </trkpt>
      <trkpt lat="44.27891" lon="5.60076">
        <ele>946</ele>
        <time>2019-06-19T09:25:13Z</time>
      </trkpt>
      <trkpt lat="44.27898" lon="5.60069">
        <ele>945</ele>
        <time>2019-06-19T09:25:14Z</time>
      </trkpt>
      <trkpt lat="44.27906" lon="5.60064">
        <ele>945</ele>
        <time>2019-06-19T09:25:15Z</time>
      </trkpt>
      <trkpt lat="44.27914" lon="5.60058">
        <ele>944</ele>
        <time>2019-06-19T09:25:16Z</time>
      </trkpt>
      <trkpt lat="44.27921" lon="5.60054">
        <ele>944</ele>
        <time>2019-06-19T09:25:17Z</time>
      </trkpt>
      <trkpt lat="44.27929" lon="5.60049">
        <ele>943</ele>
        <time>2019-06-19T09:25:18Z</time>
      </trkpt>
      <trkpt lat="44.27937" lon="5.60045">
        <ele>942</ele>
        <time>2019-06-19T09:25:19Z</time>
      </trkpt>
      <trkpt lat="44.27946" lon="5.60042">
        <ele>942</ele>
        <time>2019-06-19T09:25:20Z</time>
      </trkpt>
      <trkpt lat="44.27953" lon="5.60039">
        <ele>941</ele>
        <time>2019-06-19T09:25:21Z</time>
      </trkpt>
      <trkpt lat="44.27961" lon="5.60034">
        <ele>941</ele>
        <time>2019-06-19T09:25:22Z</time>
      </trkpt>
      <trkpt lat="44.27967" lon="5.60027">
        <ele>940</ele>
        <time>2019-06-19T09:25:23Z</time>
      </trkpt>
      <trkpt lat="44.27972" lon="5.60018">
        <ele>940</ele>
        <time>2019-06-19T09:25:24Z</time>
      </trkpt>
      <trkpt lat="44.27976" lon="5.60008">
        <ele>939</ele>
        <time>2019-06-19T09:25:25Z</time>
      </trkpt>
      <trkpt lat="44.2798" lon="5.59997">
        <ele>939</ele>
        <time>2019-06-19T09:25:26Z</time>
      </trkpt>
      <trkpt lat="44.27982" lon="5.59985">
        <ele>938</ele>
        <time>2019-06-19T09:25:27Z</time>
      </trkpt>
      <trkpt lat="44.27985" lon="5.59972">
        <ele>937</ele>
        <time>2019-06-19T09:25:28Z</time>
      </trkpt>
      <trkpt lat="44.27988" lon="5.5996">
        <ele>936</ele>
        <time>2019-06-19T09:25:29Z</time>
      </trkpt>
      <trkpt lat="44.27991" lon="5.59947">
        <ele>935</ele>
        <time>2019-06-19T09:25:30Z</time>
      </trkpt>
      <trkpt lat="44.27994" lon="5.59935">
        <ele>934</ele>
        <time>2019-06-19T09:25:31Z</time>
      </trkpt>
      <trkpt lat="44.27997" lon="5.59923">
        <ele>933</ele>
        <time>2019-06-19T09:25:32Z</time>
      </trkpt>
      <trkpt lat="44.28" lon="5.59912">
        <ele>932</ele>
        <time>2019-06-19T09:25:33Z</time>
      </trkpt>
      <trkpt lat="44.28003" lon="5.59903">
        <ele>931</ele>
        <time>2019-06-19T09:25:34Z</time>
      </trkpt>
      <trkpt lat="44.28007" lon="5.59895">
        <ele>930</ele>
        <time>2019-06-19T09:25:35Z</time>
      </trkpt>
      <trkpt lat="44.28012" lon="5.59888">
        <ele>929</ele>
        <time>2019-06-19T09:25:36Z</time>
      </trkpt>
      <trkpt lat="44.28019" lon="5.59884">
        <ele>928</ele>
        <time>2019-06-19T09:25:37Z</time>
      </trkpt>
      <trkpt lat="44.28028" lon="5.59882">
        <ele>927</ele>
        <time>2019-06-19T09:25:38Z</time>
      </trkpt>
      <trkpt lat="44.28036" lon="5.59882">
        <ele>927</ele>
        <time>2019-06-19T09:25:39Z</time>
      </trkpt>
      <trkpt lat="44.28045" lon="5.59881">
        <ele>926</ele>
        <time>2019-06-19T09:25:40Z</time>
      </trkpt>
      <trkpt lat="44.28053" lon="5.59878">
        <ele>926</ele>
        <time>2019-06-19T09:25:41Z</time>
      </trkpt>
      <trkpt lat="44.28061" lon="5.59872">
        <ele>926</ele>
        <time>2019-06-19T09:25:42Z</time>
      </trkpt>
      <trkpt lat="44.28068" lon="5.59865">
        <ele>925</ele>
        <time>2019-06-19T09:25:43Z</time>
      </trkpt>
      <trkpt lat="44.28072" lon="5.59855">
        <ele>925</ele>
        <time>2019-06-19T09:25:44Z</time>
      </trkpt>
      <trkpt lat="44.28076" lon="5.59845">
        <ele>924</ele>
        <time>2019-06-19T09:25:45Z</time>
      </trkpt>
      <trkpt lat="44.28083" lon="5.59837">
        <ele>924</ele>
        <time>2019-06-19T09:25:46Z</time>
      </trkpt>
      <trkpt lat="44.28091" lon="5.5983">
        <ele>923</ele>
        <time>2019-06-19T09:25:47Z</time>
      </trkpt>
      <trkpt lat="44.28099" lon="5.59823">
        <ele>922</ele>
        <time>2019-06-19T09:25:48Z</time>
      </trkpt>
      <trkpt lat="44.28108" lon="5.59818">
        <ele>921</ele>
        <time>2019-06-19T09:25:49Z</time>
      </trkpt>
      <trkpt lat="44.28117" lon="5.59815">
        <ele>921</ele>
        <time>2019-06-19T09:25:50Z</time>
      </trkpt>
      <trkpt lat="44.28126" lon="5.59811">
        <ele>920</ele>
        <time>2019-06-19T09:25:51Z</time>
      </trkpt>
      <trkpt lat="44.28135" lon="5.59807">
        <ele>919</ele>
        <time>2019-06-19T09:25:52Z</time>
      </trkpt>
      <trkpt lat="44.28143" lon="5.59802">
        <ele>919</ele>
        <time>2019-06-19T09:25:53Z</time>
      </trkpt>
      <trkpt lat="44.2815" lon="5.59795">
        <ele>918</ele>
        <time>2019-06-19T09:25:54Z</time>
      </trkpt>
      <trkpt lat="44.28157" lon="5.59786">
        <ele>918</ele>
        <time>2019-06-19T09:25:55Z</time>
      </trkpt>
      <trkpt lat="44.28162" lon="5.59776">
        <ele>917</ele>
        <time>2019-06-19T09:25:56Z</time>
      </trkpt>
      <trkpt lat="44.28168" lon="5.59767">
        <ele>916</ele>
        <time>2019-06-19T09:25:57Z</time>
      </trkpt>
      <trkpt lat="44.28175" lon="5.59757">
        <ele>916</ele>
        <time>2019-06-19T09:25:58Z</time>
      </trkpt>
      <trkpt lat="44.28182" lon="5.59747">
        <ele>915</ele>
        <time>2019-06-19T09:25:59Z</time>
      </trkpt>
      <trkpt lat="44.2819" lon="5.59737">
        <ele>914</ele>
        <time>2019-06-19T09:26:00Z</time>
      </trkpt>
      <trkpt lat="44.28197" lon="5.59728">
        <ele>913</ele>
        <time>2019-06-19T09:26:01Z</time>
      </trkpt>
      <trkpt lat="44.28205" lon="5.5972">
        <ele>913</ele>
        <time>2019-06-19T09:26:02Z</time>
      </trkpt>
      <trkpt lat="44.28212" lon="5.59712">
        <ele>912</ele>
        <time>2019-06-19T09:26:03Z</time>
      </trkpt>
      <trkpt lat="44.28219" lon="5.59704">
        <ele>912</ele>
        <time>2019-06-19T09:26:04Z</time>
      </trkpt>
      <trkpt lat="44.28226" lon="5.59696">
        <ele>911</ele>
        <time>2019-06-19T09:26:05Z</time>
      </trkpt>
      <trkpt lat="44.28233" lon="5.59689">
        <ele>910</ele>
        <time>2019-06-19T09:26:06Z</time>
      </trkpt>
      <trkpt lat="44.28239" lon="5.5968">
        <ele>910</ele>
        <time>2019-06-19T09:26:07Z</time>
      </trkpt>
      <trkpt lat="44.28244" lon="5.5967">
        <ele>909</ele>
        <time>2019-06-19T09:26:08Z</time>
      </trkpt>
      <trkpt lat="44.28249" lon="5.59661">
        <ele>908</ele>
        <time>2019-06-19T09:26:09Z</time>
      </trkpt>
      <trkpt lat="44.28253" lon="5.59651">
        <ele>907</ele>
        <time>2019-06-19T09:26:10Z</time>
      </trkpt>
      <trkpt lat="44.28256" lon="5.59641">
        <ele>907</ele>
        <time>2019-06-19T09:26:11Z</time>
      </trkpt>
      <trkpt lat="44.2826" lon="5.59633">
        <ele>906</ele>
        <time>2019-06-19T09:26:12Z</time>
      </trkpt>
      <trkpt lat="44.28263" lon="5.59624">
        <ele>905</ele>
        <time>2019-06-19T09:26:13Z</time>
      </trkpt>
      <trkpt lat="44.28266" lon="5.59617">
        <ele>904</ele>
        <time>2019-06-19T09:26:14Z</time>
      </trkpt>
      <trkpt lat="44.28271" lon="5.59611">
        <ele>903</ele>
        <time>2019-06-19T09:26:15Z</time>
      </trkpt>
      <trkpt lat="44.28276" lon="5.59606">
        <ele>903</ele>
        <time>2019-06-19T09:26:16Z</time>
      </trkpt>
      <trkpt lat="44.28283" lon="5.59603">
        <ele>902</ele>
        <time>2019-06-19T09:26:17Z</time>
      </trkpt>
      <trkpt lat="44.28291" lon="5.59601">
        <ele>902</ele>
        <time>2019-06-19T09:26:18Z</time>
      </trkpt>
      <trkpt lat="44.28299" lon="5.596">
        <ele>902</ele>
        <time>2019-06-19T09:26:19Z</time>
      </trkpt>
      <trkpt lat="44.28308" lon="5.59601">
        <ele>901</ele>
        <time>2019-06-19T09:26:20Z</time>
      </trkpt>
      <trkpt lat="44.28316" lon="5.59601">
        <ele>901</ele>
        <time>2019-06-19T09:26:21Z</time>
      </trkpt>
      <trkpt lat="44.28325" lon="5.59602">
        <ele>901</ele>
        <time>2019-06-19T09:26:22Z</time>
      </trkpt>
      <trkpt lat="44.28334" lon="5.59604">
        <ele>900</ele>
        <time>2019-06-19T09:26:23Z</time>
      </trkpt>
      <trkpt lat="44.28344" lon="5.59606">
        <ele>900</ele>
        <time>2019-06-19T09:26:24Z</time>
      </trkpt>
      <trkpt lat="44.28354" lon="5.59608">
        <ele>899</ele>
        <time>2019-06-19T09:26:25Z</time>
      </trkpt>
      <trkpt lat="44.28364" lon="5.5961">
        <ele>899</ele>
        <time>2019-06-19T09:26:26Z</time>
      </trkpt>
      <trkpt lat="44.28376" lon="5.59615">
        <ele>898</ele>
        <time>2019-06-19T09:26:27Z</time>
      </trkpt>
      <trkpt lat="44.28387" lon="5.59617">
        <ele>897</ele>
        <time>2019-06-19T09:26:28Z</time>
      </trkpt>
      <trkpt lat="44.28397" lon="5.59617">
        <ele>896</ele>
        <time>2019-06-19T09:26:29Z</time>
      </trkpt>
      <trkpt lat="44.28407" lon="5.59616">
        <ele>895</ele>
        <time>2019-06-19T09:26:30Z</time>
      </trkpt>
      <trkpt lat="44.28417" lon="5.59614">
        <ele>894</ele>
        <time>2019-06-19T09:26:31Z</time>
      </trkpt>
      <trkpt lat="44.28427" lon="5.59611">
        <ele>893</ele>
        <time>2019-06-19T09:26:32Z</time>
      </trkpt>
      <trkpt lat="44.28436" lon="5.59608">
        <ele>892</ele>
        <time>2019-06-19T09:26:33Z</time>
      </trkpt>
      <trkpt lat="44.28445" lon="5.59605">
        <ele>891</ele>
        <time>2019-06-19T09:26:34Z</time>
      </trkpt>
      <trkpt lat="44.28454" lon="5.59602">
        <ele>890</ele>
        <time>2019-06-19T09:26:35Z</time>
      </trkpt>
      <trkpt lat="44.28463" lon="5.59598">
        <ele>889</ele>
        <time>2019-06-19T09:26:36Z</time>
      </trkpt>
      <trkpt lat="44.28473" lon="5.59595">
        <ele>888</ele>
        <time>2019-06-19T09:26:37Z</time>
      </trkpt>
      <trkpt lat="44.28483" lon="5.59591">
        <ele>887</ele>
        <time>2019-06-19T09:26:38Z</time>
      </trkpt>
      <trkpt lat="44.28493" lon="5.59588">
        <ele>886</ele>
        <time>2019-06-19T09:26:39Z</time>
      </trkpt>
      <trkpt lat="44.28503" lon="5.59585">
        <ele>885</ele>
        <time>2019-06-19T09:26:40Z</time>
      </trkpt>
      <trkpt lat="44.28513" lon="5.59582">
        <ele>884</ele>
        <time>2019-06-19T09:26:41Z</time>
      </trkpt>
      <trkpt lat="44.28524" lon="5.59579">
        <ele>883</ele>
        <time>2019-06-19T09:26:42Z</time>
      </trkpt>
      <trkpt lat="44.28533" lon="5.59578">
        <ele>883</ele>
        <time>2019-06-19T09:26:43Z</time>
      </trkpt>
      <trkpt lat="44.28542" lon="5.59577">
        <ele>882</ele>
        <time>2019-06-19T09:26:44Z</time>
      </trkpt>
      <trkpt lat="44.28552" lon="5.59577">
        <ele>882</ele>
        <time>2019-06-19T09:26:45Z</time>
      </trkpt>
      <trkpt lat="44.2856" lon="5.59577">
        <ele>881</ele>
        <time>2019-06-19T09:26:46Z</time>
      </trkpt>
      <trkpt lat="44.28568" lon="5.59579">
        <ele>880</ele>
        <time>2019-06-19T09:26:47Z</time>
      </trkpt>
      <trkpt lat="44.28575" lon="5.59583">
        <ele>879</ele>
        <time>2019-06-19T09:26:48Z</time>
      </trkpt>
      <trkpt lat="44.28581" lon="5.59589">
        <ele>878</ele>
        <time>2019-06-19T09:26:49Z</time>
      </trkpt>
      <trkpt lat="44.28587" lon="5.59598">
        <ele>877</ele>
        <time>2019-06-19T09:26:50Z</time>
      </trkpt>
      <trkpt lat="44.28591" lon="5.59607">
        <ele>876</ele>
        <time>2019-06-19T09:26:51Z</time>
      </trkpt>
      <trkpt lat="44.28595" lon="5.59617">
        <ele>876</ele>
        <time>2019-06-19T09:26:52Z</time>
      </trkpt>
      <trkpt lat="44.286" lon="5.59627">
        <ele>875</ele>
        <time>2019-06-19T09:26:53Z</time>
      </trkpt>
      <trkpt lat="44.28606" lon="5.59636">
        <ele>874</ele>
        <time>2019-06-19T09:26:54Z</time>
      </trkpt>
      <trkpt lat="44.28613" lon="5.59643">
        <ele>874</ele>
        <time>2019-06-19T09:26:55Z</time>
      </trkpt>
      <trkpt lat="44.2862" lon="5.59649">
        <ele>873</ele>
        <time>2019-06-19T09:26:56Z</time>
      </trkpt>
      <trkpt lat="44.28629" lon="5.59654">
        <ele>872</ele>
        <time>2019-06-19T09:26:57Z</time>
      </trkpt>
      <trkpt lat="44.28637" lon="5.59658">
        <ele>872</ele>
        <time>2019-06-19T09:26:58Z</time>
      </trkpt>
      <trkpt lat="44.28644" lon="5.59665">
        <ele>871</ele>
        <time>2019-06-19T09:26:59Z</time>
      </trkpt>
      <trkpt lat="44.28651" lon="5.59673">
        <ele>870</ele>
        <time>2019-06-19T09:27:00Z</time>
      </trkpt>
      <trkpt lat="44.28655" lon="5.59682">
        <ele>870</ele>
        <time>2019-06-19T09:27:01Z</time>
      </trkpt>
      <trkpt lat="44.28659" lon="5.59692">
        <ele>870</ele>
        <time>2019-06-19T09:27:02Z</time>
      </trkpt>
      <trkpt lat="44.28664" lon="5.59702">
        <ele>870</ele>
        <time>2019-06-19T09:27:03Z</time>
      </trkpt>
      <trkpt lat="44.28669" lon="5.59712">
        <ele>870</ele>
        <time>2019-06-19T09:27:04Z</time>
      </trkpt>
      <trkpt lat="44.28674" lon="5.59721">
        <ele>870</ele>
        <time>2019-06-19T09:27:05Z</time>
      </trkpt>
      <trkpt lat="44.28677" lon="5.5973">
        <ele>870</ele>
        <time>2019-06-19T09:27:06Z</time>
      </trkpt>
      <trkpt lat="44.2868" lon="5.59738">
        <ele>869</ele>
        <time>2019-06-19T09:27:07Z</time>
      </trkpt>
      <trkpt lat="44.28683" lon="5.59747">
        <ele>869</ele>
        <time>2019-06-19T09:27:08Z</time>
      </trkpt>
      <trkpt lat="44.28685" lon="5.59754">
        <ele>869</ele>
        <time>2019-06-19T09:27:09Z</time>
      </trkpt>
      <trkpt lat="44.2869" lon="5.59759">
        <ele>869</ele>
        <time>2019-06-19T09:27:10Z</time>
      </trkpt>
      <trkpt lat="44.28693" lon="5.59761">
        <ele>868</ele>
        <time>2019-06-19T09:27:11Z</time>
      </trkpt>
      <trkpt lat="44.28698" lon="5.59759">
        <ele>868</ele>
        <time>2019-06-19T09:27:12Z</time>
      </trkpt>
      <trkpt lat="44.28703" lon="5.59754">
        <ele>868</ele>
        <time>2019-06-19T09:27:13Z</time>
      </trkpt>
      <trkpt lat="44.28706" lon="5.59746">
        <ele>868</ele>
        <time>2019-06-19T09:27:14Z</time>
      </trkpt>
      <trkpt lat="44.28706" lon="5.59738">
        <ele>868</ele>
        <time>2019-06-19T09:27:15Z</time>
      </trkpt>
      <trkpt lat="44.28705" lon="5.59729">
        <ele>868</ele>
        <time>2019-06-19T09:27:16Z</time>
      </trkpt>
      <trkpt lat="44.28702" lon="5.5972">
        <ele>868</ele>
        <time>2019-06-19T09:27:17Z</time>
      </trkpt>
      <trkpt lat="44.28701" lon="5.59711">
        <ele>868</ele>
        <time>2019-06-19T09:27:18Z</time>
      </trkpt>
      <trkpt lat="44.287" lon="5.59702">
        <ele>868</ele>
        <time>2019-06-19T09:27:19Z</time>
      </trkpt>
      <trkpt lat="44.28698" lon="5.59693">
        <ele>868</ele>
        <time>2019-06-19T09:27:20Z</time>
      </trkpt>
      <trkpt lat="44.28698" lon="5.59683">
        <ele>868</ele>
        <time>2019-06-19T09:27:21Z</time>
      </trkpt>
      <trkpt lat="44.28697" lon="5.59673">
        <ele>868</ele>
        <time>2019-06-19T09:27:22Z</time>
      </trkpt>
      <trkpt lat="44.28695" lon="5.59663">
        <ele>868</ele>
        <time>2019-06-19T09:27:23Z</time>
      </trkpt>
      <trkpt lat="44.28694" lon="5.59654">
        <ele>867</ele>
        <time>2019-06-19T09:27:24Z</time>
      </trkpt>
      <trkpt lat="44.28692" lon="5.59644">
        <ele>867</ele>
        <time>2019-06-19T09:27:25Z</time>
      </trkpt>
      <trkpt lat="44.28693" lon="5.59633">
        <ele>867</ele>
        <time>2019-06-19T09:27:26Z</time>
      </trkpt>
      <trkpt lat="44.28694" lon="5.59625">
        <ele>866</ele>
        <time>2019-06-19T09:27:27Z</time>
      </trkpt>
      <trkpt lat="44.28696" lon="5.59615">
        <ele>865</ele>
        <time>2019-06-19T09:27:28Z</time>
      </trkpt>
      <trkpt lat="44.28699" lon="5.59607">
        <ele>865</ele>
        <time>2019-06-19T09:27:29Z</time>
      </trkpt>
      <trkpt lat="44.28703" lon="5.59598">
        <ele>864</ele>
        <time>2019-06-19T09:27:30Z</time>
      </trkpt>
      <trkpt lat="44.28706" lon="5.5959">
        <ele>864</ele>
        <time>2019-06-19T09:27:31Z</time>
      </trkpt>
      <trkpt lat="44.28711" lon="5.59583">
        <ele>863</ele>
        <time>2019-06-19T09:27:32Z</time>
      </trkpt>
      <trkpt lat="44.28714" lon="5.59575">
        <ele>862</ele>
        <time>2019-06-19T09:27:33Z</time>
      </trkpt>
      <trkpt lat="44.28717" lon="5.59566">
        <ele>861</ele>
        <time>2019-06-19T09:27:34Z</time>
      </trkpt>
      <trkpt lat="44.28717" lon="5.59557">
        <ele>861</ele>
        <time>2019-06-19T09:27:35Z</time>
      </trkpt>
      <trkpt lat="44.28715" lon="5.59548">
        <ele>860</ele>
        <time>2019-06-19T09:27:36Z</time>
      </trkpt>
      <trkpt lat="44.2871" lon="5.59541">
        <ele>859</ele>
        <time>2019-06-19T09:27:37Z</time>
      </trkpt>
      <trkpt lat="44.28703" lon="5.59534">
        <ele>859</ele>
        <time>2019-06-19T09:27:38Z</time>
      </trkpt>
      <trkpt lat="44.28695" lon="5.59528">
        <ele>858</ele>
        <time>2019-06-19T09:27:39Z</time>
      </trkpt>
      <trkpt lat="44.28687" lon="5.59523">
        <ele>857</ele>
        <time>2019-06-19T09:27:40Z</time>
      </trkpt>
      <trkpt lat="44.2868" lon="5.59518">
        <ele>856</ele>
        <time>2019-06-19T09:27:41Z</time>
      </trkpt>
      <trkpt lat="44.28672" lon="5.59514">
        <ele>855</ele>
        <time>2019-06-19T09:27:42Z</time>
      </trkpt>
      <trkpt lat="44.28665" lon="5.5951">
        <ele>854</ele>
        <time>2019-06-19T09:27:43Z</time>
      </trkpt>
      <trkpt lat="44.28657" lon="5.59507">
        <ele>853</ele>
        <time>2019-06-19T09:27:44Z</time>
      </trkpt>
      <trkpt lat="44.2865" lon="5.59504">
        <ele>852</ele>
        <time>2019-06-19T09:27:45Z</time>
      </trkpt>
      <trkpt lat="44.28642" lon="5.59503">
        <ele>852</ele>
        <time>2019-06-19T09:27:46Z</time>
      </trkpt>
      <trkpt lat="44.28633" lon="5.59502">
        <ele>851</ele>
        <time>2019-06-19T09:27:47Z</time>
      </trkpt>
      <trkpt lat="44.28626" lon="5.59502">
        <ele>851</ele>
        <time>2019-06-19T09:27:48Z</time>
      </trkpt>
      <trkpt lat="44.28618" lon="5.59501">
        <ele>850</ele>
        <time>2019-06-19T09:27:49Z</time>
      </trkpt>
      <trkpt lat="44.28612" lon="5.59501">
        <ele>849</ele>
        <time>2019-06-19T09:27:50Z</time>
      </trkpt>
      <trkpt lat="44.28605" lon="5.59502">
        <ele>848</ele>
        <time>2019-06-19T09:27:51Z</time>
      </trkpt>
      <trkpt lat="44.28601" lon="5.59502">
        <ele>848</ele>
        <time>2019-06-19T09:27:52Z</time>
      </trkpt>
      <trkpt lat="44.28596" lon="5.59502">
        <ele>847</ele>
        <time>2019-06-19T09:27:53Z</time>
      </trkpt>
      <trkpt lat="44.28591" lon="5.59501">
        <ele>846</ele>
        <time>2019-06-19T09:27:54Z</time>
      </trkpt>
      <trkpt lat="44.28587" lon="5.59499">
        <ele>845</ele>
        <time>2019-06-19T09:27:55Z</time>
      </trkpt>
      <trkpt lat="44.28586" lon="5.59495">
        <ele>844</ele>
        <time>2019-06-19T09:27:56Z</time>
      </trkpt>
      <trkpt lat="44.28585" lon="5.5949">
        <ele>843</ele>
        <time>2019-06-19T09:27:57Z</time>
      </trkpt>
      <trkpt lat="44.28587" lon="5.59487">
        <ele>842</ele>
        <time>2019-06-19T09:27:58Z</time>
      </trkpt>
      <trkpt lat="44.28592" lon="5.59486">
        <ele>841</ele>
        <time>2019-06-19T09:27:59Z</time>
      </trkpt>
      <trkpt lat="44.28598" lon="5.59486">
        <ele>841</ele>
        <time>2019-06-19T09:28:00Z</time>
      </trkpt>
      <trkpt lat="44.28605" lon="5.59488">
        <ele>841</ele>
        <time>2019-06-19T09:28:01Z</time>
      </trkpt>
      <trkpt lat="44.28611" lon="5.59488">
        <ele>841</ele>
        <time>2019-06-19T09:28:02Z</time>
      </trkpt>
      <trkpt lat="44.28617" lon="5.59488">
        <ele>841</ele>
        <time>2019-06-19T09:28:03Z</time>
      </trkpt>
      <trkpt lat="44.28624" lon="5.59488">
        <ele>841</ele>
        <time>2019-06-19T09:28:04Z</time>
      </trkpt>
      <trkpt lat="44.28631" lon="5.59486">
        <ele>841</ele>
        <time>2019-06-19T09:28:05Z</time>
      </trkpt>
      <trkpt lat="44.2864" lon="5.59485">
        <ele>841</ele>
        <time>2019-06-19T09:28:06Z</time>
      </trkpt>
      <trkpt lat="44.28649" lon="5.59486">
        <ele>840</ele>
        <time>2019-06-19T09:28:07Z</time>
      </trkpt>
      <trkpt lat="44.28657" lon="5.59485">
        <ele>840</ele>
        <time>2019-06-19T09:28:08Z</time>
      </trkpt>
      <trkpt lat="44.28664" lon="5.59485">
        <ele>839</ele>
        <time>2019-06-19T09:28:09Z</time>
      </trkpt>
      <trkpt lat="44.28671" lon="5.59486">
        <ele>838</ele>
        <time>2019-06-19T09:28:10Z</time>
      </trkpt>
      <trkpt lat="44.28678" lon="5.59488">
        <ele>838</ele>
        <time>2019-06-19T09:28:11Z</time>
      </trkpt>
      <trkpt lat="44.28686" lon="5.59491">
        <ele>838</ele>
        <time>2019-06-19T09:28:12Z</time>
      </trkpt>
      <trkpt lat="44.28695" lon="5.59494">
        <ele>838</ele>
        <time>2019-06-19T09:28:13Z</time>
      </trkpt>
      <trkpt lat="44.28704" lon="5.59495">
        <ele>838</ele>
        <time>2019-06-19T09:28:14Z</time>
      </trkpt>
      <trkpt lat="44.28712" lon="5.59497">
        <ele>838</ele>
        <time>2019-06-19T09:28:15Z</time>
      </trkpt>
      <trkpt lat="44.28721" lon="5.595">
        <ele>837</ele>
        <time>2019-06-19T09:28:16Z</time>
      </trkpt>
      <trkpt lat="44.2873" lon="5.59505">
        <ele>837</ele>
        <time>2019-06-19T09:28:17Z</time>
      </trkpt>
      <trkpt lat="44.28738" lon="5.59511">
        <ele>837</ele>
        <time>2019-06-19T09:28:18Z</time>
      </trkpt>
      <trkpt lat="44.28746" lon="5.59519">
        <ele>837</ele>
        <time>2019-06-19T09:28:19Z</time>
      </trkpt>
      <trkpt lat="44.28753" lon="5.59528">
        <ele>836</ele>
        <time>2019-06-19T09:28:20Z</time>
      </trkpt>
      <trkpt lat="44.28758" lon="5.59539">
        <ele>836</ele>
        <time>2019-06-19T09:28:21Z</time>
      </trkpt>
      <trkpt lat="44.28762" lon="5.59551">
        <ele>835</ele>
        <time>2019-06-19T09:28:22Z</time>
      </trkpt>
      <trkpt lat="44.28765" lon="5.59563">
        <ele>835</ele>
        <time>2019-06-19T09:28:23Z</time>
      </trkpt>
      <trkpt lat="44.28767" lon="5.59576">
        <ele>834</ele>
        <time>2019-06-19T09:28:24Z</time>
      </trkpt>
      <trkpt lat="44.28769" lon="5.59587">
        <ele>833</ele>
        <time>2019-06-19T09:28:25Z</time>
      </trkpt>
      <trkpt lat="44.28772" lon="5.59599">
        <ele>833</ele>
        <time>2019-06-19T09:28:26Z</time>
      </trkpt>
      <trkpt lat="44.28776" lon="5.59609">
        <ele>832</ele>
        <time>2019-06-19T09:28:27Z</time>
      </trkpt>
      <trkpt lat="44.28781" lon="5.59618">
        <ele>831</ele>
        <time>2019-06-19T09:28:28Z</time>
      </trkpt>
      <trkpt lat="44.28787" lon="5.59627">
        <ele>831</ele>
        <time>2019-06-19T09:28:29Z</time>
      </trkpt>
      <trkpt lat="44.28793" lon="5.59635">
        <ele>830</ele>
        <time>2019-06-19T09:28:30Z</time>
      </trkpt>
      <trkpt lat="44.288" lon="5.59644">
        <ele>829</ele>
        <time>2019-06-19T09:28:31Z</time>
      </trkpt>
      <trkpt lat="44.28807" lon="5.59652">
        <ele>829</ele>
        <time>2019-06-19T09:28:32Z</time>
      </trkpt>
      <trkpt lat="44.28813" lon="5.5966">
        <ele>828</ele>
        <time>2019-06-19T09:28:33Z</time>
      </trkpt>
      <trkpt lat="44.28819" lon="5.59669">
        <ele>827</ele>
        <time>2019-06-19T09:28:34Z</time>
      </trkpt>
      <trkpt lat="44.28826" lon="5.59677">
        <ele>826</ele>
        <time>2019-06-19T09:28:35Z</time>
      </trkpt>
      <trkpt lat="44.28833" lon="5.59685">
        <ele>825</ele>
        <time>2019-06-19T09:28:36Z</time>
      </trkpt>
      <trkpt lat="44.28839" lon="5.59691">
        <ele>824</ele>
        <time>2019-06-19T09:28:37Z</time>
      </trkpt>
      <trkpt lat="44.28846" lon="5.59694">
        <ele>823</ele>
        <time>2019-06-19T09:28:38Z</time>
      </trkpt>
      <trkpt lat="44.28854" lon="5.59694">
        <ele>822</ele>
        <time>2019-06-19T09:28:39Z</time>
      </trkpt>
      <trkpt lat="44.28862" lon="5.59691">
        <ele>822</ele>
        <time>2019-06-19T09:28:40Z</time>
      </trkpt>
      <trkpt lat="44.28869" lon="5.59686">
        <ele>821</ele>
        <time>2019-06-19T09:28:41Z</time>
      </trkpt>
      <trkpt lat="44.28875" lon="5.59681">
        <ele>821</ele>
        <time>2019-06-19T09:28:42Z</time>
      </trkpt>
      <trkpt lat="44.28881" lon="5.59675">
        <ele>820</ele>
        <time>2019-06-19T09:28:43Z</time>
      </trkpt>
      <trkpt lat="44.28887" lon="5.5967">
        <ele>819</ele>
        <time>2019-06-19T09:28:44Z</time>
      </trkpt>
      <trkpt lat="44.28893" lon="5.59665">
        <ele>819</ele>
        <time>2019-06-19T09:28:45Z</time>
      </trkpt>
      <trkpt lat="44.28899" lon="5.59662">
        <ele>818</ele>
        <time>2019-06-19T09:28:46Z</time>
      </trkpt>
      <trkpt lat="44.28904" lon="5.5966">
        <ele>818</ele>
        <time>2019-06-19T09:28:47Z</time>
      </trkpt>
      <trkpt lat="44.28911" lon="5.59659">
        <ele>818</ele>
        <time>2019-06-19T09:28:48Z</time>
      </trkpt>
      <trkpt lat="44.28918" lon="5.59659">
        <ele>818</ele>
        <time>2019-06-19T09:28:49Z</time>
      </trkpt>
      <trkpt lat="44.28925" lon="5.5966">
        <ele>818</ele>
        <time>2019-06-19T09:28:50Z</time>
      </trkpt>
      <trkpt lat="44.28931" lon="5.59662">
        <ele>817</ele>
        <time>2019-06-19T09:28:51Z</time>
      </trkpt>
      <trkpt lat="44.28936" lon="5.59663">
        <ele>817</ele>
        <time>2019-06-19T09:28:52Z</time>
      </trkpt>
      <trkpt lat="44.28941" lon="5.59666">
        <ele>816</ele>
        <time>2019-06-19T09:28:53Z</time>
      </trkpt>
      <trkpt lat="44.28947" lon="5.59669">
        <ele>815</ele>
        <time>2019-06-19T09:28:54Z</time>
      </trkpt>
      <trkpt lat="44.28954" lon="5.59672">
        <ele>814</ele>
        <time>2019-06-19T09:28:55Z</time>
      </trkpt>
      <trkpt lat="44.2896" lon="5.59675">
        <ele>813</ele>
        <time>2019-06-19T09:28:56Z</time>
      </trkpt>
      <trkpt lat="44.28967" lon="5.59679">
        <ele>813</ele>
        <time>2019-06-19T09:28:57Z</time>
      </trkpt>
      <trkpt lat="44.28975" lon="5.59682">
        <ele>812</ele>
        <time>2019-06-19T09:28:58Z</time>
      </trkpt>
      <trkpt lat="44.28982" lon="5.59686">
        <ele>812</ele>
        <time>2019-06-19T09:28:59Z</time>
      </trkpt>
      <trkpt lat="44.28989" lon="5.59689">
        <ele>811</ele>
        <time>2019-06-19T09:29:00Z</time>
      </trkpt>
      <trkpt lat="44.28997" lon="5.59692">
        <ele>810</ele>
        <time>2019-06-19T09:29:01Z</time>
      </trkpt>
      <trkpt lat="44.29005" lon="5.59696">
        <ele>810</ele>
        <time>2019-06-19T09:29:02Z</time>
      </trkpt>
      <trkpt lat="44.29013" lon="5.597">
        <ele>809</ele>
        <time>2019-06-19T09:29:03Z</time>
      </trkpt>
      <trkpt lat="44.2902" lon="5.59705">
        <ele>809</ele>
        <time>2019-06-19T09:29:04Z</time>
      </trkpt>
      <trkpt lat="44.29028" lon="5.59709">
        <ele>809</ele>
        <time>2019-06-19T09:29:05Z</time>
      </trkpt>
      <trkpt lat="44.29035" lon="5.59713">
        <ele>809</ele>
        <time>2019-06-19T09:29:06Z</time>
      </trkpt>
      <trkpt lat="44.29043" lon="5.59716">
        <ele>809</ele>
        <time>2019-06-19T09:29:07Z</time>
      </trkpt>
      <trkpt lat="44.2905" lon="5.59717">
        <ele>809</ele>
        <time>2019-06-19T09:29:08Z</time>
      </trkpt>
      <trkpt lat="44.29057" lon="5.59715">
        <ele>809</ele>
        <time>2019-06-19T09:29:09Z</time>
      </trkpt>
      <trkpt lat="44.29063" lon="5.59712">
        <ele>809</ele>
        <time>2019-06-19T09:29:10Z</time>
      </trkpt>
      <trkpt lat="44.29069" lon="5.59706">
        <ele>809</ele>
        <time>2019-06-19T09:29:11Z</time>
      </trkpt>
      <trkpt lat="44.29074" lon="5.59699">
        <ele>809</ele>
        <time>2019-06-19T09:29:12Z</time>
      </trkpt>
      <trkpt lat="44.29079" lon="5.59691">
        <ele>809</ele>
        <time>2019-06-19T09:29:13Z</time>
      </trkpt>
      <trkpt lat="44.29082" lon="5.59684">
        <ele>809</ele>
        <time>2019-06-19T09:29:14Z</time>
      </trkpt>
      <trkpt lat="44.29086" lon="5.59675">
        <ele>809</ele>
        <time>2019-06-19T09:29:15Z</time>
      </trkpt>
      <trkpt lat="44.29089" lon="5.59667">
        <ele>809</ele>
        <time>2019-06-19T09:29:16Z</time>
      </trkpt>
      <trkpt lat="44.29092" lon="5.5966">
        <ele>809</ele>
        <time>2019-06-19T09:29:17Z</time>
      </trkpt>
      <trkpt lat="44.29096" lon="5.59652">
        <ele>809</ele>
        <time>2019-06-19T09:29:18Z</time>
      </trkpt>
      <trkpt lat="44.291" lon="5.59645">
        <ele>809</ele>
        <time>2019-06-19T09:29:19Z</time>
      </trkpt>
      <trkpt lat="44.29104" lon="5.59638">
        <ele>809</ele>
        <time>2019-06-19T09:29:20Z</time>
      </trkpt>
      <trkpt lat="44.29108" lon="5.59631">
        <ele>809</ele>
        <time>2019-06-19T09:29:21Z</time>
      </trkpt>
      <trkpt lat="44.29112" lon="5.59625">
        <ele>809</ele>
        <time>2019-06-19T09:29:22Z</time>
      </trkpt>
      <trkpt lat="44.29116" lon="5.5962">
        <ele>809</ele>
        <time>2019-06-19T09:29:23Z</time>
      </trkpt>
      <trkpt lat="44.2912" lon="5.59614">
        <ele>809</ele>
        <time>2019-06-19T09:29:24Z</time>
      </trkpt>
      <trkpt lat="44.29124" lon="5.59608">
        <ele>809</ele>
        <time>2019-06-19T09:29:25Z</time>
      </trkpt>
      <trkpt lat="44.29128" lon="5.59604">
        <ele>810</ele>
        <time>2019-06-19T09:29:26Z</time>
      </trkpt>
      <trkpt lat="44.29131" lon="5.596">
        <ele>810</ele>
        <time>2019-06-19T09:29:27Z</time>
      </trkpt>
      <trkpt lat="44.29134" lon="5.59596">
        <ele>811</ele>
        <time>2019-06-19T09:29:28Z</time>
      </trkpt>
      <trkpt lat="44.29137" lon="5.59593">
        <ele>811</ele>
        <time>2019-06-19T09:29:29Z</time>
      </trkpt>
      <trkpt lat="44.29139" lon="5.59589">
        <ele>811</ele>
        <time>2019-06-19T09:29:30Z</time>
      </trkpt>
      <trkpt lat="44.29143" lon="5.59585">
        <ele>811</ele>
        <time>2019-06-19T09:29:31Z</time>
      </trkpt>
      <trkpt lat="44.29147" lon="5.59582">
        <ele>812</ele>
        <time>2019-06-19T09:29:32Z</time>
      </trkpt>
      <trkpt lat="44.2915" lon="5.59579">
        <ele>812</ele>
        <time>2019-06-19T09:29:33Z</time>
      </trkpt>
      <trkpt lat="44.29154" lon="5.59576">
        <ele>813</ele>
        <time>2019-06-19T09:29:34Z</time>
      </trkpt>
      <trkpt lat="44.29158" lon="5.59574">
        <ele>814</ele>
        <time>2019-06-19T09:29:35Z</time>
      </trkpt>
      <trkpt lat="44.29162" lon="5.59572">
        <ele>814</ele>
        <time>2019-06-19T09:29:36Z</time>
      </trkpt>
      <trkpt lat="44.29166" lon="5.5957">
        <ele>815</ele>
        <time>2019-06-19T09:29:37Z</time>
      </trkpt>
      <trkpt lat="44.29171" lon="5.59568">
        <ele>815</ele>
        <time>2019-06-19T09:29:38Z</time>
      </trkpt>
      <trkpt lat="44.29175" lon="5.59566">
        <ele>815</ele>
        <time>2019-06-19T09:29:39Z</time>
      </trkpt>
      <trkpt lat="44.29179" lon="5.59565">
        <ele>815</ele>
        <time>2019-06-19T09:29:40Z</time>
      </trkpt>
      <trkpt lat="44.29183" lon="5.59564">
        <ele>816</ele>
        <time>2019-06-19T09:29:41Z</time>
      </trkpt>
      <trkpt lat="44.29187" lon="5.59563">
        <ele>816</ele>
        <time>2019-06-19T09:29:42Z</time>
      </trkpt>
      <trkpt lat="44.29192" lon="5.59563">
        <ele>816</ele>
        <time>2019-06-19T09:29:43Z</time>
      </trkpt>
      <trkpt lat="44.29196" lon="5.59563">
        <ele>816</ele>
        <time>2019-06-19T09:29:44Z</time>
      </trkpt>
      <trkpt lat="44.292" lon="5.59564">
        <ele>816</ele>
        <time>2019-06-19T09:29:45Z</time>
      </trkpt>
      <trkpt lat="44.29205" lon="5.59564">
        <ele>816</ele>
        <time>2019-06-19T09:29:46Z</time>
      </trkpt>
      <trkpt lat="44.29208" lon="5.59566">
        <ele>816</ele>
        <time>2019-06-19T09:29:47Z</time>
      </trkpt>
      <trkpt lat="44.29212" lon="5.59568">
        <ele>816</ele>
        <time>2019-06-19T09:29:48Z</time>
      </trkpt>
      <trkpt lat="44.29215" lon="5.5957">
        <ele>816</ele>
        <time>2019-06-19T09:29:49Z</time>
      </trkpt>
      <trkpt lat="44.29218" lon="5.59572">
        <ele>816</ele>
        <time>2019-06-19T09:29:50Z</time>
      </trkpt>
      <trkpt lat="44.29221" lon="5.59574">
        <ele>816</ele>
        <time>2019-06-19T09:29:51Z</time>
      </trkpt>
      <trkpt lat="44.29223" lon="5.59576">
        <ele>816</ele>
        <time>2019-06-19T09:29:52Z</time>
      </trkpt>
      <trkpt lat="44.29226" lon="5.59578">
        <ele>816</ele>
        <time>2019-06-19T09:29:53Z</time>
      </trkpt>
      <trkpt lat="44.29229" lon="5.5958">
        <ele>816</ele>
        <time>2019-06-19T09:29:54Z</time>
      </trkpt>
      <trkpt lat="44.29232" lon="5.59582">
        <ele>816</ele>
        <time>2019-06-19T09:29:55Z</time>
      </trkpt>
      <trkpt lat="44.29236" lon="5.59584">
        <ele>816</ele>
        <time>2019-06-19T09:29:56Z</time>
      </trkpt>
      <trkpt lat="44.2924" lon="5.59585">
        <ele>816</ele>
        <time>2019-06-19T09:29:57Z</time>
      </trkpt>
      <trkpt lat="44.29242" lon="5.59585">
        <ele>816</ele>
        <time>2019-06-19T09:29:58Z</time>
      </trkpt>
      <trkpt lat="44.29244" lon="5.59586">
        <ele>816</ele>
        <time>2019-06-19T09:29:59Z</time>
      </trkpt>
      <trkpt lat="44.29246" lon="5.59586">
        <ele>817</ele>
        <time>2019-06-19T09:30:00Z</time>
      </trkpt>
      <trkpt lat="44.29248" lon="5.59587">
        <ele>817</ele>
        <time>2019-06-19T09:30:01Z</time>
      </trkpt>
      <trkpt lat="44.2925" lon="5.59587">
        <ele>818</ele>
        <time>2019-06-19T09:30:02Z</time>
      </trkpt>
      <trkpt lat="44.29251" lon="5.59587">
        <ele>819</ele>
        <time>2019-06-19T09:30:03Z</time>
      </trkpt>
      <trkpt lat="44.29254" lon="5.59588">
        <ele>820</ele>
        <time>2019-06-19T09:30:04Z</time>
      </trkpt>
      <trkpt lat="44.29257" lon="5.5959">
        <ele>820</ele>
        <time>2019-06-19T09:30:05Z</time>
      </trkpt>
      <trkpt lat="44.2926" lon="5.59591">
        <ele>820</ele>
        <time>2019-06-19T09:30:06Z</time>
      </trkpt>
      <trkpt lat="44.29263" lon="5.59592">
        <ele>820</ele>
        <time>2019-06-19T09:30:07Z</time>
      </trkpt>
      <trkpt lat="44.29265" lon="5.59593">
        <ele>820</ele>
        <time>2019-06-19T09:30:08Z</time>
      </trkpt>
      <trkpt lat="44.29268" lon="5.59595">
        <ele>820</ele>
        <time>2019-06-19T09:30:09Z</time>
      </trkpt>
      <trkpt lat="44.29271" lon="5.59596">
        <ele>820</ele>
        <time>2019-06-19T09:30:10Z</time>
      </trkpt>
      <trkpt lat="44.29274" lon="5.59598">
        <ele>820</ele>
        <time>2019-06-19T09:30:11Z</time>
      </trkpt>
      <trkpt lat="44.29276" lon="5.596">
        <ele>820</ele>
        <time>2019-06-19T09:30:12Z</time>
      </trkpt>
      <trkpt lat="44.29278" lon="5.59601">
        <ele>820</ele>
        <time>2019-06-19T09:30:13Z</time>
      </trkpt>
      <trkpt lat="44.2928" lon="5.59601">
        <ele>820</ele>
        <time>2019-06-19T09:30:14Z</time>
      </trkpt>
      <trkpt lat="44.29282" lon="5.59602">
        <ele>820</ele>
        <time>2019-06-19T09:30:16Z</time>
      </trkpt>
      <trkpt lat="44.29283" lon="5.59603">
        <ele>820</ele>
        <time>2019-06-19T09:30:19Z</time>
      </trkpt>
      <trkpt lat="44.29285" lon="5.59603">
        <ele>820</ele>
        <time>2019-06-19T09:30:21Z</time>
      </trkpt>
      <trkpt lat="44.29286" lon="5.59606">
        <ele>820</ele>
        <time>2019-06-19T09:30:24Z</time>
      </trkpt>
      <trkpt lat="44.29287" lon="5.59608">
        <ele>820</ele>
        <time>2019-06-19T09:30:26Z</time>
      </trkpt>
      <trkpt lat="44.29289" lon="5.59609">
        <ele>820</ele>
        <time>2019-06-19T09:30:27Z</time>
      </trkpt>
      <trkpt lat="44.2929" lon="5.59609">
        <ele>820</ele>
        <time>2019-06-19T09:30:28Z</time>
      </trkpt>
      <trkpt lat="44.29291" lon="5.59609">
        <ele>820</ele>
        <time>2019-06-19T09:30:31Z</time>
      </trkpt>
      <trkpt lat="44.29292" lon="5.59608">
        <ele>820</ele>
        <time>2019-06-19T09:30:37Z</time>
      </trkpt>
      <trkpt lat="44.29293" lon="5.59609">
        <ele>820</ele>
        <time>2019-06-19T09:30:49Z</time>
      </trkpt>
      <trkpt lat="44.29294" lon="5.59611">
        <ele>820</ele>
        <time>2019-06-19T09:30:54Z</time>
      </trkpt>
      <trkpt lat="44.29294" lon="5.59612">
        <ele>820</ele>
        <time>2019-06-19T09:30:59Z</time>
      </trkpt>
      <trkpt lat="44.29294" lon="5.59611">
        <ele>819</ele>
        <time>2019-06-19T09:31:07Z</time>
      </trkpt>
      <trkpt lat="44.29293" lon="5.59609">
        <ele>819</ele>
        <time>2019-06-19T09:31:11Z</time>
      </trkpt>
      <trkpt lat="44.29293" lon="5.59608">
        <ele>819</ele>
        <time>2019-06-19T09:31:15Z</time>
      </trkpt>
      <trkpt lat="44.29292" lon="5.59606">
        <ele>821</ele>
        <time>2019-06-19T09:31:21Z</time>
      </trkpt>
      <trkpt lat="44.29293" lon="5.59608">
        <ele>824</ele>
        <time>2019-06-19T09:32:36Z</time>
      </trkpt>
      <trkpt lat="44.29293" lon="5.59609">
        <ele>824</ele>
        <time>2019-06-19T09:32:53Z</time>
      </trkpt>
      <trkpt lat="44.29293" lon="5.59611">
        <ele>824</ele>
        <time>2019-06-19T09:32:56Z</time>
      </trkpt>
      <trkpt lat="44.29293" lon="5.59612">
        <ele>824</ele>
        <time>2019-06-19T09:33:00Z</time>
      </trkpt>
      <trkpt lat="44.29292" lon="5.59612">
        <ele>824</ele>
        <time>2019-06-19T09:33:02Z</time>
      </trkpt>
      <trkpt lat="44.29291" lon="5.59612">
        <ele>824</ele>
        <time>2019-06-19T09:33:04Z</time>
      </trkpt>
      <trkpt lat="44.29289" lon="5.59611">
        <ele>824</ele>
        <time>2019-06-19T09:33:06Z</time>
      </trkpt>
      <trkpt lat="44.29288" lon="5.59609">
        <ele>824</ele>
        <time>2019-06-19T09:33:07Z</time>
      </trkpt>
      <trkpt lat="44.29287" lon="5.59609">
        <ele>824</ele>
        <time>2019-06-19T09:33:09Z</time>
      </trkpt>
      <trkpt lat="44.29286" lon="5.59609">
        <ele>824</ele>
        <time>2019-06-19T09:33:11Z</time>
      </trkpt>
      <trkpt lat="44.29284" lon="5.59608">
        <ele>824</ele>
        <time>2019-06-19T09:33:13Z</time>
      </trkpt>
      <trkpt lat="44.29283" lon="5.59607">
        <ele>824</ele>
        <time>2019-06-19T09:33:20Z</time>
      </trkpt>
      <trkpt lat="44.29282" lon="5.59605">
        <ele>824</ele>
        <time>2019-06-19T09:33:25Z</time>
      </trkpt>
      <trkpt lat="44.29281" lon="5.59605">
        <ele>824</ele>
        <time>2019-06-19T09:33:27Z</time>
      </trkpt>
      <trkpt lat="44.2928" lon="5.59607">
        <ele>824</ele>
        <time>2019-06-19T09:33:32Z</time>
      </trkpt>
      <trkpt lat="44.29279" lon="5.59607">
        <ele>828</ele>
        <time>2019-06-19T09:33:39Z</time>
      </trkpt>
      <trkpt lat="44.29278" lon="5.59609">
        <ele>830</ele>
        <time>2019-06-19T09:33:43Z</time>
      </trkpt>
      <trkpt lat="44.29277" lon="5.5961">
        <ele>830</ele>
        <time>2019-06-19T09:33:44Z</time>
      </trkpt>
      <trkpt lat="44.29276" lon="5.59612">
        <ele>830</ele>
        <time>2019-06-19T09:33:45Z</time>
      </trkpt>
      <trkpt lat="44.29275" lon="5.59614">
        <ele>830</ele>
        <time>2019-06-19T09:33:46Z</time>
      </trkpt>
      <trkpt lat="44.29274" lon="5.59616">
        <ele>830</ele>
        <time>2019-06-19T09:33:47Z</time>
      </trkpt>
      <trkpt lat="44.29274" lon="5.5962">
        <ele>830</ele>
        <time>2019-06-19T09:33:48Z</time>
      </trkpt>
      <trkpt lat="44.29273" lon="5.59623">
        <ele>830</ele>
        <time>2019-06-19T09:33:49Z</time>
      </trkpt>
      <trkpt lat="44.29272" lon="5.59627">
        <ele>830</ele>
        <time>2019-06-19T09:33:50Z</time>
      </trkpt>
      <trkpt lat="44.29271" lon="5.59631">
        <ele>830</ele>
        <time>2019-06-19T09:33:51Z</time>
      </trkpt>
      <trkpt lat="44.2927" lon="5.59636">
        <ele>830</ele>
        <time>2019-06-19T09:33:52Z</time>
      </trkpt>
      <trkpt lat="44.29268" lon="5.59641">
        <ele>830</ele>
        <time>2019-06-19T09:33:53Z</time>
      </trkpt>
      <trkpt lat="44.29267" lon="5.59646">
        <ele>830</ele>
        <time>2019-06-19T09:33:54Z</time>
      </trkpt>
      <trkpt lat="44.29266" lon="5.59651">
        <ele>830</ele>
        <time>2019-06-19T09:33:55Z</time>
      </trkpt>
      <trkpt lat="44.29264" lon="5.59656">
        <ele>830</ele>
        <time>2019-06-19T09:33:56Z</time>
      </trkpt>
      <trkpt lat="44.29261" lon="5.59662">
        <ele>829</ele>
        <time>2019-06-19T09:33:57Z</time>
      </trkpt>
      <trkpt lat="44.29258" lon="5.59666">
        <ele>829</ele>
        <time>2019-06-19T09:33:58Z</time>
      </trkpt>
      <trkpt lat="44.29256" lon="5.5967">
        <ele>829</ele>
        <time>2019-06-19T09:33:59Z</time>
      </trkpt>
      <trkpt lat="44.29252" lon="5.59675">
        <ele>829</ele>
        <time>2019-06-19T09:34:00Z</time>
      </trkpt>
      <trkpt lat="44.29248" lon="5.5968">
        <ele>829</ele>
        <time>2019-06-19T09:34:01Z</time>
      </trkpt>
      <trkpt lat="44.29245" lon="5.59684">
        <ele>829</ele>
        <time>2019-06-19T09:34:02Z</time>
      </trkpt>
      <trkpt lat="44.29242" lon="5.59688">
        <ele>828</ele>
        <time>2019-06-19T09:34:03Z</time>
      </trkpt>
      <trkpt lat="44.2924" lon="5.59692">
        <ele>828</ele>
        <time>2019-06-19T09:34:04Z</time>
      </trkpt>
      <trkpt lat="44.29237" lon="5.59695">
        <ele>828</ele>
        <time>2019-06-19T09:34:05Z</time>
      </trkpt>
      <trkpt lat="44.29233" lon="5.597">
        <ele>828</ele>
        <time>2019-06-19T09:34:06Z</time>
      </trkpt>
      <trkpt lat="44.29229" lon="5.59704">
        <ele>828</ele>
        <time>2019-06-19T09:34:07Z</time>
      </trkpt>
      <trkpt lat="44.29226" lon="5.59709">
        <ele>827</ele>
        <time>2019-06-19T09:34:08Z</time>
      </trkpt>
      <trkpt lat="44.29222" lon="5.59713">
        <ele>827</ele>
        <time>2019-06-19T09:34:09Z</time>
      </trkpt>
      <trkpt lat="44.2922" lon="5.59717">
        <ele>827</ele>
        <time>2019-06-19T09:34:10Z</time>
      </trkpt>
      <trkpt lat="44.29217" lon="5.59721">
        <ele>827</ele>
        <time>2019-06-19T09:34:11Z</time>
      </trkpt>
      <trkpt lat="44.29215" lon="5.59725">
        <ele>827</ele>
        <time>2019-06-19T09:34:12Z</time>
      </trkpt>
      <trkpt lat="44.29212" lon="5.59729">
        <ele>827</ele>
        <time>2019-06-19T09:34:13Z</time>
      </trkpt>
      <trkpt lat="44.2921" lon="5.59733">
        <ele>826</ele>
        <time>2019-06-19T09:34:14Z</time>
      </trkpt>
      <trkpt lat="44.29207" lon="5.59737">
        <ele>826</ele>
        <time>2019-06-19T09:34:15Z</time>
      </trkpt>
      <trkpt lat="44.29204" lon="5.59741">
        <ele>826</ele>
        <time>2019-06-19T09:34:16Z</time>
      </trkpt>
      <trkpt lat="44.29201" lon="5.59745">
        <ele>826</ele>
        <time>2019-06-19T09:34:17Z</time>
      </trkpt>
      <trkpt lat="44.29197" lon="5.59749">
        <ele>826</ele>
        <time>2019-06-19T09:34:18Z</time>
      </trkpt>
      <trkpt lat="44.29194" lon="5.59752">
        <ele>826</ele>
        <time>2019-06-19T09:34:19Z</time>
      </trkpt>
      <trkpt lat="44.2919" lon="5.59755">
        <ele>826</ele>
        <time>2019-06-19T09:34:20Z</time>
      </trkpt>
      <trkpt lat="44.29186" lon="5.59759">
        <ele>825</ele>
        <time>2019-06-19T09:34:21Z</time>
      </trkpt>
      <trkpt lat="44.29182" lon="5.59763">
        <ele>825</ele>
        <time>2019-06-19T09:34:22Z</time>
      </trkpt>
      <trkpt lat="44.29178" lon="5.59768">
        <ele>825</ele>
        <time>2019-06-19T09:34:23Z</time>
      </trkpt>
      <trkpt lat="44.29174" lon="5.59773">
        <ele>825</ele>
        <time>2019-06-19T09:34:24Z</time>
      </trkpt>
      <trkpt lat="44.2917" lon="5.59777">
        <ele>824</ele>
        <time>2019-06-19T09:34:25Z</time>
      </trkpt>
      <trkpt lat="44.29166" lon="5.59782">
        <ele>824</ele>
        <time>2019-06-19T09:34:26Z</time>
      </trkpt>
      <trkpt lat="44.29161" lon="5.59788">
        <ele>823</ele>
        <time>2019-06-19T09:34:27Z</time>
      </trkpt>
      <trkpt lat="44.29158" lon="5.59793">
        <ele>823</ele>
        <time>2019-06-19T09:34:28Z</time>
      </trkpt>
      <trkpt lat="44.29154" lon="5.598">
        <ele>822</ele>
        <time>2019-06-19T09:34:29Z</time>
      </trkpt>
      <trkpt lat="44.2915" lon="5.59808">
        <ele>821</ele>
        <time>2019-06-19T09:34:30Z</time>
      </trkpt>
      <trkpt lat="44.29147" lon="5.59816">
        <ele>821</ele>
        <time>2019-06-19T09:34:31Z</time>
      </trkpt>
      <trkpt lat="44.29143" lon="5.59825">
        <ele>820</ele>
        <time>2019-06-19T09:34:32Z</time>
      </trkpt>
      <trkpt lat="44.2914" lon="5.59834">
        <ele>819</ele>
        <time>2019-06-19T09:34:33Z</time>
      </trkpt>
      <trkpt lat="44.29137" lon="5.59844">
        <ele>819</ele>
        <time>2019-06-19T09:34:34Z</time>
      </trkpt>
      <trkpt lat="44.29135" lon="5.59855">
        <ele>818</ele>
        <time>2019-06-19T09:34:35Z</time>
      </trkpt>
      <trkpt lat="44.29132" lon="5.59865">
        <ele>818</ele>
        <time>2019-06-19T09:34:36Z</time>
      </trkpt>
      <trkpt lat="44.29131" lon="5.59876">
        <ele>817</ele>
        <time>2019-06-19T09:34:37Z</time>
      </trkpt>
      <trkpt lat="44.29129" lon="5.59888">
        <ele>817</ele>
        <time>2019-06-19T09:34:38Z</time>
      </trkpt>
      <trkpt lat="44.29127" lon="5.599">
        <ele>816</ele>
        <time>2019-06-19T09:34:39Z</time>
      </trkpt>
      <trkpt lat="44.29126" lon="5.59912">
        <ele>816</ele>
        <time>2019-06-19T09:34:40Z</time>
      </trkpt>
      <trkpt lat="44.29126" lon="5.59924">
        <ele>816</ele>
        <time>2019-06-19T09:34:41Z</time>
      </trkpt>
      <trkpt lat="44.29125" lon="5.59936">
        <ele>815</ele>
        <time>2019-06-19T09:34:42Z</time>
      </trkpt>
      <trkpt lat="44.29124" lon="5.59949">
        <ele>815</ele>
        <time>2019-06-19T09:34:43Z</time>
      </trkpt>
      <trkpt lat="44.29124" lon="5.59961">
        <ele>815</ele>
        <time>2019-06-19T09:34:44Z</time>
      </trkpt>
      <trkpt lat="44.29124" lon="5.59974">
        <ele>814</ele>
        <time>2019-06-19T09:34:45Z</time>
      </trkpt>
      <trkpt lat="44.29123" lon="5.59986">
        <ele>814</ele>
        <time>2019-06-19T09:34:46Z</time>
      </trkpt>
      <trkpt lat="44.29124" lon="5.59999">
        <ele>814</ele>
        <time>2019-06-19T09:34:47Z</time>
      </trkpt>
      <trkpt lat="44.29124" lon="5.60011">
        <ele>813</ele>
        <time>2019-06-19T09:34:48Z</time>
      </trkpt>
      <trkpt lat="44.29125" lon="5.60024">
        <ele>813</ele>
        <time>2019-06-19T09:34:49Z</time>
      </trkpt>
      <trkpt lat="44.29126" lon="5.60036">
        <ele>813</ele>
        <time>2019-06-19T09:34:50Z</time>
      </trkpt>
      <trkpt lat="44.29127" lon="5.60049">
        <ele>812</ele>
        <time>2019-06-19T09:34:51Z</time>
      </trkpt>
      <trkpt lat="44.29129" lon="5.60061">
        <ele>812</ele>
        <time>2019-06-19T09:34:52Z</time>
      </trkpt>
      <trkpt lat="44.29131" lon="5.60073">
        <ele>812</ele>
        <time>2019-06-19T09:34:53Z</time>
      </trkpt>
      <trkpt lat="44.29135" lon="5.60085">
        <ele>811</ele>
        <time>2019-06-19T09:34:54Z</time>
      </trkpt>
      <trkpt lat="44.29139" lon="5.60096">
        <ele>811</ele>
        <time>2019-06-19T09:34:55Z</time>
      </trkpt>
      <trkpt lat="44.29143" lon="5.60107">
        <ele>810</ele>
        <time>2019-06-19T09:34:56Z</time>
      </trkpt>
      <trkpt lat="44.29148" lon="5.60117">
        <ele>810</ele>
        <time>2019-06-19T09:34:57Z</time>
      </trkpt>
      <trkpt lat="44.29153" lon="5.60128">
        <ele>810</ele>
        <time>2019-06-19T09:34:58Z</time>
      </trkpt>
      <trkpt lat="44.29157" lon="5.60138">
        <ele>810</ele>
        <time>2019-06-19T09:34:59Z</time>
      </trkpt>
      <trkpt lat="44.29162" lon="5.60148">
        <ele>810</ele>
        <time>2019-06-19T09:35:00Z</time>
      </trkpt>
      <trkpt lat="44.29167" lon="5.60157">
        <ele>809</ele>
        <time>2019-06-19T09:35:01Z</time>
      </trkpt>
      <trkpt lat="44.29172" lon="5.60167">
        <ele>809</ele>
        <time>2019-06-19T09:35:02Z</time>
      </trkpt>
      <trkpt lat="44.29177" lon="5.60176">
        <ele>809</ele>
        <time>2019-06-19T09:35:03Z</time>
      </trkpt>
      <trkpt lat="44.29182" lon="5.60185">
        <ele>808</ele>
        <time>2019-06-19T09:35:04Z</time>
      </trkpt>
      <trkpt lat="44.29187" lon="5.60194">
        <ele>808</ele>
        <time>2019-06-19T09:35:05Z</time>
      </trkpt>
      <trkpt lat="44.2919" lon="5.60204">
        <ele>808</ele>
        <time>2019-06-19T09:35:06Z</time>
      </trkpt>
      <trkpt lat="44.29194" lon="5.60213">
        <ele>807</ele>
        <time>2019-06-19T09:35:07Z</time>
      </trkpt>
      <trkpt lat="44.29198" lon="5.60222">
        <ele>807</ele>
        <time>2019-06-19T09:35:08Z</time>
      </trkpt>
      <trkpt lat="44.29201" lon="5.6023">
        <ele>807</ele>
        <time>2019-06-19T09:35:09Z</time>
      </trkpt>
      <trkpt lat="44.29205" lon="5.60239">
        <ele>807</ele>
        <time>2019-06-19T09:35:10Z</time>
      </trkpt>
      <trkpt lat="44.29208" lon="5.60248">
        <ele>807</ele>
        <time>2019-06-19T09:35:11Z</time>
      </trkpt>
      <trkpt lat="44.29211" lon="5.60256">
        <ele>806</ele>
        <time>2019-06-19T09:35:12Z</time>
      </trkpt>
      <trkpt lat="44.29214" lon="5.60265">
        <ele>806</ele>
        <time>2019-06-19T09:35:13Z</time>
      </trkpt>
      <trkpt lat="44.29216" lon="5.60274">
        <ele>806</ele>
        <time>2019-06-19T09:35:14Z</time>
      </trkpt>
      <trkpt lat="44.29219" lon="5.60283">
        <ele>806</ele>
        <time>2019-06-19T09:35:15Z</time>
      </trkpt>
      <trkpt lat="44.29221" lon="5.60292">
        <ele>806</ele>
        <time>2019-06-19T09:35:16Z</time>
      </trkpt>
      <trkpt lat="44.29222" lon="5.60301">
        <ele>806</ele>
        <time>2019-06-19T09:35:17Z</time>
      </trkpt>
      <trkpt lat="44.29224" lon="5.60311">
        <ele>806</ele>
        <time>2019-06-19T09:35:18Z</time>
      </trkpt>
      <trkpt lat="44.29225" lon="5.6032">
        <ele>806</ele>
        <time>2019-06-19T09:35:19Z</time>
      </trkpt>
      <trkpt lat="44.29226" lon="5.60329">
        <ele>806</ele>
        <time>2019-06-19T09:35:20Z</time>
      </trkpt>
      <trkpt lat="44.29227" lon="5.60338">
        <ele>806</ele>
        <time>2019-06-19T09:35:21Z</time>
      </trkpt>
      <trkpt lat="44.29229" lon="5.60348">
        <ele>805</ele>
        <time>2019-06-19T09:35:22Z</time>
      </trkpt>
      <trkpt lat="44.2923" lon="5.60357">
        <ele>805</ele>
        <time>2019-06-19T09:35:23Z</time>
      </trkpt>
      <trkpt lat="44.29232" lon="5.60367">
        <ele>805</ele>
        <time>2019-06-19T09:35:24Z</time>
      </trkpt>
      <trkpt lat="44.29234" lon="5.60376">
        <ele>805</ele>
        <time>2019-06-19T09:35:25Z</time>
      </trkpt>
      <trkpt lat="44.29236" lon="5.60386">
        <ele>804</ele>
        <time>2019-06-19T09:35:26Z</time>
      </trkpt>
      <trkpt lat="44.29238" lon="5.60395">
        <ele>804</ele>
        <time>2019-06-19T09:35:27Z</time>
      </trkpt>
      <trkpt lat="44.2924" lon="5.60405">
        <ele>804</ele>
        <time>2019-06-19T09:35:28Z</time>
      </trkpt>
      <trkpt lat="44.29243" lon="5.60415">
        <ele>804</ele>
        <time>2019-06-19T09:35:29Z</time>
      </trkpt>
      <trkpt lat="44.29245" lon="5.60425">
        <ele>803</ele>
        <time>2019-06-19T09:35:30Z</time>
      </trkpt>
      <trkpt lat="44.29248" lon="5.60434">
        <ele>803</ele>
        <time>2019-06-19T09:35:31Z</time>
      </trkpt>
      <trkpt lat="44.2925" lon="5.60445">
        <ele>802</ele>
        <time>2019-06-19T09:35:32Z</time>
      </trkpt>
      <trkpt lat="44.29251" lon="5.60455">
        <ele>802</ele>
        <time>2019-06-19T09:35:33Z</time>
      </trkpt>
      <trkpt lat="44.29251" lon="5.60466">
        <ele>802</ele>
        <time>2019-06-19T09:35:34Z</time>
      </trkpt>
      <trkpt lat="44.29251" lon="5.60476">
        <ele>802</ele>
        <time>2019-06-19T09:35:35Z</time>
      </trkpt>
      <trkpt lat="44.2925" lon="5.60486">
        <ele>802</ele>
        <time>2019-06-19T09:35:36Z</time>
      </trkpt>
      <trkpt lat="44.29248" lon="5.60496">
        <ele>802</ele>
        <time>2019-06-19T09:35:37Z</time>
      </trkpt>
      <trkpt lat="44.29246" lon="5.60505">
        <ele>802</ele>
        <time>2019-06-19T09:35:38Z</time>
      </trkpt>
      <trkpt lat="44.29244" lon="5.60515">
        <ele>802</ele>
        <time>2019-06-19T09:35:39Z</time>
      </trkpt>
      <trkpt lat="44.29242" lon="5.60524">
        <ele>802</ele>
        <time>2019-06-19T09:35:40Z</time>
      </trkpt>
      <trkpt lat="44.2924" lon="5.60533">
        <ele>802</ele>
        <time>2019-06-19T09:35:41Z</time>
      </trkpt>
      <trkpt lat="44.29238" lon="5.60542">
        <ele>802</ele>
        <time>2019-06-19T09:35:42Z</time>
      </trkpt>
      <trkpt lat="44.29236" lon="5.60551">
        <ele>802</ele>
        <time>2019-06-19T09:35:43Z</time>
      </trkpt>
      <trkpt lat="44.29235" lon="5.6056">
        <ele>802</ele>
        <time>2019-06-19T09:35:44Z</time>
      </trkpt>
      <trkpt lat="44.29233" lon="5.60569">
        <ele>802</ele>
        <time>2019-06-19T09:35:45Z</time>
      </trkpt>
      <trkpt lat="44.29231" lon="5.60579">
        <ele>802</ele>
        <time>2019-06-19T09:35:46Z</time>
      </trkpt>
      <trkpt lat="44.29229" lon="5.60589">
        <ele>802</ele>
        <time>2019-06-19T09:35:47Z</time>
      </trkpt>
      <trkpt lat="44.29228" lon="5.60598">
        <ele>802</ele>
        <time>2019-06-19T09:35:48Z</time>
      </trkpt>
      <trkpt lat="44.29226" lon="5.60608">
        <ele>802</ele>
        <time>2019-06-19T09:35:49Z</time>
      </trkpt>
      <trkpt lat="44.29225" lon="5.60617">
        <ele>801</ele>
        <time>2019-06-19T09:35:50Z</time>
      </trkpt>
      <trkpt lat="44.29222" lon="5.60628">
        <ele>801</ele>
        <time>2019-06-19T09:35:51Z</time>
      </trkpt>
      <trkpt lat="44.29221" lon="5.60638">
        <ele>801</ele>
        <time>2019-06-19T09:35:52Z</time>
      </trkpt>
      <trkpt lat="44.29219" lon="5.60649">
        <ele>801</ele>
        <time>2019-06-19T09:35:53Z</time>
      </trkpt>
      <trkpt lat="44.29217" lon="5.60661">
        <ele>800</ele>
        <time>2019-06-19T09:35:54Z</time>
      </trkpt>
      <trkpt lat="44.29216" lon="5.60673">
        <ele>800</ele>
        <time>2019-06-19T09:35:55Z</time>
      </trkpt>
      <trkpt lat="44.29216" lon="5.60684">
        <ele>800</ele>
        <time>2019-06-19T09:35:56Z</time>
      </trkpt>
      <trkpt lat="44.29215" lon="5.60697">
        <ele>799</ele>
        <time>2019-06-19T09:35:57Z</time>
      </trkpt>
      <trkpt lat="44.29214" lon="5.6071">
        <ele>799</ele>
        <time>2019-06-19T09:35:58Z</time>
      </trkpt>
      <trkpt lat="44.29214" lon="5.60723">
        <ele>799</ele>
        <time>2019-06-19T09:35:59Z</time>
      </trkpt>
      <trkpt lat="44.29214" lon="5.60736">
        <ele>798</ele>
        <time>2019-06-19T09:36:00Z</time>
      </trkpt>
      <trkpt lat="44.29215" lon="5.60749">
        <ele>798</ele>
        <time>2019-06-19T09:36:01Z</time>
      </trkpt>
      <trkpt lat="44.29216" lon="5.60761">
        <ele>798</ele>
        <time>2019-06-19T09:36:02Z</time>
      </trkpt>
      <trkpt lat="44.29218" lon="5.60774">
        <ele>797</ele>
        <time>2019-06-19T09:36:03Z</time>
      </trkpt>
      <trkpt lat="44.29219" lon="5.60786">
        <ele>797</ele>
        <time>2019-06-19T09:36:04Z</time>
      </trkpt>
      <trkpt lat="44.29221" lon="5.60799">
        <ele>797</ele>
        <time>2019-06-19T09:36:05Z</time>
      </trkpt>
      <trkpt lat="44.29222" lon="5.60811">
        <ele>796</ele>
        <time>2019-06-19T09:36:06Z</time>
      </trkpt>
      <trkpt lat="44.29224" lon="5.60823">
        <ele>796</ele>
        <time>2019-06-19T09:36:07Z</time>
      </trkpt>
      <trkpt lat="44.29226" lon="5.60835">
        <ele>796</ele>
        <time>2019-06-19T09:36:08Z</time>
      </trkpt>
      <trkpt lat="44.29227" lon="5.60847">
        <ele>796</ele>
        <time>2019-06-19T09:36:09Z</time>
      </trkpt>
      <trkpt lat="44.29229" lon="5.60859">
        <ele>796</ele>
        <time>2019-06-19T09:36:10Z</time>
      </trkpt>
      <trkpt lat="44.2923" lon="5.6087">
        <ele>796</ele>
        <time>2019-06-19T09:36:11Z</time>
      </trkpt>
      <trkpt lat="44.29232" lon="5.60882">
        <ele>795</ele>
        <time>2019-06-19T09:36:12Z</time>
      </trkpt>
      <trkpt lat="44.29233" lon="5.60893">
        <ele>795</ele>
        <time>2019-06-19T09:36:13Z</time>
      </trkpt>
      <trkpt lat="44.29235" lon="5.60904">
        <ele>795</ele>
        <time>2019-06-19T09:36:14Z</time>
      </trkpt>
      <trkpt lat="44.29237" lon="5.60915">
        <ele>795</ele>
        <time>2019-06-19T09:36:15Z</time>
      </trkpt>
      <trkpt lat="44.29238" lon="5.60926">
        <ele>795</ele>
        <time>2019-06-19T09:36:16Z</time>
      </trkpt>
      <trkpt lat="44.29239" lon="5.60937">
        <ele>795</ele>
        <time>2019-06-19T09:36:17Z</time>
      </trkpt>
      <trkpt lat="44.2924" lon="5.60948">
        <ele>794</ele>
        <time>2019-06-19T09:36:18Z</time>
      </trkpt>
      <trkpt lat="44.29242" lon="5.60958">
        <ele>794</ele>
        <time>2019-06-19T09:36:19Z</time>
      </trkpt>
      <trkpt lat="44.29243" lon="5.60969">
        <ele>794</ele>
        <time>2019-06-19T09:36:20Z</time>
      </trkpt>
      <trkpt lat="44.29245" lon="5.6098">
        <ele>794</ele>
        <time>2019-06-19T09:36:21Z</time>
      </trkpt>
      <trkpt lat="44.29246" lon="5.6099">
        <ele>794</ele>
        <time>2019-06-19T09:36:22Z</time>
      </trkpt>
      <trkpt lat="44.29247" lon="5.61001">
        <ele>793</ele>
        <time>2019-06-19T09:36:23Z</time>
      </trkpt>
      <trkpt lat="44.29249" lon="5.61012">
        <ele>793</ele>
        <time>2019-06-19T09:36:24Z</time>
      </trkpt>
      <trkpt lat="44.2925" lon="5.61022">
        <ele>793</ele>
        <time>2019-06-19T09:36:25Z</time>
      </trkpt>
      <trkpt lat="44.29251" lon="5.61033">
        <ele>793</ele>
        <time>2019-06-19T09:36:26Z</time>
      </trkpt>
      <trkpt lat="44.29252" lon="5.61043">
        <ele>792</ele>
        <time>2019-06-19T09:36:27Z</time>
      </trkpt>
      <trkpt lat="44.29254" lon="5.61054">
        <ele>792</ele>
        <time>2019-06-19T09:36:28Z</time>
      </trkpt>
      <trkpt lat="44.29255" lon="5.61064">
        <ele>792</ele>
        <time>2019-06-19T09:36:29Z</time>
      </trkpt>
      <trkpt lat="44.29256" lon="5.61074">
        <ele>792</ele>
        <time>2019-06-19T09:36:30Z</time>
      </trkpt>
      <trkpt lat="44.29258" lon="5.61084">
        <ele>792</ele>
        <time>2019-06-19T09:36:31Z</time>
      </trkpt>
      <trkpt lat="44.29259" lon="5.61095">
        <ele>792</ele>
        <time>2019-06-19T09:36:32Z</time>
      </trkpt>
      <trkpt lat="44.2926" lon="5.61104">
        <ele>792</ele>
        <time>2019-06-19T09:36:33Z</time>
      </trkpt>
      <trkpt lat="44.29261" lon="5.61114">
        <ele>792</ele>
        <time>2019-06-19T09:36:34Z</time>
      </trkpt>
      <trkpt lat="44.29263" lon="5.61124">
        <ele>792</ele>
        <time>2019-06-19T09:36:35Z</time>
      </trkpt>
      <trkpt lat="44.29264" lon="5.61133">
        <ele>792</ele>
        <time>2019-06-19T09:36:36Z</time>
      </trkpt>
      <trkpt lat="44.29264" lon="5.61142">
        <ele>792</ele>
        <time>2019-06-19T09:36:37Z</time>
      </trkpt>
      <trkpt lat="44.29265" lon="5.61151">
        <ele>792</ele>
        <time>2019-06-19T09:36:38Z</time>
      </trkpt>
      <trkpt lat="44.29266" lon="5.6116">
        <ele>792</ele>
        <time>2019-06-19T09:36:39Z</time>
      </trkpt>
      <trkpt lat="44.29267" lon="5.61169">
        <ele>791</ele>
        <time>2019-06-19T09:36:40Z</time>
      </trkpt>
      <trkpt lat="44.29268" lon="5.61178">
        <ele>791</ele>
        <time>2019-06-19T09:36:41Z</time>
      </trkpt>
      <trkpt lat="44.29268" lon="5.61188">
        <ele>791</ele>
        <time>2019-06-19T09:36:42Z</time>
      </trkpt>
      <trkpt lat="44.29269" lon="5.61197">
        <ele>791</ele>
        <time>2019-06-19T09:36:43Z</time>
      </trkpt>
      <trkpt lat="44.29269" lon="5.61206">
        <ele>791</ele>
        <time>2019-06-19T09:36:44Z</time>
      </trkpt>
      <trkpt lat="44.29269" lon="5.61215">
        <ele>791</ele>
        <time>2019-06-19T09:36:45Z</time>
      </trkpt>
      <trkpt lat="44.29269" lon="5.61225">
        <ele>791</ele>
        <time>2019-06-19T09:36:46Z</time>
      </trkpt>
      <trkpt lat="44.29269" lon="5.61234">
        <ele>791</ele>
        <time>2019-06-19T09:36:47Z</time>
      </trkpt>
      <trkpt lat="44.29269" lon="5.61243">
        <ele>791</ele>
        <time>2019-06-19T09:36:48Z</time>
      </trkpt>
      <trkpt lat="44.29269" lon="5.61252">
        <ele>791</ele>
        <time>2019-06-19T09:36:49Z</time>
      </trkpt>
      <trkpt lat="44.29269" lon="5.61261">
        <ele>791</ele>
        <time>2019-06-19T09:36:50Z</time>
      </trkpt>
      <trkpt lat="44.29269" lon="5.6127">
        <ele>791</ele>
        <time>2019-06-19T09:36:51Z</time>
      </trkpt>
      <trkpt lat="44.29269" lon="5.61279">
        <ele>791</ele>
        <time>2019-06-19T09:36:52Z</time>
      </trkpt>
      <trkpt lat="44.29269" lon="5.61287">
        <ele>791</ele>
        <time>2019-06-19T09:36:53Z</time>
      </trkpt>
      <trkpt lat="44.29269" lon="5.61296">
        <ele>791</ele>
        <time>2019-06-19T09:36:54Z</time>
      </trkpt>
      <trkpt lat="44.29269" lon="5.61305">
        <ele>791</ele>
        <time>2019-06-19T09:36:55Z</time>
      </trkpt>
      <trkpt lat="44.29269" lon="5.61313">
        <ele>791</ele>
        <time>2019-06-19T09:36:56Z</time>
      </trkpt>
      <trkpt lat="44.29269" lon="5.61322">
        <ele>791</ele>
        <time>2019-06-19T09:36:57Z</time>
      </trkpt>
      <trkpt lat="44.29269" lon="5.6133">
        <ele>791</ele>
        <time>2019-06-19T09:36:58Z</time>
      </trkpt>
      <trkpt lat="44.29269" lon="5.61339">
        <ele>791</ele>
        <time>2019-06-19T09:36:59Z</time>
      </trkpt>
      <trkpt lat="44.2927" lon="5.61348">
        <ele>791</ele>
        <time>2019-06-19T09:37:00Z</time>
      </trkpt>
      <trkpt lat="44.2927" lon="5.61357">
        <ele>791</ele>
        <time>2019-06-19T09:37:01Z</time>
      </trkpt>
      <trkpt lat="44.2927" lon="5.61366">
        <ele>791</ele>
        <time>2019-06-19T09:37:02Z</time>
      </trkpt>
      <trkpt lat="44.2927" lon="5.61375">
        <ele>791</ele>
        <time>2019-06-19T09:37:03Z</time>
      </trkpt>
      <trkpt lat="44.2927" lon="5.61385">
        <ele>791</ele>
        <time>2019-06-19T09:37:04Z</time>
      </trkpt>
      <trkpt lat="44.2927" lon="5.61395">
        <ele>791</ele>
        <time>2019-06-19T09:37:05Z</time>
      </trkpt>
      <trkpt lat="44.2927" lon="5.61405">
        <ele>791</ele>
        <time>2019-06-19T09:37:06Z</time>
      </trkpt>
      <trkpt lat="44.29271" lon="5.61414">
        <ele>790</ele>
        <time>2019-06-19T09:37:07Z</time>
      </trkpt>
      <trkpt lat="44.29271" lon="5.61424">
        <ele>790</ele>
        <time>2019-06-19T09:37:08Z</time>
      </trkpt>
      <trkpt lat="44.29271" lon="5.61434">
        <ele>790</ele>
        <time>2019-06-19T09:37:09Z</time>
      </trkpt>
      <trkpt lat="44.2927" lon="5.61444">
        <ele>790</ele>
        <time>2019-06-19T09:37:10Z</time>
      </trkpt>
      <trkpt lat="44.2927" lon="5.61454">
        <ele>790</ele>
        <time>2019-06-19T09:37:11Z</time>
      </trkpt>
      <trkpt lat="44.2927" lon="5.61464">
        <ele>790</ele>
        <time>2019-06-19T09:37:12Z</time>
      </trkpt>
      <trkpt lat="44.29269" lon="5.61474">
        <ele>789</ele>
        <time>2019-06-19T09:37:13Z</time>
      </trkpt>
      <trkpt lat="44.29269" lon="5.61485">
        <ele>789</ele>
        <time>2019-06-19T09:37:14Z</time>
      </trkpt>
      <trkpt lat="44.29268" lon="5.61494">
        <ele>789</ele>
        <time>2019-06-19T09:37:15Z</time>
      </trkpt>
      <trkpt lat="44.29266" lon="5.61505">
        <ele>789</ele>
        <time>2019-06-19T09:37:16Z</time>
      </trkpt>
      <trkpt lat="44.29265" lon="5.61515">
        <ele>789</ele>
        <time>2019-06-19T09:37:17Z</time>
      </trkpt>
      <trkpt lat="44.29263" lon="5.61524">
        <ele>789</ele>
        <time>2019-06-19T09:37:18Z</time>
      </trkpt>
      <trkpt lat="44.29261" lon="5.61534">
        <ele>789</ele>
        <time>2019-06-19T09:37:19Z</time>
      </trkpt>
      <trkpt lat="44.29259" lon="5.61543">
        <ele>788</ele>
        <time>2019-06-19T09:37:20Z</time>
      </trkpt>
      <trkpt lat="44.29257" lon="5.61553">
        <ele>788</ele>
        <time>2019-06-19T09:37:21Z</time>
      </trkpt>
      <trkpt lat="44.29255" lon="5.61562">
        <ele>788</ele>
        <time>2019-06-19T09:37:22Z</time>
      </trkpt>
      <trkpt lat="44.29253" lon="5.61572">
        <ele>788</ele>
        <time>2019-06-19T09:37:23Z</time>
      </trkpt>
      <trkpt lat="44.2925" lon="5.61581">
        <ele>788</ele>
        <time>2019-06-19T09:37:24Z</time>
      </trkpt>
      <trkpt lat="44.29248" lon="5.6159">
        <ele>788</ele>
        <time>2019-06-19T09:37:25Z</time>
      </trkpt>
      <trkpt lat="44.29245" lon="5.61599">
        <ele>788</ele>
        <time>2019-06-19T09:37:26Z</time>
      </trkpt>
      <trkpt lat="44.29243" lon="5.61608">
        <ele>788</ele>
        <time>2019-06-19T09:37:27Z</time>
      </trkpt>
      <trkpt lat="44.29241" lon="5.61617">
        <ele>788</ele>
        <time>2019-06-19T09:37:28Z</time>
      </trkpt>
      <trkpt lat="44.29239" lon="5.61626">
        <ele>788</ele>
        <time>2019-06-19T09:37:29Z</time>
      </trkpt>
      <trkpt lat="44.29237" lon="5.61635">
        <ele>788</ele>
        <time>2019-06-19T09:37:30Z</time>
      </trkpt>
      <trkpt lat="44.29235" lon="5.61644">
        <ele>788</ele>
        <time>2019-06-19T09:37:31Z</time>
      </trkpt>
      <trkpt lat="44.29232" lon="5.61653">
        <ele>788</ele>
        <time>2019-06-19T09:37:32Z</time>
      </trkpt>
      <trkpt lat="44.2923" lon="5.61662">
        <ele>787</ele>
        <time>2019-06-19T09:37:33Z</time>
      </trkpt>
      <trkpt lat="44.29228" lon="5.61671">
        <ele>787</ele>
        <time>2019-06-19T09:37:34Z</time>
      </trkpt>
      <trkpt lat="44.29226" lon="5.6168">
        <ele>787</ele>
        <time>2019-06-19T09:37:35Z</time>
      </trkpt>
      <trkpt lat="44.29224" lon="5.61689">
        <ele>787</ele>
        <time>2019-06-19T09:37:36Z</time>
      </trkpt>
      <trkpt lat="44.29222" lon="5.61698">
        <ele>787</ele>
        <time>2019-06-19T09:37:37Z</time>
      </trkpt>
      <trkpt lat="44.2922" lon="5.61707">
        <ele>787</ele>
        <time>2019-06-19T09:37:38Z</time>
      </trkpt>
      <trkpt lat="44.29217" lon="5.61716">
        <ele>786</ele>
        <time>2019-06-19T09:37:39Z</time>
      </trkpt>
      <trkpt lat="44.29214" lon="5.61725">
        <ele>786</ele>
        <time>2019-06-19T09:37:40Z</time>
      </trkpt>
      <trkpt lat="44.2921" lon="5.61733">
        <ele>786</ele>
        <time>2019-06-19T09:37:41Z</time>
      </trkpt>
      <trkpt lat="44.29205" lon="5.61741">
        <ele>786</ele>
        <time>2019-06-19T09:37:42Z</time>
      </trkpt>
      <trkpt lat="44.292" lon="5.61748">
        <ele>786</ele>
        <time>2019-06-19T09:37:43Z</time>
      </trkpt>
      <trkpt lat="44.29195" lon="5.61755">
        <ele>786</ele>
        <time>2019-06-19T09:37:44Z</time>
      </trkpt>
      <trkpt lat="44.29189" lon="5.61761">
        <ele>785</ele>
        <time>2019-06-19T09:37:45Z</time>
      </trkpt>
      <trkpt lat="44.29182" lon="5.61766">
        <ele>785</ele>
        <time>2019-06-19T09:37:46Z</time>
      </trkpt>
      <trkpt lat="44.29176" lon="5.61771">
        <ele>785</ele>
        <time>2019-06-19T09:37:47Z</time>
      </trkpt>
      <trkpt lat="44.2917" lon="5.61776">
        <ele>785</ele>
        <time>2019-06-19T09:37:48Z</time>
      </trkpt>
      <trkpt lat="44.29164" lon="5.6178">
        <ele>785</ele>
        <time>2019-06-19T09:37:49Z</time>
      </trkpt>
      <trkpt lat="44.29157" lon="5.61785">
        <ele>784</ele>
        <time>2019-06-19T09:37:50Z</time>
      </trkpt>
      <trkpt lat="44.29151" lon="5.61789">
        <ele>784</ele>
        <time>2019-06-19T09:37:51Z</time>
      </trkpt>
      <trkpt lat="44.29145" lon="5.61794">
        <ele>784</ele>
        <time>2019-06-19T09:37:52Z</time>
      </trkpt>
      <trkpt lat="44.29139" lon="5.61798">
        <ele>784</ele>
        <time>2019-06-19T09:37:53Z</time>
      </trkpt>
      <trkpt lat="44.29132" lon="5.61803">
        <ele>784</ele>
        <time>2019-06-19T09:37:54Z</time>
      </trkpt>
      <trkpt lat="44.29126" lon="5.61808">
        <ele>783</ele>
        <time>2019-06-19T09:37:55Z</time>
      </trkpt>
      <trkpt lat="44.29121" lon="5.61813">
        <ele>783</ele>
        <time>2019-06-19T09:37:56Z</time>
      </trkpt>
      <trkpt lat="44.29115" lon="5.61817">
        <ele>783</ele>
        <time>2019-06-19T09:37:57Z</time>
      </trkpt>
      <trkpt lat="44.29108" lon="5.61822">
        <ele>783</ele>
        <time>2019-06-19T09:37:58Z</time>
      </trkpt>
      <trkpt lat="44.29102" lon="5.61827">
        <ele>783</ele>
        <time>2019-06-19T09:37:59Z</time>
      </trkpt>
      <trkpt lat="44.29096" lon="5.61831">
        <ele>783</ele>
        <time>2019-06-19T09:38:00Z</time>
      </trkpt>
      <trkpt lat="44.29089" lon="5.61836">
        <ele>783</ele>
        <time>2019-06-19T09:38:01Z</time>
      </trkpt>
      <trkpt lat="44.29083" lon="5.61841">
        <ele>782</ele>
        <time>2019-06-19T09:38:02Z</time>
      </trkpt>
      <trkpt lat="44.29077" lon="5.61846">
        <ele>782</ele>
        <time>2019-06-19T09:38:03Z</time>
      </trkpt>
      <trkpt lat="44.29071" lon="5.61852">
        <ele>782</ele>
        <time>2019-06-19T09:38:04Z</time>
      </trkpt>
      <trkpt lat="44.29064" lon="5.61857">
        <ele>782</ele>
        <time>2019-06-19T09:38:05Z</time>
      </trkpt>
      <trkpt lat="44.29058" lon="5.61861">
        <ele>782</ele>
        <time>2019-06-19T09:38:06Z</time>
      </trkpt>
      <trkpt lat="44.29052" lon="5.61866">
        <ele>782</ele>
        <time>2019-06-19T09:38:07Z</time>
      </trkpt>
      <trkpt lat="44.29045" lon="5.61871">
        <ele>782</ele>
        <time>2019-06-19T09:38:08Z</time>
      </trkpt>
      <trkpt lat="44.29039" lon="5.61876">
        <ele>781</ele>
        <time>2019-06-19T09:38:09Z</time>
      </trkpt>
      <trkpt lat="44.29032" lon="5.61881">
        <ele>781</ele>
        <time>2019-06-19T09:38:10Z</time>
      </trkpt>
      <trkpt lat="44.29026" lon="5.61886">
        <ele>781</ele>
        <time>2019-06-19T09:38:11Z</time>
      </trkpt>
      <trkpt lat="44.29019" lon="5.61891">
        <ele>781</ele>
        <time>2019-06-19T09:38:12Z</time>
      </trkpt>
      <trkpt lat="44.29012" lon="5.61896">
        <ele>781</ele>
        <time>2019-06-19T09:38:13Z</time>
      </trkpt>
      <trkpt lat="44.29006" lon="5.61901">
        <ele>781</ele>
        <time>2019-06-19T09:38:14Z</time>
      </trkpt>
      <trkpt lat="44.29" lon="5.61906">
        <ele>781</ele>
        <time>2019-06-19T09:38:15Z</time>
      </trkpt>
      <trkpt lat="44.28994" lon="5.61911">
        <ele>781</ele>
        <time>2019-06-19T09:38:16Z</time>
      </trkpt>
      <trkpt lat="44.28988" lon="5.61915">
        <ele>781</ele>
        <time>2019-06-19T09:38:17Z</time>
      </trkpt>
      <trkpt lat="44.28982" lon="5.6192">
        <ele>781</ele>
        <time>2019-06-19T09:38:18Z</time>
      </trkpt>
      <trkpt lat="44.28976" lon="5.61925">
        <ele>781</ele>
        <time>2019-06-19T09:38:19Z</time>
      </trkpt>
      <trkpt lat="44.2897" lon="5.6193">
        <ele>781</ele>
        <time>2019-06-19T09:38:20Z</time>
      </trkpt>
      <trkpt lat="44.28964" lon="5.61935">
        <ele>781</ele>
        <time>2019-06-19T09:38:21Z</time>
      </trkpt>
      <trkpt lat="44.28958" lon="5.6194">
        <ele>781</ele>
        <time>2019-06-19T09:38:22Z</time>
      </trkpt>
      <trkpt lat="44.28953" lon="5.61945">
        <ele>781</ele>
        <time>2019-06-19T09:38:23Z</time>
      </trkpt>
      <trkpt lat="44.28947" lon="5.6195">
        <ele>781</ele>
        <time>2019-06-19T09:38:24Z</time>
      </trkpt>
      <trkpt lat="44.28942" lon="5.61956">
        <ele>781</ele>
        <time>2019-06-19T09:38:25Z</time>
      </trkpt>
      <trkpt lat="44.28937" lon="5.61961">
        <ele>781</ele>
        <time>2019-06-19T09:38:26Z</time>
      </trkpt>
      <trkpt lat="44.28933" lon="5.61967">
        <ele>781</ele>
        <time>2019-06-19T09:38:27Z</time>
      </trkpt>
      <trkpt lat="44.28928" lon="5.61973">
        <ele>781</ele>
        <time>2019-06-19T09:38:28Z</time>
      </trkpt>
      <trkpt lat="44.28923" lon="5.6198">
        <ele>781</ele>
        <time>2019-06-19T09:38:29Z</time>
      </trkpt>
      <trkpt lat="44.28919" lon="5.61986">
        <ele>781</ele>
        <time>2019-06-19T09:38:30Z</time>
      </trkpt>
      <trkpt lat="44.28915" lon="5.61993">
        <ele>780</ele>
        <time>2019-06-19T09:38:31Z</time>
      </trkpt>
      <trkpt lat="44.28912" lon="5.62">
        <ele>780</ele>
        <time>2019-06-19T09:38:32Z</time>
      </trkpt>
      <trkpt lat="44.28909" lon="5.62008">
        <ele>780</ele>
        <time>2019-06-19T09:38:33Z</time>
      </trkpt>
      <trkpt lat="44.28905" lon="5.62016">
        <ele>779</ele>
        <time>2019-06-19T09:38:34Z</time>
      </trkpt>
      <trkpt lat="44.28903" lon="5.62024">
        <ele>779</ele>
        <time>2019-06-19T09:38:35Z</time>
      </trkpt>
      <trkpt lat="44.289" lon="5.62033">
        <ele>779</ele>
        <time>2019-06-19T09:38:36Z</time>
      </trkpt>
      <trkpt lat="44.28898" lon="5.62042">
        <ele>778</ele>
        <time>2019-06-19T09:38:37Z</time>
      </trkpt>
      <trkpt lat="44.28896" lon="5.62051">
        <ele>778</ele>
        <time>2019-06-19T09:38:38Z</time>
      </trkpt>
      <trkpt lat="44.28895" lon="5.6206">
        <ele>778</ele>
        <time>2019-06-19T09:38:39Z</time>
      </trkpt>
      <trkpt lat="44.28894" lon="5.6207">
        <ele>777</ele>
        <time>2019-06-19T09:38:40Z</time>
      </trkpt>
      <trkpt lat="44.28893" lon="5.6208">
        <ele>777</ele>
        <time>2019-06-19T09:38:41Z</time>
      </trkpt>
      <trkpt lat="44.28892" lon="5.6209">
        <ele>777</ele>
        <time>2019-06-19T09:38:42Z</time>
      </trkpt>
      <trkpt lat="44.28891" lon="5.62101">
        <ele>776</ele>
        <time>2019-06-19T09:38:43Z</time>
      </trkpt>
      <trkpt lat="44.28891" lon="5.62112">
        <ele>776</ele>
        <time>2019-06-19T09:38:44Z</time>
      </trkpt>
      <trkpt lat="44.28892" lon="5.62122">
        <ele>776</ele>
        <time>2019-06-19T09:38:45Z</time>
      </trkpt>
      <trkpt lat="44.28893" lon="5.62134">
        <ele>776</ele>
        <time>2019-06-19T09:38:46Z</time>
      </trkpt>
      <trkpt lat="44.28894" lon="5.62145">
        <ele>776</ele>
        <time>2019-06-19T09:38:47Z</time>
      </trkpt>
      <trkpt lat="44.28895" lon="5.62156">
        <ele>775</ele>
        <time>2019-06-19T09:38:48Z</time>
      </trkpt>
      <trkpt lat="44.28897" lon="5.62167">
        <ele>775</ele>
        <time>2019-06-19T09:38:49Z</time>
      </trkpt>
      <trkpt lat="44.28899" lon="5.62179">
        <ele>775</ele>
        <time>2019-06-19T09:38:50Z</time>
      </trkpt>
      <trkpt lat="44.28901" lon="5.6219">
        <ele>775</ele>
        <time>2019-06-19T09:38:51Z</time>
      </trkpt>
      <trkpt lat="44.28904" lon="5.62202">
        <ele>775</ele>
        <time>2019-06-19T09:38:52Z</time>
      </trkpt>
      <trkpt lat="44.28906" lon="5.62213">
        <ele>775</ele>
        <time>2019-06-19T09:38:53Z</time>
      </trkpt>
      <trkpt lat="44.28908" lon="5.62225">
        <ele>774</ele>
        <time>2019-06-19T09:38:54Z</time>
      </trkpt>
      <trkpt lat="44.2891" lon="5.62237">
        <ele>774</ele>
        <time>2019-06-19T09:38:55Z</time>
      </trkpt>
      <trkpt lat="44.28913" lon="5.62249">
        <ele>774</ele>
        <time>2019-06-19T09:38:56Z</time>
      </trkpt>
      <trkpt lat="44.28915" lon="5.6226">
        <ele>774</ele>
        <time>2019-06-19T09:38:57Z</time>
      </trkpt>
      <trkpt lat="44.28918" lon="5.62271">
        <ele>774</ele>
        <time>2019-06-19T09:38:58Z</time>
      </trkpt>
      <trkpt lat="44.2892" lon="5.62283">
        <ele>774</ele>
        <time>2019-06-19T09:38:59Z</time>
      </trkpt>
      <trkpt lat="44.28923" lon="5.62295">
        <ele>774</ele>
        <time>2019-06-19T09:39:00Z</time>
      </trkpt>
      <trkpt lat="44.28926" lon="5.62306">
        <ele>774</ele>
        <time>2019-06-19T09:39:01Z</time>
      </trkpt>
      <trkpt lat="44.28929" lon="5.62317">
        <ele>774</ele>
        <time>2019-06-19T09:39:02Z</time>
      </trkpt>
      <trkpt lat="44.28932" lon="5.62328">
        <ele>773</ele>
        <time>2019-06-19T09:39:03Z</time>
      </trkpt>
      <trkpt lat="44.28935" lon="5.62339">
        <ele>773</ele>
        <time>2019-06-19T09:39:04Z</time>
      </trkpt>
      <trkpt lat="44.28938" lon="5.62351">
        <ele>773</ele>
        <time>2019-06-19T09:39:05Z</time>
      </trkpt>
      <trkpt lat="44.2894" lon="5.62363">
        <ele>773</ele>
        <time>2019-06-19T09:39:06Z</time>
      </trkpt>
      <trkpt lat="44.28943" lon="5.62374">
        <ele>773</ele>
        <time>2019-06-19T09:39:07Z</time>
      </trkpt>
      <trkpt lat="44.28946" lon="5.62386">
        <ele>773</ele>
        <time>2019-06-19T09:39:08Z</time>
      </trkpt>
      <trkpt lat="44.28949" lon="5.62398">
        <ele>772</ele>
        <time>2019-06-19T09:39:09Z</time>
      </trkpt>
      <trkpt lat="44.28951" lon="5.62409">
        <ele>772</ele>
        <time>2019-06-19T09:39:10Z</time>
      </trkpt>
      <trkpt lat="44.28954" lon="5.6242">
        <ele>772</ele>
        <time>2019-06-19T09:39:11Z</time>
      </trkpt>
      <trkpt lat="44.28957" lon="5.62432">
        <ele>772</ele>
        <time>2019-06-19T09:39:12Z</time>
      </trkpt>
      <trkpt lat="44.28959" lon="5.62443">
        <ele>771</ele>
        <time>2019-06-19T09:39:13Z</time>
      </trkpt>
      <trkpt lat="44.28961" lon="5.62455">
        <ele>771</ele>
        <time>2019-06-19T09:39:14Z</time>
      </trkpt>
      <trkpt lat="44.28963" lon="5.62467">
        <ele>771</ele>
        <time>2019-06-19T09:39:15Z</time>
      </trkpt>
      <trkpt lat="44.28965" lon="5.62478">
        <ele>771</ele>
        <time>2019-06-19T09:39:16Z</time>
      </trkpt>
      <trkpt lat="44.28967" lon="5.6249">
        <ele>771</ele>
        <time>2019-06-19T09:39:17Z</time>
      </trkpt>
      <trkpt lat="44.28969" lon="5.62501">
        <ele>771</ele>
        <time>2019-06-19T09:39:18Z</time>
      </trkpt>
      <trkpt lat="44.28971" lon="5.62512">
        <ele>771</ele>
        <time>2019-06-19T09:39:19Z</time>
      </trkpt>
      <trkpt lat="44.28973" lon="5.62524">
        <ele>771</ele>
        <time>2019-06-19T09:39:20Z</time>
      </trkpt>
      <trkpt lat="44.28975" lon="5.62536">
        <ele>771</ele>
        <time>2019-06-19T09:39:21Z</time>
      </trkpt>
      <trkpt lat="44.28977" lon="5.62547">
        <ele>771</ele>
        <time>2019-06-19T09:39:22Z</time>
      </trkpt>
      <trkpt lat="44.2898" lon="5.62558">
        <ele>770</ele>
        <time>2019-06-19T09:39:23Z</time>
      </trkpt>
      <trkpt lat="44.28983" lon="5.62569">
        <ele>770</ele>
        <time>2019-06-19T09:39:24Z</time>
      </trkpt>
      <trkpt lat="44.28987" lon="5.62579">
        <ele>770</ele>
        <time>2019-06-19T09:39:25Z</time>
      </trkpt>
      <trkpt lat="44.28991" lon="5.6259">
        <ele>770</ele>
        <time>2019-06-19T09:39:26Z</time>
      </trkpt>
      <trkpt lat="44.28994" lon="5.626">
        <ele>770</ele>
        <time>2019-06-19T09:39:27Z</time>
      </trkpt>
      <trkpt lat="44.28999" lon="5.6261">
        <ele>770</ele>
        <time>2019-06-19T09:39:28Z</time>
      </trkpt>
      <trkpt lat="44.29003" lon="5.6262">
        <ele>770</ele>
        <time>2019-06-19T09:39:29Z</time>
      </trkpt>
      <trkpt lat="44.29007" lon="5.6263">
        <ele>769</ele>
        <time>2019-06-19T09:39:30Z</time>
      </trkpt>
      <trkpt lat="44.29011" lon="5.6264">
        <ele>769</ele>
        <time>2019-06-19T09:39:31Z</time>
      </trkpt>
      <trkpt lat="44.29015" lon="5.6265">
        <ele>769</ele>
        <time>2019-06-19T09:39:32Z</time>
      </trkpt>
      <trkpt lat="44.29019" lon="5.6266">
        <ele>769</ele>
        <time>2019-06-19T09:39:33Z</time>
      </trkpt>
      <trkpt lat="44.29023" lon="5.62669">
        <ele>769</ele>
        <time>2019-06-19T09:39:34Z</time>
      </trkpt>
      <trkpt lat="44.29027" lon="5.62678">
        <ele>769</ele>
        <time>2019-06-19T09:39:35Z</time>
      </trkpt>
      <trkpt lat="44.29031" lon="5.62688">
        <ele>768</ele>
        <time>2019-06-19T09:39:36Z</time>
      </trkpt>
      <trkpt lat="44.29035" lon="5.62697">
        <ele>768</ele>
        <time>2019-06-19T09:39:37Z</time>
      </trkpt>
      <trkpt lat="44.29039" lon="5.62706">
        <ele>768</ele>
        <time>2019-06-19T09:39:38Z</time>
      </trkpt>
      <trkpt lat="44.29042" lon="5.62716">
        <ele>768</ele>
        <time>2019-06-19T09:39:39Z</time>
      </trkpt>
      <trkpt lat="44.29046" lon="5.62725">
        <ele>767</ele>
        <time>2019-06-19T09:39:40Z</time>
      </trkpt>
      <trkpt lat="44.2905" lon="5.62734">
        <ele>767</ele>
        <time>2019-06-19T09:39:41Z</time>
      </trkpt>
      <trkpt lat="44.29054" lon="5.62743">
        <ele>767</ele>
        <time>2019-06-19T09:39:42Z</time>
      </trkpt>
      <trkpt lat="44.29057" lon="5.62752">
        <ele>767</ele>
        <time>2019-06-19T09:39:43Z</time>
      </trkpt>
      <trkpt lat="44.29061" lon="5.62761">
        <ele>767</ele>
        <time>2019-06-19T09:39:44Z</time>
      </trkpt>
      <trkpt lat="44.29065" lon="5.62769">
        <ele>767</ele>
        <time>2019-06-19T09:39:45Z</time>
      </trkpt>
      <trkpt lat="44.29069" lon="5.62778">
        <ele>767</ele>
        <time>2019-06-19T09:39:46Z</time>
      </trkpt>
      <trkpt lat="44.29074" lon="5.62785">
        <ele>767</ele>
        <time>2019-06-19T09:39:47Z</time>
      </trkpt>
      <trkpt lat="44.29079" lon="5.62793">
        <ele>767</ele>
        <time>2019-06-19T09:39:48Z</time>
      </trkpt>
      <trkpt lat="44.29084" lon="5.62801">
        <ele>767</ele>
        <time>2019-06-19T09:39:49Z</time>
      </trkpt>
      <trkpt lat="44.29089" lon="5.62808">
        <ele>767</ele>
        <time>2019-06-19T09:39:50Z</time>
      </trkpt>
      <trkpt lat="44.29095" lon="5.62816">
        <ele>766</ele>
        <time>2019-06-19T09:39:51Z</time>
      </trkpt>
      <trkpt lat="44.291" lon="5.62824">
        <ele>766</ele>
        <time>2019-06-19T09:39:52Z</time>
      </trkpt>
      <trkpt lat="44.29106" lon="5.62832">
        <ele>766</ele>
        <time>2019-06-19T09:39:53Z</time>
      </trkpt>
      <trkpt lat="44.29111" lon="5.62841">
        <ele>765</ele>
        <time>2019-06-19T09:39:54Z</time>
      </trkpt>
      <trkpt lat="44.29116" lon="5.62851">
        <ele>765</ele>
        <time>2019-06-19T09:39:55Z</time>
      </trkpt>
      <trkpt lat="44.29121" lon="5.62861">
        <ele>764</ele>
        <time>2019-06-19T09:39:56Z</time>
      </trkpt>
      <trkpt lat="44.29125" lon="5.62872">
        <ele>764</ele>
        <time>2019-06-19T09:39:57Z</time>
      </trkpt>
      <trkpt lat="44.29128" lon="5.62883">
        <ele>764</ele>
        <time>2019-06-19T09:39:58Z</time>
      </trkpt>
      <trkpt lat="44.29131" lon="5.62894">
        <ele>763</ele>
        <time>2019-06-19T09:39:59Z</time>
      </trkpt>
      <trkpt lat="44.29134" lon="5.62905">
        <ele>763</ele>
        <time>2019-06-19T09:40:00Z</time>
      </trkpt>
      <trkpt lat="44.29136" lon="5.62917">
        <ele>763</ele>
        <time>2019-06-19T09:40:01Z</time>
      </trkpt>
      <trkpt lat="44.29137" lon="5.62928">
        <ele>763</ele>
        <time>2019-06-19T09:40:02Z</time>
      </trkpt>
      <trkpt lat="44.29139" lon="5.6294">
        <ele>763</ele>
        <time>2019-06-19T09:40:03Z</time>
      </trkpt>
      <trkpt lat="44.2914" lon="5.62952">
        <ele>763</ele>
        <time>2019-06-19T09:40:04Z</time>
      </trkpt>
      <trkpt lat="44.29142" lon="5.62963">
        <ele>763</ele>
        <time>2019-06-19T09:40:05Z</time>
      </trkpt>
      <trkpt lat="44.29142" lon="5.62975">
        <ele>762</ele>
        <time>2019-06-19T09:40:06Z</time>
      </trkpt>
      <trkpt lat="44.29144" lon="5.62987">
        <ele>762</ele>
        <time>2019-06-19T09:40:07Z</time>
      </trkpt>
      <trkpt lat="44.29145" lon="5.62999">
        <ele>762</ele>
        <time>2019-06-19T09:40:08Z</time>
      </trkpt>
      <trkpt lat="44.29146" lon="5.63012">
        <ele>762</ele>
        <time>2019-06-19T09:40:09Z</time>
      </trkpt>
      <trkpt lat="44.29147" lon="5.63024">
        <ele>761</ele>
        <time>2019-06-19T09:40:10Z</time>
      </trkpt>
      <trkpt lat="44.29148" lon="5.63037">
        <ele>761</ele>
        <time>2019-06-19T09:40:11Z</time>
      </trkpt>
      <trkpt lat="44.2915" lon="5.6305">
        <ele>761</ele>
        <time>2019-06-19T09:40:12Z</time>
      </trkpt>
      <trkpt lat="44.2915" lon="5.63063">
        <ele>760</ele>
        <time>2019-06-19T09:40:13Z</time>
      </trkpt>
      <trkpt lat="44.29152" lon="5.63076">
        <ele>760</ele>
        <time>2019-06-19T09:40:14Z</time>
      </trkpt>
      <trkpt lat="44.29153" lon="5.63089">
        <ele>760</ele>
        <time>2019-06-19T09:40:15Z</time>
      </trkpt>
      <trkpt lat="44.29154" lon="5.63102">
        <ele>760</ele>
        <time>2019-06-19T09:40:16Z</time>
      </trkpt>
      <trkpt lat="44.29155" lon="5.63116">
        <ele>759</ele>
        <time>2019-06-19T09:40:17Z</time>
      </trkpt>
      <trkpt lat="44.29156" lon="5.6313">
        <ele>759</ele>
        <time>2019-06-19T09:40:18Z</time>
      </trkpt>
      <trkpt lat="44.29156" lon="5.63144">
        <ele>758</ele>
        <time>2019-06-19T09:40:19Z</time>
      </trkpt>
      <trkpt lat="44.29156" lon="5.63159">
        <ele>758</ele>
        <time>2019-06-19T09:40:20Z</time>
      </trkpt>
      <trkpt lat="44.29155" lon="5.63172">
        <ele>758</ele>
        <time>2019-06-19T09:40:21Z</time>
      </trkpt>
      <trkpt lat="44.29153" lon="5.63186">
        <ele>757</ele>
        <time>2019-06-19T09:40:22Z</time>
      </trkpt>
      <trkpt lat="44.29151" lon="5.632">
        <ele>757</ele>
        <time>2019-06-19T09:40:23Z</time>
      </trkpt>
      <trkpt lat="44.29149" lon="5.63213">
        <ele>757</ele>
        <time>2019-06-19T09:40:24Z</time>
      </trkpt>
      <trkpt lat="44.29147" lon="5.63226">
        <ele>756</ele>
        <time>2019-06-19T09:40:25Z</time>
      </trkpt>
      <trkpt lat="44.29144" lon="5.6324">
        <ele>756</ele>
        <time>2019-06-19T09:40:26Z</time>
      </trkpt>
      <trkpt lat="44.29141" lon="5.63254">
        <ele>755</ele>
        <time>2019-06-19T09:40:27Z</time>
      </trkpt>
      <trkpt lat="44.29139" lon="5.63268">
        <ele>755</ele>
        <time>2019-06-19T09:40:28Z</time>
      </trkpt>
      <trkpt lat="44.29139" lon="5.63281">
        <ele>755</ele>
        <time>2019-06-19T09:40:29Z</time>
      </trkpt>
      <trkpt lat="44.2914" lon="5.63295">
        <ele>754</ele>
        <time>2019-06-19T09:40:30Z</time>
      </trkpt>
      <trkpt lat="44.29141" lon="5.63308">
        <ele>754</ele>
        <time>2019-06-19T09:40:31Z</time>
      </trkpt>
      <trkpt lat="44.29143" lon="5.63321">
        <ele>754</ele>
        <time>2019-06-19T09:40:32Z</time>
      </trkpt>
      <trkpt lat="44.29145" lon="5.63335">
        <ele>754</ele>
        <time>2019-06-19T09:40:33Z</time>
      </trkpt>
      <trkpt lat="44.29147" lon="5.63348">
        <ele>753</ele>
        <time>2019-06-19T09:40:34Z</time>
      </trkpt>
      <trkpt lat="44.29149" lon="5.63361">
        <ele>753</ele>
        <time>2019-06-19T09:40:35Z</time>
      </trkpt>
      <trkpt lat="44.29151" lon="5.63374">
        <ele>753</ele>
        <time>2019-06-19T09:40:36Z</time>
      </trkpt>
      <trkpt lat="44.29153" lon="5.63386">
        <ele>753</ele>
        <time>2019-06-19T09:40:37Z</time>
      </trkpt>
      <trkpt lat="44.29155" lon="5.63399">
        <ele>753</ele>
        <time>2019-06-19T09:40:38Z</time>
      </trkpt>
      <trkpt lat="44.29157" lon="5.63412">
        <ele>753</ele>
        <time>2019-06-19T09:40:39Z</time>
      </trkpt>
      <trkpt lat="44.29159" lon="5.63424">
        <ele>752</ele>
        <time>2019-06-19T09:40:40Z</time>
      </trkpt>
      <trkpt lat="44.29162" lon="5.63437">
        <ele>752</ele>
        <time>2019-06-19T09:40:41Z</time>
      </trkpt>
      <trkpt lat="44.29165" lon="5.63449">
        <ele>752</ele>
        <time>2019-06-19T09:40:42Z</time>
      </trkpt>
      <trkpt lat="44.29168" lon="5.6346">
        <ele>752</ele>
        <time>2019-06-19T09:40:43Z</time>
      </trkpt>
      <trkpt lat="44.29173" lon="5.63472">
        <ele>752</ele>
        <time>2019-06-19T09:40:44Z</time>
      </trkpt>
      <trkpt lat="44.29177" lon="5.63483">
        <ele>752</ele>
        <time>2019-06-19T09:40:45Z</time>
      </trkpt>
      <trkpt lat="44.29182" lon="5.63494">
        <ele>752</ele>
        <time>2019-06-19T09:40:46Z</time>
      </trkpt>
      <trkpt lat="44.29187" lon="5.63505">
        <ele>752</ele>
        <time>2019-06-19T09:40:47Z</time>
      </trkpt>
      <trkpt lat="44.29193" lon="5.63516">
        <ele>752</ele>
        <time>2019-06-19T09:40:48Z</time>
      </trkpt>
      <trkpt lat="44.29199" lon="5.63526">
        <ele>752</ele>
        <time>2019-06-19T09:40:49Z</time>
      </trkpt>
      <trkpt lat="44.29204" lon="5.63536">
        <ele>752</ele>
        <time>2019-06-19T09:40:50Z</time>
      </trkpt>
      <trkpt lat="44.29209" lon="5.63547">
        <ele>752</ele>
        <time>2019-06-19T09:40:51Z</time>
      </trkpt>
      <trkpt lat="44.29214" lon="5.63558">
        <ele>752</ele>
        <time>2019-06-19T09:40:52Z</time>
      </trkpt>
      <trkpt lat="44.29219" lon="5.63568">
        <ele>752</ele>
        <time>2019-06-19T09:40:53Z</time>
      </trkpt>
      <trkpt lat="44.29225" lon="5.63578">
        <ele>752</ele>
        <time>2019-06-19T09:40:54Z</time>
      </trkpt>
      <trkpt lat="44.29233" lon="5.63587">
        <ele>752</ele>
        <time>2019-06-19T09:40:55Z</time>
      </trkpt>
      <trkpt lat="44.2924" lon="5.63596">
        <ele>752</ele>
        <time>2019-06-19T09:40:56Z</time>
      </trkpt>
      <trkpt lat="44.29247" lon="5.63604">
        <ele>752</ele>
        <time>2019-06-19T09:40:57Z</time>
      </trkpt>
      <trkpt lat="44.29253" lon="5.63613">
        <ele>752</ele>
        <time>2019-06-19T09:40:58Z</time>
      </trkpt>
      <trkpt lat="44.29259" lon="5.63622">
        <ele>752</ele>
        <time>2019-06-19T09:40:59Z</time>
      </trkpt>
      <trkpt lat="44.29264" lon="5.63632">
        <ele>752</ele>
        <time>2019-06-19T09:41:00Z</time>
      </trkpt>
      <trkpt lat="44.29268" lon="5.63644">
        <ele>752</ele>
        <time>2019-06-19T09:41:01Z</time>
      </trkpt>
      <trkpt lat="44.29271" lon="5.63656">
        <ele>752</ele>
        <time>2019-06-19T09:41:02Z</time>
      </trkpt>
      <trkpt lat="44.29273" lon="5.63668">
        <ele>752</ele>
        <time>2019-06-19T09:41:03Z</time>
      </trkpt>
      <trkpt lat="44.29274" lon="5.63681">
        <ele>752</ele>
        <time>2019-06-19T09:41:04Z</time>
      </trkpt>
      <trkpt lat="44.29274" lon="5.63694">
        <ele>752</ele>
        <time>2019-06-19T09:41:05Z</time>
      </trkpt>
      <trkpt lat="44.29273" lon="5.63706">
        <ele>752</ele>
        <time>2019-06-19T09:41:06Z</time>
      </trkpt>
      <trkpt lat="44.29273" lon="5.63719">
        <ele>752</ele>
        <time>2019-06-19T09:41:07Z</time>
      </trkpt>
      <trkpt lat="44.29273" lon="5.63732">
        <ele>752</ele>
        <time>2019-06-19T09:41:08Z</time>
      </trkpt>
      <trkpt lat="44.29272" lon="5.63744">
        <ele>752</ele>
        <time>2019-06-19T09:41:09Z</time>
      </trkpt>
      <trkpt lat="44.29271" lon="5.63757">
        <ele>752</ele>
        <time>2019-06-19T09:41:10Z</time>
      </trkpt>
      <trkpt lat="44.29272" lon="5.63769">
        <ele>752</ele>
        <time>2019-06-19T09:41:11Z</time>
      </trkpt>
      <trkpt lat="44.29274" lon="5.6378">
        <ele>752</ele>
        <time>2019-06-19T09:41:12Z</time>
      </trkpt>
      <trkpt lat="44.29277" lon="5.63792">
        <ele>752</ele>
        <time>2019-06-19T09:41:13Z</time>
      </trkpt>
      <trkpt lat="44.29281" lon="5.63802">
        <ele>752</ele>
        <time>2019-06-19T09:41:14Z</time>
      </trkpt>
      <trkpt lat="44.29285" lon="5.63812">
        <ele>752</ele>
        <time>2019-06-19T09:41:15Z</time>
      </trkpt>
      <trkpt lat="44.29291" lon="5.63821">
        <ele>752</ele>
        <time>2019-06-19T09:41:16Z</time>
      </trkpt>
      <trkpt lat="44.29297" lon="5.6383">
        <ele>752</ele>
        <time>2019-06-19T09:41:17Z</time>
      </trkpt>
      <trkpt lat="44.29303" lon="5.63839">
        <ele>752</ele>
        <time>2019-06-19T09:41:18Z</time>
      </trkpt>
      <trkpt lat="44.29308" lon="5.63847">
        <ele>752</ele>
        <time>2019-06-19T09:41:19Z</time>
      </trkpt>
      <trkpt lat="44.29314" lon="5.63856">
        <ele>752</ele>
        <time>2019-06-19T09:41:20Z</time>
      </trkpt>
      <trkpt lat="44.2932" lon="5.63865">
        <ele>752</ele>
        <time>2019-06-19T09:41:21Z</time>
      </trkpt>
      <trkpt lat="44.29326" lon="5.63873">
        <ele>752</ele>
        <time>2019-06-19T09:41:22Z</time>
      </trkpt>
      <trkpt lat="44.29332" lon="5.63882">
        <ele>752</ele>
        <time>2019-06-19T09:41:23Z</time>
      </trkpt>
      <trkpt lat="44.29338" lon="5.6389">
        <ele>752</ele>
        <time>2019-06-19T09:41:24Z</time>
      </trkpt>
      <trkpt lat="44.29344" lon="5.63899">
        <ele>752</ele>
        <time>2019-06-19T09:41:25Z</time>
      </trkpt>
      <trkpt lat="44.2935" lon="5.63906">
        <ele>752</ele>
        <time>2019-06-19T09:41:26Z</time>
      </trkpt>
      <trkpt lat="44.29357" lon="5.63913">
        <ele>752</ele>
        <time>2019-06-19T09:41:27Z</time>
      </trkpt>
      <trkpt lat="44.29362" lon="5.6392">
        <ele>752</ele>
        <time>2019-06-19T09:41:28Z</time>
      </trkpt>
      <trkpt lat="44.29369" lon="5.63927">
        <ele>751</ele>
        <time>2019-06-19T09:41:29Z</time>
      </trkpt>
      <trkpt lat="44.29375" lon="5.63935">
        <ele>751</ele>
        <time>2019-06-19T09:41:30Z</time>
      </trkpt>
      <trkpt lat="44.29381" lon="5.63942">
        <ele>751</ele>
        <time>2019-06-19T09:41:31Z</time>
      </trkpt>
      <trkpt lat="44.29387" lon="5.63949">
        <ele>751</ele>
        <time>2019-06-19T09:41:32Z</time>
      </trkpt>
      <trkpt lat="44.29392" lon="5.63958">
        <ele>751</ele>
        <time>2019-06-19T09:41:33Z</time>
      </trkpt>
      <trkpt lat="44.29398" lon="5.63966">
        <ele>751</ele>
        <time>2019-06-19T09:41:34Z</time>
      </trkpt>
      <trkpt lat="44.29402" lon="5.63974">
        <ele>751</ele>
        <time>2019-06-19T09:41:35Z</time>
      </trkpt>
      <trkpt lat="44.29407" lon="5.63982">
        <ele>751</ele>
        <time>2019-06-19T09:41:36Z</time>
      </trkpt>
      <trkpt lat="44.29412" lon="5.63991">
        <ele>751</ele>
        <time>2019-06-19T09:41:37Z</time>
      </trkpt>
      <trkpt lat="44.29417" lon="5.64">
        <ele>751</ele>
        <time>2019-06-19T09:41:38Z</time>
      </trkpt>
      <trkpt lat="44.29421" lon="5.64008">
        <ele>751</ele>
        <time>2019-06-19T09:41:39Z</time>
      </trkpt>
      <trkpt lat="44.29425" lon="5.64017">
        <ele>751</ele>
        <time>2019-06-19T09:41:40Z</time>
      </trkpt>
      <trkpt lat="44.2943" lon="5.64026">
        <ele>751</ele>
        <time>2019-06-19T09:41:41Z</time>
      </trkpt>
      <trkpt lat="44.29433" lon="5.64035">
        <ele>751</ele>
        <time>2019-06-19T09:41:42Z</time>
      </trkpt>
      <trkpt lat="44.29436" lon="5.64045">
        <ele>751</ele>
        <time>2019-06-19T09:41:43Z</time>
      </trkpt>
      <trkpt lat="44.29438" lon="5.64054">
        <ele>751</ele>
        <time>2019-06-19T09:41:44Z</time>
      </trkpt>
      <trkpt lat="44.2944" lon="5.64064">
        <ele>751</ele>
        <time>2019-06-19T09:41:45Z</time>
      </trkpt>
      <trkpt lat="44.29442" lon="5.64073">
        <ele>751</ele>
        <time>2019-06-19T09:41:46Z</time>
      </trkpt>
      <trkpt lat="44.29444" lon="5.64082">
        <ele>751</ele>
        <time>2019-06-19T09:41:47Z</time>
      </trkpt>
      <trkpt lat="44.29446" lon="5.64091">
        <ele>751</ele>
        <time>2019-06-19T09:41:48Z</time>
      </trkpt>
      <trkpt lat="44.29448" lon="5.64101">
        <ele>751</ele>
        <time>2019-06-19T09:41:49Z</time>
      </trkpt>
      <trkpt lat="44.29449" lon="5.6411">
        <ele>751</ele>
        <time>2019-06-19T09:41:50Z</time>
      </trkpt>
      <trkpt lat="44.2945" lon="5.64118">
        <ele>751</ele>
        <time>2019-06-19T09:41:51Z</time>
      </trkpt>
      <trkpt lat="44.29451" lon="5.64127">
        <ele>751</ele>
        <time>2019-06-19T09:41:52Z</time>
      </trkpt>
      <trkpt lat="44.29451" lon="5.64136">
        <ele>751</ele>
        <time>2019-06-19T09:41:53Z</time>
      </trkpt>
      <trkpt lat="44.29452" lon="5.64145">
        <ele>751</ele>
        <time>2019-06-19T09:41:54Z</time>
      </trkpt>
      <trkpt lat="44.29454" lon="5.64154">
        <ele>751</ele>
        <time>2019-06-19T09:41:55Z</time>
      </trkpt>
      <trkpt lat="44.29456" lon="5.64162">
        <ele>751</ele>
        <time>2019-06-19T09:41:56Z</time>
      </trkpt>
      <trkpt lat="44.29457" lon="5.64171">
        <ele>751</ele>
        <time>2019-06-19T09:41:57Z</time>
      </trkpt>
      <trkpt lat="44.2946" lon="5.6418">
        <ele>751</ele>
        <time>2019-06-19T09:41:58Z</time>
      </trkpt>
      <trkpt lat="44.29462" lon="5.64188">
        <ele>751</ele>
        <time>2019-06-19T09:41:59Z</time>
      </trkpt>
      <trkpt lat="44.29465" lon="5.64196">
        <ele>751</ele>
        <time>2019-06-19T09:42:00Z</time>
      </trkpt>
      <trkpt lat="44.29467" lon="5.64203">
        <ele>751</ele>
        <time>2019-06-19T09:42:01Z</time>
      </trkpt>
      <trkpt lat="44.29471" lon="5.6421">
        <ele>751</ele>
        <time>2019-06-19T09:42:02Z</time>
      </trkpt>
      <trkpt lat="44.29475" lon="5.64217">
        <ele>751</ele>
        <time>2019-06-19T09:42:03Z</time>
      </trkpt>
      <trkpt lat="44.29479" lon="5.64224">
        <ele>751</ele>
        <time>2019-06-19T09:42:04Z</time>
      </trkpt>
      <trkpt lat="44.29483" lon="5.6423">
        <ele>751</ele>
        <time>2019-06-19T09:42:05Z</time>
      </trkpt>
      <trkpt lat="44.29487" lon="5.64237">
        <ele>751</ele>
        <time>2019-06-19T09:42:06Z</time>
      </trkpt>
      <trkpt lat="44.29491" lon="5.64243">
        <ele>751</ele>
        <time>2019-06-19T09:42:07Z</time>
      </trkpt>
      <trkpt lat="44.29496" lon="5.6425">
        <ele>751</ele>
        <time>2019-06-19T09:42:08Z</time>
      </trkpt>
      <trkpt lat="44.295" lon="5.64256">
        <ele>751</ele>
        <time>2019-06-19T09:42:09Z</time>
      </trkpt>
      <trkpt lat="44.29504" lon="5.64263">
        <ele>751</ele>
        <time>2019-06-19T09:42:10Z</time>
      </trkpt>
      <trkpt lat="44.29507" lon="5.6427">
        <ele>751</ele>
        <time>2019-06-19T09:42:11Z</time>
      </trkpt>
      <trkpt lat="44.29511" lon="5.64277">
        <ele>751</ele>
        <time>2019-06-19T09:42:12Z</time>
      </trkpt>
      <trkpt lat="44.29514" lon="5.64284">
        <ele>751</ele>
        <time>2019-06-19T09:42:13Z</time>
      </trkpt>
      <trkpt lat="44.29517" lon="5.6429">
        <ele>751</ele>
        <time>2019-06-19T09:42:14Z</time>
      </trkpt>
      <trkpt lat="44.2952" lon="5.64297">
        <ele>751</ele>
        <time>2019-06-19T09:42:15Z</time>
      </trkpt>
      <trkpt lat="44.29524" lon="5.64304">
        <ele>751</ele>
        <time>2019-06-19T09:42:16Z</time>
      </trkpt>
      <trkpt lat="44.29527" lon="5.6431">
        <ele>751</ele>
        <time>2019-06-19T09:42:17Z</time>
      </trkpt>
      <trkpt lat="44.29531" lon="5.64317">
        <ele>751</ele>
        <time>2019-06-19T09:42:18Z</time>
      </trkpt>
      <trkpt lat="44.29534" lon="5.64323">
        <ele>751</ele>
        <time>2019-06-19T09:42:19Z</time>
      </trkpt>
      <trkpt lat="44.29537" lon="5.6433">
        <ele>751</ele>
        <time>2019-06-19T09:42:20Z</time>
      </trkpt>
      <trkpt lat="44.2954" lon="5.64337">
        <ele>751</ele>
        <time>2019-06-19T09:42:21Z</time>
      </trkpt>
      <trkpt lat="44.29544" lon="5.64344">
        <ele>751</ele>
        <time>2019-06-19T09:42:22Z</time>
      </trkpt>
      <trkpt lat="44.29548" lon="5.64351">
        <ele>751</ele>
        <time>2019-06-19T09:42:23Z</time>
      </trkpt>
      <trkpt lat="44.29551" lon="5.64357">
        <ele>751</ele>
        <time>2019-06-19T09:42:24Z</time>
      </trkpt>
      <trkpt lat="44.29554" lon="5.64364">
        <ele>751</ele>
        <time>2019-06-19T09:42:25Z</time>
      </trkpt>
      <trkpt lat="44.29559" lon="5.64371">
        <ele>751</ele>
        <time>2019-06-19T09:42:26Z</time>
      </trkpt>
      <trkpt lat="44.29562" lon="5.64378">
        <ele>751</ele>
        <time>2019-06-19T09:42:27Z</time>
      </trkpt>
      <trkpt lat="44.29565" lon="5.64385">
        <ele>751</ele>
        <time>2019-06-19T09:42:28Z</time>
      </trkpt>
      <trkpt lat="44.29567" lon="5.64393">
        <ele>751</ele>
        <time>2019-06-19T09:42:29Z</time>
      </trkpt>
      <trkpt lat="44.2957" lon="5.644">
        <ele>751</ele>
        <time>2019-06-19T09:42:30Z</time>
      </trkpt>
      <trkpt lat="44.29572" lon="5.64408">
        <ele>751</ele>
        <time>2019-06-19T09:42:31Z</time>
      </trkpt>
      <trkpt lat="44.29574" lon="5.64416">
        <ele>750</ele>
        <time>2019-06-19T09:42:32Z</time>
      </trkpt>
      <trkpt lat="44.29576" lon="5.64424">
        <ele>750</ele>
        <time>2019-06-19T09:42:33Z</time>
      </trkpt>
      <trkpt lat="44.29579" lon="5.64431">
        <ele>750</ele>
        <time>2019-06-19T09:42:34Z</time>
      </trkpt>
      <trkpt lat="44.29582" lon="5.64439">
        <ele>749</ele>
        <time>2019-06-19T09:42:35Z</time>
      </trkpt>
      <trkpt lat="44.29585" lon="5.64447">
        <ele>749</ele>
        <time>2019-06-19T09:42:36Z</time>
      </trkpt>
      <trkpt lat="44.29587" lon="5.64456">
        <ele>749</ele>
        <time>2019-06-19T09:42:37Z</time>
      </trkpt>
      <trkpt lat="44.2959" lon="5.64464">
        <ele>749</ele>
        <time>2019-06-19T09:42:38Z</time>
      </trkpt>
      <trkpt lat="44.29592" lon="5.64472">
        <ele>749</ele>
        <time>2019-06-19T09:42:39Z</time>
      </trkpt>
      <trkpt lat="44.29594" lon="5.64481">
        <ele>749</ele>
        <time>2019-06-19T09:42:40Z</time>
      </trkpt>
      <trkpt lat="44.29596" lon="5.6449">
        <ele>749</ele>
        <time>2019-06-19T09:42:41Z</time>
      </trkpt>
      <trkpt lat="44.29597" lon="5.64499">
        <ele>749</ele>
        <time>2019-06-19T09:42:42Z</time>
      </trkpt>
      <trkpt lat="44.29599" lon="5.64507">
        <ele>749</ele>
        <time>2019-06-19T09:42:43Z</time>
      </trkpt>
      <trkpt lat="44.29601" lon="5.64516">
        <ele>749</ele>
        <time>2019-06-19T09:42:44Z</time>
      </trkpt>
      <trkpt lat="44.29602" lon="5.64526">
        <ele>749</ele>
        <time>2019-06-19T09:42:45Z</time>
      </trkpt>
      <trkpt lat="44.29604" lon="5.64535">
        <ele>749</ele>
        <time>2019-06-19T09:42:46Z</time>
      </trkpt>
      <trkpt lat="44.29606" lon="5.64544">
        <ele>749</ele>
        <time>2019-06-19T09:42:47Z</time>
      </trkpt>
      <trkpt lat="44.29607" lon="5.64553">
        <ele>749</ele>
        <time>2019-06-19T09:42:48Z</time>
      </trkpt>
      <trkpt lat="44.29609" lon="5.64563">
        <ele>748</ele>
        <time>2019-06-19T09:42:49Z</time>
      </trkpt>
      <trkpt lat="44.29611" lon="5.64572">
        <ele>748</ele>
        <time>2019-06-19T09:42:50Z</time>
      </trkpt>
      <trkpt lat="44.29614" lon="5.64581">
        <ele>748</ele>
        <time>2019-06-19T09:42:51Z</time>
      </trkpt>
      <trkpt lat="44.29616" lon="5.64591">
        <ele>748</ele>
        <time>2019-06-19T09:42:52Z</time>
      </trkpt>
      <trkpt lat="44.29618" lon="5.646">
        <ele>748</ele>
        <time>2019-06-19T09:42:53Z</time>
      </trkpt>
      <trkpt lat="44.29621" lon="5.64609">
        <ele>748</ele>
        <time>2019-06-19T09:42:54Z</time>
      </trkpt>
      <trkpt lat="44.29624" lon="5.64618">
        <ele>748</ele>
        <time>2019-06-19T09:42:55Z</time>
      </trkpt>
      <trkpt lat="44.29627" lon="5.64626">
        <ele>748</ele>
        <time>2019-06-19T09:42:56Z</time>
      </trkpt>
      <trkpt lat="44.2963" lon="5.64634">
        <ele>748</ele>
        <time>2019-06-19T09:42:57Z</time>
      </trkpt>
      <trkpt lat="44.29634" lon="5.64641">
        <ele>748</ele>
        <time>2019-06-19T09:42:58Z</time>
      </trkpt>
      <trkpt lat="44.29639" lon="5.64648">
        <ele>748</ele>
        <time>2019-06-19T09:42:59Z</time>
      </trkpt>
      <trkpt lat="44.29645" lon="5.64654">
        <ele>748</ele>
        <time>2019-06-19T09:43:00Z</time>
      </trkpt>
      <trkpt lat="44.29651" lon="5.64659">
        <ele>748</ele>
        <time>2019-06-19T09:43:01Z</time>
      </trkpt>
      <trkpt lat="44.29657" lon="5.64665">
        <ele>748</ele>
        <time>2019-06-19T09:43:02Z</time>
      </trkpt>
      <trkpt lat="44.29664" lon="5.6467">
        <ele>748</ele>
        <time>2019-06-19T09:43:03Z</time>
      </trkpt>
      <trkpt lat="44.29671" lon="5.64677">
        <ele>748</ele>
        <time>2019-06-19T09:43:04Z</time>
      </trkpt>
      <trkpt lat="44.29677" lon="5.64684">
        <ele>748</ele>
        <time>2019-06-19T09:43:05Z</time>
      </trkpt>
      <trkpt lat="44.2968" lon="5.64694">
        <ele>748</ele>
        <time>2019-06-19T09:43:06Z</time>
      </trkpt>
      <trkpt lat="44.29681" lon="5.64704">
        <ele>748</ele>
        <time>2019-06-19T09:43:07Z</time>
      </trkpt>
      <trkpt lat="44.29681" lon="5.64714">
        <ele>748</ele>
        <time>2019-06-19T09:43:08Z</time>
      </trkpt>
      <trkpt lat="44.29681" lon="5.64723">
        <ele>748</ele>
        <time>2019-06-19T09:43:09Z</time>
      </trkpt>
      <trkpt lat="44.29681" lon="5.64732">
        <ele>748</ele>
        <time>2019-06-19T09:43:10Z</time>
      </trkpt>
      <trkpt lat="44.29679" lon="5.64741">
        <ele>748</ele>
        <time>2019-06-19T09:43:11Z</time>
      </trkpt>
      <trkpt lat="44.29679" lon="5.64749">
        <ele>748</ele>
        <time>2019-06-19T09:43:12Z</time>
      </trkpt>
      <trkpt lat="44.29678" lon="5.64758">
        <ele>748</ele>
        <time>2019-06-19T09:43:13Z</time>
      </trkpt>
      <trkpt lat="44.29678" lon="5.64766">
        <ele>748</ele>
        <time>2019-06-19T09:43:14Z</time>
      </trkpt>
      <trkpt lat="44.29677" lon="5.64775">
        <ele>748</ele>
        <time>2019-06-19T09:43:15Z</time>
      </trkpt>
      <trkpt lat="44.29677" lon="5.64782">
        <ele>748</ele>
        <time>2019-06-19T09:43:16Z</time>
      </trkpt>
      <trkpt lat="44.29677" lon="5.6479">
        <ele>748</ele>
        <time>2019-06-19T09:43:17Z</time>
      </trkpt>
      <trkpt lat="44.29679" lon="5.64799">
        <ele>748</ele>
        <time>2019-06-19T09:43:18Z</time>
      </trkpt>
      <trkpt lat="44.29681" lon="5.64807">
        <ele>748</ele>
        <time>2019-06-19T09:43:19Z</time>
      </trkpt>
      <trkpt lat="44.29684" lon="5.64815">
        <ele>748</ele>
        <time>2019-06-19T09:43:20Z</time>
      </trkpt>
      <trkpt lat="44.29687" lon="5.64823">
        <ele>748</ele>
        <time>2019-06-19T09:43:21Z</time>
      </trkpt>
      <trkpt lat="44.2969" lon="5.64831">
        <ele>748</ele>
        <time>2019-06-19T09:43:22Z</time>
      </trkpt>
      <trkpt lat="44.29692" lon="5.64839">
        <ele>748</ele>
        <time>2019-06-19T09:43:23Z</time>
      </trkpt>
      <trkpt lat="44.29695" lon="5.64847">
        <ele>748</ele>
        <time>2019-06-19T09:43:24Z</time>
      </trkpt>
      <trkpt lat="44.29697" lon="5.64855">
        <ele>748</ele>
        <time>2019-06-19T09:43:25Z</time>
      </trkpt>
      <trkpt lat="44.297" lon="5.64863">
        <ele>748</ele>
        <time>2019-06-19T09:43:26Z</time>
      </trkpt>
      <trkpt lat="44.29703" lon="5.64872">
        <ele>748</ele>
        <time>2019-06-19T09:43:27Z</time>
      </trkpt>
      <trkpt lat="44.29705" lon="5.6488">
        <ele>748</ele>
        <time>2019-06-19T09:43:28Z</time>
      </trkpt>
      <trkpt lat="44.29708" lon="5.64889">
        <ele>748</ele>
        <time>2019-06-19T09:43:29Z</time>
      </trkpt>
      <trkpt lat="44.29712" lon="5.64897">
        <ele>748</ele>
        <time>2019-06-19T09:43:30Z</time>
      </trkpt>
      <trkpt lat="44.29715" lon="5.64906">
        <ele>748</ele>
        <time>2019-06-19T09:43:31Z</time>
      </trkpt>
      <trkpt lat="44.29718" lon="5.64914">
        <ele>748</ele>
        <time>2019-06-19T09:43:32Z</time>
      </trkpt>
      <trkpt lat="44.29723" lon="5.64923">
        <ele>748</ele>
        <time>2019-06-19T09:43:33Z</time>
      </trkpt>
      <trkpt lat="44.29726" lon="5.64931">
        <ele>748</ele>
        <time>2019-06-19T09:43:34Z</time>
      </trkpt>
      <trkpt lat="44.2973" lon="5.64939">
        <ele>748</ele>
        <time>2019-06-19T09:43:35Z</time>
      </trkpt>
      <trkpt lat="44.29734" lon="5.64948">
        <ele>748</ele>
        <time>2019-06-19T09:43:36Z</time>
      </trkpt>
      <trkpt lat="44.29737" lon="5.64957">
        <ele>748</ele>
        <time>2019-06-19T09:43:37Z</time>
      </trkpt>
      <trkpt lat="44.29741" lon="5.64965">
        <ele>748</ele>
        <time>2019-06-19T09:43:38Z</time>
      </trkpt>
      <trkpt lat="44.29745" lon="5.64973">
        <ele>748</ele>
        <time>2019-06-19T09:43:39Z</time>
      </trkpt>
      <trkpt lat="44.2975" lon="5.64982">
        <ele>748</ele>
        <time>2019-06-19T09:43:40Z</time>
      </trkpt>
      <trkpt lat="44.29753" lon="5.6499">
        <ele>748</ele>
        <time>2019-06-19T09:43:41Z</time>
      </trkpt>
      <trkpt lat="44.29757" lon="5.64999">
        <ele>748</ele>
        <time>2019-06-19T09:43:42Z</time>
      </trkpt>
      <trkpt lat="44.2976" lon="5.65008">
        <ele>748</ele>
        <time>2019-06-19T09:43:43Z</time>
      </trkpt>
      <trkpt lat="44.29763" lon="5.65017">
        <ele>748</ele>
        <time>2019-06-19T09:43:44Z</time>
      </trkpt>
      <trkpt lat="44.29766" lon="5.65025">
        <ele>748</ele>
        <time>2019-06-19T09:43:45Z</time>
      </trkpt>
      <trkpt lat="44.2977" lon="5.65033">
        <ele>748</ele>
        <time>2019-06-19T09:43:46Z</time>
      </trkpt>
      <trkpt lat="44.29774" lon="5.65041">
        <ele>748</ele>
        <time>2019-06-19T09:43:47Z</time>
      </trkpt>
      <trkpt lat="44.29777" lon="5.65049">
        <ele>748</ele>
        <time>2019-06-19T09:43:48Z</time>
      </trkpt>
      <trkpt lat="44.29781" lon="5.65057">
        <ele>748</ele>
        <time>2019-06-19T09:43:49Z</time>
      </trkpt>
      <trkpt lat="44.29785" lon="5.65064">
        <ele>748</ele>
        <time>2019-06-19T09:43:50Z</time>
      </trkpt>
      <trkpt lat="44.29788" lon="5.65073">
        <ele>748</ele>
        <time>2019-06-19T09:43:51Z</time>
      </trkpt>
      <trkpt lat="44.29791" lon="5.65081">
        <ele>748</ele>
        <time>2019-06-19T09:43:52Z</time>
      </trkpt>
      <trkpt lat="44.29795" lon="5.65089">
        <ele>748</ele>
        <time>2019-06-19T09:43:53Z</time>
      </trkpt>
      <trkpt lat="44.29798" lon="5.65097">
        <ele>748</ele>
        <time>2019-06-19T09:43:54Z</time>
      </trkpt>
      <trkpt lat="44.29801" lon="5.65104">
        <ele>748</ele>
        <time>2019-06-19T09:43:55Z</time>
      </trkpt>
      <trkpt lat="44.29804" lon="5.65112">
        <ele>748</ele>
        <time>2019-06-19T09:43:56Z</time>
      </trkpt>
      <trkpt lat="44.29808" lon="5.6512">
        <ele>748</ele>
        <time>2019-06-19T09:43:57Z</time>
      </trkpt>
      <trkpt lat="44.29811" lon="5.65128">
        <ele>748</ele>
        <time>2019-06-19T09:43:58Z</time>
      </trkpt>
      <trkpt lat="44.29815" lon="5.65135">
        <ele>747</ele>
        <time>2019-06-19T09:43:59Z</time>
      </trkpt>
      <trkpt lat="44.29818" lon="5.65143">
        <ele>747</ele>
        <time>2019-06-19T09:44:00Z</time>
      </trkpt>
      <trkpt lat="44.29821" lon="5.65151">
        <ele>747</ele>
        <time>2019-06-19T09:44:01Z</time>
      </trkpt>
      <trkpt lat="44.29824" lon="5.65159">
        <ele>747</ele>
        <time>2019-06-19T09:44:02Z</time>
      </trkpt>
      <trkpt lat="44.29828" lon="5.65167">
        <ele>747</ele>
        <time>2019-06-19T09:44:03Z</time>
      </trkpt>
      <trkpt lat="44.29832" lon="5.65175">
        <ele>746</ele>
        <time>2019-06-19T09:44:04Z</time>
      </trkpt>
      <trkpt lat="44.29836" lon="5.65183">
        <ele>746</ele>
        <time>2019-06-19T09:44:05Z</time>
      </trkpt>
      <trkpt lat="44.29839" lon="5.65192">
        <ele>746</ele>
        <time>2019-06-19T09:44:06Z</time>
      </trkpt>
      <trkpt lat="44.29843" lon="5.652">
        <ele>746</ele>
        <time>2019-06-19T09:44:07Z</time>
      </trkpt>
      <trkpt lat="44.29847" lon="5.65208">
        <ele>746</ele>
        <time>2019-06-19T09:44:08Z</time>
      </trkpt>
      <trkpt lat="44.29851" lon="5.65217">
        <ele>745</ele>
        <time>2019-06-19T09:44:09Z</time>
      </trkpt>
      <trkpt lat="44.29855" lon="5.65225">
        <ele>745</ele>
        <time>2019-06-19T09:44:10Z</time>
      </trkpt>
      <trkpt lat="44.2986" lon="5.65234">
        <ele>745</ele>
        <time>2019-06-19T09:44:11Z</time>
      </trkpt>
      <trkpt lat="44.29864" lon="5.65242">
        <ele>745</ele>
        <time>2019-06-19T09:44:12Z</time>
      </trkpt>
      <trkpt lat="44.29868" lon="5.65251">
        <ele>744</ele>
        <time>2019-06-19T09:44:13Z</time>
      </trkpt>
      <trkpt lat="44.29872" lon="5.65259">
        <ele>744</ele>
        <time>2019-06-19T09:44:14Z</time>
      </trkpt>
      <trkpt lat="44.29876" lon="5.65269">
        <ele>744</ele>
        <time>2019-06-19T09:44:15Z</time>
      </trkpt>
      <trkpt lat="44.2988" lon="5.65278">
        <ele>744</ele>
        <time>2019-06-19T09:44:16Z</time>
      </trkpt>
      <trkpt lat="44.29884" lon="5.65287">
        <ele>743</ele>
        <time>2019-06-19T09:44:17Z</time>
      </trkpt>
      <trkpt lat="44.29888" lon="5.65297">
        <ele>743</ele>
        <time>2019-06-19T09:44:18Z</time>
      </trkpt>
      <trkpt lat="44.29892" lon="5.65306">
        <ele>743</ele>
        <time>2019-06-19T09:44:19Z</time>
      </trkpt>
      <trkpt lat="44.29896" lon="5.65315">
        <ele>743</ele>
        <time>2019-06-19T09:44:20Z</time>
      </trkpt>
      <trkpt lat="44.299" lon="5.65325">
        <ele>743</ele>
        <time>2019-06-19T09:44:21Z</time>
      </trkpt>
      <trkpt lat="44.29903" lon="5.65335">
        <ele>743</ele>
        <time>2019-06-19T09:44:22Z</time>
      </trkpt>
      <trkpt lat="44.29907" lon="5.65344">
        <ele>742</ele>
        <time>2019-06-19T09:44:23Z</time>
      </trkpt>
      <trkpt lat="44.29911" lon="5.65354">
        <ele>742</ele>
        <time>2019-06-19T09:44:24Z</time>
      </trkpt>
      <trkpt lat="44.29915" lon="5.65363">
        <ele>742</ele>
        <time>2019-06-19T09:44:25Z</time>
      </trkpt>
      <trkpt lat="44.29919" lon="5.65373">
        <ele>742</ele>
        <time>2019-06-19T09:44:26Z</time>
      </trkpt>
      <trkpt lat="44.29922" lon="5.65382">
        <ele>741</ele>
        <time>2019-06-19T09:44:27Z</time>
      </trkpt>
      <trkpt lat="44.29926" lon="5.65391">
        <ele>741</ele>
        <time>2019-06-19T09:44:28Z</time>
      </trkpt>
      <trkpt lat="44.2993" lon="5.654">
        <ele>740</ele>
        <time>2019-06-19T09:44:29Z</time>
      </trkpt>
      <trkpt lat="44.29934" lon="5.65409">
        <ele>740</ele>
        <time>2019-06-19T09:44:30Z</time>
      </trkpt>
      <trkpt lat="44.29938" lon="5.65419">
        <ele>740</ele>
        <time>2019-06-19T09:44:31Z</time>
      </trkpt>
      <trkpt lat="44.29942" lon="5.65428">
        <ele>740</ele>
        <time>2019-06-19T09:44:32Z</time>
      </trkpt>
      <trkpt lat="44.29945" lon="5.65437">
        <ele>739</ele>
        <time>2019-06-19T09:44:33Z</time>
      </trkpt>
      <trkpt lat="44.29948" lon="5.65446">
        <ele>739</ele>
        <time>2019-06-19T09:44:34Z</time>
      </trkpt>
      <trkpt lat="44.29952" lon="5.65455">
        <ele>739</ele>
        <time>2019-06-19T09:44:35Z</time>
      </trkpt>
      <trkpt lat="44.29955" lon="5.65465">
        <ele>739</ele>
        <time>2019-06-19T09:44:36Z</time>
      </trkpt>
      <trkpt lat="44.29959" lon="5.65474">
        <ele>739</ele>
        <time>2019-06-19T09:44:37Z</time>
      </trkpt>
      <trkpt lat="44.29962" lon="5.65483">
        <ele>739</ele>
        <time>2019-06-19T09:44:38Z</time>
      </trkpt>
      <trkpt lat="44.29966" lon="5.65492">
        <ele>739</ele>
        <time>2019-06-19T09:44:39Z</time>
      </trkpt>
      <trkpt lat="44.2997" lon="5.65501">
        <ele>738</ele>
        <time>2019-06-19T09:44:40Z</time>
      </trkpt>
      <trkpt lat="44.29974" lon="5.6551">
        <ele>738</ele>
        <time>2019-06-19T09:44:41Z</time>
      </trkpt>
      <trkpt lat="44.29978" lon="5.65519">
        <ele>738</ele>
        <time>2019-06-19T09:44:42Z</time>
      </trkpt>
      <trkpt lat="44.29982" lon="5.65528">
        <ele>738</ele>
        <time>2019-06-19T09:44:43Z</time>
      </trkpt>
      <trkpt lat="44.29986" lon="5.65537">
        <ele>738</ele>
        <time>2019-06-19T09:44:44Z</time>
      </trkpt>
      <trkpt lat="44.2999" lon="5.65546">
        <ele>737</ele>
        <time>2019-06-19T09:44:45Z</time>
      </trkpt>
      <trkpt lat="44.29993" lon="5.65555">
        <ele>737</ele>
        <time>2019-06-19T09:44:46Z</time>
      </trkpt>
      <trkpt lat="44.29997" lon="5.65564">
        <ele>737</ele>
        <time>2019-06-19T09:44:47Z</time>
      </trkpt>
      <trkpt lat="44.30001" lon="5.65574">
        <ele>736</ele>
        <time>2019-06-19T09:44:48Z</time>
      </trkpt>
      <trkpt lat="44.30006" lon="5.65584">
        <ele>736</ele>
        <time>2019-06-19T09:44:49Z</time>
      </trkpt>
      <trkpt lat="44.3001" lon="5.65594">
        <ele>736</ele>
        <time>2019-06-19T09:44:50Z</time>
      </trkpt>
      <trkpt lat="44.30014" lon="5.65604">
        <ele>736</ele>
        <time>2019-06-19T09:44:51Z</time>
      </trkpt>
      <trkpt lat="44.30018" lon="5.65615">
        <ele>736</ele>
        <time>2019-06-19T09:44:52Z</time>
      </trkpt>
      <trkpt lat="44.30021" lon="5.65625">
        <ele>736</ele>
        <time>2019-06-19T09:44:53Z</time>
      </trkpt>
      <trkpt lat="44.30025" lon="5.65635">
        <ele>736</ele>
        <time>2019-06-19T09:44:54Z</time>
      </trkpt>
      <trkpt lat="44.30028" lon="5.65645">
        <ele>736</ele>
        <time>2019-06-19T09:44:55Z</time>
      </trkpt>
      <trkpt lat="44.30033" lon="5.65655">
        <ele>736</ele>
        <time>2019-06-19T09:44:56Z</time>
      </trkpt>
      <trkpt lat="44.30037" lon="5.65665">
        <ele>735</ele>
        <time>2019-06-19T09:44:57Z</time>
      </trkpt>
      <trkpt lat="44.3004" lon="5.65676">
        <ele>735</ele>
        <time>2019-06-19T09:44:58Z</time>
      </trkpt>
      <trkpt lat="44.30044" lon="5.65686">
        <ele>735</ele>
        <time>2019-06-19T09:44:59Z</time>
      </trkpt>
      <trkpt lat="44.30048" lon="5.65696">
        <ele>735</ele>
        <time>2019-06-19T09:45:00Z</time>
      </trkpt>
      <trkpt lat="44.3005" lon="5.65707">
        <ele>734</ele>
        <time>2019-06-19T09:45:01Z</time>
      </trkpt>
      <trkpt lat="44.30053" lon="5.65718">
        <ele>734</ele>
        <time>2019-06-19T09:45:02Z</time>
      </trkpt>
      <trkpt lat="44.30056" lon="5.65728">
        <ele>733</ele>
        <time>2019-06-19T09:45:03Z</time>
      </trkpt>
      <trkpt lat="44.3006" lon="5.65739">
        <ele>733</ele>
        <time>2019-06-19T09:45:04Z</time>
      </trkpt>
      <trkpt lat="44.30063" lon="5.6575">
        <ele>733</ele>
        <time>2019-06-19T09:45:05Z</time>
      </trkpt>
      <trkpt lat="44.30066" lon="5.65761">
        <ele>732</ele>
        <time>2019-06-19T09:45:06Z</time>
      </trkpt>
      <trkpt lat="44.30069" lon="5.65771">
        <ele>732</ele>
        <time>2019-06-19T09:45:07Z</time>
      </trkpt>
      <trkpt lat="44.30073" lon="5.65782">
        <ele>732</ele>
        <time>2019-06-19T09:45:08Z</time>
      </trkpt>
      <trkpt lat="44.30077" lon="5.65793">
        <ele>732</ele>
        <time>2019-06-19T09:45:09Z</time>
      </trkpt>
      <trkpt lat="44.30081" lon="5.65803">
        <ele>731</ele>
        <time>2019-06-19T09:45:10Z</time>
      </trkpt>
      <trkpt lat="44.30085" lon="5.65813">
        <ele>731</ele>
        <time>2019-06-19T09:45:11Z</time>
      </trkpt>
      <trkpt lat="44.30089" lon="5.65823">
        <ele>731</ele>
        <time>2019-06-19T09:45:12Z</time>
      </trkpt>
      <trkpt lat="44.30093" lon="5.65834">
        <ele>730</ele>
        <time>2019-06-19T09:45:13Z</time>
      </trkpt>
      <trkpt lat="44.30098" lon="5.65844">
        <ele>730</ele>
        <time>2019-06-19T09:45:14Z</time>
      </trkpt>
      <trkpt lat="44.30101" lon="5.65854">
        <ele>730</ele>
        <time>2019-06-19T09:45:15Z</time>
      </trkpt>
      <trkpt lat="44.30105" lon="5.65865">
        <ele>729</ele>
        <time>2019-06-19T09:45:16Z</time>
      </trkpt>
      <trkpt lat="44.30109" lon="5.65875">
        <ele>729</ele>
        <time>2019-06-19T09:45:17Z</time>
      </trkpt>
      <trkpt lat="44.30114" lon="5.65885">
        <ele>729</ele>
        <time>2019-06-19T09:45:18Z</time>
      </trkpt>
      <trkpt lat="44.30118" lon="5.65895">
        <ele>729</ele>
        <time>2019-06-19T09:45:19Z</time>
      </trkpt>
      <trkpt lat="44.30122" lon="5.65905">
        <ele>728</ele>
        <time>2019-06-19T09:45:20Z</time>
      </trkpt>
      <trkpt lat="44.30126" lon="5.65914">
        <ele>728</ele>
        <time>2019-06-19T09:45:21Z</time>
      </trkpt>
      <trkpt lat="44.3013" lon="5.65924">
        <ele>728</ele>
        <time>2019-06-19T09:45:22Z</time>
      </trkpt>
      <trkpt lat="44.30136" lon="5.65933">
        <ele>727</ele>
        <time>2019-06-19T09:45:23Z</time>
      </trkpt>
      <trkpt lat="44.30141" lon="5.65942">
        <ele>727</ele>
        <time>2019-06-19T09:45:24Z</time>
      </trkpt>
      <trkpt lat="44.30147" lon="5.65951">
        <ele>726</ele>
        <time>2019-06-19T09:45:25Z</time>
      </trkpt>
      <trkpt lat="44.30151" lon="5.65961">
        <ele>726</ele>
        <time>2019-06-19T09:45:26Z</time>
      </trkpt>
      <trkpt lat="44.30156" lon="5.65971">
        <ele>725</ele>
        <time>2019-06-19T09:45:27Z</time>
      </trkpt>
      <trkpt lat="44.30159" lon="5.65981">
        <ele>724</ele>
        <time>2019-06-19T09:45:28Z</time>
      </trkpt>
      <trkpt lat="44.30162" lon="5.65992">
        <ele>724</ele>
        <time>2019-06-19T09:45:29Z</time>
      </trkpt>
      <trkpt lat="44.30165" lon="5.66004">
        <ele>724</ele>
        <time>2019-06-19T09:45:30Z</time>
      </trkpt>
      <trkpt lat="44.30166" lon="5.66015">
        <ele>723</ele>
        <time>2019-06-19T09:45:31Z</time>
      </trkpt>
      <trkpt lat="44.30167" lon="5.66026">
        <ele>723</ele>
        <time>2019-06-19T09:45:32Z</time>
      </trkpt>
      <trkpt lat="44.30169" lon="5.66038">
        <ele>723</ele>
        <time>2019-06-19T09:45:33Z</time>
      </trkpt>
      <trkpt lat="44.3017" lon="5.66049">
        <ele>723</ele>
        <time>2019-06-19T09:45:34Z</time>
      </trkpt>
      <trkpt lat="44.30172" lon="5.6606">
        <ele>723</ele>
        <time>2019-06-19T09:45:35Z</time>
      </trkpt>
      <trkpt lat="44.30175" lon="5.66072">
        <ele>723</ele>
        <time>2019-06-19T09:45:36Z</time>
      </trkpt>
      <trkpt lat="44.30178" lon="5.66083">
        <ele>723</ele>
        <time>2019-06-19T09:45:37Z</time>
      </trkpt>
      <trkpt lat="44.30181" lon="5.66093">
        <ele>723</ele>
        <time>2019-06-19T09:45:38Z</time>
      </trkpt>
      <trkpt lat="44.30185" lon="5.66104">
        <ele>723</ele>
        <time>2019-06-19T09:45:39Z</time>
      </trkpt>
      <trkpt lat="44.30189" lon="5.66115">
        <ele>723</ele>
        <time>2019-06-19T09:45:40Z</time>
      </trkpt>
      <trkpt lat="44.30194" lon="5.66125">
        <ele>723</ele>
        <time>2019-06-19T09:45:41Z</time>
      </trkpt>
      <trkpt lat="44.30199" lon="5.66135">
        <ele>723</ele>
        <time>2019-06-19T09:45:42Z</time>
      </trkpt>
      <trkpt lat="44.30204" lon="5.66145">
        <ele>723</ele>
        <time>2019-06-19T09:45:43Z</time>
      </trkpt>
      <trkpt lat="44.30209" lon="5.66155">
        <ele>723</ele>
        <time>2019-06-19T09:45:44Z</time>
      </trkpt>
      <trkpt lat="44.30215" lon="5.66165">
        <ele>723</ele>
        <time>2019-06-19T09:45:45Z</time>
      </trkpt>
      <trkpt lat="44.3022" lon="5.66175">
        <ele>723</ele>
        <time>2019-06-19T09:45:46Z</time>
      </trkpt>
      <trkpt lat="44.30225" lon="5.66185">
        <ele>723</ele>
        <time>2019-06-19T09:45:47Z</time>
      </trkpt>
      <trkpt lat="44.30231" lon="5.66194">
        <ele>723</ele>
        <time>2019-06-19T09:45:48Z</time>
      </trkpt>
      <trkpt lat="44.30236" lon="5.66204">
        <ele>723</ele>
        <time>2019-06-19T09:45:49Z</time>
      </trkpt>
      <trkpt lat="44.30242" lon="5.66213">
        <ele>723</ele>
        <time>2019-06-19T09:45:50Z</time>
      </trkpt>
      <trkpt lat="44.30248" lon="5.66222">
        <ele>723</ele>
        <time>2019-06-19T09:45:51Z</time>
      </trkpt>
      <trkpt lat="44.30254" lon="5.66232">
        <ele>723</ele>
        <time>2019-06-19T09:45:52Z</time>
      </trkpt>
      <trkpt lat="44.30259" lon="5.66241">
        <ele>722</ele>
        <time>2019-06-19T09:45:53Z</time>
      </trkpt>
      <trkpt lat="44.30263" lon="5.66251">
        <ele>722</ele>
        <time>2019-06-19T09:45:54Z</time>
      </trkpt>
      <trkpt lat="44.30268" lon="5.6626">
        <ele>721</ele>
        <time>2019-06-19T09:45:55Z</time>
      </trkpt>
      <trkpt lat="44.30272" lon="5.66271">
        <ele>720</ele>
        <time>2019-06-19T09:45:56Z</time>
      </trkpt>
      <trkpt lat="44.30275" lon="5.66282">
        <ele>720</ele>
        <time>2019-06-19T09:45:57Z</time>
      </trkpt>
      <trkpt lat="44.30278" lon="5.66293">
        <ele>720</ele>
        <time>2019-06-19T09:45:58Z</time>
      </trkpt>
      <trkpt lat="44.3028" lon="5.66305">
        <ele>719</ele>
        <time>2019-06-19T09:45:59Z</time>
      </trkpt>
      <trkpt lat="44.30281" lon="5.66318">
        <ele>719</ele>
        <time>2019-06-19T09:46:00Z</time>
      </trkpt>
      <trkpt lat="44.30283" lon="5.6633">
        <ele>719</ele>
        <time>2019-06-19T09:46:01Z</time>
      </trkpt>
      <trkpt lat="44.30285" lon="5.66343">
        <ele>719</ele>
        <time>2019-06-19T09:46:02Z</time>
      </trkpt>
      <trkpt lat="44.30287" lon="5.66356">
        <ele>718</ele>
        <time>2019-06-19T09:46:03Z</time>
      </trkpt>
      <trkpt lat="44.30289" lon="5.66368">
        <ele>718</ele>
        <time>2019-06-19T09:46:04Z</time>
      </trkpt>
      <trkpt lat="44.30291" lon="5.66381">
        <ele>717</ele>
        <time>2019-06-19T09:46:05Z</time>
      </trkpt>
      <trkpt lat="44.30294" lon="5.66394">
        <ele>717</ele>
        <time>2019-06-19T09:46:06Z</time>
      </trkpt>
      <trkpt lat="44.30296" lon="5.66407">
        <ele>716</ele>
        <time>2019-06-19T09:46:07Z</time>
      </trkpt>
      <trkpt lat="44.303" lon="5.66419">
        <ele>716</ele>
        <time>2019-06-19T09:46:08Z</time>
      </trkpt>
      <trkpt lat="44.30304" lon="5.66431">
        <ele>716</ele>
        <time>2019-06-19T09:46:09Z</time>
      </trkpt>
      <trkpt lat="44.30308" lon="5.66442">
        <ele>716</ele>
        <time>2019-06-19T09:46:10Z</time>
      </trkpt>
      <trkpt lat="44.30313" lon="5.66452">
        <ele>715</ele>
        <time>2019-06-19T09:46:11Z</time>
      </trkpt>
      <trkpt lat="44.30318" lon="5.66462">
        <ele>715</ele>
        <time>2019-06-19T09:46:12Z</time>
      </trkpt>
      <trkpt lat="44.30325" lon="5.66471">
        <ele>715</ele>
        <time>2019-06-19T09:46:13Z</time>
      </trkpt>
      <trkpt lat="44.30331" lon="5.6648">
        <ele>715</ele>
        <time>2019-06-19T09:46:14Z</time>
      </trkpt>
      <trkpt lat="44.30339" lon="5.66487">
        <ele>715</ele>
        <time>2019-06-19T09:46:15Z</time>
      </trkpt>
      <trkpt lat="44.30347" lon="5.66495">
        <ele>715</ele>
        <time>2019-06-19T09:46:16Z</time>
      </trkpt>
      <trkpt lat="44.30354" lon="5.66502">
        <ele>715</ele>
        <time>2019-06-19T09:46:17Z</time>
      </trkpt>
      <trkpt lat="44.30362" lon="5.6651">
        <ele>715</ele>
        <time>2019-06-19T09:46:18Z</time>
      </trkpt>
      <trkpt lat="44.3037" lon="5.66517">
        <ele>715</ele>
        <time>2019-06-19T09:46:19Z</time>
      </trkpt>
      <trkpt lat="44.30378" lon="5.66524">
        <ele>715</ele>
        <time>2019-06-19T09:46:20Z</time>
      </trkpt>
      <trkpt lat="44.30386" lon="5.66532">
        <ele>715</ele>
        <time>2019-06-19T09:46:21Z</time>
      </trkpt>
      <trkpt lat="44.30395" lon="5.66539">
        <ele>715</ele>
        <time>2019-06-19T09:46:22Z</time>
      </trkpt>
      <trkpt lat="44.30403" lon="5.66546">
        <ele>715</ele>
        <time>2019-06-19T09:46:23Z</time>
      </trkpt>
      <trkpt lat="44.30411" lon="5.66552">
        <ele>715</ele>
        <time>2019-06-19T09:46:24Z</time>
      </trkpt>
      <trkpt lat="44.3042" lon="5.66558">
        <ele>715</ele>
        <time>2019-06-19T09:46:25Z</time>
      </trkpt>
      <trkpt lat="44.30429" lon="5.66561">
        <ele>715</ele>
        <time>2019-06-19T09:46:26Z</time>
      </trkpt>
      <trkpt lat="44.30439" lon="5.66563">
        <ele>715</ele>
        <time>2019-06-19T09:46:27Z</time>
      </trkpt>
      <trkpt lat="44.30448" lon="5.66563">
        <ele>715</ele>
        <time>2019-06-19T09:46:28Z</time>
      </trkpt>
      <trkpt lat="44.30458" lon="5.66562">
        <ele>715</ele>
        <time>2019-06-19T09:46:29Z</time>
      </trkpt>
      <trkpt lat="44.30467" lon="5.66562">
        <ele>715</ele>
        <time>2019-06-19T09:46:30Z</time>
      </trkpt>
      <trkpt lat="44.30476" lon="5.6656">
        <ele>715</ele>
        <time>2019-06-19T09:46:31Z</time>
      </trkpt>
      <trkpt lat="44.30485" lon="5.66558">
        <ele>715</ele>
        <time>2019-06-19T09:46:32Z</time>
      </trkpt>
      <trkpt lat="44.30494" lon="5.66557">
        <ele>715</ele>
        <time>2019-06-19T09:46:33Z</time>
      </trkpt>
      <trkpt lat="44.30502" lon="5.66556">
        <ele>715</ele>
        <time>2019-06-19T09:46:34Z</time>
      </trkpt>
      <trkpt lat="44.30511" lon="5.66555">
        <ele>715</ele>
        <time>2019-06-19T09:46:35Z</time>
      </trkpt>
      <trkpt lat="44.3052" lon="5.66553">
        <ele>715</ele>
        <time>2019-06-19T09:46:36Z</time>
      </trkpt>
      <trkpt lat="44.30528" lon="5.66553">
        <ele>715</ele>
        <time>2019-06-19T09:46:37Z</time>
      </trkpt>
      <trkpt lat="44.30536" lon="5.66554">
        <ele>715</ele>
        <time>2019-06-19T09:46:38Z</time>
      </trkpt>
      <trkpt lat="44.30545" lon="5.66555">
        <ele>715</ele>
        <time>2019-06-19T09:46:39Z</time>
      </trkpt>
      <trkpt lat="44.30552" lon="5.66559">
        <ele>715</ele>
        <time>2019-06-19T09:46:40Z</time>
      </trkpt>
      <trkpt lat="44.30559" lon="5.66563">
        <ele>715</ele>
        <time>2019-06-19T09:46:41Z</time>
      </trkpt>
      <trkpt lat="44.30566" lon="5.66569">
        <ele>715</ele>
        <time>2019-06-19T09:46:42Z</time>
      </trkpt>
      <trkpt lat="44.30572" lon="5.66575">
        <ele>715</ele>
        <time>2019-06-19T09:46:43Z</time>
      </trkpt>
      <trkpt lat="44.30579" lon="5.66581">
        <ele>715</ele>
        <time>2019-06-19T09:46:44Z</time>
      </trkpt>
      <trkpt lat="44.30584" lon="5.66588">
        <ele>715</ele>
        <time>2019-06-19T09:46:45Z</time>
      </trkpt>
      <trkpt lat="44.30591" lon="5.66595">
        <ele>715</ele>
        <time>2019-06-19T09:46:46Z</time>
      </trkpt>
      <trkpt lat="44.30597" lon="5.66602">
        <ele>715</ele>
        <time>2019-06-19T09:46:47Z</time>
      </trkpt>
      <trkpt lat="44.30603" lon="5.66609">
        <ele>715</ele>
        <time>2019-06-19T09:46:48Z</time>
      </trkpt>
      <trkpt lat="44.3061" lon="5.66616">
        <ele>715</ele>
        <time>2019-06-19T09:46:49Z</time>
      </trkpt>
      <trkpt lat="44.30616" lon="5.66624">
        <ele>715</ele>
        <time>2019-06-19T09:46:50Z</time>
      </trkpt>
      <trkpt lat="44.30623" lon="5.66632">
        <ele>715</ele>
        <time>2019-06-19T09:46:51Z</time>
      </trkpt>
      <trkpt lat="44.30629" lon="5.6664">
        <ele>715</ele>
        <time>2019-06-19T09:46:52Z</time>
      </trkpt>
      <trkpt lat="44.30635" lon="5.66647">
        <ele>715</ele>
        <time>2019-06-19T09:46:53Z</time>
      </trkpt>
      <trkpt lat="44.3064" lon="5.66655">
        <ele>715</ele>
        <time>2019-06-19T09:46:54Z</time>
      </trkpt>
      <trkpt lat="44.30645" lon="5.66663">
        <ele>715</ele>
        <time>2019-06-19T09:46:55Z</time>
      </trkpt>
      <trkpt lat="44.3065" lon="5.6667">
        <ele>715</ele>
        <time>2019-06-19T09:46:56Z</time>
      </trkpt>
      <trkpt lat="44.30656" lon="5.66678">
        <ele>715</ele>
        <time>2019-06-19T09:46:57Z</time>
      </trkpt>
      <trkpt lat="44.30661" lon="5.66685">
        <ele>715</ele>
        <time>2019-06-19T09:46:58Z</time>
      </trkpt>
      <trkpt lat="44.30666" lon="5.66692">
        <ele>715</ele>
        <time>2019-06-19T09:46:59Z</time>
      </trkpt>
      <trkpt lat="44.30672" lon="5.66699">
        <ele>715</ele>
        <time>2019-06-19T09:47:00Z</time>
      </trkpt>
      <trkpt lat="44.30678" lon="5.66705">
        <ele>715</ele>
        <time>2019-06-19T09:47:01Z</time>
      </trkpt>
      <trkpt lat="44.30685" lon="5.6671">
        <ele>715</ele>
        <time>2019-06-19T09:47:02Z</time>
      </trkpt>
      <trkpt lat="44.30692" lon="5.66714">
        <ele>715</ele>
        <time>2019-06-19T09:47:03Z</time>
      </trkpt>
      <trkpt lat="44.30699" lon="5.66718">
        <ele>715</ele>
        <time>2019-06-19T09:47:04Z</time>
      </trkpt>
      <trkpt lat="44.30706" lon="5.66722">
        <ele>715</ele>
        <time>2019-06-19T09:47:05Z</time>
      </trkpt>
      <trkpt lat="44.30714" lon="5.66725">
        <ele>715</ele>
        <time>2019-06-19T09:47:06Z</time>
      </trkpt>
      <trkpt lat="44.30721" lon="5.66728">
        <ele>715</ele>
        <time>2019-06-19T09:47:07Z</time>
      </trkpt>
      <trkpt lat="44.30727" lon="5.66731">
        <ele>715</ele>
        <time>2019-06-19T09:47:08Z</time>
      </trkpt>
      <trkpt lat="44.30734" lon="5.66733">
        <ele>715</ele>
        <time>2019-06-19T09:47:09Z</time>
      </trkpt>
      <trkpt lat="44.3074" lon="5.66736">
        <ele>715</ele>
        <time>2019-06-19T09:47:10Z</time>
      </trkpt>
      <trkpt lat="44.30747" lon="5.66739">
        <ele>715</ele>
        <time>2019-06-19T09:47:11Z</time>
      </trkpt>
      <trkpt lat="44.30753" lon="5.66742">
        <ele>715</ele>
        <time>2019-06-19T09:47:12Z</time>
      </trkpt>
      <trkpt lat="44.3076" lon="5.66746">
        <ele>715</ele>
        <time>2019-06-19T09:47:13Z</time>
      </trkpt>
      <trkpt lat="44.30766" lon="5.66751">
        <ele>715</ele>
        <time>2019-06-19T09:47:14Z</time>
      </trkpt>
      <trkpt lat="44.30772" lon="5.66755">
        <ele>715</ele>
        <time>2019-06-19T09:47:15Z</time>
      </trkpt>
      <trkpt lat="44.30778" lon="5.6676">
        <ele>715</ele>
        <time>2019-06-19T09:47:16Z</time>
      </trkpt>
      <trkpt lat="44.30782" lon="5.66765">
        <ele>715</ele>
        <time>2019-06-19T09:47:17Z</time>
      </trkpt>
      <trkpt lat="44.30788" lon="5.66771">
        <ele>715</ele>
        <time>2019-06-19T09:47:18Z</time>
      </trkpt>
      <trkpt lat="44.30793" lon="5.66776">
        <ele>715</ele>
        <time>2019-06-19T09:47:19Z</time>
      </trkpt>
      <trkpt lat="44.30798" lon="5.66782">
        <ele>715</ele>
        <time>2019-06-19T09:47:20Z</time>
      </trkpt>
      <trkpt lat="44.30804" lon="5.66787">
        <ele>715</ele>
        <time>2019-06-19T09:47:21Z</time>
      </trkpt>
      <trkpt lat="44.30809" lon="5.66793">
        <ele>715</ele>
        <time>2019-06-19T09:47:22Z</time>
      </trkpt>
      <trkpt lat="44.30815" lon="5.66799">
        <ele>715</ele>
        <time>2019-06-19T09:47:23Z</time>
      </trkpt>
      <trkpt lat="44.3082" lon="5.66805">
        <ele>715</ele>
        <time>2019-06-19T09:47:24Z</time>
      </trkpt>
      <trkpt lat="44.30825" lon="5.6681">
        <ele>715</ele>
        <time>2019-06-19T09:47:25Z</time>
      </trkpt>
      <trkpt lat="44.30831" lon="5.66816">
        <ele>715</ele>
        <time>2019-06-19T09:47:26Z</time>
      </trkpt>
      <trkpt lat="44.30836" lon="5.66821">
        <ele>715</ele>
        <time>2019-06-19T09:47:27Z</time>
      </trkpt>
      <trkpt lat="44.30843" lon="5.66827">
        <ele>715</ele>
        <time>2019-06-19T09:47:28Z</time>
      </trkpt>
      <trkpt lat="44.30848" lon="5.66832">
        <ele>715</ele>
        <time>2019-06-19T09:47:29Z</time>
      </trkpt>
      <trkpt lat="44.30854" lon="5.66838">
        <ele>715</ele>
        <time>2019-06-19T09:47:30Z</time>
      </trkpt>
      <trkpt lat="44.30861" lon="5.66844">
        <ele>715</ele>
        <time>2019-06-19T09:47:31Z</time>
      </trkpt>
      <trkpt lat="44.30867" lon="5.66851">
        <ele>715</ele>
        <time>2019-06-19T09:47:32Z</time>
      </trkpt>
      <trkpt lat="44.30872" lon="5.66858">
        <ele>715</ele>
        <time>2019-06-19T09:47:33Z</time>
      </trkpt>
      <trkpt lat="44.30878" lon="5.66865">
        <ele>715</ele>
        <time>2019-06-19T09:47:34Z</time>
      </trkpt>
      <trkpt lat="44.30884" lon="5.66874">
        <ele>715</ele>
        <time>2019-06-19T09:47:35Z</time>
      </trkpt>
      <trkpt lat="44.3089" lon="5.66882">
        <ele>715</ele>
        <time>2019-06-19T09:47:36Z</time>
      </trkpt>
      <trkpt lat="44.30895" lon="5.66889">
        <ele>715</ele>
        <time>2019-06-19T09:47:37Z</time>
      </trkpt>
      <trkpt lat="44.309" lon="5.66897">
        <ele>715</ele>
        <time>2019-06-19T09:47:38Z</time>
      </trkpt>
      <trkpt lat="44.30906" lon="5.66906">
        <ele>715</ele>
        <time>2019-06-19T09:47:39Z</time>
      </trkpt>
      <trkpt lat="44.30911" lon="5.66914">
        <ele>715</ele>
        <time>2019-06-19T09:47:40Z</time>
      </trkpt>
      <trkpt lat="44.30916" lon="5.66923">
        <ele>715</ele>
        <time>2019-06-19T09:47:41Z</time>
      </trkpt>
      <trkpt lat="44.30921" lon="5.66931">
        <ele>715</ele>
        <time>2019-06-19T09:47:42Z</time>
      </trkpt>
      <trkpt lat="44.30926" lon="5.66939">
        <ele>715</ele>
        <time>2019-06-19T09:47:43Z</time>
      </trkpt>
      <trkpt lat="44.30931" lon="5.66948">
        <ele>715</ele>
        <time>2019-06-19T09:47:44Z</time>
      </trkpt>
      <trkpt lat="44.30936" lon="5.66956">
        <ele>715</ele>
        <time>2019-06-19T09:47:45Z</time>
      </trkpt>
      <trkpt lat="44.30941" lon="5.66965">
        <ele>715</ele>
        <time>2019-06-19T09:47:46Z</time>
      </trkpt>
      <trkpt lat="44.30946" lon="5.66974">
        <ele>715</ele>
        <time>2019-06-19T09:47:47Z</time>
      </trkpt>
      <trkpt lat="44.30951" lon="5.66983">
        <ele>714</ele>
        <time>2019-06-19T09:47:48Z</time>
      </trkpt>
      <trkpt lat="44.30956" lon="5.66992">
        <ele>714</ele>
        <time>2019-06-19T09:47:49Z</time>
      </trkpt>
      <trkpt lat="44.3096" lon="5.67">
        <ele>713</ele>
        <time>2019-06-19T09:47:50Z</time>
      </trkpt>
      <trkpt lat="44.30965" lon="5.67009">
        <ele>713</ele>
        <time>2019-06-19T09:47:51Z</time>
      </trkpt>
      <trkpt lat="44.3097" lon="5.67018">
        <ele>712</ele>
        <time>2019-06-19T09:47:52Z</time>
      </trkpt>
      <trkpt lat="44.30975" lon="5.67027">
        <ele>712</ele>
        <time>2019-06-19T09:47:53Z</time>
      </trkpt>
      <trkpt lat="44.3098" lon="5.67035">
        <ele>712</ele>
        <time>2019-06-19T09:47:54Z</time>
      </trkpt>
      <trkpt lat="44.30985" lon="5.67043">
        <ele>712</ele>
        <time>2019-06-19T09:47:55Z</time>
      </trkpt>
      <trkpt lat="44.3099" lon="5.67052">
        <ele>712</ele>
        <time>2019-06-19T09:47:56Z</time>
      </trkpt>
      <trkpt lat="44.30996" lon="5.6706">
        <ele>712</ele>
        <time>2019-06-19T09:47:57Z</time>
      </trkpt>
      <trkpt lat="44.31001" lon="5.67067">
        <ele>712</ele>
        <time>2019-06-19T09:47:58Z</time>
      </trkpt>
      <trkpt lat="44.31007" lon="5.67075">
        <ele>712</ele>
        <time>2019-06-19T09:47:59Z</time>
      </trkpt>
      <trkpt lat="44.31014" lon="5.67082">
        <ele>712</ele>
        <time>2019-06-19T09:48:00Z</time>
      </trkpt>
      <trkpt lat="44.3102" lon="5.67089">
        <ele>712</ele>
        <time>2019-06-19T09:48:01Z</time>
      </trkpt>
      <trkpt lat="44.31025" lon="5.67096">
        <ele>712</ele>
        <time>2019-06-19T09:48:02Z</time>
      </trkpt>
      <trkpt lat="44.3103" lon="5.67103">
        <ele>712</ele>
        <time>2019-06-19T09:48:03Z</time>
      </trkpt>
      <trkpt lat="44.31036" lon="5.6711">
        <ele>712</ele>
        <time>2019-06-19T09:48:04Z</time>
      </trkpt>
      <trkpt lat="44.31041" lon="5.67116">
        <ele>712</ele>
        <time>2019-06-19T09:48:05Z</time>
      </trkpt>
      <trkpt lat="44.31047" lon="5.67122">
        <ele>712</ele>
        <time>2019-06-19T09:48:06Z</time>
      </trkpt>
      <trkpt lat="44.31053" lon="5.67128">
        <ele>712</ele>
        <time>2019-06-19T09:48:07Z</time>
      </trkpt>
      <trkpt lat="44.31059" lon="5.67134">
        <ele>712</ele>
        <time>2019-06-19T09:48:08Z</time>
      </trkpt>
      <trkpt lat="44.31065" lon="5.6714">
        <ele>712</ele>
        <time>2019-06-19T09:48:09Z</time>
      </trkpt>
      <trkpt lat="44.31071" lon="5.67145">
        <ele>712</ele>
        <time>2019-06-19T09:48:10Z</time>
      </trkpt>
      <trkpt lat="44.31077" lon="5.67149">
        <ele>712</ele>
        <time>2019-06-19T09:48:11Z</time>
      </trkpt>
      <trkpt lat="44.31083" lon="5.67154">
        <ele>712</ele>
        <time>2019-06-19T09:48:12Z</time>
      </trkpt>
      <trkpt lat="44.31089" lon="5.67159">
        <ele>712</ele>
        <time>2019-06-19T09:48:13Z</time>
      </trkpt>
      <trkpt lat="44.31096" lon="5.67164">
        <ele>712</ele>
        <time>2019-06-19T09:48:14Z</time>
      </trkpt>
      <trkpt lat="44.31102" lon="5.67168">
        <ele>712</ele>
        <time>2019-06-19T09:48:15Z</time>
      </trkpt>
      <trkpt lat="44.31108" lon="5.67172">
        <ele>712</ele>
        <time>2019-06-19T09:48:16Z</time>
      </trkpt>
      <trkpt lat="44.31115" lon="5.67175">
        <ele>712</ele>
        <time>2019-06-19T09:48:17Z</time>
      </trkpt>
      <trkpt lat="44.31122" lon="5.67179">
        <ele>712</ele>
        <time>2019-06-19T09:48:18Z</time>
      </trkpt>
      <trkpt lat="44.31128" lon="5.67182">
        <ele>712</ele>
        <time>2019-06-19T09:48:19Z</time>
      </trkpt>
      <trkpt lat="44.31135" lon="5.67186">
        <ele>712</ele>
        <time>2019-06-19T09:48:20Z</time>
      </trkpt>
      <trkpt lat="44.31142" lon="5.6719">
        <ele>712</ele>
        <time>2019-06-19T09:48:21Z</time>
      </trkpt>
      <trkpt lat="44.31148" lon="5.67195">
        <ele>712</ele>
        <time>2019-06-19T09:48:22Z</time>
      </trkpt>
      <trkpt lat="44.31155" lon="5.67199">
        <ele>712</ele>
        <time>2019-06-19T09:48:23Z</time>
      </trkpt>
      <trkpt lat="44.3116" lon="5.67204">
        <ele>712</ele>
        <time>2019-06-19T09:48:24Z</time>
      </trkpt>
      <trkpt lat="44.31166" lon="5.67208">
        <ele>712</ele>
        <time>2019-06-19T09:48:25Z</time>
      </trkpt>
      <trkpt lat="44.31173" lon="5.67213">
        <ele>712</ele>
        <time>2019-06-19T09:48:26Z</time>
      </trkpt>
      <trkpt lat="44.31178" lon="5.67219">
        <ele>712</ele>
        <time>2019-06-19T09:48:27Z</time>
      </trkpt>
      <trkpt lat="44.31184" lon="5.67225">
        <ele>712</ele>
        <time>2019-06-19T09:48:28Z</time>
      </trkpt>
      <trkpt lat="44.3119" lon="5.6723">
        <ele>712</ele>
        <time>2019-06-19T09:48:29Z</time>
      </trkpt>
      <trkpt lat="44.31197" lon="5.67237">
        <ele>712</ele>
        <time>2019-06-19T09:48:30Z</time>
      </trkpt>
      <trkpt lat="44.31203" lon="5.67243">
        <ele>712</ele>
        <time>2019-06-19T09:48:31Z</time>
      </trkpt>
      <trkpt lat="44.3121" lon="5.6725">
        <ele>712</ele>
        <time>2019-06-19T09:48:32Z</time>
      </trkpt>
      <trkpt lat="44.31216" lon="5.67257">
        <ele>712</ele>
        <time>2019-06-19T09:48:33Z</time>
      </trkpt>
      <trkpt lat="44.31223" lon="5.67264">
        <ele>712</ele>
        <time>2019-06-19T09:48:34Z</time>
      </trkpt>
      <trkpt lat="44.31229" lon="5.6727">
        <ele>712</ele>
        <time>2019-06-19T09:48:35Z</time>
      </trkpt>
      <trkpt lat="44.31235" lon="5.67278">
        <ele>712</ele>
        <time>2019-06-19T09:48:36Z</time>
      </trkpt>
      <trkpt lat="44.31241" lon="5.67285">
        <ele>711</ele>
        <time>2019-06-19T09:48:37Z</time>
      </trkpt>
      <trkpt lat="44.31247" lon="5.67293">
        <ele>711</ele>
        <time>2019-06-19T09:48:38Z</time>
      </trkpt>
      <trkpt lat="44.31252" lon="5.67301">
        <ele>711</ele>
        <time>2019-06-19T09:48:39Z</time>
      </trkpt>
      <trkpt lat="44.31258" lon="5.6731">
        <ele>710</ele>
        <time>2019-06-19T09:48:40Z</time>
      </trkpt>
      <trkpt lat="44.31264" lon="5.67317">
        <ele>710</ele>
        <time>2019-06-19T09:48:41Z</time>
      </trkpt>
      <trkpt lat="44.3127" lon="5.67325">
        <ele>710</ele>
        <time>2019-06-19T09:48:42Z</time>
      </trkpt>
      <trkpt lat="44.31275" lon="5.67333">
        <ele>709</ele>
        <time>2019-06-19T09:48:43Z</time>
      </trkpt>
      <trkpt lat="44.31281" lon="5.67341">
        <ele>709</ele>
        <time>2019-06-19T09:48:44Z</time>
      </trkpt>
      <trkpt lat="44.31286" lon="5.67349">
        <ele>709</ele>
        <time>2019-06-19T09:48:45Z</time>
      </trkpt>
      <trkpt lat="44.31291" lon="5.67357">
        <ele>708</ele>
        <time>2019-06-19T09:48:46Z</time>
      </trkpt>
      <trkpt lat="44.31297" lon="5.67365">
        <ele>708</ele>
        <time>2019-06-19T09:48:47Z</time>
      </trkpt>
      <trkpt lat="44.31302" lon="5.67374">
        <ele>708</ele>
        <time>2019-06-19T09:48:48Z</time>
      </trkpt>
      <trkpt lat="44.31306" lon="5.67382">
        <ele>707</ele>
        <time>2019-06-19T09:48:49Z</time>
      </trkpt>
      <trkpt lat="44.31312" lon="5.6739">
        <ele>707</ele>
        <time>2019-06-19T09:48:50Z</time>
      </trkpt>
      <trkpt lat="44.31317" lon="5.67398">
        <ele>707</ele>
        <time>2019-06-19T09:48:51Z</time>
      </trkpt>
      <trkpt lat="44.31321" lon="5.67406">
        <ele>706</ele>
        <time>2019-06-19T09:48:52Z</time>
      </trkpt>
      <trkpt lat="44.31326" lon="5.67415">
        <ele>705</ele>
        <time>2019-06-19T09:48:53Z</time>
      </trkpt>
      <trkpt lat="44.31331" lon="5.67424">
        <ele>705</ele>
        <time>2019-06-19T09:48:54Z</time>
      </trkpt>
      <trkpt lat="44.31335" lon="5.67433">
        <ele>704</ele>
        <time>2019-06-19T09:48:55Z</time>
      </trkpt>
      <trkpt lat="44.31339" lon="5.67442">
        <ele>703</ele>
        <time>2019-06-19T09:48:56Z</time>
      </trkpt>
      <trkpt lat="44.31344" lon="5.6745">
        <ele>703</ele>
        <time>2019-06-19T09:48:57Z</time>
      </trkpt>
      <trkpt lat="44.31349" lon="5.67459">
        <ele>702</ele>
        <time>2019-06-19T09:48:58Z</time>
      </trkpt>
      <trkpt lat="44.31353" lon="5.67468">
        <ele>701</ele>
        <time>2019-06-19T09:48:59Z</time>
      </trkpt>
      <trkpt lat="44.31357" lon="5.67477">
        <ele>701</ele>
        <time>2019-06-19T09:49:00Z</time>
      </trkpt>
      <trkpt lat="44.31362" lon="5.67486">
        <ele>700</ele>
        <time>2019-06-19T09:49:01Z</time>
      </trkpt>
      <trkpt lat="44.31366" lon="5.67496">
        <ele>699</ele>
        <time>2019-06-19T09:49:02Z</time>
      </trkpt>
      <trkpt lat="44.3137" lon="5.67506">
        <ele>698</ele>
        <time>2019-06-19T09:49:03Z</time>
      </trkpt>
      <trkpt lat="44.31374" lon="5.67517">
        <ele>698</ele>
        <time>2019-06-19T09:49:04Z</time>
      </trkpt>
      <trkpt lat="44.31377" lon="5.67528">
        <ele>697</ele>
        <time>2019-06-19T09:49:05Z</time>
      </trkpt>
      <trkpt lat="44.31379" lon="5.6754">
        <ele>697</ele>
        <time>2019-06-19T09:49:06Z</time>
      </trkpt>
      <trkpt lat="44.31381" lon="5.67551">
        <ele>696</ele>
        <time>2019-06-19T09:49:07Z</time>
      </trkpt>
      <trkpt lat="44.31383" lon="5.67563">
        <ele>696</ele>
        <time>2019-06-19T09:49:08Z</time>
      </trkpt>
      <trkpt lat="44.31385" lon="5.67575">
        <ele>695</ele>
        <time>2019-06-19T09:49:09Z</time>
      </trkpt>
      <trkpt lat="44.31387" lon="5.67587">
        <ele>695</ele>
        <time>2019-06-19T09:49:10Z</time>
      </trkpt>
      <trkpt lat="44.31389" lon="5.67599">
        <ele>695</ele>
        <time>2019-06-19T09:49:11Z</time>
      </trkpt>
      <trkpt lat="44.3139" lon="5.67611">
        <ele>695</ele>
        <time>2019-06-19T09:49:12Z</time>
      </trkpt>
      <trkpt lat="44.31391" lon="5.67623">
        <ele>695</ele>
        <time>2019-06-19T09:49:13Z</time>
      </trkpt>
      <trkpt lat="44.31392" lon="5.67634">
        <ele>695</ele>
        <time>2019-06-19T09:49:14Z</time>
      </trkpt>
      <trkpt lat="44.31392" lon="5.67646">
        <ele>695</ele>
        <time>2019-06-19T09:49:15Z</time>
      </trkpt>
      <trkpt lat="44.31393" lon="5.67657">
        <ele>695</ele>
        <time>2019-06-19T09:49:16Z</time>
      </trkpt>
      <trkpt lat="44.31394" lon="5.67669">
        <ele>695</ele>
        <time>2019-06-19T09:49:17Z</time>
      </trkpt>
      <trkpt lat="44.31395" lon="5.6768">
        <ele>695</ele>
        <time>2019-06-19T09:49:18Z</time>
      </trkpt>
      <trkpt lat="44.31395" lon="5.67691">
        <ele>695</ele>
        <time>2019-06-19T09:49:19Z</time>
      </trkpt>
      <trkpt lat="44.31396" lon="5.67701">
        <ele>695</ele>
        <time>2019-06-19T09:49:20Z</time>
      </trkpt>
      <trkpt lat="44.31397" lon="5.67712">
        <ele>695</ele>
        <time>2019-06-19T09:49:21Z</time>
      </trkpt>
      <trkpt lat="44.31398" lon="5.67722">
        <ele>695</ele>
        <time>2019-06-19T09:49:22Z</time>
      </trkpt>
      <trkpt lat="44.31398" lon="5.67732">
        <ele>695</ele>
        <time>2019-06-19T09:49:23Z</time>
      </trkpt>
      <trkpt lat="44.31399" lon="5.67742">
        <ele>695</ele>
        <time>2019-06-19T09:49:24Z</time>
      </trkpt>
      <trkpt lat="44.314" lon="5.67752">
        <ele>695</ele>
        <time>2019-06-19T09:49:25Z</time>
      </trkpt>
      <trkpt lat="44.31401" lon="5.67761">
        <ele>695</ele>
        <time>2019-06-19T09:49:26Z</time>
      </trkpt>
      <trkpt lat="44.31401" lon="5.67771">
        <ele>695</ele>
        <time>2019-06-19T09:49:27Z</time>
      </trkpt>
      <trkpt lat="44.31402" lon="5.67781">
        <ele>695</ele>
        <time>2019-06-19T09:49:28Z</time>
      </trkpt>
      <trkpt lat="44.31403" lon="5.67791">
        <ele>695</ele>
        <time>2019-06-19T09:49:29Z</time>
      </trkpt>
      <trkpt lat="44.31403" lon="5.67801">
        <ele>695</ele>
        <time>2019-06-19T09:49:30Z</time>
      </trkpt>
      <trkpt lat="44.31403" lon="5.67811">
        <ele>695</ele>
        <time>2019-06-19T09:49:31Z</time>
      </trkpt>
      <trkpt lat="44.31404" lon="5.67822">
        <ele>695</ele>
        <time>2019-06-19T09:49:32Z</time>
      </trkpt>
      <trkpt lat="44.31405" lon="5.67832">
        <ele>695</ele>
        <time>2019-06-19T09:49:33Z</time>
      </trkpt>
      <trkpt lat="44.31406" lon="5.67843">
        <ele>694</ele>
        <time>2019-06-19T09:49:34Z</time>
      </trkpt>
      <trkpt lat="44.31406" lon="5.67853">
        <ele>694</ele>
        <time>2019-06-19T09:49:35Z</time>
      </trkpt>
      <trkpt lat="44.31406" lon="5.67864">
        <ele>694</ele>
        <time>2019-06-19T09:49:36Z</time>
      </trkpt>
      <trkpt lat="44.31407" lon="5.67875">
        <ele>694</ele>
        <time>2019-06-19T09:49:37Z</time>
      </trkpt>
      <trkpt lat="44.31407" lon="5.67885">
        <ele>694</ele>
        <time>2019-06-19T09:49:38Z</time>
      </trkpt>
      <trkpt lat="44.31407" lon="5.67895">
        <ele>694</ele>
        <time>2019-06-19T09:49:39Z</time>
      </trkpt>
      <trkpt lat="44.31407" lon="5.67906">
        <ele>694</ele>
        <time>2019-06-19T09:49:40Z</time>
      </trkpt>
      <trkpt lat="44.31407" lon="5.67916">
        <ele>694</ele>
        <time>2019-06-19T09:49:41Z</time>
      </trkpt>
      <trkpt lat="44.31406" lon="5.67926">
        <ele>694</ele>
        <time>2019-06-19T09:49:42Z</time>
      </trkpt>
      <trkpt lat="44.31406" lon="5.67936">
        <ele>694</ele>
        <time>2019-06-19T09:49:43Z</time>
      </trkpt>
      <trkpt lat="44.31406" lon="5.67946">
        <ele>694</ele>
        <time>2019-06-19T09:49:44Z</time>
      </trkpt>
      <trkpt lat="44.31406" lon="5.67956">
        <ele>694</ele>
        <time>2019-06-19T09:49:45Z</time>
      </trkpt>
      <trkpt lat="44.31406" lon="5.67967">
        <ele>694</ele>
        <time>2019-06-19T09:49:46Z</time>
      </trkpt>
      <trkpt lat="44.31406" lon="5.67976">
        <ele>694</ele>
        <time>2019-06-19T09:49:47Z</time>
      </trkpt>
      <trkpt lat="44.31406" lon="5.67986">
        <ele>694</ele>
        <time>2019-06-19T09:49:48Z</time>
      </trkpt>
      <trkpt lat="44.31406" lon="5.67996">
        <ele>694</ele>
        <time>2019-06-19T09:49:49Z</time>
      </trkpt>
      <trkpt lat="44.31406" lon="5.68006">
        <ele>694</ele>
        <time>2019-06-19T09:49:50Z</time>
      </trkpt>
      <trkpt lat="44.31406" lon="5.68015">
        <ele>694</ele>
        <time>2019-06-19T09:49:51Z</time>
      </trkpt>
      <trkpt lat="44.31406" lon="5.68025">
        <ele>694</ele>
        <time>2019-06-19T09:49:52Z</time>
      </trkpt>
      <trkpt lat="44.31405" lon="5.68034">
        <ele>694</ele>
        <time>2019-06-19T09:49:53Z</time>
      </trkpt>
      <trkpt lat="44.31405" lon="5.68044">
        <ele>694</ele>
        <time>2019-06-19T09:49:54Z</time>
      </trkpt>
      <trkpt lat="44.31405" lon="5.68053">
        <ele>694</ele>
        <time>2019-06-19T09:49:55Z</time>
      </trkpt>
      <trkpt lat="44.31404" lon="5.68062">
        <ele>694</ele>
        <time>2019-06-19T09:49:56Z</time>
      </trkpt>
      <trkpt lat="44.31404" lon="5.68072">
        <ele>694</ele>
        <time>2019-06-19T09:49:57Z</time>
      </trkpt>
      <trkpt lat="44.31403" lon="5.68081">
        <ele>694</ele>
        <time>2019-06-19T09:49:58Z</time>
      </trkpt>
      <trkpt lat="44.31403" lon="5.6809">
        <ele>694</ele>
        <time>2019-06-19T09:49:59Z</time>
      </trkpt>
      <trkpt lat="44.31402" lon="5.68099">
        <ele>694</ele>
        <time>2019-06-19T09:50:00Z</time>
      </trkpt>
      <trkpt lat="44.31401" lon="5.68108">
        <ele>694</ele>
        <time>2019-06-19T09:50:01Z</time>
      </trkpt>
      <trkpt lat="44.31401" lon="5.68117">
        <ele>694</ele>
        <time>2019-06-19T09:50:02Z</time>
      </trkpt>
      <trkpt lat="44.314" lon="5.68125">
        <ele>694</ele>
        <time>2019-06-19T09:50:03Z</time>
      </trkpt>
      <trkpt lat="44.31399" lon="5.68134">
        <ele>694</ele>
        <time>2019-06-19T09:50:04Z</time>
      </trkpt>
      <trkpt lat="44.31398" lon="5.68143">
        <ele>694</ele>
        <time>2019-06-19T09:50:05Z</time>
      </trkpt>
      <trkpt lat="44.31396" lon="5.68151">
        <ele>694</ele>
        <time>2019-06-19T09:50:06Z</time>
      </trkpt>
      <trkpt lat="44.31395" lon="5.6816">
        <ele>694</ele>
        <time>2019-06-19T09:50:07Z</time>
      </trkpt>
      <trkpt lat="44.31394" lon="5.68169">
        <ele>694</ele>
        <time>2019-06-19T09:50:08Z</time>
      </trkpt>
      <trkpt lat="44.31393" lon="5.68179">
        <ele>694</ele>
        <time>2019-06-19T09:50:09Z</time>
      </trkpt>
      <trkpt lat="44.31392" lon="5.68189">
        <ele>694</ele>
        <time>2019-06-19T09:50:10Z</time>
      </trkpt>
      <trkpt lat="44.31391" lon="5.68198">
        <ele>694</ele>
        <time>2019-06-19T09:50:11Z</time>
      </trkpt>
      <trkpt lat="44.31391" lon="5.68208">
        <ele>694</ele>
        <time>2019-06-19T09:50:12Z</time>
      </trkpt>
      <trkpt lat="44.3139" lon="5.68218">
        <ele>694</ele>
        <time>2019-06-19T09:50:13Z</time>
      </trkpt>
      <trkpt lat="44.31391" lon="5.68228">
        <ele>694</ele>
        <time>2019-06-19T09:50:14Z</time>
      </trkpt>
      <trkpt lat="44.31391" lon="5.68239">
        <ele>694</ele>
        <time>2019-06-19T09:50:15Z</time>
      </trkpt>
      <trkpt lat="44.31392" lon="5.68249">
        <ele>694</ele>
        <time>2019-06-19T09:50:16Z</time>
      </trkpt>
      <trkpt lat="44.31394" lon="5.68258">
        <ele>694</ele>
        <time>2019-06-19T09:50:17Z</time>
      </trkpt>
      <trkpt lat="44.31395" lon="5.68268">
        <ele>694</ele>
        <time>2019-06-19T09:50:18Z</time>
      </trkpt>
      <trkpt lat="44.31398" lon="5.68278">
        <ele>694</ele>
        <time>2019-06-19T09:50:19Z</time>
      </trkpt>
      <trkpt lat="44.31401" lon="5.68288">
        <ele>694</ele>
        <time>2019-06-19T09:50:20Z</time>
      </trkpt>
      <trkpt lat="44.31403" lon="5.68297">
        <ele>694</ele>
        <time>2019-06-19T09:50:21Z</time>
      </trkpt>
      <trkpt lat="44.31406" lon="5.68306">
        <ele>694</ele>
        <time>2019-06-19T09:50:22Z</time>
      </trkpt>
      <trkpt lat="44.3141" lon="5.68315">
        <ele>694</ele>
        <time>2019-06-19T09:50:23Z</time>
      </trkpt>
      <trkpt lat="44.31413" lon="5.68324">
        <ele>694</ele>
        <time>2019-06-19T09:50:24Z</time>
      </trkpt>
      <trkpt lat="44.31416" lon="5.68332">
        <ele>694</ele>
        <time>2019-06-19T09:50:25Z</time>
      </trkpt>
      <trkpt lat="44.31421" lon="5.6834">
        <ele>693</ele>
        <time>2019-06-19T09:50:26Z</time>
      </trkpt>
      <trkpt lat="44.31424" lon="5.68349">
        <ele>693</ele>
        <time>2019-06-19T09:50:27Z</time>
      </trkpt>
      <trkpt lat="44.31427" lon="5.68357">
        <ele>693</ele>
        <time>2019-06-19T09:50:28Z</time>
      </trkpt>
      <trkpt lat="44.3143" lon="5.68365">
        <ele>693</ele>
        <time>2019-06-19T09:50:29Z</time>
      </trkpt>
      <trkpt lat="44.31434" lon="5.68373">
        <ele>693</ele>
        <time>2019-06-19T09:50:30Z</time>
      </trkpt>
      <trkpt lat="44.31437" lon="5.6838">
        <ele>692</ele>
        <time>2019-06-19T09:50:31Z</time>
      </trkpt>
      <trkpt lat="44.3144" lon="5.68389">
        <ele>692</ele>
        <time>2019-06-19T09:50:32Z</time>
      </trkpt>
      <trkpt lat="44.31445" lon="5.68396">
        <ele>692</ele>
        <time>2019-06-19T09:50:33Z</time>
      </trkpt>
      <trkpt lat="44.3145" lon="5.68404">
        <ele>692</ele>
        <time>2019-06-19T09:50:34Z</time>
      </trkpt>
      <trkpt lat="44.31453" lon="5.68412">
        <ele>692</ele>
        <time>2019-06-19T09:50:35Z</time>
      </trkpt>
      <trkpt lat="44.31457" lon="5.6842">
        <ele>692</ele>
        <time>2019-06-19T09:50:36Z</time>
      </trkpt>
      <trkpt lat="44.31461" lon="5.68428">
        <ele>692</ele>
        <time>2019-06-19T09:50:37Z</time>
      </trkpt>
      <trkpt lat="44.31465" lon="5.68435">
        <ele>692</ele>
        <time>2019-06-19T09:50:38Z</time>
      </trkpt>
      <trkpt lat="44.3147" lon="5.68444">
        <ele>692</ele>
        <time>2019-06-19T09:50:39Z</time>
      </trkpt>
      <trkpt lat="44.31474" lon="5.68452">
        <ele>692</ele>
        <time>2019-06-19T09:50:40Z</time>
      </trkpt>
      <trkpt lat="44.31478" lon="5.68461">
        <ele>692</ele>
        <time>2019-06-19T09:50:41Z</time>
      </trkpt>
      <trkpt lat="44.31482" lon="5.6847">
        <ele>692</ele>
        <time>2019-06-19T09:50:42Z</time>
      </trkpt>
      <trkpt lat="44.31487" lon="5.68478">
        <ele>692</ele>
        <time>2019-06-19T09:50:43Z</time>
      </trkpt>
      <trkpt lat="44.3149" lon="5.68488">
        <ele>692</ele>
        <time>2019-06-19T09:50:44Z</time>
      </trkpt>
      <trkpt lat="44.31491" lon="5.68498">
        <ele>692</ele>
        <time>2019-06-19T09:50:45Z</time>
      </trkpt>
      <trkpt lat="44.31493" lon="5.68508">
        <ele>692</ele>
        <time>2019-06-19T09:50:46Z</time>
      </trkpt>
      <trkpt lat="44.31493" lon="5.68518">
        <ele>692</ele>
        <time>2019-06-19T09:50:47Z</time>
      </trkpt>
      <trkpt lat="44.31493" lon="5.68528">
        <ele>692</ele>
        <time>2019-06-19T09:50:48Z</time>
      </trkpt>
      <trkpt lat="44.31492" lon="5.68538">
        <ele>692</ele>
        <time>2019-06-19T09:50:49Z</time>
      </trkpt>
      <trkpt lat="44.31491" lon="5.68548">
        <ele>692</ele>
        <time>2019-06-19T09:50:50Z</time>
      </trkpt>
      <trkpt lat="44.3149" lon="5.68558">
        <ele>692</ele>
        <time>2019-06-19T09:50:51Z</time>
      </trkpt>
      <trkpt lat="44.31489" lon="5.68568">
        <ele>692</ele>
        <time>2019-06-19T09:50:52Z</time>
      </trkpt>
      <trkpt lat="44.31488" lon="5.68578">
        <ele>692</ele>
        <time>2019-06-19T09:50:53Z</time>
      </trkpt>
      <trkpt lat="44.31487" lon="5.68588">
        <ele>692</ele>
        <time>2019-06-19T09:50:54Z</time>
      </trkpt>
      <trkpt lat="44.31486" lon="5.68598">
        <ele>692</ele>
        <time>2019-06-19T09:50:55Z</time>
      </trkpt>
      <trkpt lat="44.31485" lon="5.68608">
        <ele>692</ele>
        <time>2019-06-19T09:50:56Z</time>
      </trkpt>
      <trkpt lat="44.31484" lon="5.68618">
        <ele>692</ele>
        <time>2019-06-19T09:50:57Z</time>
      </trkpt>
      <trkpt lat="44.31484" lon="5.68628">
        <ele>692</ele>
        <time>2019-06-19T09:50:58Z</time>
      </trkpt>
      <trkpt lat="44.31484" lon="5.68638">
        <ele>692</ele>
        <time>2019-06-19T09:50:59Z</time>
      </trkpt>
      <trkpt lat="44.31485" lon="5.68648">
        <ele>692</ele>
        <time>2019-06-19T09:51:00Z</time>
      </trkpt>
      <trkpt lat="44.31485" lon="5.68658">
        <ele>692</ele>
        <time>2019-06-19T09:51:01Z</time>
      </trkpt>
      <trkpt lat="44.31486" lon="5.68668">
        <ele>692</ele>
        <time>2019-06-19T09:51:02Z</time>
      </trkpt>
      <trkpt lat="44.31487" lon="5.68678">
        <ele>692</ele>
        <time>2019-06-19T09:51:03Z</time>
      </trkpt>
      <trkpt lat="44.31486" lon="5.68689">
        <ele>692</ele>
        <time>2019-06-19T09:51:04Z</time>
      </trkpt>
      <trkpt lat="44.31485" lon="5.68699">
        <ele>692</ele>
        <time>2019-06-19T09:51:05Z</time>
      </trkpt>
      <trkpt lat="44.31484" lon="5.6871">
        <ele>692</ele>
        <time>2019-06-19T09:51:06Z</time>
      </trkpt>
      <trkpt lat="44.31482" lon="5.6872">
        <ele>692</ele>
        <time>2019-06-19T09:51:07Z</time>
      </trkpt>
      <trkpt lat="44.3148" lon="5.6873">
        <ele>692</ele>
        <time>2019-06-19T09:51:08Z</time>
      </trkpt>
      <trkpt lat="44.31478" lon="5.6874">
        <ele>692</ele>
        <time>2019-06-19T09:51:09Z</time>
      </trkpt>
      <trkpt lat="44.31476" lon="5.68749">
        <ele>692</ele>
        <time>2019-06-19T09:51:10Z</time>
      </trkpt>
      <trkpt lat="44.31473" lon="5.68759">
        <ele>692</ele>
        <time>2019-06-19T09:51:11Z</time>
      </trkpt>
      <trkpt lat="44.3147" lon="5.68769">
        <ele>692</ele>
        <time>2019-06-19T09:51:12Z</time>
      </trkpt>
      <trkpt lat="44.31468" lon="5.68779">
        <ele>692</ele>
        <time>2019-06-19T09:51:13Z</time>
      </trkpt>
      <trkpt lat="44.31465" lon="5.68789">
        <ele>692</ele>
        <time>2019-06-19T09:51:14Z</time>
      </trkpt>
      <trkpt lat="44.31461" lon="5.68798">
        <ele>692</ele>
        <time>2019-06-19T09:51:15Z</time>
      </trkpt>
      <trkpt lat="44.31457" lon="5.68808">
        <ele>692</ele>
        <time>2019-06-19T09:51:16Z</time>
      </trkpt>
      <trkpt lat="44.31452" lon="5.68817">
        <ele>692</ele>
        <time>2019-06-19T09:51:17Z</time>
      </trkpt>
      <trkpt lat="44.31448" lon="5.68825">
        <ele>692</ele>
        <time>2019-06-19T09:51:18Z</time>
      </trkpt>
      <trkpt lat="44.31442" lon="5.68832">
        <ele>692</ele>
        <time>2019-06-19T09:51:19Z</time>
      </trkpt>
      <trkpt lat="44.31436" lon="5.68839">
        <ele>692</ele>
        <time>2019-06-19T09:51:20Z</time>
      </trkpt>
      <trkpt lat="44.3143" lon="5.68845">
        <ele>692</ele>
        <time>2019-06-19T09:51:21Z</time>
      </trkpt>
      <trkpt lat="44.31423" lon="5.6885">
        <ele>692</ele>
        <time>2019-06-19T09:51:22Z</time>
      </trkpt>
      <trkpt lat="44.31416" lon="5.68855">
        <ele>692</ele>
        <time>2019-06-19T09:51:23Z</time>
      </trkpt>
      <trkpt lat="44.31409" lon="5.68859">
        <ele>692</ele>
        <time>2019-06-19T09:51:24Z</time>
      </trkpt>
      <trkpt lat="44.31402" lon="5.68864">
        <ele>692</ele>
        <time>2019-06-19T09:51:25Z</time>
      </trkpt>
      <trkpt lat="44.31394" lon="5.68868">
        <ele>692</ele>
        <time>2019-06-19T09:51:26Z</time>
      </trkpt>
      <trkpt lat="44.31387" lon="5.68873">
        <ele>692</ele>
        <time>2019-06-19T09:51:27Z</time>
      </trkpt>
      <trkpt lat="44.3138" lon="5.68877">
        <ele>692</ele>
        <time>2019-06-19T09:51:28Z</time>
      </trkpt>
      <trkpt lat="44.31372" lon="5.68881">
        <ele>692</ele>
        <time>2019-06-19T09:51:29Z</time>
      </trkpt>
      <trkpt lat="44.31366" lon="5.68886">
        <ele>692</ele>
        <time>2019-06-19T09:51:30Z</time>
      </trkpt>
      <trkpt lat="44.31359" lon="5.68889">
        <ele>692</ele>
        <time>2019-06-19T09:51:31Z</time>
      </trkpt>
      <trkpt lat="44.31353" lon="5.68894">
        <ele>692</ele>
        <time>2019-06-19T09:51:32Z</time>
      </trkpt>
      <trkpt lat="44.31348" lon="5.68898">
        <ele>692</ele>
        <time>2019-06-19T09:51:33Z</time>
      </trkpt>
      <trkpt lat="44.31343" lon="5.68903">
        <ele>692</ele>
        <time>2019-06-19T09:51:34Z</time>
      </trkpt>
      <trkpt lat="44.31338" lon="5.68908">
        <ele>691</ele>
        <time>2019-06-19T09:51:35Z</time>
      </trkpt>
      <trkpt lat="44.31334" lon="5.68913">
        <ele>690</ele>
        <time>2019-06-19T09:51:36Z</time>
      </trkpt>
      <trkpt lat="44.31329" lon="5.68918">
        <ele>690</ele>
        <time>2019-06-19T09:51:37Z</time>
      </trkpt>
      <trkpt lat="44.31325" lon="5.68923">
        <ele>689</ele>
        <time>2019-06-19T09:51:38Z</time>
      </trkpt>
      <trkpt lat="44.31322" lon="5.68928">
        <ele>688</ele>
        <time>2019-06-19T09:51:39Z</time>
      </trkpt>
      <trkpt lat="44.31317" lon="5.68932">
        <ele>688</ele>
        <time>2019-06-19T09:51:40Z</time>
      </trkpt>
      <trkpt lat="44.3131" lon="5.68937">
        <ele>688</ele>
        <time>2019-06-19T09:51:41Z</time>
      </trkpt>
      <trkpt lat="44.31306" lon="5.68944">
        <ele>688</ele>
        <time>2019-06-19T09:51:42Z</time>
      </trkpt>
      <trkpt lat="44.31303" lon="5.68951">
        <ele>688</ele>
        <time>2019-06-19T09:51:43Z</time>
      </trkpt>
      <trkpt lat="44.313" lon="5.68959">
        <ele>688</ele>
        <time>2019-06-19T09:51:44Z</time>
      </trkpt>
      <trkpt lat="44.31296" lon="5.68967">
        <ele>688</ele>
        <time>2019-06-19T09:51:45Z</time>
      </trkpt>
      <trkpt lat="44.31294" lon="5.68976">
        <ele>688</ele>
        <time>2019-06-19T09:51:46Z</time>
      </trkpt>
      <trkpt lat="44.31291" lon="5.68985">
        <ele>688</ele>
        <time>2019-06-19T09:51:47Z</time>
      </trkpt>
      <trkpt lat="44.3129" lon="5.68993">
        <ele>688</ele>
        <time>2019-06-19T09:51:48Z</time>
      </trkpt>
      <trkpt lat="44.31287" lon="5.69001">
        <ele>688</ele>
        <time>2019-06-19T09:51:49Z</time>
      </trkpt>
      <trkpt lat="44.31284" lon="5.69009">
        <ele>688</ele>
        <time>2019-06-19T09:51:50Z</time>
      </trkpt>
      <trkpt lat="44.31281" lon="5.69018">
        <ele>688</ele>
        <time>2019-06-19T09:51:51Z</time>
      </trkpt>
      <trkpt lat="44.31278" lon="5.69026">
        <ele>688</ele>
        <time>2019-06-19T09:51:52Z</time>
      </trkpt>
      <trkpt lat="44.31277" lon="5.69035">
        <ele>688</ele>
        <time>2019-06-19T09:51:53Z</time>
      </trkpt>
      <trkpt lat="44.31277" lon="5.69046">
        <ele>687</ele>
        <time>2019-06-19T09:51:54Z</time>
      </trkpt>
      <trkpt lat="44.31276" lon="5.69056">
        <ele>687</ele>
        <time>2019-06-19T09:51:55Z</time>
      </trkpt>
      <trkpt lat="44.31277" lon="5.69066">
        <ele>687</ele>
        <time>2019-06-19T09:51:56Z</time>
      </trkpt>
      <trkpt lat="44.31276" lon="5.69075">
        <ele>687</ele>
        <time>2019-06-19T09:51:57Z</time>
      </trkpt>
      <trkpt lat="44.31277" lon="5.69085">
        <ele>687</ele>
        <time>2019-06-19T09:51:58Z</time>
      </trkpt>
      <trkpt lat="44.31277" lon="5.69095">
        <ele>687</ele>
        <time>2019-06-19T09:51:59Z</time>
      </trkpt>
      <trkpt lat="44.31277" lon="5.69105">
        <ele>686</ele>
        <time>2019-06-19T09:52:00Z</time>
      </trkpt>
      <trkpt lat="44.31277" lon="5.69114">
        <ele>686</ele>
        <time>2019-06-19T09:52:01Z</time>
      </trkpt>
      <trkpt lat="44.31277" lon="5.69125">
        <ele>686</ele>
        <time>2019-06-19T09:52:02Z</time>
      </trkpt>
      <trkpt lat="44.31277" lon="5.69135">
        <ele>686</ele>
        <time>2019-06-19T09:52:03Z</time>
      </trkpt>
      <trkpt lat="44.31278" lon="5.69144">
        <ele>686</ele>
        <time>2019-06-19T09:52:04Z</time>
      </trkpt>
      <trkpt lat="44.31279" lon="5.69153">
        <ele>685</ele>
        <time>2019-06-19T09:52:05Z</time>
      </trkpt>
      <trkpt lat="44.31281" lon="5.69161">
        <ele>685</ele>
        <time>2019-06-19T09:52:06Z</time>
      </trkpt>
      <trkpt lat="44.31284" lon="5.6917">
        <ele>685</ele>
        <time>2019-06-19T09:52:07Z</time>
      </trkpt>
      <trkpt lat="44.31285" lon="5.69179">
        <ele>685</ele>
        <time>2019-06-19T09:52:08Z</time>
      </trkpt>
      <trkpt lat="44.31288" lon="5.69187">
        <ele>685</ele>
        <time>2019-06-19T09:52:09Z</time>
      </trkpt>
      <trkpt lat="44.31292" lon="5.69196">
        <ele>685</ele>
        <time>2019-06-19T09:52:10Z</time>
      </trkpt>
      <trkpt lat="44.31295" lon="5.69204">
        <ele>685</ele>
        <time>2019-06-19T09:52:11Z</time>
      </trkpt>
      <trkpt lat="44.31301" lon="5.69211">
        <ele>685</ele>
        <time>2019-06-19T09:52:12Z</time>
      </trkpt>
      <trkpt lat="44.31307" lon="5.69216">
        <ele>685</ele>
        <time>2019-06-19T09:52:13Z</time>
      </trkpt>
      <trkpt lat="44.31311" lon="5.69222">
        <ele>685</ele>
        <time>2019-06-19T09:52:14Z</time>
      </trkpt>
      <trkpt lat="44.31316" lon="5.69227">
        <ele>685</ele>
        <time>2019-06-19T09:52:15Z</time>
      </trkpt>
      <trkpt lat="44.3132" lon="5.69231">
        <ele>685</ele>
        <time>2019-06-19T09:52:16Z</time>
      </trkpt>
      <trkpt lat="44.31326" lon="5.69236">
        <ele>685</ele>
        <time>2019-06-19T09:52:17Z</time>
      </trkpt>
      <trkpt lat="44.3133" lon="5.69241">
        <ele>685</ele>
        <time>2019-06-19T09:52:18Z</time>
      </trkpt>
      <trkpt lat="44.31333" lon="5.69245">
        <ele>685</ele>
        <time>2019-06-19T09:52:19Z</time>
      </trkpt>
      <trkpt lat="44.31337" lon="5.69249">
        <ele>684</ele>
        <time>2019-06-19T09:52:20Z</time>
      </trkpt>
      <trkpt lat="44.3134" lon="5.69253">
        <ele>684</ele>
        <time>2019-06-19T09:52:21Z</time>
      </trkpt>
      <trkpt lat="44.31345" lon="5.69257">
        <ele>684</ele>
        <time>2019-06-19T09:52:22Z</time>
      </trkpt>
      <trkpt lat="44.31349" lon="5.69262">
        <ele>684</ele>
        <time>2019-06-19T09:52:23Z</time>
      </trkpt>
      <trkpt lat="44.3135" lon="5.69267">
        <ele>683</ele>
        <time>2019-06-19T09:52:24Z</time>
      </trkpt>
      <trkpt lat="44.31351" lon="5.69271">
        <ele>683</ele>
        <time>2019-06-19T09:52:25Z</time>
      </trkpt>
      <trkpt lat="44.31353" lon="5.69275">
        <ele>683</ele>
        <time>2019-06-19T09:52:26Z</time>
      </trkpt>
      <trkpt lat="44.31354" lon="5.6928">
        <ele>683</ele>
        <time>2019-06-19T09:52:27Z</time>
      </trkpt>
      <trkpt lat="44.31355" lon="5.69284">
        <ele>683</ele>
        <time>2019-06-19T09:52:28Z</time>
      </trkpt>
      <trkpt lat="44.31355" lon="5.69289">
        <ele>683</ele>
        <time>2019-06-19T09:52:29Z</time>
      </trkpt>
      <trkpt lat="44.31355" lon="5.69296">
        <ele>683</ele>
        <time>2019-06-19T09:52:30Z</time>
      </trkpt>
      <trkpt lat="44.31355" lon="5.69301">
        <ele>683</ele>
        <time>2019-06-19T09:52:31Z</time>
      </trkpt>
      <trkpt lat="44.31355" lon="5.69308">
        <ele>683</ele>
        <time>2019-06-19T09:52:32Z</time>
      </trkpt>
      <trkpt lat="44.31355" lon="5.69316">
        <ele>683</ele>
        <time>2019-06-19T09:52:33Z</time>
      </trkpt>
      <trkpt lat="44.31356" lon="5.69324">
        <ele>683</ele>
        <time>2019-06-19T09:52:34Z</time>
      </trkpt>
      <trkpt lat="44.31355" lon="5.69333">
        <ele>683</ele>
        <time>2019-06-19T09:52:35Z</time>
      </trkpt>
      <trkpt lat="44.31354" lon="5.6934">
        <ele>683</ele>
        <time>2019-06-19T09:52:36Z</time>
      </trkpt>
      <trkpt lat="44.31354" lon="5.69347">
        <ele>684</ele>
        <time>2019-06-19T09:52:37Z</time>
      </trkpt>
      <trkpt lat="44.31356" lon="5.69353">
        <ele>685</ele>
        <time>2019-06-19T09:52:38Z</time>
      </trkpt>
      <trkpt lat="44.31356" lon="5.69359">
        <ele>686</ele>
        <time>2019-06-19T09:52:39Z</time>
      </trkpt>
      <trkpt lat="44.31357" lon="5.69366">
        <ele>686</ele>
        <time>2019-06-19T09:52:40Z</time>
      </trkpt>
      <trkpt lat="44.31357" lon="5.69374">
        <ele>687</ele>
        <time>2019-06-19T09:52:41Z</time>
      </trkpt>
      <trkpt lat="44.31356" lon="5.69381">
        <ele>687</ele>
        <time>2019-06-19T09:52:42Z</time>
      </trkpt>
      <trkpt lat="44.31356" lon="5.69388">
        <ele>687</ele>
        <time>2019-06-19T09:52:43Z</time>
      </trkpt>
      <trkpt lat="44.31356" lon="5.69395">
        <ele>687</ele>
        <time>2019-06-19T09:52:44Z</time>
      </trkpt>
      <trkpt lat="44.31356" lon="5.69402">
        <ele>687</ele>
        <time>2019-06-19T09:52:45Z</time>
      </trkpt>
      <trkpt lat="44.31356" lon="5.69409">
        <ele>687</ele>
        <time>2019-06-19T09:52:46Z</time>
      </trkpt>
      <trkpt lat="44.31356" lon="5.69416">
        <ele>687</ele>
        <time>2019-06-19T09:52:47Z</time>
      </trkpt>
      <trkpt lat="44.31356" lon="5.69423">
        <ele>687</ele>
        <time>2019-06-19T09:52:48Z</time>
      </trkpt>
      <trkpt lat="44.31355" lon="5.69429">
        <ele>687</ele>
        <time>2019-06-19T09:52:49Z</time>
      </trkpt>
      <trkpt lat="44.31354" lon="5.69436">
        <ele>687</ele>
        <time>2019-06-19T09:52:50Z</time>
      </trkpt>
      <trkpt lat="44.31353" lon="5.69442">
        <ele>687</ele>
        <time>2019-06-19T09:52:51Z</time>
      </trkpt>
      <trkpt lat="44.31353" lon="5.69449">
        <ele>688</ele>
        <time>2019-06-19T09:52:52Z</time>
      </trkpt>
      <trkpt lat="44.31352" lon="5.69456">
        <ele>688</ele>
        <time>2019-06-19T09:52:53Z</time>
      </trkpt>
      <trkpt lat="44.3135" lon="5.69463">
        <ele>688</ele>
        <time>2019-06-19T09:52:54Z</time>
      </trkpt>
      <trkpt lat="44.31349" lon="5.69469">
        <ele>688</ele>
        <time>2019-06-19T09:52:55Z</time>
      </trkpt>
      <trkpt lat="44.31347" lon="5.69476">
        <ele>689</ele>
        <time>2019-06-19T09:52:56Z</time>
      </trkpt>
      <trkpt lat="44.31345" lon="5.69482">
        <ele>689</ele>
        <time>2019-06-19T09:52:57Z</time>
      </trkpt>
      <trkpt lat="44.31343" lon="5.69488">
        <ele>689</ele>
        <time>2019-06-19T09:52:58Z</time>
      </trkpt>
      <trkpt lat="44.31342" lon="5.69493">
        <ele>689</ele>
        <time>2019-06-19T09:52:59Z</time>
      </trkpt>
      <trkpt lat="44.31341" lon="5.69499">
        <ele>689</ele>
        <time>2019-06-19T09:53:00Z</time>
      </trkpt>
      <trkpt lat="44.3134" lon="5.69506">
        <ele>689</ele>
        <time>2019-06-19T09:53:01Z</time>
      </trkpt>
      <trkpt lat="44.31338" lon="5.69511">
        <ele>689</ele>
        <time>2019-06-19T09:53:02Z</time>
      </trkpt>
      <trkpt lat="44.31338" lon="5.69518">
        <ele>689</ele>
        <time>2019-06-19T09:53:03Z</time>
      </trkpt>
      <trkpt lat="44.31337" lon="5.69524">
        <ele>689</ele>
        <time>2019-06-19T09:53:04Z</time>
      </trkpt>
      <trkpt lat="44.31335" lon="5.69529">
        <ele>689</ele>
        <time>2019-06-19T09:53:05Z</time>
      </trkpt>
      <trkpt lat="44.31333" lon="5.69535">
        <ele>689</ele>
        <time>2019-06-19T09:53:06Z</time>
      </trkpt>
      <trkpt lat="44.31332" lon="5.69541">
        <ele>689</ele>
        <time>2019-06-19T09:53:07Z</time>
      </trkpt>
      <trkpt lat="44.31331" lon="5.69547">
        <ele>689</ele>
        <time>2019-06-19T09:53:08Z</time>
      </trkpt>
      <trkpt lat="44.3133" lon="5.69553">
        <ele>689</ele>
        <time>2019-06-19T09:53:09Z</time>
      </trkpt>
      <trkpt lat="44.31329" lon="5.69559">
        <ele>689</ele>
        <time>2019-06-19T09:53:10Z</time>
      </trkpt>
      <trkpt lat="44.31329" lon="5.69565">
        <ele>689</ele>
        <time>2019-06-19T09:53:11Z</time>
      </trkpt>
      <trkpt lat="44.3133" lon="5.69571">
        <ele>689</ele>
        <time>2019-06-19T09:53:12Z</time>
      </trkpt>
      <trkpt lat="44.31329" lon="5.69578">
        <ele>689</ele>
        <time>2019-06-19T09:53:13Z</time>
      </trkpt>
      <trkpt lat="44.31329" lon="5.69584">
        <ele>689</ele>
        <time>2019-06-19T09:53:14Z</time>
      </trkpt>
      <trkpt lat="44.31329" lon="5.69591">
        <ele>689</ele>
        <time>2019-06-19T09:53:15Z</time>
      </trkpt>
      <trkpt lat="44.31329" lon="5.69597">
        <ele>689</ele>
        <time>2019-06-19T09:53:16Z</time>
      </trkpt>
      <trkpt lat="44.31329" lon="5.69604">
        <ele>689</ele>
        <time>2019-06-19T09:53:17Z</time>
      </trkpt>
      <trkpt lat="44.31328" lon="5.69611">
        <ele>689</ele>
        <time>2019-06-19T09:53:18Z</time>
      </trkpt>
      <trkpt lat="44.31328" lon="5.69618">
        <ele>689</ele>
        <time>2019-06-19T09:53:19Z</time>
      </trkpt>
      <trkpt lat="44.31327" lon="5.69625">
        <ele>689</ele>
        <time>2019-06-19T09:53:20Z</time>
      </trkpt>
      <trkpt lat="44.31326" lon="5.69633">
        <ele>689</ele>
        <time>2019-06-19T09:53:21Z</time>
      </trkpt>
      <trkpt lat="44.31326" lon="5.6964">
        <ele>689</ele>
        <time>2019-06-19T09:53:22Z</time>
      </trkpt>
      <trkpt lat="44.31326" lon="5.69648">
        <ele>689</ele>
        <time>2019-06-19T09:53:23Z</time>
      </trkpt>
      <trkpt lat="44.31325" lon="5.69656">
        <ele>689</ele>
        <time>2019-06-19T09:53:24Z</time>
      </trkpt>
      <trkpt lat="44.31325" lon="5.69664">
        <ele>689</ele>
        <time>2019-06-19T09:53:25Z</time>
      </trkpt>
      <trkpt lat="44.31324" lon="5.69672">
        <ele>689</ele>
        <time>2019-06-19T09:53:26Z</time>
      </trkpt>
      <trkpt lat="44.31324" lon="5.69681">
        <ele>689</ele>
        <time>2019-06-19T09:53:27Z</time>
      </trkpt>
      <trkpt lat="44.31324" lon="5.69689">
        <ele>689</ele>
        <time>2019-06-19T09:53:28Z</time>
      </trkpt>
      <trkpt lat="44.31323" lon="5.69697">
        <ele>689</ele>
        <time>2019-06-19T09:53:29Z</time>
      </trkpt>
      <trkpt lat="44.31323" lon="5.69705">
        <ele>689</ele>
        <time>2019-06-19T09:53:30Z</time>
      </trkpt>
      <trkpt lat="44.31322" lon="5.69713">
        <ele>689</ele>
        <time>2019-06-19T09:53:31Z</time>
      </trkpt>
      <trkpt lat="44.31322" lon="5.69722">
        <ele>689</ele>
        <time>2019-06-19T09:53:32Z</time>
      </trkpt>
      <trkpt lat="44.31321" lon="5.6973">
        <ele>689</ele>
        <time>2019-06-19T09:53:33Z</time>
      </trkpt>
      <trkpt lat="44.31321" lon="5.69738">
        <ele>689</ele>
        <time>2019-06-19T09:53:34Z</time>
      </trkpt>
      <trkpt lat="44.31321" lon="5.69746">
        <ele>689</ele>
        <time>2019-06-19T09:53:35Z</time>
      </trkpt>
      <trkpt lat="44.3132" lon="5.69754">
        <ele>689</ele>
        <time>2019-06-19T09:53:36Z</time>
      </trkpt>
      <trkpt lat="44.3132" lon="5.69762">
        <ele>689</ele>
        <time>2019-06-19T09:53:37Z</time>
      </trkpt>
      <trkpt lat="44.3132" lon="5.6977">
        <ele>689</ele>
        <time>2019-06-19T09:53:38Z</time>
      </trkpt>
      <trkpt lat="44.31319" lon="5.69778">
        <ele>689</ele>
        <time>2019-06-19T09:53:39Z</time>
      </trkpt>
      <trkpt lat="44.31319" lon="5.69786">
        <ele>689</ele>
        <time>2019-06-19T09:53:40Z</time>
      </trkpt>
      <trkpt lat="44.3132" lon="5.69795">
        <ele>689</ele>
        <time>2019-06-19T09:53:41Z</time>
      </trkpt>
      <trkpt lat="44.3132" lon="5.69803">
        <ele>689</ele>
        <time>2019-06-19T09:53:42Z</time>
      </trkpt>
      <trkpt lat="44.31321" lon="5.69811">
        <ele>689</ele>
        <time>2019-06-19T09:53:43Z</time>
      </trkpt>
      <trkpt lat="44.31322" lon="5.69819">
        <ele>689</ele>
        <time>2019-06-19T09:53:44Z</time>
      </trkpt>
      <trkpt lat="44.31323" lon="5.69827">
        <ele>689</ele>
        <time>2019-06-19T09:53:45Z</time>
      </trkpt>
      <trkpt lat="44.31325" lon="5.69835">
        <ele>689</ele>
        <time>2019-06-19T09:53:46Z</time>
      </trkpt>
      <trkpt lat="44.31326" lon="5.69844">
        <ele>689</ele>
        <time>2019-06-19T09:53:47Z</time>
      </trkpt>
      <trkpt lat="44.31327" lon="5.69852">
        <ele>689</ele>
        <time>2019-06-19T09:53:48Z</time>
      </trkpt>
      <trkpt lat="44.31329" lon="5.69861">
        <ele>689</ele>
        <time>2019-06-19T09:53:49Z</time>
      </trkpt>
      <trkpt lat="44.31331" lon="5.69869">
        <ele>689</ele>
        <time>2019-06-19T09:53:50Z</time>
      </trkpt>
      <trkpt lat="44.31333" lon="5.69877">
        <ele>689</ele>
        <time>2019-06-19T09:53:51Z</time>
      </trkpt>
      <trkpt lat="44.31335" lon="5.69885">
        <ele>689</ele>
        <time>2019-06-19T09:53:52Z</time>
      </trkpt>
      <trkpt lat="44.31337" lon="5.69893">
        <ele>689</ele>
        <time>2019-06-19T09:53:53Z</time>
      </trkpt>
      <trkpt lat="44.31339" lon="5.69901">
        <ele>689</ele>
        <time>2019-06-19T09:53:54Z</time>
      </trkpt>
      <trkpt lat="44.3134" lon="5.6991">
        <ele>689</ele>
        <time>2019-06-19T09:53:55Z</time>
      </trkpt>
      <trkpt lat="44.31343" lon="5.69917">
        <ele>689</ele>
        <time>2019-06-19T09:53:56Z</time>
      </trkpt>
      <trkpt lat="44.31345" lon="5.69926">
        <ele>689</ele>
        <time>2019-06-19T09:53:57Z</time>
      </trkpt>
      <trkpt lat="44.31346" lon="5.69934">
        <ele>689</ele>
        <time>2019-06-19T09:53:58Z</time>
      </trkpt>
      <trkpt lat="44.31348" lon="5.69942">
        <ele>689</ele>
        <time>2019-06-19T09:53:59Z</time>
      </trkpt>
      <trkpt lat="44.3135" lon="5.6995">
        <ele>689</ele>
        <time>2019-06-19T09:54:00Z</time>
      </trkpt>
      <trkpt lat="44.31351" lon="5.69958">
        <ele>689</ele>
        <time>2019-06-19T09:54:01Z</time>
      </trkpt>
      <trkpt lat="44.31353" lon="5.69965">
        <ele>689</ele>
        <time>2019-06-19T09:54:02Z</time>
      </trkpt>
      <trkpt lat="44.31355" lon="5.69973">
        <ele>689</ele>
        <time>2019-06-19T09:54:03Z</time>
      </trkpt>
      <trkpt lat="44.31356" lon="5.6998">
        <ele>689</ele>
        <time>2019-06-19T09:54:04Z</time>
      </trkpt>
      <trkpt lat="44.31357" lon="5.69987">
        <ele>689</ele>
        <time>2019-06-19T09:54:05Z</time>
      </trkpt>
      <trkpt lat="44.31358" lon="5.69994">
        <ele>689</ele>
        <time>2019-06-19T09:54:06Z</time>
      </trkpt>
      <trkpt lat="44.31359" lon="5.70002">
        <ele>689</ele>
        <time>2019-06-19T09:54:07Z</time>
      </trkpt>
      <trkpt lat="44.3136" lon="5.70009">
        <ele>689</ele>
        <time>2019-06-19T09:54:08Z</time>
      </trkpt>
      <trkpt lat="44.31361" lon="5.70016">
        <ele>689</ele>
        <time>2019-06-19T09:54:09Z</time>
      </trkpt>
      <trkpt lat="44.31363" lon="5.70024">
        <ele>689</ele>
        <time>2019-06-19T09:54:10Z</time>
      </trkpt>
      <trkpt lat="44.31364" lon="5.70031">
        <ele>689</ele>
        <time>2019-06-19T09:54:11Z</time>
      </trkpt>
      <trkpt lat="44.31366" lon="5.70039">
        <ele>689</ele>
        <time>2019-06-19T09:54:12Z</time>
      </trkpt>
      <trkpt lat="44.31367" lon="5.70046">
        <ele>689</ele>
        <time>2019-06-19T09:54:13Z</time>
      </trkpt>
      <trkpt lat="44.31368" lon="5.70053">
        <ele>689</ele>
        <time>2019-06-19T09:54:14Z</time>
      </trkpt>
      <trkpt lat="44.3137" lon="5.70061">
        <ele>689</ele>
        <time>2019-06-19T09:54:15Z</time>
      </trkpt>
      <trkpt lat="44.31372" lon="5.70068">
        <ele>689</ele>
        <time>2019-06-19T09:54:16Z</time>
      </trkpt>
      <trkpt lat="44.31374" lon="5.70076">
        <ele>689</ele>
        <time>2019-06-19T09:54:17Z</time>
      </trkpt>
      <trkpt lat="44.31377" lon="5.70083">
        <ele>689</ele>
        <time>2019-06-19T09:54:18Z</time>
      </trkpt>
      <trkpt lat="44.31379" lon="5.70091">
        <ele>689</ele>
        <time>2019-06-19T09:54:19Z</time>
      </trkpt>
      <trkpt lat="44.31382" lon="5.70098">
        <ele>689</ele>
        <time>2019-06-19T09:54:20Z</time>
      </trkpt>
      <trkpt lat="44.31385" lon="5.70105">
        <ele>689</ele>
        <time>2019-06-19T09:54:21Z</time>
      </trkpt>
      <trkpt lat="44.31388" lon="5.70113">
        <ele>689</ele>
        <time>2019-06-19T09:54:22Z</time>
      </trkpt>
      <trkpt lat="44.31391" lon="5.7012">
        <ele>689</ele>
        <time>2019-06-19T09:54:23Z</time>
      </trkpt>
      <trkpt lat="44.31394" lon="5.70128">
        <ele>689</ele>
        <time>2019-06-19T09:54:24Z</time>
      </trkpt>
      <trkpt lat="44.31397" lon="5.70136">
        <ele>689</ele>
        <time>2019-06-19T09:54:25Z</time>
      </trkpt>
      <trkpt lat="44.31401" lon="5.70144">
        <ele>689</ele>
        <time>2019-06-19T09:54:26Z</time>
      </trkpt>
      <trkpt lat="44.31403" lon="5.70153">
        <ele>688</ele>
        <time>2019-06-19T09:54:27Z</time>
      </trkpt>
      <trkpt lat="44.31406" lon="5.70162">
        <ele>688</ele>
        <time>2019-06-19T09:54:28Z</time>
      </trkpt>
      <trkpt lat="44.31409" lon="5.70171">
        <ele>688</ele>
        <time>2019-06-19T09:54:29Z</time>
      </trkpt>
      <trkpt lat="44.31411" lon="5.7018">
        <ele>687</ele>
        <time>2019-06-19T09:54:30Z</time>
      </trkpt>
      <trkpt lat="44.31414" lon="5.70189">
        <ele>687</ele>
        <time>2019-06-19T09:54:31Z</time>
      </trkpt>
      <trkpt lat="44.31415" lon="5.70199">
        <ele>687</ele>
        <time>2019-06-19T09:54:32Z</time>
      </trkpt>
      <trkpt lat="44.31417" lon="5.70209">
        <ele>686</ele>
        <time>2019-06-19T09:54:33Z</time>
      </trkpt>
      <trkpt lat="44.31418" lon="5.70219">
        <ele>686</ele>
        <time>2019-06-19T09:54:34Z</time>
      </trkpt>
      <trkpt lat="44.31419" lon="5.70229">
        <ele>686</ele>
        <time>2019-06-19T09:54:35Z</time>
      </trkpt>
      <trkpt lat="44.31421" lon="5.70239">
        <ele>685</ele>
        <time>2019-06-19T09:54:36Z</time>
      </trkpt>
      <trkpt lat="44.31422" lon="5.70249">
        <ele>685</ele>
        <time>2019-06-19T09:54:37Z</time>
      </trkpt>
      <trkpt lat="44.31422" lon="5.7026">
        <ele>685</ele>
        <time>2019-06-19T09:54:38Z</time>
      </trkpt>
      <trkpt lat="44.31423" lon="5.70271">
        <ele>685</ele>
        <time>2019-06-19T09:54:39Z</time>
      </trkpt>
      <trkpt lat="44.31424" lon="5.70282">
        <ele>684</ele>
        <time>2019-06-19T09:54:40Z</time>
      </trkpt>
      <trkpt lat="44.31424" lon="5.70293">
        <ele>684</ele>
        <time>2019-06-19T09:54:41Z</time>
      </trkpt>
      <trkpt lat="44.31425" lon="5.70304">
        <ele>684</ele>
        <time>2019-06-19T09:54:42Z</time>
      </trkpt>
      <trkpt lat="44.31425" lon="5.70316">
        <ele>684</ele>
        <time>2019-06-19T09:54:43Z</time>
      </trkpt>
      <trkpt lat="44.31427" lon="5.70327">
        <ele>684</ele>
        <time>2019-06-19T09:54:44Z</time>
      </trkpt>
      <trkpt lat="44.31429" lon="5.70338">
        <ele>684</ele>
        <time>2019-06-19T09:54:45Z</time>
      </trkpt>
      <trkpt lat="44.31432" lon="5.70349">
        <ele>684</ele>
        <time>2019-06-19T09:54:46Z</time>
      </trkpt>
      <trkpt lat="44.31436" lon="5.7036">
        <ele>684</ele>
        <time>2019-06-19T09:54:47Z</time>
      </trkpt>
      <trkpt lat="44.31439" lon="5.7037">
        <ele>684</ele>
        <time>2019-06-19T09:54:48Z</time>
      </trkpt>
      <trkpt lat="44.31443" lon="5.7038">
        <ele>684</ele>
        <time>2019-06-19T09:54:49Z</time>
      </trkpt>
      <trkpt lat="44.31448" lon="5.7039">
        <ele>683</ele>
        <time>2019-06-19T09:54:50Z</time>
      </trkpt>
      <trkpt lat="44.31453" lon="5.70398">
        <ele>683</ele>
        <time>2019-06-19T09:54:51Z</time>
      </trkpt>
      <trkpt lat="44.31458" lon="5.70407">
        <ele>683</ele>
        <time>2019-06-19T09:54:52Z</time>
      </trkpt>
      <trkpt lat="44.31462" lon="5.70416">
        <ele>683</ele>
        <time>2019-06-19T09:54:53Z</time>
      </trkpt>
      <trkpt lat="44.31467" lon="5.70425">
        <ele>682</ele>
        <time>2019-06-19T09:54:54Z</time>
      </trkpt>
      <trkpt lat="44.3147" lon="5.70434">
        <ele>682</ele>
        <time>2019-06-19T09:54:55Z</time>
      </trkpt>
      <trkpt lat="44.31474" lon="5.70443">
        <ele>681</ele>
        <time>2019-06-19T09:54:56Z</time>
      </trkpt>
      <trkpt lat="44.31477" lon="5.70452">
        <ele>681</ele>
        <time>2019-06-19T09:54:57Z</time>
      </trkpt>
      <trkpt lat="44.31479" lon="5.70462">
        <ele>680</ele>
        <time>2019-06-19T09:54:58Z</time>
      </trkpt>
      <trkpt lat="44.31482" lon="5.70472">
        <ele>680</ele>
        <time>2019-06-19T09:54:59Z</time>
      </trkpt>
      <trkpt lat="44.31483" lon="5.70483">
        <ele>680</ele>
        <time>2019-06-19T09:55:00Z</time>
      </trkpt>
      <trkpt lat="44.31484" lon="5.70493">
        <ele>679</ele>
        <time>2019-06-19T09:55:01Z</time>
      </trkpt>
      <trkpt lat="44.31486" lon="5.70504">
        <ele>679</ele>
        <time>2019-06-19T09:55:02Z</time>
      </trkpt>
      <trkpt lat="44.31488" lon="5.70514">
        <ele>679</ele>
        <time>2019-06-19T09:55:03Z</time>
      </trkpt>
      <trkpt lat="44.3149" lon="5.70525">
        <ele>679</ele>
        <time>2019-06-19T09:55:04Z</time>
      </trkpt>
      <trkpt lat="44.31493" lon="5.70535">
        <ele>679</ele>
        <time>2019-06-19T09:55:05Z</time>
      </trkpt>
      <trkpt lat="44.31495" lon="5.70545">
        <ele>679</ele>
        <time>2019-06-19T09:55:06Z</time>
      </trkpt>
      <trkpt lat="44.31498" lon="5.70555">
        <ele>679</ele>
        <time>2019-06-19T09:55:07Z</time>
      </trkpt>
      <trkpt lat="44.31502" lon="5.70565">
        <ele>679</ele>
        <time>2019-06-19T09:55:08Z</time>
      </trkpt>
      <trkpt lat="44.31506" lon="5.70575">
        <ele>678</ele>
        <time>2019-06-19T09:55:09Z</time>
      </trkpt>
      <trkpt lat="44.31511" lon="5.70584">
        <ele>678</ele>
        <time>2019-06-19T09:55:10Z</time>
      </trkpt>
      <trkpt lat="44.31516" lon="5.70593">
        <ele>678</ele>
        <time>2019-06-19T09:55:11Z</time>
      </trkpt>
      <trkpt lat="44.31521" lon="5.70602">
        <ele>678</ele>
        <time>2019-06-19T09:55:12Z</time>
      </trkpt>
      <trkpt lat="44.31527" lon="5.70612">
        <ele>677</ele>
        <time>2019-06-19T09:55:13Z</time>
      </trkpt>
      <trkpt lat="44.31532" lon="5.70621">
        <ele>677</ele>
        <time>2019-06-19T09:55:14Z</time>
      </trkpt>
      <trkpt lat="44.31537" lon="5.70631">
        <ele>677</ele>
        <time>2019-06-19T09:55:15Z</time>
      </trkpt>
      <trkpt lat="44.31542" lon="5.70641">
        <ele>676</ele>
        <time>2019-06-19T09:55:16Z</time>
      </trkpt>
      <trkpt lat="44.31546" lon="5.70652">
        <ele>676</ele>
        <time>2019-06-19T09:55:17Z</time>
      </trkpt>
      <trkpt lat="44.3155" lon="5.70664">
        <ele>676</ele>
        <time>2019-06-19T09:55:18Z</time>
      </trkpt>
      <trkpt lat="44.31553" lon="5.70677">
        <ele>675</ele>
        <time>2019-06-19T09:55:19Z</time>
      </trkpt>
      <trkpt lat="44.31555" lon="5.7069">
        <ele>675</ele>
        <time>2019-06-19T09:55:20Z</time>
      </trkpt>
      <trkpt lat="44.31556" lon="5.70703">
        <ele>674</ele>
        <time>2019-06-19T09:55:21Z</time>
      </trkpt>
      <trkpt lat="44.31557" lon="5.70716">
        <ele>674</ele>
        <time>2019-06-19T09:55:22Z</time>
      </trkpt>
      <trkpt lat="44.31558" lon="5.7073">
        <ele>674</ele>
        <time>2019-06-19T09:55:23Z</time>
      </trkpt>
      <trkpt lat="44.31559" lon="5.70745">
        <ele>673</ele>
        <time>2019-06-19T09:55:24Z</time>
      </trkpt>
      <trkpt lat="44.3156" lon="5.70759">
        <ele>673</ele>
        <time>2019-06-19T09:55:25Z</time>
      </trkpt>
      <trkpt lat="44.3156" lon="5.70774">
        <ele>672</ele>
        <time>2019-06-19T09:55:26Z</time>
      </trkpt>
      <trkpt lat="44.3156" lon="5.70788">
        <ele>672</ele>
        <time>2019-06-19T09:55:27Z</time>
      </trkpt>
      <trkpt lat="44.31559" lon="5.70803">
        <ele>671</ele>
        <time>2019-06-19T09:55:28Z</time>
      </trkpt>
      <trkpt lat="44.31557" lon="5.70817">
        <ele>671</ele>
        <time>2019-06-19T09:55:29Z</time>
      </trkpt>
      <trkpt lat="44.31556" lon="5.70832">
        <ele>671</ele>
        <time>2019-06-19T09:55:30Z</time>
      </trkpt>
      <trkpt lat="44.31554" lon="5.70846">
        <ele>670</ele>
        <time>2019-06-19T09:55:31Z</time>
      </trkpt>
      <trkpt lat="44.31552" lon="5.7086">
        <ele>670</ele>
        <time>2019-06-19T09:55:32Z</time>
      </trkpt>
      <trkpt lat="44.3155" lon="5.70873">
        <ele>670</ele>
        <time>2019-06-19T09:55:33Z</time>
      </trkpt>
      <trkpt lat="44.31548" lon="5.70886">
        <ele>669</ele>
        <time>2019-06-19T09:55:34Z</time>
      </trkpt>
      <trkpt lat="44.31545" lon="5.70899">
        <ele>669</ele>
        <time>2019-06-19T09:55:35Z</time>
      </trkpt>
      <trkpt lat="44.31543" lon="5.70912">
        <ele>669</ele>
        <time>2019-06-19T09:55:36Z</time>
      </trkpt>
      <trkpt lat="44.3154" lon="5.70924">
        <ele>669</ele>
        <time>2019-06-19T09:55:37Z</time>
      </trkpt>
      <trkpt lat="44.31538" lon="5.70936">
        <ele>669</ele>
        <time>2019-06-19T09:55:38Z</time>
      </trkpt>
      <trkpt lat="44.31536" lon="5.70949">
        <ele>669</ele>
        <time>2019-06-19T09:55:39Z</time>
      </trkpt>
      <trkpt lat="44.31534" lon="5.70961">
        <ele>669</ele>
        <time>2019-06-19T09:55:40Z</time>
      </trkpt>
      <trkpt lat="44.31532" lon="5.70972">
        <ele>669</ele>
        <time>2019-06-19T09:55:41Z</time>
      </trkpt>
      <trkpt lat="44.3153" lon="5.70984">
        <ele>669</ele>
        <time>2019-06-19T09:55:42Z</time>
      </trkpt>
      <trkpt lat="44.31529" lon="5.70996">
        <ele>669</ele>
        <time>2019-06-19T09:55:43Z</time>
      </trkpt>
      <trkpt lat="44.31529" lon="5.71007">
        <ele>669</ele>
        <time>2019-06-19T09:55:44Z</time>
      </trkpt>
      <trkpt lat="44.31528" lon="5.71019">
        <ele>668</ele>
        <time>2019-06-19T09:55:45Z</time>
      </trkpt>
      <trkpt lat="44.31529" lon="5.7103">
        <ele>668</ele>
        <time>2019-06-19T09:55:46Z</time>
      </trkpt>
      <trkpt lat="44.3153" lon="5.71042">
        <ele>668</ele>
        <time>2019-06-19T09:55:47Z</time>
      </trkpt>
      <trkpt lat="44.31532" lon="5.71053">
        <ele>668</ele>
        <time>2019-06-19T09:55:48Z</time>
      </trkpt>
      <trkpt lat="44.31534" lon="5.71064">
        <ele>668</ele>
        <time>2019-06-19T09:55:49Z</time>
      </trkpt>
      <trkpt lat="44.31536" lon="5.71075">
        <ele>667</ele>
        <time>2019-06-19T09:55:50Z</time>
      </trkpt>
      <trkpt lat="44.31539" lon="5.71086">
        <ele>667</ele>
        <time>2019-06-19T09:55:51Z</time>
      </trkpt>
      <trkpt lat="44.31542" lon="5.71097">
        <ele>667</ele>
        <time>2019-06-19T09:55:52Z</time>
      </trkpt>
      <trkpt lat="44.31545" lon="5.71107">
        <ele>667</ele>
        <time>2019-06-19T09:55:53Z</time>
      </trkpt>
      <trkpt lat="44.31548" lon="5.71118">
        <ele>666</ele>
        <time>2019-06-19T09:55:54Z</time>
      </trkpt>
      <trkpt lat="44.31551" lon="5.7113">
        <ele>666</ele>
        <time>2019-06-19T09:55:55Z</time>
      </trkpt>
      <trkpt lat="44.31555" lon="5.71141">
        <ele>665</ele>
        <time>2019-06-19T09:55:56Z</time>
      </trkpt>
      <trkpt lat="44.31557" lon="5.71153">
        <ele>665</ele>
        <time>2019-06-19T09:55:57Z</time>
      </trkpt>
      <trkpt lat="44.3156" lon="5.71165">
        <ele>664</ele>
        <time>2019-06-19T09:55:58Z</time>
      </trkpt>
      <trkpt lat="44.31562" lon="5.71176">
        <ele>664</ele>
        <time>2019-06-19T09:55:59Z</time>
      </trkpt>
      <trkpt lat="44.31565" lon="5.71188">
        <ele>663</ele>
        <time>2019-06-19T09:56:00Z</time>
      </trkpt>
      <trkpt lat="44.31567" lon="5.712">
        <ele>663</ele>
        <time>2019-06-19T09:56:01Z</time>
      </trkpt>
      <trkpt lat="44.31569" lon="5.71211">
        <ele>663</ele>
        <time>2019-06-19T09:56:02Z</time>
      </trkpt>
      <trkpt lat="44.31571" lon="5.71222">
        <ele>663</ele>
        <time>2019-06-19T09:56:03Z</time>
      </trkpt>
      <trkpt lat="44.31573" lon="5.71233">
        <ele>663</ele>
        <time>2019-06-19T09:56:04Z</time>
      </trkpt>
      <trkpt lat="44.31576" lon="5.71243">
        <ele>663</ele>
        <time>2019-06-19T09:56:05Z</time>
      </trkpt>
      <trkpt lat="44.31578" lon="5.71254">
        <ele>662</ele>
        <time>2019-06-19T09:56:06Z</time>
      </trkpt>
      <trkpt lat="44.31581" lon="5.71265">
        <ele>662</ele>
        <time>2019-06-19T09:56:07Z</time>
      </trkpt>
      <trkpt lat="44.31583" lon="5.71276">
        <ele>662</ele>
        <time>2019-06-19T09:56:08Z</time>
      </trkpt>
      <trkpt lat="44.31585" lon="5.71287">
        <ele>662</ele>
        <time>2019-06-19T09:56:09Z</time>
      </trkpt>
      <trkpt lat="44.31586" lon="5.71299">
        <ele>662</ele>
        <time>2019-06-19T09:56:10Z</time>
      </trkpt>
      <trkpt lat="44.31588" lon="5.7131">
        <ele>662</ele>
        <time>2019-06-19T09:56:11Z</time>
      </trkpt>
      <trkpt lat="44.31591" lon="5.71322">
        <ele>661</ele>
        <time>2019-06-19T09:56:12Z</time>
      </trkpt>
      <trkpt lat="44.31593" lon="5.71334">
        <ele>661</ele>
        <time>2019-06-19T09:56:13Z</time>
      </trkpt>
      <trkpt lat="44.31596" lon="5.71346">
        <ele>661</ele>
        <time>2019-06-19T09:56:14Z</time>
      </trkpt>
      <trkpt lat="44.31598" lon="5.71358">
        <ele>661</ele>
        <time>2019-06-19T09:56:15Z</time>
      </trkpt>
      <trkpt lat="44.31601" lon="5.7137">
        <ele>660</ele>
        <time>2019-06-19T09:56:16Z</time>
      </trkpt>
      <trkpt lat="44.31604" lon="5.71382">
        <ele>660</ele>
        <time>2019-06-19T09:56:17Z</time>
      </trkpt>
      <trkpt lat="44.31607" lon="5.71394">
        <ele>660</ele>
        <time>2019-06-19T09:56:18Z</time>
      </trkpt>
      <trkpt lat="44.3161" lon="5.71405">
        <ele>659</ele>
        <time>2019-06-19T09:56:19Z</time>
      </trkpt>
      <trkpt lat="44.31613" lon="5.71417">
        <ele>659</ele>
        <time>2019-06-19T09:56:20Z</time>
      </trkpt>
      <trkpt lat="44.31617" lon="5.71428">
        <ele>659</ele>
        <time>2019-06-19T09:56:21Z</time>
      </trkpt>
      <trkpt lat="44.3162" lon="5.71439">
        <ele>659</ele>
        <time>2019-06-19T09:56:22Z</time>
      </trkpt>
      <trkpt lat="44.31624" lon="5.7145">
        <ele>658</ele>
        <time>2019-06-19T09:56:23Z</time>
      </trkpt>
      <trkpt lat="44.31628" lon="5.7146">
        <ele>658</ele>
        <time>2019-06-19T09:56:24Z</time>
      </trkpt>
      <trkpt lat="44.31631" lon="5.71471">
        <ele>658</ele>
        <time>2019-06-19T09:56:25Z</time>
      </trkpt>
      <trkpt lat="44.31635" lon="5.71482">
        <ele>658</ele>
        <time>2019-06-19T09:56:26Z</time>
      </trkpt>
      <trkpt lat="44.31639" lon="5.71492">
        <ele>657</ele>
        <time>2019-06-19T09:56:27Z</time>
      </trkpt>
      <trkpt lat="44.31643" lon="5.71502">
        <ele>657</ele>
        <time>2019-06-19T09:56:28Z</time>
      </trkpt>
      <trkpt lat="44.31647" lon="5.71512">
        <ele>657</ele>
        <time>2019-06-19T09:56:29Z</time>
      </trkpt>
      <trkpt lat="44.31651" lon="5.71522">
        <ele>657</ele>
        <time>2019-06-19T09:56:30Z</time>
      </trkpt>
      <trkpt lat="44.31654" lon="5.71531">
        <ele>657</ele>
        <time>2019-06-19T09:56:31Z</time>
      </trkpt>
      <trkpt lat="44.31658" lon="5.7154">
        <ele>657</ele>
        <time>2019-06-19T09:56:32Z</time>
      </trkpt>
      <trkpt lat="44.31662" lon="5.7155">
        <ele>656</ele>
        <time>2019-06-19T09:56:33Z</time>
      </trkpt>
      <trkpt lat="44.31665" lon="5.71559">
        <ele>656</ele>
        <time>2019-06-19T09:56:34Z</time>
      </trkpt>
      <trkpt lat="44.31669" lon="5.71567">
        <ele>656</ele>
        <time>2019-06-19T09:56:35Z</time>
      </trkpt>
      <trkpt lat="44.31672" lon="5.71576">
        <ele>656</ele>
        <time>2019-06-19T09:56:36Z</time>
      </trkpt>
      <trkpt lat="44.31676" lon="5.71586">
        <ele>656</ele>
        <time>2019-06-19T09:56:37Z</time>
      </trkpt>
      <trkpt lat="44.31679" lon="5.71594">
        <ele>656</ele>
        <time>2019-06-19T09:56:38Z</time>
      </trkpt>
      <trkpt lat="44.31683" lon="5.71602">
        <ele>656</ele>
        <time>2019-06-19T09:56:39Z</time>
      </trkpt>
      <trkpt lat="44.31686" lon="5.71611">
        <ele>656</ele>
        <time>2019-06-19T09:56:40Z</time>
      </trkpt>
      <trkpt lat="44.3169" lon="5.71619">
        <ele>656</ele>
        <time>2019-06-19T09:56:41Z</time>
      </trkpt>
      <trkpt lat="44.31694" lon="5.71627">
        <ele>656</ele>
        <time>2019-06-19T09:56:42Z</time>
      </trkpt>
      <trkpt lat="44.31698" lon="5.71634">
        <ele>656</ele>
        <time>2019-06-19T09:56:43Z</time>
      </trkpt>
      <trkpt lat="44.31702" lon="5.71641">
        <ele>656</ele>
        <time>2019-06-19T09:56:44Z</time>
      </trkpt>
      <trkpt lat="44.31707" lon="5.71648">
        <ele>656</ele>
        <time>2019-06-19T09:56:45Z</time>
      </trkpt>
      <trkpt lat="44.31712" lon="5.71655">
        <ele>656</ele>
        <time>2019-06-19T09:56:46Z</time>
      </trkpt>
      <trkpt lat="44.31717" lon="5.71662">
        <ele>656</ele>
        <time>2019-06-19T09:56:47Z</time>
      </trkpt>
      <trkpt lat="44.31722" lon="5.71669">
        <ele>656</ele>
        <time>2019-06-19T09:56:48Z</time>
      </trkpt>
      <trkpt lat="44.31726" lon="5.71676">
        <ele>656</ele>
        <time>2019-06-19T09:56:49Z</time>
      </trkpt>
      <trkpt lat="44.31731" lon="5.71683">
        <ele>656</ele>
        <time>2019-06-19T09:56:50Z</time>
      </trkpt>
      <trkpt lat="44.31735" lon="5.71691">
        <ele>656</ele>
        <time>2019-06-19T09:56:51Z</time>
      </trkpt>
      <trkpt lat="44.31738" lon="5.71699">
        <ele>656</ele>
        <time>2019-06-19T09:56:52Z</time>
      </trkpt>
      <trkpt lat="44.31741" lon="5.71707">
        <ele>656</ele>
        <time>2019-06-19T09:56:53Z</time>
      </trkpt>
      <trkpt lat="44.31743" lon="5.71716">
        <ele>656</ele>
        <time>2019-06-19T09:56:54Z</time>
      </trkpt>
      <trkpt lat="44.31746" lon="5.71724">
        <ele>656</ele>
        <time>2019-06-19T09:56:55Z</time>
      </trkpt>
      <trkpt lat="44.31747" lon="5.71733">
        <ele>656</ele>
        <time>2019-06-19T09:56:56Z</time>
      </trkpt>
      <trkpt lat="44.31748" lon="5.71742">
        <ele>656</ele>
        <time>2019-06-19T09:56:57Z</time>
      </trkpt>
      <trkpt lat="44.31749" lon="5.71751">
        <ele>656</ele>
        <time>2019-06-19T09:56:58Z</time>
      </trkpt>
      <trkpt lat="44.3175" lon="5.7176">
        <ele>656</ele>
        <time>2019-06-19T09:56:59Z</time>
      </trkpt>
      <trkpt lat="44.31751" lon="5.71769">
        <ele>656</ele>
        <time>2019-06-19T09:57:00Z</time>
      </trkpt>
      <trkpt lat="44.31752" lon="5.71779">
        <ele>656</ele>
        <time>2019-06-19T09:57:01Z</time>
      </trkpt>
      <trkpt lat="44.31752" lon="5.71788">
        <ele>656</ele>
        <time>2019-06-19T09:57:02Z</time>
      </trkpt>
      <trkpt lat="44.31753" lon="5.71797">
        <ele>656</ele>
        <time>2019-06-19T09:57:03Z</time>
      </trkpt>
      <trkpt lat="44.31754" lon="5.71807">
        <ele>656</ele>
        <time>2019-06-19T09:57:04Z</time>
      </trkpt>
      <trkpt lat="44.31755" lon="5.71817">
        <ele>656</ele>
        <time>2019-06-19T09:57:05Z</time>
      </trkpt>
      <trkpt lat="44.31755" lon="5.71828">
        <ele>656</ele>
        <time>2019-06-19T09:57:06Z</time>
      </trkpt>
      <trkpt lat="44.31756" lon="5.71838">
        <ele>656</ele>
        <time>2019-06-19T09:57:07Z</time>
      </trkpt>
      <trkpt lat="44.31757" lon="5.71848">
        <ele>656</ele>
        <time>2019-06-19T09:57:08Z</time>
      </trkpt>
      <trkpt lat="44.31758" lon="5.71859">
        <ele>656</ele>
        <time>2019-06-19T09:57:09Z</time>
      </trkpt>
      <trkpt lat="44.31759" lon="5.71869">
        <ele>656</ele>
        <time>2019-06-19T09:57:10Z</time>
      </trkpt>
      <trkpt lat="44.3176" lon="5.7188">
        <ele>656</ele>
        <time>2019-06-19T09:57:11Z</time>
      </trkpt>
      <trkpt lat="44.31761" lon="5.71891">
        <ele>656</ele>
        <time>2019-06-19T09:57:12Z</time>
      </trkpt>
      <trkpt lat="44.31763" lon="5.71901">
        <ele>656</ele>
        <time>2019-06-19T09:57:13Z</time>
      </trkpt>
      <trkpt lat="44.31764" lon="5.71912">
        <ele>656</ele>
        <time>2019-06-19T09:57:14Z</time>
      </trkpt>
      <trkpt lat="44.31766" lon="5.71922">
        <ele>656</ele>
        <time>2019-06-19T09:57:15Z</time>
      </trkpt>
      <trkpt lat="44.31768" lon="5.71932">
        <ele>656</ele>
        <time>2019-06-19T09:57:16Z</time>
      </trkpt>
      <trkpt lat="44.3177" lon="5.71942">
        <ele>656</ele>
        <time>2019-06-19T09:57:17Z</time>
      </trkpt>
      <trkpt lat="44.31773" lon="5.71951">
        <ele>656</ele>
        <time>2019-06-19T09:57:18Z</time>
      </trkpt>
      <trkpt lat="44.31775" lon="5.71961">
        <ele>656</ele>
        <time>2019-06-19T09:57:19Z</time>
      </trkpt>
      <trkpt lat="44.31778" lon="5.71969">
        <ele>656</ele>
        <time>2019-06-19T09:57:20Z</time>
      </trkpt>
      <trkpt lat="44.31781" lon="5.71978">
        <ele>656</ele>
        <time>2019-06-19T09:57:21Z</time>
      </trkpt>
      <trkpt lat="44.31785" lon="5.71985">
        <ele>656</ele>
        <time>2019-06-19T09:57:22Z</time>
      </trkpt>
      <trkpt lat="44.31788" lon="5.71993">
        <ele>655</ele>
        <time>2019-06-19T09:57:23Z</time>
      </trkpt>
      <trkpt lat="44.31792" lon="5.72001">
        <ele>655</ele>
        <time>2019-06-19T09:57:24Z</time>
      </trkpt>
      <trkpt lat="44.31795" lon="5.72009">
        <ele>655</ele>
        <time>2019-06-19T09:57:25Z</time>
      </trkpt>
      <trkpt lat="44.31798" lon="5.72017">
        <ele>655</ele>
        <time>2019-06-19T09:57:26Z</time>
      </trkpt>
      <trkpt lat="44.31801" lon="5.72025">
        <ele>655</ele>
        <time>2019-06-19T09:57:27Z</time>
      </trkpt>
      <trkpt lat="44.31804" lon="5.72033">
        <ele>655</ele>
        <time>2019-06-19T09:57:28Z</time>
      </trkpt>
      <trkpt lat="44.31807" lon="5.72041">
        <ele>655</ele>
        <time>2019-06-19T09:57:29Z</time>
      </trkpt>
      <trkpt lat="44.31809" lon="5.7205">
        <ele>654</ele>
        <time>2019-06-19T09:57:30Z</time>
      </trkpt>
      <trkpt lat="44.31812" lon="5.72058">
        <ele>654</ele>
        <time>2019-06-19T09:57:31Z</time>
      </trkpt>
      <trkpt lat="44.31814" lon="5.72066">
        <ele>654</ele>
        <time>2019-06-19T09:57:32Z</time>
      </trkpt>
      <trkpt lat="44.31816" lon="5.72075">
        <ele>654</ele>
        <time>2019-06-19T09:57:33Z</time>
      </trkpt>
      <trkpt lat="44.31819" lon="5.72084">
        <ele>654</ele>
        <time>2019-06-19T09:57:34Z</time>
      </trkpt>
      <trkpt lat="44.31821" lon="5.72093">
        <ele>654</ele>
        <time>2019-06-19T09:57:35Z</time>
      </trkpt>
      <trkpt lat="44.31824" lon="5.72102">
        <ele>654</ele>
        <time>2019-06-19T09:57:36Z</time>
      </trkpt>
      <trkpt lat="44.31827" lon="5.72111">
        <ele>654</ele>
        <time>2019-06-19T09:57:37Z</time>
      </trkpt>
      <trkpt lat="44.3183" lon="5.7212">
        <ele>654</ele>
        <time>2019-06-19T09:57:38Z</time>
      </trkpt>
      <trkpt lat="44.31833" lon="5.72129">
        <ele>654</ele>
        <time>2019-06-19T09:57:39Z</time>
      </trkpt>
      <trkpt lat="44.31836" lon="5.72138">
        <ele>654</ele>
        <time>2019-06-19T09:57:40Z</time>
      </trkpt>
      <trkpt lat="44.31838" lon="5.72147">
        <ele>653</ele>
        <time>2019-06-19T09:57:41Z</time>
      </trkpt>
      <trkpt lat="44.31841" lon="5.72156">
        <ele>653</ele>
        <time>2019-06-19T09:57:42Z</time>
      </trkpt>
      <trkpt lat="44.31843" lon="5.72164">
        <ele>653</ele>
        <time>2019-06-19T09:57:43Z</time>
      </trkpt>
      <trkpt lat="44.31846" lon="5.72173">
        <ele>653</ele>
        <time>2019-06-19T09:57:44Z</time>
      </trkpt>
      <trkpt lat="44.31848" lon="5.72183">
        <ele>653</ele>
        <time>2019-06-19T09:57:45Z</time>
      </trkpt>
      <trkpt lat="44.31851" lon="5.72192">
        <ele>653</ele>
        <time>2019-06-19T09:57:46Z</time>
      </trkpt>
      <trkpt lat="44.31853" lon="5.72201">
        <ele>653</ele>
        <time>2019-06-19T09:57:47Z</time>
      </trkpt>
      <trkpt lat="44.31855" lon="5.72211">
        <ele>653</ele>
        <time>2019-06-19T09:57:48Z</time>
      </trkpt>
      <trkpt lat="44.31857" lon="5.7222">
        <ele>653</ele>
        <time>2019-06-19T09:57:49Z</time>
      </trkpt>
      <trkpt lat="44.3186" lon="5.72229">
        <ele>653</ele>
        <time>2019-06-19T09:57:50Z</time>
      </trkpt>
      <trkpt lat="44.31861" lon="5.72239">
        <ele>653</ele>
        <time>2019-06-19T09:57:51Z</time>
      </trkpt>
      <trkpt lat="44.31863" lon="5.72249">
        <ele>652</ele>
        <time>2019-06-19T09:57:52Z</time>
      </trkpt>
      <trkpt lat="44.31865" lon="5.72258">
        <ele>652</ele>
        <time>2019-06-19T09:57:53Z</time>
      </trkpt>
      <trkpt lat="44.31867" lon="5.72268">
        <ele>652</ele>
        <time>2019-06-19T09:57:54Z</time>
      </trkpt>
      <trkpt lat="44.31868" lon="5.72278">
        <ele>652</ele>
        <time>2019-06-19T09:57:55Z</time>
      </trkpt>
      <trkpt lat="44.31869" lon="5.72287">
        <ele>652</ele>
        <time>2019-06-19T09:57:56Z</time>
      </trkpt>
      <trkpt lat="44.31871" lon="5.72297">
        <ele>652</ele>
        <time>2019-06-19T09:57:57Z</time>
      </trkpt>
      <trkpt lat="44.31874" lon="5.72307">
        <ele>652</ele>
        <time>2019-06-19T09:57:58Z</time>
      </trkpt>
      <trkpt lat="44.31876" lon="5.72316">
        <ele>652</ele>
        <time>2019-06-19T09:57:59Z</time>
      </trkpt>
      <trkpt lat="44.31879" lon="5.72326">
        <ele>652</ele>
        <time>2019-06-19T09:58:00Z</time>
      </trkpt>
      <trkpt lat="44.31881" lon="5.72335">
        <ele>652</ele>
        <time>2019-06-19T09:58:01Z</time>
      </trkpt>
      <trkpt lat="44.31884" lon="5.72344">
        <ele>652</ele>
        <time>2019-06-19T09:58:02Z</time>
      </trkpt>
      <trkpt lat="44.31887" lon="5.72354">
        <ele>652</ele>
        <time>2019-06-19T09:58:03Z</time>
      </trkpt>
      <trkpt lat="44.31891" lon="5.72363">
        <ele>652</ele>
        <time>2019-06-19T09:58:04Z</time>
      </trkpt>
      <trkpt lat="44.31895" lon="5.72371">
        <ele>652</ele>
        <time>2019-06-19T09:58:05Z</time>
      </trkpt>
      <trkpt lat="44.31899" lon="5.7238">
        <ele>652</ele>
        <time>2019-06-19T09:58:06Z</time>
      </trkpt>
      <trkpt lat="44.31903" lon="5.7239">
        <ele>651</ele>
        <time>2019-06-19T09:58:07Z</time>
      </trkpt>
      <trkpt lat="44.31907" lon="5.72399">
        <ele>651</ele>
        <time>2019-06-19T09:58:08Z</time>
      </trkpt>
      <trkpt lat="44.31911" lon="5.72408">
        <ele>651</ele>
        <time>2019-06-19T09:58:09Z</time>
      </trkpt>
      <trkpt lat="44.31915" lon="5.72418">
        <ele>651</ele>
        <time>2019-06-19T09:58:10Z</time>
      </trkpt>
      <trkpt lat="44.3192" lon="5.72428">
        <ele>651</ele>
        <time>2019-06-19T09:58:11Z</time>
      </trkpt>
      <trkpt lat="44.31924" lon="5.72437">
        <ele>651</ele>
        <time>2019-06-19T09:58:12Z</time>
      </trkpt>
      <trkpt lat="44.31929" lon="5.72447">
        <ele>651</ele>
        <time>2019-06-19T09:58:13Z</time>
      </trkpt>
      <trkpt lat="44.31934" lon="5.72456">
        <ele>650</ele>
        <time>2019-06-19T09:58:14Z</time>
      </trkpt>
      <trkpt lat="44.31938" lon="5.72466">
        <ele>650</ele>
        <time>2019-06-19T09:58:15Z</time>
      </trkpt>
      <trkpt lat="44.31943" lon="5.72475">
        <ele>650</ele>
        <time>2019-06-19T09:58:16Z</time>
      </trkpt>
      <trkpt lat="44.31947" lon="5.72484">
        <ele>650</ele>
        <time>2019-06-19T09:58:17Z</time>
      </trkpt>
      <trkpt lat="44.31952" lon="5.72494">
        <ele>650</ele>
        <time>2019-06-19T09:58:18Z</time>
      </trkpt>
      <trkpt lat="44.31957" lon="5.72503">
        <ele>650</ele>
        <time>2019-06-19T09:58:19Z</time>
      </trkpt>
      <trkpt lat="44.31961" lon="5.72512">
        <ele>650</ele>
        <time>2019-06-19T09:58:20Z</time>
      </trkpt>
      <trkpt lat="44.31965" lon="5.72521">
        <ele>650</ele>
        <time>2019-06-19T09:58:21Z</time>
      </trkpt>
      <trkpt lat="44.31969" lon="5.72531">
        <ele>650</ele>
        <time>2019-06-19T09:58:22Z</time>
      </trkpt>
      <trkpt lat="44.31972" lon="5.7254">
        <ele>650</ele>
        <time>2019-06-19T09:58:23Z</time>
      </trkpt>
      <trkpt lat="44.31976" lon="5.72549">
        <ele>650</ele>
        <time>2019-06-19T09:58:24Z</time>
      </trkpt>
      <trkpt lat="44.31979" lon="5.72559">
        <ele>650</ele>
        <time>2019-06-19T09:58:25Z</time>
      </trkpt>
      <trkpt lat="44.31981" lon="5.72569">
        <ele>650</ele>
        <time>2019-06-19T09:58:26Z</time>
      </trkpt>
      <trkpt lat="44.31983" lon="5.72579">
        <ele>650</ele>
        <time>2019-06-19T09:58:27Z</time>
      </trkpt>
      <trkpt lat="44.31985" lon="5.72589">
        <ele>650</ele>
        <time>2019-06-19T09:58:28Z</time>
      </trkpt>
      <trkpt lat="44.31987" lon="5.726">
        <ele>650</ele>
        <time>2019-06-19T09:58:29Z</time>
      </trkpt>
      <trkpt lat="44.31988" lon="5.7261">
        <ele>649</ele>
        <time>2019-06-19T09:58:30Z</time>
      </trkpt>
      <trkpt lat="44.3199" lon="5.72621">
        <ele>649</ele>
        <time>2019-06-19T09:58:31Z</time>
      </trkpt>
      <trkpt lat="44.31991" lon="5.72631">
        <ele>649</ele>
        <time>2019-06-19T09:58:32Z</time>
      </trkpt>
      <trkpt lat="44.31992" lon="5.72641">
        <ele>649</ele>
        <time>2019-06-19T09:58:33Z</time>
      </trkpt>
      <trkpt lat="44.31993" lon="5.72652">
        <ele>649</ele>
        <time>2019-06-19T09:58:34Z</time>
      </trkpt>
      <trkpt lat="44.31994" lon="5.72662">
        <ele>649</ele>
        <time>2019-06-19T09:58:35Z</time>
      </trkpt>
      <trkpt lat="44.31995" lon="5.72673">
        <ele>649</ele>
        <time>2019-06-19T09:58:36Z</time>
      </trkpt>
      <trkpt lat="44.31997" lon="5.72683">
        <ele>648</ele>
        <time>2019-06-19T09:58:37Z</time>
      </trkpt>
      <trkpt lat="44.31998" lon="5.72694">
        <ele>648</ele>
        <time>2019-06-19T09:58:38Z</time>
      </trkpt>
      <trkpt lat="44.31999" lon="5.72705">
        <ele>648</ele>
        <time>2019-06-19T09:58:39Z</time>
      </trkpt>
      <trkpt lat="44.32" lon="5.72715">
        <ele>648</ele>
        <time>2019-06-19T09:58:40Z</time>
      </trkpt>
      <trkpt lat="44.32002" lon="5.72726">
        <ele>648</ele>
        <time>2019-06-19T09:58:41Z</time>
      </trkpt>
      <trkpt lat="44.32003" lon="5.72737">
        <ele>647</ele>
        <time>2019-06-19T09:58:42Z</time>
      </trkpt>
      <trkpt lat="44.32004" lon="5.72748">
        <ele>647</ele>
        <time>2019-06-19T09:58:43Z</time>
      </trkpt>
      <trkpt lat="44.32006" lon="5.72759">
        <ele>647</ele>
        <time>2019-06-19T09:58:44Z</time>
      </trkpt>
      <trkpt lat="44.32007" lon="5.7277">
        <ele>647</ele>
        <time>2019-06-19T09:58:45Z</time>
      </trkpt>
      <trkpt lat="44.32008" lon="5.72782">
        <ele>646</ele>
        <time>2019-06-19T09:58:46Z</time>
      </trkpt>
      <trkpt lat="44.3201" lon="5.72793">
        <ele>646</ele>
        <time>2019-06-19T09:58:47Z</time>
      </trkpt>
      <trkpt lat="44.32011" lon="5.72804">
        <ele>646</ele>
        <time>2019-06-19T09:58:48Z</time>
      </trkpt>
      <trkpt lat="44.32012" lon="5.72815">
        <ele>645</ele>
        <time>2019-06-19T09:58:49Z</time>
      </trkpt>
      <trkpt lat="44.32014" lon="5.72825">
        <ele>645</ele>
        <time>2019-06-19T09:58:50Z</time>
      </trkpt>
      <trkpt lat="44.32015" lon="5.72836">
        <ele>645</ele>
        <time>2019-06-19T09:58:51Z</time>
      </trkpt>
      <trkpt lat="44.32016" lon="5.72847">
        <ele>645</ele>
        <time>2019-06-19T09:58:52Z</time>
      </trkpt>
      <trkpt lat="44.32018" lon="5.72858">
        <ele>645</ele>
        <time>2019-06-19T09:58:53Z</time>
      </trkpt>
      <trkpt lat="44.32019" lon="5.72869">
        <ele>645</ele>
        <time>2019-06-19T09:58:54Z</time>
      </trkpt>
      <trkpt lat="44.32021" lon="5.72881">
        <ele>645</ele>
        <time>2019-06-19T09:58:55Z</time>
      </trkpt>
      <trkpt lat="44.32022" lon="5.72892">
        <ele>644</ele>
        <time>2019-06-19T09:58:56Z</time>
      </trkpt>
      <trkpt lat="44.32023" lon="5.72903">
        <ele>644</ele>
        <time>2019-06-19T09:58:57Z</time>
      </trkpt>
      <trkpt lat="44.32025" lon="5.72914">
        <ele>644</ele>
        <time>2019-06-19T09:58:58Z</time>
      </trkpt>
      <trkpt lat="44.32026" lon="5.72926">
        <ele>644</ele>
        <time>2019-06-19T09:58:59Z</time>
      </trkpt>
      <trkpt lat="44.32027" lon="5.72937">
        <ele>644</ele>
        <time>2019-06-19T09:59:00Z</time>
      </trkpt>
      <trkpt lat="44.32028" lon="5.72948">
        <ele>644</ele>
        <time>2019-06-19T09:59:01Z</time>
      </trkpt>
      <trkpt lat="44.32029" lon="5.72958">
        <ele>644</ele>
        <time>2019-06-19T09:59:02Z</time>
      </trkpt>
      <trkpt lat="44.32031" lon="5.72969">
        <ele>644</ele>
        <time>2019-06-19T09:59:03Z</time>
      </trkpt>
      <trkpt lat="44.32032" lon="5.72979">
        <ele>644</ele>
        <time>2019-06-19T09:59:04Z</time>
      </trkpt>
      <trkpt lat="44.32034" lon="5.72989">
        <ele>644</ele>
        <time>2019-06-19T09:59:05Z</time>
      </trkpt>
      <trkpt lat="44.32035" lon="5.72999">
        <ele>644</ele>
        <time>2019-06-19T09:59:06Z</time>
      </trkpt>
      <trkpt lat="44.32036" lon="5.73009">
        <ele>644</ele>
        <time>2019-06-19T09:59:07Z</time>
      </trkpt>
      <trkpt lat="44.32037" lon="5.7302">
        <ele>644</ele>
        <time>2019-06-19T09:59:08Z</time>
      </trkpt>
      <trkpt lat="44.32039" lon="5.7303">
        <ele>643</ele>
        <time>2019-06-19T09:59:09Z</time>
      </trkpt>
      <trkpt lat="44.3204" lon="5.7304">
        <ele>643</ele>
        <time>2019-06-19T09:59:10Z</time>
      </trkpt>
      <trkpt lat="44.32042" lon="5.73051">
        <ele>643</ele>
        <time>2019-06-19T09:59:11Z</time>
      </trkpt>
      <trkpt lat="44.32043" lon="5.73061">
        <ele>643</ele>
        <time>2019-06-19T09:59:12Z</time>
      </trkpt>
      <trkpt lat="44.32044" lon="5.73071">
        <ele>643</ele>
        <time>2019-06-19T09:59:13Z</time>
      </trkpt>
      <trkpt lat="44.32045" lon="5.73081">
        <ele>643</ele>
        <time>2019-06-19T09:59:14Z</time>
      </trkpt>
      <trkpt lat="44.32046" lon="5.73091">
        <ele>643</ele>
        <time>2019-06-19T09:59:15Z</time>
      </trkpt>
      <trkpt lat="44.32048" lon="5.73101">
        <ele>643</ele>
        <time>2019-06-19T09:59:16Z</time>
      </trkpt>
      <trkpt lat="44.32049" lon="5.73111">
        <ele>643</ele>
        <time>2019-06-19T09:59:17Z</time>
      </trkpt>
      <trkpt lat="44.3205" lon="5.7312">
        <ele>643</ele>
        <time>2019-06-19T09:59:18Z</time>
      </trkpt>
      <trkpt lat="44.32051" lon="5.7313">
        <ele>643</ele>
        <time>2019-06-19T09:59:19Z</time>
      </trkpt>
      <trkpt lat="44.32052" lon="5.7314">
        <ele>643</ele>
        <time>2019-06-19T09:59:20Z</time>
      </trkpt>
      <trkpt lat="44.32054" lon="5.7315">
        <ele>643</ele>
        <time>2019-06-19T09:59:21Z</time>
      </trkpt>
      <trkpt lat="44.32055" lon="5.7316">
        <ele>643</ele>
        <time>2019-06-19T09:59:22Z</time>
      </trkpt>
      <trkpt lat="44.32056" lon="5.7317">
        <ele>643</ele>
        <time>2019-06-19T09:59:23Z</time>
      </trkpt>
      <trkpt lat="44.32057" lon="5.7318">
        <ele>643</ele>
        <time>2019-06-19T09:59:24Z</time>
      </trkpt>
      <trkpt lat="44.32059" lon="5.7319">
        <ele>643</ele>
        <time>2019-06-19T09:59:25Z</time>
      </trkpt>
      <trkpt lat="44.3206" lon="5.73201">
        <ele>643</ele>
        <time>2019-06-19T09:59:26Z</time>
      </trkpt>
      <trkpt lat="44.32061" lon="5.73211">
        <ele>643</ele>
        <time>2019-06-19T09:59:27Z</time>
      </trkpt>
      <trkpt lat="44.32063" lon="5.73222">
        <ele>643</ele>
        <time>2019-06-19T09:59:28Z</time>
      </trkpt>
      <trkpt lat="44.32064" lon="5.73232">
        <ele>643</ele>
        <time>2019-06-19T09:59:29Z</time>
      </trkpt>
      <trkpt lat="44.32066" lon="5.73243">
        <ele>642</ele>
        <time>2019-06-19T09:59:30Z</time>
      </trkpt>
      <trkpt lat="44.32068" lon="5.73253">
        <ele>642</ele>
        <time>2019-06-19T09:59:31Z</time>
      </trkpt>
      <trkpt lat="44.3207" lon="5.73264">
        <ele>642</ele>
        <time>2019-06-19T09:59:32Z</time>
      </trkpt>
      <trkpt lat="44.32072" lon="5.73274">
        <ele>642</ele>
        <time>2019-06-19T09:59:33Z</time>
      </trkpt>
      <trkpt lat="44.32074" lon="5.73284">
        <ele>642</ele>
        <time>2019-06-19T09:59:34Z</time>
      </trkpt>
      <trkpt lat="44.32077" lon="5.73293">
        <ele>642</ele>
        <time>2019-06-19T09:59:35Z</time>
      </trkpt>
      <trkpt lat="44.32081" lon="5.73302">
        <ele>642</ele>
        <time>2019-06-19T09:59:36Z</time>
      </trkpt>
      <trkpt lat="44.32084" lon="5.73312">
        <ele>642</ele>
        <time>2019-06-19T09:59:37Z</time>
      </trkpt>
      <trkpt lat="44.32086" lon="5.73321">
        <ele>642</ele>
        <time>2019-06-19T09:59:38Z</time>
      </trkpt>
      <trkpt lat="44.32089" lon="5.73329">
        <ele>642</ele>
        <time>2019-06-19T09:59:39Z</time>
      </trkpt>
      <trkpt lat="44.32092" lon="5.73338">
        <ele>642</ele>
        <time>2019-06-19T09:59:40Z</time>
      </trkpt>
      <trkpt lat="44.32095" lon="5.73346">
        <ele>642</ele>
        <time>2019-06-19T09:59:41Z</time>
      </trkpt>
      <trkpt lat="44.32098" lon="5.73354">
        <ele>642</ele>
        <time>2019-06-19T09:59:42Z</time>
      </trkpt>
      <trkpt lat="44.32101" lon="5.73362">
        <ele>642</ele>
        <time>2019-06-19T09:59:43Z</time>
      </trkpt>
      <trkpt lat="44.32103" lon="5.7337">
        <ele>642</ele>
        <time>2019-06-19T09:59:44Z</time>
      </trkpt>
      <trkpt lat="44.32106" lon="5.73377">
        <ele>642</ele>
        <time>2019-06-19T09:59:45Z</time>
      </trkpt>
      <trkpt lat="44.32109" lon="5.73385">
        <ele>642</ele>
        <time>2019-06-19T09:59:46Z</time>
      </trkpt>
      <trkpt lat="44.32112" lon="5.73393">
        <ele>642</ele>
        <time>2019-06-19T09:59:47Z</time>
      </trkpt>
      <trkpt lat="44.32115" lon="5.73401">
        <ele>642</ele>
        <time>2019-06-19T09:59:48Z</time>
      </trkpt>
      <trkpt lat="44.32117" lon="5.73409">
        <ele>642</ele>
        <time>2019-06-19T09:59:49Z</time>
      </trkpt>
      <trkpt lat="44.3212" lon="5.73417">
        <ele>642</ele>
        <time>2019-06-19T09:59:50Z</time>
      </trkpt>
      <trkpt lat="44.32123" lon="5.73424">
        <ele>642</ele>
        <time>2019-06-19T09:59:51Z</time>
      </trkpt>
      <trkpt lat="44.32126" lon="5.73432">
        <ele>642</ele>
        <time>2019-06-19T09:59:52Z</time>
      </trkpt>
      <trkpt lat="44.32129" lon="5.7344">
        <ele>642</ele>
        <time>2019-06-19T09:59:53Z</time>
      </trkpt>
      <trkpt lat="44.32132" lon="5.73448">
        <ele>642</ele>
        <time>2019-06-19T09:59:54Z</time>
      </trkpt>
      <trkpt lat="44.32135" lon="5.73455">
        <ele>642</ele>
        <time>2019-06-19T09:59:55Z</time>
      </trkpt>
      <trkpt lat="44.32138" lon="5.73463">
        <ele>642</ele>
        <time>2019-06-19T09:59:56Z</time>
      </trkpt>
      <trkpt lat="44.32141" lon="5.73472">
        <ele>641</ele>
        <time>2019-06-19T09:59:57Z</time>
      </trkpt>
      <trkpt lat="44.32144" lon="5.7348">
        <ele>641</ele>
        <time>2019-06-19T09:59:58Z</time>
      </trkpt>
      <trkpt lat="44.32147" lon="5.73489">
        <ele>641</ele>
        <time>2019-06-19T09:59:59Z</time>
      </trkpt>
      <trkpt lat="44.3215" lon="5.73497">
        <ele>641</ele>
        <time>2019-06-19T10:00:00Z</time>
      </trkpt>
      <trkpt lat="44.32153" lon="5.73506">
        <ele>641</ele>
        <time>2019-06-19T10:00:01Z</time>
      </trkpt>
      <trkpt lat="44.32156" lon="5.73514">
        <ele>641</ele>
        <time>2019-06-19T10:00:02Z</time>
      </trkpt>
      <trkpt lat="44.32159" lon="5.73523">
        <ele>641</ele>
        <time>2019-06-19T10:00:03Z</time>
      </trkpt>
      <trkpt lat="44.32162" lon="5.73531">
        <ele>641</ele>
        <time>2019-06-19T10:00:04Z</time>
      </trkpt>
      <trkpt lat="44.32165" lon="5.7354">
        <ele>641</ele>
        <time>2019-06-19T10:00:05Z</time>
      </trkpt>
      <trkpt lat="44.32169" lon="5.73549">
        <ele>641</ele>
        <time>2019-06-19T10:00:06Z</time>
      </trkpt>
      <trkpt lat="44.32172" lon="5.73557">
        <ele>641</ele>
        <time>2019-06-19T10:00:07Z</time>
      </trkpt>
      <trkpt lat="44.32175" lon="5.73566">
        <ele>641</ele>
        <time>2019-06-19T10:00:08Z</time>
      </trkpt>
      <trkpt lat="44.32177" lon="5.73575">
        <ele>640</ele>
        <time>2019-06-19T10:00:09Z</time>
      </trkpt>
      <trkpt lat="44.3218" lon="5.73584">
        <ele>640</ele>
        <time>2019-06-19T10:00:10Z</time>
      </trkpt>
      <trkpt lat="44.32184" lon="5.73593">
        <ele>640</ele>
        <time>2019-06-19T10:00:11Z</time>
      </trkpt>
      <trkpt lat="44.32187" lon="5.73601">
        <ele>640</ele>
        <time>2019-06-19T10:00:12Z</time>
      </trkpt>
      <trkpt lat="44.32191" lon="5.7361">
        <ele>639</ele>
        <time>2019-06-19T10:00:13Z</time>
      </trkpt>
      <trkpt lat="44.32195" lon="5.73619">
        <ele>639</ele>
        <time>2019-06-19T10:00:14Z</time>
      </trkpt>
      <trkpt lat="44.32198" lon="5.73629">
        <ele>639</ele>
        <time>2019-06-19T10:00:15Z</time>
      </trkpt>
      <trkpt lat="44.32201" lon="5.73638">
        <ele>639</ele>
        <time>2019-06-19T10:00:16Z</time>
      </trkpt>
      <trkpt lat="44.32205" lon="5.73648">
        <ele>639</ele>
        <time>2019-06-19T10:00:17Z</time>
      </trkpt>
      <trkpt lat="44.32208" lon="5.73658">
        <ele>639</ele>
        <time>2019-06-19T10:00:18Z</time>
      </trkpt>
      <trkpt lat="44.32212" lon="5.73667">
        <ele>639</ele>
        <time>2019-06-19T10:00:19Z</time>
      </trkpt>
      <trkpt lat="44.32215" lon="5.73676">
        <ele>639</ele>
        <time>2019-06-19T10:00:20Z</time>
      </trkpt>
      <trkpt lat="44.32219" lon="5.73686">
        <ele>639</ele>
        <time>2019-06-19T10:00:21Z</time>
      </trkpt>
      <trkpt lat="44.32222" lon="5.73695">
        <ele>639</ele>
        <time>2019-06-19T10:00:22Z</time>
      </trkpt>
      <trkpt lat="44.32225" lon="5.73704">
        <ele>639</ele>
        <time>2019-06-19T10:00:23Z</time>
      </trkpt>
      <trkpt lat="44.32228" lon="5.73713">
        <ele>639</ele>
        <time>2019-06-19T10:00:24Z</time>
      </trkpt>
      <trkpt lat="44.32231" lon="5.73722">
        <ele>639</ele>
        <time>2019-06-19T10:00:25Z</time>
      </trkpt>
      <trkpt lat="44.32234" lon="5.73731">
        <ele>639</ele>
        <time>2019-06-19T10:00:26Z</time>
      </trkpt>
      <trkpt lat="44.32237" lon="5.73739">
        <ele>639</ele>
        <time>2019-06-19T10:00:27Z</time>
      </trkpt>
      <trkpt lat="44.32241" lon="5.73748">
        <ele>639</ele>
        <time>2019-06-19T10:00:28Z</time>
      </trkpt>
      <trkpt lat="44.32243" lon="5.73756">
        <ele>639</ele>
        <time>2019-06-19T10:00:29Z</time>
      </trkpt>
      <trkpt lat="44.32247" lon="5.73765">
        <ele>639</ele>
        <time>2019-06-19T10:00:30Z</time>
      </trkpt>
      <trkpt lat="44.3225" lon="5.73773">
        <ele>638</ele>
        <time>2019-06-19T10:00:31Z</time>
      </trkpt>
      <trkpt lat="44.32253" lon="5.73781">
        <ele>638</ele>
        <time>2019-06-19T10:00:32Z</time>
      </trkpt>
      <trkpt lat="44.32256" lon="5.7379">
        <ele>638</ele>
        <time>2019-06-19T10:00:33Z</time>
      </trkpt>
      <trkpt lat="44.32259" lon="5.73799">
        <ele>638</ele>
        <time>2019-06-19T10:00:34Z</time>
      </trkpt>
      <trkpt lat="44.32262" lon="5.73808">
        <ele>638</ele>
        <time>2019-06-19T10:00:35Z</time>
      </trkpt>
      <trkpt lat="44.32265" lon="5.73817">
        <ele>638</ele>
        <time>2019-06-19T10:00:36Z</time>
      </trkpt>
      <trkpt lat="44.32268" lon="5.73826">
        <ele>637</ele>
        <time>2019-06-19T10:00:37Z</time>
      </trkpt>
      <trkpt lat="44.32271" lon="5.73835">
        <ele>637</ele>
        <time>2019-06-19T10:00:38Z</time>
      </trkpt>
      <trkpt lat="44.32275" lon="5.73844">
        <ele>637</ele>
        <time>2019-06-19T10:00:39Z</time>
      </trkpt>
      <trkpt lat="44.32278" lon="5.73853">
        <ele>637</ele>
        <time>2019-06-19T10:00:40Z</time>
      </trkpt>
      <trkpt lat="44.32281" lon="5.73863">
        <ele>637</ele>
        <time>2019-06-19T10:00:41Z</time>
      </trkpt>
      <trkpt lat="44.32284" lon="5.73872">
        <ele>637</ele>
        <time>2019-06-19T10:00:42Z</time>
      </trkpt>
      <trkpt lat="44.32288" lon="5.73881">
        <ele>637</ele>
        <time>2019-06-19T10:00:43Z</time>
      </trkpt>
      <trkpt lat="44.32291" lon="5.7389">
        <ele>637</ele>
        <time>2019-06-19T10:00:44Z</time>
      </trkpt>
      <trkpt lat="44.32295" lon="5.73899">
        <ele>636</ele>
        <time>2019-06-19T10:00:45Z</time>
      </trkpt>
      <trkpt lat="44.32299" lon="5.73908">
        <ele>636</ele>
        <time>2019-06-19T10:00:46Z</time>
      </trkpt>
      <trkpt lat="44.32303" lon="5.73917">
        <ele>636</ele>
        <time>2019-06-19T10:00:47Z</time>
      </trkpt>
      <trkpt lat="44.32307" lon="5.73926">
        <ele>636</ele>
        <time>2019-06-19T10:00:48Z</time>
      </trkpt>
      <trkpt lat="44.32311" lon="5.73935">
        <ele>636</ele>
        <time>2019-06-19T10:00:49Z</time>
      </trkpt>
      <trkpt lat="44.32315" lon="5.73945">
        <ele>635</ele>
        <time>2019-06-19T10:00:50Z</time>
      </trkpt>
      <trkpt lat="44.3232" lon="5.73954">
        <ele>635</ele>
        <time>2019-06-19T10:00:51Z</time>
      </trkpt>
      <trkpt lat="44.32325" lon="5.73963">
        <ele>635</ele>
        <time>2019-06-19T10:00:52Z</time>
      </trkpt>
      <trkpt lat="44.3233" lon="5.73973">
        <ele>635</ele>
        <time>2019-06-19T10:00:53Z</time>
      </trkpt>
      <trkpt lat="44.32336" lon="5.73983">
        <ele>634</ele>
        <time>2019-06-19T10:00:54Z</time>
      </trkpt>
      <trkpt lat="44.32341" lon="5.73993">
        <ele>634</ele>
        <time>2019-06-19T10:00:55Z</time>
      </trkpt>
      <trkpt lat="44.32347" lon="5.74004">
        <ele>634</ele>
        <time>2019-06-19T10:00:56Z</time>
      </trkpt>
      <trkpt lat="44.32352" lon="5.74014">
        <ele>633</ele>
        <time>2019-06-19T10:00:57Z</time>
      </trkpt>
      <trkpt lat="44.32358" lon="5.74025">
        <ele>633</ele>
        <time>2019-06-19T10:00:58Z</time>
      </trkpt>
      <trkpt lat="44.32364" lon="5.74036">
        <ele>632</ele>
        <time>2019-06-19T10:00:59Z</time>
      </trkpt>
      <trkpt lat="44.32371" lon="5.74047">
        <ele>632</ele>
        <time>2019-06-19T10:01:00Z</time>
      </trkpt>
      <trkpt lat="44.32376" lon="5.74059">
        <ele>631</ele>
        <time>2019-06-19T10:01:01Z</time>
      </trkpt>
      <trkpt lat="44.32383" lon="5.7407">
        <ele>631</ele>
        <time>2019-06-19T10:01:02Z</time>
      </trkpt>
      <trkpt lat="44.32388" lon="5.74081">
        <ele>631</ele>
        <time>2019-06-19T10:01:03Z</time>
      </trkpt>
      <trkpt lat="44.32394" lon="5.74091">
        <ele>631</ele>
        <time>2019-06-19T10:01:04Z</time>
      </trkpt>
      <trkpt lat="44.324" lon="5.74101">
        <ele>631</ele>
        <time>2019-06-19T10:01:05Z</time>
      </trkpt>
      <trkpt lat="44.32405" lon="5.74112">
        <ele>631</ele>
        <time>2019-06-19T10:01:06Z</time>
      </trkpt>
      <trkpt lat="44.32411" lon="5.74122">
        <ele>631</ele>
        <time>2019-06-19T10:01:07Z</time>
      </trkpt>
      <trkpt lat="44.32416" lon="5.74131">
        <ele>631</ele>
        <time>2019-06-19T10:01:08Z</time>
      </trkpt>
      <trkpt lat="44.32421" lon="5.74141">
        <ele>631</ele>
        <time>2019-06-19T10:01:09Z</time>
      </trkpt>
      <trkpt lat="44.32426" lon="5.74151">
        <ele>631</ele>
        <time>2019-06-19T10:01:10Z</time>
      </trkpt>
      <trkpt lat="44.32431" lon="5.7416">
        <ele>631</ele>
        <time>2019-06-19T10:01:11Z</time>
      </trkpt>
      <trkpt lat="44.32435" lon="5.74169">
        <ele>631</ele>
        <time>2019-06-19T10:01:12Z</time>
      </trkpt>
      <trkpt lat="44.32439" lon="5.74177">
        <ele>631</ele>
        <time>2019-06-19T10:01:13Z</time>
      </trkpt>
      <trkpt lat="44.32444" lon="5.74185">
        <ele>631</ele>
        <time>2019-06-19T10:01:14Z</time>
      </trkpt>
      <trkpt lat="44.32448" lon="5.74193">
        <ele>631</ele>
        <time>2019-06-19T10:01:15Z</time>
      </trkpt>
      <trkpt lat="44.32452" lon="5.742">
        <ele>631</ele>
        <time>2019-06-19T10:01:16Z</time>
      </trkpt>
      <trkpt lat="44.32455" lon="5.74208">
        <ele>631</ele>
        <time>2019-06-19T10:01:17Z</time>
      </trkpt>
      <trkpt lat="44.32459" lon="5.74215">
        <ele>631</ele>
        <time>2019-06-19T10:01:18Z</time>
      </trkpt>
      <trkpt lat="44.32463" lon="5.74221">
        <ele>631</ele>
        <time>2019-06-19T10:01:19Z</time>
      </trkpt>
      <trkpt lat="44.32467" lon="5.74227">
        <ele>631</ele>
        <time>2019-06-19T10:01:20Z</time>
      </trkpt>
      <trkpt lat="44.32471" lon="5.74233">
        <ele>631</ele>
        <time>2019-06-19T10:01:21Z</time>
      </trkpt>
      <trkpt lat="44.32475" lon="5.74239">
        <ele>631</ele>
        <time>2019-06-19T10:01:22Z</time>
      </trkpt>
      <trkpt lat="44.3248" lon="5.74245">
        <ele>631</ele>
        <time>2019-06-19T10:01:23Z</time>
      </trkpt>
      <trkpt lat="44.32484" lon="5.74251">
        <ele>631</ele>
        <time>2019-06-19T10:01:24Z</time>
      </trkpt>
      <trkpt lat="44.32489" lon="5.74257">
        <ele>631</ele>
        <time>2019-06-19T10:01:25Z</time>
      </trkpt>
      <trkpt lat="44.32493" lon="5.74263">
        <ele>631</ele>
        <time>2019-06-19T10:01:26Z</time>
      </trkpt>
      <trkpt lat="44.32498" lon="5.74269">
        <ele>631</ele>
        <time>2019-06-19T10:01:27Z</time>
      </trkpt>
      <trkpt lat="44.32503" lon="5.74275">
        <ele>631</ele>
        <time>2019-06-19T10:01:28Z</time>
      </trkpt>
      <trkpt lat="44.32508" lon="5.74281">
        <ele>631</ele>
        <time>2019-06-19T10:01:29Z</time>
      </trkpt>
      <trkpt lat="44.32513" lon="5.74287">
        <ele>631</ele>
        <time>2019-06-19T10:01:30Z</time>
      </trkpt>
      <trkpt lat="44.32518" lon="5.74293">
        <ele>631</ele>
        <time>2019-06-19T10:01:31Z</time>
      </trkpt>
      <trkpt lat="44.32523" lon="5.74299">
        <ele>631</ele>
        <time>2019-06-19T10:01:32Z</time>
      </trkpt>
      <trkpt lat="44.32528" lon="5.74305">
        <ele>631</ele>
        <time>2019-06-19T10:01:33Z</time>
      </trkpt>
      <trkpt lat="44.32532" lon="5.74312">
        <ele>631</ele>
        <time>2019-06-19T10:01:34Z</time>
      </trkpt>
      <trkpt lat="44.32537" lon="5.74319">
        <ele>631</ele>
        <time>2019-06-19T10:01:35Z</time>
      </trkpt>
      <trkpt lat="44.32543" lon="5.74326">
        <ele>631</ele>
        <time>2019-06-19T10:01:36Z</time>
      </trkpt>
      <trkpt lat="44.32548" lon="5.74332">
        <ele>631</ele>
        <time>2019-06-19T10:01:37Z</time>
      </trkpt>
      <trkpt lat="44.32553" lon="5.74338">
        <ele>631</ele>
        <time>2019-06-19T10:01:38Z</time>
      </trkpt>
      <trkpt lat="44.32559" lon="5.74345">
        <ele>631</ele>
        <time>2019-06-19T10:01:39Z</time>
      </trkpt>
      <trkpt lat="44.32564" lon="5.74351">
        <ele>631</ele>
        <time>2019-06-19T10:01:40Z</time>
      </trkpt>
      <trkpt lat="44.32568" lon="5.74358">
        <ele>631</ele>
        <time>2019-06-19T10:01:41Z</time>
      </trkpt>
      <trkpt lat="44.32573" lon="5.74365">
        <ele>631</ele>
        <time>2019-06-19T10:01:42Z</time>
      </trkpt>
      <trkpt lat="44.32578" lon="5.74371">
        <ele>631</ele>
        <time>2019-06-19T10:01:43Z</time>
      </trkpt>
      <trkpt lat="44.32582" lon="5.74378">
        <ele>631</ele>
        <time>2019-06-19T10:01:44Z</time>
      </trkpt>
      <trkpt lat="44.32587" lon="5.74385">
        <ele>631</ele>
        <time>2019-06-19T10:01:45Z</time>
      </trkpt>
      <trkpt lat="44.32591" lon="5.74391">
        <ele>631</ele>
        <time>2019-06-19T10:01:46Z</time>
      </trkpt>
      <trkpt lat="44.32595" lon="5.74398">
        <ele>631</ele>
        <time>2019-06-19T10:01:47Z</time>
      </trkpt>
      <trkpt lat="44.326" lon="5.74404">
        <ele>631</ele>
        <time>2019-06-19T10:01:48Z</time>
      </trkpt>
      <trkpt lat="44.32605" lon="5.7441">
        <ele>631</ele>
        <time>2019-06-19T10:01:49Z</time>
      </trkpt>
      <trkpt lat="44.32609" lon="5.74418">
        <ele>631</ele>
        <time>2019-06-19T10:01:50Z</time>
      </trkpt>
      <trkpt lat="44.32614" lon="5.74425">
        <ele>631</ele>
        <time>2019-06-19T10:01:51Z</time>
      </trkpt>
      <trkpt lat="44.32619" lon="5.74432">
        <ele>631</ele>
        <time>2019-06-19T10:01:52Z</time>
      </trkpt>
      <trkpt lat="44.32624" lon="5.74439">
        <ele>631</ele>
        <time>2019-06-19T10:01:53Z</time>
      </trkpt>
      <trkpt lat="44.32629" lon="5.74447">
        <ele>631</ele>
        <time>2019-06-19T10:01:54Z</time>
      </trkpt>
      <trkpt lat="44.32634" lon="5.74454">
        <ele>631</ele>
        <time>2019-06-19T10:01:55Z</time>
      </trkpt>
      <trkpt lat="44.32639" lon="5.74462">
        <ele>631</ele>
        <time>2019-06-19T10:01:56Z</time>
      </trkpt>
      <trkpt lat="44.32645" lon="5.74469">
        <ele>631</ele>
        <time>2019-06-19T10:01:57Z</time>
      </trkpt>
      <trkpt lat="44.3265" lon="5.74477">
        <ele>631</ele>
        <time>2019-06-19T10:01:58Z</time>
      </trkpt>
      <trkpt lat="44.32655" lon="5.74485">
        <ele>631</ele>
        <time>2019-06-19T10:01:59Z</time>
      </trkpt>
      <trkpt lat="44.32661" lon="5.74493">
        <ele>631</ele>
        <time>2019-06-19T10:02:00Z</time>
      </trkpt>
      <trkpt lat="44.32666" lon="5.74501">
        <ele>631</ele>
        <time>2019-06-19T10:02:01Z</time>
      </trkpt>
      <trkpt lat="44.32672" lon="5.74508">
        <ele>630</ele>
        <time>2019-06-19T10:02:02Z</time>
      </trkpt>
      <trkpt lat="44.32678" lon="5.74516">
        <ele>630</ele>
        <time>2019-06-19T10:02:03Z</time>
      </trkpt>
      <trkpt lat="44.32684" lon="5.74524">
        <ele>630</ele>
        <time>2019-06-19T10:02:04Z</time>
      </trkpt>
      <trkpt lat="44.32692" lon="5.74531">
        <ele>630</ele>
        <time>2019-06-19T10:02:05Z</time>
      </trkpt>
      <trkpt lat="44.32699" lon="5.74537">
        <ele>630</ele>
        <time>2019-06-19T10:02:06Z</time>
      </trkpt>
      <trkpt lat="44.32706" lon="5.74543">
        <ele>630</ele>
        <time>2019-06-19T10:02:07Z</time>
      </trkpt>
      <trkpt lat="44.32714" lon="5.74548">
        <ele>629</ele>
        <time>2019-06-19T10:02:08Z</time>
      </trkpt>
      <trkpt lat="44.32722" lon="5.74554">
        <ele>629</ele>
        <time>2019-06-19T10:02:09Z</time>
      </trkpt>
      <trkpt lat="44.32731" lon="5.74559">
        <ele>629</ele>
        <time>2019-06-19T10:02:10Z</time>
      </trkpt>
      <trkpt lat="44.32739" lon="5.74564">
        <ele>628</ele>
        <time>2019-06-19T10:02:11Z</time>
      </trkpt>
      <trkpt lat="44.32748" lon="5.7457">
        <ele>628</ele>
        <time>2019-06-19T10:02:12Z</time>
      </trkpt>
      <trkpt lat="44.32756" lon="5.74575">
        <ele>628</ele>
        <time>2019-06-19T10:02:13Z</time>
      </trkpt>
      <trkpt lat="44.32764" lon="5.7458">
        <ele>628</ele>
        <time>2019-06-19T10:02:14Z</time>
      </trkpt>
      <trkpt lat="44.32772" lon="5.74585">
        <ele>628</ele>
        <time>2019-06-19T10:02:15Z</time>
      </trkpt>
      <trkpt lat="44.32779" lon="5.74591">
        <ele>628</ele>
        <time>2019-06-19T10:02:16Z</time>
      </trkpt>
      <trkpt lat="44.32787" lon="5.74597">
        <ele>628</ele>
        <time>2019-06-19T10:02:17Z</time>
      </trkpt>
      <trkpt lat="44.32794" lon="5.74603">
        <ele>628</ele>
        <time>2019-06-19T10:02:18Z</time>
      </trkpt>
      <trkpt lat="44.32801" lon="5.74609">
        <ele>628</ele>
        <time>2019-06-19T10:02:19Z</time>
      </trkpt>
      <trkpt lat="44.32808" lon="5.74615">
        <ele>628</ele>
        <time>2019-06-19T10:02:20Z</time>
      </trkpt>
      <trkpt lat="44.32814" lon="5.74622">
        <ele>628</ele>
        <time>2019-06-19T10:02:21Z</time>
      </trkpt>
      <trkpt lat="44.32821" lon="5.74629">
        <ele>628</ele>
        <time>2019-06-19T10:02:22Z</time>
      </trkpt>
      <trkpt lat="44.32827" lon="5.74637">
        <ele>628</ele>
        <time>2019-06-19T10:02:23Z</time>
      </trkpt>
      <trkpt lat="44.32833" lon="5.74643">
        <ele>628</ele>
        <time>2019-06-19T10:02:24Z</time>
      </trkpt>
      <trkpt lat="44.3284" lon="5.74649">
        <ele>628</ele>
        <time>2019-06-19T10:02:25Z</time>
      </trkpt>
      <trkpt lat="44.32846" lon="5.74656">
        <ele>628</ele>
        <time>2019-06-19T10:02:26Z</time>
      </trkpt>
      <trkpt lat="44.32852" lon="5.74662">
        <ele>628</ele>
        <time>2019-06-19T10:02:27Z</time>
      </trkpt>
      <trkpt lat="44.32859" lon="5.74669">
        <ele>628</ele>
        <time>2019-06-19T10:02:28Z</time>
      </trkpt>
      <trkpt lat="44.32865" lon="5.74675">
        <ele>627</ele>
        <time>2019-06-19T10:02:29Z</time>
      </trkpt>
      <trkpt lat="44.32872" lon="5.74682">
        <ele>627</ele>
        <time>2019-06-19T10:02:30Z</time>
      </trkpt>
      <trkpt lat="44.32879" lon="5.74689">
        <ele>627</ele>
        <time>2019-06-19T10:02:31Z</time>
      </trkpt>
      <trkpt lat="44.32885" lon="5.74695">
        <ele>627</ele>
        <time>2019-06-19T10:02:32Z</time>
      </trkpt>
      <trkpt lat="44.32892" lon="5.74702">
        <ele>626</ele>
        <time>2019-06-19T10:02:33Z</time>
      </trkpt>
      <trkpt lat="44.32899" lon="5.74709">
        <ele>626</ele>
        <time>2019-06-19T10:02:34Z</time>
      </trkpt>
      <trkpt lat="44.32905" lon="5.74716">
        <ele>626</ele>
        <time>2019-06-19T10:02:35Z</time>
      </trkpt>
      <trkpt lat="44.32912" lon="5.74722">
        <ele>626</ele>
        <time>2019-06-19T10:02:36Z</time>
      </trkpt>
      <trkpt lat="44.32919" lon="5.74729">
        <ele>626</ele>
        <time>2019-06-19T10:02:37Z</time>
      </trkpt>
      <trkpt lat="44.32926" lon="5.74735">
        <ele>625</ele>
        <time>2019-06-19T10:02:38Z</time>
      </trkpt>
      <trkpt lat="44.32933" lon="5.74742">
        <ele>625</ele>
        <time>2019-06-19T10:02:39Z</time>
      </trkpt>
      <trkpt lat="44.32939" lon="5.74748">
        <ele>625</ele>
        <time>2019-06-19T10:02:40Z</time>
      </trkpt>
      <trkpt lat="44.32946" lon="5.74755">
        <ele>625</ele>
        <time>2019-06-19T10:02:41Z</time>
      </trkpt>
      <trkpt lat="44.32952" lon="5.74761">
        <ele>624</ele>
        <time>2019-06-19T10:02:42Z</time>
      </trkpt>
      <trkpt lat="44.32958" lon="5.74768">
        <ele>624</ele>
        <time>2019-06-19T10:02:43Z</time>
      </trkpt>
      <trkpt lat="44.32964" lon="5.74774">
        <ele>624</ele>
        <time>2019-06-19T10:02:44Z</time>
      </trkpt>
      <trkpt lat="44.32971" lon="5.7478">
        <ele>623</ele>
        <time>2019-06-19T10:02:45Z</time>
      </trkpt>
      <trkpt lat="44.32977" lon="5.74786">
        <ele>623</ele>
        <time>2019-06-19T10:02:46Z</time>
      </trkpt>
      <trkpt lat="44.32982" lon="5.74792">
        <ele>623</ele>
        <time>2019-06-19T10:02:47Z</time>
      </trkpt>
      <trkpt lat="44.32988" lon="5.74799">
        <ele>623</ele>
        <time>2019-06-19T10:02:48Z</time>
      </trkpt>
      <trkpt lat="44.32994" lon="5.74805">
        <ele>623</ele>
        <time>2019-06-19T10:02:49Z</time>
      </trkpt>
      <trkpt lat="44.32999" lon="5.74812">
        <ele>622</ele>
        <time>2019-06-19T10:02:50Z</time>
      </trkpt>
      <trkpt lat="44.33005" lon="5.74819">
        <ele>622</ele>
        <time>2019-06-19T10:02:51Z</time>
      </trkpt>
      <trkpt lat="44.33011" lon="5.74825">
        <ele>622</ele>
        <time>2019-06-19T10:02:52Z</time>
      </trkpt>
      <trkpt lat="44.33017" lon="5.74831">
        <ele>622</ele>
        <time>2019-06-19T10:02:53Z</time>
      </trkpt>
      <trkpt lat="44.33023" lon="5.74838">
        <ele>622</ele>
        <time>2019-06-19T10:02:54Z</time>
      </trkpt>
      <trkpt lat="44.3303" lon="5.74844">
        <ele>622</ele>
        <time>2019-06-19T10:02:55Z</time>
      </trkpt>
      <trkpt lat="44.33036" lon="5.74851">
        <ele>621</ele>
        <time>2019-06-19T10:02:56Z</time>
      </trkpt>
      <trkpt lat="44.33041" lon="5.74857">
        <ele>621</ele>
        <time>2019-06-19T10:02:57Z</time>
      </trkpt>
      <trkpt lat="44.33047" lon="5.74863">
        <ele>621</ele>
        <time>2019-06-19T10:02:58Z</time>
      </trkpt>
      <trkpt lat="44.33052" lon="5.74871">
        <ele>621</ele>
        <time>2019-06-19T10:02:59Z</time>
      </trkpt>
      <trkpt lat="44.33057" lon="5.74879">
        <ele>621</ele>
        <time>2019-06-19T10:03:00Z</time>
      </trkpt>
      <trkpt lat="44.33062" lon="5.74887">
        <ele>621</ele>
        <time>2019-06-19T10:03:01Z</time>
      </trkpt>
      <trkpt lat="44.33066" lon="5.74896">
        <ele>621</ele>
        <time>2019-06-19T10:03:02Z</time>
      </trkpt>
      <trkpt lat="44.3307" lon="5.74905">
        <ele>621</ele>
        <time>2019-06-19T10:03:03Z</time>
      </trkpt>
      <trkpt lat="44.33073" lon="5.74914">
        <ele>621</ele>
        <time>2019-06-19T10:03:04Z</time>
      </trkpt>
      <trkpt lat="44.33078" lon="5.74923">
        <ele>621</ele>
        <time>2019-06-19T10:03:05Z</time>
      </trkpt>
      <trkpt lat="44.33081" lon="5.74932">
        <ele>620</ele>
        <time>2019-06-19T10:03:06Z</time>
      </trkpt>
      <trkpt lat="44.33084" lon="5.7494">
        <ele>620</ele>
        <time>2019-06-19T10:03:07Z</time>
      </trkpt>
      <trkpt lat="44.33088" lon="5.74949">
        <ele>620</ele>
        <time>2019-06-19T10:03:08Z</time>
      </trkpt>
      <trkpt lat="44.33091" lon="5.74958">
        <ele>620</ele>
        <time>2019-06-19T10:03:09Z</time>
      </trkpt>
      <trkpt lat="44.33095" lon="5.74967">
        <ele>620</ele>
        <time>2019-06-19T10:03:10Z</time>
      </trkpt>
      <trkpt lat="44.33099" lon="5.74976">
        <ele>620</ele>
        <time>2019-06-19T10:03:11Z</time>
      </trkpt>
      <trkpt lat="44.33102" lon="5.74986">
        <ele>620</ele>
        <time>2019-06-19T10:03:12Z</time>
      </trkpt>
      <trkpt lat="44.33106" lon="5.74996">
        <ele>620</ele>
        <time>2019-06-19T10:03:13Z</time>
      </trkpt>
      <trkpt lat="44.3311" lon="5.75005">
        <ele>620</ele>
        <time>2019-06-19T10:03:14Z</time>
      </trkpt>
      <trkpt lat="44.33114" lon="5.75015">
        <ele>620</ele>
        <time>2019-06-19T10:03:15Z</time>
      </trkpt>
      <trkpt lat="44.33118" lon="5.75024">
        <ele>620</ele>
        <time>2019-06-19T10:03:16Z</time>
      </trkpt>
      <trkpt lat="44.33122" lon="5.75033">
        <ele>620</ele>
        <time>2019-06-19T10:03:17Z</time>
      </trkpt>
      <trkpt lat="44.33127" lon="5.75041">
        <ele>620</ele>
        <time>2019-06-19T10:03:18Z</time>
      </trkpt>
      <trkpt lat="44.33133" lon="5.75049">
        <ele>620</ele>
        <time>2019-06-19T10:03:19Z</time>
      </trkpt>
      <trkpt lat="44.33139" lon="5.75056">
        <ele>620</ele>
        <time>2019-06-19T10:03:20Z</time>
      </trkpt>
      <trkpt lat="44.33146" lon="5.75063">
        <ele>620</ele>
        <time>2019-06-19T10:03:21Z</time>
      </trkpt>
      <trkpt lat="44.33153" lon="5.7507">
        <ele>620</ele>
        <time>2019-06-19T10:03:22Z</time>
      </trkpt>
      <trkpt lat="44.3316" lon="5.75075">
        <ele>620</ele>
        <time>2019-06-19T10:03:23Z</time>
      </trkpt>
      <trkpt lat="44.33168" lon="5.75081">
        <ele>620</ele>
        <time>2019-06-19T10:03:24Z</time>
      </trkpt>
      <trkpt lat="44.33176" lon="5.75086">
        <ele>619</ele>
        <time>2019-06-19T10:03:25Z</time>
      </trkpt>
      <trkpt lat="44.33184" lon="5.75092">
        <ele>619</ele>
        <time>2019-06-19T10:03:26Z</time>
      </trkpt>
      <trkpt lat="44.33192" lon="5.75098">
        <ele>619</ele>
        <time>2019-06-19T10:03:27Z</time>
      </trkpt>
      <trkpt lat="44.332" lon="5.75104">
        <ele>618</ele>
        <time>2019-06-19T10:03:28Z</time>
      </trkpt>
      <trkpt lat="44.33209" lon="5.75109">
        <ele>618</ele>
        <time>2019-06-19T10:03:29Z</time>
      </trkpt>
      <trkpt lat="44.33218" lon="5.75116">
        <ele>618</ele>
        <time>2019-06-19T10:03:30Z</time>
      </trkpt>
      <trkpt lat="44.33226" lon="5.75122">
        <ele>618</ele>
        <time>2019-06-19T10:03:31Z</time>
      </trkpt>
      <trkpt lat="44.33235" lon="5.75129">
        <ele>618</ele>
        <time>2019-06-19T10:03:32Z</time>
      </trkpt>
      <trkpt lat="44.33244" lon="5.75135">
        <ele>618</ele>
        <time>2019-06-19T10:03:33Z</time>
      </trkpt>
      <trkpt lat="44.33252" lon="5.75142">
        <ele>618</ele>
        <time>2019-06-19T10:03:34Z</time>
      </trkpt>
      <trkpt lat="44.33261" lon="5.75148">
        <ele>617</ele>
        <time>2019-06-19T10:03:35Z</time>
      </trkpt>
      <trkpt lat="44.33269" lon="5.75155">
        <ele>617</ele>
        <time>2019-06-19T10:03:36Z</time>
      </trkpt>
      <trkpt lat="44.33278" lon="5.75161">
        <ele>617</ele>
        <time>2019-06-19T10:03:37Z</time>
      </trkpt>
      <trkpt lat="44.33286" lon="5.75167">
        <ele>617</ele>
        <time>2019-06-19T10:03:38Z</time>
      </trkpt>
      <trkpt lat="44.33294" lon="5.75172">
        <ele>617</ele>
        <time>2019-06-19T10:03:39Z</time>
      </trkpt>
      <trkpt lat="44.33302" lon="5.75178">
        <ele>617</ele>
        <time>2019-06-19T10:03:40Z</time>
      </trkpt>
      <trkpt lat="44.3331" lon="5.75184">
        <ele>617</ele>
        <time>2019-06-19T10:03:41Z</time>
      </trkpt>
      <trkpt lat="44.33318" lon="5.7519">
        <ele>617</ele>
        <time>2019-06-19T10:03:42Z</time>
      </trkpt>
      <trkpt lat="44.33325" lon="5.75196">
        <ele>617</ele>
        <time>2019-06-19T10:03:43Z</time>
      </trkpt>
      <trkpt lat="44.33332" lon="5.75202">
        <ele>617</ele>
        <time>2019-06-19T10:03:44Z</time>
      </trkpt>
      <trkpt lat="44.3334" lon="5.75207">
        <ele>617</ele>
        <time>2019-06-19T10:03:45Z</time>
      </trkpt>
      <trkpt lat="44.33347" lon="5.75213">
        <ele>617</ele>
        <time>2019-06-19T10:03:46Z</time>
      </trkpt>
      <trkpt lat="44.33354" lon="5.75219">
        <ele>617</ele>
        <time>2019-06-19T10:03:47Z</time>
      </trkpt>
      <trkpt lat="44.33361" lon="5.75224">
        <ele>617</ele>
        <time>2019-06-19T10:03:48Z</time>
      </trkpt>
      <trkpt lat="44.33368" lon="5.75229">
        <ele>617</ele>
        <time>2019-06-19T10:03:49Z</time>
      </trkpt>
      <trkpt lat="44.33375" lon="5.75234">
        <ele>617</ele>
        <time>2019-06-19T10:03:50Z</time>
      </trkpt>
      <trkpt lat="44.33382" lon="5.75239">
        <ele>617</ele>
        <time>2019-06-19T10:03:51Z</time>
      </trkpt>
      <trkpt lat="44.33388" lon="5.75244">
        <ele>617</ele>
        <time>2019-06-19T10:03:52Z</time>
      </trkpt>
      <trkpt lat="44.33395" lon="5.75249">
        <ele>617</ele>
        <time>2019-06-19T10:03:53Z</time>
      </trkpt>
      <trkpt lat="44.33402" lon="5.75254">
        <ele>617</ele>
        <time>2019-06-19T10:03:54Z</time>
      </trkpt>
      <trkpt lat="44.33408" lon="5.7526">
        <ele>617</ele>
        <time>2019-06-19T10:03:55Z</time>
      </trkpt>
      <trkpt lat="44.33415" lon="5.75265">
        <ele>617</ele>
        <time>2019-06-19T10:03:56Z</time>
      </trkpt>
      <trkpt lat="44.33422" lon="5.75271">
        <ele>617</ele>
        <time>2019-06-19T10:03:57Z</time>
      </trkpt>
      <trkpt lat="44.33428" lon="5.75277">
        <ele>617</ele>
        <time>2019-06-19T10:03:58Z</time>
      </trkpt>
      <trkpt lat="44.33435" lon="5.75283">
        <ele>617</ele>
        <time>2019-06-19T10:03:59Z</time>
      </trkpt>
      <trkpt lat="44.33441" lon="5.75289">
        <ele>617</ele>
        <time>2019-06-19T10:04:00Z</time>
      </trkpt>
      <trkpt lat="44.33448" lon="5.75296">
        <ele>617</ele>
        <time>2019-06-19T10:04:01Z</time>
      </trkpt>
      <trkpt lat="44.33453" lon="5.75303">
        <ele>617</ele>
        <time>2019-06-19T10:04:02Z</time>
      </trkpt>
      <trkpt lat="44.33459" lon="5.75311">
        <ele>617</ele>
        <time>2019-06-19T10:04:03Z</time>
      </trkpt>
      <trkpt lat="44.33466" lon="5.75317">
        <ele>617</ele>
        <time>2019-06-19T10:04:04Z</time>
      </trkpt>
      <trkpt lat="44.33472" lon="5.75325">
        <ele>617</ele>
        <time>2019-06-19T10:04:05Z</time>
      </trkpt>
      <trkpt lat="44.33479" lon="5.75332">
        <ele>617</ele>
        <time>2019-06-19T10:04:06Z</time>
      </trkpt>
      <trkpt lat="44.33485" lon="5.75339">
        <ele>617</ele>
        <time>2019-06-19T10:04:07Z</time>
      </trkpt>
      <trkpt lat="44.33491" lon="5.75348">
        <ele>617</ele>
        <time>2019-06-19T10:04:08Z</time>
      </trkpt>
      <trkpt lat="44.33498" lon="5.75356">
        <ele>616</ele>
        <time>2019-06-19T10:04:09Z</time>
      </trkpt>
      <trkpt lat="44.33505" lon="5.75364">
        <ele>616</ele>
        <time>2019-06-19T10:04:10Z</time>
      </trkpt>
      <trkpt lat="44.33512" lon="5.75371">
        <ele>615</ele>
        <time>2019-06-19T10:04:11Z</time>
      </trkpt>
      <trkpt lat="44.33519" lon="5.75379">
        <ele>615</ele>
        <time>2019-06-19T10:04:12Z</time>
      </trkpt>
      <trkpt lat="44.33526" lon="5.75387">
        <ele>615</ele>
        <time>2019-06-19T10:04:13Z</time>
      </trkpt>
      <trkpt lat="44.33533" lon="5.75396">
        <ele>614</ele>
        <time>2019-06-19T10:04:14Z</time>
      </trkpt>
      <trkpt lat="44.3354" lon="5.75405">
        <ele>614</ele>
        <time>2019-06-19T10:04:15Z</time>
      </trkpt>
      <trkpt lat="44.33548" lon="5.75414">
        <ele>613</ele>
        <time>2019-06-19T10:04:16Z</time>
      </trkpt>
      <trkpt lat="44.33555" lon="5.75423">
        <ele>612</ele>
        <time>2019-06-19T10:04:17Z</time>
      </trkpt>
      <trkpt lat="44.33562" lon="5.75431">
        <ele>612</ele>
        <time>2019-06-19T10:04:18Z</time>
      </trkpt>
      <trkpt lat="44.33569" lon="5.7544">
        <ele>611</ele>
        <time>2019-06-19T10:04:19Z</time>
      </trkpt>
      <trkpt lat="44.33576" lon="5.75448">
        <ele>611</ele>
        <time>2019-06-19T10:04:20Z</time>
      </trkpt>
      <trkpt lat="44.33583" lon="5.75456">
        <ele>611</ele>
        <time>2019-06-19T10:04:21Z</time>
      </trkpt>
      <trkpt lat="44.33591" lon="5.75463">
        <ele>610</ele>
        <time>2019-06-19T10:04:22Z</time>
      </trkpt>
      <trkpt lat="44.33598" lon="5.7547">
        <ele>610</ele>
        <time>2019-06-19T10:04:23Z</time>
      </trkpt>
      <trkpt lat="44.33606" lon="5.75477">
        <ele>609</ele>
        <time>2019-06-19T10:04:24Z</time>
      </trkpt>
      <trkpt lat="44.33614" lon="5.75483">
        <ele>609</ele>
        <time>2019-06-19T10:04:25Z</time>
      </trkpt>
      <trkpt lat="44.33622" lon="5.75489">
        <ele>609</ele>
        <time>2019-06-19T10:04:26Z</time>
      </trkpt>
      <trkpt lat="44.3363" lon="5.75494">
        <ele>609</ele>
        <time>2019-06-19T10:04:27Z</time>
      </trkpt>
      <trkpt lat="44.33638" lon="5.75501">
        <ele>608</ele>
        <time>2019-06-19T10:04:28Z</time>
      </trkpt>
      <trkpt lat="44.33644" lon="5.75508">
        <ele>608</ele>
        <time>2019-06-19T10:04:29Z</time>
      </trkpt>
      <trkpt lat="44.33651" lon="5.75517">
        <ele>608</ele>
        <time>2019-06-19T10:04:30Z</time>
      </trkpt>
      <trkpt lat="44.33655" lon="5.75527">
        <ele>608</ele>
        <time>2019-06-19T10:04:31Z</time>
      </trkpt>
      <trkpt lat="44.33659" lon="5.75537">
        <ele>608</ele>
        <time>2019-06-19T10:04:32Z</time>
      </trkpt>
      <trkpt lat="44.33663" lon="5.75547">
        <ele>607</ele>
        <time>2019-06-19T10:04:33Z</time>
      </trkpt>
      <trkpt lat="44.33667" lon="5.75558">
        <ele>607</ele>
        <time>2019-06-19T10:04:34Z</time>
      </trkpt>
      <trkpt lat="44.33672" lon="5.75568">
        <ele>607</ele>
        <time>2019-06-19T10:04:35Z</time>
      </trkpt>
      <trkpt lat="44.33676" lon="5.75578">
        <ele>607</ele>
        <time>2019-06-19T10:04:36Z</time>
      </trkpt>
      <trkpt lat="44.3368" lon="5.75588">
        <ele>607</ele>
        <time>2019-06-19T10:04:37Z</time>
      </trkpt>
      <trkpt lat="44.33684" lon="5.75598">
        <ele>607</ele>
        <time>2019-06-19T10:04:38Z</time>
      </trkpt>
      <trkpt lat="44.33688" lon="5.75608">
        <ele>607</ele>
        <time>2019-06-19T10:04:39Z</time>
      </trkpt>
      <trkpt lat="44.33692" lon="5.75618">
        <ele>607</ele>
        <time>2019-06-19T10:04:40Z</time>
      </trkpt>
      <trkpt lat="44.33696" lon="5.75627">
        <ele>607</ele>
        <time>2019-06-19T10:04:41Z</time>
      </trkpt>
      <trkpt lat="44.337" lon="5.75636">
        <ele>607</ele>
        <time>2019-06-19T10:04:42Z</time>
      </trkpt>
      <trkpt lat="44.33704" lon="5.75645">
        <ele>607</ele>
        <time>2019-06-19T10:04:43Z</time>
      </trkpt>
      <trkpt lat="44.33708" lon="5.75654">
        <ele>607</ele>
        <time>2019-06-19T10:04:44Z</time>
      </trkpt>
      <trkpt lat="44.33712" lon="5.75662">
        <ele>607</ele>
        <time>2019-06-19T10:04:45Z</time>
      </trkpt>
      <trkpt lat="44.33716" lon="5.75669">
        <ele>607</ele>
        <time>2019-06-19T10:04:46Z</time>
      </trkpt>
      <trkpt lat="44.3372" lon="5.75676">
        <ele>607</ele>
        <time>2019-06-19T10:04:47Z</time>
      </trkpt>
      <trkpt lat="44.33725" lon="5.75682">
        <ele>607</ele>
        <time>2019-06-19T10:04:48Z</time>
      </trkpt>
      <trkpt lat="44.3373" lon="5.75688">
        <ele>607</ele>
        <time>2019-06-19T10:04:49Z</time>
      </trkpt>
      <trkpt lat="44.33735" lon="5.75694">
        <ele>607</ele>
        <time>2019-06-19T10:04:50Z</time>
      </trkpt>
      <trkpt lat="44.33739" lon="5.757">
        <ele>607</ele>
        <time>2019-06-19T10:04:51Z</time>
      </trkpt>
      <trkpt lat="44.33744" lon="5.75705">
        <ele>607</ele>
        <time>2019-06-19T10:04:52Z</time>
      </trkpt>
      <trkpt lat="44.3375" lon="5.75711">
        <ele>607</ele>
        <time>2019-06-19T10:04:53Z</time>
      </trkpt>
      <trkpt lat="44.33755" lon="5.75716">
        <ele>607</ele>
        <time>2019-06-19T10:04:54Z</time>
      </trkpt>
      <trkpt lat="44.3376" lon="5.75722">
        <ele>607</ele>
        <time>2019-06-19T10:04:55Z</time>
      </trkpt>
      <trkpt lat="44.33765" lon="5.75728">
        <ele>607</ele>
        <time>2019-06-19T10:04:56Z</time>
      </trkpt>
      <trkpt lat="44.33771" lon="5.75734">
        <ele>607</ele>
        <time>2019-06-19T10:04:57Z</time>
      </trkpt>
      <trkpt lat="44.33776" lon="5.75739">
        <ele>607</ele>
        <time>2019-06-19T10:04:58Z</time>
      </trkpt>
      <trkpt lat="44.33781" lon="5.75745">
        <ele>607</ele>
        <time>2019-06-19T10:04:59Z</time>
      </trkpt>
      <trkpt lat="44.33786" lon="5.75751">
        <ele>607</ele>
        <time>2019-06-19T10:05:00Z</time>
      </trkpt>
      <trkpt lat="44.33792" lon="5.75757">
        <ele>607</ele>
        <time>2019-06-19T10:05:01Z</time>
      </trkpt>
      <trkpt lat="44.33797" lon="5.75763">
        <ele>607</ele>
        <time>2019-06-19T10:05:02Z</time>
      </trkpt>
      <trkpt lat="44.33803" lon="5.75769">
        <ele>607</ele>
        <time>2019-06-19T10:05:03Z</time>
      </trkpt>
      <trkpt lat="44.33808" lon="5.75774">
        <ele>607</ele>
        <time>2019-06-19T10:05:04Z</time>
      </trkpt>
      <trkpt lat="44.33813" lon="5.7578">
        <ele>607</ele>
        <time>2019-06-19T10:05:05Z</time>
      </trkpt>
      <trkpt lat="44.33818" lon="5.75785">
        <ele>607</ele>
        <time>2019-06-19T10:05:06Z</time>
      </trkpt>
      <trkpt lat="44.33823" lon="5.75791">
        <ele>606</ele>
        <time>2019-06-19T10:05:07Z</time>
      </trkpt>
      <trkpt lat="44.33828" lon="5.75796">
        <ele>606</ele>
        <time>2019-06-19T10:05:08Z</time>
      </trkpt>
      <trkpt lat="44.33833" lon="5.75802">
        <ele>606</ele>
        <time>2019-06-19T10:05:09Z</time>
      </trkpt>
      <trkpt lat="44.33837" lon="5.75808">
        <ele>606</ele>
        <time>2019-06-19T10:05:10Z</time>
      </trkpt>
      <trkpt lat="44.33841" lon="5.75814">
        <ele>606</ele>
        <time>2019-06-19T10:05:11Z</time>
      </trkpt>
      <trkpt lat="44.33846" lon="5.7582">
        <ele>606</ele>
        <time>2019-06-19T10:05:12Z</time>
      </trkpt>
      <trkpt lat="44.3385" lon="5.75826">
        <ele>605</ele>
        <time>2019-06-19T10:05:13Z</time>
      </trkpt>
      <trkpt lat="44.33854" lon="5.75833">
        <ele>605</ele>
        <time>2019-06-19T10:05:14Z</time>
      </trkpt>
      <trkpt lat="44.33858" lon="5.75839">
        <ele>605</ele>
        <time>2019-06-19T10:05:15Z</time>
      </trkpt>
      <trkpt lat="44.33863" lon="5.75846">
        <ele>605</ele>
        <time>2019-06-19T10:05:16Z</time>
      </trkpt>
      <trkpt lat="44.33867" lon="5.75853">
        <ele>604</ele>
        <time>2019-06-19T10:05:17Z</time>
      </trkpt>
      <trkpt lat="44.33871" lon="5.75861">
        <ele>604</ele>
        <time>2019-06-19T10:05:18Z</time>
      </trkpt>
      <trkpt lat="44.33876" lon="5.75868">
        <ele>604</ele>
        <time>2019-06-19T10:05:19Z</time>
      </trkpt>
      <trkpt lat="44.33879" lon="5.75876">
        <ele>604</ele>
        <time>2019-06-19T10:05:20Z</time>
      </trkpt>
      <trkpt lat="44.33884" lon="5.75885">
        <ele>603</ele>
        <time>2019-06-19T10:05:21Z</time>
      </trkpt>
      <trkpt lat="44.33888" lon="5.75893">
        <ele>603</ele>
        <time>2019-06-19T10:05:22Z</time>
      </trkpt>
      <trkpt lat="44.33892" lon="5.75902">
        <ele>603</ele>
        <time>2019-06-19T10:05:23Z</time>
      </trkpt>
      <trkpt lat="44.33896" lon="5.7591">
        <ele>603</ele>
        <time>2019-06-19T10:05:24Z</time>
      </trkpt>
      <trkpt lat="44.339" lon="5.75918">
        <ele>603</ele>
        <time>2019-06-19T10:05:25Z</time>
      </trkpt>
      <trkpt lat="44.33905" lon="5.75927">
        <ele>603</ele>
        <time>2019-06-19T10:05:26Z</time>
      </trkpt>
      <trkpt lat="44.33909" lon="5.75935">
        <ele>602</ele>
        <time>2019-06-19T10:05:27Z</time>
      </trkpt>
      <trkpt lat="44.33913" lon="5.75944">
        <ele>602</ele>
        <time>2019-06-19T10:05:28Z</time>
      </trkpt>
      <trkpt lat="44.33917" lon="5.75952">
        <ele>602</ele>
        <time>2019-06-19T10:05:29Z</time>
      </trkpt>
      <trkpt lat="44.33921" lon="5.7596">
        <ele>602</ele>
        <time>2019-06-19T10:05:30Z</time>
      </trkpt>
      <trkpt lat="44.33925" lon="5.75968">
        <ele>602</ele>
        <time>2019-06-19T10:05:31Z</time>
      </trkpt>
      <trkpt lat="44.33929" lon="5.75976">
        <ele>602</ele>
        <time>2019-06-19T10:05:32Z</time>
      </trkpt>
      <trkpt lat="44.33933" lon="5.75984">
        <ele>601</ele>
        <time>2019-06-19T10:05:33Z</time>
      </trkpt>
      <trkpt lat="44.33937" lon="5.75992">
        <ele>601</ele>
        <time>2019-06-19T10:05:34Z</time>
      </trkpt>
      <trkpt lat="44.33941" lon="5.76001">
        <ele>601</ele>
        <time>2019-06-19T10:05:35Z</time>
      </trkpt>
      <trkpt lat="44.33945" lon="5.7601">
        <ele>601</ele>
        <time>2019-06-19T10:05:36Z</time>
      </trkpt>
      <trkpt lat="44.3395" lon="5.76018">
        <ele>601</ele>
        <time>2019-06-19T10:05:37Z</time>
      </trkpt>
      <trkpt lat="44.33954" lon="5.76027">
        <ele>601</ele>
        <time>2019-06-19T10:05:38Z</time>
      </trkpt>
      <trkpt lat="44.33958" lon="5.76036">
        <ele>601</ele>
        <time>2019-06-19T10:05:39Z</time>
      </trkpt>
      <trkpt lat="44.33963" lon="5.76045">
        <ele>600</ele>
        <time>2019-06-19T10:05:40Z</time>
      </trkpt>
      <trkpt lat="44.33966" lon="5.76053">
        <ele>600</ele>
        <time>2019-06-19T10:05:41Z</time>
      </trkpt>
      <trkpt lat="44.33971" lon="5.76061">
        <ele>600</ele>
        <time>2019-06-19T10:05:42Z</time>
      </trkpt>
      <trkpt lat="44.33975" lon="5.76069">
        <ele>600</ele>
        <time>2019-06-19T10:05:43Z</time>
      </trkpt>
      <trkpt lat="44.33979" lon="5.76077">
        <ele>600</ele>
        <time>2019-06-19T10:05:44Z</time>
      </trkpt>
      <trkpt lat="44.33983" lon="5.76085">
        <ele>600</ele>
        <time>2019-06-19T10:05:45Z</time>
      </trkpt>
      <trkpt lat="44.33988" lon="5.76093">
        <ele>600</ele>
        <time>2019-06-19T10:05:46Z</time>
      </trkpt>
      <trkpt lat="44.33992" lon="5.76101">
        <ele>600</ele>
        <time>2019-06-19T10:05:47Z</time>
      </trkpt>
      <trkpt lat="44.33997" lon="5.76109">
        <ele>600</ele>
        <time>2019-06-19T10:05:48Z</time>
      </trkpt>
      <trkpt lat="44.34" lon="5.76117">
        <ele>600</ele>
        <time>2019-06-19T10:05:49Z</time>
      </trkpt>
      <trkpt lat="44.34005" lon="5.76124">
        <ele>600</ele>
        <time>2019-06-19T10:05:50Z</time>
      </trkpt>
      <trkpt lat="44.34009" lon="5.76132">
        <ele>600</ele>
        <time>2019-06-19T10:05:51Z</time>
      </trkpt>
      <trkpt lat="44.34013" lon="5.7614">
        <ele>600</ele>
        <time>2019-06-19T10:05:52Z</time>
      </trkpt>
      <trkpt lat="44.34017" lon="5.76149">
        <ele>600</ele>
        <time>2019-06-19T10:05:53Z</time>
      </trkpt>
      <trkpt lat="44.34021" lon="5.76157">
        <ele>600</ele>
        <time>2019-06-19T10:05:54Z</time>
      </trkpt>
      <trkpt lat="44.34026" lon="5.76165">
        <ele>600</ele>
        <time>2019-06-19T10:05:55Z</time>
      </trkpt>
      <trkpt lat="44.3403" lon="5.76174">
        <ele>600</ele>
        <time>2019-06-19T10:05:56Z</time>
      </trkpt>
      <trkpt lat="44.34034" lon="5.76182">
        <ele>600</ele>
        <time>2019-06-19T10:05:57Z</time>
      </trkpt>
      <trkpt lat="44.34038" lon="5.7619">
        <ele>600</ele>
        <time>2019-06-19T10:05:58Z</time>
      </trkpt>
      <trkpt lat="44.34042" lon="5.76198">
        <ele>600</ele>
        <time>2019-06-19T10:05:59Z</time>
      </trkpt>
      <trkpt lat="44.34046" lon="5.76206">
        <ele>600</ele>
        <time>2019-06-19T10:06:00Z</time>
      </trkpt>
      <trkpt lat="44.3405" lon="5.76215">
        <ele>600</ele>
        <time>2019-06-19T10:06:01Z</time>
      </trkpt>
      <trkpt lat="44.34054" lon="5.76222">
        <ele>600</ele>
        <time>2019-06-19T10:06:02Z</time>
      </trkpt>
      <trkpt lat="44.34058" lon="5.7623">
        <ele>600</ele>
        <time>2019-06-19T10:06:03Z</time>
      </trkpt>
      <trkpt lat="44.34062" lon="5.76239">
        <ele>599</ele>
        <time>2019-06-19T10:06:04Z</time>
      </trkpt>
      <trkpt lat="44.34066" lon="5.76248">
        <ele>599</ele>
        <time>2019-06-19T10:06:05Z</time>
      </trkpt>
      <trkpt lat="44.34071" lon="5.76256">
        <ele>599</ele>
        <time>2019-06-19T10:06:06Z</time>
      </trkpt>
      <trkpt lat="44.34075" lon="5.76264">
        <ele>599</ele>
        <time>2019-06-19T10:06:07Z</time>
      </trkpt>
      <trkpt lat="44.34079" lon="5.76273">
        <ele>598</ele>
        <time>2019-06-19T10:06:08Z</time>
      </trkpt>
      <trkpt lat="44.34083" lon="5.76282">
        <ele>598</ele>
        <time>2019-06-19T10:06:09Z</time>
      </trkpt>
      <trkpt lat="44.34088" lon="5.76292">
        <ele>598</ele>
        <time>2019-06-19T10:06:10Z</time>
      </trkpt>
      <trkpt lat="44.34092" lon="5.763">
        <ele>598</ele>
        <time>2019-06-19T10:06:11Z</time>
      </trkpt>
      <trkpt lat="44.34096" lon="5.76309">
        <ele>598</ele>
        <time>2019-06-19T10:06:12Z</time>
      </trkpt>
      <trkpt lat="44.34101" lon="5.76318">
        <ele>597</ele>
        <time>2019-06-19T10:06:13Z</time>
      </trkpt>
      <trkpt lat="44.34105" lon="5.76327">
        <ele>597</ele>
        <time>2019-06-19T10:06:14Z</time>
      </trkpt>
      <trkpt lat="44.34109" lon="5.76336">
        <ele>597</ele>
        <time>2019-06-19T10:06:15Z</time>
      </trkpt>
      <trkpt lat="44.34112" lon="5.76345">
        <ele>597</ele>
        <time>2019-06-19T10:06:16Z</time>
      </trkpt>
      <trkpt lat="44.34114" lon="5.76356">
        <ele>596</ele>
        <time>2019-06-19T10:06:17Z</time>
      </trkpt>
      <trkpt lat="44.34115" lon="5.76366">
        <ele>596</ele>
        <time>2019-06-19T10:06:18Z</time>
      </trkpt>
      <trkpt lat="44.34114" lon="5.76377">
        <ele>596</ele>
        <time>2019-06-19T10:06:19Z</time>
      </trkpt>
      <trkpt lat="44.34113" lon="5.76388">
        <ele>596</ele>
        <time>2019-06-19T10:06:20Z</time>
      </trkpt>
      <trkpt lat="44.34112" lon="5.76398">
        <ele>596</ele>
        <time>2019-06-19T10:06:21Z</time>
      </trkpt>
      <trkpt lat="44.34109" lon="5.76408">
        <ele>596</ele>
        <time>2019-06-19T10:06:22Z</time>
      </trkpt>
      <trkpt lat="44.34106" lon="5.76418">
        <ele>595</ele>
        <time>2019-06-19T10:06:23Z</time>
      </trkpt>
      <trkpt lat="44.34102" lon="5.76426">
        <ele>595</ele>
        <time>2019-06-19T10:06:24Z</time>
      </trkpt>
      <trkpt lat="44.34097" lon="5.76435">
        <ele>595</ele>
        <time>2019-06-19T10:06:25Z</time>
      </trkpt>
      <trkpt lat="44.34092" lon="5.76442">
        <ele>595</ele>
        <time>2019-06-19T10:06:26Z</time>
      </trkpt>
      <trkpt lat="44.34087" lon="5.7645">
        <ele>595</ele>
        <time>2019-06-19T10:06:27Z</time>
      </trkpt>
      <trkpt lat="44.34083" lon="5.76458">
        <ele>595</ele>
        <time>2019-06-19T10:06:28Z</time>
      </trkpt>
      <trkpt lat="44.34078" lon="5.76465">
        <ele>595</ele>
        <time>2019-06-19T10:06:29Z</time>
      </trkpt>
      <trkpt lat="44.34074" lon="5.76473">
        <ele>595</ele>
        <time>2019-06-19T10:06:30Z</time>
      </trkpt>
      <trkpt lat="44.3407" lon="5.7648">
        <ele>595</ele>
        <time>2019-06-19T10:06:31Z</time>
      </trkpt>
      <trkpt lat="44.34066" lon="5.76488">
        <ele>595</ele>
        <time>2019-06-19T10:06:32Z</time>
      </trkpt>
      <trkpt lat="44.34063" lon="5.76495">
        <ele>594</ele>
        <time>2019-06-19T10:06:33Z</time>
      </trkpt>
      <trkpt lat="44.34059" lon="5.76502">
        <ele>594</ele>
        <time>2019-06-19T10:06:34Z</time>
      </trkpt>
      <trkpt lat="44.34055" lon="5.76509">
        <ele>594</ele>
        <time>2019-06-19T10:06:35Z</time>
      </trkpt>
      <trkpt lat="44.34052" lon="5.76516">
        <ele>594</ele>
        <time>2019-06-19T10:06:36Z</time>
      </trkpt>
      <trkpt lat="44.34048" lon="5.76523">
        <ele>593</ele>
        <time>2019-06-19T10:06:37Z</time>
      </trkpt>
      <trkpt lat="44.34043" lon="5.76529">
        <ele>593</ele>
        <time>2019-06-19T10:06:38Z</time>
      </trkpt>
      <trkpt lat="44.34039" lon="5.76536">
        <ele>593</ele>
        <time>2019-06-19T10:06:39Z</time>
      </trkpt>
      <trkpt lat="44.34035" lon="5.76542">
        <ele>592</ele>
        <time>2019-06-19T10:06:40Z</time>
      </trkpt>
      <trkpt lat="44.34032" lon="5.76549">
        <ele>592</ele>
        <time>2019-06-19T10:06:41Z</time>
      </trkpt>
      <trkpt lat="44.34029" lon="5.76557">
        <ele>592</ele>
        <time>2019-06-19T10:06:42Z</time>
      </trkpt>
      <trkpt lat="44.34026" lon="5.76564">
        <ele>592</ele>
        <time>2019-06-19T10:06:43Z</time>
      </trkpt>
      <trkpt lat="44.34025" lon="5.76573">
        <ele>592</ele>
        <time>2019-06-19T10:06:44Z</time>
      </trkpt>
      <trkpt lat="44.34026" lon="5.76582">
        <ele>592</ele>
        <time>2019-06-19T10:06:45Z</time>
      </trkpt>
      <trkpt lat="44.34028" lon="5.76591">
        <ele>592</ele>
        <time>2019-06-19T10:06:46Z</time>
      </trkpt>
      <trkpt lat="44.34031" lon="5.766">
        <ele>592</ele>
        <time>2019-06-19T10:06:47Z</time>
      </trkpt>
      <trkpt lat="44.34033" lon="5.76609">
        <ele>592</ele>
        <time>2019-06-19T10:06:48Z</time>
      </trkpt>
      <trkpt lat="44.34036" lon="5.76617">
        <ele>592</ele>
        <time>2019-06-19T10:06:49Z</time>
      </trkpt>
      <trkpt lat="44.34041" lon="5.76625">
        <ele>592</ele>
        <time>2019-06-19T10:06:50Z</time>
      </trkpt>
      <trkpt lat="44.34045" lon="5.76633">
        <ele>592</ele>
        <time>2019-06-19T10:06:51Z</time>
      </trkpt>
      <trkpt lat="44.34049" lon="5.7664">
        <ele>592</ele>
        <time>2019-06-19T10:06:52Z</time>
      </trkpt>
      <trkpt lat="44.34053" lon="5.76647">
        <ele>592</ele>
        <time>2019-06-19T10:06:53Z</time>
      </trkpt>
      <trkpt lat="44.34055" lon="5.76655">
        <ele>592</ele>
        <time>2019-06-19T10:06:54Z</time>
      </trkpt>
      <trkpt lat="44.34055" lon="5.76664">
        <ele>592</ele>
        <time>2019-06-19T10:06:55Z</time>
      </trkpt>
      <trkpt lat="44.34052" lon="5.76672">
        <ele>592</ele>
        <time>2019-06-19T10:06:56Z</time>
      </trkpt>
      <trkpt lat="44.34048" lon="5.76679">
        <ele>592</ele>
        <time>2019-06-19T10:06:57Z</time>
      </trkpt>
      <trkpt lat="44.34042" lon="5.76683">
        <ele>591</ele>
        <time>2019-06-19T10:06:58Z</time>
      </trkpt>
      <trkpt lat="44.34036" lon="5.76687">
        <ele>591</ele>
        <time>2019-06-19T10:06:59Z</time>
      </trkpt>
      <trkpt lat="44.3403" lon="5.76691">
        <ele>591</ele>
        <time>2019-06-19T10:07:00Z</time>
      </trkpt>
      <trkpt lat="44.34024" lon="5.76695">
        <ele>591</ele>
        <time>2019-06-19T10:07:01Z</time>
      </trkpt>
      <trkpt lat="44.34019" lon="5.767">
        <ele>591</ele>
        <time>2019-06-19T10:07:02Z</time>
      </trkpt>
      <trkpt lat="44.34015" lon="5.76707">
        <ele>591</ele>
        <time>2019-06-19T10:07:03Z</time>
      </trkpt>
      <trkpt lat="44.34012" lon="5.76714">
        <ele>591</ele>
        <time>2019-06-19T10:07:04Z</time>
      </trkpt>
      <trkpt lat="44.3401" lon="5.76722">
        <ele>591</ele>
        <time>2019-06-19T10:07:05Z</time>
      </trkpt>
      <trkpt lat="44.34009" lon="5.7673">
        <ele>591</ele>
        <time>2019-06-19T10:07:06Z</time>
      </trkpt>
      <trkpt lat="44.34009" lon="5.76737">
        <ele>591</ele>
        <time>2019-06-19T10:07:07Z</time>
      </trkpt>
      <trkpt lat="44.3401" lon="5.76744">
        <ele>591</ele>
        <time>2019-06-19T10:07:08Z</time>
      </trkpt>
      <trkpt lat="44.34011" lon="5.76751">
        <ele>591</ele>
        <time>2019-06-19T10:07:09Z</time>
      </trkpt>
      <trkpt lat="44.34012" lon="5.76757">
        <ele>591</ele>
        <time>2019-06-19T10:07:10Z</time>
      </trkpt>
      <trkpt lat="44.34013" lon="5.76763">
        <ele>591</ele>
        <time>2019-06-19T10:07:11Z</time>
      </trkpt>
      <trkpt lat="44.34015" lon="5.7677">
        <ele>591</ele>
        <time>2019-06-19T10:07:12Z</time>
      </trkpt>
      <trkpt lat="44.34016" lon="5.76777">
        <ele>591</ele>
        <time>2019-06-19T10:07:13Z</time>
      </trkpt>
      <trkpt lat="44.34017" lon="5.76783">
        <ele>591</ele>
        <time>2019-06-19T10:07:14Z</time>
      </trkpt>
      <trkpt lat="44.34018" lon="5.7679">
        <ele>591</ele>
        <time>2019-06-19T10:07:15Z</time>
      </trkpt>
      <trkpt lat="44.34018" lon="5.76796">
        <ele>592</ele>
        <time>2019-06-19T10:07:16Z</time>
      </trkpt>
      <trkpt lat="44.34019" lon="5.76802">
        <ele>592</ele>
        <time>2019-06-19T10:07:17Z</time>
      </trkpt>
      <trkpt lat="44.34019" lon="5.76809">
        <ele>593</ele>
        <time>2019-06-19T10:07:18Z</time>
      </trkpt>
      <trkpt lat="44.34018" lon="5.76816">
        <ele>594</ele>
        <time>2019-06-19T10:07:19Z</time>
      </trkpt>
      <trkpt lat="44.34017" lon="5.76823">
        <ele>594</ele>
        <time>2019-06-19T10:07:20Z</time>
      </trkpt>
      <trkpt lat="44.34016" lon="5.76829">
        <ele>594</ele>
        <time>2019-06-19T10:07:21Z</time>
      </trkpt>
      <trkpt lat="44.34015" lon="5.76836">
        <ele>595</ele>
        <time>2019-06-19T10:07:22Z</time>
      </trkpt>
      <trkpt lat="44.34014" lon="5.76842">
        <ele>595</ele>
        <time>2019-06-19T10:07:23Z</time>
      </trkpt>
      <trkpt lat="44.34013" lon="5.76849">
        <ele>595</ele>
        <time>2019-06-19T10:07:24Z</time>
      </trkpt>
      <trkpt lat="44.34011" lon="5.76855">
        <ele>595</ele>
        <time>2019-06-19T10:07:25Z</time>
      </trkpt>
      <trkpt lat="44.34009" lon="5.76862">
        <ele>596</ele>
        <time>2019-06-19T10:07:26Z</time>
      </trkpt>
      <trkpt lat="44.34008" lon="5.76868">
        <ele>596</ele>
        <time>2019-06-19T10:07:27Z</time>
      </trkpt>
      <trkpt lat="44.34006" lon="5.76875">
        <ele>596</ele>
        <time>2019-06-19T10:07:28Z</time>
      </trkpt>
      <trkpt lat="44.34005" lon="5.76881">
        <ele>596</ele>
        <time>2019-06-19T10:07:29Z</time>
      </trkpt>
      <trkpt lat="44.34003" lon="5.76888">
        <ele>597</ele>
        <time>2019-06-19T10:07:30Z</time>
      </trkpt>
      <trkpt lat="44.34001" lon="5.76895">
        <ele>597</ele>
        <time>2019-06-19T10:07:31Z</time>
      </trkpt>
      <trkpt lat="44.34" lon="5.76901">
        <ele>597</ele>
        <time>2019-06-19T10:07:32Z</time>
      </trkpt>
      <trkpt lat="44.33999" lon="5.76908">
        <ele>598</ele>
        <time>2019-06-19T10:07:33Z</time>
      </trkpt>
      <trkpt lat="44.33997" lon="5.76915">
        <ele>598</ele>
        <time>2019-06-19T10:07:34Z</time>
      </trkpt>
      <trkpt lat="44.33995" lon="5.76921">
        <ele>598</ele>
        <time>2019-06-19T10:07:35Z</time>
      </trkpt>
      <trkpt lat="44.33994" lon="5.76928">
        <ele>598</ele>
        <time>2019-06-19T10:07:36Z</time>
      </trkpt>
      <trkpt lat="44.33994" lon="5.76934">
        <ele>599</ele>
        <time>2019-06-19T10:07:37Z</time>
      </trkpt>
      <trkpt lat="44.33994" lon="5.7694">
        <ele>599</ele>
        <time>2019-06-19T10:07:38Z</time>
      </trkpt>
      <trkpt lat="44.33994" lon="5.76947">
        <ele>599</ele>
        <time>2019-06-19T10:07:39Z</time>
      </trkpt>
      <trkpt lat="44.33993" lon="5.76954">
        <ele>599</ele>
        <time>2019-06-19T10:07:40Z</time>
      </trkpt>
      <trkpt lat="44.33992" lon="5.76961">
        <ele>600</ele>
        <time>2019-06-19T10:07:41Z</time>
      </trkpt>
      <trkpt lat="44.33992" lon="5.76967">
        <ele>600</ele>
        <time>2019-06-19T10:07:42Z</time>
      </trkpt>
      <trkpt lat="44.33991" lon="5.76974">
        <ele>600</ele>
        <time>2019-06-19T10:07:43Z</time>
      </trkpt>
      <trkpt lat="44.33991" lon="5.7698">
        <ele>600</ele>
        <time>2019-06-19T10:07:44Z</time>
      </trkpt>
      <trkpt lat="44.3399" lon="5.76987">
        <ele>601</ele>
        <time>2019-06-19T10:07:45Z</time>
      </trkpt>
      <trkpt lat="44.33989" lon="5.76993">
        <ele>602</ele>
        <time>2019-06-19T10:07:46Z</time>
      </trkpt>
      <trkpt lat="44.33986" lon="5.76999">
        <ele>602</ele>
        <time>2019-06-19T10:07:47Z</time>
      </trkpt>
      <trkpt lat="44.33984" lon="5.77004">
        <ele>602</ele>
        <time>2019-06-19T10:07:48Z</time>
      </trkpt>
      <trkpt lat="44.33983" lon="5.7701">
        <ele>602</ele>
        <time>2019-06-19T10:07:49Z</time>
      </trkpt>
      <trkpt lat="44.33983" lon="5.77015">
        <ele>602</ele>
        <time>2019-06-19T10:07:50Z</time>
      </trkpt>
      <trkpt lat="44.33983" lon="5.77021">
        <ele>602</ele>
        <time>2019-06-19T10:07:51Z</time>
      </trkpt>
      <trkpt lat="44.33982" lon="5.77026">
        <ele>602</ele>
        <time>2019-06-19T10:07:52Z</time>
      </trkpt>
      <trkpt lat="44.33982" lon="5.77031">
        <ele>602</ele>
        <time>2019-06-19T10:07:53Z</time>
      </trkpt>
      <trkpt lat="44.33981" lon="5.77036">
        <ele>602</ele>
        <time>2019-06-19T10:07:54Z</time>
      </trkpt>
      <trkpt lat="44.33981" lon="5.7704">
        <ele>602</ele>
        <time>2019-06-19T10:07:55Z</time>
      </trkpt>
      <trkpt lat="44.33981" lon="5.77045">
        <ele>602</ele>
        <time>2019-06-19T10:07:56Z</time>
      </trkpt>
      <trkpt lat="44.3398" lon="5.7705">
        <ele>602</ele>
        <time>2019-06-19T10:07:57Z</time>
      </trkpt>
      <trkpt lat="44.33979" lon="5.77055">
        <ele>602</ele>
        <time>2019-06-19T10:07:58Z</time>
      </trkpt>
      <trkpt lat="44.33979" lon="5.77061">
        <ele>602</ele>
        <time>2019-06-19T10:07:59Z</time>
      </trkpt>
      <trkpt lat="44.33978" lon="5.77066">
        <ele>602</ele>
        <time>2019-06-19T10:08:00Z</time>
      </trkpt>
      <trkpt lat="44.33976" lon="5.77071">
        <ele>602</ele>
        <time>2019-06-19T10:08:01Z</time>
      </trkpt>
      <trkpt lat="44.33976" lon="5.77075">
        <ele>602</ele>
        <time>2019-06-19T10:08:02Z</time>
      </trkpt>
      <trkpt lat="44.33975" lon="5.7708">
        <ele>603</ele>
        <time>2019-06-19T10:08:03Z</time>
      </trkpt>
      <trkpt lat="44.33974" lon="5.77085">
        <ele>603</ele>
        <time>2019-06-19T10:08:04Z</time>
      </trkpt>
      <trkpt lat="44.33975" lon="5.7709">
        <ele>603</ele>
        <time>2019-06-19T10:08:05Z</time>
      </trkpt>
      <trkpt lat="44.33975" lon="5.77094">
        <ele>603</ele>
        <time>2019-06-19T10:08:06Z</time>
      </trkpt>
      <trkpt lat="44.33975" lon="5.77098">
        <ele>604</ele>
        <time>2019-06-19T10:08:07Z</time>
      </trkpt>
      <trkpt lat="44.33975" lon="5.77101">
        <ele>604</ele>
        <time>2019-06-19T10:08:08Z</time>
      </trkpt>
      <trkpt lat="44.33975" lon="5.77105">
        <ele>604</ele>
        <time>2019-06-19T10:08:09Z</time>
      </trkpt>
      <trkpt lat="44.33975" lon="5.77109">
        <ele>604</ele>
        <time>2019-06-19T10:08:10Z</time>
      </trkpt>
      <trkpt lat="44.33975" lon="5.77113">
        <ele>604</ele>
        <time>2019-06-19T10:08:11Z</time>
      </trkpt>
      <trkpt lat="44.33975" lon="5.77116">
        <ele>604</ele>
        <time>2019-06-19T10:08:12Z</time>
      </trkpt>
      <trkpt lat="44.33976" lon="5.77119">
        <ele>604</ele>
        <time>2019-06-19T10:08:13Z</time>
      </trkpt>
      <trkpt lat="44.33976" lon="5.77122">
        <ele>604</ele>
        <time>2019-06-19T10:08:14Z</time>
      </trkpt>
      <trkpt lat="44.33976" lon="5.77126">
        <ele>604</ele>
        <time>2019-06-19T10:08:15Z</time>
      </trkpt>
      <trkpt lat="44.33977" lon="5.7713">
        <ele>604</ele>
        <time>2019-06-19T10:08:16Z</time>
      </trkpt>
      <trkpt lat="44.33978" lon="5.77133">
        <ele>605</ele>
        <time>2019-06-19T10:08:17Z</time>
      </trkpt>
      <trkpt lat="44.33978" lon="5.77137">
        <ele>605</ele>
        <time>2019-06-19T10:08:18Z</time>
      </trkpt>
      <trkpt lat="44.33978" lon="5.77141">
        <ele>605</ele>
        <time>2019-06-19T10:08:19Z</time>
      </trkpt>
      <trkpt lat="44.33977" lon="5.77144">
        <ele>605</ele>
        <time>2019-06-19T10:08:20Z</time>
      </trkpt>
      <trkpt lat="44.33978" lon="5.77149">
        <ele>606</ele>
        <time>2019-06-19T10:08:21Z</time>
      </trkpt>
      <trkpt lat="44.33978" lon="5.77152">
        <ele>606</ele>
        <time>2019-06-19T10:08:22Z</time>
      </trkpt>
      <trkpt lat="44.33979" lon="5.77156">
        <ele>606</ele>
        <time>2019-06-19T10:08:23Z</time>
      </trkpt>
      <trkpt lat="44.33979" lon="5.7716">
        <ele>606</ele>
        <time>2019-06-19T10:08:24Z</time>
      </trkpt>
      <trkpt lat="44.33979" lon="5.77163">
        <ele>606</ele>
        <time>2019-06-19T10:08:25Z</time>
      </trkpt>
      <trkpt lat="44.33979" lon="5.77167">
        <ele>607</ele>
        <time>2019-06-19T10:08:26Z</time>
      </trkpt>
      <trkpt lat="44.3398" lon="5.77171">
        <ele>607</ele>
        <time>2019-06-19T10:08:27Z</time>
      </trkpt>
      <trkpt lat="44.3398" lon="5.77174">
        <ele>608</ele>
        <time>2019-06-19T10:08:28Z</time>
      </trkpt>
      <trkpt lat="44.33981" lon="5.77178">
        <ele>608</ele>
        <time>2019-06-19T10:08:29Z</time>
      </trkpt>
      <trkpt lat="44.33981" lon="5.77182">
        <ele>608</ele>
        <time>2019-06-19T10:08:30Z</time>
      </trkpt>
      <trkpt lat="44.33981" lon="5.77185">
        <ele>609</ele>
        <time>2019-06-19T10:08:31Z</time>
      </trkpt>
      <trkpt lat="44.33981" lon="5.77189">
        <ele>609</ele>
        <time>2019-06-19T10:08:32Z</time>
      </trkpt>
      <trkpt lat="44.33981" lon="5.77192">
        <ele>609</ele>
        <time>2019-06-19T10:08:33Z</time>
      </trkpt>
      <trkpt lat="44.33979" lon="5.77196">
        <ele>609</ele>
        <time>2019-06-19T10:08:34Z</time>
      </trkpt>
      <trkpt lat="44.33978" lon="5.772">
        <ele>609</ele>
        <time>2019-06-19T10:08:35Z</time>
      </trkpt>
      <trkpt lat="44.33978" lon="5.77203">
        <ele>609</ele>
        <time>2019-06-19T10:08:36Z</time>
      </trkpt>
      <trkpt lat="44.33979" lon="5.77207">
        <ele>609</ele>
        <time>2019-06-19T10:08:37Z</time>
      </trkpt>
      <trkpt lat="44.33979" lon="5.77211">
        <ele>609</ele>
        <time>2019-06-19T10:08:38Z</time>
      </trkpt>
      <trkpt lat="44.33979" lon="5.77214">
        <ele>609</ele>
        <time>2019-06-19T10:08:39Z</time>
      </trkpt>
      <trkpt lat="44.33979" lon="5.77218">
        <ele>610</ele>
        <time>2019-06-19T10:08:40Z</time>
      </trkpt>
      <trkpt lat="44.33979" lon="5.77222">
        <ele>610</ele>
        <time>2019-06-19T10:08:41Z</time>
      </trkpt>
      <trkpt lat="44.33978" lon="5.77225">
        <ele>610</ele>
        <time>2019-06-19T10:08:42Z</time>
      </trkpt>
      <trkpt lat="44.33978" lon="5.77229">
        <ele>611</ele>
        <time>2019-06-19T10:08:43Z</time>
      </trkpt>
      <trkpt lat="44.33978" lon="5.77233">
        <ele>611</ele>
        <time>2019-06-19T10:08:44Z</time>
      </trkpt>
      <trkpt lat="44.33977" lon="5.77237">
        <ele>611</ele>
        <time>2019-06-19T10:08:45Z</time>
      </trkpt>
      <trkpt lat="44.33977" lon="5.7724">
        <ele>611</ele>
        <time>2019-06-19T10:08:46Z</time>
      </trkpt>
      <trkpt lat="44.33977" lon="5.77244">
        <ele>612</ele>
        <time>2019-06-19T10:08:47Z</time>
      </trkpt>
      <trkpt lat="44.33977" lon="5.77248">
        <ele>612</ele>
        <time>2019-06-19T10:08:48Z</time>
      </trkpt>
      <trkpt lat="44.33977" lon="5.77252">
        <ele>612</ele>
        <time>2019-06-19T10:08:49Z</time>
      </trkpt>
      <trkpt lat="44.33976" lon="5.77255">
        <ele>613</ele>
        <time>2019-06-19T10:08:50Z</time>
      </trkpt>
      <trkpt lat="44.33976" lon="5.77259">
        <ele>613</ele>
        <time>2019-06-19T10:08:51Z</time>
      </trkpt>
      <trkpt lat="44.33976" lon="5.77263">
        <ele>613</ele>
        <time>2019-06-19T10:08:52Z</time>
      </trkpt>
      <trkpt lat="44.33976" lon="5.77267">
        <ele>614</ele>
        <time>2019-06-19T10:08:53Z</time>
      </trkpt>
      <trkpt lat="44.33977" lon="5.7727">
        <ele>614</ele>
        <time>2019-06-19T10:08:54Z</time>
      </trkpt>
      <trkpt lat="44.33977" lon="5.77273">
        <ele>614</ele>
        <time>2019-06-19T10:08:55Z</time>
      </trkpt>
      <trkpt lat="44.33978" lon="5.77277">
        <ele>615</ele>
        <time>2019-06-19T10:08:56Z</time>
      </trkpt>
      <trkpt lat="44.33978" lon="5.77281">
        <ele>615</ele>
        <time>2019-06-19T10:08:57Z</time>
      </trkpt>
      <trkpt lat="44.33979" lon="5.77284">
        <ele>616</ele>
        <time>2019-06-19T10:08:58Z</time>
      </trkpt>
      <trkpt lat="44.33979" lon="5.77288">
        <ele>616</ele>
        <time>2019-06-19T10:08:59Z</time>
      </trkpt>
      <trkpt lat="44.3398" lon="5.77291">
        <ele>616</ele>
        <time>2019-06-19T10:09:00Z</time>
      </trkpt>
      <trkpt lat="44.33981" lon="5.77295">
        <ele>617</ele>
        <time>2019-06-19T10:09:01Z</time>
      </trkpt>
      <trkpt lat="44.33981" lon="5.77299">
        <ele>617</ele>
        <time>2019-06-19T10:09:02Z</time>
      </trkpt>
      <trkpt lat="44.33981" lon="5.77302">
        <ele>617</ele>
        <time>2019-06-19T10:09:03Z</time>
      </trkpt>
      <trkpt lat="44.33982" lon="5.77306">
        <ele>617</ele>
        <time>2019-06-19T10:09:04Z</time>
      </trkpt>
      <trkpt lat="44.33983" lon="5.7731">
        <ele>617</ele>
        <time>2019-06-19T10:09:05Z</time>
      </trkpt>
      <trkpt lat="44.33983" lon="5.77314">
        <ele>617</ele>
        <time>2019-06-19T10:09:06Z</time>
      </trkpt>
      <trkpt lat="44.33982" lon="5.77318">
        <ele>617</ele>
        <time>2019-06-19T10:09:07Z</time>
      </trkpt>
      <trkpt lat="44.33983" lon="5.77322">
        <ele>617</ele>
        <time>2019-06-19T10:09:08Z</time>
      </trkpt>
      <trkpt lat="44.33983" lon="5.77325">
        <ele>617</ele>
        <time>2019-06-19T10:09:09Z</time>
      </trkpt>
      <trkpt lat="44.33984" lon="5.77329">
        <ele>618</ele>
        <time>2019-06-19T10:09:10Z</time>
      </trkpt>
      <trkpt lat="44.33985" lon="5.77332">
        <ele>618</ele>
        <time>2019-06-19T10:09:11Z</time>
      </trkpt>
      <trkpt lat="44.33985" lon="5.77336">
        <ele>619</ele>
        <time>2019-06-19T10:09:12Z</time>
      </trkpt>
      <trkpt lat="44.33985" lon="5.7734">
        <ele>619</ele>
        <time>2019-06-19T10:09:13Z</time>
      </trkpt>
      <trkpt lat="44.33984" lon="5.77344">
        <ele>619</ele>
        <time>2019-06-19T10:09:14Z</time>
      </trkpt>
      <trkpt lat="44.33984" lon="5.77348">
        <ele>620</ele>
        <time>2019-06-19T10:09:15Z</time>
      </trkpt>
      <trkpt lat="44.33984" lon="5.77352">
        <ele>620</ele>
        <time>2019-06-19T10:09:16Z</time>
      </trkpt>
      <trkpt lat="44.33983" lon="5.77357">
        <ele>620</ele>
        <time>2019-06-19T10:09:17Z</time>
      </trkpt>
      <trkpt lat="44.33983" lon="5.77361">
        <ele>620</ele>
        <time>2019-06-19T10:09:18Z</time>
      </trkpt>
      <trkpt lat="44.33981" lon="5.77365">
        <ele>620</ele>
        <time>2019-06-19T10:09:19Z</time>
      </trkpt>
      <trkpt lat="44.3398" lon="5.77369">
        <ele>620</ele>
        <time>2019-06-19T10:09:20Z</time>
      </trkpt>
      <trkpt lat="44.33979" lon="5.77373">
        <ele>620</ele>
        <time>2019-06-19T10:09:21Z</time>
      </trkpt>
      <trkpt lat="44.33978" lon="5.77376">
        <ele>620</ele>
        <time>2019-06-19T10:09:22Z</time>
      </trkpt>
      <trkpt lat="44.33977" lon="5.7738">
        <ele>621</ele>
        <time>2019-06-19T10:09:23Z</time>
      </trkpt>
      <trkpt lat="44.33976" lon="5.77383">
        <ele>621</ele>
        <time>2019-06-19T10:09:24Z</time>
      </trkpt>
      <trkpt lat="44.33975" lon="5.77387">
        <ele>621</ele>
        <time>2019-06-19T10:09:25Z</time>
      </trkpt>
      <trkpt lat="44.33974" lon="5.7739">
        <ele>621</ele>
        <time>2019-06-19T10:09:26Z</time>
      </trkpt>
      <trkpt lat="44.33974" lon="5.77394">
        <ele>621</ele>
        <time>2019-06-19T10:09:27Z</time>
      </trkpt>
      <trkpt lat="44.33974" lon="5.77399">
        <ele>621</ele>
        <time>2019-06-19T10:09:28Z</time>
      </trkpt>
      <trkpt lat="44.33974" lon="5.77403">
        <ele>621</ele>
        <time>2019-06-19T10:09:29Z</time>
      </trkpt>
      <trkpt lat="44.33975" lon="5.77407">
        <ele>621</ele>
        <time>2019-06-19T10:09:30Z</time>
      </trkpt>
      <trkpt lat="44.33976" lon="5.77412">
        <ele>621</ele>
        <time>2019-06-19T10:09:31Z</time>
      </trkpt>
      <trkpt lat="44.33977" lon="5.77417">
        <ele>621</ele>
        <time>2019-06-19T10:09:32Z</time>
      </trkpt>
      <trkpt lat="44.33978" lon="5.77421">
        <ele>621</ele>
        <time>2019-06-19T10:09:33Z</time>
      </trkpt>
      <trkpt lat="44.33979" lon="5.77425">
        <ele>621</ele>
        <time>2019-06-19T10:09:34Z</time>
      </trkpt>
      <trkpt lat="44.3398" lon="5.77429">
        <ele>621</ele>
        <time>2019-06-19T10:09:35Z</time>
      </trkpt>
      <trkpt lat="44.33981" lon="5.77433">
        <ele>621</ele>
        <time>2019-06-19T10:09:36Z</time>
      </trkpt>
      <trkpt lat="44.33982" lon="5.77437">
        <ele>621</ele>
        <time>2019-06-19T10:09:37Z</time>
      </trkpt>
      <trkpt lat="44.33983" lon="5.77441">
        <ele>621</ele>
        <time>2019-06-19T10:09:38Z</time>
      </trkpt>
      <trkpt lat="44.33984" lon="5.77445">
        <ele>621</ele>
        <time>2019-06-19T10:09:39Z</time>
      </trkpt>
      <trkpt lat="44.33986" lon="5.77448">
        <ele>621</ele>
        <time>2019-06-19T10:09:40Z</time>
      </trkpt>
      <trkpt lat="44.33987" lon="5.77451">
        <ele>621</ele>
        <time>2019-06-19T10:09:41Z</time>
      </trkpt>
      <trkpt lat="44.33989" lon="5.77455">
        <ele>621</ele>
        <time>2019-06-19T10:09:42Z</time>
      </trkpt>
      <trkpt lat="44.3399" lon="5.77458">
        <ele>621</ele>
        <time>2019-06-19T10:09:43Z</time>
      </trkpt>
      <trkpt lat="44.33992" lon="5.77461">
        <ele>622</ele>
        <time>2019-06-19T10:09:44Z</time>
      </trkpt>
      <trkpt lat="44.33993" lon="5.77464">
        <ele>622</ele>
        <time>2019-06-19T10:09:45Z</time>
      </trkpt>
      <trkpt lat="44.33995" lon="5.77468">
        <ele>623</ele>
        <time>2019-06-19T10:09:46Z</time>
      </trkpt>
      <trkpt lat="44.33996" lon="5.77471">
        <ele>623</ele>
        <time>2019-06-19T10:09:47Z</time>
      </trkpt>
      <trkpt lat="44.33997" lon="5.77475">
        <ele>624</ele>
        <time>2019-06-19T10:09:48Z</time>
      </trkpt>
      <trkpt lat="44.33998" lon="5.77478">
        <ele>624</ele>
        <time>2019-06-19T10:09:49Z</time>
      </trkpt>
      <trkpt lat="44.34" lon="5.77482">
        <ele>625</ele>
        <time>2019-06-19T10:09:50Z</time>
      </trkpt>
      <trkpt lat="44.34001" lon="5.77485">
        <ele>625</ele>
        <time>2019-06-19T10:09:51Z</time>
      </trkpt>
      <trkpt lat="44.34002" lon="5.77489">
        <ele>626</ele>
        <time>2019-06-19T10:09:52Z</time>
      </trkpt>
      <trkpt lat="44.34003" lon="5.77492">
        <ele>627</ele>
        <time>2019-06-19T10:09:53Z</time>
      </trkpt>
      <trkpt lat="44.34004" lon="5.77496">
        <ele>627</ele>
        <time>2019-06-19T10:09:54Z</time>
      </trkpt>
      <trkpt lat="44.34004" lon="5.775">
        <ele>627</ele>
        <time>2019-06-19T10:09:55Z</time>
      </trkpt>
      <trkpt lat="44.34005" lon="5.77504">
        <ele>627</ele>
        <time>2019-06-19T10:09:56Z</time>
      </trkpt>
      <trkpt lat="44.34005" lon="5.77509">
        <ele>628</ele>
        <time>2019-06-19T10:09:57Z</time>
      </trkpt>
      <trkpt lat="44.34005" lon="5.77514">
        <ele>628</ele>
        <time>2019-06-19T10:09:58Z</time>
      </trkpt>
      <trkpt lat="44.34003" lon="5.77519">
        <ele>628</ele>
        <time>2019-06-19T10:09:59Z</time>
      </trkpt>
      <trkpt lat="44.34001" lon="5.77524">
        <ele>628</ele>
        <time>2019-06-19T10:10:00Z</time>
      </trkpt>
      <trkpt lat="44.33998" lon="5.77529">
        <ele>628</ele>
        <time>2019-06-19T10:10:01Z</time>
      </trkpt>
      <trkpt lat="44.33996" lon="5.77534">
        <ele>628</ele>
        <time>2019-06-19T10:10:02Z</time>
      </trkpt>
      <trkpt lat="44.33993" lon="5.77539">
        <ele>629</ele>
        <time>2019-06-19T10:10:03Z</time>
      </trkpt>
      <trkpt lat="44.33991" lon="5.77544">
        <ele>629</ele>
        <time>2019-06-19T10:10:04Z</time>
      </trkpt>
      <trkpt lat="44.33988" lon="5.7755">
        <ele>629</ele>
        <time>2019-06-19T10:10:05Z</time>
      </trkpt>
      <trkpt lat="44.33986" lon="5.77557">
        <ele>629</ele>
        <time>2019-06-19T10:10:06Z</time>
      </trkpt>
      <trkpt lat="44.33983" lon="5.77563">
        <ele>630</ele>
        <time>2019-06-19T10:10:07Z</time>
      </trkpt>
      <trkpt lat="44.33981" lon="5.7757">
        <ele>630</ele>
        <time>2019-06-19T10:10:08Z</time>
      </trkpt>
      <trkpt lat="44.33978" lon="5.77577">
        <ele>630</ele>
        <time>2019-06-19T10:10:09Z</time>
      </trkpt>
      <trkpt lat="44.33974" lon="5.77584">
        <ele>631</ele>
        <time>2019-06-19T10:10:10Z</time>
      </trkpt>
      <trkpt lat="44.33971" lon="5.77592">
        <ele>631</ele>
        <time>2019-06-19T10:10:11Z</time>
      </trkpt>
      <trkpt lat="44.33967" lon="5.77599">
        <ele>631</ele>
        <time>2019-06-19T10:10:12Z</time>
      </trkpt>
      <trkpt lat="44.33963" lon="5.77607">
        <ele>631</ele>
        <time>2019-06-19T10:10:13Z</time>
      </trkpt>
      <trkpt lat="44.33958" lon="5.77614">
        <ele>631</ele>
        <time>2019-06-19T10:10:14Z</time>
      </trkpt>
      <trkpt lat="44.33954" lon="5.77621">
        <ele>631</ele>
        <time>2019-06-19T10:10:15Z</time>
      </trkpt>
      <trkpt lat="44.33949" lon="5.77627">
        <ele>631</ele>
        <time>2019-06-19T10:10:16Z</time>
      </trkpt>
      <trkpt lat="44.33943" lon="5.77633">
        <ele>631</ele>
        <time>2019-06-19T10:10:17Z</time>
      </trkpt>
      <trkpt lat="44.33936" lon="5.77639">
        <ele>631</ele>
        <time>2019-06-19T10:10:18Z</time>
      </trkpt>
      <trkpt lat="44.3393" lon="5.77645">
        <ele>631</ele>
        <time>2019-06-19T10:10:19Z</time>
      </trkpt>
      <trkpt lat="44.33923" lon="5.77651">
        <ele>631</ele>
        <time>2019-06-19T10:10:20Z</time>
      </trkpt>
      <trkpt lat="44.33916" lon="5.77656">
        <ele>631</ele>
        <time>2019-06-19T10:10:21Z</time>
      </trkpt>
      <trkpt lat="44.33909" lon="5.7766">
        <ele>631</ele>
        <time>2019-06-19T10:10:22Z</time>
      </trkpt>
      <trkpt lat="44.33902" lon="5.77663">
        <ele>631</ele>
        <time>2019-06-19T10:10:23Z</time>
      </trkpt>
      <trkpt lat="44.33894" lon="5.77665">
        <ele>631</ele>
        <time>2019-06-19T10:10:24Z</time>
      </trkpt>
      <trkpt lat="44.33886" lon="5.77666">
        <ele>630</ele>
        <time>2019-06-19T10:10:25Z</time>
      </trkpt>
      <trkpt lat="44.33878" lon="5.77665">
        <ele>630</ele>
        <time>2019-06-19T10:10:26Z</time>
      </trkpt>
      <trkpt lat="44.33871" lon="5.77663">
        <ele>629</ele>
        <time>2019-06-19T10:10:27Z</time>
      </trkpt>
      <trkpt lat="44.33863" lon="5.7766">
        <ele>629</ele>
        <time>2019-06-19T10:10:28Z</time>
      </trkpt>
      <trkpt lat="44.33856" lon="5.77655">
        <ele>628</ele>
        <time>2019-06-19T10:10:29Z</time>
      </trkpt>
      <trkpt lat="44.3385" lon="5.77649">
        <ele>628</ele>
        <time>2019-06-19T10:10:30Z</time>
      </trkpt>
      <trkpt lat="44.33844" lon="5.77643">
        <ele>627</ele>
        <time>2019-06-19T10:10:31Z</time>
      </trkpt>
      <trkpt lat="44.33837" lon="5.77636">
        <ele>626</ele>
        <time>2019-06-19T10:10:32Z</time>
      </trkpt>
      <trkpt lat="44.33831" lon="5.77628">
        <ele>625</ele>
        <time>2019-06-19T10:10:33Z</time>
      </trkpt>
      <trkpt lat="44.33826" lon="5.7762">
        <ele>625</ele>
        <time>2019-06-19T10:10:34Z</time>
      </trkpt>
      <trkpt lat="44.33821" lon="5.77611">
        <ele>624</ele>
        <time>2019-06-19T10:10:35Z</time>
      </trkpt>
      <trkpt lat="44.33815" lon="5.77603">
        <ele>623</ele>
        <time>2019-06-19T10:10:36Z</time>
      </trkpt>
      <trkpt lat="44.33809" lon="5.77597">
        <ele>622</ele>
        <time>2019-06-19T10:10:37Z</time>
      </trkpt>
      <trkpt lat="44.33802" lon="5.77591">
        <ele>621</ele>
        <time>2019-06-19T10:10:38Z</time>
      </trkpt>
      <trkpt lat="44.33795" lon="5.77585">
        <ele>620</ele>
        <time>2019-06-19T10:10:39Z</time>
      </trkpt>
      <trkpt lat="44.33788" lon="5.77581">
        <ele>619</ele>
        <time>2019-06-19T10:10:40Z</time>
      </trkpt>
      <trkpt lat="44.3378" lon="5.77576">
        <ele>618</ele>
        <time>2019-06-19T10:10:41Z</time>
      </trkpt>
      <trkpt lat="44.33773" lon="5.77571">
        <ele>617</ele>
        <time>2019-06-19T10:10:42Z</time>
      </trkpt>
      <trkpt lat="44.33765" lon="5.77566">
        <ele>616</ele>
        <time>2019-06-19T10:10:43Z</time>
      </trkpt>
      <trkpt lat="44.33757" lon="5.7756">
        <ele>615</ele>
        <time>2019-06-19T10:10:44Z</time>
      </trkpt>
      <trkpt lat="44.33749" lon="5.77555">
        <ele>614</ele>
        <time>2019-06-19T10:10:45Z</time>
      </trkpt>
      <trkpt lat="44.3374" lon="5.77549">
        <ele>613</ele>
        <time>2019-06-19T10:10:46Z</time>
      </trkpt>
      <trkpt lat="44.33731" lon="5.77543">
        <ele>612</ele>
        <time>2019-06-19T10:10:47Z</time>
      </trkpt>
      <trkpt lat="44.33721" lon="5.77537">
        <ele>611</ele>
        <time>2019-06-19T10:10:48Z</time>
      </trkpt>
      <trkpt lat="44.33711" lon="5.77532">
        <ele>610</ele>
        <time>2019-06-19T10:10:49Z</time>
      </trkpt>
      <trkpt lat="44.337" lon="5.77529">
        <ele>609</ele>
        <time>2019-06-19T10:10:50Z</time>
      </trkpt>
      <trkpt lat="44.33688" lon="5.77526">
        <ele>608</ele>
        <time>2019-06-19T10:10:51Z</time>
      </trkpt>
      <trkpt lat="44.33677" lon="5.77522">
        <ele>607</ele>
        <time>2019-06-19T10:10:52Z</time>
      </trkpt>
      <trkpt lat="44.33666" lon="5.77518">
        <ele>606</ele>
        <time>2019-06-19T10:10:53Z</time>
      </trkpt>
      <trkpt lat="44.33654" lon="5.77513">
        <ele>605</ele>
        <time>2019-06-19T10:10:54Z</time>
      </trkpt>
      <trkpt lat="44.33643" lon="5.77508">
        <ele>604</ele>
        <time>2019-06-19T10:10:55Z</time>
      </trkpt>
      <trkpt lat="44.33632" lon="5.77504">
        <ele>603</ele>
        <time>2019-06-19T10:10:56Z</time>
      </trkpt>
      <trkpt lat="44.33621" lon="5.77502">
        <ele>602</ele>
        <time>2019-06-19T10:10:57Z</time>
      </trkpt>
      <trkpt lat="44.33612" lon="5.77503">
        <ele>601</ele>
        <time>2019-06-19T10:10:58Z</time>
      </trkpt>
      <trkpt lat="44.33604" lon="5.77509">
        <ele>600</ele>
        <time>2019-06-19T10:10:59Z</time>
      </trkpt>
      <trkpt lat="44.33596" lon="5.77518">
        <ele>599</ele>
        <time>2019-06-19T10:11:00Z</time>
      </trkpt>
      <trkpt lat="44.33589" lon="5.77528">
        <ele>598</ele>
        <time>2019-06-19T10:11:01Z</time>
      </trkpt>
      <trkpt lat="44.33582" lon="5.77535">
        <ele>597</ele>
        <time>2019-06-19T10:11:02Z</time>
      </trkpt>
      <trkpt lat="44.33573" lon="5.7754">
        <ele>597</ele>
        <time>2019-06-19T10:11:03Z</time>
      </trkpt>
      <trkpt lat="44.33563" lon="5.7754">
        <ele>596</ele>
        <time>2019-06-19T10:11:04Z</time>
      </trkpt>
      <trkpt lat="44.33553" lon="5.77538">
        <ele>596</ele>
        <time>2019-06-19T10:11:05Z</time>
      </trkpt>
      <trkpt lat="44.33542" lon="5.77535">
        <ele>595</ele>
        <time>2019-06-19T10:11:06Z</time>
      </trkpt>
      <trkpt lat="44.33532" lon="5.77532">
        <ele>594</ele>
        <time>2019-06-19T10:11:07Z</time>
      </trkpt>
      <trkpt lat="44.33521" lon="5.7753">
        <ele>594</ele>
        <time>2019-06-19T10:11:08Z</time>
      </trkpt>
      <trkpt lat="44.3351" lon="5.77528">
        <ele>593</ele>
        <time>2019-06-19T10:11:09Z</time>
      </trkpt>
      <trkpt lat="44.335" lon="5.77526">
        <ele>593</ele>
        <time>2019-06-19T10:11:10Z</time>
      </trkpt>
      <trkpt lat="44.3349" lon="5.77523">
        <ele>592</ele>
        <time>2019-06-19T10:11:11Z</time>
      </trkpt>
      <trkpt lat="44.3348" lon="5.7752">
        <ele>592</ele>
        <time>2019-06-19T10:11:12Z</time>
      </trkpt>
      <trkpt lat="44.3347" lon="5.77518">
        <ele>592</ele>
        <time>2019-06-19T10:11:13Z</time>
      </trkpt>
      <trkpt lat="44.33461" lon="5.77515">
        <ele>592</ele>
        <time>2019-06-19T10:11:14Z</time>
      </trkpt>
      <trkpt lat="44.33451" lon="5.77513">
        <ele>592</ele>
        <time>2019-06-19T10:11:15Z</time>
      </trkpt>
      <trkpt lat="44.33443" lon="5.77511">
        <ele>592</ele>
        <time>2019-06-19T10:11:16Z</time>
      </trkpt>
      <trkpt lat="44.33435" lon="5.77509">
        <ele>592</ele>
        <time>2019-06-19T10:11:17Z</time>
      </trkpt>
      <trkpt lat="44.33427" lon="5.77507">
        <ele>592</ele>
        <time>2019-06-19T10:11:18Z</time>
      </trkpt>
      <trkpt lat="44.33419" lon="5.77505">
        <ele>592</ele>
        <time>2019-06-19T10:11:19Z</time>
      </trkpt>
      <trkpt lat="44.33411" lon="5.77504">
        <ele>592</ele>
        <time>2019-06-19T10:11:20Z</time>
      </trkpt>
      <trkpt lat="44.33404" lon="5.77503">
        <ele>592</ele>
        <time>2019-06-19T10:11:21Z</time>
      </trkpt>
      <trkpt lat="44.33397" lon="5.77502">
        <ele>592</ele>
        <time>2019-06-19T10:11:22Z</time>
      </trkpt>
      <trkpt lat="44.3339" lon="5.77501">
        <ele>592</ele>
        <time>2019-06-19T10:11:23Z</time>
      </trkpt>
      <trkpt lat="44.33383" lon="5.77501">
        <ele>592</ele>
        <time>2019-06-19T10:11:24Z</time>
      </trkpt>
      <trkpt lat="44.33375" lon="5.77501">
        <ele>592</ele>
        <time>2019-06-19T10:11:25Z</time>
      </trkpt>
      <trkpt lat="44.33368" lon="5.77501">
        <ele>592</ele>
        <time>2019-06-19T10:11:26Z</time>
      </trkpt>
      <trkpt lat="44.3336" lon="5.775">
        <ele>592</ele>
        <time>2019-06-19T10:11:27Z</time>
      </trkpt>
      <trkpt lat="44.33353" lon="5.77499">
        <ele>592</ele>
        <time>2019-06-19T10:11:28Z</time>
      </trkpt>
      <trkpt lat="44.33345" lon="5.77498">
        <ele>592</ele>
        <time>2019-06-19T10:11:29Z</time>
      </trkpt>
      <trkpt lat="44.33337" lon="5.77497">
        <ele>592</ele>
        <time>2019-06-19T10:11:30Z</time>
      </trkpt>
      <trkpt lat="44.33329" lon="5.77497">
        <ele>592</ele>
        <time>2019-06-19T10:11:31Z</time>
      </trkpt>
      <trkpt lat="44.3332" lon="5.77497">
        <ele>592</ele>
        <time>2019-06-19T10:11:32Z</time>
      </trkpt>
      <trkpt lat="44.3331" lon="5.77498">
        <ele>592</ele>
        <time>2019-06-19T10:11:33Z</time>
      </trkpt>
      <trkpt lat="44.33302" lon="5.77497">
        <ele>592</ele>
        <time>2019-06-19T10:11:34Z</time>
      </trkpt>
      <trkpt lat="44.33294" lon="5.77497">
        <ele>592</ele>
        <time>2019-06-19T10:11:35Z</time>
      </trkpt>
      <trkpt lat="44.33285" lon="5.77497">
        <ele>592</ele>
        <time>2019-06-19T10:11:36Z</time>
      </trkpt>
      <trkpt lat="44.33276" lon="5.77497">
        <ele>592</ele>
        <time>2019-06-19T10:11:37Z</time>
      </trkpt>
      <trkpt lat="44.33268" lon="5.77498">
        <ele>592</ele>
        <time>2019-06-19T10:11:38Z</time>
      </trkpt>
      <trkpt lat="44.3326" lon="5.77499">
        <ele>592</ele>
        <time>2019-06-19T10:11:39Z</time>
      </trkpt>
      <trkpt lat="44.33252" lon="5.77501">
        <ele>592</ele>
        <time>2019-06-19T10:11:40Z</time>
      </trkpt>
      <trkpt lat="44.33244" lon="5.77501">
        <ele>592</ele>
        <time>2019-06-19T10:11:41Z</time>
      </trkpt>
      <trkpt lat="44.33237" lon="5.77503">
        <ele>592</ele>
        <time>2019-06-19T10:11:42Z</time>
      </trkpt>
      <trkpt lat="44.33229" lon="5.77506">
        <ele>592</ele>
        <time>2019-06-19T10:11:43Z</time>
      </trkpt>
      <trkpt lat="44.33223" lon="5.7751">
        <ele>592</ele>
        <time>2019-06-19T10:11:44Z</time>
      </trkpt>
      <trkpt lat="44.33216" lon="5.77515">
        <ele>592</ele>
        <time>2019-06-19T10:11:45Z</time>
      </trkpt>
      <trkpt lat="44.33209" lon="5.7752">
        <ele>592</ele>
        <time>2019-06-19T10:11:46Z</time>
      </trkpt>
      <trkpt lat="44.33203" lon="5.77526">
        <ele>592</ele>
        <time>2019-06-19T10:11:47Z</time>
      </trkpt>
      <trkpt lat="44.33197" lon="5.77531">
        <ele>592</ele>
        <time>2019-06-19T10:11:48Z</time>
      </trkpt>
      <trkpt lat="44.33192" lon="5.77537">
        <ele>592</ele>
        <time>2019-06-19T10:11:49Z</time>
      </trkpt>
      <trkpt lat="44.33186" lon="5.77543">
        <ele>592</ele>
        <time>2019-06-19T10:11:50Z</time>
      </trkpt>
      <trkpt lat="44.33181" lon="5.77549">
        <ele>592</ele>
        <time>2019-06-19T10:11:51Z</time>
      </trkpt>
      <trkpt lat="44.33175" lon="5.77554">
        <ele>592</ele>
        <time>2019-06-19T10:11:52Z</time>
      </trkpt>
      <trkpt lat="44.33168" lon="5.77558">
        <ele>592</ele>
        <time>2019-06-19T10:11:53Z</time>
      </trkpt>
      <trkpt lat="44.33162" lon="5.77562">
        <ele>592</ele>
        <time>2019-06-19T10:11:54Z</time>
      </trkpt>
      <trkpt lat="44.33156" lon="5.77565">
        <ele>592</ele>
        <time>2019-06-19T10:11:55Z</time>
      </trkpt>
      <trkpt lat="44.3315" lon="5.77569">
        <ele>592</ele>
        <time>2019-06-19T10:11:56Z</time>
      </trkpt>
      <trkpt lat="44.33144" lon="5.77573">
        <ele>592</ele>
        <time>2019-06-19T10:11:57Z</time>
      </trkpt>
      <trkpt lat="44.33138" lon="5.77577">
        <ele>592</ele>
        <time>2019-06-19T10:11:58Z</time>
      </trkpt>
      <trkpt lat="44.33131" lon="5.77581">
        <ele>592</ele>
        <time>2019-06-19T10:11:59Z</time>
      </trkpt>
      <trkpt lat="44.33125" lon="5.77585">
        <ele>592</ele>
        <time>2019-06-19T10:12:00Z</time>
      </trkpt>
      <trkpt lat="44.33118" lon="5.77589">
        <ele>592</ele>
        <time>2019-06-19T10:12:01Z</time>
      </trkpt>
      <trkpt lat="44.33112" lon="5.77592">
        <ele>592</ele>
        <time>2019-06-19T10:12:02Z</time>
      </trkpt>
      <trkpt lat="44.33105" lon="5.77594">
        <ele>592</ele>
        <time>2019-06-19T10:12:03Z</time>
      </trkpt>
      <trkpt lat="44.33099" lon="5.77595">
        <ele>592</ele>
        <time>2019-06-19T10:12:04Z</time>
      </trkpt>
      <trkpt lat="44.33092" lon="5.77595">
        <ele>592</ele>
        <time>2019-06-19T10:12:05Z</time>
      </trkpt>
      <trkpt lat="44.33086" lon="5.77594">
        <ele>592</ele>
        <time>2019-06-19T10:12:06Z</time>
      </trkpt>
      <trkpt lat="44.33079" lon="5.77594">
        <ele>592</ele>
        <time>2019-06-19T10:12:07Z</time>
      </trkpt>
      <trkpt lat="44.33072" lon="5.77594">
        <ele>592</ele>
        <time>2019-06-19T10:12:08Z</time>
      </trkpt>
      <trkpt lat="44.33066" lon="5.77594">
        <ele>591</ele>
        <time>2019-06-19T10:12:09Z</time>
      </trkpt>
      <trkpt lat="44.33059" lon="5.77593">
        <ele>591</ele>
        <time>2019-06-19T10:12:10Z</time>
      </trkpt>
      <trkpt lat="44.33052" lon="5.77593">
        <ele>591</ele>
        <time>2019-06-19T10:12:11Z</time>
      </trkpt>
      <trkpt lat="44.33046" lon="5.77593">
        <ele>591</ele>
        <time>2019-06-19T10:12:12Z</time>
      </trkpt>
      <trkpt lat="44.33039" lon="5.77593">
        <ele>591</ele>
        <time>2019-06-19T10:12:13Z</time>
      </trkpt>
      <trkpt lat="44.33033" lon="5.77593">
        <ele>591</ele>
        <time>2019-06-19T10:12:14Z</time>
      </trkpt>
      <trkpt lat="44.33026" lon="5.77593">
        <ele>591</ele>
        <time>2019-06-19T10:12:15Z</time>
      </trkpt>
      <trkpt lat="44.3302" lon="5.77593">
        <ele>591</ele>
        <time>2019-06-19T10:12:16Z</time>
      </trkpt>
      <trkpt lat="44.33014" lon="5.77594">
        <ele>591</ele>
        <time>2019-06-19T10:12:17Z</time>
      </trkpt>
      <trkpt lat="44.33008" lon="5.77595">
        <ele>591</ele>
        <time>2019-06-19T10:12:18Z</time>
      </trkpt>
      <trkpt lat="44.33002" lon="5.77595">
        <ele>591</ele>
        <time>2019-06-19T10:12:19Z</time>
      </trkpt>
      <trkpt lat="44.32996" lon="5.77596">
        <ele>591</ele>
        <time>2019-06-19T10:12:20Z</time>
      </trkpt>
      <trkpt lat="44.32991" lon="5.77597">
        <ele>591</ele>
        <time>2019-06-19T10:12:21Z</time>
      </trkpt>
      <trkpt lat="44.32986" lon="5.77597">
        <ele>591</ele>
        <time>2019-06-19T10:12:22Z</time>
      </trkpt>
      <trkpt lat="44.3298" lon="5.77597">
        <ele>591</ele>
        <time>2019-06-19T10:12:23Z</time>
      </trkpt>
      <trkpt lat="44.32975" lon="5.77597">
        <ele>591</ele>
        <time>2019-06-19T10:12:24Z</time>
      </trkpt>
      <trkpt lat="44.3297" lon="5.77597">
        <ele>591</ele>
        <time>2019-06-19T10:12:25Z</time>
      </trkpt>
      <trkpt lat="44.32964" lon="5.77597">
        <ele>591</ele>
        <time>2019-06-19T10:12:26Z</time>
      </trkpt>
      <trkpt lat="44.32959" lon="5.77596">
        <ele>591</ele>
        <time>2019-06-19T10:12:27Z</time>
      </trkpt>
      <trkpt lat="44.32953" lon="5.77596">
        <ele>591</ele>
        <time>2019-06-19T10:12:28Z</time>
      </trkpt>
      <trkpt lat="44.32948" lon="5.77595">
        <ele>591</ele>
        <time>2019-06-19T10:12:29Z</time>
      </trkpt>
      <trkpt lat="44.32943" lon="5.77595">
        <ele>591</ele>
        <time>2019-06-19T10:12:30Z</time>
      </trkpt>
      <trkpt lat="44.32937" lon="5.77595">
        <ele>591</ele>
        <time>2019-06-19T10:12:31Z</time>
      </trkpt>
      <trkpt lat="44.32932" lon="5.77595">
        <ele>591</ele>
        <time>2019-06-19T10:12:32Z</time>
      </trkpt>
      <trkpt lat="44.32927" lon="5.77595">
        <ele>591</ele>
        <time>2019-06-19T10:12:33Z</time>
      </trkpt>
      <trkpt lat="44.32921" lon="5.77595">
        <ele>591</ele>
        <time>2019-06-19T10:12:34Z</time>
      </trkpt>
      <trkpt lat="44.32916" lon="5.77594">
        <ele>591</ele>
        <time>2019-06-19T10:12:35Z</time>
      </trkpt>
      <trkpt lat="44.3291" lon="5.77594">
        <ele>591</ele>
        <time>2019-06-19T10:12:36Z</time>
      </trkpt>
      <trkpt lat="44.32904" lon="5.77593">
        <ele>591</ele>
        <time>2019-06-19T10:12:37Z</time>
      </trkpt>
      <trkpt lat="44.32899" lon="5.77593">
        <ele>591</ele>
        <time>2019-06-19T10:12:38Z</time>
      </trkpt>
      <trkpt lat="44.32893" lon="5.77593">
        <ele>591</ele>
        <time>2019-06-19T10:12:39Z</time>
      </trkpt>
      <trkpt lat="44.32888" lon="5.77592">
        <ele>591</ele>
        <time>2019-06-19T10:12:40Z</time>
      </trkpt>
      <trkpt lat="44.32883" lon="5.77591">
        <ele>591</ele>
        <time>2019-06-19T10:12:41Z</time>
      </trkpt>
      <trkpt lat="44.32877" lon="5.77591">
        <ele>591</ele>
        <time>2019-06-19T10:12:42Z</time>
      </trkpt>
      <trkpt lat="44.32872" lon="5.7759">
        <ele>591</ele>
        <time>2019-06-19T10:12:43Z</time>
      </trkpt>
      <trkpt lat="44.32866" lon="5.7759">
        <ele>591</ele>
        <time>2019-06-19T10:12:44Z</time>
      </trkpt>
      <trkpt lat="44.32861" lon="5.77589">
        <ele>591</ele>
        <time>2019-06-19T10:12:45Z</time>
      </trkpt>
      <trkpt lat="44.32855" lon="5.77589">
        <ele>591</ele>
        <time>2019-06-19T10:12:46Z</time>
      </trkpt>
      <trkpt lat="44.3285" lon="5.77588">
        <ele>591</ele>
        <time>2019-06-19T10:12:47Z</time>
      </trkpt>
      <trkpt lat="44.32844" lon="5.77588">
        <ele>591</ele>
        <time>2019-06-19T10:12:48Z</time>
      </trkpt>
      <trkpt lat="44.32838" lon="5.77587">
        <ele>591</ele>
        <time>2019-06-19T10:12:49Z</time>
      </trkpt>
      <trkpt lat="44.32833" lon="5.77586">
        <ele>591</ele>
        <time>2019-06-19T10:12:50Z</time>
      </trkpt>
      <trkpt lat="44.32827" lon="5.77584">
        <ele>591</ele>
        <time>2019-06-19T10:12:51Z</time>
      </trkpt>
      <trkpt lat="44.32822" lon="5.77582">
        <ele>591</ele>
        <time>2019-06-19T10:12:52Z</time>
      </trkpt>
      <trkpt lat="44.32817" lon="5.7758">
        <ele>591</ele>
        <time>2019-06-19T10:12:53Z</time>
      </trkpt>
      <trkpt lat="44.32811" lon="5.77578">
        <ele>591</ele>
        <time>2019-06-19T10:12:54Z</time>
      </trkpt>
      <trkpt lat="44.32806" lon="5.77576">
        <ele>591</ele>
        <time>2019-06-19T10:12:55Z</time>
      </trkpt>
      <trkpt lat="44.32801" lon="5.77573">
        <ele>591</ele>
        <time>2019-06-19T10:12:56Z</time>
      </trkpt>
      <trkpt lat="44.32796" lon="5.77572">
        <ele>591</ele>
        <time>2019-06-19T10:12:57Z</time>
      </trkpt>
      <trkpt lat="44.32791" lon="5.7757">
        <ele>591</ele>
        <time>2019-06-19T10:12:58Z</time>
      </trkpt>
      <trkpt lat="44.32786" lon="5.7757">
        <ele>591</ele>
        <time>2019-06-19T10:12:59Z</time>
      </trkpt>
      <trkpt lat="44.32782" lon="5.7757">
        <ele>591</ele>
        <time>2019-06-19T10:13:00Z</time>
      </trkpt>
      <trkpt lat="44.32777" lon="5.7757">
        <ele>591</ele>
        <time>2019-06-19T10:13:01Z</time>
      </trkpt>
      <trkpt lat="44.32772" lon="5.77571">
        <ele>591</ele>
        <time>2019-06-19T10:13:02Z</time>
      </trkpt>
      <trkpt lat="44.32767" lon="5.77572">
        <ele>591</ele>
        <time>2019-06-19T10:13:03Z</time>
      </trkpt>
      <trkpt lat="44.32763" lon="5.77574">
        <ele>592</ele>
        <time>2019-06-19T10:13:04Z</time>
      </trkpt>
      <trkpt lat="44.32758" lon="5.77575">
        <ele>592</ele>
        <time>2019-06-19T10:13:05Z</time>
      </trkpt>
      <trkpt lat="44.32752" lon="5.77577">
        <ele>592</ele>
        <time>2019-06-19T10:13:06Z</time>
      </trkpt>
      <trkpt lat="44.32746" lon="5.77579">
        <ele>592</ele>
        <time>2019-06-19T10:13:07Z</time>
      </trkpt>
      <trkpt lat="44.3274" lon="5.77581">
        <ele>592</ele>
        <time>2019-06-19T10:13:08Z</time>
      </trkpt>
      <trkpt lat="44.32735" lon="5.77583">
        <ele>592</ele>
        <time>2019-06-19T10:13:09Z</time>
      </trkpt>
      <trkpt lat="44.32729" lon="5.77585">
        <ele>592</ele>
        <time>2019-06-19T10:13:10Z</time>
      </trkpt>
      <trkpt lat="44.32723" lon="5.77587">
        <ele>592</ele>
        <time>2019-06-19T10:13:11Z</time>
      </trkpt>
      <trkpt lat="44.32716" lon="5.77589">
        <ele>592</ele>
        <time>2019-06-19T10:13:12Z</time>
      </trkpt>
      <trkpt lat="44.3271" lon="5.77591">
        <ele>592</ele>
        <time>2019-06-19T10:13:13Z</time>
      </trkpt>
      <trkpt lat="44.32704" lon="5.77593">
        <ele>592</ele>
        <time>2019-06-19T10:13:14Z</time>
      </trkpt>
      <trkpt lat="44.32698" lon="5.77596">
        <ele>592</ele>
        <time>2019-06-19T10:13:15Z</time>
      </trkpt>
      <trkpt lat="44.32692" lon="5.77599">
        <ele>592</ele>
        <time>2019-06-19T10:13:16Z</time>
      </trkpt>
      <trkpt lat="44.32686" lon="5.77603">
        <ele>592</ele>
        <time>2019-06-19T10:13:17Z</time>
      </trkpt>
      <trkpt lat="44.32682" lon="5.77609">
        <ele>592</ele>
        <time>2019-06-19T10:13:18Z</time>
      </trkpt>
      <trkpt lat="44.32678" lon="5.77617">
        <ele>592</ele>
        <time>2019-06-19T10:13:19Z</time>
      </trkpt>
      <trkpt lat="44.32675" lon="5.77626">
        <ele>592</ele>
        <time>2019-06-19T10:13:20Z</time>
      </trkpt>
      <trkpt lat="44.32673" lon="5.77634">
        <ele>592</ele>
        <time>2019-06-19T10:13:21Z</time>
      </trkpt>
      <trkpt lat="44.32671" lon="5.77642">
        <ele>592</ele>
        <time>2019-06-19T10:13:22Z</time>
      </trkpt>
      <trkpt lat="44.32669" lon="5.7765">
        <ele>592</ele>
        <time>2019-06-19T10:13:23Z</time>
      </trkpt>
      <trkpt lat="44.32667" lon="5.77658">
        <ele>592</ele>
        <time>2019-06-19T10:13:24Z</time>
      </trkpt>
      <trkpt lat="44.32665" lon="5.77666">
        <ele>592</ele>
        <time>2019-06-19T10:13:25Z</time>
      </trkpt>
      <trkpt lat="44.32663" lon="5.77673">
        <ele>592</ele>
        <time>2019-06-19T10:13:26Z</time>
      </trkpt>
      <trkpt lat="44.32661" lon="5.77681">
        <ele>592</ele>
        <time>2019-06-19T10:13:27Z</time>
      </trkpt>
      <trkpt lat="44.32659" lon="5.7769">
        <ele>592</ele>
        <time>2019-06-19T10:13:28Z</time>
      </trkpt>
      <trkpt lat="44.32656" lon="5.77698">
        <ele>593</ele>
        <time>2019-06-19T10:13:29Z</time>
      </trkpt>
      <trkpt lat="44.32653" lon="5.77705">
        <ele>593</ele>
        <time>2019-06-19T10:13:30Z</time>
      </trkpt>
      <trkpt lat="44.3265" lon="5.77712">
        <ele>593</ele>
        <time>2019-06-19T10:13:31Z</time>
      </trkpt>
      <trkpt lat="44.32647" lon="5.77719">
        <ele>593</ele>
        <time>2019-06-19T10:13:32Z</time>
      </trkpt>
      <trkpt lat="44.32644" lon="5.77726">
        <ele>594</ele>
        <time>2019-06-19T10:13:33Z</time>
      </trkpt>
      <trkpt lat="44.3264" lon="5.77733">
        <ele>594</ele>
        <time>2019-06-19T10:13:34Z</time>
      </trkpt>
      <trkpt lat="44.32637" lon="5.77739">
        <ele>594</ele>
        <time>2019-06-19T10:13:35Z</time>
      </trkpt>
      <trkpt lat="44.32633" lon="5.77745">
        <ele>594</ele>
        <time>2019-06-19T10:13:36Z</time>
      </trkpt>
      <trkpt lat="44.32629" lon="5.77752">
        <ele>594</ele>
        <time>2019-06-19T10:13:37Z</time>
      </trkpt>
      <trkpt lat="44.32625" lon="5.77758">
        <ele>594</ele>
        <time>2019-06-19T10:13:38Z</time>
      </trkpt>
      <trkpt lat="44.32621" lon="5.77764">
        <ele>595</ele>
        <time>2019-06-19T10:13:39Z</time>
      </trkpt>
      <trkpt lat="44.32617" lon="5.7777">
        <ele>595</ele>
        <time>2019-06-19T10:13:40Z</time>
      </trkpt>
      <trkpt lat="44.32612" lon="5.77775">
        <ele>595</ele>
        <time>2019-06-19T10:13:41Z</time>
      </trkpt>
      <trkpt lat="44.32608" lon="5.7778">
        <ele>595</ele>
        <time>2019-06-19T10:13:42Z</time>
      </trkpt>
      <trkpt lat="44.32603" lon="5.77785">
        <ele>595</ele>
        <time>2019-06-19T10:13:43Z</time>
      </trkpt>
      <trkpt lat="44.32598" lon="5.7779">
        <ele>595</ele>
        <time>2019-06-19T10:13:44Z</time>
      </trkpt>
      <trkpt lat="44.32593" lon="5.77795">
        <ele>595</ele>
        <time>2019-06-19T10:13:45Z</time>
      </trkpt>
      <trkpt lat="44.32588" lon="5.77799">
        <ele>595</ele>
        <time>2019-06-19T10:13:46Z</time>
      </trkpt>
      <trkpt lat="44.32583" lon="5.77803">
        <ele>595</ele>
        <time>2019-06-19T10:13:47Z</time>
      </trkpt>
      <trkpt lat="44.32578" lon="5.77807">
        <ele>595</ele>
        <time>2019-06-19T10:13:48Z</time>
      </trkpt>
      <trkpt lat="44.32573" lon="5.77811">
        <ele>596</ele>
        <time>2019-06-19T10:13:49Z</time>
      </trkpt>
      <trkpt lat="44.32568" lon="5.77815">
        <ele>596</ele>
        <time>2019-06-19T10:13:50Z</time>
      </trkpt>
      <trkpt lat="44.32563" lon="5.77819">
        <ele>596</ele>
        <time>2019-06-19T10:13:51Z</time>
      </trkpt>
      <trkpt lat="44.32558" lon="5.77823">
        <ele>596</ele>
        <time>2019-06-19T10:13:52Z</time>
      </trkpt>
      <trkpt lat="44.32553" lon="5.77827">
        <ele>596</ele>
        <time>2019-06-19T10:13:53Z</time>
      </trkpt>
      <trkpt lat="44.32549" lon="5.77832">
        <ele>596</ele>
        <time>2019-06-19T10:13:54Z</time>
      </trkpt>
      <trkpt lat="44.32544" lon="5.77836">
        <ele>596</ele>
        <time>2019-06-19T10:13:55Z</time>
      </trkpt>
      <trkpt lat="44.3254" lon="5.7784">
        <ele>596</ele>
        <time>2019-06-19T10:13:56Z</time>
      </trkpt>
      <trkpt lat="44.32535" lon="5.77844">
        <ele>596</ele>
        <time>2019-06-19T10:13:57Z</time>
      </trkpt>
      <trkpt lat="44.32531" lon="5.77849">
        <ele>597</ele>
        <time>2019-06-19T10:13:58Z</time>
      </trkpt>
      <trkpt lat="44.32526" lon="5.77854">
        <ele>597</ele>
        <time>2019-06-19T10:13:59Z</time>
      </trkpt>
      <trkpt lat="44.32522" lon="5.77858">
        <ele>597</ele>
        <time>2019-06-19T10:14:00Z</time>
      </trkpt>
      <trkpt lat="44.32518" lon="5.77863">
        <ele>597</ele>
        <time>2019-06-19T10:14:01Z</time>
      </trkpt>
      <trkpt lat="44.32513" lon="5.77867">
        <ele>597</ele>
        <time>2019-06-19T10:14:02Z</time>
      </trkpt>
      <trkpt lat="44.32508" lon="5.77871">
        <ele>597</ele>
        <time>2019-06-19T10:14:03Z</time>
      </trkpt>
      <trkpt lat="44.32503" lon="5.77876">
        <ele>597</ele>
        <time>2019-06-19T10:14:04Z</time>
      </trkpt>
      <trkpt lat="44.32499" lon="5.7788">
        <ele>598</ele>
        <time>2019-06-19T10:14:05Z</time>
      </trkpt>
      <trkpt lat="44.32494" lon="5.77884">
        <ele>598</ele>
        <time>2019-06-19T10:14:06Z</time>
      </trkpt>
      <trkpt lat="44.32489" lon="5.77889">
        <ele>598</ele>
        <time>2019-06-19T10:14:07Z</time>
      </trkpt>
      <trkpt lat="44.32484" lon="5.77893">
        <ele>598</ele>
        <time>2019-06-19T10:14:08Z</time>
      </trkpt>
      <trkpt lat="44.3248" lon="5.77897">
        <ele>598</ele>
        <time>2019-06-19T10:14:09Z</time>
      </trkpt>
      <trkpt lat="44.32475" lon="5.77901">
        <ele>598</ele>
        <time>2019-06-19T10:14:10Z</time>
      </trkpt>
      <trkpt lat="44.3247" lon="5.77906">
        <ele>598</ele>
        <time>2019-06-19T10:14:11Z</time>
      </trkpt>
      <trkpt lat="44.32465" lon="5.7791">
        <ele>598</ele>
        <time>2019-06-19T10:14:12Z</time>
      </trkpt>
      <trkpt lat="44.3246" lon="5.77914">
        <ele>598</ele>
        <time>2019-06-19T10:14:13Z</time>
      </trkpt>
      <trkpt lat="44.32455" lon="5.77917">
        <ele>599</ele>
        <time>2019-06-19T10:14:14Z</time>
      </trkpt>
      <trkpt lat="44.3245" lon="5.77921">
        <ele>599</ele>
        <time>2019-06-19T10:14:15Z</time>
      </trkpt>
      <trkpt lat="44.32445" lon="5.77925">
        <ele>599</ele>
        <time>2019-06-19T10:14:16Z</time>
      </trkpt>
      <trkpt lat="44.3244" lon="5.77928">
        <ele>599</ele>
        <time>2019-06-19T10:14:17Z</time>
      </trkpt>
      <trkpt lat="44.32434" lon="5.77932">
        <ele>599</ele>
        <time>2019-06-19T10:14:18Z</time>
      </trkpt>
      <trkpt lat="44.32429" lon="5.77936">
        <ele>599</ele>
        <time>2019-06-19T10:14:19Z</time>
      </trkpt>
      <trkpt lat="44.32424" lon="5.77939">
        <ele>599</ele>
        <time>2019-06-19T10:14:20Z</time>
      </trkpt>
      <trkpt lat="44.32418" lon="5.77943">
        <ele>599</ele>
        <time>2019-06-19T10:14:21Z</time>
      </trkpt>
      <trkpt lat="44.32413" lon="5.77946">
        <ele>599</ele>
        <time>2019-06-19T10:14:22Z</time>
      </trkpt>
      <trkpt lat="44.32408" lon="5.77949">
        <ele>599</ele>
        <time>2019-06-19T10:14:23Z</time>
      </trkpt>
      <trkpt lat="44.32402" lon="5.77952">
        <ele>599</ele>
        <time>2019-06-19T10:14:24Z</time>
      </trkpt>
      <trkpt lat="44.32396" lon="5.77955">
        <ele>599</ele>
        <time>2019-06-19T10:14:25Z</time>
      </trkpt>
      <trkpt lat="44.32391" lon="5.77958">
        <ele>599</ele>
        <time>2019-06-19T10:14:26Z</time>
      </trkpt>
      <trkpt lat="44.32385" lon="5.77961">
        <ele>599</ele>
        <time>2019-06-19T10:14:27Z</time>
      </trkpt>
      <trkpt lat="44.3238" lon="5.77964">
        <ele>600</ele>
        <time>2019-06-19T10:14:28Z</time>
      </trkpt>
      <trkpt lat="44.32374" lon="5.77967">
        <ele>600</ele>
        <time>2019-06-19T10:14:29Z</time>
      </trkpt>
      <trkpt lat="44.32369" lon="5.7797">
        <ele>600</ele>
        <time>2019-06-19T10:14:30Z</time>
      </trkpt>
      <trkpt lat="44.32363" lon="5.77973">
        <ele>600</ele>
        <time>2019-06-19T10:14:31Z</time>
      </trkpt>
      <trkpt lat="44.32358" lon="5.77976">
        <ele>600</ele>
        <time>2019-06-19T10:14:32Z</time>
      </trkpt>
      <trkpt lat="44.32352" lon="5.77979">
        <ele>600</ele>
        <time>2019-06-19T10:14:33Z</time>
      </trkpt>
      <trkpt lat="44.32347" lon="5.77982">
        <ele>600</ele>
        <time>2019-06-19T10:14:34Z</time>
      </trkpt>
      <trkpt lat="44.32342" lon="5.77985">
        <ele>600</ele>
        <time>2019-06-19T10:14:35Z</time>
      </trkpt>
      <trkpt lat="44.32336" lon="5.77988">
        <ele>600</ele>
        <time>2019-06-19T10:14:36Z</time>
      </trkpt>
      <trkpt lat="44.32331" lon="5.77991">
        <ele>600</ele>
        <time>2019-06-19T10:14:37Z</time>
      </trkpt>
      <trkpt lat="44.32326" lon="5.77995">
        <ele>600</ele>
        <time>2019-06-19T10:14:38Z</time>
      </trkpt>
      <trkpt lat="44.3232" lon="5.77999">
        <ele>600</ele>
        <time>2019-06-19T10:14:39Z</time>
      </trkpt>
      <trkpt lat="44.32315" lon="5.78002">
        <ele>600</ele>
        <time>2019-06-19T10:14:40Z</time>
      </trkpt>
      <trkpt lat="44.3231" lon="5.78006">
        <ele>600</ele>
        <time>2019-06-19T10:14:41Z</time>
      </trkpt>
      <trkpt lat="44.32304" lon="5.78009">
        <ele>600</ele>
        <time>2019-06-19T10:14:42Z</time>
      </trkpt>
      <trkpt lat="44.32299" lon="5.78012">
        <ele>600</ele>
        <time>2019-06-19T10:14:43Z</time>
      </trkpt>
      <trkpt lat="44.32294" lon="5.78016">
        <ele>601</ele>
        <time>2019-06-19T10:14:44Z</time>
      </trkpt>
      <trkpt lat="44.32289" lon="5.78019">
        <ele>601</ele>
        <time>2019-06-19T10:14:45Z</time>
      </trkpt>
      <trkpt lat="44.32284" lon="5.78021">
        <ele>601</ele>
        <time>2019-06-19T10:14:46Z</time>
      </trkpt>
      <trkpt lat="44.32279" lon="5.78025">
        <ele>601</ele>
        <time>2019-06-19T10:14:47Z</time>
      </trkpt>
      <trkpt lat="44.32274" lon="5.78028">
        <ele>601</ele>
        <time>2019-06-19T10:14:48Z</time>
      </trkpt>
      <trkpt lat="44.32269" lon="5.78031">
        <ele>601</ele>
        <time>2019-06-19T10:14:49Z</time>
      </trkpt>
      <trkpt lat="44.32264" lon="5.78034">
        <ele>601</ele>
        <time>2019-06-19T10:14:50Z</time>
      </trkpt>
      <trkpt lat="44.32258" lon="5.78037">
        <ele>601</ele>
        <time>2019-06-19T10:14:51Z</time>
      </trkpt>
      <trkpt lat="44.32253" lon="5.7804">
        <ele>601</ele>
        <time>2019-06-19T10:14:52Z</time>
      </trkpt>
      <trkpt lat="44.32248" lon="5.78044">
        <ele>601</ele>
        <time>2019-06-19T10:14:53Z</time>
      </trkpt>
      <trkpt lat="44.32243" lon="5.78047">
        <ele>601</ele>
        <time>2019-06-19T10:14:54Z</time>
      </trkpt>
      <trkpt lat="44.32238" lon="5.78051">
        <ele>601</ele>
        <time>2019-06-19T10:14:55Z</time>
      </trkpt>
      <trkpt lat="44.32233" lon="5.78053">
        <ele>601</ele>
        <time>2019-06-19T10:14:56Z</time>
      </trkpt>
      <trkpt lat="44.32228" lon="5.78056">
        <ele>601</ele>
        <time>2019-06-19T10:14:57Z</time>
      </trkpt>
      <trkpt lat="44.32223" lon="5.78059">
        <ele>602</ele>
        <time>2019-06-19T10:14:58Z</time>
      </trkpt>
      <trkpt lat="44.32218" lon="5.78062">
        <ele>602</ele>
        <time>2019-06-19T10:14:59Z</time>
      </trkpt>
      <trkpt lat="44.32213" lon="5.78065">
        <ele>602</ele>
        <time>2019-06-19T10:15:00Z</time>
      </trkpt>
      <trkpt lat="44.32208" lon="5.78068">
        <ele>602</ele>
        <time>2019-06-19T10:15:01Z</time>
      </trkpt>
      <trkpt lat="44.32203" lon="5.78072">
        <ele>602</ele>
        <time>2019-06-19T10:15:02Z</time>
      </trkpt>
      <trkpt lat="44.32198" lon="5.78075">
        <ele>602</ele>
        <time>2019-06-19T10:15:03Z</time>
      </trkpt>
      <trkpt lat="44.32192" lon="5.78079">
        <ele>602</ele>
        <time>2019-06-19T10:15:04Z</time>
      </trkpt>
      <trkpt lat="44.32187" lon="5.78082">
        <ele>602</ele>
        <time>2019-06-19T10:15:05Z</time>
      </trkpt>
      <trkpt lat="44.32182" lon="5.78086">
        <ele>602</ele>
        <time>2019-06-19T10:15:06Z</time>
      </trkpt>
      <trkpt lat="44.32177" lon="5.7809">
        <ele>602</ele>
        <time>2019-06-19T10:15:07Z</time>
      </trkpt>
      <trkpt lat="44.32172" lon="5.78094">
        <ele>602</ele>
        <time>2019-06-19T10:15:08Z</time>
      </trkpt>
      <trkpt lat="44.32167" lon="5.78098">
        <ele>602</ele>
        <time>2019-06-19T10:15:09Z</time>
      </trkpt>
      <trkpt lat="44.32162" lon="5.78102">
        <ele>602</ele>
        <time>2019-06-19T10:15:10Z</time>
      </trkpt>
      <trkpt lat="44.32156" lon="5.78106">
        <ele>602</ele>
        <time>2019-06-19T10:15:11Z</time>
      </trkpt>
      <trkpt lat="44.32151" lon="5.78111">
        <ele>602</ele>
        <time>2019-06-19T10:15:12Z</time>
      </trkpt>
      <trkpt lat="44.32146" lon="5.78117">
        <ele>602</ele>
        <time>2019-06-19T10:15:13Z</time>
      </trkpt>
      <trkpt lat="44.32141" lon="5.78122">
        <ele>602</ele>
        <time>2019-06-19T10:15:14Z</time>
      </trkpt>
      <trkpt lat="44.32136" lon="5.78126">
        <ele>602</ele>
        <time>2019-06-19T10:15:15Z</time>
      </trkpt>
      <trkpt lat="44.32131" lon="5.78131">
        <ele>602</ele>
        <time>2019-06-19T10:15:16Z</time>
      </trkpt>
      <trkpt lat="44.32125" lon="5.78136">
        <ele>602</ele>
        <time>2019-06-19T10:15:17Z</time>
      </trkpt>
      <trkpt lat="44.3212" lon="5.78141">
        <ele>602</ele>
        <time>2019-06-19T10:15:18Z</time>
      </trkpt>
      <trkpt lat="44.32115" lon="5.78147">
        <ele>602</ele>
        <time>2019-06-19T10:15:19Z</time>
      </trkpt>
      <trkpt lat="44.32109" lon="5.78152">
        <ele>602</ele>
        <time>2019-06-19T10:15:20Z</time>
      </trkpt>
      <trkpt lat="44.32104" lon="5.78157">
        <ele>602</ele>
        <time>2019-06-19T10:15:21Z</time>
      </trkpt>
      <trkpt lat="44.32099" lon="5.78162">
        <ele>602</ele>
        <time>2019-06-19T10:15:22Z</time>
      </trkpt>
      <trkpt lat="44.32093" lon="5.78167">
        <ele>602</ele>
        <time>2019-06-19T10:15:23Z</time>
      </trkpt>
      <trkpt lat="44.32088" lon="5.78172">
        <ele>602</ele>
        <time>2019-06-19T10:15:24Z</time>
      </trkpt>
      <trkpt lat="44.32083" lon="5.78177">
        <ele>602</ele>
        <time>2019-06-19T10:15:25Z</time>
      </trkpt>
      <trkpt lat="44.32077" lon="5.78183">
        <ele>602</ele>
        <time>2019-06-19T10:15:26Z</time>
      </trkpt>
      <trkpt lat="44.32072" lon="5.78188">
        <ele>602</ele>
        <time>2019-06-19T10:15:27Z</time>
      </trkpt>
      <trkpt lat="44.32067" lon="5.78194">
        <ele>602</ele>
        <time>2019-06-19T10:15:28Z</time>
      </trkpt>
      <trkpt lat="44.32062" lon="5.78199">
        <ele>602</ele>
        <time>2019-06-19T10:15:29Z</time>
      </trkpt>
      <trkpt lat="44.32056" lon="5.78205">
        <ele>602</ele>
        <time>2019-06-19T10:15:30Z</time>
      </trkpt>
      <trkpt lat="44.32051" lon="5.7821">
        <ele>602</ele>
        <time>2019-06-19T10:15:31Z</time>
      </trkpt>
      <trkpt lat="44.32046" lon="5.78216">
        <ele>602</ele>
        <time>2019-06-19T10:15:32Z</time>
      </trkpt>
      <trkpt lat="44.3204" lon="5.78222">
        <ele>602</ele>
        <time>2019-06-19T10:15:33Z</time>
      </trkpt>
      <trkpt lat="44.32035" lon="5.78228">
        <ele>602</ele>
        <time>2019-06-19T10:15:34Z</time>
      </trkpt>
      <trkpt lat="44.32029" lon="5.78233">
        <ele>602</ele>
        <time>2019-06-19T10:15:35Z</time>
      </trkpt>
      <trkpt lat="44.32024" lon="5.78239">
        <ele>602</ele>
        <time>2019-06-19T10:15:36Z</time>
      </trkpt>
      <trkpt lat="44.32018" lon="5.78245">
        <ele>602</ele>
        <time>2019-06-19T10:15:37Z</time>
      </trkpt>
      <trkpt lat="44.32013" lon="5.7825">
        <ele>602</ele>
        <time>2019-06-19T10:15:38Z</time>
      </trkpt>
      <trkpt lat="44.32007" lon="5.78255">
        <ele>602</ele>
        <time>2019-06-19T10:15:39Z</time>
      </trkpt>
      <trkpt lat="44.32002" lon="5.7826">
        <ele>602</ele>
        <time>2019-06-19T10:15:40Z</time>
      </trkpt>
      <trkpt lat="44.31996" lon="5.78265">
        <ele>602</ele>
        <time>2019-06-19T10:15:41Z</time>
      </trkpt>
      <trkpt lat="44.31991" lon="5.7827">
        <ele>602</ele>
        <time>2019-06-19T10:15:42Z</time>
      </trkpt>
      <trkpt lat="44.31985" lon="5.78274">
        <ele>602</ele>
        <time>2019-06-19T10:15:43Z</time>
      </trkpt>
      <trkpt lat="44.3198" lon="5.78279">
        <ele>602</ele>
        <time>2019-06-19T10:15:44Z</time>
      </trkpt>
      <trkpt lat="44.31975" lon="5.78283">
        <ele>602</ele>
        <time>2019-06-19T10:15:45Z</time>
      </trkpt>
      <trkpt lat="44.3197" lon="5.78288">
        <ele>602</ele>
        <time>2019-06-19T10:15:46Z</time>
      </trkpt>
      <trkpt lat="44.31965" lon="5.78292">
        <ele>602</ele>
        <time>2019-06-19T10:15:47Z</time>
      </trkpt>
      <trkpt lat="44.3196" lon="5.78296">
        <ele>602</ele>
        <time>2019-06-19T10:15:48Z</time>
      </trkpt>
      <trkpt lat="44.31955" lon="5.783">
        <ele>602</ele>
        <time>2019-06-19T10:15:49Z</time>
      </trkpt>
      <trkpt lat="44.3195" lon="5.78304">
        <ele>602</ele>
        <time>2019-06-19T10:15:50Z</time>
      </trkpt>
      <trkpt lat="44.31945" lon="5.78307">
        <ele>602</ele>
        <time>2019-06-19T10:15:51Z</time>
      </trkpt>
      <trkpt lat="44.31939" lon="5.7831">
        <ele>602</ele>
        <time>2019-06-19T10:15:52Z</time>
      </trkpt>
      <trkpt lat="44.31933" lon="5.78312">
        <ele>602</ele>
        <time>2019-06-19T10:15:53Z</time>
      </trkpt>
      <trkpt lat="44.31926" lon="5.78313">
        <ele>602</ele>
        <time>2019-06-19T10:15:54Z</time>
      </trkpt>
      <trkpt lat="44.31919" lon="5.78313">
        <ele>602</ele>
        <time>2019-06-19T10:15:55Z</time>
      </trkpt>
      <trkpt lat="44.31911" lon="5.78311">
        <ele>602</ele>
        <time>2019-06-19T10:15:56Z</time>
      </trkpt>
      <trkpt lat="44.31904" lon="5.78309">
        <ele>601</ele>
        <time>2019-06-19T10:15:57Z</time>
      </trkpt>
      <trkpt lat="44.31897" lon="5.78306">
        <ele>601</ele>
        <time>2019-06-19T10:15:58Z</time>
      </trkpt>
      <trkpt lat="44.3189" lon="5.78301">
        <ele>601</ele>
        <time>2019-06-19T10:15:59Z</time>
      </trkpt>
      <trkpt lat="44.31882" lon="5.78297">
        <ele>600</ele>
        <time>2019-06-19T10:16:00Z</time>
      </trkpt>
      <trkpt lat="44.31874" lon="5.78293">
        <ele>600</ele>
        <time>2019-06-19T10:16:01Z</time>
      </trkpt>
      <trkpt lat="44.31866" lon="5.7829">
        <ele>599</ele>
        <time>2019-06-19T10:16:02Z</time>
      </trkpt>
      <trkpt lat="44.31857" lon="5.78286">
        <ele>599</ele>
        <time>2019-06-19T10:16:03Z</time>
      </trkpt>
      <trkpt lat="44.31848" lon="5.7828">
        <ele>598</ele>
        <time>2019-06-19T10:16:04Z</time>
      </trkpt>
      <trkpt lat="44.3184" lon="5.78273">
        <ele>597</ele>
        <time>2019-06-19T10:16:05Z</time>
      </trkpt>
      <trkpt lat="44.31832" lon="5.78269">
        <ele>596</ele>
        <time>2019-06-19T10:16:06Z</time>
      </trkpt>
      <trkpt lat="44.31824" lon="5.78267">
        <ele>595</ele>
        <time>2019-06-19T10:16:07Z</time>
      </trkpt>
      <trkpt lat="44.31816" lon="5.78267">
        <ele>594</ele>
        <time>2019-06-19T10:16:08Z</time>
      </trkpt>
      <trkpt lat="44.31811" lon="5.78271">
        <ele>593</ele>
        <time>2019-06-19T10:16:09Z</time>
      </trkpt>
      <trkpt lat="44.31808" lon="5.78282">
        <ele>592</ele>
        <time>2019-06-19T10:16:10Z</time>
      </trkpt>
      <trkpt lat="44.31808" lon="5.78296">
        <ele>592</ele>
        <time>2019-06-19T10:16:11Z</time>
      </trkpt>
      <trkpt lat="44.31808" lon="5.78308">
        <ele>591</ele>
        <time>2019-06-19T10:16:12Z</time>
      </trkpt>
      <trkpt lat="44.3181" lon="5.78317">
        <ele>591</ele>
        <time>2019-06-19T10:16:13Z</time>
      </trkpt>
      <trkpt lat="44.31812" lon="5.78326">
        <ele>591</ele>
        <time>2019-06-19T10:16:14Z</time>
      </trkpt>
      <trkpt lat="44.31812" lon="5.78333">
        <ele>591</ele>
        <time>2019-06-19T10:16:15Z</time>
      </trkpt>
      <trkpt lat="44.31813" lon="5.7834">
        <ele>591</ele>
        <time>2019-06-19T10:16:16Z</time>
      </trkpt>
      <trkpt lat="44.31812" lon="5.78347">
        <ele>591</ele>
        <time>2019-06-19T10:16:17Z</time>
      </trkpt>
      <trkpt lat="44.31811" lon="5.78353">
        <ele>591</ele>
        <time>2019-06-19T10:16:18Z</time>
      </trkpt>
      <trkpt lat="44.3181" lon="5.78359">
        <ele>592</ele>
        <time>2019-06-19T10:16:19Z</time>
      </trkpt>
      <trkpt lat="44.31808" lon="5.78364">
        <ele>593</ele>
        <time>2019-06-19T10:16:20Z</time>
      </trkpt>
      <trkpt lat="44.31805" lon="5.7837">
        <ele>593</ele>
        <time>2019-06-19T10:16:21Z</time>
      </trkpt>
      <trkpt lat="44.31803" lon="5.78375">
        <ele>594</ele>
        <time>2019-06-19T10:16:22Z</time>
      </trkpt>
      <trkpt lat="44.318" lon="5.78381">
        <ele>595</ele>
        <time>2019-06-19T10:16:23Z</time>
      </trkpt>
      <trkpt lat="44.31798" lon="5.78386">
        <ele>595</ele>
        <time>2019-06-19T10:16:24Z</time>
      </trkpt>
      <trkpt lat="44.31795" lon="5.78391">
        <ele>596</ele>
        <time>2019-06-19T10:16:25Z</time>
      </trkpt>
      <trkpt lat="44.31792" lon="5.78396">
        <ele>597</ele>
        <time>2019-06-19T10:16:26Z</time>
      </trkpt>
      <trkpt lat="44.3179" lon="5.78401">
        <ele>597</ele>
        <time>2019-06-19T10:16:27Z</time>
      </trkpt>
      <trkpt lat="44.31787" lon="5.78406">
        <ele>598</ele>
        <time>2019-06-19T10:16:28Z</time>
      </trkpt>
      <trkpt lat="44.31784" lon="5.78412">
        <ele>599</ele>
        <time>2019-06-19T10:16:29Z</time>
      </trkpt>
      <trkpt lat="44.31781" lon="5.78417">
        <ele>599</ele>
        <time>2019-06-19T10:16:30Z</time>
      </trkpt>
      <trkpt lat="44.31778" lon="5.78422">
        <ele>600</ele>
        <time>2019-06-19T10:16:31Z</time>
      </trkpt>
      <trkpt lat="44.31775" lon="5.78428">
        <ele>600</ele>
        <time>2019-06-19T10:16:32Z</time>
      </trkpt>
      <trkpt lat="44.31772" lon="5.78434">
        <ele>600</ele>
        <time>2019-06-19T10:16:33Z</time>
      </trkpt>
      <trkpt lat="44.31769" lon="5.7844">
        <ele>600</ele>
        <time>2019-06-19T10:16:34Z</time>
      </trkpt>
      <trkpt lat="44.31765" lon="5.78446">
        <ele>600</ele>
        <time>2019-06-19T10:16:35Z</time>
      </trkpt>
      <trkpt lat="44.31762" lon="5.78453">
        <ele>600</ele>
        <time>2019-06-19T10:16:36Z</time>
      </trkpt>
      <trkpt lat="44.31759" lon="5.78459">
        <ele>600</ele>
        <time>2019-06-19T10:16:37Z</time>
      </trkpt>
      <trkpt lat="44.31755" lon="5.78466">
        <ele>600</ele>
        <time>2019-06-19T10:16:38Z</time>
      </trkpt>
      <trkpt lat="44.31751" lon="5.78473">
        <ele>600</ele>
        <time>2019-06-19T10:16:39Z</time>
      </trkpt>
      <trkpt lat="44.31747" lon="5.78479">
        <ele>600</ele>
        <time>2019-06-19T10:16:40Z</time>
      </trkpt>
      <trkpt lat="44.31742" lon="5.78486">
        <ele>600</ele>
        <time>2019-06-19T10:16:41Z</time>
      </trkpt>
      <trkpt lat="44.31737" lon="5.78492">
        <ele>600</ele>
        <time>2019-06-19T10:16:42Z</time>
      </trkpt>
      <trkpt lat="44.31731" lon="5.78498">
        <ele>600</ele>
        <time>2019-06-19T10:16:43Z</time>
      </trkpt>
      <trkpt lat="44.31726" lon="5.78503">
        <ele>600</ele>
        <time>2019-06-19T10:16:44Z</time>
      </trkpt>
      <trkpt lat="44.3172" lon="5.78507">
        <ele>600</ele>
        <time>2019-06-19T10:16:45Z</time>
      </trkpt>
      <trkpt lat="44.31714" lon="5.7851">
        <ele>600</ele>
        <time>2019-06-19T10:16:46Z</time>
      </trkpt>
      <trkpt lat="44.31708" lon="5.78512">
        <ele>600</ele>
        <time>2019-06-19T10:16:47Z</time>
      </trkpt>
      <trkpt lat="44.31703" lon="5.78515">
        <ele>600</ele>
        <time>2019-06-19T10:16:48Z</time>
      </trkpt>
      <trkpt lat="44.31697" lon="5.78517">
        <ele>600</ele>
        <time>2019-06-19T10:16:49Z</time>
      </trkpt>
      <trkpt lat="44.31692" lon="5.78518">
        <ele>600</ele>
        <time>2019-06-19T10:16:50Z</time>
      </trkpt>
      <trkpt lat="44.31687" lon="5.78521">
        <ele>600</ele>
        <time>2019-06-19T10:16:51Z</time>
      </trkpt>
      <trkpt lat="44.31682" lon="5.78523">
        <ele>600</ele>
        <time>2019-06-19T10:16:52Z</time>
      </trkpt>
      <trkpt lat="44.31678" lon="5.78525">
        <ele>600</ele>
        <time>2019-06-19T10:16:53Z</time>
      </trkpt>
      <trkpt lat="44.31673" lon="5.78526">
        <ele>600</ele>
        <time>2019-06-19T10:16:54Z</time>
      </trkpt>
      <trkpt lat="44.31668" lon="5.78527">
        <ele>600</ele>
        <time>2019-06-19T10:16:55Z</time>
      </trkpt>
      <trkpt lat="44.31664" lon="5.78528">
        <ele>600</ele>
        <time>2019-06-19T10:16:56Z</time>
      </trkpt>
      <trkpt lat="44.31659" lon="5.7853">
        <ele>600</ele>
        <time>2019-06-19T10:16:57Z</time>
      </trkpt>
      <trkpt lat="44.31655" lon="5.7853">
        <ele>600</ele>
        <time>2019-06-19T10:16:58Z</time>
      </trkpt>
      <trkpt lat="44.3165" lon="5.78531">
        <ele>600</ele>
        <time>2019-06-19T10:16:59Z</time>
      </trkpt>
      <trkpt lat="44.31646" lon="5.78532">
        <ele>600</ele>
        <time>2019-06-19T10:17:00Z</time>
      </trkpt>
      <trkpt lat="44.31641" lon="5.78533">
        <ele>600</ele>
        <time>2019-06-19T10:17:01Z</time>
      </trkpt>
      <trkpt lat="44.31637" lon="5.78534">
        <ele>600</ele>
        <time>2019-06-19T10:17:02Z</time>
      </trkpt>
      <trkpt lat="44.31633" lon="5.78537">
        <ele>600</ele>
        <time>2019-06-19T10:17:03Z</time>
      </trkpt>
      <trkpt lat="44.31629" lon="5.78539">
        <ele>600</ele>
        <time>2019-06-19T10:17:04Z</time>
      </trkpt>
      <trkpt lat="44.31625" lon="5.7854">
        <ele>600</ele>
        <time>2019-06-19T10:17:05Z</time>
      </trkpt>
      <trkpt lat="44.31622" lon="5.78543">
        <ele>600</ele>
        <time>2019-06-19T10:17:06Z</time>
      </trkpt>
      <trkpt lat="44.31619" lon="5.78546">
        <ele>600</ele>
        <time>2019-06-19T10:17:07Z</time>
      </trkpt>
      <trkpt lat="44.31615" lon="5.78548">
        <ele>600</ele>
        <time>2019-06-19T10:17:08Z</time>
      </trkpt>
      <trkpt lat="44.31612" lon="5.78551">
        <ele>600</ele>
        <time>2019-06-19T10:17:09Z</time>
      </trkpt>
      <trkpt lat="44.31608" lon="5.78555">
        <ele>600</ele>
        <time>2019-06-19T10:17:10Z</time>
      </trkpt>
      <trkpt lat="44.31605" lon="5.78559">
        <ele>600</ele>
        <time>2019-06-19T10:17:11Z</time>
      </trkpt>
      <trkpt lat="44.31603" lon="5.78564">
        <ele>600</ele>
        <time>2019-06-19T10:17:12Z</time>
      </trkpt>
      <trkpt lat="44.31601" lon="5.78571">
        <ele>600</ele>
        <time>2019-06-19T10:17:13Z</time>
      </trkpt>
      <trkpt lat="44.31598" lon="5.78577">
        <ele>601</ele>
        <time>2019-06-19T10:17:14Z</time>
      </trkpt>
      <trkpt lat="44.31597" lon="5.78583">
        <ele>601</ele>
        <time>2019-06-19T10:17:15Z</time>
      </trkpt>
      <trkpt lat="44.31596" lon="5.78588">
        <ele>602</ele>
        <time>2019-06-19T10:17:16Z</time>
      </trkpt>
      <trkpt lat="44.31596" lon="5.78594">
        <ele>602</ele>
        <time>2019-06-19T10:17:17Z</time>
      </trkpt>
      <trkpt lat="44.31596" lon="5.786">
        <ele>603</ele>
        <time>2019-06-19T10:17:18Z</time>
      </trkpt>
      <trkpt lat="44.31596" lon="5.78606">
        <ele>603</ele>
        <time>2019-06-19T10:17:19Z</time>
      </trkpt>
      <trkpt lat="44.31595" lon="5.78612">
        <ele>603</ele>
        <time>2019-06-19T10:17:20Z</time>
      </trkpt>
      <trkpt lat="44.31596" lon="5.7862">
        <ele>603</ele>
        <time>2019-06-19T10:17:21Z</time>
      </trkpt>
      <trkpt lat="44.31595" lon="5.78627">
        <ele>603</ele>
        <time>2019-06-19T10:17:22Z</time>
      </trkpt>
      <trkpt lat="44.31595" lon="5.78635">
        <ele>603</ele>
        <time>2019-06-19T10:17:23Z</time>
      </trkpt>
      <trkpt lat="44.31595" lon="5.78644">
        <ele>603</ele>
        <time>2019-06-19T10:17:24Z</time>
      </trkpt>
      <trkpt lat="44.31595" lon="5.78653">
        <ele>603</ele>
        <time>2019-06-19T10:17:25Z</time>
      </trkpt>
      <trkpt lat="44.31595" lon="5.78662">
        <ele>603</ele>
        <time>2019-06-19T10:17:26Z</time>
      </trkpt>
      <trkpt lat="44.31596" lon="5.78672">
        <ele>603</ele>
        <time>2019-06-19T10:17:27Z</time>
      </trkpt>
      <trkpt lat="44.31596" lon="5.78683">
        <ele>603</ele>
        <time>2019-06-19T10:17:28Z</time>
      </trkpt>
      <trkpt lat="44.31596" lon="5.78693">
        <ele>603</ele>
        <time>2019-06-19T10:17:29Z</time>
      </trkpt>
      <trkpt lat="44.31596" lon="5.78704">
        <ele>603</ele>
        <time>2019-06-19T10:17:30Z</time>
      </trkpt>
      <trkpt lat="44.31595" lon="5.78715">
        <ele>603</ele>
        <time>2019-06-19T10:17:31Z</time>
      </trkpt>
      <trkpt lat="44.31595" lon="5.78727">
        <ele>603</ele>
        <time>2019-06-19T10:17:32Z</time>
      </trkpt>
      <trkpt lat="44.31595" lon="5.78738">
        <ele>603</ele>
        <time>2019-06-19T10:17:33Z</time>
      </trkpt>
      <trkpt lat="44.31594" lon="5.78751">
        <ele>603</ele>
        <time>2019-06-19T10:17:34Z</time>
      </trkpt>
      <trkpt lat="44.31594" lon="5.78763">
        <ele>603</ele>
        <time>2019-06-19T10:17:35Z</time>
      </trkpt>
      <trkpt lat="44.31593" lon="5.78776">
        <ele>603</ele>
        <time>2019-06-19T10:17:36Z</time>
      </trkpt>
      <trkpt lat="44.31591" lon="5.7879">
        <ele>603</ele>
        <time>2019-06-19T10:17:37Z</time>
      </trkpt>
      <trkpt lat="44.31589" lon="5.78803">
        <ele>603</ele>
        <time>2019-06-19T10:17:38Z</time>
      </trkpt>
      <trkpt lat="44.31587" lon="5.78818">
        <ele>603</ele>
        <time>2019-06-19T10:17:39Z</time>
      </trkpt>
      <trkpt lat="44.31585" lon="5.78832">
        <ele>603</ele>
        <time>2019-06-19T10:17:40Z</time>
      </trkpt>
      <trkpt lat="44.31583" lon="5.78847">
        <ele>602</ele>
        <time>2019-06-19T10:17:41Z</time>
      </trkpt>
      <trkpt lat="44.31581" lon="5.78862">
        <ele>601</ele>
        <time>2019-06-19T10:17:42Z</time>
      </trkpt>
      <trkpt lat="44.31579" lon="5.78876">
        <ele>600</ele>
        <time>2019-06-19T10:17:43Z</time>
      </trkpt>
      <trkpt lat="44.31577" lon="5.78891">
        <ele>599</ele>
        <time>2019-06-19T10:17:44Z</time>
      </trkpt>
      <trkpt lat="44.31575" lon="5.78906">
        <ele>598</ele>
        <time>2019-06-19T10:17:45Z</time>
      </trkpt>
      <trkpt lat="44.31573" lon="5.78921">
        <ele>597</ele>
        <time>2019-06-19T10:17:46Z</time>
      </trkpt>
      <trkpt lat="44.31572" lon="5.78935">
        <ele>597</ele>
        <time>2019-06-19T10:17:47Z</time>
      </trkpt>
      <trkpt lat="44.3157" lon="5.7895">
        <ele>596</ele>
        <time>2019-06-19T10:17:48Z</time>
      </trkpt>
      <trkpt lat="44.31568" lon="5.78964">
        <ele>596</ele>
        <time>2019-06-19T10:17:49Z</time>
      </trkpt>
      <trkpt lat="44.31566" lon="5.78978">
        <ele>595</ele>
        <time>2019-06-19T10:17:50Z</time>
      </trkpt>
      <trkpt lat="44.31563" lon="5.78992">
        <ele>595</ele>
        <time>2019-06-19T10:17:51Z</time>
      </trkpt>
      <trkpt lat="44.3156" lon="5.79004">
        <ele>595</ele>
        <time>2019-06-19T10:17:52Z</time>
      </trkpt>
      <trkpt lat="44.31555" lon="5.79016">
        <ele>594</ele>
        <time>2019-06-19T10:17:53Z</time>
      </trkpt>
      <trkpt lat="44.3155" lon="5.79028">
        <ele>594</ele>
        <time>2019-06-19T10:17:54Z</time>
      </trkpt>
      <trkpt lat="44.31546" lon="5.7904">
        <ele>594</ele>
        <time>2019-06-19T10:17:55Z</time>
      </trkpt>
      <trkpt lat="44.31541" lon="5.79051">
        <ele>593</ele>
        <time>2019-06-19T10:17:56Z</time>
      </trkpt>
      <trkpt lat="44.31537" lon="5.79062">
        <ele>593</ele>
        <time>2019-06-19T10:17:57Z</time>
      </trkpt>
      <trkpt lat="44.31533" lon="5.79073">
        <ele>593</ele>
        <time>2019-06-19T10:17:58Z</time>
      </trkpt>
      <trkpt lat="44.31529" lon="5.79083">
        <ele>592</ele>
        <time>2019-06-19T10:17:59Z</time>
      </trkpt>
      <trkpt lat="44.31526" lon="5.79093">
        <ele>592</ele>
        <time>2019-06-19T10:18:00Z</time>
      </trkpt>
      <trkpt lat="44.31523" lon="5.79104">
        <ele>592</ele>
        <time>2019-06-19T10:18:01Z</time>
      </trkpt>
      <trkpt lat="44.3152" lon="5.79114">
        <ele>592</ele>
        <time>2019-06-19T10:18:02Z</time>
      </trkpt>
      <trkpt lat="44.31517" lon="5.79123">
        <ele>592</ele>
        <time>2019-06-19T10:18:03Z</time>
      </trkpt>
      <trkpt lat="44.31514" lon="5.79133">
        <ele>592</ele>
        <time>2019-06-19T10:18:04Z</time>
      </trkpt>
      <trkpt lat="44.31511" lon="5.79142">
        <ele>592</ele>
        <time>2019-06-19T10:18:05Z</time>
      </trkpt>
      <trkpt lat="44.31508" lon="5.79151">
        <ele>592</ele>
        <time>2019-06-19T10:18:06Z</time>
      </trkpt>
      <trkpt lat="44.31505" lon="5.79161">
        <ele>592</ele>
        <time>2019-06-19T10:18:07Z</time>
      </trkpt>
      <trkpt lat="44.31502" lon="5.7917">
        <ele>592</ele>
        <time>2019-06-19T10:18:08Z</time>
      </trkpt>
      <trkpt lat="44.31498" lon="5.79179">
        <ele>592</ele>
        <time>2019-06-19T10:18:09Z</time>
      </trkpt>
      <trkpt lat="44.31495" lon="5.79188">
        <ele>592</ele>
        <time>2019-06-19T10:18:10Z</time>
      </trkpt>
      <trkpt lat="44.31491" lon="5.79195">
        <ele>592</ele>
        <time>2019-06-19T10:18:11Z</time>
      </trkpt>
      <trkpt lat="44.31488" lon="5.79202">
        <ele>592</ele>
        <time>2019-06-19T10:18:12Z</time>
      </trkpt>
      <trkpt lat="44.31484" lon="5.79208">
        <ele>592</ele>
        <time>2019-06-19T10:18:13Z</time>
      </trkpt>
      <trkpt lat="44.31481" lon="5.79214">
        <ele>592</ele>
        <time>2019-06-19T10:18:14Z</time>
      </trkpt>
      <trkpt lat="44.31478" lon="5.7922">
        <ele>592</ele>
        <time>2019-06-19T10:18:15Z</time>
      </trkpt>
      <trkpt lat="44.31475" lon="5.79227">
        <ele>592</ele>
        <time>2019-06-19T10:18:16Z</time>
      </trkpt>
      <trkpt lat="44.31472" lon="5.79233">
        <ele>592</ele>
        <time>2019-06-19T10:18:17Z</time>
      </trkpt>
      <trkpt lat="44.3147" lon="5.7924">
        <ele>592</ele>
        <time>2019-06-19T10:18:18Z</time>
      </trkpt>
      <trkpt lat="44.31468" lon="5.79247">
        <ele>592</ele>
        <time>2019-06-19T10:18:19Z</time>
      </trkpt>
      <trkpt lat="44.31466" lon="5.79254">
        <ele>592</ele>
        <time>2019-06-19T10:18:20Z</time>
      </trkpt>
      <trkpt lat="44.31464" lon="5.7926">
        <ele>592</ele>
        <time>2019-06-19T10:18:21Z</time>
      </trkpt>
      <trkpt lat="44.31463" lon="5.79267">
        <ele>592</ele>
        <time>2019-06-19T10:18:22Z</time>
      </trkpt>
      <trkpt lat="44.31462" lon="5.79274">
        <ele>592</ele>
        <time>2019-06-19T10:18:23Z</time>
      </trkpt>
      <trkpt lat="44.31461" lon="5.79281">
        <ele>592</ele>
        <time>2019-06-19T10:18:24Z</time>
      </trkpt>
      <trkpt lat="44.31459" lon="5.79287">
        <ele>592</ele>
        <time>2019-06-19T10:18:25Z</time>
      </trkpt>
      <trkpt lat="44.31458" lon="5.79293">
        <ele>592</ele>
        <time>2019-06-19T10:18:26Z</time>
      </trkpt>
      <trkpt lat="44.31457" lon="5.793">
        <ele>592</ele>
        <time>2019-06-19T10:18:27Z</time>
      </trkpt>
      <trkpt lat="44.31456" lon="5.79306">
        <ele>592</ele>
        <time>2019-06-19T10:18:28Z</time>
      </trkpt>
      <trkpt lat="44.31455" lon="5.79312">
        <ele>592</ele>
        <time>2019-06-19T10:18:29Z</time>
      </trkpt>
      <trkpt lat="44.31454" lon="5.79318">
        <ele>593</ele>
        <time>2019-06-19T10:18:30Z</time>
      </trkpt>
      <trkpt lat="44.31453" lon="5.79323">
        <ele>593</ele>
        <time>2019-06-19T10:18:31Z</time>
      </trkpt>
      <trkpt lat="44.31453" lon="5.79329">
        <ele>593</ele>
        <time>2019-06-19T10:18:32Z</time>
      </trkpt>
      <trkpt lat="44.31453" lon="5.79334">
        <ele>593</ele>
        <time>2019-06-19T10:18:33Z</time>
      </trkpt>
      <trkpt lat="44.31452" lon="5.79339">
        <ele>594</ele>
        <time>2019-06-19T10:18:34Z</time>
      </trkpt>
      <trkpt lat="44.31452" lon="5.79344">
        <ele>594</ele>
        <time>2019-06-19T10:18:35Z</time>
      </trkpt>
      <trkpt lat="44.31452" lon="5.79349">
        <ele>594</ele>
        <time>2019-06-19T10:18:36Z</time>
      </trkpt>
      <trkpt lat="44.31452" lon="5.79354">
        <ele>594</ele>
        <time>2019-06-19T10:18:37Z</time>
      </trkpt>
      <trkpt lat="44.31453" lon="5.79359">
        <ele>594</ele>
        <time>2019-06-19T10:18:38Z</time>
      </trkpt>
      <trkpt lat="44.31453" lon="5.79364">
        <ele>594</ele>
        <time>2019-06-19T10:18:39Z</time>
      </trkpt>
      <trkpt lat="44.31453" lon="5.7937">
        <ele>595</ele>
        <time>2019-06-19T10:18:40Z</time>
      </trkpt>
      <trkpt lat="44.31454" lon="5.79376">
        <ele>595</ele>
        <time>2019-06-19T10:18:41Z</time>
      </trkpt>
      <trkpt lat="44.31455" lon="5.79381">
        <ele>595</ele>
        <time>2019-06-19T10:18:42Z</time>
      </trkpt>
      <trkpt lat="44.31455" lon="5.79386">
        <ele>595</ele>
        <time>2019-06-19T10:18:43Z</time>
      </trkpt>
      <trkpt lat="44.31456" lon="5.79391">
        <ele>596</ele>
        <time>2019-06-19T10:18:44Z</time>
      </trkpt>
      <trkpt lat="44.31457" lon="5.79395">
        <ele>596</ele>
        <time>2019-06-19T10:18:45Z</time>
      </trkpt>
      <trkpt lat="44.31457" lon="5.79399">
        <ele>596</ele>
        <time>2019-06-19T10:18:46Z</time>
      </trkpt>
      <trkpt lat="44.31457" lon="5.79404">
        <ele>596</ele>
        <time>2019-06-19T10:18:47Z</time>
      </trkpt>
      <trkpt lat="44.31458" lon="5.79408">
        <ele>597</ele>
        <time>2019-06-19T10:18:48Z</time>
      </trkpt>
      <trkpt lat="44.31459" lon="5.79413">
        <ele>597</ele>
        <time>2019-06-19T10:18:49Z</time>
      </trkpt>
      <trkpt lat="44.31459" lon="5.79417">
        <ele>597</ele>
        <time>2019-06-19T10:18:50Z</time>
      </trkpt>
      <trkpt lat="44.31459" lon="5.79421">
        <ele>597</ele>
        <time>2019-06-19T10:18:51Z</time>
      </trkpt>
      <trkpt lat="44.31459" lon="5.79426">
        <ele>598</ele>
        <time>2019-06-19T10:18:52Z</time>
      </trkpt>
      <trkpt lat="44.31459" lon="5.7943">
        <ele>598</ele>
        <time>2019-06-19T10:18:53Z</time>
      </trkpt>
      <trkpt lat="44.31459" lon="5.79435">
        <ele>598</ele>
        <time>2019-06-19T10:18:54Z</time>
      </trkpt>
      <trkpt lat="44.31459" lon="5.79439">
        <ele>598</ele>
        <time>2019-06-19T10:18:55Z</time>
      </trkpt>
      <trkpt lat="44.31459" lon="5.79444">
        <ele>598</ele>
        <time>2019-06-19T10:18:56Z</time>
      </trkpt>
      <trkpt lat="44.31458" lon="5.79448">
        <ele>598</ele>
        <time>2019-06-19T10:18:57Z</time>
      </trkpt>
      <trkpt lat="44.31458" lon="5.79452">
        <ele>599</ele>
        <time>2019-06-19T10:18:58Z</time>
      </trkpt>
      <trkpt lat="44.31457" lon="5.79456">
        <ele>599</ele>
        <time>2019-06-19T10:18:59Z</time>
      </trkpt>
      <trkpt lat="44.31457" lon="5.7946">
        <ele>599</ele>
        <time>2019-06-19T10:19:00Z</time>
      </trkpt>
      <trkpt lat="44.31456" lon="5.79465">
        <ele>599</ele>
        <time>2019-06-19T10:19:01Z</time>
      </trkpt>
      <trkpt lat="44.31456" lon="5.79469">
        <ele>599</ele>
        <time>2019-06-19T10:19:02Z</time>
      </trkpt>
      <trkpt lat="44.31455" lon="5.79473">
        <ele>600</ele>
        <time>2019-06-19T10:19:03Z</time>
      </trkpt>
      <trkpt lat="44.31454" lon="5.79477">
        <ele>600</ele>
        <time>2019-06-19T10:19:04Z</time>
      </trkpt>
      <trkpt lat="44.31454" lon="5.79482">
        <ele>600</ele>
        <time>2019-06-19T10:19:05Z</time>
      </trkpt>
      <trkpt lat="44.31453" lon="5.79486">
        <ele>600</ele>
        <time>2019-06-19T10:19:06Z</time>
      </trkpt>
      <trkpt lat="44.31452" lon="5.79491">
        <ele>600</ele>
        <time>2019-06-19T10:19:07Z</time>
      </trkpt>
      <trkpt lat="44.31451" lon="5.79494">
        <ele>600</ele>
        <time>2019-06-19T10:19:08Z</time>
      </trkpt>
      <trkpt lat="44.31451" lon="5.79498">
        <ele>600</ele>
        <time>2019-06-19T10:19:09Z</time>
      </trkpt>
      <trkpt lat="44.3145" lon="5.79502">
        <ele>600</ele>
        <time>2019-06-19T10:19:10Z</time>
      </trkpt>
      <trkpt lat="44.31448" lon="5.79505">
        <ele>600</ele>
        <time>2019-06-19T10:19:11Z</time>
      </trkpt>
      <trkpt lat="44.31447" lon="5.79509">
        <ele>600</ele>
        <time>2019-06-19T10:19:12Z</time>
      </trkpt>
      <trkpt lat="44.31446" lon="5.79513">
        <ele>600</ele>
        <time>2019-06-19T10:19:13Z</time>
      </trkpt>
      <trkpt lat="44.31445" lon="5.79516">
        <ele>600</ele>
        <time>2019-06-19T10:19:14Z</time>
      </trkpt>
      <trkpt lat="44.31445" lon="5.7952">
        <ele>600</ele>
        <time>2019-06-19T10:19:15Z</time>
      </trkpt>
      <trkpt lat="44.31443" lon="5.79523">
        <ele>600</ele>
        <time>2019-06-19T10:19:16Z</time>
      </trkpt>
      <trkpt lat="44.31442" lon="5.79527">
        <ele>600</ele>
        <time>2019-06-19T10:19:17Z</time>
      </trkpt>
      <trkpt lat="44.31441" lon="5.7953">
        <ele>600</ele>
        <time>2019-06-19T10:19:18Z</time>
      </trkpt>
      <trkpt lat="44.31441" lon="5.79534">
        <ele>600</ele>
        <time>2019-06-19T10:19:19Z</time>
      </trkpt>
      <trkpt lat="44.3144" lon="5.79537">
        <ele>600</ele>
        <time>2019-06-19T10:19:20Z</time>
      </trkpt>
      <trkpt lat="44.31439" lon="5.79541">
        <ele>600</ele>
        <time>2019-06-19T10:19:21Z</time>
      </trkpt>
      <trkpt lat="44.31438" lon="5.79545">
        <ele>600</ele>
        <time>2019-06-19T10:19:22Z</time>
      </trkpt>
      <trkpt lat="44.31437" lon="5.79549">
        <ele>601</ele>
        <time>2019-06-19T10:19:23Z</time>
      </trkpt>
      <trkpt lat="44.31435" lon="5.79554">
        <ele>601</ele>
        <time>2019-06-19T10:19:24Z</time>
      </trkpt>
      <trkpt lat="44.31435" lon="5.79558">
        <ele>602</ele>
        <time>2019-06-19T10:19:25Z</time>
      </trkpt>
      <trkpt lat="44.31433" lon="5.79561">
        <ele>602</ele>
        <time>2019-06-19T10:19:26Z</time>
      </trkpt>
      <trkpt lat="44.31433" lon="5.79565">
        <ele>602</ele>
        <time>2019-06-19T10:19:27Z</time>
      </trkpt>
      <trkpt lat="44.31432" lon="5.79569">
        <ele>603</ele>
        <time>2019-06-19T10:19:28Z</time>
      </trkpt>
      <trkpt lat="44.31431" lon="5.79573">
        <ele>603</ele>
        <time>2019-06-19T10:19:29Z</time>
      </trkpt>
      <trkpt lat="44.3143" lon="5.79577">
        <ele>603</ele>
        <time>2019-06-19T10:19:30Z</time>
      </trkpt>
      <trkpt lat="44.31429" lon="5.7958">
        <ele>603</ele>
        <time>2019-06-19T10:19:31Z</time>
      </trkpt>
      <trkpt lat="44.31427" lon="5.79584">
        <ele>603</ele>
        <time>2019-06-19T10:19:32Z</time>
      </trkpt>
      <trkpt lat="44.31426" lon="5.79587">
        <ele>604</ele>
        <time>2019-06-19T10:19:33Z</time>
      </trkpt>
      <trkpt lat="44.31425" lon="5.7959">
        <ele>604</ele>
        <time>2019-06-19T10:19:34Z</time>
      </trkpt>
      <trkpt lat="44.31424" lon="5.79593">
        <ele>604</ele>
        <time>2019-06-19T10:19:35Z</time>
      </trkpt>
      <trkpt lat="44.31423" lon="5.79596">
        <ele>604</ele>
        <time>2019-06-19T10:19:36Z</time>
      </trkpt>
      <trkpt lat="44.31422" lon="5.79599">
        <ele>604</ele>
        <time>2019-06-19T10:19:37Z</time>
      </trkpt>
      <trkpt lat="44.31421" lon="5.79603">
        <ele>604</ele>
        <time>2019-06-19T10:19:38Z</time>
      </trkpt>
      <trkpt lat="44.3142" lon="5.79606">
        <ele>605</ele>
        <time>2019-06-19T10:19:39Z</time>
      </trkpt>
      <trkpt lat="44.3142" lon="5.7961">
        <ele>605</ele>
        <time>2019-06-19T10:19:40Z</time>
      </trkpt>
      <trkpt lat="44.31419" lon="5.79614">
        <ele>605</ele>
        <time>2019-06-19T10:19:41Z</time>
      </trkpt>
      <trkpt lat="44.31418" lon="5.79618">
        <ele>606</ele>
        <time>2019-06-19T10:19:42Z</time>
      </trkpt>
      <trkpt lat="44.31417" lon="5.79623">
        <ele>606</ele>
        <time>2019-06-19T10:19:43Z</time>
      </trkpt>
      <trkpt lat="44.31416" lon="5.79626">
        <ele>606</ele>
        <time>2019-06-19T10:19:44Z</time>
      </trkpt>
      <trkpt lat="44.31415" lon="5.7963">
        <ele>607</ele>
        <time>2019-06-19T10:19:45Z</time>
      </trkpt>
      <trkpt lat="44.31414" lon="5.79634">
        <ele>607</ele>
        <time>2019-06-19T10:19:46Z</time>
      </trkpt>
      <trkpt lat="44.31413" lon="5.79637">
        <ele>607</ele>
        <time>2019-06-19T10:19:47Z</time>
      </trkpt>
      <trkpt lat="44.31412" lon="5.79641">
        <ele>607</ele>
        <time>2019-06-19T10:19:48Z</time>
      </trkpt>
      <trkpt lat="44.31411" lon="5.79644">
        <ele>608</ele>
        <time>2019-06-19T10:19:49Z</time>
      </trkpt>
      <trkpt lat="44.3141" lon="5.79648">
        <ele>608</ele>
        <time>2019-06-19T10:19:50Z</time>
      </trkpt>
      <trkpt lat="44.31409" lon="5.79652">
        <ele>608</ele>
        <time>2019-06-19T10:19:51Z</time>
      </trkpt>
      <trkpt lat="44.31407" lon="5.79655">
        <ele>608</ele>
        <time>2019-06-19T10:19:52Z</time>
      </trkpt>
      <trkpt lat="44.31406" lon="5.79659">
        <ele>608</ele>
        <time>2019-06-19T10:19:53Z</time>
      </trkpt>
      <trkpt lat="44.31405" lon="5.79662">
        <ele>608</ele>
        <time>2019-06-19T10:19:54Z</time>
      </trkpt>
      <trkpt lat="44.31404" lon="5.79666">
        <ele>608</ele>
        <time>2019-06-19T10:19:55Z</time>
      </trkpt>
      <trkpt lat="44.31403" lon="5.79669">
        <ele>609</ele>
        <time>2019-06-19T10:19:56Z</time>
      </trkpt>
      <trkpt lat="44.31402" lon="5.79672">
        <ele>609</ele>
        <time>2019-06-19T10:19:57Z</time>
      </trkpt>
      <trkpt lat="44.31401" lon="5.79676">
        <ele>609</ele>
        <time>2019-06-19T10:19:58Z</time>
      </trkpt>
      <trkpt lat="44.31401" lon="5.7968">
        <ele>609</ele>
        <time>2019-06-19T10:19:59Z</time>
      </trkpt>
      <trkpt lat="44.314" lon="5.79683">
        <ele>609</ele>
        <time>2019-06-19T10:20:00Z</time>
      </trkpt>
      <trkpt lat="44.31399" lon="5.79687">
        <ele>609</ele>
        <time>2019-06-19T10:20:01Z</time>
      </trkpt>
      <trkpt lat="44.31397" lon="5.79691">
        <ele>609</ele>
        <time>2019-06-19T10:20:02Z</time>
      </trkpt>
      <trkpt lat="44.31396" lon="5.79694">
        <ele>609</ele>
        <time>2019-06-19T10:20:03Z</time>
      </trkpt>
      <trkpt lat="44.31395" lon="5.79698">
        <ele>610</ele>
        <time>2019-06-19T10:20:04Z</time>
      </trkpt>
      <trkpt lat="44.31393" lon="5.79702">
        <ele>610</ele>
        <time>2019-06-19T10:20:05Z</time>
      </trkpt>
      <trkpt lat="44.31392" lon="5.79706">
        <ele>610</ele>
        <time>2019-06-19T10:20:06Z</time>
      </trkpt>
      <trkpt lat="44.3139" lon="5.79711">
        <ele>610</ele>
        <time>2019-06-19T10:20:07Z</time>
      </trkpt>
      <trkpt lat="44.31389" lon="5.79715">
        <ele>610</ele>
        <time>2019-06-19T10:20:08Z</time>
      </trkpt>
      <trkpt lat="44.31387" lon="5.79719">
        <ele>611</ele>
        <time>2019-06-19T10:20:09Z</time>
      </trkpt>
      <trkpt lat="44.31385" lon="5.79724">
        <ele>611</ele>
        <time>2019-06-19T10:20:10Z</time>
      </trkpt>
      <trkpt lat="44.31383" lon="5.79728">
        <ele>611</ele>
        <time>2019-06-19T10:20:11Z</time>
      </trkpt>
      <trkpt lat="44.31381" lon="5.79733">
        <ele>611</ele>
        <time>2019-06-19T10:20:12Z</time>
      </trkpt>
      <trkpt lat="44.31379" lon="5.79737">
        <ele>611</ele>
        <time>2019-06-19T10:20:13Z</time>
      </trkpt>
      <trkpt lat="44.31376" lon="5.79742">
        <ele>611</ele>
        <time>2019-06-19T10:20:14Z</time>
      </trkpt>
      <trkpt lat="44.31373" lon="5.79748">
        <ele>611</ele>
        <time>2019-06-19T10:20:15Z</time>
      </trkpt>
      <trkpt lat="44.3137" lon="5.79753">
        <ele>611</ele>
        <time>2019-06-19T10:20:16Z</time>
      </trkpt>
      <trkpt lat="44.31366" lon="5.79759">
        <ele>611</ele>
        <time>2019-06-19T10:20:17Z</time>
      </trkpt>
      <trkpt lat="44.31363" lon="5.79765">
        <ele>611</ele>
        <time>2019-06-19T10:20:18Z</time>
      </trkpt>
      <trkpt lat="44.31359" lon="5.79771">
        <ele>611</ele>
        <time>2019-06-19T10:20:19Z</time>
      </trkpt>
      <trkpt lat="44.31355" lon="5.79777">
        <ele>611</ele>
        <time>2019-06-19T10:20:20Z</time>
      </trkpt>
      <trkpt lat="44.31351" lon="5.79783">
        <ele>611</ele>
        <time>2019-06-19T10:20:21Z</time>
      </trkpt>
      <trkpt lat="44.31347" lon="5.79789">
        <ele>611</ele>
        <time>2019-06-19T10:20:22Z</time>
      </trkpt>
      <trkpt lat="44.31343" lon="5.79795">
        <ele>611</ele>
        <time>2019-06-19T10:20:23Z</time>
      </trkpt>
      <trkpt lat="44.3134" lon="5.79802">
        <ele>611</ele>
        <time>2019-06-19T10:20:24Z</time>
      </trkpt>
      <trkpt lat="44.31336" lon="5.79808">
        <ele>611</ele>
        <time>2019-06-19T10:20:25Z</time>
      </trkpt>
      <trkpt lat="44.31332" lon="5.79815">
        <ele>611</ele>
        <time>2019-06-19T10:20:26Z</time>
      </trkpt>
      <trkpt lat="44.31329" lon="5.79822">
        <ele>611</ele>
        <time>2019-06-19T10:20:27Z</time>
      </trkpt>
      <trkpt lat="44.31325" lon="5.79828">
        <ele>611</ele>
        <time>2019-06-19T10:20:28Z</time>
      </trkpt>
      <trkpt lat="44.31321" lon="5.79835">
        <ele>611</ele>
        <time>2019-06-19T10:20:29Z</time>
      </trkpt>
      <trkpt lat="44.31317" lon="5.79842">
        <ele>611</ele>
        <time>2019-06-19T10:20:30Z</time>
      </trkpt>
      <trkpt lat="44.31313" lon="5.79848">
        <ele>611</ele>
        <time>2019-06-19T10:20:31Z</time>
      </trkpt>
      <trkpt lat="44.31308" lon="5.79854">
        <ele>611</ele>
        <time>2019-06-19T10:20:32Z</time>
      </trkpt>
      <trkpt lat="44.31305" lon="5.7986">
        <ele>611</ele>
        <time>2019-06-19T10:20:33Z</time>
      </trkpt>
      <trkpt lat="44.313" lon="5.79866">
        <ele>611</ele>
        <time>2019-06-19T10:20:34Z</time>
      </trkpt>
      <trkpt lat="44.31297" lon="5.79872">
        <ele>611</ele>
        <time>2019-06-19T10:20:35Z</time>
      </trkpt>
      <trkpt lat="44.31293" lon="5.79878">
        <ele>611</ele>
        <time>2019-06-19T10:20:36Z</time>
      </trkpt>
      <trkpt lat="44.31289" lon="5.79884">
        <ele>611</ele>
        <time>2019-06-19T10:20:37Z</time>
      </trkpt>
      <trkpt lat="44.31285" lon="5.79889">
        <ele>611</ele>
        <time>2019-06-19T10:20:38Z</time>
      </trkpt>
      <trkpt lat="44.31282" lon="5.79895">
        <ele>611</ele>
        <time>2019-06-19T10:20:39Z</time>
      </trkpt>
      <trkpt lat="44.31278" lon="5.799">
        <ele>611</ele>
        <time>2019-06-19T10:20:40Z</time>
      </trkpt>
      <trkpt lat="44.31274" lon="5.79904">
        <ele>612</ele>
        <time>2019-06-19T10:20:41Z</time>
      </trkpt>
      <trkpt lat="44.3127" lon="5.79909">
        <ele>612</ele>
        <time>2019-06-19T10:20:42Z</time>
      </trkpt>
      <trkpt lat="44.31267" lon="5.79913">
        <ele>612</ele>
        <time>2019-06-19T10:20:43Z</time>
      </trkpt>
      <trkpt lat="44.31263" lon="5.79918">
        <ele>612</ele>
        <time>2019-06-19T10:20:44Z</time>
      </trkpt>
      <trkpt lat="44.3126" lon="5.79922">
        <ele>612</ele>
        <time>2019-06-19T10:20:45Z</time>
      </trkpt>
      <trkpt lat="44.31257" lon="5.79927">
        <ele>613</ele>
        <time>2019-06-19T10:20:46Z</time>
      </trkpt>
      <trkpt lat="44.31254" lon="5.79931">
        <ele>613</ele>
        <time>2019-06-19T10:20:47Z</time>
      </trkpt>
      <trkpt lat="44.3125" lon="5.79935">
        <ele>613</ele>
        <time>2019-06-19T10:20:48Z</time>
      </trkpt>
      <trkpt lat="44.31247" lon="5.7994">
        <ele>613</ele>
        <time>2019-06-19T10:20:49Z</time>
      </trkpt>
      <trkpt lat="44.31244" lon="5.79944">
        <ele>614</ele>
        <time>2019-06-19T10:20:50Z</time>
      </trkpt>
      <trkpt lat="44.3124" lon="5.79949">
        <ele>614</ele>
        <time>2019-06-19T10:20:51Z</time>
      </trkpt>
      <trkpt lat="44.31237" lon="5.79954">
        <ele>614</ele>
        <time>2019-06-19T10:20:52Z</time>
      </trkpt>
      <trkpt lat="44.31233" lon="5.79959">
        <ele>614</ele>
        <time>2019-06-19T10:20:53Z</time>
      </trkpt>
      <trkpt lat="44.3123" lon="5.79966">
        <ele>614</ele>
        <time>2019-06-19T10:20:54Z</time>
      </trkpt>
      <trkpt lat="44.31227" lon="5.79974">
        <ele>614</ele>
        <time>2019-06-19T10:20:55Z</time>
      </trkpt>
      <trkpt lat="44.31225" lon="5.79983">
        <ele>614</ele>
        <time>2019-06-19T10:20:56Z</time>
      </trkpt>
      <trkpt lat="44.31224" lon="5.79991">
        <ele>614</ele>
        <time>2019-06-19T10:20:57Z</time>
      </trkpt>
      <trkpt lat="44.31224" lon="5.8">
        <ele>614</ele>
        <time>2019-06-19T10:20:58Z</time>
      </trkpt>
      <trkpt lat="44.31224" lon="5.80009">
        <ele>614</ele>
        <time>2019-06-19T10:20:59Z</time>
      </trkpt>
      <trkpt lat="44.31224" lon="5.80018">
        <ele>614</ele>
        <time>2019-06-19T10:21:00Z</time>
      </trkpt>
      <trkpt lat="44.31224" lon="5.80026">
        <ele>614</ele>
        <time>2019-06-19T10:21:01Z</time>
      </trkpt>
      <trkpt lat="44.31224" lon="5.80034">
        <ele>614</ele>
        <time>2019-06-19T10:21:02Z</time>
      </trkpt>
      <trkpt lat="44.31223" lon="5.80041">
        <ele>614</ele>
        <time>2019-06-19T10:21:03Z</time>
      </trkpt>
      <trkpt lat="44.31221" lon="5.80049">
        <ele>614</ele>
        <time>2019-06-19T10:21:04Z</time>
      </trkpt>
      <trkpt lat="44.31219" lon="5.80056">
        <ele>614</ele>
        <time>2019-06-19T10:21:05Z</time>
      </trkpt>
      <trkpt lat="44.31216" lon="5.80063">
        <ele>614</ele>
        <time>2019-06-19T10:21:06Z</time>
      </trkpt>
      <trkpt lat="44.31213" lon="5.8007">
        <ele>614</ele>
        <time>2019-06-19T10:21:07Z</time>
      </trkpt>
      <trkpt lat="44.3121" lon="5.80076">
        <ele>614</ele>
        <time>2019-06-19T10:21:08Z</time>
      </trkpt>
      <trkpt lat="44.31206" lon="5.80083">
        <ele>614</ele>
        <time>2019-06-19T10:21:09Z</time>
      </trkpt>
      <trkpt lat="44.31202" lon="5.80089">
        <ele>614</ele>
        <time>2019-06-19T10:21:10Z</time>
      </trkpt>
      <trkpt lat="44.31198" lon="5.80095">
        <ele>614</ele>
        <time>2019-06-19T10:21:11Z</time>
      </trkpt>
      <trkpt lat="44.31194" lon="5.80101">
        <ele>614</ele>
        <time>2019-06-19T10:21:12Z</time>
      </trkpt>
      <trkpt lat="44.3119" lon="5.80107">
        <ele>614</ele>
        <time>2019-06-19T10:21:13Z</time>
      </trkpt>
      <trkpt lat="44.31186" lon="5.80114">
        <ele>614</ele>
        <time>2019-06-19T10:21:14Z</time>
      </trkpt>
      <trkpt lat="44.31182" lon="5.80121">
        <ele>614</ele>
        <time>2019-06-19T10:21:15Z</time>
      </trkpt>
      <trkpt lat="44.3118" lon="5.80129">
        <ele>614</ele>
        <time>2019-06-19T10:21:16Z</time>
      </trkpt>
      <trkpt lat="44.31178" lon="5.80137">
        <ele>614</ele>
        <time>2019-06-19T10:21:17Z</time>
      </trkpt>
      <trkpt lat="44.31176" lon="5.80145">
        <ele>614</ele>
        <time>2019-06-19T10:21:18Z</time>
      </trkpt>
      <trkpt lat="44.31174" lon="5.80153">
        <ele>614</ele>
        <time>2019-06-19T10:21:19Z</time>
      </trkpt>
      <trkpt lat="44.31173" lon="5.8016">
        <ele>614</ele>
        <time>2019-06-19T10:21:20Z</time>
      </trkpt>
      <trkpt lat="44.31171" lon="5.80167">
        <ele>614</ele>
        <time>2019-06-19T10:21:21Z</time>
      </trkpt>
      <trkpt lat="44.3117" lon="5.80173">
        <ele>614</ele>
        <time>2019-06-19T10:21:22Z</time>
      </trkpt>
      <trkpt lat="44.31168" lon="5.8018">
        <ele>614</ele>
        <time>2019-06-19T10:21:23Z</time>
      </trkpt>
      <trkpt lat="44.31165" lon="5.80186">
        <ele>614</ele>
        <time>2019-06-19T10:21:24Z</time>
      </trkpt>
      <trkpt lat="44.31163" lon="5.80192">
        <ele>614</ele>
        <time>2019-06-19T10:21:25Z</time>
      </trkpt>
      <trkpt lat="44.31161" lon="5.80198">
        <ele>614</ele>
        <time>2019-06-19T10:21:26Z</time>
      </trkpt>
      <trkpt lat="44.31158" lon="5.80206">
        <ele>614</ele>
        <time>2019-06-19T10:21:27Z</time>
      </trkpt>
      <trkpt lat="44.31155" lon="5.80212">
        <ele>614</ele>
        <time>2019-06-19T10:21:28Z</time>
      </trkpt>
      <trkpt lat="44.31152" lon="5.80219">
        <ele>615</ele>
        <time>2019-06-19T10:21:29Z</time>
      </trkpt>
      <trkpt lat="44.3115" lon="5.80226">
        <ele>615</ele>
        <time>2019-06-19T10:21:30Z</time>
      </trkpt>
      <trkpt lat="44.31147" lon="5.80231">
        <ele>616</ele>
        <time>2019-06-19T10:21:31Z</time>
      </trkpt>
      <trkpt lat="44.31144" lon="5.80237">
        <ele>616</ele>
        <time>2019-06-19T10:21:32Z</time>
      </trkpt>
      <trkpt lat="44.31142" lon="5.80243">
        <ele>617</ele>
        <time>2019-06-19T10:21:33Z</time>
      </trkpt>
      <trkpt lat="44.31139" lon="5.80249">
        <ele>617</ele>
        <time>2019-06-19T10:21:34Z</time>
      </trkpt>
      <trkpt lat="44.31136" lon="5.80254">
        <ele>618</ele>
        <time>2019-06-19T10:21:35Z</time>
      </trkpt>
      <trkpt lat="44.31134" lon="5.8026">
        <ele>618</ele>
        <time>2019-06-19T10:21:36Z</time>
      </trkpt>
      <trkpt lat="44.31131" lon="5.80267">
        <ele>619</ele>
        <time>2019-06-19T10:21:37Z</time>
      </trkpt>
      <trkpt lat="44.31128" lon="5.80273">
        <ele>619</ele>
        <time>2019-06-19T10:21:38Z</time>
      </trkpt>
      <trkpt lat="44.31126" lon="5.80279">
        <ele>619</ele>
        <time>2019-06-19T10:21:39Z</time>
      </trkpt>
      <trkpt lat="44.31123" lon="5.80285">
        <ele>619</ele>
        <time>2019-06-19T10:21:40Z</time>
      </trkpt>
      <trkpt lat="44.31121" lon="5.8029">
        <ele>619</ele>
        <time>2019-06-19T10:21:41Z</time>
      </trkpt>
      <trkpt lat="44.31118" lon="5.80296">
        <ele>619</ele>
        <time>2019-06-19T10:21:42Z</time>
      </trkpt>
      <trkpt lat="44.31116" lon="5.80305">
        <ele>619</ele>
        <time>2019-06-19T10:21:43Z</time>
      </trkpt>
      <trkpt lat="44.31114" lon="5.80313">
        <ele>619</ele>
        <time>2019-06-19T10:21:44Z</time>
      </trkpt>
      <trkpt lat="44.31113" lon="5.8032">
        <ele>620</ele>
        <time>2019-06-19T10:21:45Z</time>
      </trkpt>
      <trkpt lat="44.31113" lon="5.80328">
        <ele>620</ele>
        <time>2019-06-19T10:21:46Z</time>
      </trkpt>
      <trkpt lat="44.31113" lon="5.80336">
        <ele>621</ele>
        <time>2019-06-19T10:21:47Z</time>
      </trkpt>
      <trkpt lat="44.31113" lon="5.80344">
        <ele>621</ele>
        <time>2019-06-19T10:21:48Z</time>
      </trkpt>
      <trkpt lat="44.31114" lon="5.80352">
        <ele>621</ele>
        <time>2019-06-19T10:21:49Z</time>
      </trkpt>
      <trkpt lat="44.31114" lon="5.8036">
        <ele>622</ele>
        <time>2019-06-19T10:21:50Z</time>
      </trkpt>
      <trkpt lat="44.31115" lon="5.80368">
        <ele>622</ele>
        <time>2019-06-19T10:21:51Z</time>
      </trkpt>
      <trkpt lat="44.31115" lon="5.80376">
        <ele>622</ele>
        <time>2019-06-19T10:21:52Z</time>
      </trkpt>
      <trkpt lat="44.31115" lon="5.80384">
        <ele>622</ele>
        <time>2019-06-19T10:21:53Z</time>
      </trkpt>
      <trkpt lat="44.31116" lon="5.80392">
        <ele>622</ele>
        <time>2019-06-19T10:21:54Z</time>
      </trkpt>
      <trkpt lat="44.31116" lon="5.804">
        <ele>622</ele>
        <time>2019-06-19T10:21:55Z</time>
      </trkpt>
      <trkpt lat="44.31116" lon="5.80408">
        <ele>622</ele>
        <time>2019-06-19T10:21:56Z</time>
      </trkpt>
      <trkpt lat="44.31116" lon="5.80416">
        <ele>623</ele>
        <time>2019-06-19T10:21:57Z</time>
      </trkpt>
      <trkpt lat="44.31117" lon="5.80424">
        <ele>623</ele>
        <time>2019-06-19T10:21:58Z</time>
      </trkpt>
      <trkpt lat="44.31118" lon="5.80432">
        <ele>623</ele>
        <time>2019-06-19T10:21:59Z</time>
      </trkpt>
      <trkpt lat="44.3112" lon="5.8044">
        <ele>623</ele>
        <time>2019-06-19T10:22:00Z</time>
      </trkpt>
      <trkpt lat="44.3112" lon="5.80448">
        <ele>623</ele>
        <time>2019-06-19T10:22:01Z</time>
      </trkpt>
      <trkpt lat="44.3112" lon="5.80456">
        <ele>623</ele>
        <time>2019-06-19T10:22:02Z</time>
      </trkpt>
      <trkpt lat="44.3112" lon="5.80465">
        <ele>623</ele>
        <time>2019-06-19T10:22:03Z</time>
      </trkpt>
      <trkpt lat="44.31119" lon="5.80473">
        <ele>623</ele>
        <time>2019-06-19T10:22:04Z</time>
      </trkpt>
      <trkpt lat="44.31117" lon="5.8048">
        <ele>623</ele>
        <time>2019-06-19T10:22:05Z</time>
      </trkpt>
      <trkpt lat="44.31115" lon="5.80487">
        <ele>623</ele>
        <time>2019-06-19T10:22:06Z</time>
      </trkpt>
      <trkpt lat="44.31113" lon="5.80495">
        <ele>623</ele>
        <time>2019-06-19T10:22:07Z</time>
      </trkpt>
      <trkpt lat="44.3111" lon="5.80503">
        <ele>623</ele>
        <time>2019-06-19T10:22:08Z</time>
      </trkpt>
      <trkpt lat="44.31107" lon="5.8051">
        <ele>623</ele>
        <time>2019-06-19T10:22:09Z</time>
      </trkpt>
      <trkpt lat="44.31105" lon="5.80518">
        <ele>623</ele>
        <time>2019-06-19T10:22:10Z</time>
      </trkpt>
      <trkpt lat="44.31102" lon="5.80526">
        <ele>623</ele>
        <time>2019-06-19T10:22:11Z</time>
      </trkpt>
      <trkpt lat="44.311" lon="5.80535">
        <ele>623</ele>
        <time>2019-06-19T10:22:12Z</time>
      </trkpt>
      <trkpt lat="44.31098" lon="5.80543">
        <ele>623</ele>
        <time>2019-06-19T10:22:13Z</time>
      </trkpt>
      <trkpt lat="44.31096" lon="5.80552">
        <ele>623</ele>
        <time>2019-06-19T10:22:14Z</time>
      </trkpt>
      <trkpt lat="44.31094" lon="5.8056">
        <ele>623</ele>
        <time>2019-06-19T10:22:15Z</time>
      </trkpt>
      <trkpt lat="44.31092" lon="5.80568">
        <ele>623</ele>
        <time>2019-06-19T10:22:16Z</time>
      </trkpt>
      <trkpt lat="44.3109" lon="5.80576">
        <ele>623</ele>
        <time>2019-06-19T10:22:17Z</time>
      </trkpt>
      <trkpt lat="44.31088" lon="5.80584">
        <ele>623</ele>
        <time>2019-06-19T10:22:18Z</time>
      </trkpt>
      <trkpt lat="44.31086" lon="5.80591">
        <ele>623</ele>
        <time>2019-06-19T10:22:19Z</time>
      </trkpt>
      <trkpt lat="44.31084" lon="5.80599">
        <ele>623</ele>
        <time>2019-06-19T10:22:20Z</time>
      </trkpt>
      <trkpt lat="44.31082" lon="5.80607">
        <ele>623</ele>
        <time>2019-06-19T10:22:21Z</time>
      </trkpt>
      <trkpt lat="44.3108" lon="5.80615">
        <ele>623</ele>
        <time>2019-06-19T10:22:22Z</time>
      </trkpt>
      <trkpt lat="44.31078" lon="5.80623">
        <ele>623</ele>
        <time>2019-06-19T10:22:23Z</time>
      </trkpt>
      <trkpt lat="44.31075" lon="5.80631">
        <ele>623</ele>
        <time>2019-06-19T10:22:24Z</time>
      </trkpt>
      <trkpt lat="44.31073" lon="5.80638">
        <ele>623</ele>
        <time>2019-06-19T10:22:25Z</time>
      </trkpt>
      <trkpt lat="44.31071" lon="5.80646">
        <ele>623</ele>
        <time>2019-06-19T10:22:26Z</time>
      </trkpt>
      <trkpt lat="44.31069" lon="5.80653">
        <ele>623</ele>
        <time>2019-06-19T10:22:27Z</time>
      </trkpt>
      <trkpt lat="44.31067" lon="5.8066">
        <ele>623</ele>
        <time>2019-06-19T10:22:28Z</time>
      </trkpt>
      <trkpt lat="44.31065" lon="5.80667">
        <ele>623</ele>
        <time>2019-06-19T10:22:29Z</time>
      </trkpt>
      <trkpt lat="44.31063" lon="5.80675">
        <ele>623</ele>
        <time>2019-06-19T10:22:30Z</time>
      </trkpt>
      <trkpt lat="44.31061" lon="5.80682">
        <ele>623</ele>
        <time>2019-06-19T10:22:31Z</time>
      </trkpt>
      <trkpt lat="44.31059" lon="5.8069">
        <ele>623</ele>
        <time>2019-06-19T10:22:32Z</time>
      </trkpt>
      <trkpt lat="44.31057" lon="5.80698">
        <ele>623</ele>
        <time>2019-06-19T10:22:33Z</time>
      </trkpt>
      <trkpt lat="44.31055" lon="5.80707">
        <ele>623</ele>
        <time>2019-06-19T10:22:34Z</time>
      </trkpt>
      <trkpt lat="44.31052" lon="5.80716">
        <ele>623</ele>
        <time>2019-06-19T10:22:35Z</time>
      </trkpt>
      <trkpt lat="44.31049" lon="5.80724">
        <ele>623</ele>
        <time>2019-06-19T10:22:36Z</time>
      </trkpt>
      <trkpt lat="44.31047" lon="5.80732">
        <ele>623</ele>
        <time>2019-06-19T10:22:37Z</time>
      </trkpt>
      <trkpt lat="44.31044" lon="5.80741">
        <ele>623</ele>
        <time>2019-06-19T10:22:38Z</time>
      </trkpt>
      <trkpt lat="44.31041" lon="5.80751">
        <ele>623</ele>
        <time>2019-06-19T10:22:39Z</time>
      </trkpt>
      <trkpt lat="44.31037" lon="5.80759">
        <ele>623</ele>
        <time>2019-06-19T10:22:40Z</time>
      </trkpt>
      <trkpt lat="44.31033" lon="5.80768">
        <ele>623</ele>
        <time>2019-06-19T10:22:41Z</time>
      </trkpt>
      <trkpt lat="44.31029" lon="5.80778">
        <ele>623</ele>
        <time>2019-06-19T10:22:42Z</time>
      </trkpt>
      <trkpt lat="44.31025" lon="5.80788">
        <ele>623</ele>
        <time>2019-06-19T10:22:43Z</time>
      </trkpt>
      <trkpt lat="44.3102" lon="5.80796">
        <ele>623</ele>
        <time>2019-06-19T10:22:44Z</time>
      </trkpt>
      <trkpt lat="44.31016" lon="5.80806">
        <ele>622</ele>
        <time>2019-06-19T10:22:45Z</time>
      </trkpt>
      <trkpt lat="44.31011" lon="5.80817">
        <ele>622</ele>
        <time>2019-06-19T10:22:46Z</time>
      </trkpt>
      <trkpt lat="44.31007" lon="5.80827">
        <ele>622</ele>
        <time>2019-06-19T10:22:47Z</time>
      </trkpt>
      <trkpt lat="44.31003" lon="5.80838">
        <ele>622</ele>
        <time>2019-06-19T10:22:48Z</time>
      </trkpt>
      <trkpt lat="44.31001" lon="5.80849">
        <ele>622</ele>
        <time>2019-06-19T10:22:49Z</time>
      </trkpt>
      <trkpt lat="44.30999" lon="5.80859">
        <ele>622</ele>
        <time>2019-06-19T10:22:50Z</time>
      </trkpt>
      <trkpt lat="44.30998" lon="5.8087">
        <ele>622</ele>
        <time>2019-06-19T10:22:51Z</time>
      </trkpt>
      <trkpt lat="44.30997" lon="5.80881">
        <ele>621</ele>
        <time>2019-06-19T10:22:52Z</time>
      </trkpt>
      <trkpt lat="44.30995" lon="5.80892">
        <ele>621</ele>
        <time>2019-06-19T10:22:53Z</time>
      </trkpt>
      <trkpt lat="44.30992" lon="5.80902">
        <ele>621</ele>
        <time>2019-06-19T10:22:54Z</time>
      </trkpt>
      <trkpt lat="44.30989" lon="5.80913">
        <ele>621</ele>
        <time>2019-06-19T10:22:55Z</time>
      </trkpt>
      <trkpt lat="44.30986" lon="5.80924">
        <ele>620</ele>
        <time>2019-06-19T10:22:56Z</time>
      </trkpt>
      <trkpt lat="44.30982" lon="5.80935">
        <ele>620</ele>
        <time>2019-06-19T10:22:57Z</time>
      </trkpt>
      <trkpt lat="44.30978" lon="5.80945">
        <ele>620</ele>
        <time>2019-06-19T10:22:58Z</time>
      </trkpt>
      <trkpt lat="44.30973" lon="5.80956">
        <ele>620</ele>
        <time>2019-06-19T10:22:59Z</time>
      </trkpt>
      <trkpt lat="44.30968" lon="5.80966">
        <ele>619</ele>
        <time>2019-06-19T10:23:00Z</time>
      </trkpt>
      <trkpt lat="44.30963" lon="5.80976">
        <ele>619</ele>
        <time>2019-06-19T10:23:01Z</time>
      </trkpt>
      <trkpt lat="44.30956" lon="5.80986">
        <ele>618</ele>
        <time>2019-06-19T10:23:02Z</time>
      </trkpt>
      <trkpt lat="44.3095" lon="5.80996">
        <ele>618</ele>
        <time>2019-06-19T10:23:03Z</time>
      </trkpt>
      <trkpt lat="44.30944" lon="5.81006">
        <ele>617</ele>
        <time>2019-06-19T10:23:04Z</time>
      </trkpt>
      <trkpt lat="44.30939" lon="5.81016">
        <ele>617</ele>
        <time>2019-06-19T10:23:05Z</time>
      </trkpt>
      <trkpt lat="44.30935" lon="5.81026">
        <ele>616</ele>
        <time>2019-06-19T10:23:06Z</time>
      </trkpt>
      <trkpt lat="44.3093" lon="5.81037">
        <ele>616</ele>
        <time>2019-06-19T10:23:07Z</time>
      </trkpt>
      <trkpt lat="44.30926" lon="5.81048">
        <ele>616</ele>
        <time>2019-06-19T10:23:08Z</time>
      </trkpt>
      <trkpt lat="44.30923" lon="5.81059">
        <ele>616</ele>
        <time>2019-06-19T10:23:09Z</time>
      </trkpt>
      <trkpt lat="44.3092" lon="5.81069">
        <ele>616</ele>
        <time>2019-06-19T10:23:10Z</time>
      </trkpt>
      <trkpt lat="44.30917" lon="5.81079">
        <ele>616</ele>
        <time>2019-06-19T10:23:11Z</time>
      </trkpt>
      <trkpt lat="44.30915" lon="5.8109">
        <ele>616</ele>
        <time>2019-06-19T10:23:12Z</time>
      </trkpt>
      <trkpt lat="44.30912" lon="5.811">
        <ele>615</ele>
        <time>2019-06-19T10:23:13Z</time>
      </trkpt>
      <trkpt lat="44.30909" lon="5.81112">
        <ele>615</ele>
        <time>2019-06-19T10:23:14Z</time>
      </trkpt>
      <trkpt lat="44.30907" lon="5.81121">
        <ele>615</ele>
        <time>2019-06-19T10:23:15Z</time>
      </trkpt>
      <trkpt lat="44.30905" lon="5.81131">
        <ele>615</ele>
        <time>2019-06-19T10:23:16Z</time>
      </trkpt>
      <trkpt lat="44.30903" lon="5.8114">
        <ele>615</ele>
        <time>2019-06-19T10:23:17Z</time>
      </trkpt>
      <trkpt lat="44.30901" lon="5.81148">
        <ele>615</ele>
        <time>2019-06-19T10:23:18Z</time>
      </trkpt>
      <trkpt lat="44.30898" lon="5.81157">
        <ele>615</ele>
        <time>2019-06-19T10:23:19Z</time>
      </trkpt>
      <trkpt lat="44.30896" lon="5.81165">
        <ele>615</ele>
        <time>2019-06-19T10:23:20Z</time>
      </trkpt>
      <trkpt lat="44.30893" lon="5.81172">
        <ele>615</ele>
        <time>2019-06-19T10:23:21Z</time>
      </trkpt>
      <trkpt lat="44.30891" lon="5.8118">
        <ele>615</ele>
        <time>2019-06-19T10:23:22Z</time>
      </trkpt>
      <trkpt lat="44.30888" lon="5.81187">
        <ele>615</ele>
        <time>2019-06-19T10:23:23Z</time>
      </trkpt>
      <trkpt lat="44.30886" lon="5.81195">
        <ele>615</ele>
        <time>2019-06-19T10:23:24Z</time>
      </trkpt>
      <trkpt lat="44.30884" lon="5.81203">
        <ele>615</ele>
        <time>2019-06-19T10:23:25Z</time>
      </trkpt>
      <trkpt lat="44.30882" lon="5.8121">
        <ele>615</ele>
        <time>2019-06-19T10:23:26Z</time>
      </trkpt>
      <trkpt lat="44.3088" lon="5.81218">
        <ele>615</ele>
        <time>2019-06-19T10:23:27Z</time>
      </trkpt>
      <trkpt lat="44.30878" lon="5.81225">
        <ele>615</ele>
        <time>2019-06-19T10:23:28Z</time>
      </trkpt>
      <trkpt lat="44.30875" lon="5.81233">
        <ele>615</ele>
        <time>2019-06-19T10:23:29Z</time>
      </trkpt>
      <trkpt lat="44.30873" lon="5.8124">
        <ele>615</ele>
        <time>2019-06-19T10:23:30Z</time>
      </trkpt>
      <trkpt lat="44.30871" lon="5.81247">
        <ele>615</ele>
        <time>2019-06-19T10:23:31Z</time>
      </trkpt>
      <trkpt lat="44.30868" lon="5.81254">
        <ele>615</ele>
        <time>2019-06-19T10:23:32Z</time>
      </trkpt>
      <trkpt lat="44.30866" lon="5.81263">
        <ele>615</ele>
        <time>2019-06-19T10:23:33Z</time>
      </trkpt>
      <trkpt lat="44.30864" lon="5.81271">
        <ele>615</ele>
        <time>2019-06-19T10:23:34Z</time>
      </trkpt>
      <trkpt lat="44.30862" lon="5.81278">
        <ele>614</ele>
        <time>2019-06-19T10:23:35Z</time>
      </trkpt>
      <trkpt lat="44.3086" lon="5.81285">
        <ele>614</ele>
        <time>2019-06-19T10:23:36Z</time>
      </trkpt>
      <trkpt lat="44.30858" lon="5.81293">
        <ele>614</ele>
        <time>2019-06-19T10:23:37Z</time>
      </trkpt>
      <trkpt lat="44.30856" lon="5.81301">
        <ele>614</ele>
        <time>2019-06-19T10:23:38Z</time>
      </trkpt>
      <trkpt lat="44.30854" lon="5.81309">
        <ele>613</ele>
        <time>2019-06-19T10:23:39Z</time>
      </trkpt>
      <trkpt lat="44.3085" lon="5.81317">
        <ele>613</ele>
        <time>2019-06-19T10:23:40Z</time>
      </trkpt>
      <trkpt lat="44.30846" lon="5.81326">
        <ele>613</ele>
        <time>2019-06-19T10:23:41Z</time>
      </trkpt>
      <trkpt lat="44.30843" lon="5.81335">
        <ele>613</ele>
        <time>2019-06-19T10:23:42Z</time>
      </trkpt>
      <trkpt lat="44.3084" lon="5.81344">
        <ele>613</ele>
        <time>2019-06-19T10:23:43Z</time>
      </trkpt>
      <trkpt lat="44.30838" lon="5.81354">
        <ele>613</ele>
        <time>2019-06-19T10:23:44Z</time>
      </trkpt>
      <trkpt lat="44.30836" lon="5.81364">
        <ele>613</ele>
        <time>2019-06-19T10:23:45Z</time>
      </trkpt>
      <trkpt lat="44.30835" lon="5.81375">
        <ele>612</ele>
        <time>2019-06-19T10:23:46Z</time>
      </trkpt>
      <trkpt lat="44.30834" lon="5.81386">
        <ele>612</ele>
        <time>2019-06-19T10:23:47Z</time>
      </trkpt>
      <trkpt lat="44.30833" lon="5.81398">
        <ele>612</ele>
        <time>2019-06-19T10:23:48Z</time>
      </trkpt>
      <trkpt lat="44.30833" lon="5.8141">
        <ele>611</ele>
        <time>2019-06-19T10:23:49Z</time>
      </trkpt>
      <trkpt lat="44.30831" lon="5.81423">
        <ele>611</ele>
        <time>2019-06-19T10:23:50Z</time>
      </trkpt>
      <trkpt lat="44.30829" lon="5.81435">
        <ele>610</ele>
        <time>2019-06-19T10:23:51Z</time>
      </trkpt>
      <trkpt lat="44.30827" lon="5.81449">
        <ele>609</ele>
        <time>2019-06-19T10:23:52Z</time>
      </trkpt>
      <trkpt lat="44.30825" lon="5.81462">
        <ele>608</ele>
        <time>2019-06-19T10:23:53Z</time>
      </trkpt>
      <trkpt lat="44.30822" lon="5.81477">
        <ele>608</ele>
        <time>2019-06-19T10:23:54Z</time>
      </trkpt>
      <trkpt lat="44.30819" lon="5.81492">
        <ele>607</ele>
        <time>2019-06-19T10:23:55Z</time>
      </trkpt>
      <trkpt lat="44.30815" lon="5.81507">
        <ele>606</ele>
        <time>2019-06-19T10:23:56Z</time>
      </trkpt>
      <trkpt lat="44.30812" lon="5.81523">
        <ele>606</ele>
        <time>2019-06-19T10:23:57Z</time>
      </trkpt>
      <trkpt lat="44.30809" lon="5.81538">
        <ele>605</ele>
        <time>2019-06-19T10:23:58Z</time>
      </trkpt>
      <trkpt lat="44.30807" lon="5.81555">
        <ele>604</ele>
        <time>2019-06-19T10:23:59Z</time>
      </trkpt>
      <trkpt lat="44.30805" lon="5.8157">
        <ele>604</ele>
        <time>2019-06-19T10:24:00Z</time>
      </trkpt>
      <trkpt lat="44.30803" lon="5.81587">
        <ele>603</ele>
        <time>2019-06-19T10:24:01Z</time>
      </trkpt>
      <trkpt lat="44.30801" lon="5.81604">
        <ele>602</ele>
        <time>2019-06-19T10:24:02Z</time>
      </trkpt>
      <trkpt lat="44.30799" lon="5.8162">
        <ele>601</ele>
        <time>2019-06-19T10:24:03Z</time>
      </trkpt>
      <trkpt lat="44.30797" lon="5.81636">
        <ele>600</ele>
        <time>2019-06-19T10:24:04Z</time>
      </trkpt>
      <trkpt lat="44.30795" lon="5.81652">
        <ele>599</ele>
        <time>2019-06-19T10:24:05Z</time>
      </trkpt>
      <trkpt lat="44.30791" lon="5.81668">
        <ele>598</ele>
        <time>2019-06-19T10:24:06Z</time>
      </trkpt>
      <trkpt lat="44.30787" lon="5.81684">
        <ele>597</ele>
        <time>2019-06-19T10:24:07Z</time>
      </trkpt>
      <trkpt lat="44.30782" lon="5.81699">
        <ele>596</ele>
        <time>2019-06-19T10:24:08Z</time>
      </trkpt>
      <trkpt lat="44.30777" lon="5.81714">
        <ele>595</ele>
        <time>2019-06-19T10:24:09Z</time>
      </trkpt>
      <trkpt lat="44.30772" lon="5.8173">
        <ele>594</ele>
        <time>2019-06-19T10:24:10Z</time>
      </trkpt>
      <trkpt lat="44.30767" lon="5.81745">
        <ele>593</ele>
        <time>2019-06-19T10:24:11Z</time>
      </trkpt>
      <trkpt lat="44.30761" lon="5.81761">
        <ele>593</ele>
        <time>2019-06-19T10:24:12Z</time>
      </trkpt>
      <trkpt lat="44.30756" lon="5.81776">
        <ele>592</ele>
        <time>2019-06-19T10:24:13Z</time>
      </trkpt>
      <trkpt lat="44.30752" lon="5.81792">
        <ele>591</ele>
        <time>2019-06-19T10:24:14Z</time>
      </trkpt>
      <trkpt lat="44.30747" lon="5.81807">
        <ele>590</ele>
        <time>2019-06-19T10:24:15Z</time>
      </trkpt>
      <trkpt lat="44.30742" lon="5.81823">
        <ele>589</ele>
        <time>2019-06-19T10:24:16Z</time>
      </trkpt>
      <trkpt lat="44.30738" lon="5.81838">
        <ele>588</ele>
        <time>2019-06-19T10:24:17Z</time>
      </trkpt>
      <trkpt lat="44.30734" lon="5.81854">
        <ele>587</ele>
        <time>2019-06-19T10:24:18Z</time>
      </trkpt>
      <trkpt lat="44.3073" lon="5.8187">
        <ele>586</ele>
        <time>2019-06-19T10:24:19Z</time>
      </trkpt>
      <trkpt lat="44.30726" lon="5.81888">
        <ele>585</ele>
        <time>2019-06-19T10:24:20Z</time>
      </trkpt>
      <trkpt lat="44.30723" lon="5.81905">
        <ele>584</ele>
        <time>2019-06-19T10:24:21Z</time>
      </trkpt>
      <trkpt lat="44.3072" lon="5.8192">
        <ele>583</ele>
        <time>2019-06-19T10:24:22Z</time>
      </trkpt>
      <trkpt lat="44.30717" lon="5.81936">
        <ele>582</ele>
        <time>2019-06-19T10:24:23Z</time>
      </trkpt>
      <trkpt lat="44.30714" lon="5.81952">
        <ele>581</ele>
        <time>2019-06-19T10:24:24Z</time>
      </trkpt>
      <trkpt lat="44.30711" lon="5.81969">
        <ele>580</ele>
        <time>2019-06-19T10:24:25Z</time>
      </trkpt>
      <trkpt lat="44.30708" lon="5.81985">
        <ele>579</ele>
        <time>2019-06-19T10:24:26Z</time>
      </trkpt>
      <trkpt lat="44.30706" lon="5.81999">
        <ele>578</ele>
        <time>2019-06-19T10:24:27Z</time>
      </trkpt>
      <trkpt lat="44.30704" lon="5.82014">
        <ele>577</ele>
        <time>2019-06-19T10:24:28Z</time>
      </trkpt>
      <trkpt lat="44.30704" lon="5.82029">
        <ele>576</ele>
        <time>2019-06-19T10:24:29Z</time>
      </trkpt>
      <trkpt lat="44.30705" lon="5.82044">
        <ele>575</ele>
        <time>2019-06-19T10:24:30Z</time>
      </trkpt>
      <trkpt lat="44.30707" lon="5.82058">
        <ele>574</ele>
        <time>2019-06-19T10:24:31Z</time>
      </trkpt>
      <trkpt lat="44.30709" lon="5.82072">
        <ele>573</ele>
        <time>2019-06-19T10:24:32Z</time>
      </trkpt>
      <trkpt lat="44.30712" lon="5.82087">
        <ele>572</ele>
        <time>2019-06-19T10:24:33Z</time>
      </trkpt>
      <trkpt lat="44.30714" lon="5.82101">
        <ele>571</ele>
        <time>2019-06-19T10:24:34Z</time>
      </trkpt>
      <trkpt lat="44.30715" lon="5.82115">
        <ele>570</ele>
        <time>2019-06-19T10:24:35Z</time>
      </trkpt>
      <trkpt lat="44.30715" lon="5.82128">
        <ele>569</ele>
        <time>2019-06-19T10:24:36Z</time>
      </trkpt>
      <trkpt lat="44.30713" lon="5.82141">
        <ele>568</ele>
        <time>2019-06-19T10:24:37Z</time>
      </trkpt>
      <trkpt lat="44.30711" lon="5.82153">
        <ele>567</ele>
        <time>2019-06-19T10:24:38Z</time>
      </trkpt>
      <trkpt lat="44.30708" lon="5.82165">
        <ele>566</ele>
        <time>2019-06-19T10:24:39Z</time>
      </trkpt>
      <trkpt lat="44.30705" lon="5.82175">
        <ele>565</ele>
        <time>2019-06-19T10:24:40Z</time>
      </trkpt>
      <trkpt lat="44.30701" lon="5.82184">
        <ele>564</ele>
        <time>2019-06-19T10:24:41Z</time>
      </trkpt>
      <trkpt lat="44.30697" lon="5.82192">
        <ele>563</ele>
        <time>2019-06-19T10:24:42Z</time>
      </trkpt>
      <trkpt lat="44.30693" lon="5.82198">
        <ele>563</ele>
        <time>2019-06-19T10:24:43Z</time>
      </trkpt>
      <trkpt lat="44.30689" lon="5.82204">
        <ele>562</ele>
        <time>2019-06-19T10:24:44Z</time>
      </trkpt>
      <trkpt lat="44.30685" lon="5.82208">
        <ele>562</ele>
        <time>2019-06-19T10:24:45Z</time>
      </trkpt>
      <trkpt lat="44.30682" lon="5.82213">
        <ele>561</ele>
        <time>2019-06-19T10:24:46Z</time>
      </trkpt>
      <trkpt lat="44.3068" lon="5.82218">
        <ele>561</ele>
        <time>2019-06-19T10:24:47Z</time>
      </trkpt>
      <trkpt lat="44.30679" lon="5.82223">
        <ele>561</ele>
        <time>2019-06-19T10:24:48Z</time>
      </trkpt>
      <trkpt lat="44.30679" lon="5.82227">
        <ele>561</ele>
        <time>2019-06-19T10:24:49Z</time>
      </trkpt>
      <trkpt lat="44.30681" lon="5.8223">
        <ele>561</ele>
        <time>2019-06-19T10:24:50Z</time>
      </trkpt>
      <trkpt lat="44.30682" lon="5.82232">
        <ele>561</ele>
        <time>2019-06-19T10:24:51Z</time>
      </trkpt>
      <trkpt lat="44.30685" lon="5.82233">
        <ele>561</ele>
        <time>2019-06-19T10:24:52Z</time>
      </trkpt>
      <trkpt lat="44.30688" lon="5.82232">
        <ele>561</ele>
        <time>2019-06-19T10:24:53Z</time>
      </trkpt>
      <trkpt lat="44.30691" lon="5.82231">
        <ele>560</ele>
        <time>2019-06-19T10:24:54Z</time>
      </trkpt>
      <trkpt lat="44.30694" lon="5.8223">
        <ele>560</ele>
        <time>2019-06-19T10:24:55Z</time>
      </trkpt>
      <trkpt lat="44.30697" lon="5.82229">
        <ele>560</ele>
        <time>2019-06-19T10:24:56Z</time>
      </trkpt>
      <trkpt lat="44.307" lon="5.82227">
        <ele>559</ele>
        <time>2019-06-19T10:24:57Z</time>
      </trkpt>
      <trkpt lat="44.30704" lon="5.82224">
        <ele>559</ele>
        <time>2019-06-19T10:24:58Z</time>
      </trkpt>
      <trkpt lat="44.30707" lon="5.8222">
        <ele>559</ele>
        <time>2019-06-19T10:24:59Z</time>
      </trkpt>
      <trkpt lat="44.30709" lon="5.82215">
        <ele>559</ele>
        <time>2019-06-19T10:25:00Z</time>
      </trkpt>
      <trkpt lat="44.30712" lon="5.8221">
        <ele>559</ele>
        <time>2019-06-19T10:25:01Z</time>
      </trkpt>
      <trkpt lat="44.30715" lon="5.82206">
        <ele>559</ele>
        <time>2019-06-19T10:25:02Z</time>
      </trkpt>
      <trkpt lat="44.30718" lon="5.82201">
        <ele>559</ele>
        <time>2019-06-19T10:25:03Z</time>
      </trkpt>
      <trkpt lat="44.30721" lon="5.82196">
        <ele>559</ele>
        <time>2019-06-19T10:25:04Z</time>
      </trkpt>
      <trkpt lat="44.30723" lon="5.8219">
        <ele>559</ele>
        <time>2019-06-19T10:25:05Z</time>
      </trkpt>
      <trkpt lat="44.30726" lon="5.82183">
        <ele>559</ele>
        <time>2019-06-19T10:25:06Z</time>
      </trkpt>
      <trkpt lat="44.30729" lon="5.82175">
        <ele>559</ele>
        <time>2019-06-19T10:25:07Z</time>
      </trkpt>
      <trkpt lat="44.30731" lon="5.82167">
        <ele>559</ele>
        <time>2019-06-19T10:25:08Z</time>
      </trkpt>
      <trkpt lat="44.30734" lon="5.82159">
        <ele>559</ele>
        <time>2019-06-19T10:25:09Z</time>
      </trkpt>
      <trkpt lat="44.30737" lon="5.82151">
        <ele>559</ele>
        <time>2019-06-19T10:25:10Z</time>
      </trkpt>
      <trkpt lat="44.3074" lon="5.82142">
        <ele>559</ele>
        <time>2019-06-19T10:25:11Z</time>
      </trkpt>
      <trkpt lat="44.30743" lon="5.82134">
        <ele>559</ele>
        <time>2019-06-19T10:25:12Z</time>
      </trkpt>
      <trkpt lat="44.30746" lon="5.82125">
        <ele>559</ele>
        <time>2019-06-19T10:25:13Z</time>
      </trkpt>
      <trkpt lat="44.30751" lon="5.82117">
        <ele>559</ele>
        <time>2019-06-19T10:25:14Z</time>
      </trkpt>
      <trkpt lat="44.30754" lon="5.82108">
        <ele>559</ele>
        <time>2019-06-19T10:25:15Z</time>
      </trkpt>
      <trkpt lat="44.30759" lon="5.82101">
        <ele>559</ele>
        <time>2019-06-19T10:25:16Z</time>
      </trkpt>
      <trkpt lat="44.30764" lon="5.82094">
        <ele>559</ele>
        <time>2019-06-19T10:25:17Z</time>
      </trkpt>
      <trkpt lat="44.30769" lon="5.82088">
        <ele>559</ele>
        <time>2019-06-19T10:25:18Z</time>
      </trkpt>
      <trkpt lat="44.30775" lon="5.82083">
        <ele>558</ele>
        <time>2019-06-19T10:25:19Z</time>
      </trkpt>
      <trkpt lat="44.30781" lon="5.8208">
        <ele>557</ele>
        <time>2019-06-19T10:25:20Z</time>
      </trkpt>
      <trkpt lat="44.30787" lon="5.82077">
        <ele>556</ele>
        <time>2019-06-19T10:25:21Z</time>
      </trkpt>
      <trkpt lat="44.30793" lon="5.82075">
        <ele>555</ele>
        <time>2019-06-19T10:25:22Z</time>
      </trkpt>
      <trkpt lat="44.308" lon="5.82074">
        <ele>555</ele>
        <time>2019-06-19T10:25:23Z</time>
      </trkpt>
      <trkpt lat="44.30806" lon="5.82073">
        <ele>555</ele>
        <time>2019-06-19T10:25:24Z</time>
      </trkpt>
      <trkpt lat="44.30812" lon="5.82072">
        <ele>555</ele>
        <time>2019-06-19T10:25:25Z</time>
      </trkpt>
      <trkpt lat="44.30817" lon="5.8207">
        <ele>555</ele>
        <time>2019-06-19T10:25:26Z</time>
      </trkpt>
      <trkpt lat="44.30823" lon="5.82068">
        <ele>555</ele>
        <time>2019-06-19T10:25:27Z</time>
      </trkpt>
      <trkpt lat="44.30828" lon="5.82067">
        <ele>555</ele>
        <time>2019-06-19T10:25:28Z</time>
      </trkpt>
      <trkpt lat="44.30834" lon="5.82065">
        <ele>555</ele>
        <time>2019-06-19T10:25:29Z</time>
      </trkpt>
      <trkpt lat="44.30839" lon="5.82063">
        <ele>555</ele>
        <time>2019-06-19T10:25:30Z</time>
      </trkpt>
      <trkpt lat="44.30844" lon="5.82061">
        <ele>555</ele>
        <time>2019-06-19T10:25:31Z</time>
      </trkpt>
      <trkpt lat="44.30849" lon="5.8206">
        <ele>555</ele>
        <time>2019-06-19T10:25:32Z</time>
      </trkpt>
      <trkpt lat="44.30854" lon="5.82058">
        <ele>555</ele>
        <time>2019-06-19T10:25:33Z</time>
      </trkpt>
      <trkpt lat="44.3086" lon="5.82056">
        <ele>555</ele>
        <time>2019-06-19T10:25:34Z</time>
      </trkpt>
      <trkpt lat="44.30865" lon="5.82053">
        <ele>554</ele>
        <time>2019-06-19T10:25:35Z</time>
      </trkpt>
      <trkpt lat="44.3087" lon="5.82051">
        <ele>554</ele>
        <time>2019-06-19T10:25:36Z</time>
      </trkpt>
      <trkpt lat="44.30876" lon="5.82049">
        <ele>553</ele>
        <time>2019-06-19T10:25:37Z</time>
      </trkpt>
      <trkpt lat="44.30882" lon="5.82046">
        <ele>553</ele>
        <time>2019-06-19T10:25:38Z</time>
      </trkpt>
      <trkpt lat="44.30888" lon="5.82044">
        <ele>553</ele>
        <time>2019-06-19T10:25:39Z</time>
      </trkpt>
      <trkpt lat="44.30894" lon="5.82041">
        <ele>552</ele>
        <time>2019-06-19T10:25:40Z</time>
      </trkpt>
      <trkpt lat="44.309" lon="5.82039">
        <ele>552</ele>
        <time>2019-06-19T10:25:41Z</time>
      </trkpt>
      <trkpt lat="44.30906" lon="5.82036">
        <ele>551</ele>
        <time>2019-06-19T10:25:42Z</time>
      </trkpt>
      <trkpt lat="44.30913" lon="5.82035">
        <ele>551</ele>
        <time>2019-06-19T10:25:43Z</time>
      </trkpt>
      <trkpt lat="44.3092" lon="5.82035">
        <ele>550</ele>
        <time>2019-06-19T10:25:44Z</time>
      </trkpt>
      <trkpt lat="44.30928" lon="5.82035">
        <ele>549</ele>
        <time>2019-06-19T10:25:45Z</time>
      </trkpt>
      <trkpt lat="44.30935" lon="5.82037">
        <ele>549</ele>
        <time>2019-06-19T10:25:46Z</time>
      </trkpt>
      <trkpt lat="44.30942" lon="5.82041">
        <ele>548</ele>
        <time>2019-06-19T10:25:47Z</time>
      </trkpt>
      <trkpt lat="44.30949" lon="5.82044">
        <ele>548</ele>
        <time>2019-06-19T10:25:48Z</time>
      </trkpt>
      <trkpt lat="44.30955" lon="5.82048">
        <ele>547</ele>
        <time>2019-06-19T10:25:49Z</time>
      </trkpt>
      <trkpt lat="44.30962" lon="5.82051">
        <ele>547</ele>
        <time>2019-06-19T10:25:50Z</time>
      </trkpt>
      <trkpt lat="44.30967" lon="5.82055">
        <ele>547</ele>
        <time>2019-06-19T10:25:51Z</time>
      </trkpt>
      <trkpt lat="44.30973" lon="5.8206">
        <ele>546</ele>
        <time>2019-06-19T10:25:52Z</time>
      </trkpt>
      <trkpt lat="44.30979" lon="5.82064">
        <ele>546</ele>
        <time>2019-06-19T10:25:53Z</time>
      </trkpt>
      <trkpt lat="44.30984" lon="5.82069">
        <ele>546</ele>
        <time>2019-06-19T10:25:54Z</time>
      </trkpt>
      <trkpt lat="44.30989" lon="5.82075">
        <ele>546</ele>
        <time>2019-06-19T10:25:55Z</time>
      </trkpt>
      <trkpt lat="44.30994" lon="5.82081">
        <ele>545</ele>
        <time>2019-06-19T10:25:56Z</time>
      </trkpt>
      <trkpt lat="44.30999" lon="5.82087">
        <ele>545</ele>
        <time>2019-06-19T10:25:57Z</time>
      </trkpt>
      <trkpt lat="44.31003" lon="5.82093">
        <ele>545</ele>
        <time>2019-06-19T10:25:58Z</time>
      </trkpt>
      <trkpt lat="44.31008" lon="5.82099">
        <ele>545</ele>
        <time>2019-06-19T10:25:59Z</time>
      </trkpt>
      <trkpt lat="44.31012" lon="5.82105">
        <ele>545</ele>
        <time>2019-06-19T10:26:00Z</time>
      </trkpt>
      <trkpt lat="44.31017" lon="5.82111">
        <ele>545</ele>
        <time>2019-06-19T10:26:01Z</time>
      </trkpt>
      <trkpt lat="44.31021" lon="5.82118">
        <ele>545</ele>
        <time>2019-06-19T10:26:02Z</time>
      </trkpt>
      <trkpt lat="44.31025" lon="5.82124">
        <ele>545</ele>
        <time>2019-06-19T10:26:03Z</time>
      </trkpt>
      <trkpt lat="44.3103" lon="5.82129">
        <ele>545</ele>
        <time>2019-06-19T10:26:04Z</time>
      </trkpt>
      <trkpt lat="44.31034" lon="5.82135">
        <ele>545</ele>
        <time>2019-06-19T10:26:05Z</time>
      </trkpt>
      <trkpt lat="44.31039" lon="5.8214">
        <ele>545</ele>
        <time>2019-06-19T10:26:06Z</time>
      </trkpt>
      <trkpt lat="44.31044" lon="5.82145">
        <ele>545</ele>
        <time>2019-06-19T10:26:07Z</time>
      </trkpt>
      <trkpt lat="44.31048" lon="5.82151">
        <ele>545</ele>
        <time>2019-06-19T10:26:08Z</time>
      </trkpt>
      <trkpt lat="44.31053" lon="5.82157">
        <ele>545</ele>
        <time>2019-06-19T10:26:09Z</time>
      </trkpt>
      <trkpt lat="44.31057" lon="5.82163">
        <ele>545</ele>
        <time>2019-06-19T10:26:10Z</time>
      </trkpt>
      <trkpt lat="44.31062" lon="5.82168">
        <ele>545</ele>
        <time>2019-06-19T10:26:11Z</time>
      </trkpt>
      <trkpt lat="44.31067" lon="5.82173">
        <ele>545</ele>
        <time>2019-06-19T10:26:12Z</time>
      </trkpt>
      <trkpt lat="44.31072" lon="5.8218">
        <ele>545</ele>
        <time>2019-06-19T10:26:13Z</time>
      </trkpt>
      <trkpt lat="44.31076" lon="5.82186">
        <ele>545</ele>
        <time>2019-06-19T10:26:14Z</time>
      </trkpt>
      <trkpt lat="44.3108" lon="5.82192">
        <ele>545</ele>
        <time>2019-06-19T10:26:15Z</time>
      </trkpt>
      <trkpt lat="44.31084" lon="5.82198">
        <ele>545</ele>
        <time>2019-06-19T10:26:16Z</time>
      </trkpt>
      <trkpt lat="44.3109" lon="5.82204">
        <ele>545</ele>
        <time>2019-06-19T10:26:17Z</time>
      </trkpt>
      <trkpt lat="44.31096" lon="5.8221">
        <ele>545</ele>
        <time>2019-06-19T10:26:18Z</time>
      </trkpt>
      <trkpt lat="44.311" lon="5.82215">
        <ele>545</ele>
        <time>2019-06-19T10:26:19Z</time>
      </trkpt>
      <trkpt lat="44.31104" lon="5.82222">
        <ele>545</ele>
        <time>2019-06-19T10:26:20Z</time>
      </trkpt>
      <trkpt lat="44.31108" lon="5.82228">
        <ele>545</ele>
        <time>2019-06-19T10:26:21Z</time>
      </trkpt>
      <trkpt lat="44.31112" lon="5.82233">
        <ele>545</ele>
        <time>2019-06-19T10:26:22Z</time>
      </trkpt>
      <trkpt lat="44.31115" lon="5.82239">
        <ele>545</ele>
        <time>2019-06-19T10:26:23Z</time>
      </trkpt>
      <trkpt lat="44.31119" lon="5.82244">
        <ele>545</ele>
        <time>2019-06-19T10:26:24Z</time>
      </trkpt>
      <trkpt lat="44.31122" lon="5.82249">
        <ele>545</ele>
        <time>2019-06-19T10:26:25Z</time>
      </trkpt>
      <trkpt lat="44.31126" lon="5.82254">
        <ele>545</ele>
        <time>2019-06-19T10:26:26Z</time>
      </trkpt>
      <trkpt lat="44.31129" lon="5.82258">
        <ele>545</ele>
        <time>2019-06-19T10:26:27Z</time>
      </trkpt>
      <trkpt lat="44.31133" lon="5.82261">
        <ele>545</ele>
        <time>2019-06-19T10:26:28Z</time>
      </trkpt>
      <trkpt lat="44.31136" lon="5.82265">
        <ele>545</ele>
        <time>2019-06-19T10:26:29Z</time>
      </trkpt>
      <trkpt lat="44.31139" lon="5.82269">
        <ele>545</ele>
        <time>2019-06-19T10:26:30Z</time>
      </trkpt>
      <trkpt lat="44.31142" lon="5.82273">
        <ele>545</ele>
        <time>2019-06-19T10:26:31Z</time>
      </trkpt>
      <trkpt lat="44.31144" lon="5.82278">
        <ele>545</ele>
        <time>2019-06-19T10:26:32Z</time>
      </trkpt>
      <trkpt lat="44.31145" lon="5.82283">
        <ele>545</ele>
        <time>2019-06-19T10:26:33Z</time>
      </trkpt>
      <trkpt lat="44.31146" lon="5.82288">
        <ele>545</ele>
        <time>2019-06-19T10:26:34Z</time>
      </trkpt>
      <trkpt lat="44.31145" lon="5.82294">
        <ele>545</ele>
        <time>2019-06-19T10:26:35Z</time>
      </trkpt>
      <trkpt lat="44.31143" lon="5.82299">
        <ele>545</ele>
        <time>2019-06-19T10:26:36Z</time>
      </trkpt>
      <trkpt lat="44.31141" lon="5.82304">
        <ele>545</ele>
        <time>2019-06-19T10:26:37Z</time>
      </trkpt>
      <trkpt lat="44.31137" lon="5.82309">
        <ele>545</ele>
        <time>2019-06-19T10:26:38Z</time>
      </trkpt>
      <trkpt lat="44.31134" lon="5.82315">
        <ele>545</ele>
        <time>2019-06-19T10:26:39Z</time>
      </trkpt>
      <trkpt lat="44.31131" lon="5.82319">
        <ele>545</ele>
        <time>2019-06-19T10:26:40Z</time>
      </trkpt>
      <trkpt lat="44.31127" lon="5.82324">
        <ele>545</ele>
        <time>2019-06-19T10:26:41Z</time>
      </trkpt>
      <trkpt lat="44.31124" lon="5.82329">
        <ele>545</ele>
        <time>2019-06-19T10:26:42Z</time>
      </trkpt>
      <trkpt lat="44.3112" lon="5.82334">
        <ele>545</ele>
        <time>2019-06-19T10:26:43Z</time>
      </trkpt>
      <trkpt lat="44.31116" lon="5.82339">
        <ele>545</ele>
        <time>2019-06-19T10:26:44Z</time>
      </trkpt>
      <trkpt lat="44.31113" lon="5.82344">
        <ele>545</ele>
        <time>2019-06-19T10:26:45Z</time>
      </trkpt>
      <trkpt lat="44.31109" lon="5.82349">
        <ele>545</ele>
        <time>2019-06-19T10:26:46Z</time>
      </trkpt>
      <trkpt lat="44.31106" lon="5.82354">
        <ele>545</ele>
        <time>2019-06-19T10:26:47Z</time>
      </trkpt>
      <trkpt lat="44.31103" lon="5.8236">
        <ele>545</ele>
        <time>2019-06-19T10:26:48Z</time>
      </trkpt>
      <trkpt lat="44.31101" lon="5.82366">
        <ele>545</ele>
        <time>2019-06-19T10:26:49Z</time>
      </trkpt>
      <trkpt lat="44.31099" lon="5.82372">
        <ele>546</ele>
        <time>2019-06-19T10:26:50Z</time>
      </trkpt>
      <trkpt lat="44.31099" lon="5.82378">
        <ele>546</ele>
        <time>2019-06-19T10:26:51Z</time>
      </trkpt>
      <trkpt lat="44.31099" lon="5.82386">
        <ele>546</ele>
        <time>2019-06-19T10:26:52Z</time>
      </trkpt>
      <trkpt lat="44.31099" lon="5.82393">
        <ele>546</ele>
        <time>2019-06-19T10:26:53Z</time>
      </trkpt>
      <trkpt lat="44.31099" lon="5.82399">
        <ele>546</ele>
        <time>2019-06-19T10:26:54Z</time>
      </trkpt>
      <trkpt lat="44.31098" lon="5.82406">
        <ele>546</ele>
        <time>2019-06-19T10:26:55Z</time>
      </trkpt>
      <trkpt lat="44.31097" lon="5.82411">
        <ele>546</ele>
        <time>2019-06-19T10:26:56Z</time>
      </trkpt>
      <trkpt lat="44.31095" lon="5.82417">
        <ele>546</ele>
        <time>2019-06-19T10:26:57Z</time>
      </trkpt>
      <trkpt lat="44.31093" lon="5.82423">
        <ele>546</ele>
        <time>2019-06-19T10:26:58Z</time>
      </trkpt>
      <trkpt lat="44.31091" lon="5.82428">
        <ele>546</ele>
        <time>2019-06-19T10:26:59Z</time>
      </trkpt>
      <trkpt lat="44.31089" lon="5.82432">
        <ele>546</ele>
        <time>2019-06-19T10:27:00Z</time>
      </trkpt>
      <trkpt lat="44.31087" lon="5.82437">
        <ele>546</ele>
        <time>2019-06-19T10:27:01Z</time>
      </trkpt>
      <trkpt lat="44.31086" lon="5.82441">
        <ele>546</ele>
        <time>2019-06-19T10:27:02Z</time>
      </trkpt>
      <trkpt lat="44.31084" lon="5.82445">
        <ele>546</ele>
        <time>2019-06-19T10:27:03Z</time>
      </trkpt>
      <trkpt lat="44.31081" lon="5.8245">
        <ele>546</ele>
        <time>2019-06-19T10:27:04Z</time>
      </trkpt>
      <trkpt lat="44.31079" lon="5.82454">
        <ele>546</ele>
        <time>2019-06-19T10:27:05Z</time>
      </trkpt>
      <trkpt lat="44.31077" lon="5.82459">
        <ele>546</ele>
        <time>2019-06-19T10:27:06Z</time>
      </trkpt>
      <trkpt lat="44.31074" lon="5.82465">
        <ele>546</ele>
        <time>2019-06-19T10:27:07Z</time>
      </trkpt>
      <trkpt lat="44.31072" lon="5.82471">
        <ele>546</ele>
        <time>2019-06-19T10:27:08Z</time>
      </trkpt>
      <trkpt lat="44.31069" lon="5.82477">
        <ele>546</ele>
        <time>2019-06-19T10:27:09Z</time>
      </trkpt>
      <trkpt lat="44.31067" lon="5.82486">
        <ele>546</ele>
        <time>2019-06-19T10:27:10Z</time>
      </trkpt>
      <trkpt lat="44.31066" lon="5.82494">
        <ele>546</ele>
        <time>2019-06-19T10:27:11Z</time>
      </trkpt>
      <trkpt lat="44.31066" lon="5.82503">
        <ele>546</ele>
        <time>2019-06-19T10:27:12Z</time>
      </trkpt>
      <trkpt lat="44.31068" lon="5.8251">
        <ele>546</ele>
        <time>2019-06-19T10:27:13Z</time>
      </trkpt>
      <trkpt lat="44.3107" lon="5.82517">
        <ele>546</ele>
        <time>2019-06-19T10:27:14Z</time>
      </trkpt>
      <trkpt lat="44.31074" lon="5.82524">
        <ele>546</ele>
        <time>2019-06-19T10:27:15Z</time>
      </trkpt>
      <trkpt lat="44.31078" lon="5.82529">
        <ele>547</ele>
        <time>2019-06-19T10:27:16Z</time>
      </trkpt>
      <trkpt lat="44.31082" lon="5.82534">
        <ele>547</ele>
        <time>2019-06-19T10:27:17Z</time>
      </trkpt>
      <trkpt lat="44.31087" lon="5.82538">
        <ele>547</ele>
        <time>2019-06-19T10:27:18Z</time>
      </trkpt>
      <trkpt lat="44.31092" lon="5.82541">
        <ele>547</ele>
        <time>2019-06-19T10:27:19Z</time>
      </trkpt>
      <trkpt lat="44.31098" lon="5.82544">
        <ele>547</ele>
        <time>2019-06-19T10:27:20Z</time>
      </trkpt>
      <trkpt lat="44.31104" lon="5.82547">
        <ele>547</ele>
        <time>2019-06-19T10:27:21Z</time>
      </trkpt>
      <trkpt lat="44.31109" lon="5.8255">
        <ele>547</ele>
        <time>2019-06-19T10:27:22Z</time>
      </trkpt>
      <trkpt lat="44.31114" lon="5.82553">
        <ele>547</ele>
        <time>2019-06-19T10:27:23Z</time>
      </trkpt>
      <trkpt lat="44.31119" lon="5.82556">
        <ele>547</ele>
        <time>2019-06-19T10:27:24Z</time>
      </trkpt>
      <trkpt lat="44.31124" lon="5.82559">
        <ele>547</ele>
        <time>2019-06-19T10:27:25Z</time>
      </trkpt>
      <trkpt lat="44.31129" lon="5.82562">
        <ele>547</ele>
        <time>2019-06-19T10:27:26Z</time>
      </trkpt>
      <trkpt lat="44.31135" lon="5.82565">
        <ele>547</ele>
        <time>2019-06-19T10:27:27Z</time>
      </trkpt>
      <trkpt lat="44.3114" lon="5.82568">
        <ele>547</ele>
        <time>2019-06-19T10:27:28Z</time>
      </trkpt>
      <trkpt lat="44.31145" lon="5.82571">
        <ele>547</ele>
        <time>2019-06-19T10:27:29Z</time>
      </trkpt>
      <trkpt lat="44.3115" lon="5.82574">
        <ele>546</ele>
        <time>2019-06-19T10:27:30Z</time>
      </trkpt>
      <trkpt lat="44.31155" lon="5.82577">
        <ele>545</ele>
        <time>2019-06-19T10:27:31Z</time>
      </trkpt>
      <trkpt lat="44.31161" lon="5.8258">
        <ele>544</ele>
        <time>2019-06-19T10:27:32Z</time>
      </trkpt>
      <trkpt lat="44.31166" lon="5.82583">
        <ele>543</ele>
        <time>2019-06-19T10:27:33Z</time>
      </trkpt>
      <trkpt lat="44.31171" lon="5.82586">
        <ele>542</ele>
        <time>2019-06-19T10:27:34Z</time>
      </trkpt>
      <trkpt lat="44.31176" lon="5.82588">
        <ele>542</ele>
        <time>2019-06-19T10:27:35Z</time>
      </trkpt>
      <trkpt lat="44.31182" lon="5.82591">
        <ele>541</ele>
        <time>2019-06-19T10:27:36Z</time>
      </trkpt>
      <trkpt lat="44.31187" lon="5.82594">
        <ele>541</ele>
        <time>2019-06-19T10:27:37Z</time>
      </trkpt>
      <trkpt lat="44.31192" lon="5.82596">
        <ele>540</ele>
        <time>2019-06-19T10:27:38Z</time>
      </trkpt>
      <trkpt lat="44.31197" lon="5.82599">
        <ele>539</ele>
        <time>2019-06-19T10:27:39Z</time>
      </trkpt>
      <trkpt lat="44.31202" lon="5.82603">
        <ele>539</ele>
        <time>2019-06-19T10:27:40Z</time>
      </trkpt>
      <trkpt lat="44.31207" lon="5.82605">
        <ele>538</ele>
        <time>2019-06-19T10:27:41Z</time>
      </trkpt>
      <trkpt lat="44.31213" lon="5.82607">
        <ele>538</ele>
        <time>2019-06-19T10:27:42Z</time>
      </trkpt>
      <trkpt lat="44.31218" lon="5.8261">
        <ele>538</ele>
        <time>2019-06-19T10:27:43Z</time>
      </trkpt>
      <trkpt lat="44.31222" lon="5.82613">
        <ele>538</ele>
        <time>2019-06-19T10:27:44Z</time>
      </trkpt>
      <trkpt lat="44.31227" lon="5.82615">
        <ele>538</ele>
        <time>2019-06-19T10:27:45Z</time>
      </trkpt>
      <trkpt lat="44.31232" lon="5.82618">
        <ele>538</ele>
        <time>2019-06-19T10:27:46Z</time>
      </trkpt>
      <trkpt lat="44.31237" lon="5.8262">
        <ele>537</ele>
        <time>2019-06-19T10:27:47Z</time>
      </trkpt>
      <trkpt lat="44.31241" lon="5.82623">
        <ele>537</ele>
        <time>2019-06-19T10:27:48Z</time>
      </trkpt>
      <trkpt lat="44.31246" lon="5.82625">
        <ele>537</ele>
        <time>2019-06-19T10:27:49Z</time>
      </trkpt>
      <trkpt lat="44.3125" lon="5.82628">
        <ele>537</ele>
        <time>2019-06-19T10:27:50Z</time>
      </trkpt>
      <trkpt lat="44.31255" lon="5.82631">
        <ele>537</ele>
        <time>2019-06-19T10:27:51Z</time>
      </trkpt>
      <trkpt lat="44.31259" lon="5.82633">
        <ele>537</ele>
        <time>2019-06-19T10:27:52Z</time>
      </trkpt>
      <trkpt lat="44.31263" lon="5.82635">
        <ele>537</ele>
        <time>2019-06-19T10:27:53Z</time>
      </trkpt>
      <trkpt lat="44.31267" lon="5.82638">
        <ele>537</ele>
        <time>2019-06-19T10:27:54Z</time>
      </trkpt>
      <trkpt lat="44.31271" lon="5.82641">
        <ele>537</ele>
        <time>2019-06-19T10:27:55Z</time>
      </trkpt>
      <trkpt lat="44.31275" lon="5.82643">
        <ele>537</ele>
        <time>2019-06-19T10:27:56Z</time>
      </trkpt>
      <trkpt lat="44.31279" lon="5.82645">
        <ele>537</ele>
        <time>2019-06-19T10:27:57Z</time>
      </trkpt>
      <trkpt lat="44.31283" lon="5.82648">
        <ele>537</ele>
        <time>2019-06-19T10:27:58Z</time>
      </trkpt>
      <trkpt lat="44.31286" lon="5.8265">
        <ele>537</ele>
        <time>2019-06-19T10:27:59Z</time>
      </trkpt>
      <trkpt lat="44.3129" lon="5.82652">
        <ele>537</ele>
        <time>2019-06-19T10:28:00Z</time>
      </trkpt>
      <trkpt lat="44.31295" lon="5.82655">
        <ele>537</ele>
        <time>2019-06-19T10:28:01Z</time>
      </trkpt>
      <trkpt lat="44.31298" lon="5.82657">
        <ele>537</ele>
        <time>2019-06-19T10:28:02Z</time>
      </trkpt>
      <trkpt lat="44.31301" lon="5.82659">
        <ele>537</ele>
        <time>2019-06-19T10:28:03Z</time>
      </trkpt>
      <trkpt lat="44.31304" lon="5.82661">
        <ele>537</ele>
        <time>2019-06-19T10:28:04Z</time>
      </trkpt>
      <trkpt lat="44.31307" lon="5.82663">
        <ele>538</ele>
        <time>2019-06-19T10:28:05Z</time>
      </trkpt>
      <trkpt lat="44.3131" lon="5.82666">
        <ele>538</ele>
        <time>2019-06-19T10:28:06Z</time>
      </trkpt>
      <trkpt lat="44.31313" lon="5.82667">
        <ele>538</ele>
        <time>2019-06-19T10:28:07Z</time>
      </trkpt>
      <trkpt lat="44.31315" lon="5.82669">
        <ele>538</ele>
        <time>2019-06-19T10:28:08Z</time>
      </trkpt>
      <trkpt lat="44.31317" lon="5.8267">
        <ele>539</ele>
        <time>2019-06-19T10:28:09Z</time>
      </trkpt>
      <trkpt lat="44.31319" lon="5.82671">
        <ele>539</ele>
        <time>2019-06-19T10:28:10Z</time>
      </trkpt>
      <trkpt lat="44.3132" lon="5.82672">
        <ele>540</ele>
        <time>2019-06-19T10:28:11Z</time>
      </trkpt>
      <trkpt lat="44.31322" lon="5.82673">
        <ele>540</ele>
        <time>2019-06-19T10:28:12Z</time>
      </trkpt>
      <trkpt lat="44.31324" lon="5.82674">
        <ele>541</ele>
        <time>2019-06-19T10:28:13Z</time>
      </trkpt>
      <trkpt lat="44.31326" lon="5.82676">
        <ele>541</ele>
        <time>2019-06-19T10:28:14Z</time>
      </trkpt>
      <trkpt lat="44.31329" lon="5.82677">
        <ele>542</ele>
        <time>2019-06-19T10:28:15Z</time>
      </trkpt>
      <trkpt lat="44.31331" lon="5.82677">
        <ele>542</ele>
        <time>2019-06-19T10:28:16Z</time>
      </trkpt>
      <trkpt lat="44.31333" lon="5.82678">
        <ele>542</ele>
        <time>2019-06-19T10:28:17Z</time>
      </trkpt>
      <trkpt lat="44.31337" lon="5.82679">
        <ele>542</ele>
        <time>2019-06-19T10:28:18Z</time>
      </trkpt>
      <trkpt lat="44.31339" lon="5.8268">
        <ele>542</ele>
        <time>2019-06-19T10:28:19Z</time>
      </trkpt>
      <trkpt lat="44.31341" lon="5.8268">
        <ele>542</ele>
        <time>2019-06-19T10:28:20Z</time>
      </trkpt>
      <trkpt lat="44.31343" lon="5.82682">
        <ele>542</ele>
        <time>2019-06-19T10:28:21Z</time>
      </trkpt>
      <trkpt lat="44.31346" lon="5.82684">
        <ele>542</ele>
        <time>2019-06-19T10:28:22Z</time>
      </trkpt>
      <trkpt lat="44.31348" lon="5.82687">
        <ele>542</ele>
        <time>2019-06-19T10:28:23Z</time>
      </trkpt>
      <trkpt lat="44.31348" lon="5.8269">
        <ele>542</ele>
        <time>2019-06-19T10:28:24Z</time>
      </trkpt>
      <trkpt lat="44.31348" lon="5.82692">
        <ele>542</ele>
        <time>2019-06-19T10:28:25Z</time>
      </trkpt>
      <trkpt lat="44.31348" lon="5.82695">
        <ele>542</ele>
        <time>2019-06-19T10:28:26Z</time>
      </trkpt>
      <trkpt lat="44.31348" lon="5.82697">
        <ele>542</ele>
        <time>2019-06-19T10:28:27Z</time>
      </trkpt>
      <trkpt lat="44.3135" lon="5.827">
        <ele>542</ele>
        <time>2019-06-19T10:28:28Z</time>
      </trkpt>
      <trkpt lat="44.31351" lon="5.82702">
        <ele>543</ele>
        <time>2019-06-19T10:28:29Z</time>
      </trkpt>
      <trkpt lat="44.31354" lon="5.82704">
        <ele>543</ele>
        <time>2019-06-19T10:28:30Z</time>
      </trkpt>
      <trkpt lat="44.31358" lon="5.82707">
        <ele>544</ele>
        <time>2019-06-19T10:28:31Z</time>
      </trkpt>
      <trkpt lat="44.31361" lon="5.8271">
        <ele>544</ele>
        <time>2019-06-19T10:28:32Z</time>
      </trkpt>
      <trkpt lat="44.31364" lon="5.82713">
        <ele>545</ele>
        <time>2019-06-19T10:28:33Z</time>
      </trkpt>
      <trkpt lat="44.31367" lon="5.82717">
        <ele>545</ele>
        <time>2019-06-19T10:28:34Z</time>
      </trkpt>
      <trkpt lat="44.31368" lon="5.82722">
        <ele>545</ele>
        <time>2019-06-19T10:28:35Z</time>
      </trkpt>
      <trkpt lat="44.31368" lon="5.82728">
        <ele>546</ele>
        <time>2019-06-19T10:28:36Z</time>
      </trkpt>
      <trkpt lat="44.31368" lon="5.82734">
        <ele>546</ele>
        <time>2019-06-19T10:28:37Z</time>
      </trkpt>
      <trkpt lat="44.31367" lon="5.8274">
        <ele>546</ele>
        <time>2019-06-19T10:28:38Z</time>
      </trkpt>
      <trkpt lat="44.31367" lon="5.82746">
        <ele>546</ele>
        <time>2019-06-19T10:28:39Z</time>
      </trkpt>
      <trkpt lat="44.31367" lon="5.82753">
        <ele>547</ele>
        <time>2019-06-19T10:28:40Z</time>
      </trkpt>
      <trkpt lat="44.31368" lon="5.82759">
        <ele>547</ele>
        <time>2019-06-19T10:28:41Z</time>
      </trkpt>
      <trkpt lat="44.31368" lon="5.82766">
        <ele>547</ele>
        <time>2019-06-19T10:28:42Z</time>
      </trkpt>
      <trkpt lat="44.31368" lon="5.82773">
        <ele>547</ele>
        <time>2019-06-19T10:28:43Z</time>
      </trkpt>
      <trkpt lat="44.31369" lon="5.8278">
        <ele>548</ele>
        <time>2019-06-19T10:28:44Z</time>
      </trkpt>
      <trkpt lat="44.31369" lon="5.82788">
        <ele>548</ele>
        <time>2019-06-19T10:28:45Z</time>
      </trkpt>
      <trkpt lat="44.31369" lon="5.82795">
        <ele>548</ele>
        <time>2019-06-19T10:28:46Z</time>
      </trkpt>
      <trkpt lat="44.31369" lon="5.82803">
        <ele>549</ele>
        <time>2019-06-19T10:28:47Z</time>
      </trkpt>
      <trkpt lat="44.31368" lon="5.8281">
        <ele>549</ele>
        <time>2019-06-19T10:28:48Z</time>
      </trkpt>
      <trkpt lat="44.31367" lon="5.82818">
        <ele>550</ele>
        <time>2019-06-19T10:28:49Z</time>
      </trkpt>
      <trkpt lat="44.31366" lon="5.82825">
        <ele>551</ele>
        <time>2019-06-19T10:28:50Z</time>
      </trkpt>
      <trkpt lat="44.31366" lon="5.82833">
        <ele>551</ele>
        <time>2019-06-19T10:28:51Z</time>
      </trkpt>
      <trkpt lat="44.31365" lon="5.82841">
        <ele>552</ele>
        <time>2019-06-19T10:28:52Z</time>
      </trkpt>
      <trkpt lat="44.31364" lon="5.82849">
        <ele>552</ele>
        <time>2019-06-19T10:28:53Z</time>
      </trkpt>
      <trkpt lat="44.31363" lon="5.82857">
        <ele>553</ele>
        <time>2019-06-19T10:28:54Z</time>
      </trkpt>
      <trkpt lat="44.31363" lon="5.82865">
        <ele>553</ele>
        <time>2019-06-19T10:28:55Z</time>
      </trkpt>
      <trkpt lat="44.31363" lon="5.82872">
        <ele>554</ele>
        <time>2019-06-19T10:28:56Z</time>
      </trkpt>
      <trkpt lat="44.31363" lon="5.8288">
        <ele>554</ele>
        <time>2019-06-19T10:28:57Z</time>
      </trkpt>
      <trkpt lat="44.31362" lon="5.82888">
        <ele>554</ele>
        <time>2019-06-19T10:28:58Z</time>
      </trkpt>
      <trkpt lat="44.31361" lon="5.82896">
        <ele>554</ele>
        <time>2019-06-19T10:28:59Z</time>
      </trkpt>
      <trkpt lat="44.3136" lon="5.82904">
        <ele>555</ele>
        <time>2019-06-19T10:29:00Z</time>
      </trkpt>
      <trkpt lat="44.31359" lon="5.82912">
        <ele>555</ele>
        <time>2019-06-19T10:29:01Z</time>
      </trkpt>
      <trkpt lat="44.31358" lon="5.8292">
        <ele>556</ele>
        <time>2019-06-19T10:29:02Z</time>
      </trkpt>
      <trkpt lat="44.31356" lon="5.82927">
        <ele>556</ele>
        <time>2019-06-19T10:29:03Z</time>
      </trkpt>
      <trkpt lat="44.31356" lon="5.82935">
        <ele>557</ele>
        <time>2019-06-19T10:29:04Z</time>
      </trkpt>
      <trkpt lat="44.31355" lon="5.82943">
        <ele>557</ele>
        <time>2019-06-19T10:29:05Z</time>
      </trkpt>
      <trkpt lat="44.31354" lon="5.82951">
        <ele>558</ele>
        <time>2019-06-19T10:29:06Z</time>
      </trkpt>
      <trkpt lat="44.31353" lon="5.82959">
        <ele>558</ele>
        <time>2019-06-19T10:29:07Z</time>
      </trkpt>
      <trkpt lat="44.31351" lon="5.82967">
        <ele>559</ele>
        <time>2019-06-19T10:29:08Z</time>
      </trkpt>
      <trkpt lat="44.3135" lon="5.82975">
        <ele>559</ele>
        <time>2019-06-19T10:29:09Z</time>
      </trkpt>
      <trkpt lat="44.31349" lon="5.82983">
        <ele>560</ele>
        <time>2019-06-19T10:29:10Z</time>
      </trkpt>
      <trkpt lat="44.31348" lon="5.82991">
        <ele>560</ele>
        <time>2019-06-19T10:29:11Z</time>
      </trkpt>
      <trkpt lat="44.31347" lon="5.82999">
        <ele>560</ele>
        <time>2019-06-19T10:29:12Z</time>
      </trkpt>
      <trkpt lat="44.31346" lon="5.83007">
        <ele>560</ele>
        <time>2019-06-19T10:29:13Z</time>
      </trkpt>
      <trkpt lat="44.31345" lon="5.83014">
        <ele>560</ele>
        <time>2019-06-19T10:29:14Z</time>
      </trkpt>
      <trkpt lat="44.31345" lon="5.83021">
        <ele>561</ele>
        <time>2019-06-19T10:29:15Z</time>
      </trkpt>
      <trkpt lat="44.31343" lon="5.83028">
        <ele>561</ele>
        <time>2019-06-19T10:29:16Z</time>
      </trkpt>
      <trkpt lat="44.31342" lon="5.83035">
        <ele>561</ele>
        <time>2019-06-19T10:29:17Z</time>
      </trkpt>
      <trkpt lat="44.31341" lon="5.83042">
        <ele>562</ele>
        <time>2019-06-19T10:29:18Z</time>
      </trkpt>
      <trkpt lat="44.3134" lon="5.83049">
        <ele>562</ele>
        <time>2019-06-19T10:29:19Z</time>
      </trkpt>
      <trkpt lat="44.31339" lon="5.83056">
        <ele>562</ele>
        <time>2019-06-19T10:29:20Z</time>
      </trkpt>
      <trkpt lat="44.31338" lon="5.83063">
        <ele>562</ele>
        <time>2019-06-19T10:29:21Z</time>
      </trkpt>
      <trkpt lat="44.31337" lon="5.8307">
        <ele>562</ele>
        <time>2019-06-19T10:29:22Z</time>
      </trkpt>
      <trkpt lat="44.31337" lon="5.83077">
        <ele>562</ele>
        <time>2019-06-19T10:29:23Z</time>
      </trkpt>
      <trkpt lat="44.31336" lon="5.83083">
        <ele>562</ele>
        <time>2019-06-19T10:29:24Z</time>
      </trkpt>
      <trkpt lat="44.31336" lon="5.8309">
        <ele>563</ele>
        <time>2019-06-19T10:29:25Z</time>
      </trkpt>
      <trkpt lat="44.31337" lon="5.83095">
        <ele>563</ele>
        <time>2019-06-19T10:29:26Z</time>
      </trkpt>
      <trkpt lat="44.31338" lon="5.831">
        <ele>564</ele>
        <time>2019-06-19T10:29:27Z</time>
      </trkpt>
      <trkpt lat="44.31342" lon="5.83103">
        <ele>564</ele>
        <time>2019-06-19T10:29:28Z</time>
      </trkpt>
      <trkpt lat="44.31346" lon="5.83104">
        <ele>565</ele>
        <time>2019-06-19T10:29:29Z</time>
      </trkpt>
      <trkpt lat="44.31351" lon="5.83102">
        <ele>565</ele>
        <time>2019-06-19T10:29:30Z</time>
      </trkpt>
      <trkpt lat="44.31355" lon="5.83098">
        <ele>565</ele>
        <time>2019-06-19T10:29:31Z</time>
      </trkpt>
      <trkpt lat="44.31358" lon="5.83092">
        <ele>566</ele>
        <time>2019-06-19T10:29:32Z</time>
      </trkpt>
      <trkpt lat="44.3136" lon="5.83086">
        <ele>566</ele>
        <time>2019-06-19T10:29:33Z</time>
      </trkpt>
      <trkpt lat="44.31363" lon="5.8308">
        <ele>567</ele>
        <time>2019-06-19T10:29:34Z</time>
      </trkpt>
      <trkpt lat="44.31366" lon="5.83076">
        <ele>568</ele>
        <time>2019-06-19T10:29:35Z</time>
      </trkpt>
      <trkpt lat="44.31369" lon="5.83071">
        <ele>569</ele>
        <time>2019-06-19T10:29:36Z</time>
      </trkpt>
      <trkpt lat="44.31372" lon="5.83065">
        <ele>570</ele>
        <time>2019-06-19T10:29:37Z</time>
      </trkpt>
      <trkpt lat="44.31376" lon="5.8306">
        <ele>571</ele>
        <time>2019-06-19T10:29:38Z</time>
      </trkpt>
      <trkpt lat="44.3138" lon="5.83055">
        <ele>572</ele>
        <time>2019-06-19T10:29:39Z</time>
      </trkpt>
      <trkpt lat="44.31385" lon="5.8305">
        <ele>573</ele>
        <time>2019-06-19T10:29:40Z</time>
      </trkpt>
      <trkpt lat="44.31389" lon="5.83044">
        <ele>574</ele>
        <time>2019-06-19T10:29:41Z</time>
      </trkpt>
      <trkpt lat="44.31393" lon="5.83038">
        <ele>575</ele>
        <time>2019-06-19T10:29:42Z</time>
      </trkpt>
      <trkpt lat="44.31398" lon="5.83032">
        <ele>576</ele>
        <time>2019-06-19T10:29:43Z</time>
      </trkpt>
      <trkpt lat="44.31403" lon="5.83025">
        <ele>577</ele>
        <time>2019-06-19T10:29:44Z</time>
      </trkpt>
      <trkpt lat="44.31408" lon="5.83018">
        <ele>578</ele>
        <time>2019-06-19T10:29:45Z</time>
      </trkpt>
      <trkpt lat="44.31413" lon="5.83011">
        <ele>579</ele>
        <time>2019-06-19T10:29:46Z</time>
      </trkpt>
      <trkpt lat="44.31418" lon="5.83005">
        <ele>580</ele>
        <time>2019-06-19T10:29:47Z</time>
      </trkpt>
      <trkpt lat="44.31424" lon="5.82999">
        <ele>581</ele>
        <time>2019-06-19T10:29:48Z</time>
      </trkpt>
      <trkpt lat="44.31429" lon="5.82992">
        <ele>582</ele>
        <time>2019-06-19T10:29:49Z</time>
      </trkpt>
      <trkpt lat="44.31433" lon="5.82985">
        <ele>583</ele>
        <time>2019-06-19T10:29:50Z</time>
      </trkpt>
      <trkpt lat="44.31438" lon="5.82978">
        <ele>584</ele>
        <time>2019-06-19T10:29:51Z</time>
      </trkpt>
      <trkpt lat="44.31443" lon="5.82971">
        <ele>585</ele>
        <time>2019-06-19T10:29:52Z</time>
      </trkpt>
      <trkpt lat="44.31448" lon="5.82965">
        <ele>586</ele>
        <time>2019-06-19T10:29:53Z</time>
      </trkpt>
      <trkpt lat="44.31453" lon="5.82959">
        <ele>587</ele>
        <time>2019-06-19T10:29:54Z</time>
      </trkpt>
      <trkpt lat="44.31458" lon="5.82952">
        <ele>588</ele>
        <time>2019-06-19T10:29:55Z</time>
      </trkpt>
      <trkpt lat="44.31463" lon="5.82945">
        <ele>589</ele>
        <time>2019-06-19T10:29:56Z</time>
      </trkpt>
      <trkpt lat="44.31467" lon="5.82939">
        <ele>590</ele>
        <time>2019-06-19T10:29:57Z</time>
      </trkpt>
      <trkpt lat="44.31472" lon="5.82932">
        <ele>591</ele>
        <time>2019-06-19T10:29:58Z</time>
      </trkpt>
      <trkpt lat="44.31476" lon="5.82925">
        <ele>592</ele>
        <time>2019-06-19T10:29:59Z</time>
      </trkpt>
      <trkpt lat="44.3148" lon="5.82918">
        <ele>592</ele>
        <time>2019-06-19T10:30:00Z</time>
      </trkpt>
      <trkpt lat="44.31484" lon="5.82911">
        <ele>592</ele>
        <time>2019-06-19T10:30:01Z</time>
      </trkpt>
      <trkpt lat="44.31488" lon="5.82904">
        <ele>592</ele>
        <time>2019-06-19T10:30:02Z</time>
      </trkpt>
      <trkpt lat="44.31492" lon="5.82897">
        <ele>592</ele>
        <time>2019-06-19T10:30:03Z</time>
      </trkpt>
      <trkpt lat="44.31497" lon="5.8289">
        <ele>592</ele>
        <time>2019-06-19T10:30:04Z</time>
      </trkpt>
      <trkpt lat="44.31502" lon="5.82884">
        <ele>592</ele>
        <time>2019-06-19T10:30:05Z</time>
      </trkpt>
      <trkpt lat="44.31507" lon="5.82878">
        <ele>592</ele>
        <time>2019-06-19T10:30:06Z</time>
      </trkpt>
      <trkpt lat="44.31512" lon="5.82875">
        <ele>591</ele>
        <time>2019-06-19T10:30:07Z</time>
      </trkpt>
      <trkpt lat="44.31516" lon="5.82875">
        <ele>590</ele>
        <time>2019-06-19T10:30:08Z</time>
      </trkpt>
      <trkpt lat="44.3152" lon="5.82879">
        <ele>589</ele>
        <time>2019-06-19T10:30:09Z</time>
      </trkpt>
      <trkpt lat="44.31523" lon="5.82882">
        <ele>588</ele>
        <time>2019-06-19T10:30:10Z</time>
      </trkpt>
      <trkpt lat="44.31527" lon="5.82887">
        <ele>586</ele>
        <time>2019-06-19T10:30:11Z</time>
      </trkpt>
      <trkpt lat="44.31532" lon="5.82892">
        <ele>585</ele>
        <time>2019-06-19T10:30:12Z</time>
      </trkpt>
      <trkpt lat="44.31536" lon="5.82897">
        <ele>583</ele>
        <time>2019-06-19T10:30:13Z</time>
      </trkpt>
      <trkpt lat="44.3154" lon="5.82901">
        <ele>582</ele>
        <time>2019-06-19T10:30:14Z</time>
      </trkpt>
      <trkpt lat="44.31545" lon="5.82905">
        <ele>581</ele>
        <time>2019-06-19T10:30:15Z</time>
      </trkpt>
      <trkpt lat="44.31549" lon="5.82909">
        <ele>580</ele>
        <time>2019-06-19T10:30:16Z</time>
      </trkpt>
      <trkpt lat="44.31554" lon="5.82913">
        <ele>579</ele>
        <time>2019-06-19T10:30:17Z</time>
      </trkpt>
      <trkpt lat="44.31557" lon="5.82916">
        <ele>578</ele>
        <time>2019-06-19T10:30:18Z</time>
      </trkpt>
      <trkpt lat="44.31562" lon="5.82919">
        <ele>576</ele>
        <time>2019-06-19T10:30:19Z</time>
      </trkpt>
      <trkpt lat="44.31566" lon="5.82922">
        <ele>575</ele>
        <time>2019-06-19T10:30:20Z</time>
      </trkpt>
      <trkpt lat="44.3157" lon="5.82925">
        <ele>573</ele>
        <time>2019-06-19T10:30:21Z</time>
      </trkpt>
      <trkpt lat="44.31574" lon="5.82928">
        <ele>572</ele>
        <time>2019-06-19T10:30:22Z</time>
      </trkpt>
      <trkpt lat="44.31577" lon="5.8293">
        <ele>571</ele>
        <time>2019-06-19T10:30:23Z</time>
      </trkpt>
      <trkpt lat="44.3158" lon="5.82932">
        <ele>570</ele>
        <time>2019-06-19T10:30:24Z</time>
      </trkpt>
      <trkpt lat="44.31584" lon="5.82934">
        <ele>569</ele>
        <time>2019-06-19T10:30:25Z</time>
      </trkpt>
      <trkpt lat="44.31587" lon="5.82936">
        <ele>568</ele>
        <time>2019-06-19T10:30:26Z</time>
      </trkpt>
      <trkpt lat="44.31589" lon="5.82938">
        <ele>567</ele>
        <time>2019-06-19T10:30:27Z</time>
      </trkpt>
      <trkpt lat="44.31592" lon="5.8294">
        <ele>566</ele>
        <time>2019-06-19T10:30:28Z</time>
      </trkpt>
      <trkpt lat="44.31593" lon="5.82942">
        <ele>566</ele>
        <time>2019-06-19T10:30:29Z</time>
      </trkpt>
      <trkpt lat="44.31595" lon="5.82943">
        <ele>565</ele>
        <time>2019-06-19T10:30:30Z</time>
      </trkpt>
      <trkpt lat="44.31597" lon="5.82944">
        <ele>564</ele>
        <time>2019-06-19T10:30:32Z</time>
      </trkpt>
      <trkpt lat="44.31596" lon="5.82944">
        <ele>557</ele>
        <time>2019-06-19T10:30:53Z</time>
      </trkpt>
      <trkpt lat="44.31597" lon="5.82945">
        <ele>556</ele>
        <time>2019-06-19T10:30:57Z</time>
      </trkpt>
      <trkpt lat="44.31599" lon="5.82946">
        <ele>556</ele>
        <time>2019-06-19T10:30:59Z</time>
      </trkpt>
      <trkpt lat="44.31599" lon="5.82947">
        <ele>556</ele>
        <time>2019-06-19T10:31:00Z</time>
      </trkpt>
      <trkpt lat="44.31601" lon="5.82949">
        <ele>556</ele>
        <time>2019-06-19T10:31:01Z</time>
      </trkpt>
      <trkpt lat="44.31601" lon="5.82951">
        <ele>556</ele>
        <time>2019-06-19T10:31:02Z</time>
      </trkpt>
      <trkpt lat="44.31602" lon="5.82952">
        <ele>556</ele>
        <time>2019-06-19T10:31:04Z</time>
      </trkpt>
      <trkpt lat="44.31603" lon="5.82954">
        <ele>557</ele>
        <time>2019-06-19T10:31:08Z</time>
      </trkpt>
      <trkpt lat="44.31603" lon="5.82954">
        <ele>557</ele>
        <time>2019-06-19T10:31:08Z</time>
      </trkpt>
    </trkseg>
  </trk>
</gpx>